<?xml version="1.0" encoding="UTF-8" standalone="no" ?>
  <gpx version="1.0" creator="Loctome.com">
  <metadata>
  <link href="http://loctome.com">
      <text>Loctome Live Track GPS</text>
  </link>
  <desc>Track created by http://loctome.com</desc>
  <time>2016-06-29T13:40:50Z</time>
  </metadata>
  <trk>
   <name>JavierAguayo</name>
   <trkseg>
      <trkpt lat="41.8212916" lon="-4.5111717"><ele>813</ele><speed>0</speed><time>2016-06-29T13:40:50Z</time><course>81</course><type>1</type></trkpt>
      <trkpt lat="41.8212916" lon="-4.5111717"><ele>813</ele><speed>0</speed><time>2016-06-29T13:41:51Z</time><course>81</course><type>1</type></trkpt>
      <trkpt lat="41.8212916" lon="-4.5111717"><ele>813</ele><speed>0</speed><time>2016-06-29T13:42:52Z</time><course>81</course><type>1</type></trkpt>
      <trkpt lat="41.8213016" lon="-4.5112117"><ele>813</ele><speed>0</speed><time>2016-06-29T13:43:23Z</time><course>152</course><type>1</type></trkpt>
      <trkpt lat="41.821325" lon="-4.51127"><ele>813</ele><speed>0</speed><time>2016-06-29T13:43:47Z</time><course>180</course><type>1</type></trkpt>
      <trkpt lat="41.8212783" lon="-4.5111367"><ele>812</ele><speed>2</speed><time>2016-06-29T13:44:39Z</time><course>135</course><type>1</type></trkpt>
      <trkpt lat="41.8212666" lon="-4.51108"><ele>812</ele><speed>2</speed><time>2016-06-29T13:44:44Z</time><course>110</course><type>1</type></trkpt>
      <trkpt lat="41.8212649" lon="-4.511145"><ele>814</ele><speed>0</speed><time>2016-06-29T13:45:33Z</time><course>90</course><type>1</type></trkpt>
      <trkpt lat="41.8212133" lon="-4.5110817"><ele>812</ele><speed>1</speed><time>2016-06-29T13:45:42Z</time><course>158</course><type>1</type></trkpt>
      <trkpt lat="41.82123" lon="-4.5111517"><ele>813</ele><speed>1</speed><time>2016-06-29T13:46:14Z</time><course>318</course><type>1</type></trkpt>
      <trkpt lat="41.8212016" lon="-4.511085"><ele>813</ele><speed>6</speed><time>2016-06-29T13:46:16Z</time><course>109</course><type>1</type></trkpt>
      <trkpt lat="41.8211783" lon="-4.51104"><ele>813</ele><speed>3</speed><time>2016-06-29T13:46:18Z</time><course>132</course><type>1</type></trkpt>
      <trkpt lat="41.8211366" lon="-4.5110384"><ele>813</ele><speed>9</speed><time>2016-06-29T13:46:26Z</time><course>222</course><type>1</type></trkpt>
      <trkpt lat="41.8211433" lon="-4.5110967"><ele>814</ele><speed>0</speed><time>2016-06-29T13:46:31Z</time><course>351</course><type>1</type></trkpt>
      <trkpt lat="41.8211683" lon="-4.5111334"><ele>814</ele><speed>3</speed><time>2016-06-29T13:46:38Z</time><course>307</course><type>1</type></trkpt>
      <trkpt lat="41.8211983" lon="-4.51116"><ele>815</ele><speed>4</speed><time>2016-06-29T13:46:40Z</time><course>323</course><type>1</type></trkpt>
      <trkpt lat="41.8212583" lon="-4.5112017"><ele>815</ele><speed>9</speed><time>2016-06-29T13:46:43Z</time><course>332</course><type>1</type></trkpt>
      <trkpt lat="41.8212966" lon="-4.511205"><ele>816</ele><speed>5</speed><time>2016-06-29T13:46:45Z</time><course>14</course><type>1</type></trkpt>
      <trkpt lat="41.8212716" lon="-4.511255"><ele>818</ele><speed>12</speed><time>2016-06-29T13:46:49Z</time><course>238</course><type>1</type></trkpt>
      <trkpt lat="41.82124" lon="-4.5113134"><ele>819</ele><speed>10</speed><time>2016-06-29T13:46:51Z</time><course>221</course><type>1</type></trkpt>
      <trkpt lat="41.8212216" lon="-4.5113717"><ele>820</ele><speed>4</speed><time>2016-06-29T13:46:54Z</time><course>256</course><type>1</type></trkpt>
      <trkpt lat="41.8212566" lon="-4.5114484"><ele>824</ele><speed>7</speed><time>2016-06-29T13:46:58Z</time><course>343</course><type>1</type></trkpt>
      <trkpt lat="41.82127" lon="-4.511495"><ele>828</ele><speed>9</speed><time>2016-06-29T13:47:04Z</time><course>289</course><type>1</type></trkpt>
      <trkpt lat="41.82128" lon="-4.51156"><ele>828</ele><speed>6</speed><time>2016-06-29T13:47:08Z</time><course>263</course><type>1</type></trkpt>
      <trkpt lat="41.8212533" lon="-4.511655"><ele>829</ele><speed>8</speed><time>2016-06-29T13:47:11Z</time><course>241</course><type>1</type></trkpt>
      <trkpt lat="41.821235" lon="-4.51172"><ele>830</ele><speed>8</speed><time>2016-06-29T13:47:13Z</time><course>253</course><type>1</type></trkpt>
      <trkpt lat="41.8212583" lon="-4.51178"><ele>829</ele><speed>7</speed><time>2016-06-29T13:47:15Z</time><course>304</course><type>1</type></trkpt>
      <trkpt lat="41.8212733" lon="-4.5118517"><ele>828</ele><speed>11</speed><time>2016-06-29T13:47:17Z</time><course>255</course><type>1</type></trkpt>
      <trkpt lat="41.821235" lon="-4.5119534"><ele>828</ele><speed>18</speed><time>2016-06-29T13:47:19Z</time><course>234</course><type>1</type></trkpt>
      <trkpt lat="41.8211483" lon="-4.5120234"><ele>829</ele><speed>16</speed><time>2016-06-29T13:47:21Z</time><course>211</course><type>1</type></trkpt>
      <trkpt lat="41.8210783" lon="-4.51207"><ele>830</ele><speed>13</speed><time>2016-06-29T13:47:23Z</time><course>216</course><type>1</type></trkpt>
      <trkpt lat="41.820985" lon="-4.512135"><ele>831</ele><speed>23</speed><time>2016-06-29T13:47:25Z</time><course>217</course><type>1</type></trkpt>
      <trkpt lat="41.8208966" lon="-4.51223"><ele>833</ele><speed>22</speed><time>2016-06-29T13:47:27Z</time><course>222</course><type>1</type></trkpt>
      <trkpt lat="41.820825" lon="-4.51229"><ele>834</ele><speed>15</speed><time>2016-06-29T13:47:29Z</time><course>213</course><type>1</type></trkpt>
      <trkpt lat="41.8207816" lon="-4.512345"><ele>835</ele><speed>11</speed><time>2016-06-29T13:47:31Z</time><course>234</course><type>1</type></trkpt>
      <trkpt lat="41.8207216" lon="-4.5124117"><ele>837</ele><speed>10</speed><time>2016-06-29T13:47:34Z</time><course>214</course><type>1</type></trkpt>
      <trkpt lat="41.8206933" lon="-4.51247"><ele>837</ele><speed>13</speed><time>2016-06-29T13:47:36Z</time><course>253</course><type>1</type></trkpt>
      <trkpt lat="41.8206766" lon="-4.512545"><ele>839</ele><speed>9</speed><time>2016-06-29T13:47:38Z</time><course>243</course><type>1</type></trkpt>
      <trkpt lat="41.8206616" lon="-4.5125984"><ele>841</ele><speed>5</speed><time>2016-06-29T13:47:41Z</time><course>233</course><type>1</type></trkpt>
      <trkpt lat="41.8206666" lon="-4.5126484"><ele>843</ele><speed>10</speed><time>2016-06-29T13:47:43Z</time><course>278</course><type>1</type></trkpt>
      <trkpt lat="41.8206866" lon="-4.5127867"><ele>845</ele><speed>9</speed><time>2016-06-29T13:47:46Z</time><course>275</course><type>1</type></trkpt>
      <trkpt lat="41.820645" lon="-4.5128017"><ele>848</ele><speed>0</speed><time>2016-06-29T13:47:50Z</time><course>275</course><type>1</type></trkpt>
      <trkpt lat="41.82062" lon="-4.5128734"><ele>850</ele><speed>9</speed><time>2016-06-29T13:47:53Z</time><course>251</course><type>1</type></trkpt>
      <trkpt lat="41.8206283" lon="-4.51296"><ele>851</ele><speed>6</speed><time>2016-06-29T13:47:55Z</time><course>279</course><type>1</type></trkpt>
      <trkpt lat="41.8206333" lon="-4.51305"><ele>853</ele><speed>0</speed><time>2016-06-29T13:47:58Z</time><course>278</course><type>1</type></trkpt>
      <trkpt lat="41.8206349" lon="-4.5131367"><ele>854</ele><speed>12</speed><time>2016-06-29T13:48:00Z</time><course>270</course><type>1</type></trkpt>
      <trkpt lat="41.8205449" lon="-4.5132067"><ele>855</ele><speed>13</speed><time>2016-06-29T13:48:02Z</time><course>207</course><type>1</type></trkpt>
      <trkpt lat="41.82049" lon="-4.5132567"><ele>855</ele><speed>15</speed><time>2016-06-29T13:48:03Z</time><course>213</course><type>1</type></trkpt>
      <trkpt lat="41.8204099" lon="-4.5134067"><ele>857</ele><speed>16</speed><time>2016-06-29T13:48:06Z</time><course>236</course><type>1</type></trkpt>
      <trkpt lat="41.8204116" lon="-4.5134884"><ele>860</ele><speed>7</speed><time>2016-06-29T13:48:11Z</time><course>278</course><type>1</type></trkpt>
      <trkpt lat="41.82044" lon="-4.5135484"><ele>862</ele><speed>3</speed><time>2016-06-29T13:48:15Z</time><course>277</course><type>1</type></trkpt>
      <trkpt lat="41.8204666" lon="-4.5135867"><ele>863</ele><speed>3</speed><time>2016-06-29T13:48:17Z</time><course>277</course><type>1</type></trkpt>
      <trkpt lat="41.82049" lon="-4.51366"><ele>864</ele><speed>0</speed><time>2016-06-29T13:48:20Z</time><course>280</course><type>1</type></trkpt>
      <trkpt lat="41.8205033" lon="-4.5137134"><ele>865</ele><speed>6</speed><time>2016-06-29T13:48:23Z</time><course>280</course><type>1</type></trkpt>
      <trkpt lat="41.8205483" lon="-4.5137401"><ele>865</ele><speed>6</speed><time>2016-06-29T13:48:26Z</time><course>344</course><type>1</type></trkpt>
      <trkpt lat="41.8206066" lon="-4.5137884"><ele>866</ele><speed>10</speed><time>2016-06-29T13:48:29Z</time><course>316</course><type>1</type></trkpt>
      <trkpt lat="41.8206633" lon="-4.5138534"><ele>867</ele><speed>8</speed><time>2016-06-29T13:48:32Z</time><course>325</course><type>1</type></trkpt>
      <trkpt lat="41.8206866" lon="-4.5138967"><ele>868</ele><speed>8</speed><time>2016-06-29T13:48:34Z</time><course>304</course><type>1</type></trkpt>
      <trkpt lat="41.8207183" lon="-4.5139267"><ele>870</ele><speed>9</speed><time>2016-06-29T13:48:36Z</time><course>331</course><type>1</type></trkpt>
      <trkpt lat="41.8207433" lon="-4.51397"><ele>872</ele><speed>3</speed><time>2016-06-29T13:48:39Z</time><course>331</course><type>1</type></trkpt>
      <trkpt lat="41.8207666" lon="-4.5140684"><ele>874</ele><speed>13</speed><time>2016-06-29T13:48:42Z</time><course>287</course><type>1</type></trkpt>
      <trkpt lat="41.8208166" lon="-4.51416"><ele>876</ele><speed>18</speed><time>2016-06-29T13:48:44Z</time><course>313</course><type>1</type></trkpt>
      <trkpt lat="41.820855" lon="-4.5142034"><ele>877</ele><speed>19</speed><time>2016-06-29T13:48:45Z</time><course>324</course><type>1</type></trkpt>
      <trkpt lat="41.82092" lon="-4.514265"><ele>879</ele><speed>14</speed><time>2016-06-29T13:48:47Z</time><course>321</course><type>1</type></trkpt>
      <trkpt lat="41.821005" lon="-4.5143634"><ele>882</ele><speed>12</speed><time>2016-06-29T13:48:50Z</time><course>305</course><type>1</type></trkpt>
      <trkpt lat="41.8210366" lon="-4.514395"><ele>883</ele><speed>12</speed><time>2016-06-29T13:48:51Z</time><course>311</course><type>1</type></trkpt>
      <trkpt lat="41.8210833" lon="-4.51446"><ele>887</ele><speed>6</speed><time>2016-06-29T13:48:54Z</time><course>319</course><type>1</type></trkpt>
      <trkpt lat="41.82112" lon="-4.5145167"><ele>890</ele><speed>10</speed><time>2016-06-29T13:48:57Z</time><course>313</course><type>1</type></trkpt>
      <trkpt lat="41.821185" lon="-4.5146384"><ele>894</ele><speed>14</speed><time>2016-06-29T13:49:00Z</time><course>315</course><type>1</type></trkpt>
      <trkpt lat="41.8212516" lon="-4.514665"><ele>897</ele><speed>17</speed><time>2016-06-29T13:49:02Z</time><course>352</course><type>1</type></trkpt>
      <trkpt lat="41.821335" lon="-4.514695"><ele>900</ele><speed>17</speed><time>2016-06-29T13:49:04Z</time><course>340</course><type>1</type></trkpt>
      <trkpt lat="41.8213616" lon="-4.5147884"><ele>905</ele><speed>16</speed><time>2016-06-29T13:49:06Z</time><course>283</course><type>1</type></trkpt>
      <trkpt lat="41.821365" lon="-4.514865"><ele>908</ele><speed>12</speed><time>2016-06-29T13:49:08Z</time><course>277</course><type>1</type></trkpt>
      <trkpt lat="41.8213833" lon="-4.5149267"><ele>911</ele><speed>11</speed><time>2016-06-29T13:49:10Z</time><course>310</course><type>1</type></trkpt>
      <trkpt lat="41.8213866" lon="-4.5150184"><ele>917</ele><speed>16</speed><time>2016-06-29T13:49:13Z</time><course>270</course><type>1</type></trkpt>
      <trkpt lat="41.821375" lon="-4.515125"><ele>920</ele><speed>13</speed><time>2016-06-29T13:49:15Z</time><course>271</course><type>1</type></trkpt>
      <trkpt lat="41.82136" lon="-4.5151984"><ele>926</ele><speed>8</speed><time>2016-06-29T13:49:18Z</time><course>260</course><type>1</type></trkpt>
      <trkpt lat="41.8213233" lon="-4.5153017"><ele>929</ele><speed>13</speed><time>2016-06-29T13:49:20Z</time><course>271</course><type>1</type></trkpt>
      <trkpt lat="41.8213116" lon="-4.51542"><ele>932</ele><speed>19</speed><time>2016-06-29T13:49:22Z</time><course>269</course><type>1</type></trkpt>
      <trkpt lat="41.8212466" lon="-4.5155301"><ele>936</ele><speed>19</speed><time>2016-06-29T13:49:24Z</time><course>224</course><type>1</type></trkpt>
      <trkpt lat="41.8212066" lon="-4.5155667"><ele>938</ele><speed>16</speed><time>2016-06-29T13:49:25Z</time><course>218</course><type>1</type></trkpt>
      <trkpt lat="41.821155" lon="-4.5156367"><ele>942</ele><speed>12</speed><time>2016-06-29T13:49:27Z</time><course>236</course><type>1</type></trkpt>
      <trkpt lat="41.8212083" lon="-4.51578"><ele>945</ele><speed>18</speed><time>2016-06-29T13:49:30Z</time><course>286</course><type>1</type></trkpt>
      <trkpt lat="41.8212733" lon="-4.5159117"><ele>947</ele><speed>20</speed><time>2016-06-29T13:49:32Z</time><course>305</course><type>1</type></trkpt>
      <trkpt lat="41.8213716" lon="-4.516005"><ele>951</ele><speed>23</speed><time>2016-06-29T13:49:34Z</time><course>327</course><type>1</type></trkpt>
      <trkpt lat="41.8214133" lon="-4.5160434"><ele>952</ele><speed>19</speed><time>2016-06-29T13:49:35Z</time><course>324</course><type>1</type></trkpt>
      <trkpt lat="41.821465" lon="-4.5161067"><ele>956</ele><speed>14</speed><time>2016-06-29T13:49:37Z</time><course>317</course><type>1</type></trkpt>
      <trkpt lat="41.821495" lon="-4.5161367"><ele>958</ele><speed>17</speed><time>2016-06-29T13:49:38Z</time><course>331</course><type>1</type></trkpt>
      <trkpt lat="41.8216" lon="-4.5161734"><ele>960</ele><speed>24</speed><time>2016-06-29T13:49:40Z</time><course>345</course><type>1</type></trkpt>
      <trkpt lat="41.821665" lon="-4.516195"><ele>962</ele><speed>26</speed><time>2016-06-29T13:49:41Z</time><course>345</course><type>1</type></trkpt>
      <trkpt lat="41.8218033" lon="-4.5162367"><ele>965</ele><speed>27</speed><time>2016-06-29T13:49:43Z</time><course>348</course><type>1</type></trkpt>
      <trkpt lat="41.8218716" lon="-4.5162484"><ele>967</ele><speed>26</speed><time>2016-06-29T13:49:44Z</time><course>351</course><type>1</type></trkpt>
      <trkpt lat="41.8220133" lon="-4.5162184"><ele>973</ele><speed>29</speed><time>2016-06-29T13:49:46Z</time><course>1</course><type>1</type></trkpt>
      <trkpt lat="41.822095" lon="-4.5162134"><ele>975</ele><speed>32</speed><time>2016-06-29T13:49:47Z</time><course>358</course><type>1</type></trkpt>
      <trkpt lat="41.8222466" lon="-4.516245"><ele>978</ele><speed>28</speed><time>2016-06-29T13:49:49Z</time><course>347</course><type>1</type></trkpt>
      <trkpt lat="41.822385" lon="-4.516315"><ele>982</ele><speed>17</speed><time>2016-06-29T13:49:52Z</time><course>342</course><type>1</type></trkpt>
      <trkpt lat="41.82245" lon="-4.5163484"><ele>983</ele><speed>20</speed><time>2016-06-29T13:49:53Z</time><course>330</course><type>1</type></trkpt>
      <trkpt lat="41.8225233" lon="-4.51645"><ele>984</ele><speed>17</speed><time>2016-06-29T13:49:55Z</time><course>289</course><type>1</type></trkpt>
      <trkpt lat="41.8225133" lon="-4.5165317"><ele>983</ele><speed>22</speed><time>2016-06-29T13:49:56Z</time><course>250</course><type>1</type></trkpt>
      <trkpt lat="41.82242" lon="-4.51663"><ele>984</ele><speed>22</speed><time>2016-06-29T13:49:58Z</time><course>204</course><type>1</type></trkpt>
      <trkpt lat="41.82236" lon="-4.5166417"><ele>984</ele><speed>22</speed><time>2016-06-29T13:49:59Z</time><course>196</course><type>1</type></trkpt>
      <trkpt lat="41.8222666" lon="-4.5166584"><ele>984</ele><speed>20</speed><time>2016-06-29T13:50:01Z</time><course>201</course><type>1</type></trkpt>
      <trkpt lat="41.8222066" lon="-4.5166767"><ele>985</ele><speed>22</speed><time>2016-06-29T13:50:02Z</time><course>192</course><type>1</type></trkpt>
      <trkpt lat="41.822105" lon="-4.516685"><ele>984</ele><speed>22</speed><time>2016-06-29T13:50:04Z</time><course>182</course><type>1</type></trkpt>
      <trkpt lat="41.8220516" lon="-4.5166984"><ele>983</ele><speed>20</speed><time>2016-06-29T13:50:05Z</time><course>191</course><type>1</type></trkpt>
      <trkpt lat="41.821935" lon="-4.516755"><ele>981</ele><speed>25</speed><time>2016-06-29T13:50:07Z</time><course>204</course><type>1</type></trkpt>
      <trkpt lat="41.82182" lon="-4.5168134"><ele>981</ele><speed>22</speed><time>2016-06-29T13:50:09Z</time><course>197</course><type>1</type></trkpt>
      <trkpt lat="41.82173" lon="-4.5168017"><ele>981</ele><speed>16</speed><time>2016-06-29T13:50:11Z</time><course>173</course><type>1</type></trkpt>
      <trkpt lat="41.8216916" lon="-4.51681"><ele>980</ele><speed>17</speed><time>2016-06-29T13:50:12Z</time><course>203</course><type>1</type></trkpt>
      <trkpt lat="41.8216416" lon="-4.516845"><ele>980</ele><speed>24</speed><time>2016-06-29T13:50:13Z</time><course>212</course><type>1</type></trkpt>
      <trkpt lat="41.8215183" lon="-4.5169184"><ele>979</ele><speed>29</speed><time>2016-06-29T13:50:15Z</time><course>191</course><type>1</type></trkpt>
      <trkpt lat="41.8213683" lon="-4.5169334"><ele>980</ele><speed>30</speed><time>2016-06-29T13:50:17Z</time><course>179</course><type>1</type></trkpt>
      <trkpt lat="41.8212383" lon="-4.516935"><ele>979</ele><speed>22</speed><time>2016-06-29T13:50:19Z</time><course>182</course><type>1</type></trkpt>
      <trkpt lat="41.8211283" lon="-4.5169284"><ele>977</ele><speed>23</speed><time>2016-06-29T13:50:21Z</time><course>170</course><type>1</type></trkpt>
      <trkpt lat="41.8210666" lon="-4.5168967"><ele>976</ele><speed>27</speed><time>2016-06-29T13:50:22Z</time><course>154</course><type>1</type></trkpt>
      <trkpt lat="41.821" lon="-4.5168384"><ele>975</ele><speed>33</speed><time>2016-06-29T13:50:23Z</time><course>138</course><type>1</type></trkpt>
      <trkpt lat="41.820895" lon="-4.5166067"><ele>973</ele><speed>43</speed><time>2016-06-29T13:50:25Z</time><course>115</course><type>1</type></trkpt>
      <trkpt lat="41.8208683" lon="-4.5164534"><ele>973</ele><speed>47</speed><time>2016-06-29T13:50:26Z</time><course>105</course><type>1</type></trkpt>
      <trkpt lat="41.8208416" lon="-4.5163"><ele>972</ele><speed>43</speed><time>2016-06-29T13:50:27Z</time><course>103</course><type>1</type></trkpt>
      <trkpt lat="41.8208316" lon="-4.5159984"><ele>971</ele><speed>46</speed><time>2016-06-29T13:50:29Z</time><course>96</course><type>1</type></trkpt>
      <trkpt lat="41.8208966" lon="-4.5156434"><ele>968</ele><speed>50</speed><time>2016-06-29T13:50:31Z</time><course>75</course><type>1</type></trkpt>
      <trkpt lat="41.8209633" lon="-4.5154684"><ele>967</ele><speed>49</speed><time>2016-06-29T13:50:32Z</time><course>63</course><type>1</type></trkpt>
      <trkpt lat="41.82112" lon="-4.5151817"><ele>965</ele><speed>50</speed><time>2016-06-29T13:50:34Z</time><course>49</course><type>1</type></trkpt>
      <trkpt lat="41.82121" lon="-4.51506"><ele>965</ele><speed>48</speed><time>2016-06-29T13:50:35Z</time><course>42</course><type>1</type></trkpt>
      <trkpt lat="41.8214266" lon="-4.5149017"><ele>963</ele><speed>46</speed><time>2016-06-29T13:50:37Z</time><course>21</course><type>1</type></trkpt>
      <trkpt lat="41.8215333" lon="-4.51483"><ele>964</ele><speed>44</speed><time>2016-06-29T13:50:38Z</time><course>16</course><type>1</type></trkpt>
      <trkpt lat="41.82164" lon="-4.5147917"><ele>964</ele><speed>41</speed><time>2016-06-29T13:50:39Z</time><course>11</course><type>1</type></trkpt>
      <trkpt lat="41.8217383" lon="-4.5147634"><ele>964</ele><speed>41</speed><time>2016-06-29T13:50:40Z</time><course>7</course><type>1</type></trkpt>
      <trkpt lat="41.8219399" lon="-4.514755"><ele>964</ele><speed>40</speed><time>2016-06-29T13:50:42Z</time><course>0</course><type>1</type></trkpt>
      <trkpt lat="41.8220383" lon="-4.51475"><ele>965</ele><speed>37</speed><time>2016-06-29T13:50:43Z</time><course>358</course><type>1</type></trkpt>
      <trkpt lat="41.8221133" lon="-4.51476"><ele>964</ele><speed>31</speed><time>2016-06-29T13:50:44Z</time><course>358</course><type>1</type></trkpt>
      <trkpt lat="41.8222566" lon="-4.51479"><ele>962</ele><speed>29</speed><time>2016-06-29T13:50:46Z</time><course>354</course><type>1</type></trkpt>
      <trkpt lat="41.8223316" lon="-4.5148067"><ele>961</ele><speed>32</speed><time>2016-06-29T13:50:47Z</time><course>356</course><type>1</type></trkpt>
      <trkpt lat="41.822485" lon="-4.5148417"><ele>959</ele><speed>32</speed><time>2016-06-29T13:50:49Z</time><course>348</course><type>1</type></trkpt>
      <trkpt lat="41.8225716" lon="-4.5148917"><ele>957</ele><speed>27</speed><time>2016-06-29T13:50:50Z</time><course>335</course><type>1</type></trkpt>
      <trkpt lat="41.8226916" lon="-4.5149934"><ele>953</ele><speed>27</speed><time>2016-06-29T13:50:52Z</time><course>330</course><type>1</type></trkpt>
      <trkpt lat="41.8227516" lon="-4.5150417"><ele>951</ele><speed>27</speed><time>2016-06-29T13:50:53Z</time><course>330</course><type>1</type></trkpt>
      <trkpt lat="41.8228716" lon="-4.5151834"><ele>948</ele><speed>34</speed><time>2016-06-29T13:50:55Z</time><course>312</course><type>1</type></trkpt>
      <trkpt lat="41.823" lon="-4.515355"><ele>946</ele><speed>32</speed><time>2016-06-29T13:50:57Z</time><course>318</course><type>1</type></trkpt>
      <trkpt lat="41.8230666" lon="-4.5154267"><ele>945</ele><speed>31</speed><time>2016-06-29T13:50:58Z</time><course>320</course><type>1</type></trkpt>
      <trkpt lat="41.823125" lon="-4.5154851"><ele>944</ele><speed>24</speed><time>2016-06-29T13:50:59Z</time><course>320</course><type>1</type></trkpt>
      <trkpt lat="41.8231733" lon="-4.5155567"><ele>942</ele><speed>28</speed><time>2016-06-29T13:51:00Z</time><course>311</course><type>1</type></trkpt>
      <trkpt lat="41.8232449" lon="-4.51569"><ele>941</ele><speed>21</speed><time>2016-06-29T13:51:02Z</time><course>297</course><type>1</type></trkpt>
      <trkpt lat="41.8232716" lon="-4.5157517"><ele>940</ele><speed>18</speed><time>2016-06-29T13:51:03Z</time><course>299</course><type>1</type></trkpt>
      <trkpt lat="41.8233133" lon="-4.5158817"><ele>938</ele><speed>21</speed><time>2016-06-29T13:51:05Z</time><course>282</course><type>1</type></trkpt>
      <trkpt lat="41.8232933" lon="-4.516035"><ele>936</ele><speed>25</speed><time>2016-06-29T13:51:07Z</time><course>266</course><type>1</type></trkpt>
      <trkpt lat="41.823265" lon="-4.51613"><ele>934</ele><speed>9</speed><time>2016-06-29T13:51:09Z</time><course>210</course><type>1</type></trkpt>
      <trkpt lat="41.8231533" lon="-4.516135"><ele>930</ele><speed>18</speed><time>2016-06-29T13:51:12Z</time><course>176</course><type>1</type></trkpt>
      <trkpt lat="41.8230033" lon="-4.516065"><ele>927</ele><speed>34</speed><time>2016-06-29T13:51:14Z</time><course>147</course><type>1</type></trkpt>
      <trkpt lat="41.8228566" lon="-4.5158634"><ele>922</ele><speed>42</speed><time>2016-06-29T13:51:16Z</time><course>125</course><type>1</type></trkpt>
      <trkpt lat="41.8227466" lon="-4.5156167"><ele>917</ele><speed>39</speed><time>2016-06-29T13:51:18Z</time><course>116</course><type>1</type></trkpt>
      <trkpt lat="41.8226966" lon="-4.5155017"><ele>915</ele><speed>39</speed><time>2016-06-29T13:51:19Z</time><course>119</course><type>1</type></trkpt>
      <trkpt lat="41.8225916" lon="-4.5152534"><ele>909</ele><speed>45</speed><time>2016-06-29T13:51:21Z</time><course>113</course><type>1</type></trkpt>
      <trkpt lat="41.8225466" lon="-4.5151134"><ele>907</ele><speed>46</speed><time>2016-06-29T13:51:22Z</time><course>113</course><type>1</type></trkpt>
      <trkpt lat="41.822475" lon="-4.5148084"><ele>903</ele><speed>46</speed><time>2016-06-29T13:51:24Z</time><course>106</course><type>1</type></trkpt>
      <trkpt lat="41.8224266" lon="-4.5145034"><ele>898</ele><speed>46</speed><time>2016-06-29T13:51:26Z</time><course>103</course><type>1</type></trkpt>
      <trkpt lat="41.822375" lon="-4.5141734"><ele>893</ele><speed>52</speed><time>2016-06-29T13:51:28Z</time><course>99</course><type>1</type></trkpt>
      <trkpt lat="41.8223466" lon="-4.5138234"><ele>889</ele><speed>50</speed><time>2016-06-29T13:51:30Z</time><course>93</course><type>1</type></trkpt>
      <trkpt lat="41.8223433" lon="-4.513655"><ele>887</ele><speed>46</speed><time>2016-06-29T13:51:31Z</time><course>90</course><type>1</type></trkpt>
      <trkpt lat="41.822335" lon="-4.51336"><ele>884</ele><speed>43</speed><time>2016-06-29T13:51:33Z</time><course>98</course><type>1</type></trkpt>
      <trkpt lat="41.8222966" lon="-4.5130784"><ele>883</ele><speed>35</speed><time>2016-06-29T13:51:35Z</time><course>104</course><type>1</type></trkpt>
      <trkpt lat="41.8222416" lon="-4.51287"><ele>880</ele><speed>29</speed><time>2016-06-29T13:51:37Z</time><course>126</course><type>1</type></trkpt>
      <trkpt lat="41.82219" lon="-4.51279"><ele>880</ele><speed>27</speed><time>2016-06-29T13:51:38Z</time><course>139</course><type>1</type></trkpt>
      <trkpt lat="41.822085" lon="-4.5126817"><ele>879</ele><speed>24</speed><time>2016-06-29T13:51:40Z</time><course>149</course><type>1</type></trkpt>
      <trkpt lat="41.8220366" lon="-4.5126417"><ele>879</ele><speed>20</speed><time>2016-06-29T13:51:41Z</time><course>150</course><type>1</type></trkpt>
      <trkpt lat="41.821995" lon="-4.5126184"><ele>879</ele><speed>18</speed><time>2016-06-29T13:51:42Z</time><course>155</course><type>1</type></trkpt>
      <trkpt lat="41.8219166" lon="-4.5125967"><ele>877</ele><speed>17</speed><time>2016-06-29T13:51:44Z</time><course>164</course><type>1</type></trkpt>
      <trkpt lat="41.821835" lon="-4.5126067"><ele>875</ele><speed>15</speed><time>2016-06-29T13:51:46Z</time><course>205</course><type>1</type></trkpt>
      <trkpt lat="41.82183" lon="-4.5127"><ele>873</ele><speed>17</speed><time>2016-06-29T13:51:48Z</time><course>304</course><type>1</type></trkpt>
      <trkpt lat="41.8218816" lon="-4.5127517"><ele>871</ele><speed>31</speed><time>2016-06-29T13:51:49Z</time><course>335</course><type>1</type></trkpt>
      <trkpt lat="41.821965" lon="-4.5127784"><ele>870</ele><speed>35</speed><time>2016-06-29T13:51:50Z</time><course>357</course><type>1</type></trkpt>
      <trkpt lat="41.8222099" lon="-4.5126684"><ele>870</ele><speed>51</speed><time>2016-06-29T13:51:52Z</time><course>27</course><type>1</type></trkpt>
      <trkpt lat="41.8223183" lon="-4.512595"><ele>871</ele><speed>46</speed><time>2016-06-29T13:51:53Z</time><course>26</course><type>1</type></trkpt>
      <trkpt lat="41.8224033" lon="-4.5125367"><ele>872</ele><speed>35</speed><time>2016-06-29T13:51:54Z</time><course>19</course><type>1</type></trkpt>
      <trkpt lat="41.8225866" lon="-4.5124517"><ele>876</ele><speed>41</speed><time>2016-06-29T13:51:56Z</time><course>15</course><type>1</type></trkpt>
      <trkpt lat="41.8228033" lon="-4.5123317"><ele>878</ele><speed>47</speed><time>2016-06-29T13:51:58Z</time><course>25</course><type>1</type></trkpt>
      <trkpt lat="41.823" lon="-4.51219"><ele>879</ele><speed>42</speed><time>2016-06-29T13:52:00Z</time><course>26</course><type>1</type></trkpt>
      <trkpt lat="41.8231" lon="-4.5121267"><ele>880</ele><speed>43</speed><time>2016-06-29T13:52:01Z</time><course>24</course><type>1</type></trkpt>
      <trkpt lat="41.82321" lon="-4.512075"><ele>880</ele><speed>47</speed><time>2016-06-29T13:52:02Z</time><course>19</course><type>1</type></trkpt>
      <trkpt lat="41.8234183" lon="-4.51198"><ele>881</ele><speed>40</speed><time>2016-06-29T13:52:04Z</time><course>16</course><type>1</type></trkpt>
      <trkpt lat="41.8235983" lon="-4.5118967"><ele>883</ele><speed>36</speed><time>2016-06-29T13:52:06Z</time><course>7</course><type>1</type></trkpt>
      <trkpt lat="41.8237466" lon="-4.5119017"><ele>885</ele><speed>25</speed><time>2016-06-29T13:52:08Z</time><course>347</course><type>1</type></trkpt>
      <trkpt lat="41.8238466" lon="-4.51198"><ele>885</ele><speed>19</speed><time>2016-06-29T13:52:10Z</time><course>326</course><type>1</type></trkpt>
      <trkpt lat="41.8238883" lon="-4.5120734"><ele>884</ele><speed>12</speed><time>2016-06-29T13:52:12Z</time><course>304</course><type>1</type></trkpt>
      <trkpt lat="41.8238866" lon="-4.512145"><ele>883</ele><speed>8</speed><time>2016-06-29T13:52:14Z</time><course>270</course><type>1</type></trkpt>
      <trkpt lat="41.8238233" lon="-4.5121751"><ele>881</ele><speed>12</speed><time>2016-06-29T13:52:16Z</time><course>195</course><type>1</type></trkpt>
      <trkpt lat="41.8237399" lon="-4.5121667"><ele>881</ele><speed>16</speed><time>2016-06-29T13:52:18Z</time><course>181</course><type>1</type></trkpt>
      <trkpt lat="41.8236816" lon="-4.5121467"><ele>882</ele><speed>19</speed><time>2016-06-29T13:52:19Z</time><course>169</course><type>1</type></trkpt>
      <trkpt lat="41.8236216" lon="-4.5121167"><ele>882</ele><speed>22</speed><time>2016-06-29T13:52:20Z</time><course>162</course><type>1</type></trkpt>
      <trkpt lat="41.8235116" lon="-4.5120317"><ele>881</ele><speed>26</speed><time>2016-06-29T13:52:22Z</time><course>152</course><type>1</type></trkpt>
      <trkpt lat="41.8234583" lon="-4.5119867"><ele>880</ele><speed>26</speed><time>2016-06-29T13:52:23Z</time><course>156</course><type>1</type></trkpt>
      <trkpt lat="41.8233316" lon="-4.5119317"><ele>877</ele><speed>26</speed><time>2016-06-29T13:52:25Z</time><course>160</course><type>1</type></trkpt>
      <trkpt lat="41.8232683" lon="-4.5119084"><ele>876</ele><speed>24</speed><time>2016-06-29T13:52:26Z</time><course>163</course><type>1</type></trkpt>
      <trkpt lat="41.8231433" lon="-4.5118684"><ele>871</ele><speed>25</speed><time>2016-06-29T13:52:28Z</time><course>161</course><type>1</type></trkpt>
      <trkpt lat="41.8230816" lon="-4.5118484"><ele>867</ele><speed>25</speed><time>2016-06-29T13:52:29Z</time><course>160</course><type>1</type></trkpt>
      <trkpt lat="41.8230166" lon="-4.511825"><ele>865</ele><speed>27</speed><time>2016-06-29T13:52:30Z</time><course>164</course><type>1</type></trkpt>
      <trkpt lat="41.8228883" lon="-4.51176"><ele>862</ele><speed>28</speed><time>2016-06-29T13:52:32Z</time><course>150</course><type>1</type></trkpt>
      <trkpt lat="41.8227533" lon="-4.5116884"><ele>859</ele><speed>27</speed><time>2016-06-29T13:52:34Z</time><course>164</course><type>1</type></trkpt>
      <trkpt lat="41.8226283" lon="-4.51164"><ele>858</ele><speed>22</speed><time>2016-06-29T13:52:36Z</time><course>154</course><type>1</type></trkpt>
      <trkpt lat="41.8225733" lon="-4.5116067"><ele>857</ele><speed>23</speed><time>2016-06-29T13:52:37Z</time><course>151</course><type>1</type></trkpt>
      <trkpt lat="41.822485" lon="-4.5115567"><ele>856</ele><speed>12</speed><time>2016-06-29T13:52:39Z</time><course>163</course><type>1</type></trkpt>
      <trkpt lat="41.8224283" lon="-4.5115267"><ele>855</ele><speed>9</speed><time>2016-06-29T13:52:41Z</time><course>140</course><type>1</type></trkpt>
      <trkpt lat="41.8223916" lon="-4.5115034"><ele>853</ele><speed>7</speed><time>2016-06-29T13:52:43Z</time><course>156</course><type>1</type></trkpt>
      <trkpt lat="41.82236" lon="-4.5115267"><ele>851</ele><speed>9</speed><time>2016-06-29T13:52:44Z</time><course>215</course><type>1</type></trkpt>
      <trkpt lat="41.82228" lon="-4.5115984"><ele>850</ele><speed>22</speed><time>2016-06-29T13:52:46Z</time><course>212</course><type>1</type></trkpt>
      <trkpt lat="41.82218" lon="-4.51163"><ele>849</ele><speed>18</speed><time>2016-06-29T13:52:48Z</time><course>169</course><type>1</type></trkpt>
      <trkpt lat="41.8221083" lon="-4.511585"><ele>847</ele><speed>17</speed><time>2016-06-29T13:52:50Z</time><course>160</course><type>1</type></trkpt>
      <trkpt lat="41.8220116" lon="-4.5115917"><ele>845</ele><speed>22</speed><time>2016-06-29T13:52:52Z</time><course>190</course><type>1</type></trkpt>
      <trkpt lat="41.821945" lon="-4.5115967"><ele>844</ele><speed>27</speed><time>2016-06-29T13:52:53Z</time><course>178</course><type>1</type></trkpt>
      <trkpt lat="41.821815" lon="-4.5115617"><ele>842</ele><speed>26</speed><time>2016-06-29T13:52:55Z</time><course>163</course><type>1</type></trkpt>
      <trkpt lat="41.821755" lon="-4.5115384"><ele>841</ele><speed>22</speed><time>2016-06-29T13:52:56Z</time><course>165</course><type>1</type></trkpt>
      <trkpt lat="41.8216333" lon="-4.5115284"><ele>838</ele><speed>28</speed><time>2016-06-29T13:52:58Z</time><course>181</course><type>1</type></trkpt>
      <trkpt lat="41.821495" lon="-4.511535"><ele>836</ele><speed>27</speed><time>2016-06-29T13:53:00Z</time><course>180</course><type>1</type></trkpt>
      <trkpt lat="41.8213616" lon="-4.5115434"><ele>834</ele><speed>27</speed><time>2016-06-29T13:53:02Z</time><course>183</course><type>1</type></trkpt>
      <trkpt lat="41.8212416" lon="-4.5115517"><ele>833</ele><speed>22</speed><time>2016-06-29T13:53:04Z</time><course>180</course><type>1</type></trkpt>
      <trkpt lat="41.8211916" lon="-4.511555"><ele>832</ele><speed>19</speed><time>2016-06-29T13:53:05Z</time><course>183</course><type>1</type></trkpt>
      <trkpt lat="41.821145" lon="-4.511565"><ele>832</ele><speed>18</speed><time>2016-06-29T13:53:06Z</time><course>190</course><type>1</type></trkpt>
      <trkpt lat="41.8211016" lon="-4.5115784"><ele>831</ele><speed>18</speed><time>2016-06-29T13:53:07Z</time><course>192</course><type>1</type></trkpt>
      <trkpt lat="41.8209933" lon="-4.5115984"><ele>830</ele><speed>20</speed><time>2016-06-29T13:53:09Z</time><course>186</course><type>1</type></trkpt>
      <trkpt lat="41.8209466" lon="-4.51161"><ele>828</ele><speed>18</speed><time>2016-06-29T13:53:10Z</time><course>191</course><type>1</type></trkpt>
      <trkpt lat="41.820855" lon="-4.51167"><ele>826</ele><speed>21</speed><time>2016-06-29T13:53:12Z</time><course>213</course><type>1</type></trkpt>
      <trkpt lat="41.8207983" lon="-4.51172"><ele>825</ele><speed>26</speed><time>2016-06-29T13:53:13Z</time><course>216</course><type>1</type></trkpt>
      <trkpt lat="41.8207433" lon="-4.511845"><ele>824</ele><speed>20</speed><time>2016-06-29T13:53:15Z</time><course>268</course><type>1</type></trkpt>
      <trkpt lat="41.8208033" lon="-4.5119234"><ele>822</ele><speed>15</speed><time>2016-06-29T13:53:17Z</time><course>329</course><type>1</type></trkpt>
      <trkpt lat="41.82085" lon="-4.5120517"><ele>820</ele><speed>21</speed><time>2016-06-29T13:53:20Z</time><course>265</course><type>1</type></trkpt>
      <trkpt lat="41.820825" lon="-4.5122017"><ele>819</ele><speed>23</speed><time>2016-06-29T13:53:22Z</time><course>244</course><type>1</type></trkpt>
      <trkpt lat="41.8207916" lon="-4.512255"><ele>818</ele><speed>18</speed><time>2016-06-29T13:53:23Z</time><course>230</course><type>1</type></trkpt>
      <trkpt lat="41.8207266" lon="-4.5123367"><ele>818</ele><speed>15</speed><time>2016-06-29T13:53:25Z</time><course>221</course><type>1</type></trkpt>
      <trkpt lat="41.8206916" lon="-4.512365"><ele>817</ele><speed>15</speed><time>2016-06-29T13:53:26Z</time><course>211</course><type>1</type></trkpt>
      <trkpt lat="41.8205966" lon="-4.5124334"><ele>817</ele><speed>23</speed><time>2016-06-29T13:53:28Z</time><course>217</course><type>1</type></trkpt>
      <trkpt lat="41.8204749" lon="-4.51255"><ele>816</ele><speed>30</speed><time>2016-06-29T13:53:30Z</time><course>212</course><type>1</type></trkpt>
      <trkpt lat="41.8203483" lon="-4.5126084"><ele>815</ele><speed>22</speed><time>2016-06-29T13:53:32Z</time><course>183</course><type>1</type></trkpt>
      <trkpt lat="41.8202416" lon="-4.5126267"><ele>814</ele><speed>18</speed><time>2016-06-29T13:53:34Z</time><course>209</course><type>1</type></trkpt>
      <trkpt lat="41.8201916" lon="-4.512665"><ele>813</ele><speed>24</speed><time>2016-06-29T13:53:35Z</time><course>211</course><type>1</type></trkpt>
      <trkpt lat="41.8201033" lon="-4.5127884"><ele>811</ele><speed>27</speed><time>2016-06-29T13:53:37Z</time><course>219</course><type>1</type></trkpt>
      <trkpt lat="41.82002" lon="-4.5128967"><ele>810</ele><speed>21</speed><time>2016-06-29T13:53:39Z</time><course>229</course><type>1</type></trkpt>
      <trkpt lat="41.8199866" lon="-4.5129467"><ele>810</ele><speed>20</speed><time>2016-06-29T13:53:40Z</time><course>228</course><type>1</type></trkpt>
      <trkpt lat="41.819955" lon="-4.5130067"><ele>809</ele><speed>20</speed><time>2016-06-29T13:53:41Z</time><course>233</course><type>1</type></trkpt>
      <trkpt lat="41.8199266" lon="-4.5130684"><ele>808</ele><speed>21</speed><time>2016-06-29T13:53:42Z</time><course>232</course><type>1</type></trkpt>
      <trkpt lat="41.8198633" lon="-4.5131917"><ele>807</ele><speed>21</speed><time>2016-06-29T13:53:44Z</time><course>233</course><type>1</type></trkpt>
      <trkpt lat="41.8198216" lon="-4.513265"><ele>806</ele><speed>11</speed><time>2016-06-29T13:53:46Z</time><course>239</course><type>1</type></trkpt>
      <trkpt lat="41.8197883" lon="-4.51332"><ele>807</ele><speed>12</speed><time>2016-06-29T13:53:47Z</time><course>253</course><type>1</type></trkpt>
      <trkpt lat="41.8197583" lon="-4.5134434"><ele>806</ele><speed>18</speed><time>2016-06-29T13:53:49Z</time><course>249</course><type>1</type></trkpt>
      <trkpt lat="41.819685" lon="-4.5135067"><ele>808</ele><speed>21</speed><time>2016-06-29T13:53:51Z</time><course>211</course><type>1</type></trkpt>
      <trkpt lat="41.819595" lon="-4.5135684"><ele>809</ele><speed>19</speed><time>2016-06-29T13:53:53Z</time><course>219</course><type>1</type></trkpt>
      <trkpt lat="41.8195283" lon="-4.5136534"><ele>810</ele><speed>15</speed><time>2016-06-29T13:53:55Z</time><course>234</course><type>1</type></trkpt>
      <trkpt lat="41.8194316" lon="-4.5138"><ele>813</ele><speed>17</speed><time>2016-06-29T13:53:58Z</time><course>226</course><type>1</type></trkpt>
      <trkpt lat="41.8193266" lon="-4.5138167"><ele>816</ele><speed>20</speed><time>2016-06-29T13:54:00Z</time><course>169</course><type>1</type></trkpt>
      <trkpt lat="41.8192233" lon="-4.5137617"><ele>816</ele><speed>21</speed><time>2016-06-29T13:54:02Z</time><course>153</course><type>1</type></trkpt>
      <trkpt lat="41.8190966" lon="-4.5136567"><ele>815</ele><speed>29</speed><time>2016-06-29T13:54:04Z</time><course>164</course><type>1</type></trkpt>
      <trkpt lat="41.818955" lon="-4.5136417"><ele>815</ele><speed>28</speed><time>2016-06-29T13:54:06Z</time><course>170</course><type>1</type></trkpt>
      <trkpt lat="41.8188233" lon="-4.5135917"><ele>814</ele><speed>29</speed><time>2016-06-29T13:54:08Z</time><course>156</course><type>1</type></trkpt>
      <trkpt lat="41.8187683" lon="-4.5135617"><ele>814</ele><speed>26</speed><time>2016-06-29T13:54:09Z</time><course>159</course><type>1</type></trkpt>
      <trkpt lat="41.8186416" lon="-4.5135267"><ele>814</ele><speed>29</speed><time>2016-06-29T13:54:11Z</time><course>170</course><type>1</type></trkpt>
      <trkpt lat="41.818485" lon="-4.5134834"><ele>814</ele><speed>29</speed><time>2016-06-29T13:54:13Z</time><course>164</course><type>1</type></trkpt>
      <trkpt lat="41.8183599" lon="-4.51344"><ele>816</ele><speed>21</speed><time>2016-06-29T13:54:15Z</time><course>168</course><type>1</type></trkpt>
      <trkpt lat="41.8183166" lon="-4.5134234"><ele>817</ele><speed>17</speed><time>2016-06-29T13:54:16Z</time><course>166</course><type>1</type></trkpt>
      <trkpt lat="41.818215" lon="-4.5133584"><ele>819</ele><speed>24</speed><time>2016-06-29T13:54:18Z</time><course>144</course><type>1</type></trkpt>
      <trkpt lat="41.8181016" lon="-4.51328"><ele>820</ele><speed>24</speed><time>2016-06-29T13:54:20Z</time><course>162</course><type>1</type></trkpt>
      <trkpt lat="41.8179966" lon="-4.5132884"><ele>822</ele><speed>18</speed><time>2016-06-29T13:54:22Z</time><course>202</course><type>1</type></trkpt>
      <trkpt lat="41.8179566" lon="-4.5133034"><ele>823</ele><speed>16</speed><time>2016-06-29T13:54:23Z</time><course>192</course><type>1</type></trkpt>
      <trkpt lat="41.81792" lon="-4.5133067"><ele>826</ele><speed>16</speed><time>2016-06-29T13:54:24Z</time><course>174</course><type>1</type></trkpt>
      <trkpt lat="41.8178383" lon="-4.5132584"><ele>829</ele><speed>17</speed><time>2016-06-29T13:54:26Z</time><course>146</course><type>1</type></trkpt>
      <trkpt lat="41.8178" lon="-4.5132234"><ele>831</ele><speed>16</speed><time>2016-06-29T13:54:27Z</time><course>148</course><type>1</type></trkpt>
      <trkpt lat="41.8177583" lon="-4.513215"><ele>833</ele><speed>5</speed><time>2016-06-29T13:54:29Z</time><course>253</course><type>1</type></trkpt>
      <trkpt lat="41.81781" lon="-4.5132534"><ele>836</ele><speed>17</speed><time>2016-06-29T13:54:31Z</time><course>337</course><type>1</type></trkpt>
      <trkpt lat="41.817895" lon="-4.51326"><ele>840</ele><speed>15</speed><time>2016-06-29T13:54:33Z</time><course>347</course><type>1</type></trkpt>
      <trkpt lat="41.81793" lon="-4.5132734"><ele>841</ele><speed>15</speed><time>2016-06-29T13:54:34Z</time><course>334</course><type>1</type></trkpt>
      <trkpt lat="41.817965" lon="-4.513295"><ele>842</ele><speed>15</speed><time>2016-06-29T13:54:35Z</time><course>330</course><type>1</type></trkpt>
      <trkpt lat="41.818005" lon="-4.5133117"><ele>843</ele><speed>16</speed><time>2016-06-29T13:54:36Z</time><course>344</course><type>1</type></trkpt>
      <trkpt lat="41.8180883" lon="-4.513325"><ele>846</ele><speed>10</speed><time>2016-06-29T13:54:38Z</time><course>1</course><type>1</type></trkpt>
      <trkpt lat="41.8181416" lon="-4.5133334"><ele>848</ele><speed>5</speed><time>2016-06-29T13:54:40Z</time><course>355</course><type>1</type></trkpt>
      <trkpt lat="41.8181783" lon="-4.5133534"><ele>850</ele><speed>12</speed><time>2016-06-29T13:54:41Z</time><course>333</course><type>1</type></trkpt>
      <trkpt lat="41.8182466" lon="-4.5133734"><ele>853</ele><speed>13</speed><time>2016-06-29T13:54:43Z</time><course>355</course><type>1</type></trkpt>
      <trkpt lat="41.8182866" lon="-4.5133667"><ele>854</ele><speed>16</speed><time>2016-06-29T13:54:44Z</time><course>7</course><type>1</type></trkpt>
      <trkpt lat="41.8183733" lon="-4.5133634"><ele>856</ele><speed>15</speed><time>2016-06-29T13:54:46Z</time><course>353</course><type>1</type></trkpt>
      <trkpt lat="41.8184516" lon="-4.5133834"><ele>859</ele><speed>13</speed><time>2016-06-29T13:54:48Z</time><course>355</course><type>1</type></trkpt>
      <trkpt lat="41.81852" lon="-4.5133617"><ele>863</ele><speed>23</speed><time>2016-06-29T13:54:50Z</time><course>21</course><type>1</type></trkpt>
      <trkpt lat="41.818595" lon="-4.51336"><ele>866</ele><speed>15</speed><time>2016-06-29T13:54:52Z</time><course>346</course><type>1</type></trkpt>
      <trkpt lat="41.8186633" lon="-4.5133884"><ele>869</ele><speed>9</speed><time>2016-06-29T13:54:54Z</time><course>330</course><type>1</type></trkpt>
      <trkpt lat="41.8187283" lon="-4.5133734"><ele>872</ele><speed>15</speed><time>2016-06-29T13:54:56Z</time><course>0</course><type>1</type></trkpt>
      <trkpt lat="41.818795" lon="-4.51339"><ele>875</ele><speed>11</speed><time>2016-06-29T13:54:58Z</time><course>334</course><type>1</type></trkpt>
      <trkpt lat="41.8188333" lon="-4.5134634"><ele>878</ele><speed>13</speed><time>2016-06-29T13:55:00Z</time><course>313</course><type>1</type></trkpt>
      <trkpt lat="41.818875" lon="-4.5135151"><ele>882</ele><speed>7</speed><time>2016-06-29T13:55:02Z</time><course>321</course><type>1</type></trkpt>
      <trkpt lat="41.8188633" lon="-4.5136084"><ele>885</ele><speed>12</speed><time>2016-06-29T13:55:06Z</time><course>266</course><type>1</type></trkpt>
      <trkpt lat="41.8188666" lon="-4.5136767"><ele>886</ele><speed>4</speed><time>2016-06-29T13:55:08Z</time><course>275</course><type>1</type></trkpt>
      <trkpt lat="41.8189183" lon="-4.51375"><ele>890</ele><speed>0</speed><time>2016-06-29T13:55:13Z</time><course>275</course><type>1</type></trkpt>
      <trkpt lat="41.8189516" lon="-4.5138284"><ele>891</ele><speed>11</speed><time>2016-06-29T13:55:15Z</time><course>283</course><type>1</type></trkpt>
      <trkpt lat="41.8189883" lon="-4.5138767"><ele>893</ele><speed>8</speed><time>2016-06-29T13:55:17Z</time><course>311</course><type>1</type></trkpt>
      <trkpt lat="41.8190033" lon="-4.5139284"><ele>896</ele><speed>9</speed><time>2016-06-29T13:55:19Z</time><course>282</course><type>1</type></trkpt>
      <trkpt lat="41.8190233" lon="-4.5139734"><ele>899</ele><speed>7</speed><time>2016-06-29T13:55:21Z</time><course>314</course><type>1</type></trkpt>
      <trkpt lat="41.81907" lon="-4.51398"><ele>901</ele><speed>13</speed><time>2016-06-29T13:55:23Z</time><course>4</course><type>1</type></trkpt>
      <trkpt lat="41.8191583" lon="-4.5139784"><ele>903</ele><speed>23</speed><time>2016-06-29T13:55:25Z</time><course>358</course><type>1</type></trkpt>
      <trkpt lat="41.819285" lon="-4.5140184"><ele>905</ele><speed>25</speed><time>2016-06-29T13:55:27Z</time><course>344</course><type>1</type></trkpt>
      <trkpt lat="41.819345" lon="-4.51404"><ele>908</ele><speed>23</speed><time>2016-06-29T13:55:28Z</time><course>342</course><type>1</type></trkpt>
      <trkpt lat="41.819435" lon="-4.5140984"><ele>911</ele><speed>18</speed><time>2016-06-29T13:55:30Z</time><course>328</course><type>1</type></trkpt>
      <trkpt lat="41.8195283" lon="-4.51415"><ele>913</ele><speed>19</speed><time>2016-06-29T13:55:32Z</time><course>347</course><type>1</type></trkpt>
      <trkpt lat="41.8196266" lon="-4.51417"><ele>915</ele><speed>19</speed><time>2016-06-29T13:55:34Z</time><course>355</course><type>1</type></trkpt>
      <trkpt lat="41.8196683" lon="-4.5141867"><ele>916</ele><speed>16</speed><time>2016-06-29T13:55:35Z</time><course>342</course><type>1</type></trkpt>
      <trkpt lat="41.8197166" lon="-4.51425"><ele>918</ele><speed>13</speed><time>2016-06-29T13:55:37Z</time><course>309</course><type>1</type></trkpt>
      <trkpt lat="41.81981" lon="-4.5143267"><ele>921</ele><speed>15</speed><time>2016-06-29T13:55:40Z</time><course>353</course><type>1</type></trkpt>
      <trkpt lat="41.8198483" lon="-4.514345"><ele>922</ele><speed>14</speed><time>2016-06-29T13:55:41Z</time><course>346</course><type>1</type></trkpt>
      <trkpt lat="41.8199" lon="-4.5144134"><ele>924</ele><speed>13</speed><time>2016-06-29T13:55:43Z</time><course>306</course><type>1</type></trkpt>
      <trkpt lat="41.8199233" lon="-4.5144534"><ele>925</ele><speed>12</speed><time>2016-06-29T13:55:44Z</time><course>303</course><type>1</type></trkpt>
      <trkpt lat="41.8199716" lon="-4.514505"><ele>927</ele><speed>11</speed><time>2016-06-29T13:55:46Z</time><course>330</course><type>1</type></trkpt>
      <trkpt lat="41.8200516" lon="-4.5145317"><ele>930</ele><speed>17</speed><time>2016-06-29T13:55:48Z</time><course>341</course><type>1</type></trkpt>
      <trkpt lat="41.8201416" lon="-4.5146117"><ele>933</ele><speed>20</speed><time>2016-06-29T13:55:50Z</time><course>317</course><type>1</type></trkpt>
      <trkpt lat="41.82018" lon="-4.5146567"><ele>934</ele><speed>15</speed><time>2016-06-29T13:55:51Z</time><course>312</course><type>1</type></trkpt>
      <trkpt lat="41.820245" lon="-4.5147034"><ele>938</ele><speed>16</speed><time>2016-06-29T13:55:53Z</time><course>339</course><type>1</type></trkpt>
      <trkpt lat="41.8202949" lon="-4.51472"><ele>940</ele><speed>19</speed><time>2016-06-29T13:55:54Z</time><course>346</course><type>1</type></trkpt>
      <trkpt lat="41.82035" lon="-4.5147234"><ele>942</ele><speed>21</speed><time>2016-06-29T13:55:55Z</time><course>354</course><type>1</type></trkpt>
      <trkpt lat="41.8204033" lon="-4.514735"><ele>945</ele><speed>8</speed><time>2016-06-29T13:55:57Z</time><course>335</course><type>1</type></trkpt>
      <trkpt lat="41.8204833" lon="-4.5147934"><ele>950</ele><speed>18</speed><time>2016-06-29T13:56:00Z</time><course>342</course><type>1</type></trkpt>
      <trkpt lat="41.8205283" lon="-4.5148084"><ele>952</ele><speed>18</speed><time>2016-06-29T13:56:01Z</time><course>345</course><type>1</type></trkpt>
      <trkpt lat="41.820605" lon="-4.51487"><ele>956</ele><speed>21</speed><time>2016-06-29T13:56:03Z</time><course>323</course><type>1</type></trkpt>
      <trkpt lat="41.82065" lon="-4.5149284"><ele>958</ele><speed>21</speed><time>2016-06-29T13:56:04Z</time><course>316</course><type>1</type></trkpt>
      <trkpt lat="41.8206866" lon="-4.514965"><ele>960</ele><speed>18</speed><time>2016-06-29T13:56:05Z</time><course>326</course><type>1</type></trkpt>
      <trkpt lat="41.8207483" lon="-4.5150234"><ele>960</ele><speed>9</speed><time>2016-06-29T13:56:07Z</time><course>333</course><type>1</type></trkpt>
      <trkpt lat="41.82079" lon="-4.51509"><ele>964</ele><speed>15</speed><time>2016-06-29T13:56:10Z</time><course>331</course><type>1</type></trkpt>
      <trkpt lat="41.8208466" lon="-4.5151367"><ele>966</ele><speed>12</speed><time>2016-06-29T13:56:12Z</time><course>328</course><type>1</type></trkpt>
      <trkpt lat="41.820755" lon="-4.5151284"><ele>969</ele><speed>12</speed><time>2016-06-29T13:56:16Z</time><course>165</course><type>1</type></trkpt>
      <trkpt lat="41.8206983" lon="-4.515095"><ele>969</ele><speed>12</speed><time>2016-06-29T13:56:18Z</time><course>141</course><type>1</type></trkpt>
      <trkpt lat="41.82062" lon="-4.51501"><ele>968</ele><speed>21</speed><time>2016-06-29T13:56:20Z</time><course>133</course><type>1</type></trkpt>
      <trkpt lat="41.8204783" lon="-4.5148384"><ele>966</ele><speed>38</speed><time>2016-06-29T13:56:22Z</time><course>128</course><type>1</type></trkpt>
      <trkpt lat="41.820415" lon="-4.5147417"><ele>965</ele><speed>35</speed><time>2016-06-29T13:56:23Z</time><course>127</course><type>1</type></trkpt>
      <trkpt lat="41.8202983" lon="-4.51459"><ele>963</ele><speed>29</speed><time>2016-06-29T13:56:25Z</time><course>142</course><type>1</type></trkpt>
      <trkpt lat="41.8201666" lon="-4.514485"><ele>959</ele><speed>32</speed><time>2016-06-29T13:56:27Z</time><course>148</course><type>1</type></trkpt>
      <trkpt lat="41.820055" lon="-4.5144034"><ele>958</ele><speed>18</speed><time>2016-06-29T13:56:29Z</time><course>158</course><type>1</type></trkpt>
      <trkpt lat="41.81999" lon="-4.5144"><ele>956</ele><speed>11</speed><time>2016-06-29T13:56:31Z</time><course>209</course><type>1</type></trkpt>
      <trkpt lat="41.8199266" lon="-4.5144517"><ele>955</ele><speed>9</speed><time>2016-06-29T13:56:34Z</time><course>198</course><type>1</type></trkpt>
      <trkpt lat="41.8198766" lon="-4.514455"><ele>954</ele><speed>9</speed><time>2016-06-29T13:56:36Z</time><course>198</course><type>1</type></trkpt>
      <trkpt lat="41.8198483" lon="-4.5144917"><ele>953</ele><speed>8</speed><time>2016-06-29T13:56:38Z</time><course>241</course><type>1</type></trkpt>
      <trkpt lat="41.8198566" lon="-4.5146"><ele>950</ele><speed>10</speed><time>2016-06-29T13:56:41Z</time><course>281</course><type>1</type></trkpt>
      <trkpt lat="41.8198683" lon="-4.5146617"><ele>948</ele><speed>11</speed><time>2016-06-29T13:56:43Z</time><course>292</course><type>1</type></trkpt>
      <trkpt lat="41.819905" lon="-4.514745"><ele>943</ele><speed>17</speed><time>2016-06-29T13:56:45Z</time><course>310</course><type>1</type></trkpt>
      <trkpt lat="41.819965" lon="-4.5148317"><ele>940</ele><speed>17</speed><time>2016-06-29T13:56:47Z</time><course>314</course><type>1</type></trkpt>
      <trkpt lat="41.8200183" lon="-4.5149067"><ele>937</ele><speed>15</speed><time>2016-06-29T13:56:49Z</time><course>318</course><type>1</type></trkpt>
      <trkpt lat="41.8200683" lon="-4.5149817"><ele>933</ele><speed>15</speed><time>2016-06-29T13:56:51Z</time><course>312</course><type>1</type></trkpt>
      <trkpt lat="41.8201233" lon="-4.5150634"><ele>930</ele><speed>18</speed><time>2016-06-29T13:56:53Z</time><course>317</course><type>1</type></trkpt>
      <trkpt lat="41.8202333" lon="-4.5151117"><ele>927</ele><speed>29</speed><time>2016-06-29T13:56:55Z</time><course>354</course><type>1</type></trkpt>
      <trkpt lat="41.8204133" lon="-4.515075"><ele>922</ele><speed>43</speed><time>2016-06-29T13:56:57Z</time><course>16</course><type>1</type></trkpt>
      <trkpt lat="41.8205233" lon="-4.5150334"><ele>920</ele><speed>46</speed><time>2016-06-29T13:56:58Z</time><course>16</course><type>1</type></trkpt>
      <trkpt lat="41.8207466" lon="-4.5149334"><ele>917</ele><speed>46</speed><time>2016-06-29T13:57:00Z</time><course>20</course><type>1</type></trkpt>
      <trkpt lat="41.8209566" lon="-4.5148317"><ele>914</ele><speed>44</speed><time>2016-06-29T13:57:02Z</time><course>17</course><type>1</type></trkpt>
      <trkpt lat="41.82106" lon="-4.5147884"><ele>913</ele><speed>43</speed><time>2016-06-29T13:57:03Z</time><course>14</course><type>1</type></trkpt>
      <trkpt lat="41.8211633" lon="-4.5147567"><ele>912</ele><speed>41</speed><time>2016-06-29T13:57:04Z</time><course>11</course><type>1</type></trkpt>
      <trkpt lat="41.8212633" lon="-4.5147217"><ele>910</ele><speed>41</speed><time>2016-06-29T13:57:05Z</time><course>12</course><type>1</type></trkpt>
      <trkpt lat="41.821465" lon="-4.5146217"><ele>909</ele><speed>46</speed><time>2016-06-29T13:57:07Z</time><course>21</course><type>1</type></trkpt>
      <trkpt lat="41.8215733" lon="-4.5145617"><ele>907</ele><speed>46</speed><time>2016-06-29T13:57:08Z</time><course>23</course><type>1</type></trkpt>
      <trkpt lat="41.8217733" lon="-4.5144467"><ele>904</ele><speed>42</speed><time>2016-06-29T13:57:10Z</time><course>22</course><type>1</type></trkpt>
      <trkpt lat="41.821875" lon="-4.5143917"><ele>902</ele><speed>44</speed><time>2016-06-29T13:57:11Z</time><course>24</course><type>1</type></trkpt>
      <trkpt lat="41.8219833" lon="-4.5143267"><ele>899</ele><speed>49</speed><time>2016-06-29T13:57:12Z</time><course>30</course><type>1</type></trkpt>
      <trkpt lat="41.822195" lon="-4.5141217"><ele>897</ele><speed>52</speed><time>2016-06-29T13:57:14Z</time><course>39</course><type>1</type></trkpt>
      <trkpt lat="41.8224066" lon="-4.513865"><ele>897</ele><speed>56</speed><time>2016-06-29T13:57:16Z</time><course>42</course><type>1</type></trkpt>
      <trkpt lat="41.8225983" lon="-4.5136084"><ele>898</ele><speed>51</speed><time>2016-06-29T13:57:18Z</time><course>40</course><type>1</type></trkpt>
      <trkpt lat="41.8227733" lon="-4.5133734"><ele>899</ele><speed>50</speed><time>2016-06-29T13:57:20Z</time><course>43</course><type>1</type></trkpt>
      <trkpt lat="41.82288" lon="-4.51325"><ele>899</ele><speed>48</speed><time>2016-06-29T13:57:21Z</time><course>36</course><type>1</type></trkpt>
      <trkpt lat="41.8230683" lon="-4.513055"><ele>898</ele><speed>49</speed><time>2016-06-29T13:57:23Z</time><course>35</course><type>1</type></trkpt>
      <trkpt lat="41.82316" lon="-4.5129667"><ele>898</ele><speed>48</speed><time>2016-06-29T13:57:24Z</time><course>34</course><type>1</type></trkpt>
      <trkpt lat="41.8232616" lon="-4.5128817"><ele>898</ele><speed>49</speed><time>2016-06-29T13:57:25Z</time><course>33</course><type>1</type></trkpt>
      <trkpt lat="41.8234633" lon="-4.5126934"><ele>899</ele><speed>54</speed><time>2016-06-29T13:57:27Z</time><course>30</course><type>1</type></trkpt>
      <trkpt lat="41.82357" lon="-4.5126167"><ele>899</ele><speed>51</speed><time>2016-06-29T13:57:28Z</time><course>26</course><type>1</type></trkpt>
      <trkpt lat="41.8237849" lon="-4.512515"><ele>902</ele><speed>47</speed><time>2016-06-29T13:57:30Z</time><course>16</course><type>1</type></trkpt>
      <trkpt lat="41.8239883" lon="-4.51243"><ele>905</ele><speed>43</speed><time>2016-06-29T13:57:32Z</time><course>15</course><type>1</type></trkpt>
      <trkpt lat="41.8241883" lon="-4.5123767"><ele>907</ele><speed>39</speed><time>2016-06-29T13:57:34Z</time><course>5</course><type>1</type></trkpt>
      <trkpt lat="41.8242833" lon="-4.51238"><ele>908</ele><speed>37</speed><time>2016-06-29T13:57:35Z</time><course>357</course><type>1</type></trkpt>
      <trkpt lat="41.8243716" lon="-4.5123867"><ele>909</ele><speed>34</speed><time>2016-06-29T13:57:36Z</time><course>357</course><type>1</type></trkpt>
      <trkpt lat="41.8245216" lon="-4.5124167"><ele>911</ele><speed>28</speed><time>2016-06-29T13:57:38Z</time><course>348</course><type>1</type></trkpt>
      <trkpt lat="41.8245883" lon="-4.51245"><ele>911</ele><speed>27</speed><time>2016-06-29T13:57:39Z</time><course>337</course><type>1</type></trkpt>
      <trkpt lat="41.8247266" lon="-4.51256"><ele>914</ele><speed>30</speed><time>2016-06-29T13:57:41Z</time><course>326</course><type>1</type></trkpt>
      <trkpt lat="41.8247816" lon="-4.5126167"><ele>915</ele><speed>28</speed><time>2016-06-29T13:57:42Z</time><course>323</course><type>1</type></trkpt>
      <trkpt lat="41.8248733" lon="-4.51273"><ele>917</ele><speed>25</speed><time>2016-06-29T13:57:44Z</time><course>318</course><type>1</type></trkpt>
      <trkpt lat="41.824915" lon="-4.51279"><ele>917</ele><speed>24</speed><time>2016-06-29T13:57:45Z</time><course>310</course><type>1</type></trkpt>
      <trkpt lat="41.8249466" lon="-4.5128617"><ele>918</ele><speed>26</speed><time>2016-06-29T13:57:46Z</time><course>301</course><type>1</type></trkpt>
      <trkpt lat="41.8249933" lon="-4.513005"><ele>921</ele><speed>20</speed><time>2016-06-29T13:57:48Z</time><course>289</course><type>1</type></trkpt>
      <trkpt lat="41.825005" lon="-4.51307"><ele>922</ele><speed>18</speed><time>2016-06-29T13:57:49Z</time><course>284</course><type>1</type></trkpt>
      <trkpt lat="41.8250333" lon="-4.5131934"><ele>924</ele><speed>19</speed><time>2016-06-29T13:57:51Z</time><course>294</course><type>1</type></trkpt>
      <trkpt lat="41.8250583" lon="-4.5132451"><ele>925</ele><speed>16</speed><time>2016-06-29T13:57:52Z</time><course>299</course><type>1</type></trkpt>
      <trkpt lat="41.82507" lon="-4.5133"><ele>926</ele><speed>14</speed><time>2016-06-29T13:57:53Z</time><course>290</course><type>1</type></trkpt>
      <trkpt lat="41.825055" lon="-4.513375"><ele>931</ele><speed>16</speed><time>2016-06-29T13:57:55Z</time><course>264</course><type>1</type></trkpt>
      <trkpt lat="41.8250483" lon="-4.5134784"><ele>934</ele><speed>17</speed><time>2016-06-29T13:57:57Z</time><course>267</course><type>1</type></trkpt>
      <trkpt lat="41.8250316" lon="-4.5135684"><ele>938</ele><speed>15</speed><time>2016-06-29T13:57:59Z</time><course>252</course><type>1</type></trkpt>
      <trkpt lat="41.82501" lon="-4.5136217"><ele>939</ele><speed>16</speed><time>2016-06-29T13:58:00Z</time><course>240</course><type>1</type></trkpt>
      <trkpt lat="41.8249183" lon="-4.513765"><ele>943</ele><speed>17</speed><time>2016-06-29T13:58:03Z</time><course>218</course><type>1</type></trkpt>
      <trkpt lat="41.82479" lon="-4.5138301"><ele>949</ele><speed>20</speed><time>2016-06-29T13:58:06Z</time><course>209</course><type>1</type></trkpt>
      <trkpt lat="41.824725" lon="-4.51387"><ele>949</ele><speed>29</speed><time>2016-06-29T13:58:07Z</time><course>204</course><type>1</type></trkpt>
      <trkpt lat="41.8245866" lon="-4.5139467"><ele>952</ele><speed>26</speed><time>2016-06-29T13:58:09Z</time><course>202</course><type>1</type></trkpt>
      <trkpt lat="41.8244966" lon="-4.5140084"><ele>956</ele><speed>16</speed><time>2016-06-29T13:58:11Z</time><course>207</course><type>1</type></trkpt>
      <trkpt lat="41.8244383" lon="-4.514035"><ele>959</ele><speed>13</speed><time>2016-06-29T13:58:13Z</time><course>200</course><type>1</type></trkpt>
      <trkpt lat="41.8243283" lon="-4.514065"><ele>964</ele><speed>19</speed><time>2016-06-29T13:58:15Z</time><course>169</course><type>1</type></trkpt>
      <trkpt lat="41.8242866" lon="-4.5140367"><ele>967</ele><speed>17</speed><time>2016-06-29T13:58:16Z</time><course>142</course><type>1</type></trkpt>
      <trkpt lat="41.8242216" lon="-4.513925"><ele>972</ele><speed>21</speed><time>2016-06-29T13:58:18Z</time><course>132</course><type>1</type></trkpt>
      <trkpt lat="41.8241783" lon="-4.5138834"><ele>971</ele><speed>21</speed><time>2016-06-29T13:58:19Z</time><course>153</course><type>1</type></trkpt>
      <trkpt lat="41.8240833" lon="-4.513775"><ele>974</ele><speed>24</speed><time>2016-06-29T13:58:21Z</time><course>134</course><type>1</type></trkpt>
      <trkpt lat="41.824025" lon="-4.5136034"><ele>977</ele><speed>26</speed><time>2016-06-29T13:58:23Z</time><course>119</course><type>1</type></trkpt>
      <trkpt lat="41.82396" lon="-4.5134167"><ele>981</ele><speed>31</speed><time>2016-06-29T13:58:25Z</time><course>116</course><type>1</type></trkpt>
      <trkpt lat="41.8239166" lon="-4.5133084"><ele>983</ele><speed>36</speed><time>2016-06-29T13:58:26Z</time><course>113</course><type>1</type></trkpt>
      <trkpt lat="41.8238683" lon="-4.5130267"><ele>987</ele><speed>45</speed><time>2016-06-29T13:58:28Z</time><course>98</course><type>1</type></trkpt>
      <trkpt lat="41.8238749" lon="-4.5128634"><ele>988</ele><speed>47</speed><time>2016-06-29T13:58:29Z</time><course>90</course><type>1</type></trkpt>
      <trkpt lat="41.82395" lon="-4.512505"><ele>992</ele><speed>51</speed><time>2016-06-29T13:58:31Z</time><course>68</course><type>1</type></trkpt>
      <trkpt lat="41.8240133" lon="-4.5123517"><ele>994</ele><speed>48</speed><time>2016-06-29T13:58:32Z</time><course>57</course><type>1</type></trkpt>
      <trkpt lat="41.8240766" lon="-4.5122267"><ele>995</ele><speed>44</speed><time>2016-06-29T13:58:33Z</time><course>52</course><type>1</type></trkpt>
      <trkpt lat="41.8242566" lon="-4.5120834"><ele>998</ele><speed>35</speed><time>2016-06-29T13:58:35Z</time><course>14</course><type>1</type></trkpt>
      <trkpt lat="41.8244566" lon="-4.5120484"><ele>1001</ele><speed>33</speed><time>2016-06-29T13:58:37Z</time><course>5</course><type>1</type></trkpt>
      <trkpt lat="41.824545" lon="-4.5120517"><ele>1002</ele><speed>25</speed><time>2016-06-29T13:58:38Z</time><course>350</course><type>1</type></trkpt>
      <trkpt lat="41.8246733" lon="-4.5121317"><ele>1006</ele><speed>17</speed><time>2016-06-29T13:58:40Z</time><course>322</course><type>1</type></trkpt>
      <trkpt lat="41.8247199" lon="-4.5121751"><ele>1007</ele><speed>20</speed><time>2016-06-29T13:58:41Z</time><course>318</course><type>1</type></trkpt>
      <trkpt lat="41.82482" lon="-4.5122817"><ele>1010</ele><speed>23</speed><time>2016-06-29T13:58:43Z</time><course>312</course><type>1</type></trkpt>
      <trkpt lat="41.82488" lon="-4.5123817"><ele>1013</ele><speed>17</speed><time>2016-06-29T13:58:45Z</time><course>303</course><type>1</type></trkpt>
      <trkpt lat="41.8249016" lon="-4.5125084"><ele>1016</ele><speed>16</speed><time>2016-06-29T13:58:47Z</time><course>268</course><type>1</type></trkpt>
      <trkpt lat="41.8249233" lon="-4.5126334"><ele>1020</ele><speed>21</speed><time>2016-06-29T13:58:49Z</time><course>298</course><type>1</type></trkpt>
      <trkpt lat="41.824985" lon="-4.5127134"><ele>1023</ele><speed>13</speed><time>2016-06-29T13:58:51Z</time><course>313</course><type>1</type></trkpt>
      <trkpt lat="41.8250233" lon="-4.512875"><ele>1030</ele><speed>19</speed><time>2016-06-29T13:58:54Z</time><course>279</course><type>1</type></trkpt>
      <trkpt lat="41.825045" lon="-4.51303"><ele>1036</ele><speed>8</speed><time>2016-06-29T13:58:57Z</time><course>234</course><type>1</type></trkpt>
      <trkpt lat="41.8249266" lon="-4.51313"><ele>1044</ele><speed>21</speed><time>2016-06-29T13:59:00Z</time><course>214</course><type>1</type></trkpt>
      <trkpt lat="41.8248766" lon="-4.5131617"><ele>1046</ele><speed>24</speed><time>2016-06-29T13:59:01Z</time><course>206</course><type>1</type></trkpt>
      <trkpt lat="41.8247316" lon="-4.513235"><ele>1047</ele><speed>34</speed><time>2016-06-29T13:59:03Z</time><course>186</course><type>1</type></trkpt>
      <trkpt lat="41.824635" lon="-4.5132517"><ele>1049</ele><speed>38</speed><time>2016-06-29T13:59:04Z</time><course>180</course><type>1</type></trkpt>
      <trkpt lat="41.824525" lon="-4.5132484"><ele>1050</ele><speed>41</speed><time>2016-06-29T13:59:05Z</time><course>178</course><type>1</type></trkpt>
      <trkpt lat="41.8242916" lon="-4.5131917"><ele>1053</ele><speed>46</speed><time>2016-06-29T13:59:07Z</time><course>165</course><type>1</type></trkpt>
      <trkpt lat="41.82417" lon="-4.51313"><ele>1055</ele><speed>50</speed><time>2016-06-29T13:59:08Z</time><course>159</course><type>1</type></trkpt>
      <trkpt lat="41.82406" lon="-4.5130267"><ele>1056</ele><speed>53</speed><time>2016-06-29T13:59:09Z</time><course>143</course><type>1</type></trkpt>
      <trkpt lat="41.8239516" lon="-4.5129117"><ele>1057</ele><speed>56</speed><time>2016-06-29T13:59:10Z</time><course>138</course><type>1</type></trkpt>
      <trkpt lat="41.8237833" lon="-4.512605"><ele>1059</ele><speed>57</speed><time>2016-06-29T13:59:12Z</time><course>121</course><type>1</type></trkpt>
      <trkpt lat="41.8237066" lon="-4.512235"><ele>1062</ele><speed>58</speed><time>2016-06-29T13:59:14Z</time><course>99</course><type>1</type></trkpt>
      <trkpt lat="41.8236866" lon="-4.51184"><ele>1064</ele><speed>53</speed><time>2016-06-29T13:59:16Z</time><course>90</course><type>1</type></trkpt>
      <trkpt lat="41.8236949" lon="-4.5116417"><ele>1066</ele><speed>48</speed><time>2016-06-29T13:59:17Z</time><course>86</course><type>1</type></trkpt>
      <trkpt lat="41.8238116" lon="-4.5112234"><ele>1069</ele><speed>59</speed><time>2016-06-29T13:59:19Z</time><course>68</course><type>1</type></trkpt>
      <trkpt lat="41.8238766" lon="-4.5110217"><ele>1071</ele><speed>55</speed><time>2016-06-29T13:59:20Z</time><course>59</course><type>1</type></trkpt>
      <trkpt lat="41.824065" lon="-4.5107684"><ele>1075</ele><speed>46</speed><time>2016-06-29T13:59:22Z</time><course>29</course><type>1</type></trkpt>
      <trkpt lat="41.8242" lon="-4.5107034"><ele>1077</ele><speed>47</speed><time>2016-06-29T13:59:23Z</time><course>20</course><type>1</type></trkpt>
      <trkpt lat="41.8243283" lon="-4.5106367"><ele>1080</ele><speed>45</speed><time>2016-06-29T13:59:24Z</time><course>22</course><type>1</type></trkpt>
      <trkpt lat="41.824575" lon="-4.5105317"><ele>1085</ele><speed>48</speed><time>2016-06-29T13:59:26Z</time><course>10</course><type>1</type></trkpt>
      <trkpt lat="41.824845" lon="-4.5104684"><ele>1089</ele><speed>49</speed><time>2016-06-29T13:59:28Z</time><course>3</course><type>1</type></trkpt>
      <trkpt lat="41.8249716" lon="-4.510445"><ele>1092</ele><speed>44</speed><time>2016-06-29T13:59:29Z</time><course>1</course><type>1</type></trkpt>
      <trkpt lat="41.82518" lon="-4.510415"><ele>1097</ele><speed>36</speed><time>2016-06-29T13:59:31Z</time><course>5</course><type>1</type></trkpt>
      <trkpt lat="41.8253533" lon="-4.5104034"><ele>1104</ele><speed>33</speed><time>2016-06-29T13:59:33Z</time><course>358</course><type>1</type></trkpt>
      <trkpt lat="41.8254216" lon="-4.5104084"><ele>1110</ele><speed>33</speed><time>2016-06-29T13:59:34Z</time><course>354</course><type>1</type></trkpt>
      <trkpt lat="41.82555" lon="-4.510425"><ele>1121</ele><speed>28</speed><time>2016-06-29T13:59:36Z</time><course>341</course><type>1</type></trkpt>
      <trkpt lat="41.8256866" lon="-4.510485"><ele>1124</ele><speed>28</speed><time>2016-06-29T13:59:38Z</time><course>345</course><type>1</type></trkpt>
      <trkpt lat="41.8257583" lon="-4.5104934"><ele>1126</ele><speed>29</speed><time>2016-06-29T13:59:39Z</time><course>354</course><type>1</type></trkpt>
      <trkpt lat="41.8259283" lon="-4.5105"><ele>1129</ele><speed>34</speed><time>2016-06-29T13:59:41Z</time><course>1</course><type>1</type></trkpt>
      <trkpt lat="41.8260216" lon="-4.5105217"><ele>1132</ele><speed>36</speed><time>2016-06-29T13:59:42Z</time><course>357</course><type>1</type></trkpt>
      <trkpt lat="41.826175" lon="-4.51051"><ele>1139</ele><speed>31</speed><time>2016-06-29T13:59:44Z</time><course>1</course><type>1</type></trkpt>
      <trkpt lat="41.826305" lon="-4.51045"><ele>1147</ele><speed>33</speed><time>2016-06-29T13:59:46Z</time><course>21</course><type>1</type></trkpt>
      <trkpt lat="41.8263766" lon="-4.5104184"><ele>1149</ele><speed>31</speed><time>2016-06-29T13:59:47Z</time><course>26</course><type>1</type></trkpt>
      <trkpt lat="41.82646" lon="-4.5103617"><ele>1147</ele><speed>32</speed><time>2016-06-29T13:59:48Z</time><course>34</course><type>1</type></trkpt>
      <trkpt lat="41.82659" lon="-4.510225"><ele>1152</ele><speed>33</speed><time>2016-06-29T13:59:50Z</time><course>40</course><type>1</type></trkpt>
      <trkpt lat="41.8266916" lon="-4.5100217"><ele>1163</ele><speed>46</speed><time>2016-06-29T13:59:52Z</time><course>56</course><type>1</type></trkpt>
      <trkpt lat="41.8267" lon="-4.5098717"><ele>1168</ele><speed>50</speed><time>2016-06-29T13:59:53Z</time><course>74</course><type>1</type></trkpt>
      <trkpt lat="41.8267283" lon="-4.509725"><ele>1172</ele><speed>52</speed><time>2016-06-29T13:59:54Z</time><course>87</course><type>1</type></trkpt>
      <trkpt lat="41.8267083" lon="-4.50939"><ele>1178</ele><speed>49</speed><time>2016-06-29T13:59:56Z</time><course>96</course><type>1</type></trkpt>
      <trkpt lat="41.826695" lon="-4.5092217"><ele>1181</ele><speed>47</speed><time>2016-06-29T13:59:57Z</time><course>94</course><type>1</type></trkpt>
      <trkpt lat="41.82666" lon="-4.5089384"><ele>1191</ele><speed>40</speed><time>2016-06-29T13:59:59Z</time><course>98</course><type>1</type></trkpt>
      <trkpt lat="41.82656" lon="-4.508745"><ele>1199</ele><speed>38</speed><time>2016-06-29T14:00:01Z</time><course>121</course><type>1</type></trkpt>
      <trkpt lat="41.826405" lon="-4.5085584"><ele>1207</ele><speed>37</speed><time>2016-06-29T14:00:03Z</time><course>136</course><type>1</type></trkpt>
      <trkpt lat="41.8263333" lon="-4.508485"><ele>1212</ele><speed>31</speed><time>2016-06-29T14:00:04Z</time><course>140</course><type>1</type></trkpt>
      <trkpt lat="41.8262466" lon="-4.5084534"><ele>1215</ele><speed>32</speed><time>2016-06-29T14:00:05Z</time><course>162</course><type>1</type></trkpt>
      <trkpt lat="41.826085" lon="-4.5084867"><ele>1222</ele><speed>25</speed><time>2016-06-29T14:00:07Z</time><course>195</course><type>1</type></trkpt>
      <trkpt lat="41.825985" lon="-4.5086034"><ele>1230</ele><speed>27</speed><time>2016-06-29T14:00:09Z</time><course>243</course><type>1</type></trkpt>
      <trkpt lat="41.825925" lon="-4.5087751"><ele>1239</ele><speed>26</speed><time>2016-06-29T14:00:11Z</time><course>261</course><type>1</type></trkpt>
      <trkpt lat="41.82592" lon="-4.5088734"><ele>1246</ele><speed>12</speed><time>2016-06-29T14:00:13Z</time><course>276</course><type>1</type></trkpt>
      <trkpt lat="41.8259216" lon="-4.5089551"><ele>1256</ele><speed>17</speed><time>2016-06-29T14:00:15Z</time><course>296</course><type>1</type></trkpt>
      <trkpt lat="41.8259716" lon="-4.509035"><ele>1266</ele><speed>19</speed><time>2016-06-29T14:00:17Z</time><course>324</course><type>1</type></trkpt>
      <trkpt lat="41.8260466" lon="-4.5090717"><ele>1274</ele><speed>22</speed><time>2016-06-29T14:00:19Z</time><course>341</course><type>1</type></trkpt>
      <trkpt lat="41.8262033" lon="-4.5090434"><ele>1284</ele><speed>26</speed><time>2016-06-29T14:00:22Z</time><course>23</course><type>1</type></trkpt>
      <trkpt lat="41.8263066" lon="-4.5088934"><ele>1289</ele><speed>33</speed><time>2016-06-29T14:00:24Z</time><course>46</course><type>1</type></trkpt>
      <trkpt lat="41.8264066" lon="-4.5086934"><ele>1295</ele><speed>41</speed><time>2016-06-29T14:00:26Z</time><course>50</course><type>1</type></trkpt>
      <trkpt lat="41.8264783" lon="-4.5085667"><ele>1298</ele><speed>49</speed><time>2016-06-29T14:00:27Z</time><course>63</course><type>1</type></trkpt>
      <trkpt lat="41.8265033" lon="-4.5084134"><ele>1302</ele><speed>51</speed><time>2016-06-29T14:00:28Z</time><course>71</course><type>1</type></trkpt>
      <trkpt lat="41.8265866" lon="-4.508085"><ele>1307</ele><speed>52</speed><time>2016-06-29T14:00:30Z</time><course>65</course><type>1</type></trkpt>
      <trkpt lat="41.826635" lon="-4.50793"><ele>1310</ele><speed>46</speed><time>2016-06-29T14:00:31Z</time><course>70</course><type>1</type></trkpt>
      <trkpt lat="41.8266566" lon="-4.5076817"><ele>1318</ele><speed>37</speed><time>2016-06-29T14:00:33Z</time><course>85</course><type>1</type></trkpt>
      <trkpt lat="41.8266316" lon="-4.507495"><ele>1324</ele><speed>32</speed><time>2016-06-29T14:00:35Z</time><course>94</course><type>1</type></trkpt>
      <trkpt lat="41.8266099" lon="-4.5072934"><ele>1327</ele><speed>35</speed><time>2016-06-29T14:00:37Z</time><course>98</course><type>1</type></trkpt>
      <trkpt lat="41.8265366" lon="-4.507065"><ele>1330</ele><speed>40</speed><time>2016-06-29T14:00:39Z</time><course>114</course><type>1</type></trkpt>
      <trkpt lat="41.8264583" lon="-4.506795"><ele>1334</ele><speed>48</speed><time>2016-06-29T14:00:41Z</time><course>103</course><type>1</type></trkpt>
      <trkpt lat="41.8264216" lon="-4.50647"><ele>1338</ele><speed>49</speed><time>2016-06-29T14:00:43Z</time><course>94</course><type>1</type></trkpt>
      <trkpt lat="41.826415" lon="-4.506315"><ele>1341</ele><speed>46</speed><time>2016-06-29T14:00:44Z</time><course>89</course><type>1</type></trkpt>
      <trkpt lat="41.8264216" lon="-4.506165"><ele>1342</ele><speed>46</speed><time>2016-06-29T14:00:45Z</time><course>87</course><type>1</type></trkpt>
      <trkpt lat="41.8264033" lon="-4.50585"><ele>1347</ele><speed>48</speed><time>2016-06-29T14:00:47Z</time><course>96</course><type>1</type></trkpt>
      <trkpt lat="41.82638" lon="-4.505695"><ele>1351</ele><speed>46</speed><time>2016-06-29T14:00:48Z</time><course>99</course><type>1</type></trkpt>
      <trkpt lat="41.8262633" lon="-4.5054267"><ele>1358</ele><speed>44</speed><time>2016-06-29T14:00:50Z</time><course>121</course><type>1</type></trkpt>
      <trkpt lat="41.8261916" lon="-4.50531"><ele>1360</ele><speed>46</speed><time>2016-06-29T14:00:51Z</time><course>129</course><type>1</type></trkpt>
      <trkpt lat="41.8260516" lon="-4.5050784"><ele>1364</ele><speed>43</speed><time>2016-06-29T14:00:53Z</time><course>124</course><type>1</type></trkpt>
      <trkpt lat="41.82599" lon="-4.5049767"><ele>1366</ele><speed>40</speed><time>2016-06-29T14:00:54Z</time><course>124</course><type>1</type></trkpt>
      <trkpt lat="41.8258766" lon="-4.504785"><ele>1372</ele><speed>32</speed><time>2016-06-29T14:00:56Z</time><course>129</course><type>1</type></trkpt>
      <trkpt lat="41.8258133" lon="-4.5047184"><ele>1376</ele><speed>26</speed><time>2016-06-29T14:00:57Z</time><course>137</course><type>1</type></trkpt>
      <trkpt lat="41.8256966" lon="-4.5045784"><ele>1385</ele><speed>27</speed><time>2016-06-29T14:00:59Z</time><course>145</course><type>1</type></trkpt>
      <trkpt lat="41.825565" lon="-4.504485"><ele>1391</ele><speed>27</speed><time>2016-06-29T14:01:01Z</time><course>158</course><type>1</type></trkpt>
      <trkpt lat="41.8255016" lon="-4.5044534"><ele>1393</ele><speed>27</speed><time>2016-06-29T14:01:02Z</time><course>158</course><type>1</type></trkpt>
      <trkpt lat="41.8254416" lon="-4.5044184"><ele>1396</ele><speed>24</speed><time>2016-06-29T14:01:03Z</time><course>158</course><type>1</type></trkpt>
      <trkpt lat="41.82539" lon="-4.5043917"><ele>1400</ele><speed>20</speed><time>2016-06-29T14:01:04Z</time><course>143</course><type>1</type></trkpt>
      <trkpt lat="41.8253233" lon="-4.504355"><ele>1405</ele><speed>9</speed><time>2016-06-29T14:01:06Z</time><course>146</course><type>1</type></trkpt>
      <trkpt lat="41.82527" lon="-4.5043034"><ele>1412</ele><speed>8</speed><time>2016-06-29T14:01:08Z</time><course>143</course><type>1</type></trkpt>
      <trkpt lat="41.825195" lon="-4.50432"><ele>1425</ele><speed>10</speed><time>2016-06-29T14:01:10Z</time><course>197</course><type>1</type></trkpt>
      <trkpt lat="41.825145" lon="-4.5043784"><ele>1438</ele><speed>12</speed><time>2016-06-29T14:01:12Z</time><course>274</course><type>1</type></trkpt>
      <trkpt lat="41.8251233" lon="-4.5044184"><ele>1449</ele><speed>6</speed><time>2016-06-29T14:01:15Z</time><course>229</course><type>1</type></trkpt>
      <trkpt lat="41.8249883" lon="-4.5044734"><ele>1463</ele><speed>26</speed><time>2016-06-29T14:01:17Z</time><course>198</course><type>1</type></trkpt>
      <trkpt lat="41.8247816" lon="-4.5044134"><ele>1471</ele><speed>47</speed><time>2016-06-29T14:01:19Z</time><course>154</course><type>1</type></trkpt>
      <trkpt lat="41.824665" lon="-4.5043167"><ele>1480</ele><speed>41</speed><time>2016-06-29T14:01:20Z</time><course>141</course><type>1</type></trkpt>
      <trkpt lat="41.8245333" lon="-4.5042117"><ele>1489</ele><speed>21</speed><time>2016-06-29T14:01:22Z</time><course>160</course><type>1</type></trkpt>
      <trkpt lat="41.8244766" lon="-4.5042117"><ele>1496</ele><speed>14</speed><time>2016-06-29T14:01:23Z</time><course>185</course><type>1</type></trkpt>
      <trkpt lat="41.8244483" lon="-4.5042417"><ele>1504</ele><speed>5</speed><time>2016-06-29T14:01:25Z</time><course>289</course><type>1</type></trkpt>
      <trkpt lat="41.8245666" lon="-4.5041384"><ele>1517</ele><speed>30</speed><time>2016-06-29T14:01:29Z</time><course>38</course><type>1</type></trkpt>
      <trkpt lat="41.8246333" lon="-4.50405"><ele>1521</ele><speed>27</speed><time>2016-06-29T14:01:31Z</time><course>42</course><type>1</type></trkpt>
      <trkpt lat="41.8246816" lon="-4.503985"><ele>1523</ele><speed>24</speed><time>2016-06-29T14:01:32Z</time><course>51</course><type>1</type></trkpt>
      <trkpt lat="41.8247266" lon="-4.503855"><ele>1526</ele><speed>21</speed><time>2016-06-29T14:01:34Z</time><course>62</course><type>1</type></trkpt>
      <trkpt lat="41.8247333" lon="-4.5036834"><ele>1529</ele><speed>33</speed><time>2016-06-29T14:01:35Z</time><course>83</course><type>1</type></trkpt>
      <trkpt lat="41.8248333" lon="-4.50337"><ele>1533</ele><speed>46</speed><time>2016-06-29T14:01:37Z</time><course>52</course><type>1</type></trkpt>
      <trkpt lat="41.8249066" lon="-4.503195"><ele>1536</ele><speed>52</speed><time>2016-06-29T14:01:38Z</time><course>51</course><type>1</type></trkpt>
      <trkpt lat="41.824995" lon="-4.503055"><ele>1538</ele><speed>55</speed><time>2016-06-29T14:01:39Z</time><course>47</course><type>1</type></trkpt>
      <trkpt lat="41.8251583" lon="-4.50278"><ele>1539</ele><speed>58</speed><time>2016-06-29T14:01:41Z</time><course>52</course><type>1</type></trkpt>
      <trkpt lat="41.8252366" lon="-4.5026617"><ele>1542</ele><speed>48</speed><time>2016-06-29T14:01:42Z</time><course>50</course><type>1</type></trkpt>
      <trkpt lat="41.8254016" lon="-4.5024167"><ele>1545</ele><speed>49</speed><time>2016-06-29T14:01:44Z</time><course>53</course><type>1</type></trkpt>
      <trkpt lat="41.82557" lon="-4.5020984"><ele>1548</ele><speed>59</speed><time>2016-06-29T14:01:46Z</time><course>58</course><type>1</type></trkpt>
      <trkpt lat="41.82575" lon="-4.5017984"><ele>1553</ele><speed>56</speed><time>2016-06-29T14:01:48Z</time><course>57</course><type>1</type></trkpt>
      <trkpt lat="41.8257983" lon="-4.5016584"><ele>1559</ele><speed>53</speed><time>2016-06-29T14:01:49Z</time><course>58</course><type>1</type></trkpt>
      <trkpt lat="41.8259016" lon="-4.50138"><ele>1570</ele><speed>52</speed><time>2016-06-29T14:01:51Z</time><course>57</course><type>1</type></trkpt>
      <trkpt lat="41.8259683" lon="-4.5011217"><ele>1580</ele><speed>42</speed><time>2016-06-29T14:01:53Z</time><course>70</course><type>1</type></trkpt>
      <trkpt lat="41.8260033" lon="-4.50083"><ele>1587</ele><speed>51</speed><time>2016-06-29T14:01:55Z</time><course>81</course><type>1</type></trkpt>
      <trkpt lat="41.82602" lon="-4.50048"><ele>1596</ele><speed>52</speed><time>2016-06-29T14:01:57Z</time><course>86</course><type>1</type></trkpt>
      <trkpt lat="41.8260033" lon="-4.5001617"><ele>1604</ele><speed>47</speed><time>2016-06-29T14:01:59Z</time><course>93</course><type>1</type></trkpt>
      <trkpt lat="41.8259766" lon="-4.4998601"><ele>1611</ele><speed>44</speed><time>2016-06-29T14:02:01Z</time><course>97</course><type>1</type></trkpt>
      <trkpt lat="41.8259433" lon="-4.4997084"><ele>1613</ele><speed>46</speed><time>2016-06-29T14:02:02Z</time><course>106</course><type>1</type></trkpt>
      <trkpt lat="41.825875" lon="-4.4995817"><ele>1615</ele><speed>43</speed><time>2016-06-29T14:02:03Z</time><course>120</course><type>1</type></trkpt>
      <trkpt lat="41.8257366" lon="-4.4994"><ele>1619</ele><speed>38</speed><time>2016-06-29T14:02:05Z</time><course>145</course><type>1</type></trkpt>
      <trkpt lat="41.8256033" lon="-4.4993467"><ele>1622</ele><speed>28</speed><time>2016-06-29T14:02:07Z</time><course>177</course><type>1</type></trkpt>
      <trkpt lat="41.82555" lon="-4.4993684"><ele>1624</ele><speed>24</speed><time>2016-06-29T14:02:08Z</time><course>194</course><type>1</type></trkpt>
      <trkpt lat="41.825465" lon="-4.4994267"><ele>1629</ele><speed>18</speed><time>2016-06-29T14:02:10Z</time><course>214</course><type>1</type></trkpt>
      <trkpt lat="41.8254433" lon="-4.499475"><ele>1632</ele><speed>16</speed><time>2016-06-29T14:02:11Z</time><course>243</course><type>1</type></trkpt>
      <trkpt lat="41.8254283" lon="-4.4996067"><ele>1640</ele><speed>23</speed><time>2016-06-29T14:02:13Z</time><course>279</course><type>1</type></trkpt>
      <trkpt lat="41.8254916" lon="-4.4996667"><ele>1640</ele><speed>29</speed><time>2016-06-29T14:02:14Z</time><course>324</course><type>1</type></trkpt>
      <trkpt lat="41.825625" lon="-4.4996484"><ele>1653</ele><speed>45</speed><time>2016-06-29T14:02:16Z</time><course>353</course><type>1</type></trkpt>
      <trkpt lat="41.8257033" lon="-4.4996017"><ele>1661</ele><speed>43</speed><time>2016-06-29T14:02:17Z</time><course>1</course><type>1</type></trkpt>
      <trkpt lat="41.825885" lon="-4.4995784"><ele>1668</ele><speed>33</speed><time>2016-06-29T14:02:19Z</time><course>6</course><type>1</type></trkpt>
      <trkpt lat="41.8259616" lon="-4.499565"><ele>1671</ele><speed>33</speed><time>2016-06-29T14:02:20Z</time><course>9</course><type>1</type></trkpt>
      <trkpt lat="41.8261183" lon="-4.4994267"><ele>1686</ele><speed>50</speed><time>2016-06-29T14:02:22Z</time><course>36</course><type>1</type></trkpt>
      <trkpt lat="41.8263033" lon="-4.4991784"><ele>1688</ele><speed>52</speed><time>2016-06-29T14:02:24Z</time><course>52</course><type>1</type></trkpt>
      <trkpt lat="41.8264666" lon="-4.4989267"><ele>1693</ele><speed>49</speed><time>2016-06-29T14:02:26Z</time><course>50</course><type>1</type></trkpt>
      <trkpt lat="41.82655" lon="-4.49866"><ele>1699</ele><speed>48</speed><time>2016-06-29T14:02:28Z</time><course>77</course><type>1</type></trkpt>
      <trkpt lat="41.8265716" lon="-4.498515"><ele>1702</ele><speed>48</speed><time>2016-06-29T14:02:29Z</time><course>82</course><type>1</type></trkpt>
      <trkpt lat="41.82657" lon="-4.4983784"><ele>1706</ele><speed>42</speed><time>2016-06-29T14:02:30Z</time><course>92</course><type>1</type></trkpt>
      <trkpt lat="41.8265333" lon="-4.4981151"><ele>1709</ele><speed>42</speed><time>2016-06-29T14:02:32Z</time><course>105</course><type>1</type></trkpt>
      <trkpt lat="41.8263983" lon="-4.497885"><ele>1718</ele><speed>46</speed><time>2016-06-29T14:02:34Z</time><course>128</course><type>1</type></trkpt>
      <trkpt lat="41.82631" lon="-4.4977884"><ele>1722</ele><speed>44</speed><time>2016-06-29T14:02:35Z</time><course>142</course><type>1</type></trkpt>
      <trkpt lat="41.8262316" lon="-4.497725"><ele>1726</ele><speed>32</speed><time>2016-06-29T14:02:36Z</time><course>161</course><type>1</type></trkpt>
      <trkpt lat="41.8261149" lon="-4.4976617"><ele>1728</ele><speed>30</speed><time>2016-06-29T14:02:38Z</time><course>150</course><type>1</type></trkpt>
      <trkpt lat="41.8260533" lon="-4.4976117"><ele>1729</ele><speed>31</speed><time>2016-06-29T14:02:39Z</time><course>147</course><type>1</type></trkpt>
      <trkpt lat="41.82594" lon="-4.4975367"><ele>1731</ele><speed>26</speed><time>2016-06-29T14:02:41Z</time><course>174</course><type>1</type></trkpt>
      <trkpt lat="41.8258766" lon="-4.4975634"><ele>1736</ele><speed>21</speed><time>2016-06-29T14:02:42Z</time><course>214</course><type>1</type></trkpt>
      <trkpt lat="41.8257883" lon="-4.4975767"><ele>1748</ele><speed>16</speed><time>2016-06-29T14:02:44Z</time><course>249</course><type>1</type></trkpt>
      <trkpt lat="41.8257283" lon="-4.4976084"><ele>1756</ele><speed>14</speed><time>2016-06-29T14:02:46Z</time><course>245</course><type>1</type></trkpt>
      <trkpt lat="41.8257233" lon="-4.49768"><ele>1762</ele><speed>23</speed><time>2016-06-29T14:02:48Z</time><course>294</course><type>1</type></trkpt>
      <trkpt lat="41.8258216" lon="-4.49777"><ele>1766</ele><speed>36</speed><time>2016-06-29T14:02:50Z</time><course>323</course><type>1</type></trkpt>
      <trkpt lat="41.825925" lon="-4.4972251"><ele>1812</ele><speed>27</speed><time>2016-06-29T14:02:52Z</time><course>354</course><type>1</type></trkpt>
      <trkpt lat="41.82606" lon="-4.4972267"><ele>1825</ele><speed>29</speed><time>2016-06-29T14:02:54Z</time><course>358</course><type>1</type></trkpt>
      <trkpt lat="41.8261233" lon="-4.4970134"><ele>1848</ele><speed>35</speed><time>2016-06-29T14:02:55Z</time><course>357</course><type>1</type></trkpt>
      <trkpt lat="41.826185" lon="-4.497215"><ele>1860</ele><speed>37</speed><time>2016-06-29T14:02:56Z</time><course>7</course><type>1</type></trkpt>
      <trkpt lat="41.8262766" lon="-4.4971967"><ele>1870</ele><speed>39</speed><time>2016-06-29T14:02:57Z</time><course>10</course><type>1</type></trkpt>
      <trkpt lat="41.82635" lon="-4.4970901"><ele>1874</ele><speed>39</speed><time>2016-06-29T14:02:59Z</time><course>28</course><type>1</type></trkpt>
      <trkpt lat="41.826485" lon="-4.4969667"><ele>1881</ele><speed>39</speed><time>2016-06-29T14:03:01Z</time><course>24</course><type>1</type></trkpt>
      <trkpt lat="41.8265983" lon="-4.4968184"><ele>1897</ele><speed>38</speed><time>2016-06-29T14:03:03Z</time><course>38</course><type>1</type></trkpt>
      <trkpt lat="41.8267316" lon="-4.49676"><ele>1909</ele><speed>39</speed><time>2016-06-29T14:03:06Z</time><course>54</course><type>1</type></trkpt>
      <trkpt lat="41.8268083" lon="-4.4965467"><ele>1917</ele><speed>47</speed><time>2016-06-29T14:03:08Z</time><course>63</course><type>1</type></trkpt>
      <trkpt lat="41.8268066" lon="-4.49624"><ele>1929</ele><speed>44</speed><time>2016-06-29T14:03:10Z</time><course>92</course><type>1</type></trkpt>
      <trkpt lat="41.8268133" lon="-4.4960984"><ele>1932</ele><speed>42</speed><time>2016-06-29T14:03:11Z</time><course>95</course><type>1</type></trkpt>
      <trkpt lat="41.8268033" lon="-4.4958267"><ele>1936</ele><speed>42</speed><time>2016-06-29T14:03:13Z</time><course>99</course><type>1</type></trkpt>
      <trkpt lat="41.8267616" lon="-4.495725"><ele>1939</ele><speed>42</speed><time>2016-06-29T14:03:14Z</time><course>103</course><type>1</type></trkpt>
      <trkpt lat="41.8267016" lon="-4.49562"><ele>1943</ele><speed>43</speed><time>2016-06-29T14:03:15Z</time><course>115</course><type>1</type></trkpt>
      <trkpt lat="41.8265016" lon="-4.49549"><ele>1957</ele><speed>44</speed><time>2016-06-29T14:03:17Z</time><course>145</course><type>1</type></trkpt>
      <trkpt lat="41.8264033" lon="-4.4954267"><ele>1961</ele><speed>42</speed><time>2016-06-29T14:03:18Z</time><course>152</course><type>1</type></trkpt>
      <trkpt lat="41.826245" lon="-4.4953784"><ele>1965</ele><speed>29</speed><time>2016-06-29T14:03:20Z</time><course>154</course><type>1</type></trkpt>
      <trkpt lat="41.8261" lon="-4.49531"><ele>1973</ele><speed>31</speed><time>2016-06-29T14:03:22Z</time><course>151</course><type>1</type></trkpt>
      <trkpt lat="41.8260183" lon="-4.495275"><ele>1977</ele><speed>30</speed><time>2016-06-29T14:03:23Z</time><course>158</course><type>1</type></trkpt>
      <trkpt lat="41.82596" lon="-4.4952567"><ele>1976</ele><speed>26</speed><time>2016-06-29T14:03:24Z</time><course>162</course><type>1</type></trkpt>
      <trkpt lat="41.82583" lon="-4.4952284"><ele>1984</ele><speed>22</speed><time>2016-06-29T14:03:26Z</time><course>173</course><type>1</type></trkpt>
      <trkpt lat="41.82577" lon="-4.4952184"><ele>1986</ele><speed>29</speed><time>2016-06-29T14:03:27Z</time><course>165</course><type>1</type></trkpt>
      <trkpt lat="41.8256133" lon="-4.495235"><ele>1995</ele><speed>32</speed><time>2016-06-29T14:03:29Z</time><course>194</course><type>1</type></trkpt>
      <trkpt lat="41.8255416" lon="-4.495285"><ele>1997</ele><speed>30</speed><time>2016-06-29T14:03:30Z</time><course>205</course><type>1</type></trkpt>
      <trkpt lat="41.8254433" lon="-4.4953717"><ele>1998</ele><speed>12</speed><time>2016-06-29T14:03:33Z</time><course>205</course><type>1</type></trkpt>
      <trkpt lat="41.8253566" lon="-4.4954717"><ele>2015</ele><speed>20</speed><time>2016-06-29T14:03:35Z</time><course>226</course><type>1</type></trkpt>
      <trkpt lat="41.8253066" lon="-4.4955517"><ele>2026</ele><speed>21</speed><time>2016-06-29T14:03:36Z</time><course>243</course><type>1</type></trkpt>
      <trkpt lat="41.825265" lon="-4.4957267"><ele>2044</ele><speed>23</speed><time>2016-06-29T14:03:38Z</time><course>269</course><type>1</type></trkpt>
      <trkpt lat="41.8252766" lon="-4.4959184"><ele>2055</ele><speed>25</speed><time>2016-06-29T14:03:40Z</time><course>278</course><type>1</type></trkpt>
      <trkpt lat="41.825285" lon="-4.496095"><ele>2067</ele><speed>24</speed><time>2016-06-29T14:03:42Z</time><course>286</course><type>1</type></trkpt>
      <trkpt lat="41.8253766" lon="-4.4961217"><ele>2083</ele><speed>18</speed><time>2016-06-29T14:03:45Z</time><course>341</course><type>1</type></trkpt>
      <trkpt lat="41.8254266" lon="-4.4961767"><ele>2094</ele><speed>17</speed><time>2016-06-29T14:03:47Z</time><course>328</course><type>1</type></trkpt>
      <trkpt lat="41.8255366" lon="-4.4961967"><ele>2119</ele><speed>23</speed><time>2016-06-29T14:03:51Z</time><course>356</course><type>1</type></trkpt>
      <trkpt lat="41.825655" lon="-4.4962117"><ele>2131</ele><speed>28</speed><time>2016-06-29T14:03:53Z</time><course>354</course><type>1</type></trkpt>
      <trkpt lat="41.825715" lon="-4.4962234"><ele>2138</ele><speed>29</speed><time>2016-06-29T14:03:54Z</time><course>353</course><type>1</type></trkpt>
      <trkpt lat="41.8257766" lon="-4.4962184"><ele>2143</ele><speed>27</speed><time>2016-06-29T14:03:55Z</time><course>6</course><type>1</type></trkpt>
      <trkpt lat="41.8258449" lon="-4.4962017"><ele>2148</ele><speed>30</speed><time>2016-06-29T14:03:56Z</time><course>8</course><type>1</type></trkpt>
      <trkpt lat="41.8259816" lon="-4.496165"><ele>2159</ele><speed>29</speed><time>2016-06-29T14:03:58Z</time><course>10</course><type>1</type></trkpt>
      <trkpt lat="41.8261216" lon="-4.49613"><ele>2171</ele><speed>30</speed><time>2016-06-29T14:04:00Z</time><course>10</course><type>1</type></trkpt>
      <trkpt lat="41.8262316" lon="-4.49606"><ele>2186</ele><speed>30</speed><time>2016-06-29T14:04:02Z</time><course>15</course><type>1</type></trkpt>
      <trkpt lat="41.8262983" lon="-4.4959634"><ele>2180</ele><speed>30</speed><time>2016-06-29T14:04:03Z</time><course>29</course><type>1</type></trkpt>
      <trkpt lat="41.8264683" lon="-4.4957634"><ele>2184</ele><speed>44</speed><time>2016-06-29T14:04:05Z</time><course>38</course><type>1</type></trkpt>
      <trkpt lat="41.826625" lon="-4.4955217"><ele>2188</ele><speed>47</speed><time>2016-06-29T14:04:07Z</time><course>46</course><type>1</type></trkpt>
      <trkpt lat="41.8266916" lon="-4.4954"><ele>2190</ele><speed>47</speed><time>2016-06-29T14:04:08Z</time><course>52</course><type>1</type></trkpt>
      <trkpt lat="41.8268016" lon="-4.4951567"><ele>2195</ele><speed>47</speed><time>2016-06-29T14:04:10Z</time><course>54</course><type>1</type></trkpt>
      <trkpt lat="41.82685" lon="-4.495025"><ele>2197</ele><speed>45</speed><time>2016-06-29T14:04:11Z</time><course>69</course><type>1</type></trkpt>
      <trkpt lat="41.826855" lon="-4.4947517"><ele>2201</ele><speed>43</speed><time>2016-06-29T14:04:13Z</time><course>92</course><type>1</type></trkpt>
      <trkpt lat="41.82684" lon="-4.4946"><ele>2203</ele><speed>47</speed><time>2016-06-29T14:04:14Z</time><course>103</course><type>1</type></trkpt>
      <trkpt lat="41.8267616" lon="-4.4943067"><ele>2206</ele><speed>51</speed><time>2016-06-29T14:04:16Z</time><course>119</course><type>1</type></trkpt>
      <trkpt lat="41.8266283" lon="-4.494135"><ele>2212</ele><speed>47</speed><time>2016-06-29T14:04:18Z</time><course>123</course><type>1</type></trkpt>
      <trkpt lat="41.8264833" lon="-4.4939734"><ele>2217</ele><speed>47</speed><time>2016-06-29T14:04:20Z</time><course>122</course><type>1</type></trkpt>
      <trkpt lat="41.8263849" lon="-4.4938767"><ele>2221</ele><speed>47</speed><time>2016-06-29T14:04:21Z</time><course>127</course><type>1</type></trkpt>
      <trkpt lat="41.826175" lon="-4.4937067"><ele>2227</ele><speed>43</speed><time>2016-06-29T14:04:23Z</time><course>142</course><type>1</type></trkpt>
      <trkpt lat="41.8259566" lon="-4.4935867"><ele>2234</ele><speed>40</speed><time>2016-06-29T14:04:25Z</time><course>153</course><type>1</type></trkpt>
      <trkpt lat="41.8258583" lon="-4.493535"><ele>2236</ele><speed>41</speed><time>2016-06-29T14:04:26Z</time><course>157</course><type>1</type></trkpt>
      <trkpt lat="41.8257633" lon="-4.4934867"><ele>2237</ele><speed>36</speed><time>2016-06-29T14:04:27Z</time><course>160</course><type>1</type></trkpt>
      <trkpt lat="41.8256716" lon="-4.4934617"><ele>2239</ele><speed>34</speed><time>2016-06-29T14:04:28Z</time><course>171</course><type>1</type></trkpt>
      <trkpt lat="41.8255016" lon="-4.49348"><ele>2243</ele><speed>30</speed><time>2016-06-29T14:04:30Z</time><course>191</course><type>1</type></trkpt>
      <trkpt lat="41.82537" lon="-4.4935467"><ele>2246</ele><speed>26</speed><time>2016-06-29T14:04:32Z</time><course>201</course><type>1</type></trkpt>
      <trkpt lat="41.8253216" lon="-4.4936034"><ele>2248</ele><speed>23</speed><time>2016-06-29T14:04:33Z</time><course>216</course><type>1</type></trkpt>
      <trkpt lat="41.8252866" lon="-4.49366"><ele>2249</ele><speed>20</speed><time>2016-06-29T14:04:34Z</time><course>221</course><type>1</type></trkpt>
      <trkpt lat="41.8252283" lon="-4.4938601"><ele>2255</ele><speed>20</speed><time>2016-06-29T14:04:37Z</time><course>243</course><type>1</type></trkpt>
      <trkpt lat="41.8252066" lon="-4.4939501"><ele>2265</ele><speed>19</speed><time>2016-06-29T14:04:38Z</time><course>258</course><type>1</type></trkpt>
      <trkpt lat="41.825225" lon="-4.4941284"><ele>2283</ele><speed>28</speed><time>2016-06-29T14:04:40Z</time><course>297</course><type>1</type></trkpt>
      <trkpt lat="41.8252916" lon="-4.49414"><ele>2293</ele><speed>38</speed><time>2016-06-29T14:04:42Z</time><course>335</course><type>1</type></trkpt>
      <trkpt lat="41.8253533" lon="-4.4941434"><ele>2300</ele><speed>39</speed><time>2016-06-29T14:04:43Z</time><course>347</course><type>1</type></trkpt>
      <trkpt lat="41.8254399" lon="-4.49416"><ele>2306</ele><speed>38</speed><time>2016-06-29T14:04:44Z</time><course>351</course><type>1</type></trkpt>
      <trkpt lat="41.8255733" lon="-4.4941217"><ele>2319</ele><speed>33</speed><time>2016-06-29T14:04:46Z</time><course>3</course><type>1</type></trkpt>
      <trkpt lat="41.8256283" lon="-4.4941034"><ele>2329</ele><speed>32</speed><time>2016-06-29T14:04:47Z</time><course>4</course><type>1</type></trkpt>
      <trkpt lat="41.825695" lon="-4.494105"><ele>2332</ele><speed>28</speed><time>2016-06-29T14:04:48Z</time><course>359</course><type>1</type></trkpt>
      <trkpt lat="41.8258633" lon="-4.4940834"><ele>2341</ele><speed>36</speed><time>2016-06-29T14:04:50Z</time><course>8</course><type>1</type></trkpt>
      <trkpt lat="41.82599" lon="-4.49398"><ele>2351</ele><speed>32</speed><time>2016-06-29T14:04:52Z</time><course>25</course><type>1</type></trkpt>
      <trkpt lat="41.826075" lon="-4.49392"><ele>2350</ele><speed>35</speed><time>2016-06-29T14:04:53Z</time><course>29</course><type>1</type></trkpt>
      <trkpt lat="41.8262033" lon="-4.4937167"><ele>2357</ele><speed>41</speed><time>2016-06-29T14:04:55Z</time><course>40</course><type>1</type></trkpt>
      <trkpt lat="41.8262816" lon="-4.493585"><ele>2357</ele><speed>46</speed><time>2016-06-29T14:04:56Z</time><course>40</course><type>1</type></trkpt>
      <trkpt lat="41.82639" lon="-4.493345"><ele>2366</ele><speed>44</speed><time>2016-06-29T14:04:58Z</time><course>54</course><type>1</type></trkpt>
      <trkpt lat="41.8263883" lon="-4.4932284"><ele>2373</ele><speed>38</speed><time>2016-06-29T14:04:59Z</time><course>68</course><type>1</type></trkpt>
      <trkpt lat="41.8263983" lon="-4.4930934"><ele>2378</ele><speed>44</speed><time>2016-06-29T14:05:00Z</time><course>76</course><type>1</type></trkpt>
      <trkpt lat="41.8264116" lon="-4.4927667"><ele>2386</ele><speed>58</speed><time>2016-06-29T14:05:02Z</time><course>82</course><type>1</type></trkpt>
      <trkpt lat="41.826405" lon="-4.492575"><ele>2390</ele><speed>59</speed><time>2016-06-29T14:05:03Z</time><course>88</course><type>1</type></trkpt>
      <trkpt lat="41.8263483" lon="-4.4922234"><ele>2402</ele><speed>50</speed><time>2016-06-29T14:05:05Z</time><course>96</course><type>1</type></trkpt>
      <trkpt lat="41.8263183" lon="-4.4920701"><ele>2408</ele><speed>44</speed><time>2016-06-29T14:05:06Z</time><course>98</course><type>1</type></trkpt>
      <trkpt lat="41.82626" lon="-4.4918017"><ele>2413</ele><speed>45</speed><time>2016-06-29T14:05:08Z</time><course>109</course><type>1</type></trkpt>
      <trkpt lat="41.8262066" lon="-4.4916484"><ele>2416</ele><speed>55</speed><time>2016-06-29T14:05:09Z</time><course>114</course><type>1</type></trkpt>
      <trkpt lat="41.826035" lon="-4.4913817"><ele>2427</ele><speed>47</speed><time>2016-06-29T14:05:11Z</time><course>127</course><type>1</type></trkpt>
      <trkpt lat="41.82585" lon="-4.4912067"><ele>2439</ele><speed>40</speed><time>2016-06-29T14:05:13Z</time><course>137</course><type>1</type></trkpt>
      <trkpt lat="41.82577" lon="-4.4911184"><ele>2442</ele><speed>41</speed><time>2016-06-29T14:05:14Z</time><course>137</course><type>1</type></trkpt>
      <trkpt lat="41.82561" lon="-4.4909017"><ele>2443</ele><speed>43</speed><time>2016-06-29T14:05:16Z</time><course>148</course><type>1</type></trkpt>
      <trkpt lat="41.8254" lon="-4.49079"><ele>2448</ele><speed>43</speed><time>2016-06-29T14:05:18Z</time><course>167</course><type>1</type></trkpt>
      <trkpt lat="41.825225" lon="-4.490755"><ele>2451</ele><speed>31</speed><time>2016-06-29T14:05:20Z</time><course>176</course><type>1</type></trkpt>
      <trkpt lat="41.8251516" lon="-4.49074"><ele>2452</ele><speed>30</speed><time>2016-06-29T14:05:21Z</time><course>179</course><type>1</type></trkpt>
      <trkpt lat="41.824995" lon="-4.4907884"><ele>2462</ele><speed>29</speed><time>2016-06-29T14:05:23Z</time><course>204</course><type>1</type></trkpt>
      <trkpt lat="41.8249366" lon="-4.4908384"><ele>2465</ele><speed>25</speed><time>2016-06-29T14:05:24Z</time><course>221</course><type>1</type></trkpt>
      <trkpt lat="41.8248933" lon="-4.4909467"><ele>2468</ele><speed>14</speed><time>2016-06-29T14:05:26Z</time><course>254</course><type>1</type></trkpt>
      <trkpt lat="41.8248716" lon="-4.491035"><ele>2477</ele><speed>14</speed><time>2016-06-29T14:05:28Z</time><course>274</course><type>1</type></trkpt>
      <trkpt lat="41.8248733" lon="-4.4911334"><ele>2498</ele><speed>18</speed><time>2016-06-29T14:05:31Z</time><course>319</course><type>1</type></trkpt>
      <trkpt lat="41.8250349" lon="-4.4911417"><ele>2518</ele><speed>35</speed><time>2016-06-29T14:05:34Z</time><course>3</course><type>1</type></trkpt>
      <trkpt lat="41.8251116" lon="-4.4911317"><ele>2522</ele><speed>32</speed><time>2016-06-29T14:05:35Z</time><course>6</course><type>1</type></trkpt>
      <trkpt lat="41.8252333" lon="-4.4910667"><ele>2534</ele><speed>34</speed><time>2016-06-29T14:05:37Z</time><course>26</course><type>1</type></trkpt>
      <trkpt lat="41.8253083" lon="-4.4909767"><ele>2534</ele><speed>39</speed><time>2016-06-29T14:05:38Z</time><course>41</course><type>1</type></trkpt>
      <trkpt lat="41.8253883" lon="-4.49088"><ele>2536</ele><speed>44</speed><time>2016-06-29T14:05:39Z</time><course>34</course><type>1</type></trkpt>
      <trkpt lat="41.82547" lon="-4.4907834"><ele>2538</ele><speed>46</speed><time>2016-06-29T14:05:40Z</time><course>38</course><type>1</type></trkpt>
      <trkpt lat="41.825605" lon="-4.4905817"><ele>2545</ele><speed>43</speed><time>2016-06-29T14:05:42Z</time><course>38</course><type>1</type></trkpt>
      <trkpt lat="41.8257516" lon="-4.4903717"><ele>2547</ele><speed>43</speed><time>2016-06-29T14:05:44Z</time><course>42</course><type>1</type></trkpt>
      <trkpt lat="41.8258833" lon="-4.4901467"><ele>2552</ele><speed>46</speed><time>2016-06-29T14:05:46Z</time><course>49</course><type>1</type></trkpt>
      <trkpt lat="41.82595" lon="-4.4900017"><ele>2554</ele><speed>48</speed><time>2016-06-29T14:05:47Z</time><course>52</course><type>1</type></trkpt>
      <trkpt lat="41.8260133" lon="-4.489855"><ele>2556</ele><speed>49</speed><time>2016-06-29T14:05:48Z</time><course>55</course><type>1</type></trkpt>
      <trkpt lat="41.8261433" lon="-4.4895184"><ele>2562</ele><speed>56</speed><time>2016-06-29T14:05:50Z</time><course>68</course><type>1</type></trkpt>
      <trkpt lat="41.8261666" lon="-4.4893367"><ele>2567</ele><speed>58</speed><time>2016-06-29T14:05:51Z</time><course>73</course><type>1</type></trkpt>
      <trkpt lat="41.8261683" lon="-4.4890034"><ele>2580</ele><speed>55</speed><time>2016-06-29T14:05:53Z</time><course>97</course><type>1</type></trkpt>
      <trkpt lat="41.8261216" lon="-4.4888184"><ele>2586</ele><speed>54</speed><time>2016-06-29T14:05:54Z</time><course>102</course><type>1</type></trkpt>
      <trkpt lat="41.826085" lon="-4.4884617"><ele>2595</ele><speed>53</speed><time>2016-06-29T14:05:56Z</time><course>95</course><type>1</type></trkpt>
      <trkpt lat="41.8260633" lon="-4.4882917"><ele>2600</ele><speed>50</speed><time>2016-06-29T14:05:57Z</time><course>93</course><type>1</type></trkpt>
      <trkpt lat="41.826035" lon="-4.48814"><ele>2603</ele><speed>46</speed><time>2016-06-29T14:05:58Z</time><course>105</course><type>1</type></trkpt>
      <trkpt lat="41.8259216" lon="-4.4878834"><ele>2607</ele><speed>51</speed><time>2016-06-29T14:06:00Z</time><course>132</course><type>1</type></trkpt>
      <trkpt lat="41.8257366" lon="-4.4876817"><ele>2613</ele><speed>43</speed><time>2016-06-29T14:06:02Z</time><course>139</course><type>1</type></trkpt>
      <trkpt lat="41.8255816" lon="-4.4875084"><ele>2617</ele><speed>40</speed><time>2016-06-29T14:06:04Z</time><course>135</course><type>1</type></trkpt>
      <trkpt lat="41.82551" lon="-4.4874084"><ele>2619</ele><speed>42</speed><time>2016-06-29T14:06:05Z</time><course>134</course><type>1</type></trkpt>
      <trkpt lat="41.825355" lon="-4.48721"><ele>2623</ele><speed>43</speed><time>2016-06-29T14:06:07Z</time><course>140</course><type>1</type></trkpt>
      <trkpt lat="41.8251833" lon="-4.4870617"><ele>2628</ele><speed>39</speed><time>2016-06-29T14:06:09Z</time><course>151</course><type>1</type></trkpt>
      <trkpt lat="41.8250983" lon="-4.4870367"><ele>2627</ele><speed>33</speed><time>2016-06-29T14:06:10Z</time><course>169</course><type>1</type></trkpt>
      <trkpt lat="41.8250266" lon="-4.4870284"><ele>2628</ele><speed>27</speed><time>2016-06-29T14:06:11Z</time><course>182</course><type>1</type></trkpt>
      <trkpt lat="41.8248933" lon="-4.4870517"><ele>2630</ele><speed>28</speed><time>2016-06-29T14:06:13Z</time><course>195</course><type>1</type></trkpt>
      <trkpt lat="41.824805" lon="-4.4871184"><ele>2633</ele><speed>21</speed><time>2016-06-29T14:06:15Z</time><course>222</course><type>1</type></trkpt>
      <trkpt lat="41.8247433" lon="-4.4872367"><ele>2643</ele><speed>21</speed><time>2016-06-29T14:06:17Z</time><course>251</course><type>1</type></trkpt>
      <trkpt lat="41.8247533" lon="-4.4873"><ele>2647</ele><speed>21</speed><time>2016-06-29T14:06:18Z</time><course>272</course><type>1</type></trkpt>
      <trkpt lat="41.8248099" lon="-4.4873467"><ele>2649</ele><speed>25</speed><time>2016-06-29T14:06:19Z</time><course>306</course><type>1</type></trkpt>
      <trkpt lat="41.824965" lon="-4.4873767"><ele>2654</ele><speed>30</speed><time>2016-06-29T14:06:21Z</time><course>345</course><type>1</type></trkpt>
      <trkpt lat="41.8250416" lon="-4.4873817"><ele>2656</ele><speed>30</speed><time>2016-06-29T14:06:22Z</time><course>351</course><type>1</type></trkpt>
      <trkpt lat="41.8251933" lon="-4.4873734"><ele>2660</ele><speed>32</speed><time>2016-06-29T14:06:24Z</time><course>6</course><type>1</type></trkpt>
      <trkpt lat="41.8253633" lon="-4.4873384"><ele>2664</ele><speed>35</speed><time>2016-06-29T14:06:26Z</time><course>9</course><type>1</type></trkpt>
      <trkpt lat="41.8254483" lon="-4.48731"><ele>2666</ele><speed>36</speed><time>2016-06-29T14:06:27Z</time><course>14</course><type>1</type></trkpt>
      <trkpt lat="41.8256333" lon="-4.4871784"><ele>2670</ele><speed>48</speed><time>2016-06-29T14:06:29Z</time><course>33</course><type>1</type></trkpt>
      <trkpt lat="41.8258183" lon="-4.4869617"><ele>2675</ele><speed>49</speed><time>2016-06-29T14:06:31Z</time><course>40</course><type>1</type></trkpt>
      <trkpt lat="41.8259916" lon="-4.4867467"><ele>2681</ele><speed>50</speed><time>2016-06-29T14:06:33Z</time><course>44</course><type>1</type></trkpt>
      <trkpt lat="41.826065" lon="-4.4866084"><ele>2683</ele><speed>51</speed><time>2016-06-29T14:06:34Z</time><course>54</course><type>1</type></trkpt>
      <trkpt lat="41.8261816" lon="-4.486245"><ele>2688</ele><speed>63</speed><time>2016-06-29T14:06:36Z</time><course>64</course><type>1</type></trkpt>
      <trkpt lat="41.8262216" lon="-4.4860567"><ele>2691</ele><speed>59</speed><time>2016-06-29T14:06:37Z</time><course>65</course><type>1</type></trkpt>
      <trkpt lat="41.82626" lon="-4.4858767"><ele>2693</ele><speed>55</speed><time>2016-06-29T14:06:38Z</time><course>69</course><type>1</type></trkpt>
      <trkpt lat="41.8263033" lon="-4.4855434"><ele>2698</ele><speed>50</speed><time>2016-06-29T14:06:40Z</time><course>77</course><type>1</type></trkpt>
      <trkpt lat="41.826325" lon="-4.485195"><ele>2702</ele><speed>55</speed><time>2016-06-29T14:06:42Z</time><course>82</course><type>1</type></trkpt>
      <trkpt lat="41.8263033" lon="-4.4848217"><ele>2708</ele><speed>55</speed><time>2016-06-29T14:06:44Z</time><course>92</course><type>1</type></trkpt>
      <trkpt lat="41.8262616" lon="-4.4844684"><ele>2713</ele><speed>54</speed><time>2016-06-29T14:06:46Z</time><course>96</course><type>1</type></trkpt>
      <trkpt lat="41.8262383" lon="-4.4842917"><ele>2715</ele><speed>56</speed><time>2016-06-29T14:06:47Z</time><course>98</course><type>1</type></trkpt>
      <trkpt lat="41.82613" lon="-4.48398"><ele>2720</ele><speed>47</speed><time>2016-06-29T14:06:49Z</time><course>124</course><type>1</type></trkpt>
      <trkpt lat="41.82597" lon="-4.483745"><ele>2727</ele><speed>46</speed><time>2016-06-29T14:06:51Z</time><course>130</course><type>1</type></trkpt>
      <trkpt lat="41.8257933" lon="-4.48353"><ele>2733</ele><speed>46</speed><time>2016-06-29T14:06:53Z</time><course>138</course><type>1</type></trkpt>
      <trkpt lat="41.8255916" lon="-4.4833817"><ele>2739</ele><speed>40</speed><time>2016-06-29T14:06:55Z</time><course>157</course><type>1</type></trkpt>
      <trkpt lat="41.8254983" lon="-4.4833267"><ele>2742</ele><speed>36</speed><time>2016-06-29T14:06:56Z</time><course>157</course><type>1</type></trkpt>
      <trkpt lat="41.8254133" lon="-4.483285"><ele>2744</ele><speed>35</speed><time>2016-06-29T14:06:57Z</time><course>157</course><type>1</type></trkpt>
      <trkpt lat="41.8252333" lon="-4.4832217"><ele>2751</ele><speed>33</speed><time>2016-06-29T14:06:59Z</time><course>186</course><type>1</type></trkpt>
      <trkpt lat="41.8250633" lon="-4.4832634"><ele>2758</ele><speed>25</speed><time>2016-06-29T14:07:01Z</time><course>212</course><type>1</type></trkpt>
      <trkpt lat="41.8250133" lon="-4.48331"><ele>2761</ele><speed>21</speed><time>2016-06-29T14:07:02Z</time><course>224</course><type>1</type></trkpt>
      <trkpt lat="41.8249866" lon="-4.483365"><ele>2763</ele><speed>16</speed><time>2016-06-29T14:07:03Z</time><course>249</course><type>1</type></trkpt>
      <trkpt lat="41.8249816" lon="-4.483485"><ele>2769</ele><speed>21</speed><time>2016-06-29T14:07:05Z</time><course>282</course><type>1</type></trkpt>
      <trkpt lat="41.82506" lon="-4.4836"><ele>2775</ele><speed>28</speed><time>2016-06-29T14:07:07Z</time><course>323</course><type>1</type></trkpt>
      <trkpt lat="41.8251233" lon="-4.4836317"><ele>2778</ele><speed>29</speed><time>2016-06-29T14:07:08Z</time><course>349</course><type>1</type></trkpt>
      <trkpt lat="41.825275" lon="-4.4836267"><ele>2782</ele><speed>34</speed><time>2016-06-29T14:07:10Z</time><course>7</course><type>1</type></trkpt>
      <trkpt lat="41.82547" lon="-4.483575"><ele>2786</ele><speed>46</speed><time>2016-06-29T14:07:12Z</time><course>11</course><type>1</type></trkpt>
      <trkpt lat="41.8255616" lon="-4.4835184"><ele>2788</ele><speed>46</speed><time>2016-06-29T14:07:13Z</time><course>24</course><type>1</type></trkpt>
      <trkpt lat="41.8256416" lon="-4.483435"><ele>2791</ele><speed>47</speed><time>2016-06-29T14:07:14Z</time><course>34</course><type>1</type></trkpt>
      <trkpt lat="41.8257833" lon="-4.4832134"><ele>2793</ele><speed>45</speed><time>2016-06-29T14:07:16Z</time><course>51</course><type>1</type></trkpt>
      <trkpt lat="41.8258483" lon="-4.483095"><ele>2794</ele><speed>44</speed><time>2016-06-29T14:07:17Z</time><course>53</course><type>1</type></trkpt>
      <trkpt lat="41.8259866" lon="-4.4828467"><ele>2796</ele><speed>48</speed><time>2016-06-29T14:07:19Z</time><course>52</course><type>1</type></trkpt>
      <trkpt lat="41.8260566" lon="-4.4827117"><ele>2797</ele><speed>49</speed><time>2016-06-29T14:07:20Z</time><course>53</course><type>1</type></trkpt>
      <trkpt lat="41.8261166" lon="-4.4825667"><ele>2798</ele><speed>51</speed><time>2016-06-29T14:07:21Z</time><course>59</course><type>1</type></trkpt>
      <trkpt lat="41.82624" lon="-4.4822784"><ele>2801</ele><speed>51</speed><time>2016-06-29T14:07:23Z</time><course>60</course><type>1</type></trkpt>
      <trkpt lat="41.8263399" lon="-4.4819917"><ele>2803</ele><speed>50</speed><time>2016-06-29T14:07:25Z</time><course>65</course><type>1</type></trkpt>
      <trkpt lat="41.8264383" lon="-4.4816884"><ele>2806</ele><speed>50</speed><time>2016-06-29T14:07:27Z</time><course>67</course><type>1</type></trkpt>
      <trkpt lat="41.826485" lon="-4.4815334"><ele>2807</ele><speed>49</speed><time>2016-06-29T14:07:28Z</time><course>67</course><type>1</type></trkpt>
      <trkpt lat="41.8265233" lon="-4.4813784"><ele>2809</ele><speed>51</speed><time>2016-06-29T14:07:29Z</time><course>70</course><type>1</type></trkpt>
      <trkpt lat="41.82656" lon="-4.481215"><ele>2809</ele><speed>51</speed><time>2016-06-29T14:07:30Z</time><course>73</course><type>1</type></trkpt>
      <trkpt lat="41.826595" lon="-4.4810484"><ele>2811</ele><speed>53</speed><time>2016-06-29T14:07:31Z</time><course>73</course><type>1</type></trkpt>
      <trkpt lat="41.82667" lon="-4.480705"><ele>2813</ele><speed>54</speed><time>2016-06-29T14:07:33Z</time><course>74</course><type>1</type></trkpt>
      <trkpt lat="41.8267033" lon="-4.480545"><ele>2814</ele><speed>49</speed><time>2016-06-29T14:07:34Z</time><course>74</course><type>1</type></trkpt>
      <trkpt lat="41.826765" lon="-4.48024"><ele>2817</ele><speed>47</speed><time>2016-06-29T14:07:36Z</time><course>80</course><type>1</type></trkpt>
      <trkpt lat="41.8267716" lon="-4.4799167"><ele>2819</ele><speed>52</speed><time>2016-06-29T14:07:38Z</time><course>93</course><type>1</type></trkpt>
      <trkpt lat="41.8267233" lon="-4.479595"><ele>2823</ele><speed>47</speed><time>2016-06-29T14:07:40Z</time><course>106</course><type>1</type></trkpt>
      <trkpt lat="41.8266833" lon="-4.4794534"><ele>2824</ele><speed>44</speed><time>2016-06-29T14:07:41Z</time><course>112</course><type>1</type></trkpt>
      <trkpt lat="41.82659" lon="-4.479205"><ele>2827</ele><speed>38</speed><time>2016-06-29T14:07:43Z</time><course>116</course><type>1</type></trkpt>
      <trkpt lat="41.8265383" lon="-4.479095"><ele>2829</ele><speed>36</speed><time>2016-06-29T14:07:44Z</time><course>121</course><type>1</type></trkpt>
      <trkpt lat="41.8264" lon="-4.4788884"><ele>2831</ele><speed>41</speed><time>2016-06-29T14:07:46Z</time><course>137</course><type>1</type></trkpt>
      <trkpt lat="41.8263166" lon="-4.4788067"><ele>2832</ele><speed>41</speed><time>2016-06-29T14:07:47Z</time><course>147</course><type>1</type></trkpt>
      <trkpt lat="41.8261416" lon="-4.4787584"><ele>2834</ele><speed>31</speed><time>2016-06-29T14:07:49Z</time><course>178</course><type>1</type></trkpt>
      <trkpt lat="41.8260633" lon="-4.4787817"><ele>2835</ele><speed>30</speed><time>2016-06-29T14:07:50Z</time><course>197</course><type>1</type></trkpt>
      <trkpt lat="41.82599" lon="-4.4789267"><ele>2838</ele><speed>24</speed><time>2016-06-29T14:07:52Z</time><course>255</course><type>1</type></trkpt>
      <trkpt lat="41.8260183" lon="-4.479065"><ele>2841</ele><speed>21</speed><time>2016-06-29T14:07:54Z</time><course>307</course><type>1</type></trkpt>
      <trkpt lat="41.82605" lon="-4.4791184"><ele>2842</ele><speed>19</speed><time>2016-06-29T14:07:55Z</time><course>314</course><type>1</type></trkpt>
      <trkpt lat="41.8260883" lon="-4.4791667"><ele>2843</ele><speed>21</speed><time>2016-06-29T14:07:56Z</time><course>318</course><type>1</type></trkpt>
      <trkpt lat="41.8261916" lon="-4.4792634"><ele>2846</ele><speed>26</speed><time>2016-06-29T14:07:58Z</time><course>335</course><type>1</type></trkpt>
      <trkpt lat="41.82639" lon="-4.479235"><ele>2847</ele><speed>39</speed><time>2016-06-29T14:08:00Z</time><course>16</course><type>1</type></trkpt>
      <trkpt lat="41.8264933" lon="-4.47919"><ele>2849</ele><speed>42</speed><time>2016-06-29T14:08:01Z</time><course>19</course><type>1</type></trkpt>
      <trkpt lat="41.8267016" lon="-4.47907"><ele>2851</ele><speed>43</speed><time>2016-06-29T14:08:03Z</time><course>22</course><type>1</type></trkpt>
      <trkpt lat="41.82689" lon="-4.4788867"><ele>2853</ele><speed>48</speed><time>2016-06-29T14:08:05Z</time><course>36</course><type>1</type></trkpt>
      <trkpt lat="41.826985" lon="-4.47878"><ele>2855</ele><speed>48</speed><time>2016-06-29T14:08:06Z</time><course>38</course><type>1</type></trkpt>
      <trkpt lat="41.8271666" lon="-4.4785667"><ele>2857</ele><speed>46</speed><time>2016-06-29T14:08:08Z</time><course>41</course><type>1</type></trkpt>
      <trkpt lat="41.8273433" lon="-4.4783251"><ele>2859</ele><speed>50</speed><time>2016-06-29T14:08:10Z</time><course>46</course><type>1</type></trkpt>
      <trkpt lat="41.8274366" lon="-4.4781867"><ele>2859</ele><speed>55</speed><time>2016-06-29T14:08:11Z</time><course>55</course><type>1</type></trkpt>
      <trkpt lat="41.8275383" lon="-4.4778467"><ele>2860</ele><speed>55</speed><time>2016-06-29T14:08:13Z</time><course>71</course><type>1</type></trkpt>
      <trkpt lat="41.8276083" lon="-4.477495"><ele>2862</ele><speed>50</speed><time>2016-06-29T14:08:15Z</time><course>79</course><type>1</type></trkpt>
      <trkpt lat="41.8276283" lon="-4.4771684"><ele>2865</ele><speed>48</speed><time>2016-06-29T14:08:17Z</time><course>90</course><type>1</type></trkpt>
      <trkpt lat="41.82763" lon="-4.477015"><ele>2866</ele><speed>46</speed><time>2016-06-29T14:08:18Z</time><course>93</course><type>1</type></trkpt>
      <trkpt lat="41.8275883" lon="-4.4767567"><ele>2868</ele><speed>39</speed><time>2016-06-29T14:08:20Z</time><course>108</course><type>1</type></trkpt>
      <trkpt lat="41.8274999" lon="-4.4765184"><ele>2870</ele><speed>41</speed><time>2016-06-29T14:08:22Z</time><course>121</course><type>1</type></trkpt>
      <trkpt lat="41.827375" lon="-4.47634"><ele>2873</ele><speed>36</speed><time>2016-06-29T14:08:24Z</time><course>140</course><type>1</type></trkpt>
      <trkpt lat="41.8273033" lon="-4.4762734"><ele>2874</ele><speed>33</speed><time>2016-06-29T14:08:25Z</time><course>146</course><type>1</type></trkpt>
      <trkpt lat="41.8271416" lon="-4.4762317"><ele>2878</ele><speed>30</speed><time>2016-06-29T14:08:27Z</time><course>176</course><type>1</type></trkpt>
      <trkpt lat="41.8270233" lon="-4.4762517"><ele>2881</ele><speed>18</speed><time>2016-06-29T14:08:29Z</time><course>233</course><type>1</type></trkpt>
      <trkpt lat="41.8270316" lon="-4.476365"><ele>2882</ele><speed>24</speed><time>2016-06-29T14:08:31Z</time><course>305</course><type>1</type></trkpt>
      <trkpt lat="41.8270733" lon="-4.4764234"><ele>2883</ele><speed>27</speed><time>2016-06-29T14:08:32Z</time><course>316</course><type>1</type></trkpt>
      <trkpt lat="41.827215" lon="-4.476485"><ele>2886</ele><speed>33</speed><time>2016-06-29T14:08:34Z</time><course>346</course><type>1</type></trkpt>
      <trkpt lat="41.8273016" lon="-4.4765017"><ele>2888</ele><speed>36</speed><time>2016-06-29T14:08:35Z</time><course>353</course><type>1</type></trkpt>
      <trkpt lat="41.8273933" lon="-4.4764901"><ele>2890</ele><speed>38</speed><time>2016-06-29T14:08:36Z</time><course>11</course><type>1</type></trkpt>
      <trkpt lat="41.8274833" lon="-4.4764451"><ele>2893</ele><speed>40</speed><time>2016-06-29T14:08:37Z</time><course>26</course><type>1</type></trkpt>
      <trkpt lat="41.8275766" lon="-4.4763734"><ele>2894</ele><speed>43</speed><time>2016-06-29T14:08:38Z</time><course>32</course><type>1</type></trkpt>
      <trkpt lat="41.8277433" lon="-4.4761917"><ele>2897</ele><speed>41</speed><time>2016-06-29T14:08:40Z</time><course>40</course><type>1</type></trkpt>
      <trkpt lat="41.8278316" lon="-4.476105"><ele>2898</ele><speed>42</speed><time>2016-06-29T14:08:41Z</time><course>37</course><type>1</type></trkpt>
      <trkpt lat="41.82805" lon="-4.4759167"><ele>2899</ele><speed>53</speed><time>2016-06-29T14:08:43Z</time><course>35</course><type>1</type></trkpt>
      <trkpt lat="41.82815" lon="-4.475795"><ele>2901</ele><speed>57</speed><time>2016-06-29T14:08:44Z</time><course>45</course><type>1</type></trkpt>
      <trkpt lat="41.8282816" lon="-4.475435"><ele>2902</ele><speed>62</speed><time>2016-06-29T14:08:46Z</time><course>69</course><type>1</type></trkpt>
      <trkpt lat="41.8283866" lon="-4.475035"><ele>2903</ele><speed>63</speed><time>2016-06-29T14:08:48Z</time><course>67</course><type>1</type></trkpt>
      <trkpt lat="41.828485" lon="-4.474685"><ele>2906</ele><speed>53</speed><time>2016-06-29T14:08:50Z</time><course>76</course><type>1</type></trkpt>
      <trkpt lat="41.8284716" lon="-4.4743217"><ele>2908</ele><speed>53</speed><time>2016-06-29T14:08:52Z</time><course>99</course><type>1</type></trkpt>
      <trkpt lat="41.8284616" lon="-4.4739817"><ele>2910</ele><speed>47</speed><time>2016-06-29T14:08:54Z</time><course>89</course><type>1</type></trkpt>
      <trkpt lat="41.82848" lon="-4.4738067"><ele>2911</ele><speed>52</speed><time>2016-06-29T14:08:55Z</time><course>80</course><type>1</type></trkpt>
      <trkpt lat="41.8284983" lon="-4.4736284"><ele>2912</ele><speed>52</speed><time>2016-06-29T14:08:56Z</time><course>83</course><type>1</type></trkpt>
      <trkpt lat="41.8284833" lon="-4.4732967"><ele>2913</ele><speed>46</speed><time>2016-06-29T14:08:58Z</time><course>102</course><type>1</type></trkpt>
      <trkpt lat="41.8283866" lon="-4.4730134"><ele>2913</ele><speed>50</speed><time>2016-06-29T14:09:00Z</time><course>119</course><type>1</type></trkpt>
      <trkpt lat="41.8282816" lon="-4.4727084"><ele>2913</ele><speed>52</speed><time>2016-06-29T14:09:02Z</time><course>110</course><type>1</type></trkpt>
      <trkpt lat="41.828225" lon="-4.4723767"><ele>2913</ele><speed>48</speed><time>2016-06-29T14:09:04Z</time><course>102</course><type>1</type></trkpt>
      <trkpt lat="41.8281883" lon="-4.472215"><ele>2912</ele><speed>51</speed><time>2016-06-29T14:09:05Z</time><course>106</course><type>1</type></trkpt>
      <trkpt lat="41.8281483" lon="-4.4720817"><ele>2911</ele><speed>44</speed><time>2016-06-29T14:09:06Z</time><course>114</course><type>1</type></trkpt>
      <trkpt lat="41.82806" lon="-4.4718484"><ele>2910</ele><speed>35</speed><time>2016-06-29T14:09:08Z</time><course>119</course><type>1</type></trkpt>
      <trkpt lat="41.8279783" lon="-4.47162"><ele>2909</ele><speed>38</speed><time>2016-06-29T14:09:10Z</time><course>114</course><type>1</type></trkpt>
      <trkpt lat="41.827935" lon="-4.4714984"><ele>2908</ele><speed>41</speed><time>2016-06-29T14:09:11Z</time><course>116</course><type>1</type></trkpt>
      <trkpt lat="41.827885" lon="-4.4713717"><ele>2907</ele><speed>42</speed><time>2016-06-29T14:09:12Z</time><course>121</course><type>1</type></trkpt>
      <trkpt lat="41.8277533" lon="-4.471185"><ele>2905</ele><speed>35</speed><time>2016-06-29T14:09:14Z</time><course>139</course><type>1</type></trkpt>
      <trkpt lat="41.82763" lon="-4.4710017"><ele>2904</ele><speed>37</speed><time>2016-06-29T14:09:16Z</time><course>127</course><type>1</type></trkpt>
      <trkpt lat="41.8275733" lon="-4.4708917"><ele>2903</ele><speed>41</speed><time>2016-06-29T14:09:17Z</time><course>124</course><type>1</type></trkpt>
      <trkpt lat="41.8274366" lon="-4.47065"><ele>2901</ele><speed>43</speed><time>2016-06-29T14:09:19Z</time><course>132</course><type>1</type></trkpt>
      <trkpt lat="41.8273666" lon="-4.4705517"><ele>2900</ele><speed>39</speed><time>2016-06-29T14:09:20Z</time><course>135</course><type>1</type></trkpt>
      <trkpt lat="41.8272916" lon="-4.4704817"><ele>2900</ele><speed>34</speed><time>2016-06-29T14:09:21Z</time><course>147</course><type>1</type></trkpt>
      <trkpt lat="41.8271533" lon="-4.470405"><ele>2898</ele><speed>26</speed><time>2016-06-29T14:09:23Z</time><course>162</course><type>1</type></trkpt>
      <trkpt lat="41.8270916" lon="-4.470385"><ele>2897</ele><speed>21</speed><time>2016-06-29T14:09:24Z</time><course>175</course><type>1</type></trkpt>
      <trkpt lat="41.8270499" lon="-4.4704001"><ele>2896</ele><speed>15</speed><time>2016-06-29T14:09:25Z</time><course>219</course><type>1</type></trkpt>
      <trkpt lat="41.8270433" lon="-4.4704484"><ele>2895</ele><speed>18</speed><time>2016-06-29T14:09:26Z</time><course>282</course><type>1</type></trkpt>
      <trkpt lat="41.8271483" lon="-4.470555"><ele>2894</ele><speed>33</speed><time>2016-06-29T14:09:28Z</time><course>335</course><type>1</type></trkpt>
      <trkpt lat="41.82724" lon="-4.47057"><ele>2894</ele><speed>38</speed><time>2016-06-29T14:09:29Z</time><course>359</course><type>1</type></trkpt>
      <trkpt lat="41.8274583" lon="-4.47051"><ele>2889</ele><speed>44</speed><time>2016-06-29T14:09:31Z</time><course>13</course><type>1</type></trkpt>
      <trkpt lat="41.8277" lon="-4.47043"><ele>2885</ele><speed>50</speed><time>2016-06-29T14:09:33Z</time><course>12</course><type>1</type></trkpt>
      <trkpt lat="41.8279633" lon="-4.4702167"><ele>2882</ele><speed>62</speed><time>2016-06-29T14:09:35Z</time><course>41</course><type>1</type></trkpt>
      <trkpt lat="41.8281333" lon="-4.4698867"><ele>2879</ele><speed>59</speed><time>2016-06-29T14:09:37Z</time><course>56</course><type>1</type></trkpt>
      <trkpt lat="41.8282083" lon="-4.4697284"><ele>2878</ele><speed>55</speed><time>2016-06-29T14:09:38Z</time><course>54</course><type>1</type></trkpt>
      <trkpt lat="41.8283766" lon="-4.46941"><ele>2875</ele><speed>61</speed><time>2016-06-29T14:09:40Z</time><course>54</course><type>1</type></trkpt>
      <trkpt lat="41.82847" lon="-4.4692334"><ele>2874</ele><speed>64</speed><time>2016-06-29T14:09:41Z</time><course>55</course><type>1</type></trkpt>
      <trkpt lat="41.8285866" lon="-4.4688734"><ele>2872</ele><speed>58</speed><time>2016-06-29T14:09:43Z</time><course>66</course><type>1</type></trkpt>
      <trkpt lat="41.8287266" lon="-4.4685467"><ele>2871</ele><speed>54</speed><time>2016-06-29T14:09:45Z</time><course>63</course><type>1</type></trkpt>
      <trkpt lat="41.8288766" lon="-4.4682084"><ele>2869</ele><speed>59</speed><time>2016-06-29T14:09:47Z</time><course>59</course><type>1</type></trkpt>
      <trkpt lat="41.82895" lon="-4.4680434"><ele>2869</ele><speed>54</speed><time>2016-06-29T14:09:48Z</time><course>60</course><type>1</type></trkpt>
      <trkpt lat="41.8290983" lon="-4.46773"><ele>2867</ele><speed>54</speed><time>2016-06-29T14:09:50Z</time><course>61</course><type>1</type></trkpt>
      <trkpt lat="41.8291666" lon="-4.4675567"><ele>2866</ele><speed>54</speed><time>2016-06-29T14:09:51Z</time><course>64</course><type>1</type></trkpt>
      <trkpt lat="41.8292983" lon="-4.467195"><ele>2864</ele><speed>55</speed><time>2016-06-29T14:09:53Z</time><course>64</course><type>1</type></trkpt>
      <trkpt lat="41.8293616" lon="-4.4670317"><ele>2863</ele><speed>53</speed><time>2016-06-29T14:09:54Z</time><course>60</course><type>1</type></trkpt>
      <trkpt lat="41.82951" lon="-4.466735"><ele>2861</ele><speed>50</speed><time>2016-06-29T14:09:56Z</time><course>59</course><type>1</type></trkpt>
      <trkpt lat="41.8295716" lon="-4.4665817"><ele>2860</ele><speed>52</speed><time>2016-06-29T14:09:57Z</time><course>64</course><type>1</type></trkpt>
      <trkpt lat="41.8296916" lon="-4.46625"><ele>2857</ele><speed>51</speed><time>2016-06-29T14:09:59Z</time><course>64</course><type>1</type></trkpt>
      <trkpt lat="41.8297549" lon="-4.4660917"><ele>2855</ele><speed>51</speed><time>2016-06-29T14:10:00Z</time><course>62</course><type>1</type></trkpt>
      <trkpt lat="41.8298716" lon="-4.4658084"><ele>2852</ele><speed>47</speed><time>2016-06-29T14:10:02Z</time><course>63</course><type>1</type></trkpt>
      <trkpt lat="41.8299266" lon="-4.465655"><ele>2851</ele><speed>47</speed><time>2016-06-29T14:10:03Z</time><course>65</course><type>1</type></trkpt>
      <trkpt lat="41.83004" lon="-4.4653217"><ele>2847</ele><speed>51</speed><time>2016-06-29T14:10:05Z</time><course>67</course><type>1</type></trkpt>
      <trkpt lat="41.830095" lon="-4.46517"><ele>2846</ele><speed>47</speed><time>2016-06-29T14:10:06Z</time><course>63</course><type>1</type></trkpt>
      <trkpt lat="41.8302049" lon="-4.464885"><ele>2843</ele><speed>48</speed><time>2016-06-29T14:10:08Z</time><course>62</course><type>1</type></trkpt>
      <trkpt lat="41.8303033" lon="-4.4645684"><ele>2840</ele><speed>52</speed><time>2016-06-29T14:10:10Z</time><course>70</course><type>1</type></trkpt>
      <trkpt lat="41.8303966" lon="-4.4642634"><ele>2838</ele><speed>46</speed><time>2016-06-29T14:10:12Z</time><course>65</course><type>1</type></trkpt>
      <trkpt lat="41.8304683" lon="-4.4641434"><ele>2837</ele><speed>45</speed><time>2016-06-29T14:10:13Z</time><course>50</course><type>1</type></trkpt>
      <trkpt lat="41.83055" lon="-4.4640184"><ele>2836</ele><speed>48</speed><time>2016-06-29T14:10:14Z</time><course>49</course><type>1</type></trkpt>
      <trkpt lat="41.8307166" lon="-4.4637717"><ele>2833</ele><speed>50</speed><time>2016-06-29T14:10:16Z</time><course>47</course><type>1</type></trkpt>
      <trkpt lat="41.8308916" lon="-4.4635767"><ele>2833</ele><speed>43</speed><time>2016-06-29T14:10:18Z</time><course>34</course><type>1</type></trkpt>
      <trkpt lat="41.83105" lon="-4.4634234"><ele>2832</ele><speed>46</speed><time>2016-06-29T14:10:20Z</time><course>39</course><type>1</type></trkpt>
      <trkpt lat="41.83121" lon="-4.46319"><ele>2832</ele><speed>47</speed><time>2016-06-29T14:10:22Z</time><course>51</course><type>1</type></trkpt>
      <trkpt lat="41.8312916" lon="-4.46307"><ele>2831</ele><speed>48</speed><time>2016-06-29T14:10:23Z</time><course>49</course><type>1</type></trkpt>
      <trkpt lat="41.8314716" lon="-4.46282"><ele>2829</ele><speed>50</speed><time>2016-06-29T14:10:25Z</time><course>48</course><type>1</type></trkpt>
      <trkpt lat="41.8316466" lon="-4.4625067"><ele>2829</ele><speed>57</speed><time>2016-06-29T14:10:27Z</time><course>57</course><type>1</type></trkpt>
      <trkpt lat="41.8317966" lon="-4.46219"><ele>2828</ele><speed>55</speed><time>2016-06-29T14:10:29Z</time><course>57</course><type>1</type></trkpt>
      <trkpt lat="41.8319416" lon="-4.4618984"><ele>2828</ele><speed>51</speed><time>2016-06-29T14:10:31Z</time><course>55</course><type>1</type></trkpt>
      <trkpt lat="41.8320833" lon="-4.4616084"><ele>2827</ele><speed>53</speed><time>2016-06-29T14:10:33Z</time><course>57</course><type>1</type></trkpt>
      <trkpt lat="41.8321816" lon="-4.46132"><ele>2826</ele><speed>50</speed><time>2016-06-29T14:10:35Z</time><course>61</course><type>1</type></trkpt>
      <trkpt lat="41.8322183" lon="-4.4611801"><ele>2826</ele><speed>49</speed><time>2016-06-29T14:10:36Z</time><course>64</course><type>1</type></trkpt>
      <trkpt lat="41.83224" lon="-4.4610417"><ele>2825</ele><speed>49</speed><time>2016-06-29T14:10:37Z</time><course>68</course><type>1</type></trkpt>
      <trkpt lat="41.832325" lon="-4.4606934"><ele>2823</ele><speed>51</speed><time>2016-06-29T14:10:39Z</time><course>72</course><type>1</type></trkpt>
      <trkpt lat="41.83237" lon="-4.4605117"><ele>2821</ele><speed>56</speed><time>2016-06-29T14:10:40Z</time><course>75</course><type>1</type></trkpt>
      <trkpt lat="41.8324266" lon="-4.4601634"><ele>2819</ele><speed>52</speed><time>2016-06-29T14:10:42Z</time><course>80</course><type>1</type></trkpt>
      <trkpt lat="41.8324516" lon="-4.4599867"><ele>2818</ele><speed>53</speed><time>2016-06-29T14:10:43Z</time><course>79</course><type>1</type></trkpt>
      <trkpt lat="41.8324833" lon="-4.4598084"><ele>2816</ele><speed>54</speed><time>2016-06-29T14:10:44Z</time><course>76</course><type>1</type></trkpt>
      <trkpt lat="41.8325516" lon="-4.4594717"><ele>2812</ele><speed>49</speed><time>2016-06-29T14:10:46Z</time><course>72</course><type>1</type></trkpt>
      <trkpt lat="41.8325833" lon="-4.45932"><ele>2809</ele><speed>44</speed><time>2016-06-29T14:10:47Z</time><course>73</course><type>1</type></trkpt>
      <trkpt lat="41.8326216" lon="-4.4590284"><ele>2804</ele><speed>43</speed><time>2016-06-29T14:10:49Z</time><course>81</course><type>1</type></trkpt>
      <trkpt lat="41.8326383" lon="-4.4588784"><ele>2802</ele><speed>46</speed><time>2016-06-29T14:10:50Z</time><course>81</course><type>1</type></trkpt>
      <trkpt lat="41.8326883" lon="-4.45857"><ele>2798</ele><speed>49</speed><time>2016-06-29T14:10:52Z</time><course>78</course><type>1</type></trkpt>
      <trkpt lat="41.8327283" lon="-4.4582634"><ele>2793</ele><speed>42</speed><time>2016-06-29T14:10:54Z</time><course>83</course><type>1</type></trkpt>
      <trkpt lat="41.832735" lon="-4.458115"><ele>2792</ele><speed>42</speed><time>2016-06-29T14:10:55Z</time><course>86</course><type>1</type></trkpt>
      <trkpt lat="41.8327483" lon="-4.4579634"><ele>2790</ele><speed>45</speed><time>2016-06-29T14:10:56Z</time><course>81</course><type>1</type></trkpt>
      <trkpt lat="41.8327633" lon="-4.457815"><ele>2788</ele><speed>43</speed><time>2016-06-29T14:10:57Z</time><course>81</course><type>1</type></trkpt>
      <trkpt lat="41.8327966" lon="-4.4576451"><ele>2786</ele><speed>53</speed><time>2016-06-29T14:10:58Z</time><course>74</course><type>1</type></trkpt>
      <trkpt lat="41.8328783" lon="-4.4572851"><ele>2782</ele><speed>61</speed><time>2016-06-29T14:11:00Z</time><course>77</course><type>1</type></trkpt>
      <trkpt lat="41.8329116" lon="-4.4570734"><ele>2779</ele><speed>65</speed><time>2016-06-29T14:11:01Z</time><course>80</course><type>1</type></trkpt>
      <trkpt lat="41.8329366" lon="-4.4568467"><ele>2777</ele><speed>71</speed><time>2016-06-29T14:11:02Z</time><course>84</course><type>1</type></trkpt>
      <trkpt lat="41.8329633" lon="-4.4563934"><ele>2773</ele><speed>56</speed><time>2016-06-29T14:11:04Z</time><course>90</course><type>1</type></trkpt>
      <trkpt lat="41.8329616" lon="-4.4562134"><ele>2772</ele><speed>48</speed><time>2016-06-29T14:11:05Z</time><course>90</course><type>1</type></trkpt>
      <trkpt lat="41.8329566" lon="-4.456045"><ele>2771</ele><speed>51</speed><time>2016-06-29T14:11:06Z</time><course>94</course><type>1</type></trkpt>
      <trkpt lat="41.8329366" lon="-4.4556884"><ele>2771</ele><speed>61</speed><time>2016-06-29T14:11:08Z</time><course>94</course><type>1</type></trkpt>
      <trkpt lat="41.8329283" lon="-4.45549"><ele>2770</ele><speed>54</speed><time>2016-06-29T14:11:09Z</time><course>92</course><type>1</type></trkpt>
      <trkpt lat="41.83293" lon="-4.45512"><ele>2770</ele><speed>58</speed><time>2016-06-29T14:11:11Z</time><course>89</course><type>1</type></trkpt>
      <trkpt lat="41.8329283" lon="-4.4549317"><ele>2770</ele><speed>54</speed><time>2016-06-29T14:11:12Z</time><course>91</course><type>1</type></trkpt>
      <trkpt lat="41.8328983" lon="-4.4545767"><ele>2769</ele><speed>53</speed><time>2016-06-29T14:11:14Z</time><course>99</course><type>1</type></trkpt>
      <trkpt lat="41.8328266" lon="-4.4541967"><ele>2769</ele><speed>58</speed><time>2016-06-29T14:11:16Z</time><course>104</course><type>1</type></trkpt>
      <trkpt lat="41.8327666" lon="-4.453835"><ele>2770</ele><speed>49</speed><time>2016-06-29T14:11:18Z</time><course>99</course><type>1</type></trkpt>
      <trkpt lat="41.83275" lon="-4.453675"><ele>2770</ele><speed>46</speed><time>2016-06-29T14:11:19Z</time><course>97</course><type>1</type></trkpt>
      <trkpt lat="41.8327183" lon="-4.4533217"><ele>2769</ele><speed>58</speed><time>2016-06-29T14:11:21Z</time><course>97</course><type>1</type></trkpt>
      <trkpt lat="41.83267" lon="-4.4529134"><ele>2768</ele><speed>66</speed><time>2016-06-29T14:11:23Z</time><course>100</course><type>1</type></trkpt>
      <trkpt lat="41.8326433" lon="-4.4527067"><ele>2768</ele><speed>62</speed><time>2016-06-29T14:11:24Z</time><course>98</course><type>1</type></trkpt>
      <trkpt lat="41.8326266" lon="-4.4525234"><ele>2768</ele><speed>53</speed><time>2016-06-29T14:11:25Z</time><course>96</course><type>1</type></trkpt>
      <trkpt lat="41.8326166" lon="-4.45236"><ele>2769</ele><speed>47</speed><time>2016-06-29T14:11:26Z</time><course>93</course><type>1</type></trkpt>
      <trkpt lat="41.83261" lon="-4.4520584"><ele>2771</ele><speed>46</speed><time>2016-06-29T14:11:28Z</time><course>93</course><type>1</type></trkpt>
      <trkpt lat="41.8326" lon="-4.4519034"><ele>2772</ele><speed>46</speed><time>2016-06-29T14:11:29Z</time><course>96</course><type>1</type></trkpt>
      <trkpt lat="41.832555" lon="-4.4516134"><ele>2773</ele><speed>42</speed><time>2016-06-29T14:11:31Z</time><course>105</course><type>1</type></trkpt>
      <trkpt lat="41.8325233" lon="-4.45147"><ele>2773</ele><speed>45</speed><time>2016-06-29T14:11:32Z</time><course>106</course><type>1</type></trkpt>
      <trkpt lat="41.832445" lon="-4.4511367"><ele>2773</ele><speed>53</speed><time>2016-06-29T14:11:34Z</time><course>112</course><type>1</type></trkpt>
      <trkpt lat="41.8323933" lon="-4.45096"><ele>2775</ele><speed>57</speed><time>2016-06-29T14:11:35Z</time><course>115</course><type>1</type></trkpt>
      <trkpt lat="41.8322733" lon="-4.4506417"><ele>2777</ele><speed>52</speed><time>2016-06-29T14:11:37Z</time><course>121</course><type>1</type></trkpt>
      <trkpt lat="41.8321383" lon="-4.4503717"><ele>2780</ele><speed>45</speed><time>2016-06-29T14:11:39Z</time><course>126</course><type>1</type></trkpt>
      <trkpt lat="41.8319783" lon="-4.4501184"><ele>2783</ele><speed>45</speed><time>2016-06-29T14:11:41Z</time><course>131</course><type>1</type></trkpt>
      <trkpt lat="41.8317983" lon="-4.44986"><ele>2786</ele><speed>50</speed><time>2016-06-29T14:11:43Z</time><course>134</course><type>1</type></trkpt>
      <trkpt lat="41.8317116" lon="-4.44975"><ele>2788</ele><speed>45</speed><time>2016-06-29T14:11:44Z</time><course>137</course><type>1</type></trkpt>
      <trkpt lat="41.8316283" lon="-4.4496534"><ele>2790</ele><speed>42</speed><time>2016-06-29T14:11:45Z</time><course>139</course><type>1</type></trkpt>
      <trkpt lat="41.8314533" lon="-4.44949"><ele>2792</ele><speed>43</speed><time>2016-06-29T14:11:47Z</time><course>149</course><type>1</type></trkpt>
      <trkpt lat="41.8312433" lon="-4.4493767"><ele>2795</ele><speed>46</speed><time>2016-06-29T14:11:49Z</time><course>163</course><type>1</type></trkpt>
      <trkpt lat="41.8311366" lon="-4.4493434"><ele>2796</ele><speed>42</speed><time>2016-06-29T14:11:50Z</time><course>168</course><type>1</type></trkpt>
      <trkpt lat="41.830955" lon="-4.4493434"><ele>2798</ele><speed>35</speed><time>2016-06-29T14:11:52Z</time><course>182</course><type>1</type></trkpt>
      <trkpt lat="41.83081" lon="-4.4493567"><ele>2801</ele><speed>23</speed><time>2016-06-29T14:11:54Z</time><course>193</course><type>1</type></trkpt>
      <trkpt lat="41.8307366" lon="-4.4493684"><ele>2802</ele><speed>27</speed><time>2016-06-29T14:11:55Z</time><course>189</course><type>1</type></trkpt>
      <trkpt lat="41.8305683" lon="-4.449375"><ele>2804</ele><speed>32</speed><time>2016-06-29T14:11:57Z</time><course>187</course><type>1</type></trkpt>
      <trkpt lat="41.8304016" lon="-4.4494017"><ele>2806</ele><speed>29</speed><time>2016-06-29T14:11:59Z</time><course>211</course><type>1</type></trkpt>
      <trkpt lat="41.8303466" lon="-4.4494567"><ele>2807</ele><speed>27</speed><time>2016-06-29T14:12:00Z</time><course>234</course><type>1</type></trkpt>
      <trkpt lat="41.8303283" lon="-4.4496117"><ele>2808</ele><speed>24</speed><time>2016-06-29T14:12:02Z</time><course>283</course><type>1</type></trkpt>
      <trkpt lat="41.8303516" lon="-4.4496834"><ele>2808</ele><speed>24</speed><time>2016-06-29T14:12:03Z</time><course>293</course><type>1</type></trkpt>
      <trkpt lat="41.8304133" lon="-4.4498017"><ele>2810</ele><speed>21</speed><time>2016-06-29T14:12:05Z</time><course>319</course><type>1</type></trkpt>
      <trkpt lat="41.8305133" lon="-4.44988"><ele>2810</ele><speed>25</speed><time>2016-06-29T14:12:07Z</time><course>334</course><type>1</type></trkpt>
      <trkpt lat="41.83057" lon="-4.4499034"><ele>2810</ele><speed>22</speed><time>2016-06-29T14:12:08Z</time><course>342</course><type>1</type></trkpt>
      <trkpt lat="41.8306716" lon="-4.4498917"><ele>2810</ele><speed>21</speed><time>2016-06-29T14:12:10Z</time><course>16</course><type>1</type></trkpt>
      <trkpt lat="41.8307433" lon="-4.4498517"><ele>2810</ele><speed>29</speed><time>2016-06-29T14:12:11Z</time><course>25</course><type>1</type></trkpt>
      <trkpt lat="41.8309583" lon="-4.4496984"><ele>2810</ele><speed>49</speed><time>2016-06-29T14:12:13Z</time><course>33</course><type>1</type></trkpt>
      <trkpt lat="41.8310333" lon="-4.4495934"><ele>2810</ele><speed>44</speed><time>2016-06-29T14:12:14Z</time><course>45</course><type>1</type></trkpt>
      <trkpt lat="41.8311683" lon="-4.4493717"><ele>2811</ele><speed>42</speed><time>2016-06-29T14:12:16Z</time><course>51</course><type>1</type></trkpt>
      <trkpt lat="41.8312316" lon="-4.4492534"><ele>2811</ele><speed>43</speed><time>2016-06-29T14:12:17Z</time><course>55</course><type>1</type></trkpt>
      <trkpt lat="41.8313749" lon="-4.4490067"><ele>2810</ele><speed>46</speed><time>2016-06-29T14:12:19Z</time><course>50</course><type>1</type></trkpt>
      <trkpt lat="41.83145" lon="-4.4488767"><ele>2810</ele><speed>50</speed><time>2016-06-29T14:12:20Z</time><course>52</course><type>1</type></trkpt>
      <trkpt lat="41.8315933" lon="-4.4485384"><ele>2809</ele><speed>61</speed><time>2016-06-29T14:12:22Z</time><course>64</course><type>1</type></trkpt>
      <trkpt lat="41.8316416" lon="-4.4483284"><ele>2808</ele><speed>66</speed><time>2016-06-29T14:12:23Z</time><course>73</course><type>1</type></trkpt>
      <trkpt lat="41.8316683" lon="-4.44787"><ele>2807</ele><speed>66</speed><time>2016-06-29T14:12:25Z</time><course>84</course><type>1</type></trkpt>
      <trkpt lat="41.8316783" lon="-4.4474934"><ele>2807</ele><speed>47</speed><time>2016-06-29T14:12:27Z</time><course>89</course><type>1</type></trkpt>
      <trkpt lat="41.831705" lon="-4.447155"><ele>2806</ele><speed>54</speed><time>2016-06-29T14:12:29Z</time><course>80</course><type>1</type></trkpt>
      <trkpt lat="41.8317233" lon="-4.44696"><ele>2805</ele><speed>59</speed><time>2016-06-29T14:12:30Z</time><course>83</course><type>1</type></trkpt>
      <trkpt lat="41.83171" lon="-4.4465367"><ele>2803</ele><speed>63</speed><time>2016-06-29T14:12:32Z</time><course>99</course><type>1</type></trkpt>
      <trkpt lat="41.8316633" lon="-4.4461284"><ele>2801</ele><speed>61</speed><time>2016-06-29T14:12:34Z</time><course>93</course><type>1</type></trkpt>
      <trkpt lat="41.8316733" lon="-4.4457034"><ele>2799</ele><speed>66</speed><time>2016-06-29T14:12:36Z</time><course>87</course><type>1</type></trkpt>
      <trkpt lat="41.8316766" lon="-4.4454767"><ele>2799</ele><speed>66</speed><time>2016-06-29T14:12:37Z</time><course>90</course><type>1</type></trkpt>
      <trkpt lat="41.8316783" lon="-4.445265"><ele>2799</ele><speed>62</speed><time>2016-06-29T14:12:38Z</time><course>90</course><type>1</type></trkpt>
      <trkpt lat="41.83168" lon="-4.444875"><ele>2800</ele><speed>55</speed><time>2016-06-29T14:12:40Z</time><course>90</course><type>1</type></trkpt>
      <trkpt lat="41.8316916" lon="-4.444685"><ele>2801</ele><speed>56</speed><time>2016-06-29T14:12:41Z</time><course>87</course><type>1</type></trkpt>
      <trkpt lat="41.8316783" lon="-4.4442684"><ele>2802</ele><speed>57</speed><time>2016-06-29T14:12:43Z</time><course>97</course><type>1</type></trkpt>
      <trkpt lat="41.8316583" lon="-4.4440684"><ele>2803</ele><speed>58</speed><time>2016-06-29T14:12:44Z</time><course>98</course><type>1</type></trkpt>
      <trkpt lat="41.8316433" lon="-4.4438667"><ele>2803</ele><speed>57</speed><time>2016-06-29T14:12:45Z</time><course>96</course><type>1</type></trkpt>
      <trkpt lat="41.8315916" lon="-4.4434501"><ele>2805</ele><speed>63</speed><time>2016-06-29T14:12:47Z</time><course>105</course><type>1</type></trkpt>
      <trkpt lat="41.831545" lon="-4.44325"><ele>2806</ele><speed>63</speed><time>2016-06-29T14:12:48Z</time><course>109</course><type>1</type></trkpt>
      <trkpt lat="41.8314916" lon="-4.44305"><ele>2807</ele><speed>64</speed><time>2016-06-29T14:12:49Z</time><course>109</course><type>1</type></trkpt>
      <trkpt lat="41.8313966" lon="-4.4426484"><ele>2810</ele><speed>65</speed><time>2016-06-29T14:12:51Z</time><course>108</course><type>1</type></trkpt>
      <trkpt lat="41.8313483" lon="-4.4424567"><ele>2812</ele><speed>59</speed><time>2016-06-29T14:12:52Z</time><course>111</course><type>1</type></trkpt>
      <trkpt lat="41.831235" lon="-4.4420917"><ele>2816</ele><speed>60</speed><time>2016-06-29T14:12:54Z</time><course>116</course><type>1</type></trkpt>
      <trkpt lat="41.831085" lon="-4.4417434"><ele>2820</ele><speed>57</speed><time>2016-06-29T14:12:56Z</time><course>126</course><type>1</type></trkpt>
      <trkpt lat="41.8309016" lon="-4.4414567"><ele>2822</ele><speed>55</speed><time>2016-06-29T14:12:58Z</time><course>132</course><type>1</type></trkpt>
      <trkpt lat="41.830805" lon="-4.44132"><ele>2822</ele><speed>55</speed><time>2016-06-29T14:12:59Z</time><course>135</course><type>1</type></trkpt>
      <trkpt lat="41.8305883" lon="-4.441065"><ele>2824</ele><speed>59</speed><time>2016-06-29T14:13:01Z</time><course>140</course><type>1</type></trkpt>
      <trkpt lat="41.83038" lon="-4.44086"><ele>2826</ele><speed>48</speed><time>2016-06-29T14:13:03Z</time><course>144</course><type>1</type></trkpt>
      <trkpt lat="41.8302033" lon="-4.4407067"><ele>2829</ele><speed>40</speed><time>2016-06-29T14:13:05Z</time><course>147</course><type>1</type></trkpt>
      <trkpt lat="41.8299683" lon="-4.440605"><ele>2833</ele><speed>23</speed><time>2016-06-29T14:13:08Z</time><course>187</course><type>1</type></trkpt>
      <trkpt lat="41.8299433" lon="-4.44064"><ele>2837</ele><speed>13</speed><time>2016-06-29T14:13:10Z</time><course>310</course><type>1</type></trkpt>
      <trkpt lat="41.83005" lon="-4.4405917"><ele>2841</ele><speed>29</speed><time>2016-06-29T14:13:12Z</time><course>25</course><type>1</type></trkpt>
      <trkpt lat="41.8301166" lon="-4.4405434"><ele>2843</ele><speed>30</speed><time>2016-06-29T14:13:13Z</time><course>28</course><type>1</type></trkpt>
      <trkpt lat="41.8302566" lon="-4.440425"><ele>2843</ele><speed>31</speed><time>2016-06-29T14:13:15Z</time><course>32</course><type>1</type></trkpt>
      <trkpt lat="41.8303249" lon="-4.4403567"><ele>2845</ele><speed>33</speed><time>2016-06-29T14:13:16Z</time><course>33</course><type>1</type></trkpt>
      <trkpt lat="41.8304466" lon="-4.4400967"><ele>2849</ele><speed>51</speed><time>2016-06-29T14:13:18Z</time><course>56</course><type>1</type></trkpt>
      <trkpt lat="41.83056" lon="-4.43977"><ele>2852</ele><speed>55</speed><time>2016-06-29T14:13:20Z</time><course>60</course><type>1</type></trkpt>
      <trkpt lat="41.8306233" lon="-4.4396067"><ele>2854</ele><speed>55</speed><time>2016-06-29T14:13:21Z</time><course>62</course><type>1</type></trkpt>
      <trkpt lat="41.8307333" lon="-4.4392767"><ele>2857</ele><speed>57</speed><time>2016-06-29T14:13:23Z</time><course>70</course><type>1</type></trkpt>
      <trkpt lat="41.8307683" lon="-4.4390884"><ele>2858</ele><speed>56</speed><time>2016-06-29T14:13:24Z</time><course>77</course><type>1</type></trkpt>
      <trkpt lat="41.8307783" lon="-4.438675"><ele>2860</ele><speed>64</speed><time>2016-06-29T14:13:26Z</time><course>95</course><type>1</type></trkpt>
      <trkpt lat="41.83071" lon="-4.4382634"><ele>2861</ele><speed>64</speed><time>2016-06-29T14:13:28Z</time><course>108</course><type>1</type></trkpt>
      <trkpt lat="41.8305666" lon="-4.437875"><ele>2862</ele><speed>64</speed><time>2016-06-29T14:13:30Z</time><course>121</course><type>1</type></trkpt>
      <trkpt lat="41.830485" lon="-4.4376917"><ele>2862</ele><speed>64</speed><time>2016-06-29T14:13:31Z</time><course>121</course><type>1</type></trkpt>
      <trkpt lat="41.8304" lon="-4.4375084"><ele>2863</ele><speed>67</speed><time>2016-06-29T14:13:32Z</time><course>122</course><type>1</type></trkpt>
      <trkpt lat="41.8302266" lon="-4.43717"><ele>2865</ele><speed>58</speed><time>2016-06-29T14:13:34Z</time><course>125</course><type>1</type></trkpt>
      <trkpt lat="41.8301416" lon="-4.4370184"><ele>2866</ele><speed>57</speed><time>2016-06-29T14:13:35Z</time><course>126</course><type>1</type></trkpt>
      <trkpt lat="41.8299816" lon="-4.436745"><ele>2867</ele><speed>50</speed><time>2016-06-29T14:13:37Z</time><course>131</course><type>1</type></trkpt>
      <trkpt lat="41.8297933" lon="-4.4365067"><ele>2868</ele><speed>52</speed><time>2016-06-29T14:13:39Z</time><course>139</course><type>1</type></trkpt>
      <trkpt lat="41.8296116" lon="-4.4363217"><ele>2870</ele><speed>40</speed><time>2016-06-29T14:13:41Z</time><course>138</course><type>1</type></trkpt>
      <trkpt lat="41.8295383" lon="-4.436225"><ele>2871</ele><speed>40</speed><time>2016-06-29T14:13:42Z</time><course>135</course><type>1</type></trkpt>
      <trkpt lat="41.829385" lon="-4.4360484"><ele>2873</ele><speed>38</speed><time>2016-06-29T14:13:44Z</time><course>143</course><type>1</type></trkpt>
      <trkpt lat="41.82922" lon="-4.4359167"><ele>2874</ele><speed>38</speed><time>2016-06-29T14:13:46Z</time><course>154</course><type>1</type></trkpt>
      <trkpt lat="41.8291533" lon="-4.4358867"><ele>2874</ele><speed>34</speed><time>2016-06-29T14:13:47Z</time><course>158</course><type>1</type></trkpt>
      <trkpt lat="41.8290416" lon="-4.4358267"><ele>2875</ele><speed>19</speed><time>2016-06-29T14:13:49Z</time><course>164</course><type>1</type></trkpt>
      <trkpt lat="41.8289916" lon="-4.43581"><ele>2876</ele><speed>19</speed><time>2016-06-29T14:13:50Z</time><course>171</course><type>1</type></trkpt>
      <trkpt lat="41.8288716" lon="-4.4358267"><ele>2876</ele><speed>24</speed><time>2016-06-29T14:13:52Z</time><course>193</course><type>1</type></trkpt>
      <trkpt lat="41.8288316" lon="-4.4358517"><ele>2877</ele><speed>16</speed><time>2016-06-29T14:13:53Z</time><course>206</course><type>1</type></trkpt>
      <trkpt lat="41.82881" lon="-4.4359234"><ele>2877</ele><speed>13</speed><time>2016-06-29T14:13:55Z</time><course>276</course><type>1</type></trkpt>
      <trkpt lat="41.8288333" lon="-4.4359667"><ele>2877</ele><speed>14</speed><time>2016-06-29T14:13:56Z</time><course>295</course><type>1</type></trkpt>
      <trkpt lat="41.8288816" lon="-4.4360484"><ele>2878</ele><speed>14</speed><time>2016-06-29T14:13:58Z</time><course>311</course><type>1</type></trkpt>
      <trkpt lat="41.8289133" lon="-4.4360817"><ele>2878</ele><speed>17</speed><time>2016-06-29T14:13:59Z</time><course>330</course><type>1</type></trkpt>
      <trkpt lat="41.8290316" lon="-4.4361217"><ele>2878</ele><speed>30</speed><time>2016-06-29T14:14:01Z</time><course>347</course><type>1</type></trkpt>
      <trkpt lat="41.8291133" lon="-4.4361267"><ele>2878</ele><speed>33</speed><time>2016-06-29T14:14:02Z</time><course>355</course><type>1</type></trkpt>
      <trkpt lat="41.8292833" lon="-4.4361117"><ele>2879</ele><speed>34</speed><time>2016-06-29T14:14:04Z</time><course>6</course><type>1</type></trkpt>
      <trkpt lat="41.8294633" lon="-4.43604"><ele>2879</ele><speed>38</speed><time>2016-06-29T14:14:06Z</time><course>16</course><type>1</type></trkpt>
      <trkpt lat="41.8295533" lon="-4.4359867"><ele>2880</ele><speed>39</speed><time>2016-06-29T14:14:07Z</time><course>20</course><type>1</type></trkpt>
      <trkpt lat="41.829735" lon="-4.4358117"><ele>2881</ele><speed>44</speed><time>2016-06-29T14:14:09Z</time><course>34</course><type>1</type></trkpt>
      <trkpt lat="41.8298233" lon="-4.435715"><ele>2882</ele><speed>46</speed><time>2016-06-29T14:14:10Z</time><course>39</course><type>1</type></trkpt>
      <trkpt lat="41.8299083" lon="-4.4356034"><ele>2883</ele><speed>47</speed><time>2016-06-29T14:14:11Z</time><course>43</course><type>1</type></trkpt>
      <trkpt lat="41.8300766" lon="-4.4353484"><ele>2885</ele><speed>51</speed><time>2016-06-29T14:14:13Z</time><course>50</course><type>1</type></trkpt>
      <trkpt lat="41.8301516" lon="-4.4351934"><ele>2886</ele><speed>56</speed><time>2016-06-29T14:14:14Z</time><course>58</course><type>1</type></trkpt>
      <trkpt lat="41.8302733" lon="-4.434835"><ele>2887</ele><speed>56</speed><time>2016-06-29T14:14:16Z</time><course>71</course><type>1</type></trkpt>
      <trkpt lat="41.8303016" lon="-4.4346367"><ele>2888</ele><speed>58</speed><time>2016-06-29T14:14:17Z</time><course>82</course><type>1</type></trkpt>
      <trkpt lat="41.8303116" lon="-4.434235"><ele>2890</ele><speed>61</speed><time>2016-06-29T14:14:19Z</time><course>91</course><type>1</type></trkpt>
      <trkpt lat="41.83029" lon="-4.4340367"><ele>2891</ele><speed>60</speed><time>2016-06-29T14:14:20Z</time><course>95</course><type>1</type></trkpt>
      <trkpt lat="41.8301566" lon="-4.433695"><ele>2893</ele><speed>58</speed><time>2016-06-29T14:14:22Z</time><course>114</course><type>1</type></trkpt>
      <trkpt lat="41.8299566" lon="-4.4335467"><ele>2895</ele><speed>40</speed><time>2016-06-29T14:14:24Z</time><course>147</course><type>1</type></trkpt>
      <trkpt lat="41.8298716" lon="-4.4335067"><ele>2895</ele><speed>35</speed><time>2016-06-29T14:14:25Z</time><course>163</course><type>1</type></trkpt>
      <trkpt lat="41.8297333" lon="-4.4334634"><ele>2897</ele><speed>25</speed><time>2016-06-29T14:14:27Z</time><course>180</course><type>1</type></trkpt>
      <trkpt lat="41.8296916" lon="-4.4334684"><ele>2897</ele><speed>17</speed><time>2016-06-29T14:14:28Z</time><course>199</course><type>1</type></trkpt>
      <trkpt lat="41.829645" lon="-4.4335084"><ele>2898</ele><speed>12</speed><time>2016-06-29T14:14:30Z</time><course>240</course><type>1</type></trkpt>
      <trkpt lat="41.8296766" lon="-4.4335884"><ele>2899</ele><speed>17</speed><time>2016-06-29T14:14:32Z</time><course>315</course><type>1</type></trkpt>
      <trkpt lat="41.8297516" lon="-4.43363"><ele>2901</ele><speed>19</speed><time>2016-06-29T14:14:34Z</time><course>336</course><type>1</type></trkpt>
      <trkpt lat="41.8299016" lon="-4.4336367"><ele>2903</ele><speed>28</speed><time>2016-06-29T14:14:36Z</time><course>352</course><type>1</type></trkpt>
      <trkpt lat="41.8300366" lon="-4.433635"><ele>2906</ele><speed>31</speed><time>2016-06-29T14:14:38Z</time><course>4</course><type>1</type></trkpt>
      <trkpt lat="41.8301783" lon="-4.4335834"><ele>2909</ele><speed>32</speed><time>2016-06-29T14:14:40Z</time><course>23</course><type>1</type></trkpt>
      <trkpt lat="41.830255" lon="-4.43353"><ele>2910</ele><speed>36</speed><time>2016-06-29T14:14:41Z</time><course>26</course><type>1</type></trkpt>
      <trkpt lat="41.8303333" lon="-4.4334667"><ele>2911</ele><speed>38</speed><time>2016-06-29T14:14:42Z</time><course>29</course><type>1</type></trkpt>
      <trkpt lat="41.830515" lon="-4.4333034"><ele>2914</ele><speed>47</speed><time>2016-06-29T14:14:44Z</time><course>32</course><type>1</type></trkpt>
      <trkpt lat="41.8306816" lon="-4.433095"><ele>2916</ele><speed>45</speed><time>2016-06-29T14:14:46Z</time><course>51</course><type>1</type></trkpt>
      <trkpt lat="41.8307483" lon="-4.4329734"><ele>2917</ele><speed>45</speed><time>2016-06-29T14:14:47Z</time><course>55</course><type>1</type></trkpt>
      <trkpt lat="41.830845" lon="-4.4327117"><ele>2918</ele><speed>45</speed><time>2016-06-29T14:14:49Z</time><course>67</course><type>1</type></trkpt>
      <trkpt lat="41.830895" lon="-4.4325684"><ele>2918</ele><speed>50</speed><time>2016-06-29T14:14:50Z</time><course>68</course><type>1</type></trkpt>
      <trkpt lat="41.8309916" lon="-4.4322534"><ele>2918</ele><speed>51</speed><time>2016-06-29T14:14:52Z</time><course>64</course><type>1</type></trkpt>
      <trkpt lat="41.8310466" lon="-4.4321017"><ele>2918</ele><speed>51</speed><time>2016-06-29T14:14:53Z</time><course>62</course><type>1</type></trkpt>
      <trkpt lat="41.8311033" lon="-4.4319584"><ele>2917</ele><speed>48</speed><time>2016-06-29T14:14:54Z</time><course>62</course><type>1</type></trkpt>
      <trkpt lat="41.8311883" lon="-4.4316467"><ele>2913</ele><speed>49</speed><time>2016-06-29T14:14:56Z</time><course>74</course><type>1</type></trkpt>
      <trkpt lat="41.8312016" lon="-4.4314567"><ele>2911</ele><speed>58</speed><time>2016-06-29T14:14:57Z</time><course>77</course><type>1</type></trkpt>
      <trkpt lat="41.8312116" lon="-4.4312534"><ele>2909</ele><speed>62</speed><time>2016-06-29T14:14:58Z</time><course>83</course><type>1</type></trkpt>
      <trkpt lat="41.8311949" lon="-4.4308334"><ele>2906</ele><speed>62</speed><time>2016-06-29T14:15:00Z</time><course>89</course><type>1</type></trkpt>
      <trkpt lat="41.8311666" lon="-4.4304317"><ele>2903</ele><speed>57</speed><time>2016-06-29T14:15:02Z</time><course>98</course><type>1</type></trkpt>
      <trkpt lat="41.8310683" lon="-4.4300584"><ele>2898</ele><speed>59</speed><time>2016-06-29T14:15:04Z</time><course>106</course><type>1</type></trkpt>
      <trkpt lat="41.8309583" lon="-4.429675"><ele>2895</ele><speed>61</speed><time>2016-06-29T14:15:06Z</time><course>112</course><type>1</type></trkpt>
      <trkpt lat="41.8308416" lon="-4.4293084"><ele>2894</ele><speed>57</speed><time>2016-06-29T14:15:08Z</time><course>111</course><type>1</type></trkpt>
      <trkpt lat="41.8308" lon="-4.4291184"><ele>2892</ele><speed>58</speed><time>2016-06-29T14:15:09Z</time><course>105</course><type>1</type></trkpt>
      <trkpt lat="41.83074" lon="-4.4287217"><ele>2888</ele><speed>63</speed><time>2016-06-29T14:15:11Z</time><course>99</course><type>1</type></trkpt>
      <trkpt lat="41.830715" lon="-4.4285067"><ele>2886</ele><speed>66</speed><time>2016-06-29T14:15:12Z</time><course>95</course><type>1</type></trkpt>
      <trkpt lat="41.8307016" lon="-4.4282884"><ele>2884</ele><speed>64</speed><time>2016-06-29T14:15:13Z</time><course>92</course><type>1</type></trkpt>
      <trkpt lat="41.83072" lon="-4.4278567"><ele>2880</ele><speed>65</speed><time>2016-06-29T14:15:15Z</time><course>83</course><type>1</type></trkpt>
      <trkpt lat="41.8307483" lon="-4.4274284"><ele>2878</ele><speed>62</speed><time>2016-06-29T14:15:17Z</time><course>89</course><type>1</type></trkpt>
      <trkpt lat="41.830735" lon="-4.4270251"><ele>2875</ele><speed>58</speed><time>2016-06-29T14:15:19Z</time><course>94</course><type>1</type></trkpt>
      <trkpt lat="41.8307266" lon="-4.4268334"><ele>2874</ele><speed>57</speed><time>2016-06-29T14:15:20Z</time><course>91</course><type>1</type></trkpt>
      <trkpt lat="41.8307433" lon="-4.4264534"><ele>2871</ele><speed>59</speed><time>2016-06-29T14:15:22Z</time><course>83</course><type>1</type></trkpt>
      <trkpt lat="41.8307733" lon="-4.4262534"><ele>2870</ele><speed>57</speed><time>2016-06-29T14:15:23Z</time><course>77</course><type>1</type></trkpt>
      <trkpt lat="41.83081" lon="-4.4260467"><ele>2868</ele><speed>63</speed><time>2016-06-29T14:15:24Z</time><course>76</course><type>1</type></trkpt>
      <trkpt lat="41.8309033" lon="-4.42566"><ele>2865</ele><speed>59</speed><time>2016-06-29T14:15:26Z</time><course>68</course><type>1</type></trkpt>
      <trkpt lat="41.8310116" lon="-4.4252417"><ele>2860</ele><speed>66</speed><time>2016-06-29T14:15:28Z</time><course>72</course><type>1</type></trkpt>
      <trkpt lat="41.8310833" lon="-4.4248484"><ele>2858</ele><speed>54</speed><time>2016-06-29T14:15:30Z</time><course>75</course><type>1</type></trkpt>
      <trkpt lat="41.8311683" lon="-4.424515"><ele>2856</ele><speed>52</speed><time>2016-06-29T14:15:32Z</time><course>71</course><type>1</type></trkpt>
      <trkpt lat="41.83125" lon="-4.4241417"><ele>2854</ele><speed>62</speed><time>2016-06-29T14:15:34Z</time><course>76</course><type>1</type></trkpt>
      <trkpt lat="41.8313483" lon="-4.4237534"><ele>2853</ele><speed>59</speed><time>2016-06-29T14:15:36Z</time><course>67</course><type>1</type></trkpt>
      <trkpt lat="41.8314733" lon="-4.4233884"><ele>2852</ele><speed>57</speed><time>2016-06-29T14:15:38Z</time><course>66</course><type>1</type></trkpt>
      <trkpt lat="41.8315716" lon="-4.42302"><ele>2850</ele><speed>57</speed><time>2016-06-29T14:15:40Z</time><course>72</course><type>1</type></trkpt>
      <trkpt lat="41.8316833" lon="-4.422615"><ele>2847</ele><speed>69</speed><time>2016-06-29T14:15:42Z</time><course>67</course><type>1</type></trkpt>
      <trkpt lat="41.8317566" lon="-4.4224"><ele>2846</ele><speed>69</speed><time>2016-06-29T14:15:43Z</time><course>65</course><type>1</type></trkpt>
      <trkpt lat="41.83189" lon="-4.4219984"><ele>2846</ele><speed>62</speed><time>2016-06-29T14:15:45Z</time><course>66</course><type>1</type></trkpt>
      <trkpt lat="41.8320183" lon="-4.421615"><ele>2844</ele><speed>62</speed><time>2016-06-29T14:15:47Z</time><course>64</course><type>1</type></trkpt>
      <trkpt lat="41.8320949" lon="-4.4214217"><ele>2843</ele><speed>66</speed><time>2016-06-29T14:15:48Z</time><course>61</course><type>1</type></trkpt>
      <trkpt lat="41.8321766" lon="-4.4212184"><ele>2842</ele><speed>69</speed><time>2016-06-29T14:15:49Z</time><course>61</course><type>1</type></trkpt>
      <trkpt lat="41.8322583" lon="-4.42101"><ele>2841</ele><speed>69</speed><time>2016-06-29T14:15:50Z</time><course>63</course><type>1</type></trkpt>
      <trkpt lat="41.8324016" lon="-4.4206017"><ele>2840</ele><speed>65</speed><time>2016-06-29T14:15:52Z</time><course>64</course><type>1</type></trkpt>
      <trkpt lat="41.83247" lon="-4.420405"><ele>2839</ele><speed>63</speed><time>2016-06-29T14:15:53Z</time><course>65</course><type>1</type></trkpt>
      <trkpt lat="41.832625" lon="-4.42001"><ele>2837</ele><speed>68</speed><time>2016-06-29T14:15:55Z</time><course>60</course><type>1</type></trkpt>
      <trkpt lat="41.8327166" lon="-4.419815"><ele>2836</ele><speed>69</speed><time>2016-06-29T14:15:56Z</time><course>57</course><type>1</type></trkpt>
      <trkpt lat="41.8328133" lon="-4.4196267"><ele>2836</ele><speed>67</speed><time>2016-06-29T14:15:57Z</time><course>55</course><type>1</type></trkpt>
      <trkpt lat="41.8330116" lon="-4.41927"><ele>2835</ele><speed>64</speed><time>2016-06-29T14:15:59Z</time><course>52</course><type>1</type></trkpt>
      <trkpt lat="41.8331116" lon="-4.4190984"><ele>2834</ele><speed>65</speed><time>2016-06-29T14:16:00Z</time><course>52</course><type>1</type></trkpt>
      <trkpt lat="41.833305" lon="-4.418745"><ele>2833</ele><speed>64</speed><time>2016-06-29T14:16:02Z</time><course>55</course><type>1</type></trkpt>
      <trkpt lat="41.8334816" lon="-4.4183917"><ele>2832</ele><speed>62</speed><time>2016-06-29T14:16:04Z</time><course>58</course><type>1</type></trkpt>
      <trkpt lat="41.83364" lon="-4.4180567"><ele>2830</ele><speed>57</speed><time>2016-06-29T14:16:06Z</time><course>57</course><type>1</type></trkpt>
      <trkpt lat="41.8338183" lon="-4.4177267"><ele>2828</ele><speed>62</speed><time>2016-06-29T14:16:08Z</time><course>53</course><type>1</type></trkpt>
      <trkpt lat="41.8340283" lon="-4.417385"><ele>2827</ele><speed>65</speed><time>2016-06-29T14:16:10Z</time><course>48</course><type>1</type></trkpt>
      <trkpt lat="41.8341766" lon="-4.4171017"><ele>2827</ele><speed>49</speed><time>2016-06-29T14:16:12Z</time><course>57</course><type>1</type></trkpt>
      <trkpt lat="41.83432" lon="-4.4168117"><ele>2826</ele><speed>53</speed><time>2016-06-29T14:16:14Z</time><course>57</course><type>1</type></trkpt>
      <trkpt lat="41.8345033" lon="-4.4165017"><ele>2826</ele><speed>61</speed><time>2016-06-29T14:16:16Z</time><course>49</course><type>1</type></trkpt>
      <trkpt lat="41.8347183" lon="-4.4162034"><ele>2826</ele><speed>57</speed><time>2016-06-29T14:16:18Z</time><course>44</course><type>1</type></trkpt>
      <trkpt lat="41.8349216" lon="-4.4159534"><ele>2827</ele><speed>52</speed><time>2016-06-29T14:16:20Z</time><course>42</course><type>1</type></trkpt>
      <trkpt lat="41.8350233" lon="-4.41583"><ele>2827</ele><speed>55</speed><time>2016-06-29T14:16:21Z</time><course>43</course><type>1</type></trkpt>
      <trkpt lat="41.8352466" lon="-4.41557"><ele>2827</ele><speed>62</speed><time>2016-06-29T14:16:23Z</time><course>37</course><type>1</type></trkpt>
      <trkpt lat="41.8353683" lon="-4.415445"><ele>2827</ele><speed>61</speed><time>2016-06-29T14:16:24Z</time><course>34</course><type>1</type></trkpt>
      <trkpt lat="41.835485" lon="-4.4153234"><ele>2827</ele><speed>58</speed><time>2016-06-29T14:16:25Z</time><course>37</course><type>1</type></trkpt>
      <trkpt lat="41.8356666" lon="-4.4150717"><ele>2828</ele><speed>49</speed><time>2016-06-29T14:16:27Z</time><course>48</course><type>1</type></trkpt>
      <trkpt lat="41.8357383" lon="-4.4149484"><ele>2828</ele><speed>45</speed><time>2016-06-29T14:16:28Z</time><course>52</course><type>1</type></trkpt>
      <trkpt lat="41.8359199" lon="-4.4147551"><ele>2829</ele><speed>44</speed><time>2016-06-29T14:16:30Z</time><course>31</course><type>1</type></trkpt>
      <trkpt lat="41.8360216" lon="-4.4146867"><ele>2830</ele><speed>44</speed><time>2016-06-29T14:16:31Z</time><course>25</course><type>1</type></trkpt>
      <trkpt lat="41.8361216" lon="-4.41461"><ele>2829</ele><speed>45</speed><time>2016-06-29T14:16:32Z</time><course>30</course><type>1</type></trkpt>
      <trkpt lat="41.8363166" lon="-4.4143734"><ele>2830</ele><speed>56</speed><time>2016-06-29T14:16:34Z</time><course>49</course><type>1</type></trkpt>
      <trkpt lat="41.8365066" lon="-4.414105"><ele>2830</ele><speed>56</speed><time>2016-06-29T14:16:36Z</time><course>45</course><type>1</type></trkpt>
      <trkpt lat="41.8366866" lon="-4.41386"><ele>2830</ele><speed>55</speed><time>2016-06-29T14:16:38Z</time><course>49</course><type>1</type></trkpt>
      <trkpt lat="41.8368566" lon="-4.4135934"><ele>2829</ele><speed>52</speed><time>2016-06-29T14:16:40Z</time><course>45</course><type>1</type></trkpt>
      <trkpt lat="41.83696" lon="-4.4134717"><ele>2829</ele><speed>55</speed><time>2016-06-29T14:16:41Z</time><course>38</course><type>1</type></trkpt>
      <trkpt lat="41.837165" lon="-4.4132667"><ele>2829</ele><speed>48</speed><time>2016-06-29T14:16:43Z</time><course>37</course><type>1</type></trkpt>
      <trkpt lat="41.8373383" lon="-4.4130384"><ele>2828</ele><speed>48</speed><time>2016-06-29T14:16:45Z</time><course>48</course><type>1</type></trkpt>
      <trkpt lat="41.8374316" lon="-4.412905"><ele>2827</ele><speed>47</speed><time>2016-06-29T14:16:46Z</time><course>47</course><type>1</type></trkpt>
      <trkpt lat="41.837635" lon="-4.41262"><ele>2825</ele><speed>61</speed><time>2016-06-29T14:16:48Z</time><course>45</course><type>1</type></trkpt>
      <trkpt lat="41.8378233" lon="-4.4123367"><ele>2825</ele><speed>52</speed><time>2016-06-29T14:16:50Z</time><course>48</course><type>1</type></trkpt>
      <trkpt lat="41.838" lon="-4.41209"><ele>2823</ele><speed>55</speed><time>2016-06-29T14:16:52Z</time><course>43</course><type>1</type></trkpt>
      <trkpt lat="41.8382183" lon="-4.41181"><ele>2821</ele><speed>63</speed><time>2016-06-29T14:16:54Z</time><course>45</course><type>1</type></trkpt>
      <trkpt lat="41.838425" lon="-4.4114967"><ele>2818</ele><speed>60</speed><time>2016-06-29T14:16:56Z</time><course>49</course><type>1</type></trkpt>
      <trkpt lat="41.8385999" lon="-4.4111917"><ele>2814</ele><speed>56</speed><time>2016-06-29T14:16:58Z</time><course>52</course><type>1</type></trkpt>
      <trkpt lat="41.8387733" lon="-4.4108717"><ele>2809</ele><speed>62</speed><time>2016-06-29T14:17:00Z</time><course>53</course><type>1</type></trkpt>
      <trkpt lat="41.8389466" lon="-4.4105234"><ele>2807</ele><speed>61</speed><time>2016-06-29T14:17:02Z</time><course>57</course><type>1</type></trkpt>
      <trkpt lat="41.8390266" lon="-4.4103484"><ele>2805</ele><speed>59</speed><time>2016-06-29T14:17:03Z</time><course>59</course><type>1</type></trkpt>
      <trkpt lat="41.83919" lon="-4.4099967"><ele>2801</ele><speed>63</speed><time>2016-06-29T14:17:05Z</time><course>56</course><type>1</type></trkpt>
      <trkpt lat="41.83936" lon="-4.4096417"><ele>2797</ele><speed>59</speed><time>2016-06-29T14:17:07Z</time><course>57</course><type>1</type></trkpt>
      <trkpt lat="41.839525" lon="-4.409325"><ele>2794</ele><speed>57</speed><time>2016-06-29T14:17:09Z</time><course>52</course><type>1</type></trkpt>
      <trkpt lat="41.8397066" lon="-4.4089967"><ele>2791</ele><speed>64</speed><time>2016-06-29T14:17:11Z</time><course>55</course><type>1</type></trkpt>
      <trkpt lat="41.8397916" lon="-4.4088134"><ele>2789</ele><speed>65</speed><time>2016-06-29T14:17:12Z</time><course>58</course><type>1</type></trkpt>
      <trkpt lat="41.8399383" lon="-4.4084567"><ele>2786</ele><speed>58</speed><time>2016-06-29T14:17:14Z</time><course>62</course><type>1</type></trkpt>
      <trkpt lat="41.8400883" lon="-4.408115"><ele>2783</ele><speed>58</speed><time>2016-06-29T14:17:16Z</time><course>57</course><type>1</type></trkpt>
      <trkpt lat="41.8401616" lon="-4.4079451"><ele>2781</ele><speed>59</speed><time>2016-06-29T14:17:17Z</time><course>60</course><type>1</type></trkpt>
      <trkpt lat="41.8403033" lon="-4.4075734"><ele>2779</ele><speed>58</speed><time>2016-06-29T14:17:19Z</time><course>65</course><type>1</type></trkpt>
      <trkpt lat="41.8403616" lon="-4.4073984"><ele>2779</ele><speed>58</speed><time>2016-06-29T14:17:20Z</time><course>64</course><type>1</type></trkpt>
      <trkpt lat="41.84047" lon="-4.4070917"><ele>2777</ele><speed>47</speed><time>2016-06-29T14:17:22Z</time><course>63</course><type>1</type></trkpt>
      <trkpt lat="41.8405283" lon="-4.4069384"><ele>2776</ele><speed>55</speed><time>2016-06-29T14:17:23Z</time><course>64</course><type>1</type></trkpt>
      <trkpt lat="41.84065" lon="-4.4065484"><ele>2775</ele><speed>68</speed><time>2016-06-29T14:17:25Z</time><course>68</course><type>1</type></trkpt>
      <trkpt lat="41.8407083" lon="-4.4063434"><ele>2774</ele><speed>64</speed><time>2016-06-29T14:17:26Z</time><course>68</course><type>1</type></trkpt>
      <trkpt lat="41.840785" lon="-4.40599"><ele>2774</ele><speed>48</speed><time>2016-06-29T14:17:28Z</time><course>76</course><type>1</type></trkpt>
      <trkpt lat="41.84081" lon="-4.4058334"><ele>2774</ele><speed>48</speed><time>2016-06-29T14:17:29Z</time><course>80</course><type>1</type></trkpt>
      <trkpt lat="41.8408766" lon="-4.40549"><ele>2773</ele><speed>57</speed><time>2016-06-29T14:17:31Z</time><course>70</course><type>1</type></trkpt>
      <trkpt lat="41.8409233" lon="-4.4053034"><ele>2772</ele><speed>60</speed><time>2016-06-29T14:17:32Z</time><course>68</course><type>1</type></trkpt>
      <trkpt lat="41.8410199" lon="-4.4049567"><ele>2771</ele><speed>49</speed><time>2016-06-29T14:17:34Z</time><course>71</course><type>1</type></trkpt>
      <trkpt lat="41.8410566" lon="-4.4047984"><ele>2771</ele><speed>47</speed><time>2016-06-29T14:17:35Z</time><course>77</course><type>1</type></trkpt>
      <trkpt lat="41.8411016" lon="-4.4044784"><ele>2769</ele><speed>50</speed><time>2016-06-29T14:17:37Z</time><course>80</course><type>1</type></trkpt>
      <trkpt lat="41.8411283" lon="-4.4043017"><ele>2767</ele><speed>55</speed><time>2016-06-29T14:17:38Z</time><course>75</course><type>1</type></trkpt>
      <trkpt lat="41.84122" lon="-4.4039284"><ele>2765</ele><speed>61</speed><time>2016-06-29T14:17:40Z</time><course>67</course><type>1</type></trkpt>
      <trkpt lat="41.84134" lon="-4.4035784"><ele>2763</ele><speed>55</speed><time>2016-06-29T14:17:42Z</time><course>63</course><type>1</type></trkpt>
      <trkpt lat="41.8414683" lon="-4.4032517"><ele>2761</ele><speed>56</speed><time>2016-06-29T14:17:44Z</time><course>61</course><type>1</type></trkpt>
      <trkpt lat="41.8416216" lon="-4.4029"><ele>2758</ele><speed>64</speed><time>2016-06-29T14:17:46Z</time><course>58</course><type>1</type></trkpt>
      <trkpt lat="41.841705" lon="-4.4027167"><ele>2757</ele><speed>63</speed><time>2016-06-29T14:17:47Z</time><course>58</course><type>1</type></trkpt>
      <trkpt lat="41.841845" lon="-4.4023784"><ele>2755</ele><speed>54</speed><time>2016-06-29T14:17:49Z</time><course>62</course><type>1</type></trkpt>
      <trkpt lat="41.8419133" lon="-4.4022167"><ele>2753</ele><speed>57</speed><time>2016-06-29T14:17:50Z</time><course>59</course><type>1</type></trkpt>
      <trkpt lat="41.84208" lon="-4.4018934"><ele>2750</ele><speed>60</speed><time>2016-06-29T14:17:52Z</time><course>53</course><type>1</type></trkpt>
      <trkpt lat="41.8422466" lon="-4.4015584"><ele>2747</ele><speed>59</speed><time>2016-06-29T14:17:54Z</time><course>59</course><type>1</type></trkpt>
      <trkpt lat="41.8423183" lon="-4.4013867"><ele>2746</ele><speed>57</speed><time>2016-06-29T14:17:55Z</time><course>61</course><type>1</type></trkpt>
      <trkpt lat="41.84247" lon="-4.4010534"><ele>2743</ele><speed>58</speed><time>2016-06-29T14:17:57Z</time><course>58</course><type>1</type></trkpt>
      <trkpt lat="41.8426366" lon="-4.40072"><ele>2739</ele><speed>60</speed><time>2016-06-29T14:17:59Z</time><course>55</course><type>1</type></trkpt>
      <trkpt lat="41.8427933" lon="-4.4003784"><ele>2735</ele><speed>59</speed><time>2016-06-29T14:18:01Z</time><course>61</course><type>1</type></trkpt>
      <trkpt lat="41.8429483" lon="-4.4000417"><ele>2731</ele><speed>59</speed><time>2016-06-29T14:18:03Z</time><course>57</course><type>1</type></trkpt>
      <trkpt lat="41.8431183" lon="-4.3997084"><ele>2727</ele><speed>62</speed><time>2016-06-29T14:18:05Z</time><course>59</course><type>1</type></trkpt>
      <trkpt lat="41.8432666" lon="-4.3993467"><ele>2725</ele><speed>64</speed><time>2016-06-29T14:18:07Z</time><course>66</course><type>1</type></trkpt>
      <trkpt lat="41.8433966" lon="-4.3989884"><ele>2723</ele><speed>57</speed><time>2016-06-29T14:18:09Z</time><course>64</course><type>1</type></trkpt>
      <trkpt lat="41.8434666" lon="-4.39882"><ele>2721</ele><speed>57</speed><time>2016-06-29T14:18:10Z</time><course>60</course><type>1</type></trkpt>
      <trkpt lat="41.8436283" lon="-4.398485"><ele>2718</ele><speed>59</speed><time>2016-06-29T14:18:12Z</time><course>59</course><type>1</type></trkpt>
      <trkpt lat="41.8437683" lon="-4.3981184"><ele>2714</ele><speed>63</speed><time>2016-06-29T14:18:14Z</time><course>63</course><type>1</type></trkpt>
      <trkpt lat="41.8438366" lon="-4.39793"><ele>2711</ele><speed>61</speed><time>2016-06-29T14:18:15Z</time><course>63</course><type>1</type></trkpt>
      <trkpt lat="41.843975" lon="-4.397565"><ele>2707</ele><speed>61</speed><time>2016-06-29T14:18:17Z</time><course>61</course><type>1</type></trkpt>
      <trkpt lat="41.8440466" lon="-4.39738"><ele>2705</ele><speed>62</speed><time>2016-06-29T14:18:18Z</time><course>62</course><type>1</type></trkpt>
      <trkpt lat="41.8441166" lon="-4.397195"><ele>2703</ele><speed>61</speed><time>2016-06-29T14:18:19Z</time><course>63</course><type>1</type></trkpt>
      <trkpt lat="41.84424" lon="-4.39682"><ele>2700</ele><speed>61</speed><time>2016-06-29T14:18:21Z</time><course>66</course><type>1</type></trkpt>
      <trkpt lat="41.8443683" lon="-4.39645"><ele>2697</ele><speed>61</speed><time>2016-06-29T14:18:23Z</time><course>62</course><type>1</type></trkpt>
      <trkpt lat="41.8444366" lon="-4.3962834"><ele>2696</ele><speed>55</speed><time>2016-06-29T14:18:24Z</time><course>59</course><type>1</type></trkpt>
      <trkpt lat="41.844585" lon="-4.3959434"><ele>2692</ele><speed>57</speed><time>2016-06-29T14:18:26Z</time><course>60</course><type>1</type></trkpt>
      <trkpt lat="41.8446566" lon="-4.3957567"><ele>2690</ele><speed>63</speed><time>2016-06-29T14:18:27Z</time><course>63</course><type>1</type></trkpt>
      <trkpt lat="41.84479" lon="-4.3953701"><ele>2687</ele><speed>63</speed><time>2016-06-29T14:18:29Z</time><course>64</course><type>1</type></trkpt>
      <trkpt lat="41.84486" lon="-4.3951817"><ele>2685</ele><speed>63</speed><time>2016-06-29T14:18:30Z</time><course>61</course><type>1</type></trkpt>
      <trkpt lat="41.8449333" lon="-4.3949984"><ele>2684</ele><speed>59</speed><time>2016-06-29T14:18:31Z</time><course>61</course><type>1</type></trkpt>
      <trkpt lat="41.8450033" lon="-4.394825"><ele>2683</ele><speed>58</speed><time>2016-06-29T14:18:32Z</time><course>62</course><type>1</type></trkpt>
      <trkpt lat="41.84507" lon="-4.394645"><ele>2681</ele><speed>59</speed><time>2016-06-29T14:18:33Z</time><course>64</course><type>1</type></trkpt>
      <trkpt lat="41.845215" lon="-4.3942517"><ele>2678</ele><speed>67</speed><time>2016-06-29T14:18:35Z</time><course>64</course><type>1</type></trkpt>
      <trkpt lat="41.845285" lon="-4.3940484"><ele>2677</ele><speed>64</speed><time>2016-06-29T14:18:36Z</time><course>65</course><type>1</type></trkpt>
      <trkpt lat="41.8454033" lon="-4.3936734"><ele>2675</ele><speed>57</speed><time>2016-06-29T14:18:38Z</time><course>68</course><type>1</type></trkpt>
      <trkpt lat="41.845495" lon="-4.3933134"><ele>2672</ele><speed>59</speed><time>2016-06-29T14:18:40Z</time><course>72</course><type>1</type></trkpt>
      <trkpt lat="41.8455816" lon="-4.39292"><ele>2668</ele><speed>65</speed><time>2016-06-29T14:18:42Z</time><course>72</course><type>1</type></trkpt>
      <trkpt lat="41.84567" lon="-4.3925417"><ele>2667</ele><speed>56</speed><time>2016-06-29T14:18:44Z</time><course>71</course><type>1</type></trkpt>
      <trkpt lat="41.845745" lon="-4.3921867"><ele>2664</ele><speed>58</speed><time>2016-06-29T14:18:46Z</time><course>73</course><type>1</type></trkpt>
      <trkpt lat="41.8458316" lon="-4.3917917"><ele>2660</ele><speed>64</speed><time>2016-06-29T14:18:48Z</time><course>73</course><type>1</type></trkpt>
      <trkpt lat="41.8458783" lon="-4.3915884"><ele>2658</ele><speed>62</speed><time>2016-06-29T14:18:49Z</time><course>71</course><type>1</type></trkpt>
      <trkpt lat="41.8459783" lon="-4.3911984"><ele>2654</ele><speed>59</speed><time>2016-06-29T14:18:51Z</time><course>70</course><type>1</type></trkpt>
      <trkpt lat="41.8460766" lon="-4.3908167"><ele>2650</ele><speed>60</speed><time>2016-06-29T14:18:53Z</time><course>72</course><type>1</type></trkpt>
      <trkpt lat="41.8461266" lon="-4.3906184"><ele>2648</ele><speed>63</speed><time>2016-06-29T14:18:54Z</time><course>71</course><type>1</type></trkpt>
      <trkpt lat="41.8462349" lon="-4.390205"><ele>2646</ele><speed>66</speed><time>2016-06-29T14:18:56Z</time><course>69</course><type>1</type></trkpt>
      <trkpt lat="41.8462933" lon="-4.39"><ele>2644</ele><speed>66</speed><time>2016-06-29T14:18:57Z</time><course>68</course><type>1</type></trkpt>
      <trkpt lat="41.84641" lon="-4.3896017"><ele>2641</ele><speed>63</speed><time>2016-06-29T14:18:59Z</time><course>69</course><type>1</type></trkpt>
      <trkpt lat="41.8464666" lon="-4.3893984"><ele>2639</ele><speed>65</speed><time>2016-06-29T14:19:00Z</time><course>69</course><type>1</type></trkpt>
      <trkpt lat="41.846585" lon="-4.388985"><ele>2636</ele><speed>66</speed><time>2016-06-29T14:19:02Z</time><course>68</course><type>1</type></trkpt>
      <trkpt lat="41.8466916" lon="-4.3885884"><ele>2632</ele><speed>58</speed><time>2016-06-29T14:19:04Z</time><course>70</course><type>1</type></trkpt>
      <trkpt lat="41.8467833" lon="-4.3882034"><ele>2628</ele><speed>59</speed><time>2016-06-29T14:19:06Z</time><course>74</course><type>1</type></trkpt>
      <trkpt lat="41.8468216" lon="-4.3879934"><ele>2626</ele><speed>67</speed><time>2016-06-29T14:19:07Z</time><course>77</course><type>1</type></trkpt>
      <trkpt lat="41.8468583" lon="-4.3877667"><ele>2624</ele><speed>71</speed><time>2016-06-29T14:19:08Z</time><course>77</course><type>1</type></trkpt>
      <trkpt lat="41.8469316" lon="-4.387315"><ele>2621</ele><speed>66</speed><time>2016-06-29T14:19:10Z</time><course>77</course><type>1</type></trkpt>
      <trkpt lat="41.846995" lon="-4.3869051"><ele>2616</ele><speed>60</speed><time>2016-06-29T14:19:12Z</time><course>78</course><type>1</type></trkpt>
      <trkpt lat="41.8470233" lon="-4.3867"><ele>2614</ele><speed>63</speed><time>2016-06-29T14:19:13Z</time><course>80</course><type>1</type></trkpt>
      <trkpt lat="41.8470766" lon="-4.3862584"><ele>2608</ele><speed>70</speed><time>2016-06-29T14:19:15Z</time><course>80</course><type>1</type></trkpt>
      <trkpt lat="41.8471033" lon="-4.386025"><ele>2606</ele><speed>70</speed><time>2016-06-29T14:19:16Z</time><course>82</course><type>1</type></trkpt>
      <trkpt lat="41.8471466" lon="-4.385575"><ele>2601</ele><speed>70</speed><time>2016-06-29T14:19:18Z</time><course>82</course><type>1</type></trkpt>
      <trkpt lat="41.8471683" lon="-4.3853634"><ele>2599</ele><speed>62</speed><time>2016-06-29T14:19:19Z</time><course>82</course><type>1</type></trkpt>
      <trkpt lat="41.8471883" lon="-4.385155"><ele>2596</ele><speed>66</speed><time>2016-06-29T14:19:20Z</time><course>82</course><type>1</type></trkpt>
      <trkpt lat="41.8472316" lon="-4.3847267"><ele>2591</ele><speed>63</speed><time>2016-06-29T14:19:22Z</time><course>82</course><type>1</type></trkpt>
      <trkpt lat="41.8472716" lon="-4.38428"><ele>2587</ele><speed>64</speed><time>2016-06-29T14:19:24Z</time><course>84</course><type>1</type></trkpt>
      <trkpt lat="41.8472883" lon="-4.3840717"><ele>2584</ele><speed>64</speed><time>2016-06-29T14:19:25Z</time><course>84</course><type>1</type></trkpt>
      <trkpt lat="41.8473016" lon="-4.383875"><ele>2581</ele><speed>56</speed><time>2016-06-29T14:19:26Z</time><course>85</course><type>1</type></trkpt>
      <trkpt lat="41.8473133" lon="-4.3836851"><ele>2579</ele><speed>56</speed><time>2016-06-29T14:19:27Z</time><course>86</course><type>1</type></trkpt>
      <trkpt lat="41.8473266" lon="-4.3834917"><ele>2577</ele><speed>59</speed><time>2016-06-29T14:19:28Z</time><course>84</course><type>1</type></trkpt>
      <trkpt lat="41.8473416" lon="-4.3832917"><ele>2574</ele><speed>60</speed><time>2016-06-29T14:19:29Z</time><course>83</course><type>1</type></trkpt>
      <trkpt lat="41.8473866" lon="-4.3829017"><ele>2569</ele><speed>56</speed><time>2016-06-29T14:19:31Z</time><course>81</course><type>1</type></trkpt>
      <trkpt lat="41.847415" lon="-4.3825167"><ele>2564</ele><speed>57</speed><time>2016-06-29T14:19:33Z</time><course>87</course><type>1</type></trkpt>
      <trkpt lat="41.84743" lon="-4.3821217"><ele>2560</ele><speed>57</speed><time>2016-06-29T14:19:35Z</time><course>86</course><type>1</type></trkpt>
      <trkpt lat="41.8474466" lon="-4.38192"><ele>2557</ele><speed>57</speed><time>2016-06-29T14:19:36Z</time><course>81</course><type>1</type></trkpt>
      <trkpt lat="41.8474916" lon="-4.38152"><ele>2552</ele><speed>59</speed><time>2016-06-29T14:19:38Z</time><course>83</course><type>1</type></trkpt>
      <trkpt lat="41.847505" lon="-4.3813217"><ele>2549</ele><speed>59</speed><time>2016-06-29T14:19:39Z</time><course>86</course><type>1</type></trkpt>
      <trkpt lat="41.8475216" lon="-4.3809134"><ele>2545</ele><speed>61</speed><time>2016-06-29T14:19:41Z</time><course>85</course><type>1</type></trkpt>
      <trkpt lat="41.8475583" lon="-4.38049"><ele>2540</ele><speed>61</speed><time>2016-06-29T14:19:43Z</time><course>80</course><type>1</type></trkpt>
      <trkpt lat="41.8475966" lon="-4.380085"><ele>2536</ele><speed>59</speed><time>2016-06-29T14:19:45Z</time><course>85</course><type>1</type></trkpt>
      <trkpt lat="41.847615" lon="-4.3796667"><ele>2530</ele><speed>65</speed><time>2016-06-29T14:19:47Z</time><course>85</course><type>1</type></trkpt>
      <trkpt lat="41.847645" lon="-4.379225"><ele>2526</ele><speed>66</speed><time>2016-06-29T14:19:49Z</time><course>83</course><type>1</type></trkpt>
      <trkpt lat="41.84766" lon="-4.37901"><ele>2524</ele><speed>66</speed><time>2016-06-29T14:19:50Z</time><course>85</course><type>1</type></trkpt>
      <trkpt lat="41.84767" lon="-4.3788067"><ele>2523</ele><speed>58</speed><time>2016-06-29T14:19:51Z</time><course>87</course><type>1</type></trkpt>
      <trkpt lat="41.8476883" lon="-4.3784117"><ele>2518</ele><speed>60</speed><time>2016-06-29T14:19:53Z</time><course>84</course><type>1</type></trkpt>
      <trkpt lat="41.847705" lon="-4.3782067"><ele>2516</ele><speed>61</speed><time>2016-06-29T14:19:54Z</time><course>83</course><type>1</type></trkpt>
      <trkpt lat="41.84771" lon="-4.3777867"><ele>2512</ele><speed>62</speed><time>2016-06-29T14:19:56Z</time><course>92</course><type>1</type></trkpt>
      <trkpt lat="41.8477016" lon="-4.3773634"><ele>2506</ele><speed>61</speed><time>2016-06-29T14:19:58Z</time><course>88</course><type>1</type></trkpt>
      <trkpt lat="41.8477383" lon="-4.3769567"><ele>2501</ele><speed>59</speed><time>2016-06-29T14:20:00Z</time><course>81</course><type>1</type></trkpt>
      <trkpt lat="41.8477583" lon="-4.3765667"><ele>2496</ele><speed>59</speed><time>2016-06-29T14:20:02Z</time><course>89</course><type>1</type></trkpt>
      <trkpt lat="41.8477583" lon="-4.3763717"><ele>2493</ele><speed>59</speed><time>2016-06-29T14:20:03Z</time><course>90</course><type>1</type></trkpt>
      <trkpt lat="41.8477683" lon="-4.3759884"><ele>2490</ele><speed>57</speed><time>2016-06-29T14:20:05Z</time><course>85</course><type>1</type></trkpt>
      <trkpt lat="41.8477783" lon="-4.3756"><ele>2485</ele><speed>58</speed><time>2016-06-29T14:20:07Z</time><course>90</course><type>1</type></trkpt>
      <trkpt lat="41.8477733" lon="-4.3754017"><ele>2483</ele><speed>60</speed><time>2016-06-29T14:20:08Z</time><course>92</course><type>1</type></trkpt>
      <trkpt lat="41.847755" lon="-4.3749884"><ele>2478</ele><speed>63</speed><time>2016-06-29T14:20:10Z</time><course>92</course><type>1</type></trkpt>
      <trkpt lat="41.847745" lon="-4.374775"><ele>2476</ele><speed>64</speed><time>2016-06-29T14:20:11Z</time><course>92</course><type>1</type></trkpt>
      <trkpt lat="41.8477233" lon="-4.3743634"><ele>2471</ele><speed>63</speed><time>2016-06-29T14:20:13Z</time><course>94</course><type>1</type></trkpt>
      <trkpt lat="41.847715" lon="-4.37417"><ele>2468</ele><speed>56</speed><time>2016-06-29T14:20:14Z</time><course>93</course><type>1</type></trkpt>
      <trkpt lat="41.8477016" lon="-4.3738084"><ele>2462</ele><speed>52</speed><time>2016-06-29T14:20:16Z</time><course>93</course><type>1</type></trkpt>
      <trkpt lat="41.84768" lon="-4.37346"><ele>2457</ele><speed>52</speed><time>2016-06-29T14:20:18Z</time><course>95</course><type>1</type></trkpt>
      <trkpt lat="41.847645" lon="-4.3730967"><ele>2452</ele><speed>57</speed><time>2016-06-29T14:20:20Z</time><course>97</course><type>1</type></trkpt>
      <trkpt lat="41.8476333" lon="-4.3728901"><ele>2449</ele><speed>64</speed><time>2016-06-29T14:20:21Z</time><course>94</course><type>1</type></trkpt>
      <trkpt lat="41.8476133" lon="-4.3724767"><ele>2443</ele><speed>57</speed><time>2016-06-29T14:20:23Z</time><course>94</course><type>1</type></trkpt>
      <trkpt lat="41.8476066" lon="-4.372275"><ele>2439</ele><speed>54</speed><time>2016-06-29T14:20:24Z</time><course>92</course><type>1</type></trkpt>
      <trkpt lat="41.847615" lon="-4.3719084"><ele>2433</ele><speed>52</speed><time>2016-06-29T14:20:26Z</time><course>88</course><type>1</type></trkpt>
      <trkpt lat="41.8476216" lon="-4.3715084"><ele>2429</ele><speed>61</speed><time>2016-06-29T14:20:28Z</time><course>92</course><type>1</type></trkpt>
      <trkpt lat="41.8476066" lon="-4.3713084"><ele>2427</ele><speed>61</speed><time>2016-06-29T14:20:29Z</time><course>96</course><type>1</type></trkpt>
      <trkpt lat="41.84758" lon="-4.3711084"><ele>2425</ele><speed>63</speed><time>2016-06-29T14:20:30Z</time><course>101</course><type>1</type></trkpt>
      <trkpt lat="41.8475416" lon="-4.3707384"><ele>2420</ele><speed>60</speed><time>2016-06-29T14:20:32Z</time><course>95</course><type>1</type></trkpt>
      <trkpt lat="41.8475216" lon="-4.370405"><ele>2416</ele><speed>44</speed><time>2016-06-29T14:20:34Z</time><course>93</course><type>1</type></trkpt>
      <trkpt lat="41.8474933" lon="-4.370095"><ele>2412</ele><speed>48</speed><time>2016-06-29T14:20:36Z</time><course>97</course><type>1</type></trkpt>
      <trkpt lat="41.84747" lon="-4.369925"><ele>2409</ele><speed>51</speed><time>2016-06-29T14:20:37Z</time><course>101</course><type>1</type></trkpt>
      <trkpt lat="41.8474216" lon="-4.36957"><ele>2404</ele><speed>53</speed><time>2016-06-29T14:20:39Z</time><course>98</course><type>1</type></trkpt>
      <trkpt lat="41.8473816" lon="-4.36921"><ele>2399</ele><speed>55</speed><time>2016-06-29T14:20:41Z</time><course>97</course><type>1</type></trkpt>
      <trkpt lat="41.847335" lon="-4.3688317"><ele>2394</ele><speed>57</speed><time>2016-06-29T14:20:43Z</time><course>101</course><type>1</type></trkpt>
      <trkpt lat="41.8473066" lon="-4.36864"><ele>2391</ele><speed>56</speed><time>2016-06-29T14:20:44Z</time><course>102</course><type>1</type></trkpt>
      <trkpt lat="41.8472416" lon="-4.3682834"><ele>2386</ele><speed>58</speed><time>2016-06-29T14:20:46Z</time><course>104</course><type>1</type></trkpt>
      <trkpt lat="41.8471816" lon="-4.3679584"><ele>2380</ele><speed>47</speed><time>2016-06-29T14:20:48Z</time><course>103</course><type>1</type></trkpt>
      <trkpt lat="41.84712" lon="-4.367625"><ele>2375</ele><speed>52</speed><time>2016-06-29T14:20:50Z</time><course>104</course><type>1</type></trkpt>
      <trkpt lat="41.8470449" lon="-4.3672717"><ele>2370</ele><speed>51</speed><time>2016-06-29T14:20:52Z</time><course>107</course><type>1</type></trkpt>
      <trkpt lat="41.846965" lon="-4.3669367"><ele>2363</ele><speed>47</speed><time>2016-06-29T14:20:54Z</time><course>108</course><type>1</type></trkpt>
      <trkpt lat="41.8468866" lon="-4.3666"><ele>2355</ele><speed>52</speed><time>2016-06-29T14:20:56Z</time><course>107</course><type>1</type></trkpt>
      <trkpt lat="41.8468466" lon="-4.3664267"><ele>2352</ele><speed>53</speed><time>2016-06-29T14:20:57Z</time><course>105</course><type>1</type></trkpt>
      <trkpt lat="41.8467916" lon="-4.36607"><ele>2346</ele><speed>54</speed><time>2016-06-29T14:20:59Z</time><course>100</course><type>1</type></trkpt>
      <trkpt lat="41.8467716" lon="-4.365885"><ele>2342</ele><speed>56</speed><time>2016-06-29T14:21:00Z</time><course>98</course><type>1</type></trkpt>
      <trkpt lat="41.8467483" lon="-4.365525"><ele>2336</ele><speed>57</speed><time>2016-06-29T14:21:02Z</time><course>97</course><type>1</type></trkpt>
      <trkpt lat="41.846725" lon="-4.3651451"><ele>2329</ele><speed>55</speed><time>2016-06-29T14:21:04Z</time><course>93</course><type>1</type></trkpt>
      <trkpt lat="41.8467183" lon="-4.3647684"><ele>2324</ele><speed>59</speed><time>2016-06-29T14:21:06Z</time><course>91</course><type>1</type></trkpt>
      <trkpt lat="41.8467116" lon="-4.3645684"><ele>2322</ele><speed>60</speed><time>2016-06-29T14:21:07Z</time><course>93</course><type>1</type></trkpt>
      <trkpt lat="41.8466916" lon="-4.3641467"><ele>2317</ele><speed>65</speed><time>2016-06-29T14:21:09Z</time><course>94</course><type>1</type></trkpt>
      <trkpt lat="41.8466833" lon="-4.3639284"><ele>2313</ele><speed>65</speed><time>2016-06-29T14:21:10Z</time><course>94</course><type>1</type></trkpt>
      <trkpt lat="41.8466733" lon="-4.3634684"><ele>2308</ele><speed>69</speed><time>2016-06-29T14:21:12Z</time><course>92</course><type>1</type></trkpt>
      <trkpt lat="41.8466783" lon="-4.3632667"><ele>2307</ele><speed>55</speed><time>2016-06-29T14:21:13Z</time><course>88</course><type>1</type></trkpt>
      <trkpt lat="41.8466916" lon="-4.3628834"><ele>2303</ele><speed>55</speed><time>2016-06-29T14:21:15Z</time><course>87</course><type>1</type></trkpt>
      <trkpt lat="41.8466916" lon="-4.3624567"><ele>2299</ele><speed>65</speed><time>2016-06-29T14:21:17Z</time><course>92</course><type>1</type></trkpt>
      <trkpt lat="41.84668" lon="-4.362235"><ele>2297</ele><speed>64</speed><time>2016-06-29T14:21:18Z</time><course>95</course><type>1</type></trkpt>
      <trkpt lat="41.8466633" lon="-4.3620217"><ele>2295</ele><speed>65</speed><time>2016-06-29T14:21:19Z</time><course>97</course><type>1</type></trkpt>
      <trkpt lat="41.8466283" lon="-4.3616284"><ele>2292</ele><speed>59</speed><time>2016-06-29T14:21:21Z</time><course>96</course><type>1</type></trkpt>
      <trkpt lat="41.8466133" lon="-4.3614234"><ele>2290</ele><speed>64</speed><time>2016-06-29T14:21:22Z</time><course>95</course><type>1</type></trkpt>
      <trkpt lat="41.8465866" lon="-4.3609867"><ele>2286</ele><speed>65</speed><time>2016-06-29T14:21:24Z</time><course>94</course><type>1</type></trkpt>
      <trkpt lat="41.846565" lon="-4.36057"><ele>2283</ele><speed>58</speed><time>2016-06-29T14:21:26Z</time><course>94</course><type>1</type></trkpt>
      <trkpt lat="41.8465466" lon="-4.3601867"><ele>2279</ele><speed>59</speed><time>2016-06-29T14:21:28Z</time><course>92</course><type>1</type></trkpt>
      <trkpt lat="41.8465383" lon="-4.3597717"><ele>2275</ele><speed>64</speed><time>2016-06-29T14:21:30Z</time><course>90</course><type>1</type></trkpt>
      <trkpt lat="41.846545" lon="-4.359345"><ele>2272</ele><speed>62</speed><time>2016-06-29T14:21:32Z</time><course>88</course><type>1</type></trkpt>
      <trkpt lat="41.8465433" lon="-4.3589567"><ele>2268</ele><speed>54</speed><time>2016-06-29T14:21:34Z</time><course>92</course><type>1</type></trkpt>
      <trkpt lat="41.8465266" lon="-4.3585684"><ele>2263</ele><speed>58</speed><time>2016-06-29T14:21:36Z</time><course>93</course><type>1</type></trkpt>
      <trkpt lat="41.8465066" lon="-4.358165"><ele>2257</ele><speed>58</speed><time>2016-06-29T14:21:38Z</time><course>94</course><type>1</type></trkpt>
      <trkpt lat="41.846475" lon="-4.3578051"><ele>2253</ele><speed>50</speed><time>2016-06-29T14:21:40Z</time><course>98</course><type>1</type></trkpt>
      <trkpt lat="41.846455" lon="-4.35748"><ele>2248</ele><speed>50</speed><time>2016-06-29T14:21:42Z</time><course>91</course><type>1</type></trkpt>
      <trkpt lat="41.8464633" lon="-4.3571167"><ele>2243</ele><speed>58</speed><time>2016-06-29T14:21:44Z</time><course>86</course><type>1</type></trkpt>
      <trkpt lat="41.84647" lon="-4.35692"><ele>2241</ele><speed>59</speed><time>2016-06-29T14:21:45Z</time><course>87</course><type>1</type></trkpt>
      <trkpt lat="41.8464816" lon="-4.3565484"><ele>2238</ele><speed>53</speed><time>2016-06-29T14:21:47Z</time><course>85</course><type>1</type></trkpt>
      <trkpt lat="41.8464933" lon="-4.3563684"><ele>2235</ele><speed>52</speed><time>2016-06-29T14:21:48Z</time><course>84</course><type>1</type></trkpt>
      <trkpt lat="41.8465083" lon="-4.3559884"><ele>2230</ele><speed>60</speed><time>2016-06-29T14:21:50Z</time><course>90</course><type>1</type></trkpt>
      <trkpt lat="41.8464833" lon="-4.3555867"><ele>2225</ele><speed>60</speed><time>2016-06-29T14:21:52Z</time><course>97</course><type>1</type></trkpt>
      <trkpt lat="41.8464666" lon="-4.3553884"><ele>2223</ele><speed>56</speed><time>2016-06-29T14:21:53Z</time><course>97</course><type>1</type></trkpt>
      <trkpt lat="41.8464266" lon="-4.3550017"><ele>2218</ele><speed>57</speed><time>2016-06-29T14:21:55Z</time><course>99</course><type>1</type></trkpt>
      <trkpt lat="41.8463716" lon="-4.3546134"><ele>2214</ele><speed>56</speed><time>2016-06-29T14:21:57Z</time><course>101</course><type>1</type></trkpt>
      <trkpt lat="41.8463133" lon="-4.3542517"><ele>2210</ele><speed>56</speed><time>2016-06-29T14:21:59Z</time><course>101</course><type>1</type></trkpt>
      <trkpt lat="41.846285" lon="-4.3540834"><ele>2209</ele><speed>49</speed><time>2016-06-29T14:22:00Z</time><course>102</course><type>1</type></trkpt>
      <trkpt lat="41.8462083" lon="-4.35376"><ele>2204</ele><speed>52</speed><time>2016-06-29T14:22:02Z</time><course>109</course><type>1</type></trkpt>
      <trkpt lat="41.8461583" lon="-4.353585"><ele>2202</ele><speed>56</speed><time>2016-06-29T14:22:03Z</time><course>112</course><type>1</type></trkpt>
      <trkpt lat="41.8461033" lon="-4.3534067"><ele>2200</ele><speed>58</speed><time>2016-06-29T14:22:04Z</time><course>112</course><type>1</type></trkpt>
      <trkpt lat="41.8459916" lon="-4.3530934"><ele>2195</ele><speed>49</speed><time>2016-06-29T14:22:06Z</time><course>110</course><type>1</type></trkpt>
      <trkpt lat="41.8458749" lon="-4.3527834"><ele>2189</ele><speed>51</speed><time>2016-06-29T14:22:08Z</time><course>117</course><type>1</type></trkpt>
      <trkpt lat="41.8457066" lon="-4.35243"><ele>2186</ele><speed>67</speed><time>2016-06-29T14:22:10Z</time><course>120</course><type>1</type></trkpt>
      <trkpt lat="41.8456349" lon="-4.35224"><ele>2184</ele><speed>64</speed><time>2016-06-29T14:22:11Z</time><course>114</course><type>1</type></trkpt>
      <trkpt lat="41.8455233" lon="-4.35187"><ele>2182</ele><speed>54</speed><time>2016-06-29T14:22:13Z</time><course>109</course><type>1</type></trkpt>
      <trkpt lat="41.845465" lon="-4.3517084"><ele>2181</ele><speed>51</speed><time>2016-06-29T14:22:14Z</time><course>119</course><type>1</type></trkpt>
      <trkpt lat="41.8453966" lon="-4.351565"><ele>2179</ele><speed>51</speed><time>2016-06-29T14:22:15Z</time><course>124</course><type>1</type></trkpt>
      <trkpt lat="41.8452483" lon="-4.3512667"><ele>2176</ele><speed>57</speed><time>2016-06-29T14:22:17Z</time><course>123</course><type>1</type></trkpt>
      <trkpt lat="41.8451016" lon="-4.3509217"><ele>2172</ele><speed>58</speed><time>2016-06-29T14:22:19Z</time><course>118</course><type>1</type></trkpt>
      <trkpt lat="41.8450316" lon="-4.35076"><ele>2171</ele><speed>54</speed><time>2016-06-29T14:22:20Z</time><course>120</course><type>1</type></trkpt>
      <trkpt lat="41.8448716" lon="-4.3504784"><ele>2167</ele><speed>57</speed><time>2016-06-29T14:22:22Z</time><course>130</course><type>1</type></trkpt>
      <trkpt lat="41.844785" lon="-4.3503484"><ele>2165</ele><speed>56</speed><time>2016-06-29T14:22:23Z</time><course>133</course><type>1</type></trkpt>
      <trkpt lat="41.8446983" lon="-4.350205"><ele>2163</ele><speed>56</speed><time>2016-06-29T14:22:24Z</time><course>126</course><type>1</type></trkpt>
      <trkpt lat="41.8446166" lon="-4.3500467"><ele>2162</ele><speed>59</speed><time>2016-06-29T14:22:25Z</time><course>123</course><type>1</type></trkpt>
      <trkpt lat="41.844475" lon="-4.349755"><ele>2160</ele><speed>44</speed><time>2016-06-29T14:22:27Z</time><course>124</course><type>1</type></trkpt>
      <trkpt lat="41.8443466" lon="-4.34953"><ele>2158</ele><speed>40</speed><time>2016-06-29T14:22:29Z</time><course>128</course><type>1</type></trkpt>
      <trkpt lat="41.8441983" lon="-4.3492784"><ele>2155</ele><speed>54</speed><time>2016-06-29T14:22:31Z</time><course>125</course><type>1</type></trkpt>
      <trkpt lat="41.8441149" lon="-4.3491284"><ele>2154</ele><speed>57</speed><time>2016-06-29T14:22:32Z</time><course>127</course><type>1</type></trkpt>
      <trkpt lat="41.8439433" lon="-4.348865"><ele>2154</ele><speed>48</speed><time>2016-06-29T14:22:34Z</time><course>132</course><type>1</type></trkpt>
      <trkpt lat="41.84388" lon="-4.3487634"><ele>2155</ele><speed>37</speed><time>2016-06-29T14:22:35Z</time><course>124</course><type>1</type></trkpt>
      <trkpt lat="41.84377" lon="-4.3485167"><ele>2157</ele><speed>39</speed><time>2016-06-29T14:22:37Z</time><course>117</course><type>1</type></trkpt>
      <trkpt lat="41.84364" lon="-4.348255"><ele>2158</ele><speed>50</speed><time>2016-06-29T14:22:39Z</time><course>129</course><type>1</type></trkpt>
      <trkpt lat="41.8434833" lon="-4.348075"><ele>2159</ele><speed>36</speed><time>2016-06-29T14:22:41Z</time><course>147</course><type>1</type></trkpt>
      <trkpt lat="41.8434066" lon="-4.348025"><ele>2160</ele><speed>35</speed><time>2016-06-29T14:22:42Z</time><course>151</course><type>1</type></trkpt>
      <trkpt lat="41.8432483" lon="-4.3479234"><ele>2162</ele><speed>34</speed><time>2016-06-29T14:22:44Z</time><course>152</course><type>1</type></trkpt>
      <trkpt lat="41.8431766" lon="-4.3478967"><ele>2163</ele><speed>29</speed><time>2016-06-29T14:22:45Z</time><course>161</course><type>1</type></trkpt>
      <trkpt lat="41.8430533" lon="-4.347885"><ele>2165</ele><speed>24</speed><time>2016-06-29T14:22:47Z</time><course>177</course><type>1</type></trkpt>
      <trkpt lat="41.842995" lon="-4.3478984"><ele>2165</ele><speed>23</speed><time>2016-06-29T14:22:48Z</time><course>185</course><type>1</type></trkpt>
      <trkpt lat="41.8429033" lon="-4.3479484"><ele>2167</ele><speed>14</speed><time>2016-06-29T14:22:50Z</time><course>214</course><type>1</type></trkpt>
      <trkpt lat="41.842875" lon="-4.3480167"><ele>2167</ele><speed>12</speed><time>2016-06-29T14:22:52Z</time><course>264</course><type>1</type></trkpt>
      <trkpt lat="41.8428999" lon="-4.3481167"><ele>2168</ele><speed>19</speed><time>2016-06-29T14:22:54Z</time><course>295</course><type>1</type></trkpt>
      <trkpt lat="41.842925" lon="-4.3481801"><ele>2168</ele><speed>22</speed><time>2016-06-29T14:22:55Z</time><course>302</course><type>1</type></trkpt>
      <trkpt lat="41.8430316" lon="-4.3482717"><ele>2167</ele><speed>27</speed><time>2016-06-29T14:22:57Z</time><course>327</course><type>1</type></trkpt>
      <trkpt lat="41.84319" lon="-4.3483334"><ele>2166</ele><speed>33</speed><time>2016-06-29T14:22:59Z</time><course>341</course><type>1</type></trkpt>
      <trkpt lat="41.843345" lon="-4.34841"><ele>2166</ele><speed>31</speed><time>2016-06-29T14:23:01Z</time><course>341</course><type>1</type></trkpt>
      <trkpt lat="41.8434233" lon="-4.3484434"><ele>2166</ele><speed>32</speed><time>2016-06-29T14:23:02Z</time><course>341</course><type>1</type></trkpt>
      <trkpt lat="41.8436016" lon="-4.3484684"><ele>2166</ele><speed>34</speed><time>2016-06-29T14:23:04Z</time><course>355</course><type>1</type></trkpt>
      <trkpt lat="41.8437816" lon="-4.3484934"><ele>2166</ele><speed>38</speed><time>2016-06-29T14:23:06Z</time><course>350</course><type>1</type></trkpt>
      <trkpt lat="41.8439783" lon="-4.3484817"><ele>2166</ele><speed>38</speed><time>2016-06-29T14:23:08Z</time><course>4</course><type>1</type></trkpt>
      <trkpt lat="41.844175" lon="-4.348435"><ele>2166</ele><speed>41</speed><time>2016-06-29T14:23:10Z</time><course>13</course><type>1</type></trkpt>
      <trkpt lat="41.8443816" lon="-4.34832"><ele>2165</ele><speed>48</speed><time>2016-06-29T14:23:12Z</time><course>29</course><type>1</type></trkpt>
      <trkpt lat="41.8445766" lon="-4.348105"><ele>2164</ele><speed>50</speed><time>2016-06-29T14:23:14Z</time><course>44</course><type>1</type></trkpt>
      <trkpt lat="41.8447433" lon="-4.34785"><ele>2163</ele><speed>49</speed><time>2016-06-29T14:23:16Z</time><course>49</course><type>1</type></trkpt>
      <trkpt lat="41.8448283" lon="-4.347725"><ele>2163</ele><speed>49</speed><time>2016-06-29T14:23:17Z</time><course>45</course><type>1</type></trkpt>
      <trkpt lat="41.8449916" lon="-4.3474817"><ele>2161</ele><speed>47</speed><time>2016-06-29T14:23:19Z</time><course>54</course><type>1</type></trkpt>
      <trkpt lat="41.8450433" lon="-4.3473384"><ele>2159</ele><speed>46</speed><time>2016-06-29T14:23:20Z</time><course>71</course><type>1</type></trkpt>
      <trkpt lat="41.8450733" lon="-4.347"><ele>2157</ele><speed>48</speed><time>2016-06-29T14:23:22Z</time><course>83</course><type>1</type></trkpt>
      <trkpt lat="41.8450716" lon="-4.34682"><ele>2155</ele><speed>53</speed><time>2016-06-29T14:23:23Z</time><course>89</course><type>1</type></trkpt>
      <trkpt lat="41.8450716" lon="-4.3466417"><ele>2154</ele><speed>50</speed><time>2016-06-29T14:23:24Z</time><course>85</course><type>1</type></trkpt>
      <trkpt lat="41.8450783" lon="-4.346315"><ele>2150</ele><speed>52</speed><time>2016-06-29T14:23:26Z</time><course>90</course><type>1</type></trkpt>
      <trkpt lat="41.845035" lon="-4.3459884"><ele>2148</ele><speed>47</speed><time>2016-06-29T14:23:28Z</time><course>107</course><type>1</type></trkpt>
      <trkpt lat="41.8449883" lon="-4.3458267"><ele>2146</ele><speed>48</speed><time>2016-06-29T14:23:29Z</time><course>112</course><type>1</type></trkpt>
      <trkpt lat="41.8448683" lon="-4.3455334"><ele>2142</ele><speed>49</speed><time>2016-06-29T14:23:31Z</time><course>122</course><type>1</type></trkpt>
      <trkpt lat="41.8447983" lon="-4.3453984"><ele>2140</ele><speed>50</speed><time>2016-06-29T14:23:32Z</time><course>124</course><type>1</type></trkpt>
      <trkpt lat="41.8446466" lon="-4.3451434"><ele>2136</ele><speed>47</speed><time>2016-06-29T14:23:34Z</time><course>129</course><type>1</type></trkpt>
      <trkpt lat="41.8445683" lon="-4.3450217"><ele>2134</ele><speed>47</speed><time>2016-06-29T14:23:35Z</time><course>130</course><type>1</type></trkpt>
      <trkpt lat="41.8444883" lon="-4.3449084"><ele>2133</ele><speed>46</speed><time>2016-06-29T14:23:36Z</time><course>134</course><type>1</type></trkpt>
      <trkpt lat="41.8444" lon="-4.3448034"><ele>2131</ele><speed>47</speed><time>2016-06-29T14:23:37Z</time><course>138</course><type>1</type></trkpt>
      <trkpt lat="41.8441966" lon="-4.3446484"><ele>2129</ele><speed>46</speed><time>2016-06-29T14:23:39Z</time><course>149</course><type>1</type></trkpt>
      <trkpt lat="41.8440966" lon="-4.3445717"><ele>2128</ele><speed>45</speed><time>2016-06-29T14:23:40Z</time><course>148</course><type>1</type></trkpt>
      <trkpt lat="41.843995" lon="-4.3444884"><ele>2127</ele><speed>51</speed><time>2016-06-29T14:23:41Z</time><course>145</course><type>1</type></trkpt>
      <trkpt lat="41.843795" lon="-4.3443367"><ele>2126</ele><speed>40</speed><time>2016-06-29T14:23:43Z</time><course>150</course><type>1</type></trkpt>
      <trkpt lat="41.8436333" lon="-4.3442434"><ele>2126</ele><speed>34</speed><time>2016-06-29T14:23:45Z</time><course>156</course><type>1</type></trkpt>
      <trkpt lat="41.8434816" lon="-4.3441667"><ele>2125</ele><speed>33</speed><time>2016-06-29T14:23:47Z</time><course>159</course><type>1</type></trkpt>
      <trkpt lat="41.843335" lon="-4.3441501"><ele>2126</ele><speed>32</speed><time>2016-06-29T14:23:49Z</time><course>168</course><type>1</type></trkpt>
      <trkpt lat="41.8431933" lon="-4.3441367"><ele>2128</ele><speed>28</speed><time>2016-06-29T14:23:51Z</time><course>168</course><type>1</type></trkpt>
      <trkpt lat="41.8430766" lon="-4.3441017"><ele>2128</ele><speed>23</speed><time>2016-06-29T14:23:53Z</time><course>160</course><type>1</type></trkpt>
      <trkpt lat="41.8430166" lon="-4.34408"><ele>2128</ele><speed>26</speed><time>2016-06-29T14:23:54Z</time><course>161</course><type>1</type></trkpt>
      <trkpt lat="41.8428833" lon="-4.3440584"><ele>2127</ele><speed>26</speed><time>2016-06-29T14:23:56Z</time><course>174</course><type>1</type></trkpt>
      <trkpt lat="41.8428166" lon="-4.3440617"><ele>2126</ele><speed>24</speed><time>2016-06-29T14:23:57Z</time><course>179</course><type>1</type></trkpt>
      <trkpt lat="41.8426883" lon="-4.344075"><ele>2125</ele><speed>26</speed><time>2016-06-29T14:23:59Z</time><course>183</course><type>1</type></trkpt>
      <trkpt lat="41.842615" lon="-4.3440917"><ele>2124</ele><speed>29</speed><time>2016-06-29T14:24:00Z</time><course>190</course><type>1</type></trkpt>
      <trkpt lat="41.84249" lon="-4.3441501"><ele>2123</ele><speed>23</speed><time>2016-06-29T14:24:02Z</time><course>213</course><type>1</type></trkpt>
      <trkpt lat="41.8424366" lon="-4.344245"><ele>2121</ele><speed>15</speed><time>2016-06-29T14:24:04Z</time><course>253</course><type>1</type></trkpt>
      <trkpt lat="41.8424383" lon="-4.3442967"><ele>2119</ele><speed>16</speed><time>2016-06-29T14:24:05Z</time><course>269</course><type>1</type></trkpt>
      <trkpt lat="41.8425033" lon="-4.3444067"><ele>2116</ele><speed>21</speed><time>2016-06-29T14:24:07Z</time><course>304</course><type>1</type></trkpt>
      <trkpt lat="41.8426533" lon="-4.3444467"><ele>2113</ele><speed>31</speed><time>2016-06-29T14:24:09Z</time><course>349</course><type>1</type></trkpt>
      <trkpt lat="41.8428416" lon="-4.3444067"><ele>2110</ele><speed>41</speed><time>2016-06-29T14:24:11Z</time><course>18</course><type>1</type></trkpt>
      <trkpt lat="41.84295" lon="-4.3443384"><ele>2108</ele><speed>50</speed><time>2016-06-29T14:24:12Z</time><course>28</course><type>1</type></trkpt>
      <trkpt lat="41.8431733" lon="-4.3440934"><ele>2105</ele><speed>58</speed><time>2016-06-29T14:24:14Z</time><course>45</course><type>1</type></trkpt>
      <trkpt lat="41.8432633" lon="-4.3439334"><ele>2104</ele><speed>57</speed><time>2016-06-29T14:24:15Z</time><course>52</course><type>1</type></trkpt>
      <trkpt lat="41.8433833" lon="-4.3436034"><ele>2102</ele><speed>48</speed><time>2016-06-29T14:24:17Z</time><course>61</course><type>1</type></trkpt>
      <trkpt lat="41.8434966" lon="-4.343325"><ele>2099</ele><speed>52</speed><time>2016-06-29T14:24:19Z</time><course>59</course><type>1</type></trkpt>
      <trkpt lat="41.8435483" lon="-4.3431684"><ele>2097</ele><speed>51</speed><time>2016-06-29T14:24:20Z</time><course>68</course><type>1</type></trkpt>
      <trkpt lat="41.8435883" lon="-4.3430017"><ele>2096</ele><speed>52</speed><time>2016-06-29T14:24:21Z</time><course>74</course><type>1</type></trkpt>
      <trkpt lat="41.8436383" lon="-4.3426634"><ele>2094</ele><speed>50</speed><time>2016-06-29T14:24:23Z</time><course>77</course><type>1</type></trkpt>
      <trkpt lat="41.8436716" lon="-4.3424984"><ele>2094</ele><speed>51</speed><time>2016-06-29T14:24:24Z</time><course>73</course><type>1</type></trkpt>
      <trkpt lat="41.8437333" lon="-4.3421567"><ele>2093</ele><speed>53</speed><time>2016-06-29T14:24:26Z</time><course>81</course><type>1</type></trkpt>
      <trkpt lat="41.843745" lon="-4.3419767"><ele>2093</ele><speed>54</speed><time>2016-06-29T14:24:27Z</time><course>87</course><type>1</type></trkpt>
      <trkpt lat="41.8437083" lon="-4.3416067"><ele>2092</ele><speed>56</speed><time>2016-06-29T14:24:29Z</time><course>100</course><type>1</type></trkpt>
      <trkpt lat="41.8436883" lon="-4.3414234"><ele>2092</ele><speed>55</speed><time>2016-06-29T14:24:30Z</time><course>98</course><type>1</type></trkpt>
      <trkpt lat="41.843635" lon="-4.34107"><ele>2091</ele><speed>54</speed><time>2016-06-29T14:24:32Z</time><course>103</course><type>1</type></trkpt>
      <trkpt lat="41.8435416" lon="-4.3407584"><ele>2090</ele><speed>46</speed><time>2016-06-29T14:24:34Z</time><course>116</course><type>1</type></trkpt>
      <trkpt lat="41.8434833" lon="-4.3406117"><ele>2089</ele><speed>50</speed><time>2016-06-29T14:24:35Z</time><course>118</course><type>1</type></trkpt>
      <trkpt lat="41.843415" lon="-4.3404617"><ele>2089</ele><speed>53</speed><time>2016-06-29T14:24:36Z</time><course>121</course><type>1</type></trkpt>
      <trkpt lat="41.843345" lon="-4.3403001"><ele>2088</ele><speed>58</speed><time>2016-06-29T14:24:37Z</time><course>120</course><type>1</type></trkpt>
      <trkpt lat="41.8432233" lon="-4.3399634"><ele>2088</ele><speed>52</speed><time>2016-06-29T14:24:39Z</time><course>115</course><type>1</type></trkpt>
      <trkpt lat="41.8431616" lon="-4.3398217"><ele>2088</ele><speed>48</speed><time>2016-06-29T14:24:40Z</time><course>123</course><type>1</type></trkpt>
      <trkpt lat="41.84301" lon="-4.33959"><ele>2087</ele><speed>47</speed><time>2016-06-29T14:24:42Z</time><course>135</course><type>1</type></trkpt>
      <trkpt lat="41.842925" lon="-4.3394834"><ele>2084</ele><speed>45</speed><time>2016-06-29T14:24:43Z</time><course>141</course><type>1</type></trkpt>
      <trkpt lat="41.842745" lon="-4.3393034"><ele>2080</ele><speed>45</speed><time>2016-06-29T14:24:45Z</time><course>144</course><type>1</type></trkpt>
      <trkpt lat="41.8425633" lon="-4.3391434"><ele>2077</ele><speed>41</speed><time>2016-06-29T14:24:47Z</time><course>147</course><type>1</type></trkpt>
      <trkpt lat="41.8424716" lon="-4.3390667"><ele>2076</ele><speed>44</speed><time>2016-06-29T14:24:48Z</time><course>147</course><type>1</type></trkpt>
      <trkpt lat="41.842375" lon="-4.3389867"><ele>2075</ele><speed>46</speed><time>2016-06-29T14:24:49Z</time><course>148</course><type>1</type></trkpt>
      <trkpt lat="41.84217" lon="-4.33885"><ele>2073</ele><speed>45</speed><time>2016-06-29T14:24:51Z</time><course>152</course><type>1</type></trkpt>
      <trkpt lat="41.842075" lon="-4.3387917"><ele>2073</ele><speed>42</speed><time>2016-06-29T14:24:52Z</time><course>152</course><type>1</type></trkpt>
      <trkpt lat="41.8419016" lon="-4.3386817"><ele>2072</ele><speed>36</speed><time>2016-06-29T14:24:54Z</time><course>156</course><type>1</type></trkpt>
      <trkpt lat="41.8417383" lon="-4.338585"><ele>2071</ele><speed>36</speed><time>2016-06-29T14:24:56Z</time><course>159</course><type>1</type></trkpt>
      <trkpt lat="41.8415683" lon="-4.3385"><ele>2069</ele><speed>37</speed><time>2016-06-29T14:24:58Z</time><course>158</course><type>1</type></trkpt>
      <trkpt lat="41.8414033" lon="-4.33844"><ele>2067</ele><speed>34</speed><time>2016-06-29T14:25:00Z</time><course>160</course><type>1</type></trkpt>
      <trkpt lat="41.84126" lon="-4.3383834"><ele>2066</ele><speed>29</speed><time>2016-06-29T14:25:02Z</time><course>158</course><type>1</type></trkpt>
      <trkpt lat="41.8411883" lon="-4.3383517"><ele>2066</ele><speed>27</speed><time>2016-06-29T14:25:03Z</time><course>160</course><type>1</type></trkpt>
      <trkpt lat="41.8410266" lon="-4.3383017"><ele>2062</ele><speed>36</speed><time>2016-06-29T14:25:05Z</time><course>171</course><type>1</type></trkpt>
      <trkpt lat="41.8408433" lon="-4.338275"><ele>2058</ele><speed>37</speed><time>2016-06-29T14:25:07Z</time><course>172</course><type>1</type></trkpt>
      <trkpt lat="41.84067" lon="-4.3382317"><ele>2055</ele><speed>34</speed><time>2016-06-29T14:25:09Z</time><course>170</course><type>1</type></trkpt>
      <trkpt lat="41.8405866" lon="-4.338215"><ele>2054</ele><speed>32</speed><time>2016-06-29T14:25:10Z</time><course>174</course><type>1</type></trkpt>
      <trkpt lat="41.8404133" lon="-4.3382067"><ele>2050</ele><speed>36</speed><time>2016-06-29T14:25:12Z</time><course>187</course><type>1</type></trkpt>
      <trkpt lat="41.840325" lon="-4.3382084"><ele>2048</ele><speed>35</speed><time>2016-06-29T14:25:13Z</time><course>181</course><type>1</type></trkpt>
      <trkpt lat="41.840235" lon="-4.3382067"><ele>2046</ele><speed>34</speed><time>2016-06-29T14:25:14Z</time><course>175</course><type>1</type></trkpt>
      <trkpt lat="41.8400616" lon="-4.33821"><ele>2041</ele><speed>37</speed><time>2016-06-29T14:25:16Z</time><course>178</course><type>1</type></trkpt>
      <trkpt lat="41.8398933" lon="-4.3382034"><ele>2038</ele><speed>31</speed><time>2016-06-29T14:25:18Z</time><course>176</course><type>1</type></trkpt>
      <trkpt lat="41.8397533" lon="-4.3382067"><ele>2035</ele><speed>27</speed><time>2016-06-29T14:25:20Z</time><course>179</course><type>1</type></trkpt>
      <trkpt lat="41.8396033" lon="-4.338165"><ele>2032</ele><speed>33</speed><time>2016-06-29T14:25:22Z</time><course>168</course><type>1</type></trkpt>
      <trkpt lat="41.83943" lon="-4.33809"><ele>2027</ele><speed>36</speed><time>2016-06-29T14:25:24Z</time><course>158</course><type>1</type></trkpt>
      <trkpt lat="41.8393416" lon="-4.3380284"><ele>2025</ele><speed>39</speed><time>2016-06-29T14:25:25Z</time><course>154</course><type>1</type></trkpt>
      <trkpt lat="41.8391583" lon="-4.3378801"><ele>2019</ele><speed>43</speed><time>2016-06-29T14:25:27Z</time><course>150</course><type>1</type></trkpt>
      <trkpt lat="41.8389733" lon="-4.3377367"><ele>2016</ele><speed>40</speed><time>2016-06-29T14:25:29Z</time><course>147</course><type>1</type></trkpt>
      <trkpt lat="41.838815" lon="-4.337575"><ele>2012</ele><speed>39</speed><time>2016-06-29T14:25:31Z</time><course>139</course><type>1</type></trkpt>
      <trkpt lat="41.83865" lon="-4.337395"><ele>2007</ele><speed>44</speed><time>2016-06-29T14:25:33Z</time><course>144</course><type>1</type></trkpt>
      <trkpt lat="41.838455" lon="-4.3372184"><ele>2003</ele><speed>51</speed><time>2016-06-29T14:25:35Z</time><course>146</course><type>1</type></trkpt>
      <trkpt lat="41.83836" lon="-4.33712"><ele>2000</ele><speed>47</speed><time>2016-06-29T14:25:36Z</time><course>142</course><type>1</type></trkpt>
      <trkpt lat="41.8382716" lon="-4.3370184"><ele>1997</ele><speed>44</speed><time>2016-06-29T14:25:37Z</time><course>137</course><type>1</type></trkpt>
      <trkpt lat="41.8381016" lon="-4.3367867"><ele>1992</ele><speed>47</speed><time>2016-06-29T14:25:39Z</time><course>139</course><type>1</type></trkpt>
      <trkpt lat="41.8379383" lon="-4.3365334"><ele>1986</ele><speed>48</speed><time>2016-06-29T14:25:41Z</time><course>130</course><type>1</type></trkpt>
      <trkpt lat="41.8377983" lon="-4.33629"><ele>1981</ele><speed>44</speed><time>2016-06-29T14:25:43Z</time><course>130</course><type>1</type></trkpt>
      <trkpt lat="41.8377166" lon="-4.336175"><ele>1980</ele><speed>46</speed><time>2016-06-29T14:25:44Z</time><course>133</course><type>1</type></trkpt>
      <trkpt lat="41.837555" lon="-4.335935"><ele>1974</ele><speed>49</speed><time>2016-06-29T14:25:46Z</time><course>134</course><type>1</type></trkpt>
      <trkpt lat="41.8373849" lon="-4.335665"><ele>1969</ele><speed>54</speed><time>2016-06-29T14:25:48Z</time><course>128</course><type>1</type></trkpt>
      <trkpt lat="41.8372466" lon="-4.335365"><ele>1963</ele><speed>48</speed><time>2016-06-29T14:25:50Z</time><course>117</course><type>1</type></trkpt>
      <trkpt lat="41.8371433" lon="-4.335085"><ele>1958</ele><speed>47</speed><time>2016-06-29T14:25:52Z</time><course>121</course><type>1</type></trkpt>
      <trkpt lat="41.8370233" lon="-4.33478"><ele>1951</ele><speed>56</speed><time>2016-06-29T14:25:54Z</time><course>119</course><type>1</type></trkpt>
      <trkpt lat="41.8369033" lon="-4.334425"><ele>1945</ele><speed>56</speed><time>2016-06-29T14:25:56Z</time><course>116</course><type>1</type></trkpt>
      <trkpt lat="41.8368533" lon="-4.3342484"><ele>1942</ele><speed>55</speed><time>2016-06-29T14:25:57Z</time><course>115</course><type>1</type></trkpt>
      <trkpt lat="41.8367916" lon="-4.3340817"><ele>1939</ele><speed>53</speed><time>2016-06-29T14:25:58Z</time><course>119</course><type>1</type></trkpt>
      <trkpt lat="41.8367316" lon="-4.3339184"><ele>1935</ele><speed>51</speed><time>2016-06-29T14:25:59Z</time><course>121</course><type>1</type></trkpt>
      <trkpt lat="41.8366633" lon="-4.333765"><ele>1933</ele><speed>52</speed><time>2016-06-29T14:26:00Z</time><course>123</course><type>1</type></trkpt>
      <trkpt lat="41.8365016" lon="-4.3334317"><ele>1928</ele><speed>61</speed><time>2016-06-29T14:26:02Z</time><course>121</course><type>1</type></trkpt>
      <trkpt lat="41.8363866" lon="-4.3330484"><ele>1923</ele><speed>55</speed><time>2016-06-29T14:26:04Z</time><course>114</course><type>1</type></trkpt>
      <trkpt lat="41.8362833" lon="-4.3327134"><ele>1918</ele><speed>54</speed><time>2016-06-29T14:26:06Z</time><course>116</course><type>1</type></trkpt>
      <trkpt lat="41.83622" lon="-4.3325417"><ele>1915</ele><speed>56</speed><time>2016-06-29T14:26:07Z</time><course>118</course><type>1</type></trkpt>
      <trkpt lat="41.836155" lon="-4.3323734"><ele>1912</ele><speed>60</speed><time>2016-06-29T14:26:08Z</time><course>117</course><type>1</type></trkpt>
      <trkpt lat="41.8360316" lon="-4.33201"><ele>1907</ele><speed>58</speed><time>2016-06-29T14:26:10Z</time><course>116</course><type>1</type></trkpt>
      <trkpt lat="41.83589" lon="-4.3316684"><ele>1902</ele><speed>59</speed><time>2016-06-29T14:26:12Z</time><course>121</course><type>1</type></trkpt>
      <trkpt lat="41.8357399" lon="-4.3313384"><ele>1897</ele><speed>58</speed><time>2016-06-29T14:26:14Z</time><course>121</course><type>1</type></trkpt>
      <trkpt lat="41.8356049" lon="-4.3310284"><ele>1893</ele><speed>55</speed><time>2016-06-29T14:26:16Z</time><course>121</course><type>1</type></trkpt>
      <trkpt lat="41.8355416" lon="-4.3308784"><ele>1891</ele><speed>50</speed><time>2016-06-29T14:26:17Z</time><course>119</course><type>1</type></trkpt>
      <trkpt lat="41.8354083" lon="-4.330565"><ele>1886</ele><speed>52</speed><time>2016-06-29T14:26:19Z</time><course>120</course><type>1</type></trkpt>
      <trkpt lat="41.8353349" lon="-4.3304017"><ele>1885</ele><speed>56</speed><time>2016-06-29T14:26:20Z</time><course>122</course><type>1</type></trkpt>
      <trkpt lat="41.8351933" lon="-4.3300934"><ele>1882</ele><speed>55</speed><time>2016-06-29T14:26:22Z</time><course>120</course><type>1</type></trkpt>
      <trkpt lat="41.8350716" lon="-4.3297751"><ele>1881</ele><speed>51</speed><time>2016-06-29T14:26:24Z</time><course>117</course><type>1</type></trkpt>
      <trkpt lat="41.8349383" lon="-4.3294634"><ele>1881</ele><speed>51</speed><time>2016-06-29T14:26:26Z</time><course>121</course><type>1</type></trkpt>
      <trkpt lat="41.8347866" lon="-4.3291434"><ele>1882</ele><speed>53</speed><time>2016-06-29T14:26:28Z</time><course>124</course><type>1</type></trkpt>
      <trkpt lat="41.83471" lon="-4.3289867"><ele>1883</ele><speed>54</speed><time>2016-06-29T14:26:29Z</time><course>124</course><type>1</type></trkpt>
      <trkpt lat="41.8345516" lon="-4.3286884"><ele>1885</ele><speed>54</speed><time>2016-06-29T14:26:31Z</time><course>125</course><type>1</type></trkpt>
      <trkpt lat="41.8344783" lon="-4.328545"><ele>1886</ele><speed>55</speed><time>2016-06-29T14:26:32Z</time><course>123</course><type>1</type></trkpt>
      <trkpt lat="41.8344033" lon="-4.3283867"><ele>1887</ele><speed>51</speed><time>2016-06-29T14:26:33Z</time><course>123</course><type>1</type></trkpt>
      <trkpt lat="41.8342416" lon="-4.3281067"><ele>1888</ele><speed>54</speed><time>2016-06-29T14:26:35Z</time><course>132</course><type>1</type></trkpt>
      <trkpt lat="41.8340333" lon="-4.3278867"><ele>1889</ele><speed>53</speed><time>2016-06-29T14:26:37Z</time><course>144</course><type>1</type></trkpt>
      <trkpt lat="41.8339233" lon="-4.3278"><ele>1889</ele><speed>54</speed><time>2016-06-29T14:26:38Z</time><course>148</course><type>1</type></trkpt>
      <trkpt lat="41.8337166" lon="-4.3276734"><ele>1891</ele><speed>46</speed><time>2016-06-29T14:26:40Z</time><course>154</course><type>1</type></trkpt>
      <trkpt lat="41.83352" lon="-4.327575"><ele>1893</ele><speed>46</speed><time>2016-06-29T14:26:42Z</time><course>154</course><type>1</type></trkpt>
      <trkpt lat="41.833325" lon="-4.3274517"><ele>1896</ele><speed>38</speed><time>2016-06-29T14:26:44Z</time><course>152</course><type>1</type></trkpt>
      <trkpt lat="41.8332383" lon="-4.3273934"><ele>1896</ele><speed>36</speed><time>2016-06-29T14:26:45Z</time><course>158</course><type>1</type></trkpt>
      <trkpt lat="41.833155" lon="-4.3273567"><ele>1896</ele><speed>32</speed><time>2016-06-29T14:26:46Z</time><course>171</course><type>1</type></trkpt>
      <trkpt lat="41.8330066" lon="-4.3273284"><ele>1897</ele><speed>28</speed><time>2016-06-29T14:26:48Z</time><course>182</course><type>1</type></trkpt>
      <trkpt lat="41.8329433" lon="-4.3273267"><ele>1896</ele><speed>26</speed><time>2016-06-29T14:26:49Z</time><course>183</course><type>1</type></trkpt>
      <trkpt lat="41.83288" lon="-4.3273267"><ele>1896</ele><speed>23</speed><time>2016-06-29T14:26:50Z</time><course>180</course><type>1</type></trkpt>
      <trkpt lat="41.8327916" lon="-4.32734"><ele>1895</ele><speed>16</speed><time>2016-06-29T14:26:52Z</time><course>196</course><type>1</type></trkpt>
      <trkpt lat="41.83282" lon="-4.3274067"><ele>1890</ele><speed>14</speed><time>2016-06-29T14:26:56Z</time><course>340</course><type>1</type></trkpt>
      <trkpt lat="41.8329083" lon="-4.3274017"><ele>1888</ele><speed>17</speed><time>2016-06-29T14:26:58Z</time><course>3</course><type>1</type></trkpt>
      <trkpt lat="41.83301" lon="-4.32736"><ele>1886</ele><speed>21</speed><time>2016-06-29T14:27:00Z</time><course>20</course><type>1</type></trkpt>
      <trkpt lat="41.8331466" lon="-4.3272417"><ele>1884</ele><speed>35</speed><time>2016-06-29T14:27:02Z</time><course>32</course><type>1</type></trkpt>
      <trkpt lat="41.8333016" lon="-4.3270467"><ele>1882</ele><speed>46</speed><time>2016-06-29T14:27:04Z</time><course>51</course><type>1</type></trkpt>
      <trkpt lat="41.833375" lon="-4.3269117"><ele>1881</ele><speed>50</speed><time>2016-06-29T14:27:05Z</time><course>54</course><type>1</type></trkpt>
      <trkpt lat="41.8334416" lon="-4.3267584"><ele>1880</ele><speed>53</speed><time>2016-06-29T14:27:06Z</time><course>60</course><type>1</type></trkpt>
      <trkpt lat="41.8335016" lon="-4.3266034"><ele>1880</ele><speed>51</speed><time>2016-06-29T14:27:07Z</time><course>64</course><type>1</type></trkpt>
      <trkpt lat="41.8335983" lon="-4.3263367"><ele>1881</ele><speed>39</speed><time>2016-06-29T14:27:09Z</time><course>64</course><type>1</type></trkpt>
      <trkpt lat="41.833695" lon="-4.3261184"><ele>1881</ele><speed>38</speed><time>2016-06-29T14:27:11Z</time><course>58</course><type>1</type></trkpt>
      <trkpt lat="41.8337916" lon="-4.32589"><ele>1882</ele><speed>39</speed><time>2016-06-29T14:27:13Z</time><course>60</course><type>1</type></trkpt>
      <trkpt lat="41.8338816" lon="-4.325665"><ele>1883</ele><speed>35</speed><time>2016-06-29T14:27:15Z</time><course>62</course><type>1</type></trkpt>
      <trkpt lat="41.8339766" lon="-4.325455"><ele>1883</ele><speed>37</speed><time>2016-06-29T14:27:17Z</time><course>58</course><type>1</type></trkpt>
      <trkpt lat="41.83407" lon="-4.3252417"><ele>1884</ele><speed>37</speed><time>2016-06-29T14:27:19Z</time><course>60</course><type>1</type></trkpt>
      <trkpt lat="41.8341133" lon="-4.3251334"><ele>1884</ele><speed>37</speed><time>2016-06-29T14:27:20Z</time><course>59</course><type>1</type></trkpt>
      <trkpt lat="41.8342066" lon="-4.3248817"><ele>1884</ele><speed>47</speed><time>2016-06-29T14:27:22Z</time><course>68</course><type>1</type></trkpt>
      <trkpt lat="41.834265" lon="-4.324575"><ele>1886</ele><speed>44</speed><time>2016-06-29T14:27:24Z</time><course>78</course><type>1</type></trkpt>
      <trkpt lat="41.834305" lon="-4.3242967"><ele>1886</ele><speed>41</speed><time>2016-06-29T14:27:26Z</time><course>80</course><type>1</type></trkpt>
      <trkpt lat="41.8343183" lon="-4.32415"><ele>1886</ele><speed>46</speed><time>2016-06-29T14:27:27Z</time><course>86</course><type>1</type></trkpt>
      <trkpt lat="41.8343133" lon="-4.32398"><ele>1887</ele><speed>52</speed><time>2016-06-29T14:27:28Z</time><course>90</course><type>1</type></trkpt>
      <trkpt lat="41.8342716" lon="-4.32364"><ele>1889</ele><speed>49</speed><time>2016-06-29T14:27:30Z</time><course>105</course><type>1</type></trkpt>
      <trkpt lat="41.8342416" lon="-4.3234867"><ele>1889</ele><speed>46</speed><time>2016-06-29T14:27:31Z</time><course>106</course><type>1</type></trkpt>
      <trkpt lat="41.8341816" lon="-4.3232"><ele>1891</ele><speed>44</speed><time>2016-06-29T14:27:33Z</time><course>109</course><type>1</type></trkpt>
      <trkpt lat="41.834135" lon="-4.3230534"><ele>1891</ele><speed>47</speed><time>2016-06-29T14:27:34Z</time><course>114</course><type>1</type></trkpt>
      <trkpt lat="41.83401" lon="-4.322775"><ele>1892</ele><speed>49</speed><time>2016-06-29T14:27:36Z</time><course>131</course><type>1</type></trkpt>
      <trkpt lat="41.8338383" lon="-4.3225384"><ele>1892</ele><speed>48</speed><time>2016-06-29T14:27:38Z</time><course>141</course><type>1</type></trkpt>
      <trkpt lat="41.833645" lon="-4.322355"><ele>1891</ele><speed>50</speed><time>2016-06-29T14:27:40Z</time><course>148</course><type>1</type></trkpt>
      <trkpt lat="41.833435" lon="-4.322205"><ele>1889</ele><speed>45</speed><time>2016-06-29T14:27:42Z</time><course>156</course><type>1</type></trkpt>
      <trkpt lat="41.8333316" lon="-4.3221467"><ele>1888</ele><speed>43</speed><time>2016-06-29T14:27:43Z</time><course>161</course><type>1</type></trkpt>
      <trkpt lat="41.83312" lon="-4.3220884"><ele>1884</ele><speed>35</speed><time>2016-06-29T14:27:45Z</time><course>173</course><type>1</type></trkpt>
      <trkpt lat="41.83293" lon="-4.3220567"><ele>1881</ele><speed>37</speed><time>2016-06-29T14:27:47Z</time><course>180</course><type>1</type></trkpt>
      <trkpt lat="41.8328416" lon="-4.3220467"><ele>1880</ele><speed>34</speed><time>2016-06-29T14:27:48Z</time><course>182</course><type>1</type></trkpt>
      <trkpt lat="41.832665" lon="-4.3220684"><ele>1877</ele><speed>33</speed><time>2016-06-29T14:27:50Z</time><course>187</course><type>1</type></trkpt>
      <trkpt lat="41.8325183" lon="-4.3221767"><ele>1873</ele><speed>28</speed><time>2016-06-29T14:27:52Z</time><course>213</course><type>1</type></trkpt>
      <trkpt lat="41.8324616" lon="-4.32222"><ele>1872</ele><speed>21</speed><time>2016-06-29T14:27:53Z</time><course>210</course><type>1</type></trkpt>
      <trkpt lat="41.8323733" lon="-4.32228"><ele>1869</ele><speed>18</speed><time>2016-06-29T14:27:55Z</time><course>206</course><type>1</type></trkpt>
      <trkpt lat="41.83233" lon="-4.3223267"><ele>1867</ele><speed>20</speed><time>2016-06-29T14:27:56Z</time><course>221</course><type>1</type></trkpt>
      <trkpt lat="41.8322666" lon="-4.3224567"><ele>1865</ele><speed>23</speed><time>2016-06-29T14:27:58Z</time><course>249</course><type>1</type></trkpt>
      <trkpt lat="41.832245" lon="-4.3225251"><ele>1866</ele><speed>18</speed><time>2016-06-29T14:27:59Z</time><course>255</course><type>1</type></trkpt>
      <trkpt lat="41.8322233" lon="-4.322605"><ele>1866</ele><speed>6</speed><time>2016-06-29T14:28:01Z</time><course>250</course><type>1</type></trkpt>
      <trkpt lat="41.8321833" lon="-4.3226967"><ele>1864</ele><speed>15</speed><time>2016-06-29T14:28:05Z</time><course>256</course><type>1</type></trkpt>
      <trkpt lat="41.8321866" lon="-4.3227984"><ele>1863</ele><speed>14</speed><time>2016-06-29T14:28:07Z</time><course>280</course><type>1</type></trkpt>
      <trkpt lat="41.83219" lon="-4.32285"><ele>1864</ele><speed>10</speed><time>2016-06-29T14:28:10Z</time><course>214</course><type>1</type></trkpt>
      <trkpt lat="41.83216" lon="-4.3229301"><ele>1863</ele><speed>17</speed><time>2016-06-29T14:28:12Z</time><course>262</course><type>1</type></trkpt>
      <trkpt lat="41.8321566" lon="-4.3229984"><ele>1862</ele><speed>21</speed><time>2016-06-29T14:28:13Z</time><course>267</course><type>1</type></trkpt>
      <trkpt lat="41.832155" lon="-4.3230734"><ele>1863</ele><speed>21</speed><time>2016-06-29T14:28:14Z</time><course>269</course><type>1</type></trkpt>
      <trkpt lat="41.8321733" lon="-4.3231634"><ele>1863</ele><speed>8</speed><time>2016-06-29T14:28:16Z</time><course>311</course><type>1</type></trkpt>
      <trkpt lat="41.832245" lon="-4.3232267"><ele>1861</ele><speed>17</speed><time>2016-06-29T14:28:19Z</time><course>325</course><type>1</type></trkpt>
      <trkpt lat="41.8322833" lon="-4.323265"><ele>1860</ele><speed>19</speed><time>2016-06-29T14:28:20Z</time><course>322</course><type>1</type></trkpt>
      <trkpt lat="41.8323766" lon="-4.3233234"><ele>1858</ele><speed>20</speed><time>2016-06-29T14:28:22Z</time><course>334</course><type>1</type></trkpt>
      <trkpt lat="41.8324916" lon="-4.3233584"><ele>1856</ele><speed>26</speed><time>2016-06-29T14:28:24Z</time><course>349</course><type>1</type></trkpt>
      <trkpt lat="41.832565" lon="-4.3233684"><ele>1855</ele><speed>30</speed><time>2016-06-29T14:28:25Z</time><course>352</course><type>1</type></trkpt>
      <trkpt lat="41.8327433" lon="-4.323355"><ele>1853</ele><speed>36</speed><time>2016-06-29T14:28:27Z</time><course>4</course><type>1</type></trkpt>
      <trkpt lat="41.8328366" lon="-4.3233184"><ele>1852</ele><speed>37</speed><time>2016-06-29T14:28:28Z</time><course>17</course><type>1</type></trkpt>
      <trkpt lat="41.833005" lon="-4.32323"><ele>1850</ele><speed>37</speed><time>2016-06-29T14:28:30Z</time><course>24</course><type>1</type></trkpt>
      <trkpt lat="41.8331633" lon="-4.323125"><ele>1847</ele><speed>34</speed><time>2016-06-29T14:28:32Z</time><course>27</course><type>1</type></trkpt>
      <trkpt lat="41.833335" lon="-4.3230234"><ele>1844</ele><speed>40</speed><time>2016-06-29T14:28:34Z</time><course>22</course><type>1</type></trkpt>
      <trkpt lat="41.8334366" lon="-4.3229634"><ele>1842</ele><speed>44</speed><time>2016-06-29T14:28:35Z</time><course>24</course><type>1</type></trkpt>
      <trkpt lat="41.8336016" lon="-4.3227951"><ele>1838</ele><speed>42</speed><time>2016-06-29T14:28:37Z</time><course>48</course><type>1</type></trkpt>
      <trkpt lat="41.8336666" lon="-4.32267"><ele>1836</ele><speed>47</speed><time>2016-06-29T14:28:38Z</time><course>56</course><type>1</type></trkpt>
      <trkpt lat="41.833765" lon="-4.32235"><ele>1831</ele><speed>56</speed><time>2016-06-29T14:28:40Z</time><course>71</course><type>1</type></trkpt>
      <trkpt lat="41.8338" lon="-4.322155"><ele>1828</ele><speed>60</speed><time>2016-06-29T14:28:41Z</time><course>77</course><type>1</type></trkpt>
      <trkpt lat="41.8338266" lon="-4.321955"><ele>1825</ele><speed>60</speed><time>2016-06-29T14:28:42Z</time><course>80</course><type>1</type></trkpt>
      <trkpt lat="41.8338316" lon="-4.3215784"><ele>1820</ele><speed>54</speed><time>2016-06-29T14:28:44Z</time><course>91</course><type>1</type></trkpt>
      <trkpt lat="41.8338" lon="-4.3211967"><ele>1814</ele><speed>60</speed><time>2016-06-29T14:28:46Z</time><course>97</course><type>1</type></trkpt>
      <trkpt lat="41.8337216" lon="-4.320775"><ele>1808</ele><speed>69</speed><time>2016-06-29T14:28:48Z</time><course>102</course><type>1</type></trkpt>
      <trkpt lat="41.8335866" lon="-4.320325"><ele>1804</ele><speed>69</speed><time>2016-06-29T14:28:50Z</time><course>114</course><type>1</type></trkpt>
      <trkpt lat="41.8334566" lon="-4.3199834"><ele>1800</ele><speed>53</speed><time>2016-06-29T14:28:52Z</time><course>117</course><type>1</type></trkpt>
      <trkpt lat="41.8333066" lon="-4.3196617"><ele>1798</ele><speed>52</speed><time>2016-06-29T14:28:54Z</time><course>120</course><type>1</type></trkpt>
      <trkpt lat="41.8331616" lon="-4.3192917"><ele>1797</ele><speed>63</speed><time>2016-06-29T14:28:56Z</time><course>115</course><type>1</type></trkpt>
      <trkpt lat="41.8330016" lon="-4.3189384"><ele>1796</ele><speed>57</speed><time>2016-06-29T14:28:58Z</time><course>121</course><type>1</type></trkpt>
      <trkpt lat="41.8328166" lon="-4.3186484"><ele>1796</ele><speed>56</speed><time>2016-06-29T14:29:00Z</time><course>132</course><type>1</type></trkpt>
      <trkpt lat="41.832715" lon="-4.3185167"><ele>1796</ele><speed>55</speed><time>2016-06-29T14:29:01Z</time><course>132</course><type>1</type></trkpt>
      <trkpt lat="41.8326116" lon="-4.3183967"><ele>1796</ele><speed>54</speed><time>2016-06-29T14:29:02Z</time><course>138</course><type>1</type></trkpt>
      <trkpt lat="41.8323733" lon="-4.318215"><ele>1797</ele><speed>51</speed><time>2016-06-29T14:29:04Z</time><course>155</course><type>1</type></trkpt>
      <trkpt lat="41.8321333" lon="-4.3181634"><ele>1798</ele><speed>41</speed><time>2016-06-29T14:29:06Z</time><course>181</course><type>1</type></trkpt>
      <trkpt lat="41.832045" lon="-4.3181667"><ele>1798</ele><speed>30</speed><time>2016-06-29T14:29:07Z</time><course>183</course><type>1</type></trkpt>
      <trkpt lat="41.8319466" lon="-4.318215"><ele>1799</ele><speed>18</speed><time>2016-06-29T14:29:09Z</time><course>212</course><type>1</type></trkpt>
      <trkpt lat="41.8319866" lon="-4.3183267"><ele>1799</ele><speed>23</speed><time>2016-06-29T14:29:12Z</time><course>334</course><type>1</type></trkpt>
      <trkpt lat="41.8320533" lon="-4.3183317"><ele>1800</ele><speed>33</speed><time>2016-06-29T14:29:13Z</time><course>6</course><type>1</type></trkpt>
      <trkpt lat="41.8321433" lon="-4.31828"><ele>1800</ele><speed>49</speed><time>2016-06-29T14:29:14Z</time><course>32</course><type>1</type></trkpt>
      <trkpt lat="41.8322749" lon="-4.3180534"><ele>1803</ele><speed>38</speed><time>2016-06-29T14:29:16Z</time><course>68</course><type>1</type></trkpt>
      <trkpt lat="41.8323216" lon="-4.3178634"><ele>1807</ele><speed>28</speed><time>2016-06-29T14:29:18Z</time><course>72</course><type>1</type></trkpt>
      <trkpt lat="41.83237" lon="-4.3176784"><ele>1810</ele><speed>31</speed><time>2016-06-29T14:29:20Z</time><course>68</course><type>1</type></trkpt>
      <trkpt lat="41.83242" lon="-4.31757"><ele>1811</ele><speed>37</speed><time>2016-06-29T14:29:21Z</time><course>58</course><type>1</type></trkpt>
      <trkpt lat="41.8324916" lon="-4.3172617"><ele>1815</ele><speed>44</speed><time>2016-06-29T14:29:23Z</time><course>75</course><type>1</type></trkpt>
      <trkpt lat="41.8325583" lon="-4.3170217"><ele>1819</ele><speed>34</speed><time>2016-06-29T14:29:25Z</time><course>70</course><type>1</type></trkpt>
      <trkpt lat="41.8326016" lon="-4.3167384"><ele>1823</ele><speed>52</speed><time>2016-06-29T14:29:27Z</time><course>86</course><type>1</type></trkpt>
      <trkpt lat="41.832535" lon="-4.316385"><ele>1827</ele><speed>56</speed><time>2016-06-29T14:29:29Z</time><course>118</course><type>1</type></trkpt>
      <trkpt lat="41.8323133" lon="-4.316105"><ele>1830</ele><speed>64</speed><time>2016-06-29T14:29:31Z</time><course>147</course><type>1</type></trkpt>
      <trkpt lat="41.8321766" lon="-4.3160467"><ele>1832</ele><speed>56</speed><time>2016-06-29T14:29:32Z</time><course>167</course><type>1</type></trkpt>
      <trkpt lat="41.8319599" lon="-4.3160234"><ele>1836</ele><speed>31</speed><time>2016-06-29T14:29:34Z</time><course>178</course><type>1</type></trkpt>
      <trkpt lat="41.8318183" lon="-4.316005"><ele>1838</ele><speed>28</speed><time>2016-06-29T14:29:36Z</time><course>174</course><type>1</type></trkpt>
      <trkpt lat="41.83175" lon="-4.3160034"><ele>1839</ele><speed>25</speed><time>2016-06-29T14:29:37Z</time><course>182</course><type>1</type></trkpt>
      <trkpt lat="41.8316583" lon="-4.3160717"><ele>1841</ele><speed>19</speed><time>2016-06-29T14:29:39Z</time><course>229</course><type>1</type></trkpt>
      <trkpt lat="41.8316516" lon="-4.3161234"><ele>1841</ele><speed>16</speed><time>2016-06-29T14:29:40Z</time><course>278</course><type>1</type></trkpt>
      <trkpt lat="41.83172" lon="-4.316175"><ele>1842</ele><speed>19</speed><time>2016-06-29T14:29:42Z</time><course>359</course><type>1</type></trkpt>
      <trkpt lat="41.831835" lon="-4.3161367"><ele>1843</ele><speed>24</speed><time>2016-06-29T14:29:44Z</time><course>20</course><type>1</type></trkpt>
      <trkpt lat="41.8319633" lon="-4.3160717"><ele>1845</ele><speed>29</speed><time>2016-06-29T14:29:46Z</time><course>19</course><type>1</type></trkpt>
      <trkpt lat="41.832045" lon="-4.3160317"><ele>1845</ele><speed>35</speed><time>2016-06-29T14:29:47Z</time><course>20</course><type>1</type></trkpt>
      <trkpt lat="41.832195" lon="-4.3158917"><ele>1848</ele><speed>39</speed><time>2016-06-29T14:29:49Z</time><course>31</course><type>1</type></trkpt>
      <trkpt lat="41.832325" lon="-4.3157534"><ele>1851</ele><speed>31</speed><time>2016-06-29T14:29:51Z</time><course>38</course><type>1</type></trkpt>
      <trkpt lat="41.83243" lon="-4.3156284"><ele>1855</ele><speed>32</speed><time>2016-06-29T14:29:53Z</time><course>35</course><type>1</type></trkpt>
      <trkpt lat="41.832595" lon="-4.3154467"><ele>1857</ele><speed>49</speed><time>2016-06-29T14:29:55Z</time><course>44</course><type>1</type></trkpt>
      <trkpt lat="41.83273" lon="-4.3151284"><ele>1860</ele><speed>61</speed><time>2016-06-29T14:29:57Z</time><course>69</course><type>1</type></trkpt>
      <trkpt lat="41.8327633" lon="-4.3149484"><ele>1861</ele><speed>52</speed><time>2016-06-29T14:29:58Z</time><course>79</course><type>1</type></trkpt>
      <trkpt lat="41.83278" lon="-4.314795"><ele>1863</ele><speed>41</speed><time>2016-06-29T14:29:59Z</time><course>81</course><type>1</type></trkpt>
      <trkpt lat="41.8328233" lon="-4.3145117"><ele>1864</ele><speed>48</speed><time>2016-06-29T14:30:01Z</time><course>76</course><type>1</type></trkpt>
      <trkpt lat="41.8328033" lon="-4.3140967"><ele>1864</ele><speed>71</speed><time>2016-06-29T14:30:03Z</time><course>100</course><type>1</type></trkpt>
      <trkpt lat="41.8326733" lon="-4.3136467"><ele>1866</ele><speed>68</speed><time>2016-06-29T14:30:05Z</time><course>110</course><type>1</type></trkpt>
      <trkpt lat="41.83262" lon="-4.3134467"><ele>1868</ele><speed>56</speed><time>2016-06-29T14:30:06Z</time><course>108</course><type>1</type></trkpt>
      <trkpt lat="41.83248" lon="-4.3129184"><ele>1873</ele><speed>56</speed><time>2016-06-29T14:30:09Z</time><course>111</course><type>1</type></trkpt>
      <trkpt lat="41.8323533" lon="-4.3125851"><ele>1876</ele><speed>57</speed><time>2016-06-29T14:30:11Z</time><course>120</course><type>1</type></trkpt>
      <trkpt lat="41.8321583" lon="-4.3123317"><ele>1879</ele><speed>52</speed><time>2016-06-29T14:30:13Z</time><course>147</course><type>1</type></trkpt>
      <trkpt lat="41.8319533" lon="-4.3122084"><ele>1883</ele><speed>41</speed><time>2016-06-29T14:30:15Z</time><course>159</course><type>1</type></trkpt>
      <trkpt lat="41.8318666" lon="-4.312175"><ele>1882</ele><speed>39</speed><time>2016-06-29T14:30:16Z</time><course>163</course><type>1</type></trkpt>
      <trkpt lat="41.83177" lon="-4.3121367"><ele>1882</ele><speed>41</speed><time>2016-06-29T14:30:17Z</time><course>163</course><type>1</type></trkpt>
      <trkpt lat="41.83167" lon="-4.3121"><ele>1882</ele><speed>40</speed><time>2016-06-29T14:30:18Z</time><course>164</course><type>1</type></trkpt>
      <trkpt lat="41.8314983" lon="-4.3120984"><ele>1883</ele><speed>29</speed><time>2016-06-29T14:30:20Z</time><course>186</course><type>1</type></trkpt>
      <trkpt lat="41.8314333" lon="-4.3121317"><ele>1883</ele><speed>26</speed><time>2016-06-29T14:30:21Z</time><course>201</course><type>1</type></trkpt>
      <trkpt lat="41.8313133" lon="-4.3122"><ele>1884</ele><speed>25</speed><time>2016-06-29T14:30:23Z</time><course>196</course><type>1</type></trkpt>
      <trkpt lat="41.831225" lon="-4.312255"><ele>1883</ele><speed>16</speed><time>2016-06-29T14:30:25Z</time><course>216</course><type>1</type></trkpt>
      <trkpt lat="41.8312216" lon="-4.3123117"><ele>1881</ele><speed>12</speed><time>2016-06-29T14:30:27Z</time><course>296</course><type>1</type></trkpt>
      <trkpt lat="41.83127" lon="-4.3123717"><ele>1880</ele><speed>12</speed><time>2016-06-29T14:30:29Z</time><course>305</course><type>1</type></trkpt>
      <trkpt lat="41.83138" lon="-4.3123817"><ele>1881</ele><speed>20</speed><time>2016-06-29T14:30:32Z</time><course>3</course><type>1</type></trkpt>
      <trkpt lat="41.8315066" lon="-4.3123167"><ele>1884</ele><speed>28</speed><time>2016-06-29T14:30:34Z</time><course>26</course><type>1</type></trkpt>
      <trkpt lat="41.83157" lon="-4.3122617"><ele>1887</ele><speed>29</speed><time>2016-06-29T14:30:35Z</time><course>37</course><type>1</type></trkpt>
      <trkpt lat="41.8316583" lon="-4.31215"><ele>1891</ele><speed>18</speed><time>2016-06-29T14:30:37Z</time><course>65</course><type>1</type></trkpt>
      <trkpt lat="41.8317283" lon="-4.3120467"><ele>1894</ele><speed>27</speed><time>2016-06-29T14:30:39Z</time><course>32</course><type>1</type></trkpt>
      <trkpt lat="41.831785" lon="-4.3119884"><ele>1896</ele><speed>30</speed><time>2016-06-29T14:30:40Z</time><course>40</course><type>1</type></trkpt>
      <trkpt lat="41.831895" lon="-4.3118167"><ele>1900</ele><speed>37</speed><time>2016-06-29T14:30:42Z</time><course>54</course><type>1</type></trkpt>
      <trkpt lat="41.83201" lon="-4.3116"><ele>1903</ele><speed>38</speed><time>2016-06-29T14:30:44Z</time><course>61</course><type>1</type></trkpt>
      <trkpt lat="41.832085" lon="-4.3113184"><ele>1905</ele><speed>52</speed><time>2016-06-29T14:30:46Z</time><course>74</course><type>1</type></trkpt>
      <trkpt lat="41.8321266" lon="-4.3109267"><ele>1908</ele><speed>62</speed><time>2016-06-29T14:30:48Z</time><course>89</course><type>1</type></trkpt>
      <trkpt lat="41.83207" lon="-4.3105167"><ele>1910</ele><speed>62</speed><time>2016-06-29T14:30:50Z</time><course>107</course><type>1</type></trkpt>
      <trkpt lat="41.8319816" lon="-4.3101284"><ele>1912</ele><speed>58</speed><time>2016-06-29T14:30:52Z</time><course>105</course><type>1</type></trkpt>
      <trkpt lat="41.8318816" lon="-4.309755"><ele>1914</ele><speed>59</speed><time>2016-06-29T14:30:54Z</time><course>113</course><type>1</type></trkpt>
      <trkpt lat="41.8317166" lon="-4.309425"><ele>1916</ele><speed>60</speed><time>2016-06-29T14:30:56Z</time><course>127</course><type>1</type></trkpt>
      <trkpt lat="41.8315083" lon="-4.3091851"><ele>1917</ele><speed>50</speed><time>2016-06-29T14:30:58Z</time><course>139</course><type>1</type></trkpt>
      <trkpt lat="41.8314133" lon="-4.30908"><ele>1918</ele><speed>47</speed><time>2016-06-29T14:30:59Z</time><course>141</course><type>1</type></trkpt>
      <trkpt lat="41.83123" lon="-4.3089067"><ele>1917</ele><speed>45</speed><time>2016-06-29T14:31:01Z</time><course>148</course><type>1</type></trkpt>
      <trkpt lat="41.8311366" lon="-4.308845"><ele>1917</ele><speed>43</speed><time>2016-06-29T14:31:02Z</time><course>156</course><type>1</type></trkpt>
      <trkpt lat="41.83104" lon="-4.3088017"><ele>1917</ele><speed>36</speed><time>2016-06-29T14:31:03Z</time><course>165</course><type>1</type></trkpt>
      <trkpt lat="41.83089" lon="-4.30879"><ele>1917</ele><speed>27</speed><time>2016-06-29T14:31:05Z</time><course>185</course><type>1</type></trkpt>
      <trkpt lat="41.8307633" lon="-4.3088367"><ele>1919</ele><speed>22</speed><time>2016-06-29T14:31:07Z</time><course>202</course><type>1</type></trkpt>
      <trkpt lat="41.8306916" lon="-4.3089167"><ele>1922</ele><speed>14</speed><time>2016-06-29T14:31:09Z</time><course>260</course><type>1</type></trkpt>
      <trkpt lat="41.830725" lon="-4.3090017"><ele>1924</ele><speed>17</speed><time>2016-06-29T14:31:11Z</time><course>319</course><type>1</type></trkpt>
      <trkpt lat="41.8308066" lon="-4.3090317"><ele>1926</ele><speed>15</speed><time>2016-06-29T14:31:13Z</time><course>345</course><type>1</type></trkpt>
      <trkpt lat="41.8308583" lon="-4.309035"><ele>1928</ele><speed>7</speed><time>2016-06-29T14:31:15Z</time><course>25</course><type>1</type></trkpt>
      <trkpt lat="41.830965" lon="-4.3089817"><ele>1932</ele><speed>21</speed><time>2016-06-29T14:31:19Z</time><course>41</course><type>1</type></trkpt>
      <trkpt lat="41.8310483" lon="-4.3088667"><ele>1934</ele><speed>23</speed><time>2016-06-29T14:31:21Z</time><course>51</course><type>1</type></trkpt>
      <trkpt lat="41.8310883" lon="-4.30881"><ele>1935</ele><speed>22</speed><time>2016-06-29T14:31:22Z</time><course>46</course><type>1</type></trkpt>
      <trkpt lat="41.83117" lon="-4.308695"><ele>1938</ele><speed>24</speed><time>2016-06-29T14:31:24Z</time><course>49</course><type>1</type></trkpt>
      <trkpt lat="41.8312616" lon="-4.3085"><ele>1940</ele><speed>38</speed><time>2016-06-29T14:31:26Z</time><course>60</course><type>1</type></trkpt>
      <trkpt lat="41.8313066" lon="-4.3083817"><ele>1940</ele><speed>40</speed><time>2016-06-29T14:31:27Z</time><course>64</course><type>1</type></trkpt>
      <trkpt lat="41.831395" lon="-4.3081067"><ele>1942</ele><speed>47</speed><time>2016-06-29T14:31:29Z</time><course>68</course><type>1</type></trkpt>
      <trkpt lat="41.8314683" lon="-4.3077767"><ele>1943</ele><speed>52</speed><time>2016-06-29T14:31:31Z</time><course>78</course><type>1</type></trkpt>
      <trkpt lat="41.8314716" lon="-4.3076"><ele>1944</ele><speed>53</speed><time>2016-06-29T14:31:32Z</time><course>91</course><type>1</type></trkpt>
      <trkpt lat="41.831445" lon="-4.3074234"><ele>1944</ele><speed>55</speed><time>2016-06-29T14:31:33Z</time><course>106</course><type>1</type></trkpt>
      <trkpt lat="41.8313233" lon="-4.3070634"><ele>1946</ele><speed>60</speed><time>2016-06-29T14:31:35Z</time><course>116</course><type>1</type></trkpt>
      <trkpt lat="41.8312466" lon="-4.3068884"><ele>1946</ele><speed>60</speed><time>2016-06-29T14:31:36Z</time><course>120</course><type>1</type></trkpt>
      <trkpt lat="41.8310733" lon="-4.30658"><ele>1945</ele><speed>59</speed><time>2016-06-29T14:31:38Z</time><course>126</course><type>1</type></trkpt>
      <trkpt lat="41.8309916" lon="-4.306435"><ele>1945</ele><speed>50</speed><time>2016-06-29T14:31:39Z</time><course>124</course><type>1</type></trkpt>
      <trkpt lat="41.8308483" lon="-4.306135"><ele>1944</ele><speed>55</speed><time>2016-06-29T14:31:41Z</time><course>121</course><type>1</type></trkpt>
      <trkpt lat="41.830775" lon="-4.3059784"><ele>1943</ele><speed>57</speed><time>2016-06-29T14:31:42Z</time><course>120</course><type>1</type></trkpt>
      <trkpt lat="41.8306999" lon="-4.3058234"><ele>1943</ele><speed>54</speed><time>2016-06-29T14:31:43Z</time><course>122</course><type>1</type></trkpt>
      <trkpt lat="41.8305466" lon="-4.3055834"><ele>1940</ele><speed>40</speed><time>2016-06-29T14:31:45Z</time><course>142</course><type>1</type></trkpt>
      <trkpt lat="41.8304583" lon="-4.3055151"><ele>1939</ele><speed>41</speed><time>2016-06-29T14:31:46Z</time><course>153</course><type>1</type></trkpt>
      <trkpt lat="41.8302533" lon="-4.30544"><ele>1936</ele><speed>44</speed><time>2016-06-29T14:31:48Z</time><course>167</course><type>1</type></trkpt>
      <trkpt lat="41.8300516" lon="-4.3054067"><ele>1934</ele><speed>37</speed><time>2016-06-29T14:31:50Z</time><course>174</course><type>1</type></trkpt>
      <trkpt lat="41.8298916" lon="-4.3054167"><ele>1931</ele><speed>31</speed><time>2016-06-29T14:31:52Z</time><course>193</course><type>1</type></trkpt>
      <trkpt lat="41.8297516" lon="-4.305495"><ele>1929</ele><speed>28</speed><time>2016-06-29T14:31:54Z</time><course>210</course><type>1</type></trkpt>
      <trkpt lat="41.8296333" lon="-4.3056084"><ele>1927</ele><speed>27</speed><time>2016-06-29T14:31:56Z</time><course>221</course><type>1</type></trkpt>
      <trkpt lat="41.8295466" lon="-4.3056967"><ele>1925</ele><speed>19</speed><time>2016-06-29T14:31:58Z</time><course>217</course><type>1</type></trkpt>
      <trkpt lat="41.829475" lon="-4.3057917"><ele>1924</ele><speed>21</speed><time>2016-06-29T14:32:00Z</time><course>234</course><type>1</type></trkpt>
      <trkpt lat="41.82945" lon="-4.30585"><ele>1923</ele><speed>20</speed><time>2016-06-29T14:32:01Z</time><course>243</course><type>1</type></trkpt>
      <trkpt lat="41.8294116" lon="-4.305965"><ele>1923</ele><speed>18</speed><time>2016-06-29T14:32:03Z</time><course>247</course><type>1</type></trkpt>
      <trkpt lat="41.8293866" lon="-4.3060484"><ele>1923</ele><speed>8</speed><time>2016-06-29T14:32:05Z</time><course>249</course><type>1</type></trkpt>
      <trkpt lat="41.8293633" lon="-4.30616"><ele>1924</ele><speed>14</speed><time>2016-06-29T14:32:08Z</time><course>257</course><type>1</type></trkpt>
      <trkpt lat="41.8293416" lon="-4.3062584"><ele>1924</ele><speed>13</speed><time>2016-06-29T14:32:10Z</time><course>259</course><type>1</type></trkpt>
      <trkpt lat="41.8293183" lon="-4.30634"><ele>1926</ele><speed>8</speed><time>2016-06-29T14:32:12Z</time><course>258</course><type>1</type></trkpt>
      <trkpt lat="41.8292866" lon="-4.3064634"><ele>1926</ele><speed>17</speed><time>2016-06-29T14:32:15Z</time><course>240</course><type>1</type></trkpt>
      <trkpt lat="41.8292816" lon="-4.30656"><ele>1926</ele><speed>13</speed><time>2016-06-29T14:32:17Z</time><course>269</course><type>1</type></trkpt>
      <trkpt lat="41.829305" lon="-4.3066017"><ele>1927</ele><speed>14</speed><time>2016-06-29T14:32:18Z</time><course>292</course><type>1</type></trkpt>
      <trkpt lat="41.829345" lon="-4.3066934"><ele>1928</ele><speed>14</speed><time>2016-06-29T14:32:20Z</time><course>299</course><type>1</type></trkpt>
      <trkpt lat="41.8293816" lon="-4.3067917"><ele>1931</ele><speed>15</speed><time>2016-06-29T14:32:22Z</time><course>297</course><type>1</type></trkpt>
      <trkpt lat="41.829425" lon="-4.3068634"><ele>1932</ele><speed>13</speed><time>2016-06-29T14:32:24Z</time><course>319</course><type>1</type></trkpt>
      <trkpt lat="41.8295" lon="-4.3068884"><ele>1936</ele><speed>18</speed><time>2016-06-29T14:32:26Z</time><course>357</course><type>1</type></trkpt>
      <trkpt lat="41.829575" lon="-4.3068984"><ele>1937</ele><speed>14</speed><time>2016-06-29T14:32:28Z</time><course>356</course><type>1</type></trkpt>
      <trkpt lat="41.82968" lon="-4.3069117"><ele>1935</ele><speed>31</speed><time>2016-06-29T14:32:30Z</time><course>1</course><type>1</type></trkpt>
      <trkpt lat="41.8297549" lon="-4.30691"><ele>1936</ele><speed>33</speed><time>2016-06-29T14:32:31Z</time><course>9</course><type>1</type></trkpt>
      <trkpt lat="41.8299" lon="-4.3067717"><ele>1936</ele><speed>37</speed><time>2016-06-29T14:32:33Z</time><course>48</course><type>1</type></trkpt>
      <trkpt lat="41.8300016" lon="-4.306615"><ele>1936</ele><speed>28</speed><time>2016-06-29T14:32:35Z</time><course>44</course><type>1</type></trkpt>
      <trkpt lat="41.8301183" lon="-4.306535"><ele>1934</ele><speed>29</speed><time>2016-06-29T14:32:37Z</time><course>25</course><type>1</type></trkpt>
      <trkpt lat="41.83026" lon="-4.3064267"><ele>1933</ele><speed>33</speed><time>2016-06-29T14:32:39Z</time><course>33</course><type>1</type></trkpt>
      <trkpt lat="41.8303966" lon="-4.3063217"><ele>1932</ele><speed>31</speed><time>2016-06-29T14:32:41Z</time><course>30</course><type>1</type></trkpt>
      <trkpt lat="41.83053" lon="-4.3062084"><ele>1932</ele><speed>30</speed><time>2016-06-29T14:32:43Z</time><course>33</course><type>1</type></trkpt>
      <trkpt lat="41.830675" lon="-4.3060984"><ele>1931</ele><speed>33</speed><time>2016-06-29T14:32:45Z</time><course>30</course><type>1</type></trkpt>
      <trkpt lat="41.8308233" lon="-4.3059717"><ele>1931</ele><speed>35</speed><time>2016-06-29T14:32:47Z</time><course>35</course><type>1</type></trkpt>
      <trkpt lat="41.8308933" lon="-4.3059034"><ele>1931</ele><speed>32</speed><time>2016-06-29T14:32:48Z</time><course>38</course><type>1</type></trkpt>
      <trkpt lat="41.8310266" lon="-4.305775"><ele>1931</ele><speed>32</speed><time>2016-06-29T14:32:50Z</time><course>32</course><type>1</type></trkpt>
      <trkpt lat="41.83116" lon="-4.3056517"><ele>1931</ele><speed>32</speed><time>2016-06-29T14:32:52Z</time><course>39</course><type>1</type></trkpt>
      <trkpt lat="41.83122" lon="-4.3055717"><ele>1931</ele><speed>35</speed><time>2016-06-29T14:32:53Z</time><course>49</course><type>1</type></trkpt>
      <trkpt lat="41.8313183" lon="-4.3053534"><ele>1930</ele><speed>40</speed><time>2016-06-29T14:32:55Z</time><course>65</course><type>1</type></trkpt>
      <trkpt lat="41.8313566" lon="-4.3052267"><ele>1929</ele><speed>41</speed><time>2016-06-29T14:32:56Z</time><course>69</course><type>1</type></trkpt>
      <trkpt lat="41.8314266" lon="-4.30495"><ele>1929</ele><speed>45</speed><time>2016-06-29T14:32:58Z</time><course>74</course><type>1</type></trkpt>
      <trkpt lat="41.8314433" lon="-4.3048"><ele>1928</ele><speed>46</speed><time>2016-06-29T14:32:59Z</time><course>85</course><type>1</type></trkpt>
      <trkpt lat="41.8314083" lon="-4.3044767"><ele>1927</ele><speed>52</speed><time>2016-06-29T14:33:01Z</time><course>104</course><type>1</type></trkpt>
      <trkpt lat="41.83132" lon="-4.304155"><ele>1927</ele><speed>50</speed><time>2016-06-29T14:33:03Z</time><course>113</course><type>1</type></trkpt>
      <trkpt lat="41.8311983" lon="-4.3038534"><ele>1927</ele><speed>52</speed><time>2016-06-29T14:33:05Z</time><course>121</course><type>1</type></trkpt>
      <trkpt lat="41.83104" lon="-4.3035517"><ele>1926</ele><speed>53</speed><time>2016-06-29T14:33:07Z</time><course>127</course><type>1</type></trkpt>
      <trkpt lat="41.8309216" lon="-4.3034434"><ele>1925</ele><speed>54</speed><time>2016-06-29T14:33:08Z</time><course>145</course><type>1</type></trkpt>
      <trkpt lat="41.830685" lon="-4.3032967"><ele>1926</ele><speed>47</speed><time>2016-06-29T14:33:10Z</time><course>161</course><type>1</type></trkpt>
      <trkpt lat="41.8304916" lon="-4.3032367"><ele>1926</ele><speed>37</speed><time>2016-06-29T14:33:12Z</time><course>165</course><type>1</type></trkpt>
      <trkpt lat="41.8304033" lon="-4.3032067"><ele>1926</ele><speed>38</speed><time>2016-06-29T14:33:13Z</time><course>166</course><type>1</type></trkpt>
      <trkpt lat="41.8303033" lon="-4.303175"><ele>1927</ele><speed>41</speed><time>2016-06-29T14:33:14Z</time><course>167</course><type>1</type></trkpt>
      <trkpt lat="41.8300966" lon="-4.3031117"><ele>1928</ele><speed>41</speed><time>2016-06-29T14:33:16Z</time><course>165</course><type>1</type></trkpt>
      <trkpt lat="41.82991" lon="-4.3030734"><ele>1928</ele><speed>35</speed><time>2016-06-29T14:33:18Z</time><course>171</course><type>1</type></trkpt>
      <trkpt lat="41.8298299" lon="-4.3030567"><ele>1928</ele><speed>33</speed><time>2016-06-29T14:33:19Z</time><course>170</course><type>1</type></trkpt>
      <trkpt lat="41.829675" lon="-4.3030084"><ele>1928</ele><speed>31</speed><time>2016-06-29T14:33:21Z</time><course>174</course><type>1</type></trkpt>
      <trkpt lat="41.8295983" lon="-4.3030084"><ele>1928</ele><speed>29</speed><time>2016-06-29T14:33:22Z</time><course>182</course><type>1</type></trkpt>
      <trkpt lat="41.82945" lon="-4.3030434"><ele>1927</ele><speed>29</speed><time>2016-06-29T14:33:24Z</time><course>195</course><type>1</type></trkpt>
      <trkpt lat="41.829305" lon="-4.303155"><ele>1925</ele><speed>34</speed><time>2016-06-29T14:33:26Z</time><course>217</course><type>1</type></trkpt>
      <trkpt lat="41.8291966" lon="-4.3032667"><ele>1925</ele><speed>25</speed><time>2016-06-29T14:33:28Z</time><course>212</course><type>1</type></trkpt>
      <trkpt lat="41.8291433" lon="-4.3033034"><ele>1925</ele><speed>25</speed><time>2016-06-29T14:33:29Z</time><course>206</course><type>1</type></trkpt>
      <trkpt lat="41.8290083" lon="-4.303425"><ele>1923</ele><speed>27</speed><time>2016-06-29T14:33:32Z</time><course>226</course><type>1</type></trkpt>
      <trkpt lat="41.8289433" lon="-4.3035617"><ele>1923</ele><speed>25</speed><time>2016-06-29T14:33:34Z</time><course>238</course><type>1</type></trkpt>
      <trkpt lat="41.8288633" lon="-4.3037417"><ele>1920</ele><speed>24</speed><time>2016-06-29T14:33:37Z</time><course>240</course><type>1</type></trkpt>
      <trkpt lat="41.828815" lon="-4.3038734"><ele>1918</ele><speed>22</speed><time>2016-06-29T14:33:39Z</time><course>241</course><type>1</type></trkpt>
      <trkpt lat="41.8287666" lon="-4.304"><ele>1916</ele><speed>20</speed><time>2016-06-29T14:33:41Z</time><course>237</course><type>1</type></trkpt>
      <trkpt lat="41.828725" lon="-4.3041067"><ele>1915</ele><speed>19</speed><time>2016-06-29T14:33:43Z</time><course>247</course><type>1</type></trkpt>
      <trkpt lat="41.82874" lon="-4.3042234"><ele>1913</ele><speed>22</speed><time>2016-06-29T14:33:45Z</time><course>288</course><type>1</type></trkpt>
      <trkpt lat="41.8287933" lon="-4.3043717"><ele>1910</ele><speed>23</speed><time>2016-06-29T14:33:47Z</time><course>294</course><type>1</type></trkpt>
      <trkpt lat="41.8288416" lon="-4.3044867"><ele>1908</ele><speed>18</speed><time>2016-06-29T14:33:49Z</time><course>307</course><type>1</type></trkpt>
      <trkpt lat="41.8289566" lon="-4.3045617"><ele>1905</ele><speed>26</speed><time>2016-06-29T14:33:51Z</time><course>338</course><type>1</type></trkpt>
      <trkpt lat="41.829095" lon="-4.3045767"><ele>1902</ele><speed>25</speed><time>2016-06-29T14:33:53Z</time><course>356</course><type>1</type></trkpt>
      <trkpt lat="41.82926" lon="-4.304535"><ele>1898</ele><speed>38</speed><time>2016-06-29T14:33:55Z</time><course>7</course><type>1</type></trkpt>
      <trkpt lat="41.8294283" lon="-4.3044534"><ele>1894</ele><speed>37</speed><time>2016-06-29T14:33:57Z</time><course>29</course><type>1</type></trkpt>
      <trkpt lat="41.829495" lon="-4.3043884"><ele>1892</ele><speed>36</speed><time>2016-06-29T14:33:58Z</time><course>36</course><type>1</type></trkpt>
      <trkpt lat="41.829645" lon="-4.3042217"><ele>1886</ele><speed>41</speed><time>2016-06-29T14:34:00Z</time><course>35</course><type>1</type></trkpt>
      <trkpt lat="41.8297283" lon="-4.3041434"><ele>1883</ele><speed>43</speed><time>2016-06-29T14:34:01Z</time><course>32</course><type>1</type></trkpt>
      <trkpt lat="41.8298866" lon="-4.3039984"><ele>1878</ele><speed>40</speed><time>2016-06-29T14:34:03Z</time><course>35</course><type>1</type></trkpt>
      <trkpt lat="41.8299666" lon="-4.30392"><ele>1876</ele><speed>38</speed><time>2016-06-29T14:34:04Z</time><course>38</course><type>1</type></trkpt>
      <trkpt lat="41.8300416" lon="-4.3038334"><ele>1873</ele><speed>38</speed><time>2016-06-29T14:34:05Z</time><course>42</course><type>1</type></trkpt>
      <trkpt lat="41.83018" lon="-4.30366"><ele>1869</ele><speed>36</speed><time>2016-06-29T14:34:07Z</time><course>43</course><type>1</type></trkpt>
      <trkpt lat="41.83032" lon="-4.3034667"><ele>1865</ele><speed>44</speed><time>2016-06-29T14:34:09Z</time><course>51</course><type>1</type></trkpt>
      <trkpt lat="41.8304433" lon="-4.3031584"><ele>1861</ele><speed>60</speed><time>2016-06-29T14:34:11Z</time><course>65</course><type>1</type></trkpt>
      <trkpt lat="41.8304883" lon="-4.3029684"><ele>1859</ele><speed>60</speed><time>2016-06-29T14:34:12Z</time><course>71</course><type>1</type></trkpt>
      <trkpt lat="41.8304833" lon="-4.3025684"><ele>1855</ele><speed>58</speed><time>2016-06-29T14:34:14Z</time><course>87</course><type>1</type></trkpt>
      <trkpt lat="41.830485" lon="-4.30237"><ele>1853</ele><speed>58</speed><time>2016-06-29T14:34:15Z</time><course>88</course><type>1</type></trkpt>
      <trkpt lat="41.83049" lon="-4.3019684"><ele>1848</ele><speed>61</speed><time>2016-06-29T14:34:17Z</time><course>84</course><type>1</type></trkpt>
      <trkpt lat="41.8305183" lon="-4.30155"><ele>1843</ele><speed>60</speed><time>2016-06-29T14:34:19Z</time><course>84</course><type>1</type></trkpt>
      <trkpt lat="41.83053" lon="-4.301165"><ele>1838</ele><speed>56</speed><time>2016-06-29T14:34:21Z</time><course>86</course><type>1</type></trkpt>
      <trkpt lat="41.8305366" lon="-4.30098"><ele>1836</ele><speed>58</speed><time>2016-06-29T14:34:22Z</time><course>84</course><type>1</type></trkpt>
      <trkpt lat="41.83055" lon="-4.3007917"><ele>1834</ele><speed>58</speed><time>2016-06-29T14:34:23Z</time><course>83</course><type>1</type></trkpt>
      <trkpt lat="41.8305933" lon="-4.3003967"><ele>1831</ele><speed>57</speed><time>2016-06-29T14:34:25Z</time><course>81</course><type>1</type></trkpt>
      <trkpt lat="41.8306099" lon="-4.3001817"><ele>1829</ele><speed>66</speed><time>2016-06-29T14:34:26Z</time><course>83</course><type>1</type></trkpt>
      <trkpt lat="41.83063" lon="-4.2997617"><ele>1824</ele><speed>60</speed><time>2016-06-29T14:34:28Z</time><course>85</course><type>1</type></trkpt>
      <trkpt lat="41.8306483" lon="-4.2995617"><ele>1822</ele><speed>60</speed><time>2016-06-29T14:34:29Z</time><course>80</course><type>1</type></trkpt>
      <trkpt lat="41.8306966" lon="-4.2991484"><ele>1818</ele><speed>61</speed><time>2016-06-29T14:34:31Z</time><course>83</course><type>1</type></trkpt>
      <trkpt lat="41.8307016" lon="-4.2989367"><ele>1816</ele><speed>64</speed><time>2016-06-29T14:34:32Z</time><course>90</course><type>1</type></trkpt>
      <trkpt lat="41.830675" lon="-4.2985084"><ele>1812</ele><speed>64</speed><time>2016-06-29T14:34:34Z</time><course>93</course><type>1</type></trkpt>
      <trkpt lat="41.8306666" lon="-4.2982884"><ele>1810</ele><speed>64</speed><time>2016-06-29T14:34:35Z</time><course>92</course><type>1</type></trkpt>
      <trkpt lat="41.8306583" lon="-4.29807"><ele>1808</ele><speed>65</speed><time>2016-06-29T14:34:36Z</time><course>91</course><type>1</type></trkpt>
      <trkpt lat="41.83064" lon="-4.2976267"><ele>1804</ele><speed>66</speed><time>2016-06-29T14:34:38Z</time><course>94</course><type>1</type></trkpt>
      <trkpt lat="41.83062" lon="-4.297415"><ele>1802</ele><speed>66</speed><time>2016-06-29T14:34:39Z</time><course>98</course><type>1</type></trkpt>
      <trkpt lat="41.83058" lon="-4.29699"><ele>1798</ele><speed>63</speed><time>2016-06-29T14:34:41Z</time><course>95</course><type>1</type></trkpt>
      <trkpt lat="41.830555" lon="-4.2965551"><ele>1793</ele><speed>66</speed><time>2016-06-29T14:34:43Z</time><course>91</course><type>1</type></trkpt>
      <trkpt lat="41.830545" lon="-4.2963434"><ele>1791</ele><speed>62</speed><time>2016-06-29T14:34:44Z</time><course>92</course><type>1</type></trkpt>
      <trkpt lat="41.8305016" lon="-4.2959434"><ele>1788</ele><speed>61</speed><time>2016-06-29T14:34:46Z</time><course>101</course><type>1</type></trkpt>
      <trkpt lat="41.8304616" lon="-4.29574"><ele>1785</ele><speed>64</speed><time>2016-06-29T14:34:47Z</time><course>104</course><type>1</type></trkpt>
      <trkpt lat="41.8303933" lon="-4.29533"><ele>1781</ele><speed>59</speed><time>2016-06-29T14:34:49Z</time><course>97</course><type>1</type></trkpt>
      <trkpt lat="41.83036" lon="-4.2949417"><ele>1777</ele><speed>60</speed><time>2016-06-29T14:34:51Z</time><course>96</course><type>1</type></trkpt>
      <trkpt lat="41.8302983" lon="-4.2945267"><ele>1773</ele><speed>65</speed><time>2016-06-29T14:34:53Z</time><course>104</course><type>1</type></trkpt>
      <trkpt lat="41.83026" lon="-4.2943184"><ele>1771</ele><speed>60</speed><time>2016-06-29T14:34:54Z</time><course>104</course><type>1</type></trkpt>
      <trkpt lat="41.8301899" lon="-4.2939534"><ele>1767</ele><speed>53</speed><time>2016-06-29T14:34:56Z</time><course>102</course><type>1</type></trkpt>
      <trkpt lat="41.8301633" lon="-4.2937717"><ele>1765</ele><speed>57</speed><time>2016-06-29T14:34:57Z</time><course>98</course><type>1</type></trkpt>
      <trkpt lat="41.8301466" lon="-4.2933567"><ele>1760</ele><speed>61</speed><time>2016-06-29T14:34:59Z</time><course>91</course><type>1</type></trkpt>
      <trkpt lat="41.8301733" lon="-4.2929534"><ele>1755</ele><speed>60</speed><time>2016-06-29T14:35:01Z</time><course>82</course><type>1</type></trkpt>
      <trkpt lat="41.8302083" lon="-4.292765"><ele>1753</ele><speed>56</speed><time>2016-06-29T14:35:02Z</time><course>77</course><type>1</type></trkpt>
      <trkpt lat="41.830275" lon="-4.2923767"><ele>1748</ele><speed>60</speed><time>2016-06-29T14:35:04Z</time><course>75</course><type>1</type></trkpt>
      <trkpt lat="41.8303166" lon="-4.2921767"><ele>1746</ele><speed>62</speed><time>2016-06-29T14:35:05Z</time><course>74</course><type>1</type></trkpt>
      <trkpt lat="41.8303666" lon="-4.2917834"><ele>1741</ele><speed>61</speed><time>2016-06-29T14:35:07Z</time><course>81</course><type>1</type></trkpt>
      <trkpt lat="41.8303766" lon="-4.29144"><ele>1735</ele><speed>51</speed><time>2016-06-29T14:35:09Z</time><course>86</course><type>1</type></trkpt>
      <trkpt lat="41.83041" lon="-4.291035"><ele>1729</ele><speed>65</speed><time>2016-06-29T14:35:11Z</time><course>81</course><type>1</type></trkpt>
      <trkpt lat="41.830435" lon="-4.2906167"><ele>1724</ele><speed>59</speed><time>2016-06-29T14:35:13Z</time><course>85</course><type>1</type></trkpt>
      <trkpt lat="41.8304483" lon="-4.290415"><ele>1721</ele><speed>56</speed><time>2016-06-29T14:35:14Z</time><course>85</course><type>1</type></trkpt>
      <trkpt lat="41.8304783" lon="-4.2900234"><ele>1716</ele><speed>59</speed><time>2016-06-29T14:35:16Z</time><course>81</course><type>1</type></trkpt>
      <trkpt lat="41.8305083" lon="-4.28982"><ele>1715</ele><speed>66</speed><time>2016-06-29T14:35:17Z</time><course>78</course><type>1</type></trkpt>
      <trkpt lat="41.8305666" lon="-4.2894"><ele>1711</ele><speed>64</speed><time>2016-06-29T14:35:19Z</time><course>81</course><type>1</type></trkpt>
      <trkpt lat="41.8306099" lon="-4.2890084"><ele>1708</ele><speed>56</speed><time>2016-06-29T14:35:21Z</time><course>82</course><type>1</type></trkpt>
      <trkpt lat="41.8306633" lon="-4.2886434"><ele>1705</ele><speed>55</speed><time>2016-06-29T14:35:23Z</time><course>75</course><type>1</type></trkpt>
      <trkpt lat="41.830695" lon="-4.2884667"><ele>1703</ele><speed>54</speed><time>2016-06-29T14:35:24Z</time><course>76</course><type>1</type></trkpt>
      <trkpt lat="41.830735" lon="-4.2881634"><ele>1702</ele><speed>44</speed><time>2016-06-29T14:35:26Z</time><course>84</course><type>1</type></trkpt>
      <trkpt lat="41.8307433" lon="-4.2878584"><ele>1700</ele><speed>44</speed><time>2016-06-29T14:35:28Z</time><course>86</course><type>1</type></trkpt>
      <trkpt lat="41.8307716" lon="-4.2875384"><ele>1697</ele><speed>51</speed><time>2016-06-29T14:35:30Z</time><course>74</course><type>1</type></trkpt>
      <trkpt lat="41.8308033" lon="-4.2873817"><ele>1696</ele><speed>47</speed><time>2016-06-29T14:35:31Z</time><course>71</course><type>1</type></trkpt>
      <trkpt lat="41.8308916" lon="-4.2871134"><ele>1695</ele><speed>43</speed><time>2016-06-29T14:35:33Z</time><course>64</course><type>1</type></trkpt>
      <trkpt lat="41.830975" lon="-4.2868567"><ele>1694</ele><speed>42</speed><time>2016-06-29T14:35:35Z</time><course>68</course><type>1</type></trkpt>
      <trkpt lat="41.8310666" lon="-4.2865934"><ele>1692</ele><speed>46</speed><time>2016-06-29T14:35:37Z</time><course>62</course><type>1</type></trkpt>
      <trkpt lat="41.8311816" lon="-4.28636"><ele>1691</ele><speed>39</speed><time>2016-06-29T14:35:39Z</time><course>50</course><type>1</type></trkpt>
      <trkpt lat="41.8312966" lon="-4.2861917"><ele>1692</ele><speed>35</speed><time>2016-06-29T14:35:41Z</time><course>53</course><type>1</type></trkpt>
      <trkpt lat="41.8313416" lon="-4.2860917"><ele>1692</ele><speed>36</speed><time>2016-06-29T14:35:42Z</time><course>62</course><type>1</type></trkpt>
      <trkpt lat="41.831425" lon="-4.2858867"><ele>1690</ele><speed>33</speed><time>2016-06-29T14:35:44Z</time><course>58</course><type>1</type></trkpt>
      <trkpt lat="41.8314716" lon="-4.2858134"><ele>1690</ele><speed>28</speed><time>2016-06-29T14:35:45Z</time><course>43</course><type>1</type></trkpt>
      <trkpt lat="41.8315616" lon="-4.285755"><ele>1690</ele><speed>19</speed><time>2016-06-29T14:35:47Z</time><course>17</course><type>1</type></trkpt>
      <trkpt lat="41.8316016" lon="-4.2857367"><ele>1690</ele><speed>16</speed><time>2016-06-29T14:35:48Z</time><course>22</course><type>1</type></trkpt>
      <trkpt lat="41.8316416" lon="-4.2856684"><ele>1689</ele><speed>13</speed><time>2016-06-29T14:35:50Z</time><course>50</course><type>1</type></trkpt>
      <trkpt lat="41.8316983" lon="-4.2856334"><ele>1689</ele><speed>13</speed><time>2016-06-29T14:35:52Z</time><course>7</course><type>1</type></trkpt>
      <trkpt lat="41.83175" lon="-4.285615"><ele>1689</ele><speed>6</speed><time>2016-06-29T14:35:54Z</time><course>22</course><type>1</type></trkpt>
      <trkpt lat="41.831815" lon="-4.2856867"><ele>1690</ele><speed>11</speed><time>2016-06-29T14:35:59Z</time><course>275</course><type>1</type></trkpt>
      <trkpt lat="41.8318033" lon="-4.28576"><ele>1690</ele><speed>13</speed><time>2016-06-29T14:36:01Z</time><course>232</course><type>1</type></trkpt>
      <trkpt lat="41.8317566" lon="-4.2858534"><ele>1690</ele><speed>19</speed><time>2016-06-29T14:36:03Z</time><course>238</course><type>1</type></trkpt>
      <trkpt lat="41.8317033" lon="-4.286035"><ele>1690</ele><speed>18</speed><time>2016-06-29T14:36:06Z</time><course>241</course><type>1</type></trkpt>
      <trkpt lat="41.8316033" lon="-4.2861684"><ele>1690</ele><speed>20</speed><time>2016-06-29T14:36:09Z</time><course>221</course><type>1</type></trkpt>
      <trkpt lat="41.83158" lon="-4.286215"><ele>1690</ele><speed>17</speed><time>2016-06-29T14:36:10Z</time><course>229</course><type>1</type></trkpt>
      <trkpt lat="41.83153" lon="-4.28635"><ele>1689</ele><speed>18</speed><time>2016-06-29T14:36:13Z</time><course>256</course><type>1</type></trkpt>
      <trkpt lat="41.8314583" lon="-4.2864234"><ele>1687</ele><speed>17</speed><time>2016-06-29T14:36:15Z</time><course>199</course><type>1</type></trkpt>
      <trkpt lat="41.831415" lon="-4.2864367"><ele>1686</ele><speed>18</speed><time>2016-06-29T14:36:16Z</time><course>184</course><type>1</type></trkpt>
      <trkpt lat="41.83135" lon="-4.28648"><ele>1684</ele><speed>12</speed><time>2016-06-29T14:36:19Z</time><course>251</course><type>1</type></trkpt>
      <trkpt lat="41.831345" lon="-4.2865434"><ele>1682</ele><speed>8</speed><time>2016-06-29T14:36:21Z</time><course>270</course><type>1</type></trkpt>
      <trkpt lat="41.831385" lon="-4.2865367"><ele>1680</ele><speed>10</speed><time>2016-06-29T14:36:23Z</time><course>12</course><type>1</type></trkpt>
      <trkpt lat="41.8314316" lon="-4.2865317"><ele>1678</ele><speed>18</speed><time>2016-06-29T14:36:24Z</time><course>6</course><type>1</type></trkpt>
      <trkpt lat="41.8315283" lon="-4.2865184"><ele>1675</ele><speed>16</speed><time>2016-06-29T14:36:26Z</time><course>4</course><type>1</type></trkpt>
      <trkpt lat="41.8315983" lon="-4.286485"><ele>1671</ele><speed>5</speed><time>2016-06-29T14:36:29Z</time><course>1</course><type>1</type></trkpt>
      <trkpt lat="41.8316083" lon="-4.2865567"><ele>1669</ele><speed>11</speed><time>2016-06-29T14:36:32Z</time><course>287</course><type>1</type></trkpt>
      <trkpt lat="41.8316733" lon="-4.2866334"><ele>1669</ele><speed>7</speed><time>2016-06-29T14:36:36Z</time><course>344</course><type>1</type></trkpt>
      <trkpt lat="41.8317566" lon="-4.2866667"><ele>1667</ele><speed>11</speed><time>2016-06-29T14:36:39Z</time><course>338</course><type>1</type></trkpt>
      <trkpt lat="41.831835" lon="-4.286675"><ele>1664</ele><speed>17</speed><time>2016-06-29T14:36:41Z</time><course>5</course><type>1</type></trkpt>
      <trkpt lat="41.8319216" lon="-4.286695"><ele>1663</ele><speed>19</speed><time>2016-06-29T14:36:43Z</time><course>346</course><type>1</type></trkpt>
      <trkpt lat="41.8320166" lon="-4.2867467"><ele>1662</ele><speed>24</speed><time>2016-06-29T14:36:45Z</time><course>332</course><type>1</type></trkpt>
      <trkpt lat="41.8321066" lon="-4.286745"><ele>1662</ele><speed>14</speed><time>2016-06-29T14:36:47Z</time><course>28</course><type>1</type></trkpt>
      <trkpt lat="41.8322083" lon="-4.286655"><ele>1660</ele><speed>16</speed><time>2016-06-29T14:36:50Z</time><course>19</course><type>1</type></trkpt>
      <trkpt lat="41.8322783" lon="-4.2866584"><ele>1659</ele><speed>21</speed><time>2016-06-29T14:36:52Z</time><course>355</course><type>1</type></trkpt>
      <trkpt lat="41.8323649" lon="-4.28661"><ele>1659</ele><speed>26</speed><time>2016-06-29T14:36:54Z</time><course>45</course><type>1</type></trkpt>
      <trkpt lat="41.83243" lon="-4.2865084"><ele>1659</ele><speed>21</speed><time>2016-06-29T14:36:56Z</time><course>52</course><type>1</type></trkpt>
      <trkpt lat="41.8325116" lon="-4.2864517"><ele>1658</ele><speed>14</speed><time>2016-06-29T14:36:59Z</time><course>13</course><type>1</type></trkpt>
      <trkpt lat="41.8325633" lon="-4.2863884"><ele>1657</ele><speed>23</speed><time>2016-06-29T14:37:01Z</time><course>55</course><type>1</type></trkpt>
      <trkpt lat="41.8326016" lon="-4.2862734"><ele>1657</ele><speed>18</speed><time>2016-06-29T14:37:03Z</time><course>61</course><type>1</type></trkpt>
      <trkpt lat="41.83267" lon="-4.2861684"><ele>1658</ele><speed>17</speed><time>2016-06-29T14:37:05Z</time><course>50</course><type>1</type></trkpt>
      <trkpt lat="41.8327366" lon="-4.286055"><ele>1659</ele><speed>21</speed><time>2016-06-29T14:37:07Z</time><course>62</course><type>1</type></trkpt>
      <trkpt lat="41.8328" lon="-4.285925"><ele>1660</ele><speed>27</speed><time>2016-06-29T14:37:09Z</time><course>62</course><type>1</type></trkpt>
      <trkpt lat="41.8328683" lon="-4.2857701"><ele>1662</ele><speed>28</speed><time>2016-06-29T14:37:11Z</time><course>65</course><type>1</type></trkpt>
      <trkpt lat="41.8329583" lon="-4.2856234"><ele>1665</ele><speed>30</speed><time>2016-06-29T14:37:13Z</time><course>55</course><type>1</type></trkpt>
      <trkpt lat="41.8329933" lon="-4.2855317"><ele>1666</ele><speed>26</speed><time>2016-06-29T14:37:14Z</time><course>65</course><type>1</type></trkpt>
      <trkpt lat="41.8330583" lon="-4.2853417"><ele>1669</ele><speed>34</speed><time>2016-06-29T14:37:16Z</time><course>71</course><type>1</type></trkpt>
      <trkpt lat="41.8330933" lon="-4.28521"><ele>1670</ele><speed>43</speed><time>2016-06-29T14:37:17Z</time><course>80</course><type>1</type></trkpt>
      <trkpt lat="41.833075" lon="-4.2848867"><ele>1674</ele><speed>56</speed><time>2016-06-29T14:37:19Z</time><course>114</course><type>1</type></trkpt>
      <trkpt lat="41.8330166" lon="-4.2847134"><ele>1675</ele><speed>57</speed><time>2016-06-29T14:37:20Z</time><course>120</course><type>1</type></trkpt>
      <trkpt lat="41.8328733" lon="-4.2844284"><ele>1678</ele><speed>49</speed><time>2016-06-29T14:37:22Z</time><course>129</course><type>1</type></trkpt>
      <trkpt lat="41.832795" lon="-4.284305"><ele>1679</ele><speed>48</speed><time>2016-06-29T14:37:23Z</time><course>132</course><type>1</type></trkpt>
      <trkpt lat="41.8325983" lon="-4.284085"><ele>1681</ele><speed>52</speed><time>2016-06-29T14:37:25Z</time><course>142</course><type>1</type></trkpt>
      <trkpt lat="41.8323883" lon="-4.2838667"><ele>1683</ele><speed>53</speed><time>2016-06-29T14:37:27Z</time><course>140</course><type>1</type></trkpt>
      <trkpt lat="41.832175" lon="-4.2836667"><ele>1683</ele><speed>54</speed><time>2016-06-29T14:37:29Z</time><course>152</course><type>1</type></trkpt>
      <trkpt lat="41.832055" lon="-4.2835967"><ele>1683</ele><speed>50</speed><time>2016-06-29T14:37:30Z</time><course>157</course><type>1</type></trkpt>
      <trkpt lat="41.83192" lon="-4.2835817"><ele>1683</ele><speed>52</speed><time>2016-06-29T14:37:31Z</time><course>177</course><type>1</type></trkpt>
      <trkpt lat="41.8317933" lon="-4.2835917"><ele>1684</ele><speed>50</speed><time>2016-06-29T14:37:32Z</time><course>183</course><type>1</type></trkpt>
      <trkpt lat="41.8315633" lon="-4.2836517"><ele>1686</ele><speed>42</speed><time>2016-06-29T14:37:34Z</time><course>186</course><type>1</type></trkpt>
      <trkpt lat="41.8314649" lon="-4.2836667"><ele>1686</ele><speed>38</speed><time>2016-06-29T14:37:35Z</time><course>188</course><type>1</type></trkpt>
      <trkpt lat="41.8313716" lon="-4.2836917"><ele>1687</ele><speed>39</speed><time>2016-06-29T14:37:36Z</time><course>198</course><type>1</type></trkpt>
      <trkpt lat="41.8312233" lon="-4.2837884"><ele>1688</ele><speed>33</speed><time>2016-06-29T14:37:38Z</time><course>212</course><type>1</type></trkpt>
      <trkpt lat="41.8311833" lon="-4.28384"><ele>1689</ele><speed>26</speed><time>2016-06-29T14:37:39Z</time><course>223</course><type>1</type></trkpt>
      <trkpt lat="41.8311133" lon="-4.2839567"><ele>1691</ele><speed>19</speed><time>2016-06-29T14:37:41Z</time><course>227</course><type>1</type></trkpt>
      <trkpt lat="41.8310566" lon="-4.2840467"><ele>1693</ele><speed>18</speed><time>2016-06-29T14:37:43Z</time><course>232</course><type>1</type></trkpt>
      <trkpt lat="41.8310716" lon="-4.2842084"><ele>1696</ele><speed>18</speed><time>2016-06-29T14:37:46Z</time><course>298</course><type>1</type></trkpt>
      <trkpt lat="41.831115" lon="-4.2842984"><ele>1700</ele><speed>6</speed><time>2016-06-29T14:37:49Z</time><course>338</course><type>1</type></trkpt>
      <trkpt lat="41.8311866" lon="-4.28433"><ele>1702</ele><speed>8</speed><time>2016-06-29T14:37:52Z</time><course>341</course><type>1</type></trkpt>
      <trkpt lat="41.8312333" lon="-4.2843234"><ele>1704</ele><speed>8</speed><time>2016-06-29T14:37:54Z</time><course>13</course><type>1</type></trkpt>
      <trkpt lat="41.8313033" lon="-4.284235"><ele>1706</ele><speed>26</speed><time>2016-06-29T14:37:56Z</time><course>48</course><type>1</type></trkpt>
      <trkpt lat="41.8313933" lon="-4.28406"><ele>1708</ele><speed>37</speed><time>2016-06-29T14:37:58Z</time><course>68</course><type>1</type></trkpt>
      <trkpt lat="41.831445" lon="-4.2838067"><ele>1712</ele><speed>39</speed><time>2016-06-29T14:38:00Z</time><course>86</course><type>1</type></trkpt>
      <trkpt lat="41.8314566" lon="-4.28351"><ele>1714</ele><speed>48</speed><time>2016-06-29T14:38:02Z</time><course>92</course><type>1</type></trkpt>
      <trkpt lat="41.8314333" lon="-4.28316"><ele>1717</ele><speed>56</speed><time>2016-06-29T14:38:04Z</time><course>100</course><type>1</type></trkpt>
      <trkpt lat="41.8313266" lon="-4.2828384"><ele>1720</ele><speed>51</speed><time>2016-06-29T14:38:06Z</time><course>119</course><type>1</type></trkpt>
      <trkpt lat="41.8311616" lon="-4.282595"><ele>1725</ele><speed>50</speed><time>2016-06-29T14:38:08Z</time><course>132</course><type>1</type></trkpt>
      <trkpt lat="41.8310766" lon="-4.2824684"><ele>1726</ele><speed>45</speed><time>2016-06-29T14:38:09Z</time><course>136</course><type>1</type></trkpt>
      <trkpt lat="41.8309133" lon="-4.28225"><ele>1730</ele><speed>46</speed><time>2016-06-29T14:38:11Z</time><course>133</course><type>1</type></trkpt>
      <trkpt lat="41.8308316" lon="-4.282135"><ele>1731</ele><speed>48</speed><time>2016-06-29T14:38:12Z</time><course>133</course><type>1</type></trkpt>
      <trkpt lat="41.8306416" lon="-4.2819217"><ele>1735</ele><speed>50</speed><time>2016-06-29T14:38:14Z</time><course>142</course><type>1</type></trkpt>
      <trkpt lat="41.8304233" lon="-4.2817867"><ele>1738</ele><speed>48</speed><time>2016-06-29T14:38:16Z</time><course>159</course><type>1</type></trkpt>
      <trkpt lat="41.83031" lon="-4.2817617"><ele>1740</ele><speed>46</speed><time>2016-06-29T14:38:17Z</time><course>166</course><type>1</type></trkpt>
      <trkpt lat="41.8302049" lon="-4.2817717"><ele>1741</ele><speed>42</speed><time>2016-06-29T14:38:18Z</time><course>182</course><type>1</type></trkpt>
      <trkpt lat="41.8300999" lon="-4.2817867"><ele>1743</ele><speed>41</speed><time>2016-06-29T14:38:19Z</time><course>187</course><type>1</type></trkpt>
      <trkpt lat="41.8299066" lon="-4.2818517"><ele>1747</ele><speed>40</speed><time>2016-06-29T14:38:21Z</time><course>192</course><type>1</type></trkpt>
      <trkpt lat="41.8297216" lon="-4.2819067"><ele>1748</ele><speed>38</speed><time>2016-06-29T14:38:23Z</time><course>192</course><type>1</type></trkpt>
      <trkpt lat="41.8295666" lon="-4.281995"><ele>1750</ele><speed>34</speed><time>2016-06-29T14:38:25Z</time><course>209</course><type>1</type></trkpt>
      <trkpt lat="41.829465" lon="-4.2821117"><ele>1752</ele><speed>25</speed><time>2016-06-29T14:38:27Z</time><course>222</course><type>1</type></trkpt>
      <trkpt lat="41.829405" lon="-4.2822117"><ele>1754</ele><speed>19</speed><time>2016-06-29T14:38:29Z</time><course>232</course><type>1</type></trkpt>
      <trkpt lat="41.8294016" lon="-4.2822667"><ele>1755</ele><speed>5</speed><time>2016-06-29T14:38:31Z</time><course>255</course><type>1</type></trkpt>
      <trkpt lat="41.829445" lon="-4.2823084"><ele>1757</ele><speed>6</speed><time>2016-06-29T14:38:34Z</time><course>350</course><type>1</type></trkpt>
      <trkpt lat="41.8295" lon="-4.2822917"><ele>1756</ele><speed>13</speed><time>2016-06-29T14:38:38Z</time><course>23</course><type>1</type></trkpt>
      <trkpt lat="41.829575" lon="-4.2822634"><ele>1756</ele><speed>19</speed><time>2016-06-29T14:38:40Z</time><course>10</course><type>1</type></trkpt>
      <trkpt lat="41.82962" lon="-4.2822434"><ele>1756</ele><speed>19</speed><time>2016-06-29T14:38:41Z</time><course>20</course><type>1</type></trkpt>
      <trkpt lat="41.8296983" lon="-4.2821667"><ele>1757</ele><speed>19</speed><time>2016-06-29T14:38:43Z</time><course>49</course><type>1</type></trkpt>
      <trkpt lat="41.8297266" lon="-4.2821167"><ele>1757</ele><speed>19</speed><time>2016-06-29T14:38:44Z</time><course>58</course><type>1</type></trkpt>
      <trkpt lat="41.829805" lon="-4.2819817"><ele>1757</ele><speed>31</speed><time>2016-06-29T14:38:46Z</time><course>49</course><type>1</type></trkpt>
      <trkpt lat="41.8298566" lon="-4.2818967"><ele>1758</ele><speed>36</speed><time>2016-06-29T14:38:47Z</time><course>48</course><type>1</type></trkpt>
      <trkpt lat="41.8299433" lon="-4.2817634"><ele>1757</ele><speed>19</speed><time>2016-06-29T14:38:49Z</time><course>39</course><type>1</type></trkpt>
      <trkpt lat="41.8300283" lon="-4.2817017"><ele>1757</ele><speed>19</speed><time>2016-06-29T14:38:51Z</time><course>25</course><type>1</type></trkpt>
      <trkpt lat="41.8301283" lon="-4.2816134"><ele>1757</ele><speed>26</speed><time>2016-06-29T14:38:53Z</time><course>37</course><type>1</type></trkpt>
      <trkpt lat="41.8302483" lon="-4.2814767"><ele>1757</ele><speed>35</speed><time>2016-06-29T14:38:55Z</time><course>41</course><type>1</type></trkpt>
      <trkpt lat="41.8303666" lon="-4.2813284"><ele>1756</ele><speed>34</speed><time>2016-06-29T14:38:57Z</time><course>36</course><type>1</type></trkpt>
      <trkpt lat="41.8304733" lon="-4.2812184"><ele>1756</ele><speed>25</speed><time>2016-06-29T14:38:59Z</time><course>33</course><type>1</type></trkpt>
      <trkpt lat="41.8305516" lon="-4.2811234"><ele>1757</ele><speed>21</speed><time>2016-06-29T14:39:01Z</time><course>42</course><type>1</type></trkpt>
      <trkpt lat="41.8306366" lon="-4.2810134"><ele>1757</ele><speed>26</speed><time>2016-06-29T14:39:03Z</time><course>47</course><type>1</type></trkpt>
      <trkpt lat="41.830685" lon="-4.2809384"><ele>1757</ele><speed>30</speed><time>2016-06-29T14:39:04Z</time><course>50</course><type>1</type></trkpt>
      <trkpt lat="41.8307333" lon="-4.2808534"><ele>1757</ele><speed>35</speed><time>2016-06-29T14:39:05Z</time><course>45</course><type>1</type></trkpt>
      <trkpt lat="41.8308166" lon="-4.280705"><ele>1757</ele><speed>27</speed><time>2016-06-29T14:39:07Z</time><course>53</course><type>1</type></trkpt>
      <trkpt lat="41.8308866" lon="-4.2805484"><ele>1758</ele><speed>30</speed><time>2016-06-29T14:39:09Z</time><course>58</course><type>1</type></trkpt>
      <trkpt lat="41.83098" lon="-4.28036"><ele>1759</ele><speed>36</speed><time>2016-06-29T14:39:11Z</time><course>60</course><type>1</type></trkpt>
      <trkpt lat="41.8310666" lon="-4.2801567"><ele>1760</ele><speed>33</speed><time>2016-06-29T14:39:13Z</time><course>56</course><type>1</type></trkpt>
      <trkpt lat="41.8311283" lon="-4.280005"><ele>1762</ele><speed>24</speed><time>2016-06-29T14:39:15Z</time><course>62</course><type>1</type></trkpt>
      <trkpt lat="41.831165" lon="-4.2799267"><ele>1763</ele><speed>26</speed><time>2016-06-29T14:39:16Z</time><course>63</course><type>1</type></trkpt>
      <trkpt lat="41.8312083" lon="-4.2798267"><ele>1764</ele><speed>33</speed><time>2016-06-29T14:39:17Z</time><course>68</course><type>1</type></trkpt>
      <trkpt lat="41.8312716" lon="-4.279565"><ele>1768</ele><speed>45</speed><time>2016-06-29T14:39:19Z</time><course>80</course><type>1</type></trkpt>
      <trkpt lat="41.8312316" lon="-4.279215"><ele>1771</ele><speed>58</speed><time>2016-06-29T14:39:21Z</time><course>114</course><type>1</type></trkpt>
      <trkpt lat="41.8310216" lon="-4.2789434"><ele>1773</ele><speed>61</speed><time>2016-06-29T14:39:23Z</time><course>150</course><type>1</type></trkpt>
      <trkpt lat="41.8308866" lon="-4.27889"><ele>1776</ele><speed>55</speed><time>2016-06-29T14:39:24Z</time><course>166</course><type>1</type></trkpt>
      <trkpt lat="41.8306583" lon="-4.2788634"><ele>1779</ele><speed>41</speed><time>2016-06-29T14:39:26Z</time><course>185</course><type>1</type></trkpt>
      <trkpt lat="41.83049" lon="-4.27894"><ele>1781</ele><speed>35</speed><time>2016-06-29T14:39:28Z</time><course>215</course><type>1</type></trkpt>
      <trkpt lat="41.8304233" lon="-4.279015"><ele>1782</ele><speed>36</speed><time>2016-06-29T14:39:29Z</time><course>223</course><type>1</type></trkpt>
      <trkpt lat="41.8304666" lon="-4.2791067"><ele>1785</ele><speed>10</speed><time>2016-06-29T14:39:31Z</time><course>320</course><type>1</type></trkpt>
      <trkpt lat="41.8305283" lon="-4.279065"><ele>1789</ele><speed>14</speed><time>2016-06-29T14:39:33Z</time><course>40</course><type>1</type></trkpt>
      <trkpt lat="41.8306166" lon="-4.2789617"><ele>1793</ele><speed>24</speed><time>2016-06-29T14:39:35Z</time><course>43</course><type>1</type></trkpt>
      <trkpt lat="41.8306733" lon="-4.2788934"><ele>1795</ele><speed>30</speed><time>2016-06-29T14:39:36Z</time><course>42</course><type>1</type></trkpt>
      <trkpt lat="41.8307916" lon="-4.278665"><ele>1797</ele><speed>50</speed><time>2016-06-29T14:39:38Z</time><course>62</course><type>1</type></trkpt>
      <trkpt lat="41.8308333" lon="-4.2784984"><ele>1798</ele><speed>55</speed><time>2016-06-29T14:39:39Z</time><course>76</course><type>1</type></trkpt>
      <trkpt lat="41.8308683" lon="-4.2781601"><ele>1802</ele><speed>44</speed><time>2016-06-29T14:39:41Z</time><course>84</course><type>1</type></trkpt>
      <trkpt lat="41.8308816" lon="-4.2780284"><ele>1804</ele><speed>38</speed><time>2016-06-29T14:39:42Z</time><course>80</course><type>1</type></trkpt>
      <trkpt lat="41.830905" lon="-4.2779017"><ele>1806</ele><speed>38</speed><time>2016-06-29T14:39:43Z</time><course>74</course><type>1</type></trkpt>
      <trkpt lat="41.8309266" lon="-4.27776"><ele>1807</ele><speed>44</speed><time>2016-06-29T14:39:44Z</time><course>80</course><type>1</type></trkpt>
      <trkpt lat="41.8309433" lon="-4.2776017"><ele>1809</ele><speed>49</speed><time>2016-06-29T14:39:45Z</time><course>84</course><type>1</type></trkpt>
      <trkpt lat="41.8308349" lon="-4.2772117"><ele>1810</ele><speed>63</speed><time>2016-06-29T14:39:47Z</time><course>123</course><type>1</type></trkpt>
      <trkpt lat="41.8307383" lon="-4.277055"><ele>1811</ele><speed>60</speed><time>2016-06-29T14:39:48Z</time><course>133</course><type>1</type></trkpt>
      <trkpt lat="41.8305183" lon="-4.276825"><ele>1814</ele><speed>52</speed><time>2016-06-29T14:39:50Z</time><course>148</course><type>1</type></trkpt>
      <trkpt lat="41.830245" lon="-4.2766984"><ele>1816</ele><speed>54</speed><time>2016-06-29T14:39:52Z</time><course>160</course><type>1</type></trkpt>
      <trkpt lat="41.8301066" lon="-4.2766384"><ele>1817</ele><speed>56</speed><time>2016-06-29T14:39:53Z</time><course>161</course><type>1</type></trkpt>
      <trkpt lat="41.8299783" lon="-4.27658"><ele>1818</ele><speed>54</speed><time>2016-06-29T14:39:54Z</time><course>162</course><type>1</type></trkpt>
      <trkpt lat="41.8297566" lon="-4.276445"><ele>1821</ele><speed>48</speed><time>2016-06-29T14:39:56Z</time><course>158</course><type>1</type></trkpt>
      <trkpt lat="41.82964" lon="-4.276395"><ele>1822</ele><speed>50</speed><time>2016-06-29T14:39:57Z</time><course>162</course><type>1</type></trkpt>
      <trkpt lat="41.8293966" lon="-4.2763384"><ele>1824</ele><speed>47</speed><time>2016-06-29T14:39:59Z</time><course>172</course><type>1</type></trkpt>
      <trkpt lat="41.82928" lon="-4.27633"><ele>1825</ele><speed>45</speed><time>2016-06-29T14:40:00Z</time><course>177</course><type>1</type></trkpt>
      <trkpt lat="41.8290633" lon="-4.276325"><ele>1826</ele><speed>43</speed><time>2016-06-29T14:40:02Z</time><course>178</course><type>1</type></trkpt>
      <trkpt lat="41.8288316" lon="-4.276335"><ele>1826</ele><speed>47</speed><time>2016-06-29T14:40:04Z</time><course>184</course><type>1</type></trkpt>
      <trkpt lat="41.8287133" lon="-4.2763517"><ele>1826</ele><speed>48</speed><time>2016-06-29T14:40:05Z</time><course>187</course><type>1</type></trkpt>
      <trkpt lat="41.8286" lon="-4.2763784"><ele>1827</ele><speed>46</speed><time>2016-06-29T14:40:06Z</time><course>197</course><type>1</type></trkpt>
      <trkpt lat="41.828405" lon="-4.2764534"><ele>1827</ele><speed>38</speed><time>2016-06-29T14:40:08Z</time><course>198</course><type>1</type></trkpt>
      <trkpt lat="41.828255" lon="-4.2765417"><ele>1827</ele><speed>36</speed><time>2016-06-29T14:40:10Z</time><course>207</course><type>1</type></trkpt>
      <trkpt lat="41.82818" lon="-4.2765767"><ele>1828</ele><speed>35</speed><time>2016-06-29T14:40:11Z</time><course>201</course><type>1</type></trkpt>
      <trkpt lat="41.8280483" lon="-4.2766167"><ele>1829</ele><speed>26</speed><time>2016-06-29T14:40:13Z</time><course>190</course><type>1</type></trkpt>
      <trkpt lat="41.8279583" lon="-4.27671"><ele>1830</ele><speed>16</speed><time>2016-06-29T14:40:16Z</time><course>249</course><type>1</type></trkpt>
      <trkpt lat="41.8279483" lon="-4.276795"><ele>1831</ele><speed>12</speed><time>2016-06-29T14:40:18Z</time><course>263</course><type>1</type></trkpt>
      <trkpt lat="41.8279533" lon="-4.2769267"><ele>1834</ele><speed>8</speed><time>2016-06-29T14:40:22Z</time><course>251</course><type>1</type></trkpt>
      <trkpt lat="41.82801" lon="-4.2769334"><ele>1842</ele><speed>4</speed><time>2016-06-29T14:40:29Z</time><course>349</course><type>1</type></trkpt>
      <trkpt lat="41.8280966" lon="-4.2769617"><ele>1848</ele><speed>13</speed><time>2016-06-29T14:40:32Z</time><course>348</course><type>1</type></trkpt>
      <trkpt lat="41.8281633" lon="-4.2769684"><ele>1851</ele><speed>11</speed><time>2016-06-29T14:40:34Z</time><course>1</course><type>1</type></trkpt>
      <trkpt lat="41.8282733" lon="-4.2768817"><ele>1855</ele><speed>24</speed><time>2016-06-29T14:40:37Z</time><course>34</course><type>1</type></trkpt>
      <trkpt lat="41.8283316" lon="-4.2768317"><ele>1857</ele><speed>29</speed><time>2016-06-29T14:40:38Z</time><course>36</course><type>1</type></trkpt>
      <trkpt lat="41.82846" lon="-4.2766767"><ele>1860</ele><speed>33</speed><time>2016-06-29T14:40:40Z</time><course>44</course><type>1</type></trkpt>
      <trkpt lat="41.828525" lon="-4.27661"><ele>1862</ele><speed>33</speed><time>2016-06-29T14:40:41Z</time><course>36</course><type>1</type></trkpt>
      <trkpt lat="41.82866" lon="-4.276505"><ele>1865</ele><speed>31</speed><time>2016-06-29T14:40:43Z</time><course>27</course><type>1</type></trkpt>
      <trkpt lat="41.8287283" lon="-4.2764584"><ele>1868</ele><speed>24</speed><time>2016-06-29T14:40:44Z</time><course>35</course><type>1</type></trkpt>
      <trkpt lat="41.828825" lon="-4.2763667"><ele>1873</ele><speed>22</speed><time>2016-06-29T14:40:46Z</time><course>42</course><type>1</type></trkpt>
      <trkpt lat="41.8288733" lon="-4.27631"><ele>1876</ele><speed>25</speed><time>2016-06-29T14:40:47Z</time><course>45</course><type>1</type></trkpt>
      <trkpt lat="41.82893" lon="-4.2762384"><ele>1878</ele><speed>28</speed><time>2016-06-29T14:40:48Z</time><course>49</course><type>1</type></trkpt>
      <trkpt lat="41.829065" lon="-4.2760517"><ele>1882</ele><speed>44</speed><time>2016-06-29T14:40:50Z</time><course>51</course><type>1</type></trkpt>
      <trkpt lat="41.8291883" lon="-4.27576"><ele>1887</ele><speed>51</speed><time>2016-06-29T14:40:52Z</time><course>79</course><type>1</type></trkpt>
      <trkpt lat="41.8292166" lon="-4.2755884"><ele>1891</ele><speed>53</speed><time>2016-06-29T14:40:53Z</time><course>97</course><type>1</type></trkpt>
      <trkpt lat="41.8291383" lon="-4.2752667"><ele>1899</ele><speed>51</speed><time>2016-06-29T14:40:55Z</time><course>123</course><type>1</type></trkpt>
      <trkpt lat="41.82907" lon="-4.27513"><ele>1901</ele><speed>48</speed><time>2016-06-29T14:40:56Z</time><course>127</course><type>1</type></trkpt>
      <trkpt lat="41.82893" lon="-4.274855"><ele>1904</ele><speed>49</speed><time>2016-06-29T14:40:58Z</time><course>126</course><type>1</type></trkpt>
      <trkpt lat="41.8287183" lon="-4.2746117"><ele>1909</ele><speed>59</speed><time>2016-06-29T14:41:00Z</time><course>147</course><type>1</type></trkpt>
      <trkpt lat="41.8285916" lon="-4.2745267"><ele>1911</ele><speed>56</speed><time>2016-06-29T14:41:01Z</time><course>154</course><type>1</type></trkpt>
      <trkpt lat="41.82835" lon="-4.2744451"><ele>1916</ele><speed>46</speed><time>2016-06-29T14:41:03Z</time><course>173</course><type>1</type></trkpt>
      <trkpt lat="41.8281633" lon="-4.2744684"><ele>1921</ele><speed>34</speed><time>2016-06-29T14:41:05Z</time><course>193</course><type>1</type></trkpt>
      <trkpt lat="41.8280983" lon="-4.2745"><ele>1923</ele><speed>27</speed><time>2016-06-29T14:41:06Z</time><course>205</course><type>1</type></trkpt>
      <trkpt lat="41.8280533" lon="-4.27459"><ele>1928</ele><speed>16</speed><time>2016-06-29T14:41:08Z</time><course>266</course><type>1</type></trkpt>
      <trkpt lat="41.828055" lon="-4.2746417"><ele>1928</ele><speed>15</speed><time>2016-06-29T14:41:09Z</time><course>273</course><type>1</type></trkpt>
      <trkpt lat="41.8281033" lon="-4.274645"><ele>1930</ele><speed>14</speed><time>2016-06-29T14:41:10Z</time><course>345</course><type>1</type></trkpt>
      <trkpt lat="41.8281883" lon="-4.27461"><ele>1935</ele><speed>20</speed><time>2016-06-29T14:41:12Z</time><course>24</course><type>1</type></trkpt>
      <trkpt lat="41.8282433" lon="-4.274575"><ele>1937</ele><speed>21</speed><time>2016-06-29T14:41:13Z</time><course>35</course><type>1</type></trkpt>
      <trkpt lat="41.8283" lon="-4.2745267"><ele>1938</ele><speed>28</speed><time>2016-06-29T14:41:14Z</time><course>38</course><type>1</type></trkpt>
      <trkpt lat="41.8283616" lon="-4.2744617"><ele>1939</ele><speed>33</speed><time>2016-06-29T14:41:15Z</time><course>38</course><type>1</type></trkpt>
      <trkpt lat="41.82851" lon="-4.274235"><ele>1943</ele><speed>52</speed><time>2016-06-29T14:41:17Z</time><course>58</course><type>1</type></trkpt>
      <trkpt lat="41.8286166" lon="-4.2739051"><ele>1948</ele><speed>53</speed><time>2016-06-29T14:41:19Z</time><course>77</course><type>1</type></trkpt>
      <trkpt lat="41.8286283" lon="-4.2735484"><ele>1952</ele><speed>57</speed><time>2016-06-29T14:41:21Z</time><course>98</course><type>1</type></trkpt>
      <trkpt lat="41.8285816" lon="-4.2733534"><ele>1954</ele><speed>64</speed><time>2016-06-29T14:41:22Z</time><course>112</course><type>1</type></trkpt>
      <trkpt lat="41.828515" lon="-4.2731617"><ele>1957</ele><speed>63</speed><time>2016-06-29T14:41:23Z</time><course>119</course><type>1</type></trkpt>
      <trkpt lat="41.8284366" lon="-4.27299"><ele>1960</ele><speed>60</speed><time>2016-06-29T14:41:24Z</time><course>122</course><type>1</type></trkpt>
      <trkpt lat="41.8283549" lon="-4.2728384"><ele>1962</ele><speed>55</speed><time>2016-06-29T14:41:25Z</time><course>126</course><type>1</type></trkpt>
      <trkpt lat="41.8281816" lon="-4.2725617"><ele>1966</ele><speed>53</speed><time>2016-06-29T14:41:27Z</time><course>130</course><type>1</type></trkpt>
      <trkpt lat="41.8280533" lon="-4.272505"><ele>1967</ele><speed>52</speed><time>2016-06-29T14:41:28Z</time><course>164</course><type>1</type></trkpt>
      <trkpt lat="41.82793" lon="-4.272485"><ele>1968</ele><speed>51</speed><time>2016-06-29T14:41:29Z</time><course>179</course><type>1</type></trkpt>
      <trkpt lat="41.8277083" lon="-4.27251"><ele>1971</ele><speed>41</speed><time>2016-06-29T14:41:31Z</time><course>189</course><type>1</type></trkpt>
      <trkpt lat="41.8275766" lon="-4.27255"><ele>1975</ele><speed>20</speed><time>2016-06-29T14:41:33Z</time><course>205</course><type>1</type></trkpt>
      <trkpt lat="41.8275283" lon="-4.2726034"><ele>1977</ele><speed>12</speed><time>2016-06-29T14:41:35Z</time><course>237</course><type>1</type></trkpt>
      <trkpt lat="41.827495" lon="-4.2726834"><ele>1980</ele><speed>14</speed><time>2016-06-29T14:41:37Z</time><course>235</course><type>1</type></trkpt>
      <trkpt lat="41.8275483" lon="-4.272725"><ele>1982</ele><speed>19</speed><time>2016-06-29T14:41:41Z</time><course>352</course><type>1</type></trkpt>
      <trkpt lat="41.8276566" lon="-4.27276"><ele>1980</ele><speed>23</speed><time>2016-06-29T14:41:43Z</time><course>346</course><type>1</type></trkpt>
      <trkpt lat="41.82775" lon="-4.2727534"><ele>1978</ele><speed>14</speed><time>2016-06-29T14:41:45Z</time><course>30</course><type>1</type></trkpt>
      <trkpt lat="41.8278133" lon="-4.2727317"><ele>1977</ele><speed>13</speed><time>2016-06-29T14:41:47Z</time><course>2</course><type>1</type></trkpt>
      <trkpt lat="41.82787" lon="-4.2727367"><ele>1977</ele><speed>9</speed><time>2016-06-29T14:41:49Z</time><course>2</course><type>1</type></trkpt>
      <trkpt lat="41.827915" lon="-4.2727134"><ele>1977</ele><speed>16</speed><time>2016-06-29T14:41:50Z</time><course>24</course><type>1</type></trkpt>
      <trkpt lat="41.8280116" lon="-4.2726567"><ele>1976</ele><speed>19</speed><time>2016-06-29T14:41:52Z</time><course>28</course><type>1</type></trkpt>
      <trkpt lat="41.828065" lon="-4.2726134"><ele>1976</ele><speed>25</speed><time>2016-06-29T14:41:53Z</time><course>27</course><type>1</type></trkpt>
      <trkpt lat="41.8281733" lon="-4.2725117"><ele>1976</ele><speed>27</speed><time>2016-06-29T14:41:55Z</time><course>39</course><type>1</type></trkpt>
      <trkpt lat="41.8282683" lon="-4.2723667"><ele>1978</ele><speed>29</speed><time>2016-06-29T14:41:57Z</time><course>51</course><type>1</type></trkpt>
      <trkpt lat="41.8283549" lon="-4.2722634"><ele>1978</ele><speed>19</speed><time>2016-06-29T14:41:59Z</time><course>44</course><type>1</type></trkpt>
      <trkpt lat="41.8284866" lon="-4.2721384"><ele>1980</ele><speed>32</speed><time>2016-06-29T14:42:01Z</time><course>48</course><type>1</type></trkpt>
      <trkpt lat="41.82865" lon="-4.27197"><ele>1983</ele><speed>41</speed><time>2016-06-29T14:42:03Z</time><course>51</course><type>1</type></trkpt>
      <trkpt lat="41.8287266" lon="-4.2718667"><ele>1985</ele><speed>42</speed><time>2016-06-29T14:42:04Z</time><course>53</course><type>1</type></trkpt>
      <trkpt lat="41.828795" lon="-4.2717567"><ele>1987</ele><speed>41</speed><time>2016-06-29T14:42:05Z</time><course>57</course><type>1</type></trkpt>
      <trkpt lat="41.8288866" lon="-4.27164"><ele>1991</ele><speed>41</speed><time>2016-06-29T14:42:06Z</time><course>67</course><type>1</type></trkpt>
      <trkpt lat="41.8289066" lon="-4.2713784"><ele>1996</ele><speed>47</speed><time>2016-06-29T14:42:08Z</time><course>111</course><type>1</type></trkpt>
      <trkpt lat="41.8287716" lon="-4.2711767"><ele>2000</ele><speed>44</speed><time>2016-06-29T14:42:10Z</time><course>153</course><type>1</type></trkpt>
      <trkpt lat="41.828595" lon="-4.2711084"><ele>2004</ele><speed>38</speed><time>2016-06-29T14:42:12Z</time><course>168</course><type>1</type></trkpt>
      <trkpt lat="41.828515" lon="-4.27109"><ele>2005</ele><speed>31</speed><time>2016-06-29T14:42:13Z</time><course>175</course><type>1</type></trkpt>
      <trkpt lat="41.8284483" lon="-4.27107"><ele>2007</ele><speed>30</speed><time>2016-06-29T14:42:14Z</time><course>177</course><type>1</type></trkpt>
      <trkpt lat="41.8283333" lon="-4.27109"><ele>2009</ele><speed>23</speed><time>2016-06-29T14:42:16Z</time><course>200</course><type>1</type></trkpt>
      <trkpt lat="41.8283333" lon="-4.2711567"><ele>2014</ele><speed>8</speed><time>2016-06-29T14:42:18Z</time><course>264</course><type>1</type></trkpt>
      <trkpt lat="41.82835" lon="-4.2712384"><ele>2021</ele><speed>0</speed><time>2016-06-29T14:42:23Z</time><course>264</course><type>1</type></trkpt>
      <trkpt lat="41.8283549" lon="-4.2713034"><ele>2023</ele><speed>16</speed><time>2016-06-29T14:42:24Z</time><course>278</course><type>1</type></trkpt>
      <trkpt lat="41.8283966" lon="-4.2713617"><ele>2026</ele><speed>7</speed><time>2016-06-29T14:42:26Z</time><course>326</course><type>1</type></trkpt>
      <trkpt lat="41.8284483" lon="-4.2713967"><ele>2029</ele><speed>13</speed><time>2016-06-29T14:42:28Z</time><course>333</course><type>1</type></trkpt>
      <trkpt lat="41.8285583" lon="-4.2714434"><ele>2032</ele><speed>25</speed><time>2016-06-29T14:42:30Z</time><course>344</course><type>1</type></trkpt>
      <trkpt lat="41.828615" lon="-4.2714617"><ele>2033</ele><speed>24</speed><time>2016-06-29T14:42:31Z</time><course>349</course><type>1</type></trkpt>
      <trkpt lat="41.8286683" lon="-4.2714717"><ele>2035</ele><speed>21</speed><time>2016-06-29T14:42:32Z</time><course>355</course><type>1</type></trkpt>
      <trkpt lat="41.8287766" lon="-4.2714817"><ele>2039</ele><speed>21</speed><time>2016-06-29T14:42:34Z</time><course>359</course><type>1</type></trkpt>
      <trkpt lat="41.8288366" lon="-4.2714767"><ele>2040</ele><speed>23</speed><time>2016-06-29T14:42:35Z</time><course>8</course><type>1</type></trkpt>
      <trkpt lat="41.82897" lon="-4.2714417"><ele>2045</ele><speed>28</speed><time>2016-06-29T14:42:37Z</time><course>15</course><type>1</type></trkpt>
      <trkpt lat="41.8290466" lon="-4.2714167"><ele>2046</ele><speed>35</speed><time>2016-06-29T14:42:38Z</time><course>11</course><type>1</type></trkpt>
      <trkpt lat="41.829215" lon="-4.2713684"><ele>2049</ele><speed>35</speed><time>2016-06-29T14:42:40Z</time><course>14</course><type>1</type></trkpt>
      <trkpt lat="41.8293" lon="-4.27133"><ele>2052</ele><speed>35</speed><time>2016-06-29T14:42:41Z</time><course>21</course><type>1</type></trkpt>
      <trkpt lat="41.8294" lon="-4.27121"><ele>2056</ele><speed>24</speed><time>2016-06-29T14:42:43Z</time><course>39</course><type>1</type></trkpt>
      <trkpt lat="41.8294533" lon="-4.2711667"><ele>2058</ele><speed>23</speed><time>2016-06-29T14:42:44Z</time><course>32</course><type>1</type></trkpt>
      <trkpt lat="41.8296133" lon="-4.27106"><ele>2062</ele><speed>36</speed><time>2016-06-29T14:42:46Z</time><course>30</course><type>1</type></trkpt>
      <trkpt lat="41.8296983" lon="-4.2709734"><ele>2063</ele><speed>43</speed><time>2016-06-29T14:42:47Z</time><course>38</course><type>1</type></trkpt>
      <trkpt lat="41.82986" lon="-4.270755"><ele>2067</ele><speed>46</speed><time>2016-06-29T14:42:49Z</time><course>52</course><type>1</type></trkpt>
      <trkpt lat="41.8299316" lon="-4.2706217"><ele>2069</ele><speed>46</speed><time>2016-06-29T14:42:50Z</time><course>65</course><type>1</type></trkpt>
      <trkpt lat="41.8300283" lon="-4.2703267"><ele>2072</ele><speed>48</speed><time>2016-06-29T14:42:52Z</time><course>73</course><type>1</type></trkpt>
      <trkpt lat="41.8300666" lon="-4.2701684"><ele>2074</ele><speed>51</speed><time>2016-06-29T14:42:53Z</time><course>74</course><type>1</type></trkpt>
      <trkpt lat="41.8300999" lon="-4.2698134"><ele>2077</ele><speed>53</speed><time>2016-06-29T14:42:55Z</time><course>91</course><type>1</type></trkpt>
      <trkpt lat="41.8300866" lon="-4.26963"><ele>2079</ele><speed>55</speed><time>2016-06-29T14:42:56Z</time><course>97</course><type>1</type></trkpt>
      <trkpt lat="41.83004" lon="-4.2694617"><ele>2081</ele><speed>55</speed><time>2016-06-29T14:42:57Z</time><course>111</course><type>1</type></trkpt>
      <trkpt lat="41.8299033" lon="-4.2691834"><ele>2084</ele><speed>48</speed><time>2016-06-29T14:42:59Z</time><course>132</course><type>1</type></trkpt>
      <trkpt lat="41.829735" lon="-4.2690267"><ele>2089</ele><speed>38</speed><time>2016-06-29T14:43:01Z</time><course>152</course><type>1</type></trkpt>
      <trkpt lat="41.8296533" lon="-4.2689667"><ele>2091</ele><speed>37</speed><time>2016-06-29T14:43:02Z</time><course>151</course><type>1</type></trkpt>
      <trkpt lat="41.82948" lon="-4.2688734"><ele>2093</ele><speed>38</speed><time>2016-06-29T14:43:04Z</time><course>159</course><type>1</type></trkpt>
      <trkpt lat="41.829315" lon="-4.2688334"><ele>2098</ele><speed>32</speed><time>2016-06-29T14:43:06Z</time><course>175</course><type>1</type></trkpt>
      <trkpt lat="41.8292233" lon="-4.2688667"><ele>2102</ele><speed>18</speed><time>2016-06-29T14:43:08Z</time><course>194</course><type>1</type></trkpt>
      <trkpt lat="41.8291816" lon="-4.2688684"><ele>2101</ele><speed>16</speed><time>2016-06-29T14:43:09Z</time><course>177</course><type>1</type></trkpt>
      <trkpt lat="41.8290966" lon="-4.2689167"><ele>2106</ele><speed>12</speed><time>2016-06-29T14:43:12Z</time><course>226</course><type>1</type></trkpt>
      <trkpt lat="41.8290866" lon="-4.2690034"><ele>2110</ele><speed>7</speed><time>2016-06-29T14:43:15Z</time><course>298</course><type>1</type></trkpt>
      <trkpt lat="41.8291516" lon="-4.2690617"><ele>2112</ele><speed>19</speed><time>2016-06-29T14:43:17Z</time><course>329</course><type>1</type></trkpt>
      <trkpt lat="41.8292566" lon="-4.26909"><ele>2114</ele><speed>28</speed><time>2016-06-29T14:43:19Z</time><course>356</course><type>1</type></trkpt>
      <trkpt lat="41.8293816" lon="-4.26904"><ele>2117</ele><speed>25</speed><time>2016-06-29T14:43:21Z</time><course>31</course><type>1</type></trkpt>
      <trkpt lat="41.8294383" lon="-4.2689884"><ele>2118</ele><speed>26</speed><time>2016-06-29T14:43:22Z</time><course>40</course><type>1</type></trkpt>
      <trkpt lat="41.8295783" lon="-4.26889"><ele>2120</ele><speed>34</speed><time>2016-06-29T14:43:24Z</time><course>21</course><type>1</type></trkpt>
      <trkpt lat="41.8296516" lon="-4.2688484"><ele>2121</ele><speed>35</speed><time>2016-06-29T14:43:25Z</time><course>21</course><type>1</type></trkpt>
      <trkpt lat="41.8297866" lon="-4.26873"><ele>2123</ele><speed>34</speed><time>2016-06-29T14:43:27Z</time><course>45</course><type>1</type></trkpt>
      <trkpt lat="41.82984" lon="-4.2686567"><ele>2124</ele><speed>32</speed><time>2016-06-29T14:43:28Z</time><course>47</course><type>1</type></trkpt>
      <trkpt lat="41.8299649" lon="-4.2684834"><ele>2125</ele><speed>39</speed><time>2016-06-29T14:43:30Z</time><course>45</course><type>1</type></trkpt>
      <trkpt lat="41.8300366" lon="-4.2683784"><ele>2127</ele><speed>42</speed><time>2016-06-29T14:43:31Z</time><course>49</course><type>1</type></trkpt>
      <trkpt lat="41.8301466" lon="-4.2681167"><ele>2129</ele><speed>50</speed><time>2016-06-29T14:43:33Z</time><course>66</course><type>1</type></trkpt>
      <trkpt lat="41.8302133" lon="-4.2678067"><ele>2133</ele><speed>47</speed><time>2016-06-29T14:43:35Z</time><course>84</course><type>1</type></trkpt>
      <trkpt lat="41.83024" lon="-4.26748"><ele>2136</ele><speed>48</speed><time>2016-06-29T14:43:37Z</time><course>89</course><type>1</type></trkpt>
      <trkpt lat="41.8302016" lon="-4.2671234"><ele>2139</ele><speed>57</speed><time>2016-06-29T14:43:39Z</time><course>107</course><type>1</type></trkpt>
      <trkpt lat="41.8301433" lon="-4.2669467"><ele>2140</ele><speed>58</speed><time>2016-06-29T14:43:40Z</time><course>120</course><type>1</type></trkpt>
      <trkpt lat="41.8300683" lon="-4.2667901"><ele>2141</ele><speed>54</speed><time>2016-06-29T14:43:41Z</time><course>123</course><type>1</type></trkpt>
      <trkpt lat="41.8298983" lon="-4.2665651"><ele>2143</ele><speed>45</speed><time>2016-06-29T14:43:43Z</time><course>138</course><type>1</type></trkpt>
      <trkpt lat="41.8297233" lon="-4.2663584"><ele>2145</ele><speed>48</speed><time>2016-06-29T14:43:45Z</time><course>139</course><type>1</type></trkpt>
      <trkpt lat="41.8295283" lon="-4.26618"><ele>2148</ele><speed>45</speed><time>2016-06-29T14:43:47Z</time><course>146</course><type>1</type></trkpt>
      <trkpt lat="41.82944" lon="-4.2661084"><ele>2149</ele><speed>39</speed><time>2016-06-29T14:43:48Z</time><course>150</course><type>1</type></trkpt>
      <trkpt lat="41.8293666" lon="-4.2660417"><ele>2150</ele><speed>35</speed><time>2016-06-29T14:43:49Z</time><course>147</course><type>1</type></trkpt>
      <trkpt lat="41.8292183" lon="-4.2659284"><ele>2152</ele><speed>34</speed><time>2016-06-29T14:43:51Z</time><course>152</course><type>1</type></trkpt>
      <trkpt lat="41.82907" lon="-4.2658317"><ele>2154</ele><speed>31</speed><time>2016-06-29T14:43:53Z</time><course>161</course><type>1</type></trkpt>
      <trkpt lat="41.828935" lon="-4.2658117"><ele>2155</ele><speed>24</speed><time>2016-06-29T14:43:55Z</time><course>184</course><type>1</type></trkpt>
      <trkpt lat="41.8288716" lon="-4.2658184"><ele>2155</ele><speed>25</speed><time>2016-06-29T14:43:56Z</time><course>188</course><type>1</type></trkpt>
      <trkpt lat="41.82875" lon="-4.2658384"><ele>2156</ele><speed>24</speed><time>2016-06-29T14:43:58Z</time><course>194</course><type>1</type></trkpt>
      <trkpt lat="41.828685" lon="-4.26587"><ele>2157</ele><speed>8</speed><time>2016-06-29T14:44:00Z</time><course>208</course><type>1</type></trkpt>
      <trkpt lat="41.82866" lon="-4.26596"><ele>2159</ele><speed>7</speed><time>2016-06-29T14:44:04Z</time><course>243</course><type>1</type></trkpt>
      <trkpt lat="41.82873" lon="-4.2659467"><ele>2160</ele><speed>14</speed><time>2016-06-29T14:44:07Z</time><course>347</course><type>1</type></trkpt>
      <trkpt lat="41.828815" lon="-4.2660117"><ele>2159</ele><speed>21</speed><time>2016-06-29T14:44:09Z</time><course>326</course><type>1</type></trkpt>
      <trkpt lat="41.8289016" lon="-4.2660417"><ele>2159</ele><speed>14</speed><time>2016-06-29T14:44:11Z</time><course>6</course><type>1</type></trkpt>
      <trkpt lat="41.8289516" lon="-4.2660117"><ele>2159</ele><speed>21</speed><time>2016-06-29T14:44:12Z</time><course>29</course><type>1</type></trkpt>
      <trkpt lat="41.8291383" lon="-4.2659467"><ele>2156</ele><speed>33</speed><time>2016-06-29T14:44:15Z</time><course>2</course><type>1</type></trkpt>
      <trkpt lat="41.8293133" lon="-4.2659384"><ele>2155</ele><speed>34</speed><time>2016-06-29T14:44:17Z</time><course>0</course><type>1</type></trkpt>
      <trkpt lat="41.8294566" lon="-4.2659217"><ele>2154</ele><speed>26</speed><time>2016-06-29T14:44:19Z</time><course>10</course><type>1</type></trkpt>
      <trkpt lat="41.8296183" lon="-4.2658984"><ele>2153</ele><speed>36</speed><time>2016-06-29T14:44:21Z</time><course>5</course><type>1</type></trkpt>
      <trkpt lat="41.8298116" lon="-4.26588"><ele>2153</ele><speed>45</speed><time>2016-06-29T14:44:23Z</time><course>12</course><type>1</type></trkpt>
      <trkpt lat="41.8299649" lon="-4.265795"><ele>2153</ele><speed>30</speed><time>2016-06-29T14:44:25Z</time><course>37</course><type>1</type></trkpt>
      <trkpt lat="41.8300999" lon="-4.2656784"><ele>2152</ele><speed>34</speed><time>2016-06-29T14:44:27Z</time><course>31</course><type>1</type></trkpt>
      <trkpt lat="41.8302816" lon="-4.2655567"><ele>2151</ele><speed>43</speed><time>2016-06-29T14:44:29Z</time><course>25</course><type>1</type></trkpt>
      <trkpt lat="41.83044" lon="-4.265405"><ele>2151</ele><speed>40</speed><time>2016-06-29T14:44:31Z</time><course>35</course><type>1</type></trkpt>
      <trkpt lat="41.83058" lon="-4.26524"><ele>2149</ele><speed>36</speed><time>2016-06-29T14:44:33Z</time><course>41</course><type>1</type></trkpt>
      <trkpt lat="41.8307383" lon="-4.265095"><ele>2148</ele><speed>38</speed><time>2016-06-29T14:44:35Z</time><course>32</course><type>1</type></trkpt>
      <trkpt lat="41.8309066" lon="-4.2649084"><ele>2148</ele><speed>42</speed><time>2016-06-29T14:44:37Z</time><course>42</course><type>1</type></trkpt>
      <trkpt lat="41.83098" lon="-4.2648217"><ele>2147</ele><speed>37</speed><time>2016-06-29T14:44:38Z</time><course>40</course><type>1</type></trkpt>
      <trkpt lat="41.8311316" lon="-4.2646784"><ele>2147</ele><speed>37</speed><time>2016-06-29T14:44:40Z</time><course>31</course><type>1</type></trkpt>
      <trkpt lat="41.8312233" lon="-4.264605"><ele>2146</ele><speed>45</speed><time>2016-06-29T14:44:41Z</time><course>31</course><type>1</type></trkpt>
      <trkpt lat="41.8314083" lon="-4.2644"><ele>2147</ele><speed>46</speed><time>2016-06-29T14:44:43Z</time><course>43</course><type>1</type></trkpt>
      <trkpt lat="41.83148" lon="-4.2643067"><ele>2146</ele><speed>36</speed><time>2016-06-29T14:44:44Z</time><course>43</course><type>1</type></trkpt>
      <trkpt lat="41.83163" lon="-4.264155"><ele>2146</ele><speed>38</speed><time>2016-06-29T14:44:46Z</time><course>34</course><type>1</type></trkpt>
      <trkpt lat="41.8317116" lon="-4.2640584"><ele>2146</ele><speed>45</speed><time>2016-06-29T14:44:47Z</time><course>42</course><type>1</type></trkpt>
      <trkpt lat="41.831845" lon="-4.2638434"><ele>2147</ele><speed>42</speed><time>2016-06-29T14:44:49Z</time><course>50</course><type>1</type></trkpt>
      <trkpt lat="41.8318816" lon="-4.2637667"><ele>2148</ele><speed>26</speed><time>2016-06-29T14:44:50Z</time><course>52</course><type>1</type></trkpt>
      <trkpt lat="41.831965" lon="-4.2636217"><ele>2150</ele><speed>29</speed><time>2016-06-29T14:44:52Z</time><course>57</course><type>1</type></trkpt>
      <trkpt lat="41.8320499" lon="-4.2634184"><ele>2151</ele><speed>37</speed><time>2016-06-29T14:44:54Z</time><course>63</course><type>1</type></trkpt>
      <trkpt lat="41.8321383" lon="-4.263175"><ele>2153</ele><speed>38</speed><time>2016-06-29T14:44:56Z</time><course>60</course><type>1</type></trkpt>
      <trkpt lat="41.8322283" lon="-4.2629567"><ele>2155</ele><speed>37</speed><time>2016-06-29T14:44:58Z</time><course>64</course><type>1</type></trkpt>
      <trkpt lat="41.8323066" lon="-4.2626384"><ele>2159</ele><speed>51</speed><time>2016-06-29T14:45:00Z</time><course>87</course><type>1</type></trkpt>
      <trkpt lat="41.8323" lon="-4.262305"><ele>2162</ele><speed>47</speed><time>2016-06-29T14:45:02Z</time><course>98</course><type>1</type></trkpt>
      <trkpt lat="41.83228" lon="-4.2621517"><ele>2163</ele><speed>46</speed><time>2016-06-29T14:45:03Z</time><course>101</course><type>1</type></trkpt>
      <trkpt lat="41.8322016" lon="-4.26184"><ele>2166</ele><speed>53</speed><time>2016-06-29T14:45:05Z</time><course>113</course><type>1</type></trkpt>
      <trkpt lat="41.8321383" lon="-4.2616867"><ele>2168</ele><speed>53</speed><time>2016-06-29T14:45:06Z</time><course>120</course><type>1</type></trkpt>
      <trkpt lat="41.8320633" lon="-4.2615484"><ele>2170</ele><speed>50</speed><time>2016-06-29T14:45:07Z</time><course>128</course><type>1</type></trkpt>
      <trkpt lat="41.8319016" lon="-4.2613217"><ele>2173</ele><speed>43</speed><time>2016-06-29T14:45:09Z</time><course>139</course><type>1</type></trkpt>
      <trkpt lat="41.8317233" lon="-4.2611517"><ele>2177</ele><speed>44</speed><time>2016-06-29T14:45:11Z</time><course>150</course><type>1</type></trkpt>
      <trkpt lat="41.8315216" lon="-4.2610334"><ele>2181</ele><speed>43</speed><time>2016-06-29T14:45:13Z</time><course>155</course><type>1</type></trkpt>
      <trkpt lat="41.83136" lon="-4.2609767"><ele>2186</ele><speed>32</speed><time>2016-06-29T14:45:15Z</time><course>167</course><type>1</type></trkpt>
      <trkpt lat="41.8312066" lon="-4.2609834"><ele>2189</ele><speed>30</speed><time>2016-06-29T14:45:17Z</time><course>182</course><type>1</type></trkpt>
      <trkpt lat="41.8310533" lon="-4.260995"><ele>2192</ele><speed>29</speed><time>2016-06-29T14:45:19Z</time><course>179</course><type>1</type></trkpt>
      <trkpt lat="41.830985" lon="-4.2609967"><ele>2193</ele><speed>26</speed><time>2016-06-29T14:45:20Z</time><course>179</course><type>1</type></trkpt>
      <trkpt lat="41.8308933" lon="-4.2610267"><ele>2195</ele><speed>16</speed><time>2016-06-29T14:45:22Z</time><course>208</course><type>1</type></trkpt>
      <trkpt lat="41.830865" lon="-4.26106"><ele>2196</ele><speed>16</speed><time>2016-06-29T14:45:23Z</time><course>218</course><type>1</type></trkpt>
      <trkpt lat="41.8308733" lon="-4.2612467"><ele>2194</ele><speed>26</speed><time>2016-06-29T14:45:26Z</time><course>287</course><type>1</type></trkpt>
      <trkpt lat="41.8309166" lon="-4.2613084"><ele>2195</ele><speed>25</speed><time>2016-06-29T14:45:27Z</time><course>304</course><type>1</type></trkpt>
      <trkpt lat="41.8309716" lon="-4.2613534"><ele>2195</ele><speed>22</speed><time>2016-06-29T14:45:28Z</time><course>324</course><type>1</type></trkpt>
      <trkpt lat="41.831075" lon="-4.2614134"><ele>2194</ele><speed>24</speed><time>2016-06-29T14:45:30Z</time><course>339</course><type>1</type></trkpt>
      <trkpt lat="41.8311366" lon="-4.2614367"><ele>2194</ele><speed>27</speed><time>2016-06-29T14:45:31Z</time><course>342</course><type>1</type></trkpt>
      <trkpt lat="41.8312866" lon="-4.2614817"><ele>2193</ele><speed>33</speed><time>2016-06-29T14:45:33Z</time><course>348</course><type>1</type></trkpt>
      <trkpt lat="41.831455" lon="-4.2614784"><ele>2194</ele><speed>34</speed><time>2016-06-29T14:45:35Z</time><course>9</course><type>1</type></trkpt>
      <trkpt lat="41.8315466" lon="-4.2614517"><ele>2194</ele><speed>37</speed><time>2016-06-29T14:45:36Z</time><course>12</course><type>1</type></trkpt>
      <trkpt lat="41.831635" lon="-4.2614217"><ele>2193</ele><speed>39</speed><time>2016-06-29T14:45:37Z</time><course>13</course><type>1</type></trkpt>
      <trkpt lat="41.8317233" lon="-4.2613867"><ele>2193</ele><speed>36</speed><time>2016-06-29T14:45:38Z</time><course>18</course><type>1</type></trkpt>
      <trkpt lat="41.8318133" lon="-4.2613484"><ele>2194</ele><speed>35</speed><time>2016-06-29T14:45:39Z</time><course>20</course><type>1</type></trkpt>
      <trkpt lat="41.8318983" lon="-4.261305"><ele>2194</ele><speed>34</speed><time>2016-06-29T14:45:40Z</time><course>23</course><type>1</type></trkpt>
      <trkpt lat="41.832075" lon="-4.2612034"><ele>2194</ele><speed>43</speed><time>2016-06-29T14:45:42Z</time><course>23</course><type>1</type></trkpt>
      <trkpt lat="41.83224" lon="-4.2610584"><ele>2194</ele><speed>40</speed><time>2016-06-29T14:45:44Z</time><course>37</course><type>1</type></trkpt>
      <trkpt lat="41.8323583" lon="-4.2608934"><ele>2194</ele><speed>39</speed><time>2016-06-29T14:45:46Z</time><course>44</course><type>1</type></trkpt>
      <trkpt lat="41.8324183" lon="-4.2607984"><ele>2196</ele><speed>37</speed><time>2016-06-29T14:45:47Z</time><course>51</course><type>1</type></trkpt>
      <trkpt lat="41.8325316" lon="-4.2605417"><ele>2201</ele><speed>45</speed><time>2016-06-29T14:45:49Z</time><course>74</course><type>1</type></trkpt>
      <trkpt lat="41.8325583" lon="-4.2603967"><ele>2203</ele><speed>44</speed><time>2016-06-29T14:45:50Z</time><course>81</course><type>1</type></trkpt>
      <trkpt lat="41.8325833" lon="-4.2601084"><ele>2206</ele><speed>43</speed><time>2016-06-29T14:45:52Z</time><course>89</course><type>1</type></trkpt>
      <trkpt lat="41.83257" lon="-4.259815"><ele>2209</ele><speed>42</speed><time>2016-06-29T14:45:54Z</time><course>98</course><type>1</type></trkpt>
      <trkpt lat="41.83251" lon="-4.2595434"><ele>2212</ele><speed>45</speed><time>2016-06-29T14:45:56Z</time><course>111</course><type>1</type></trkpt>
      <trkpt lat="41.8323966" lon="-4.2592634"><ele>2214</ele><speed>47</speed><time>2016-06-29T14:45:58Z</time><course>123</course><type>1</type></trkpt>
      <trkpt lat="41.8323216" lon="-4.2591534"><ele>2215</ele><speed>41</speed><time>2016-06-29T14:45:59Z</time><course>135</course><type>1</type></trkpt>
      <trkpt lat="41.83217" lon="-4.2590134"><ele>2216</ele><speed>34</speed><time>2016-06-29T14:46:01Z</time><course>148</course><type>1</type></trkpt>
      <trkpt lat="41.8320316" lon="-4.2589067"><ele>2218</ele><speed>31</speed><time>2016-06-29T14:46:03Z</time><course>155</course><type>1</type></trkpt>
      <trkpt lat="41.8319683" lon="-4.2588817"><ele>2219</ele><speed>25</speed><time>2016-06-29T14:46:04Z</time><course>171</course><type>1</type></trkpt>
      <trkpt lat="41.831845" lon="-4.25887"><ele>2222</ele><speed>27</speed><time>2016-06-29T14:46:06Z</time><course>181</course><type>1</type></trkpt>
      <trkpt lat="41.8317883" lon="-4.2588767"><ele>2224</ele><speed>22</speed><time>2016-06-29T14:46:07Z</time><course>187</course><type>1</type></trkpt>
      <trkpt lat="41.831705" lon="-4.2589134"><ele>2226</ele><speed>16</speed><time>2016-06-29T14:46:09Z</time><course>205</course><type>1</type></trkpt>
      <trkpt lat="41.8316866" lon="-4.2589634"><ele>2225</ele><speed>17</speed><time>2016-06-29T14:46:10Z</time><course>245</course><type>1</type></trkpt>
      <trkpt lat="41.8317466" lon="-4.259065"><ele>2225</ele><speed>23</speed><time>2016-06-29T14:46:12Z</time><course>305</course><type>1</type></trkpt>
      <trkpt lat="41.831805" lon="-4.2591117"><ele>2225</ele><speed>26</speed><time>2016-06-29T14:46:13Z</time><course>322</course><type>1</type></trkpt>
      <trkpt lat="41.831865" lon="-4.2591617"><ele>2225</ele><speed>29</speed><time>2016-06-29T14:46:14Z</time><course>330</course><type>1</type></trkpt>
      <trkpt lat="41.8319283" lon="-4.259215"><ele>2224</ele><speed>36</speed><time>2016-06-29T14:46:15Z</time><course>340</course><type>1</type></trkpt>
      <trkpt lat="41.8320966" lon="-4.2592417"><ele>2224</ele><speed>41</speed><time>2016-06-29T14:46:17Z</time><course>12</course><type>1</type></trkpt>
      <trkpt lat="41.832265" lon="-4.259145"><ele>2224</ele><speed>36</speed><time>2016-06-29T14:46:19Z</time><course>33</course><type>1</type></trkpt>
      <trkpt lat="41.8323733" lon="-4.2590434"><ele>2225</ele><speed>27</speed><time>2016-06-29T14:46:21Z</time><course>37</course><type>1</type></trkpt>
      <trkpt lat="41.8325033" lon="-4.2589184"><ele>2225</ele><speed>35</speed><time>2016-06-29T14:46:23Z</time><course>35</course><type>1</type></trkpt>
      <trkpt lat="41.8325833" lon="-4.258845"><ele>2225</ele><speed>37</speed><time>2016-06-29T14:46:24Z</time><course>36</course><type>1</type></trkpt>
      <trkpt lat="41.83273" lon="-4.2586684"><ele>2227</ele><speed>42</speed><time>2016-06-29T14:46:26Z</time><course>44</course><type>1</type></trkpt>
      <trkpt lat="41.8328016" lon="-4.2585717"><ele>2228</ele><speed>41</speed><time>2016-06-29T14:46:27Z</time><course>47</course><type>1</type></trkpt>
      <trkpt lat="41.83293" lon="-4.2583684"><ele>2230</ele><speed>38</speed><time>2016-06-29T14:46:29Z</time><course>50</course><type>1</type></trkpt>
      <trkpt lat="41.8329983" lon="-4.258265"><ele>2231</ele><speed>40</speed><time>2016-06-29T14:46:30Z</time><course>51</course><type>1</type></trkpt>
      <trkpt lat="41.8331383" lon="-4.2580134"><ele>2235</ele><speed>46</speed><time>2016-06-29T14:46:32Z</time><course>65</course><type>1</type></trkpt>
      <trkpt lat="41.8331933" lon="-4.2578634"><ele>2237</ele><speed>47</speed><time>2016-06-29T14:46:33Z</time><course>70</course><type>1</type></trkpt>
      <trkpt lat="41.8332466" lon="-4.2575634"><ele>2239</ele><speed>44</speed><time>2016-06-29T14:46:35Z</time><course>82</course><type>1</type></trkpt>
      <trkpt lat="41.833255" lon="-4.2574167"><ele>2240</ele><speed>44</speed><time>2016-06-29T14:46:36Z</time><course>88</course><type>1</type></trkpt>
      <trkpt lat="41.83325" lon="-4.2572667"><ele>2241</ele><speed>45</speed><time>2016-06-29T14:46:37Z</time><course>95</course><type>1</type></trkpt>
      <trkpt lat="41.8332083" lon="-4.2569667"><ele>2243</ele><speed>45</speed><time>2016-06-29T14:46:39Z</time><course>103</course><type>1</type></trkpt>
      <trkpt lat="41.83316" lon="-4.2566684"><ele>2246</ele><speed>43</speed><time>2016-06-29T14:46:41Z</time><course>105</course><type>1</type></trkpt>
      <trkpt lat="41.8330816" lon="-4.2564034"><ele>2249</ele><speed>43</speed><time>2016-06-29T14:46:43Z</time><course>119</course><type>1</type></trkpt>
      <trkpt lat="41.833025" lon="-4.2562784"><ele>2250</ele><speed>43</speed><time>2016-06-29T14:46:44Z</time><course>123</course><type>1</type></trkpt>
      <trkpt lat="41.8329033" lon="-4.25606"><ele>2253</ele><speed>38</speed><time>2016-06-29T14:46:46Z</time><course>128</course><type>1</type></trkpt>
      <trkpt lat="41.8328416" lon="-4.2559767"><ele>2254</ele><speed>35</speed><time>2016-06-29T14:46:47Z</time><course>132</course><type>1</type></trkpt>
      <trkpt lat="41.8327116" lon="-4.25589"><ele>2257</ele><speed>28</speed><time>2016-06-29T14:46:49Z</time><course>152</course><type>1</type></trkpt>
      <trkpt lat="41.8325833" lon="-4.255885"><ele>2260</ele><speed>15</speed><time>2016-06-29T14:46:52Z</time><course>190</course><type>1</type></trkpt>
      <trkpt lat="41.8325116" lon="-4.2559267"><ele>2262</ele><speed>15</speed><time>2016-06-29T14:46:54Z</time><course>214</course><type>1</type></trkpt>
      <trkpt lat="41.8324933" lon="-4.2560667"><ele>2264</ele><speed>18</speed><time>2016-06-29T14:46:57Z</time><course>276</course><type>1</type></trkpt>
      <trkpt lat="41.8325016" lon="-4.25621"><ele>2266</ele><speed>22</speed><time>2016-06-29T14:46:59Z</time><course>271</course><type>1</type></trkpt>
      <trkpt lat="41.8325833" lon="-4.2563817"><ele>2268</ele><speed>20</speed><time>2016-06-29T14:47:02Z</time><course>321</course><type>1</type></trkpt>
      <trkpt lat="41.8326883" lon="-4.25646"><ele>2269</ele><speed>26</speed><time>2016-06-29T14:47:04Z</time><course>334</course><type>1</type></trkpt>
      <trkpt lat="41.8327533" lon="-4.256495"><ele>2269</ele><speed>30</speed><time>2016-06-29T14:47:05Z</time><course>339</course><type>1</type></trkpt>
      <trkpt lat="41.8329033" lon="-4.25656"><ele>2268</ele><speed>37</speed><time>2016-06-29T14:47:07Z</time><course>350</course><type>1</type></trkpt>
      <trkpt lat="41.8330033" lon="-4.25658"><ele>2267</ele><speed>46</speed><time>2016-06-29T14:47:08Z</time><course>356</course><type>1</type></trkpt>
      <trkpt lat="41.8331083" lon="-4.2565834"><ele>2267</ele><speed>44</speed><time>2016-06-29T14:47:09Z</time><course>2</course><type>1</type></trkpt>
      <trkpt lat="41.8332966" lon="-4.2565684"><ele>2269</ele><speed>35</speed><time>2016-06-29T14:47:11Z</time><course>6</course><type>1</type></trkpt>
      <trkpt lat="41.83338" lon="-4.2565367"><ele>2271</ele><speed>30</speed><time>2016-06-29T14:47:12Z</time><course>21</course><type>1</type></trkpt>
      <trkpt lat="41.8335333" lon="-4.256455"><ele>2272</ele><speed>41</speed><time>2016-06-29T14:47:14Z</time><course>21</course><type>1</type></trkpt>
      <trkpt lat="41.8336283" lon="-4.2564034"><ele>2271</ele><speed>44</speed><time>2016-06-29T14:47:15Z</time><course>22</course><type>1</type></trkpt>
      <trkpt lat="41.8338316" lon="-4.25628"><ele>2272</ele><speed>43</speed><time>2016-06-29T14:47:17Z</time><course>27</course><type>1</type></trkpt>
      <trkpt lat="41.833925" lon="-4.2562084"><ele>2272</ele><speed>43</speed><time>2016-06-29T14:47:18Z</time><course>30</course><type>1</type></trkpt>
      <trkpt lat="41.8341199" lon="-4.2560417"><ele>2271</ele><speed>45</speed><time>2016-06-29T14:47:20Z</time><course>33</course><type>1</type></trkpt>
      <trkpt lat="41.83429" lon="-4.2558184"><ele>2271</ele><speed>48</speed><time>2016-06-29T14:47:22Z</time><course>50</course><type>1</type></trkpt>
      <trkpt lat="41.834355" lon="-4.255685"><ele>2271</ele><speed>49</speed><time>2016-06-29T14:47:23Z</time><course>57</course><type>1</type></trkpt>
      <trkpt lat="41.8344366" lon="-4.2554017"><ele>2272</ele><speed>41</speed><time>2016-06-29T14:47:25Z</time><course>72</course><type>1</type></trkpt>
      <trkpt lat="41.8344816" lon="-4.2551284"><ele>2272</ele><speed>43</speed><time>2016-06-29T14:47:27Z</time><course>82</course><type>1</type></trkpt>
      <trkpt lat="41.8344583" lon="-4.2548334"><ele>2272</ele><speed>44</speed><time>2016-06-29T14:47:29Z</time><course>104</course><type>1</type></trkpt>
      <trkpt lat="41.8343533" lon="-4.2545584"><ele>2271</ele><speed>45</speed><time>2016-06-29T14:47:31Z</time><course>118</course><type>1</type></trkpt>
      <trkpt lat="41.8342066" lon="-4.2543784"><ele>2271</ele><speed>37</speed><time>2016-06-29T14:47:33Z</time><course>137</course><type>1</type></trkpt>
      <trkpt lat="41.8340683" lon="-4.2542334"><ele>2270</ele><speed>33</speed><time>2016-06-29T14:47:35Z</time><course>142</course><type>1</type></trkpt>
      <trkpt lat="41.8338883" lon="-4.2541434"><ele>2269</ele><speed>40</speed><time>2016-06-29T14:47:37Z</time><course>164</course><type>1</type></trkpt>
      <trkpt lat="41.8337833" lon="-4.254125"><ele>2269</ele><speed>42</speed><time>2016-06-29T14:47:38Z</time><course>168</course><type>1</type></trkpt>
      <trkpt lat="41.83362" lon="-4.2541601"><ele>2269</ele><speed>26</speed><time>2016-06-29T14:47:40Z</time><course>189</course><type>1</type></trkpt>
      <trkpt lat="41.8335166" lon="-4.2541867"><ele>2268</ele><speed>17</speed><time>2016-06-29T14:47:42Z</time><course>187</course><type>1</type></trkpt>
      <trkpt lat="41.833405" lon="-4.254225"><ele>2269</ele><speed>24</speed><time>2016-06-29T14:47:44Z</time><course>197</course><type>1</type></trkpt>
      <trkpt lat="41.8333" lon="-4.25431"><ele>2269</ele><speed>24</speed><time>2016-06-29T14:47:46Z</time><course>223</course><type>1</type></trkpt>
      <trkpt lat="41.8332649" lon="-4.2543617"><ele>2269</ele><speed>20</speed><time>2016-06-29T14:47:47Z</time><course>229</course><type>1</type></trkpt>
      <trkpt lat="41.833195" lon="-4.2544567"><ele>2269</ele><speed>18</speed><time>2016-06-29T14:47:49Z</time><course>222</course><type>1</type></trkpt>
      <trkpt lat="41.8331533" lon="-4.2545717"><ele>2269</ele><speed>22</speed><time>2016-06-29T14:47:51Z</time><course>248</course><type>1</type></trkpt>
      <trkpt lat="41.8330966" lon="-4.254725"><ele>2269</ele><speed>26</speed><time>2016-06-29T14:47:53Z</time><course>244</course><type>1</type></trkpt>
      <trkpt lat="41.8330616" lon="-4.2548417"><ele>2269</ele><speed>14</speed><time>2016-06-29T14:47:55Z</time><course>234</course><type>1</type></trkpt>
      <trkpt lat="41.8330533" lon="-4.2549567"><ele>2269</ele><speed>19</speed><time>2016-06-29T14:47:57Z</time><course>267</course><type>1</type></trkpt>
      <trkpt lat="41.83309" lon="-4.255175"><ele>2268</ele><speed>23</speed><time>2016-06-29T14:48:00Z</time><course>294</course><type>1</type></trkpt>
      <trkpt lat="41.8331366" lon="-4.2552434"><ele>2269</ele><speed>26</speed><time>2016-06-29T14:48:01Z</time><course>314</course><type>1</type></trkpt>
      <trkpt lat="41.8331916" lon="-4.2553"><ele>2268</ele><speed>30</speed><time>2016-06-29T14:48:02Z</time><course>327</course><type>1</type></trkpt>
      <trkpt lat="41.8332683" lon="-4.25536"><ele>2267</ele><speed>37</speed><time>2016-06-29T14:48:03Z</time><course>333</course><type>1</type></trkpt>
      <trkpt lat="41.8334833" lon="-4.25545"><ele>2264</ele><speed>48</speed><time>2016-06-29T14:48:05Z</time><course>346</course><type>1</type></trkpt>
      <trkpt lat="41.83359" lon="-4.2554767"><ele>2263</ele><speed>46</speed><time>2016-06-29T14:48:06Z</time><course>359</course><type>1</type></trkpt>
      <trkpt lat="41.8337016" lon="-4.2554684"><ele>2262</ele><speed>44</speed><time>2016-06-29T14:48:07Z</time><course>12</course><type>1</type></trkpt>
      <trkpt lat="41.8338933" lon="-4.25537"><ele>2259</ele><speed>46</speed><time>2016-06-29T14:48:09Z</time><course>27</course><type>1</type></trkpt>
      <trkpt lat="41.8339933" lon="-4.2553"><ele>2257</ele><speed>51</speed><time>2016-06-29T14:48:10Z</time><course>26</course><type>1</type></trkpt>
      <trkpt lat="41.8341016" lon="-4.2552134"><ele>2256</ele><speed>54</speed><time>2016-06-29T14:48:11Z</time><course>32</course><type>1</type></trkpt>
      <trkpt lat="41.8342016" lon="-4.2551067"><ele>2254</ele><speed>55</speed><time>2016-06-29T14:48:12Z</time><course>40</course><type>1</type></trkpt>
      <trkpt lat="41.8343866" lon="-4.2548667"><ele>2251</ele><speed>56</speed><time>2016-06-29T14:48:14Z</time><course>44</course><type>1</type></trkpt>
      <trkpt lat="41.8345866" lon="-4.2546284"><ele>2251</ele><speed>53</speed><time>2016-06-29T14:48:16Z</time><course>46</course><type>1</type></trkpt>
      <trkpt lat="41.8346816" lon="-4.2544767"><ele>2251</ele><speed>51</speed><time>2016-06-29T14:48:17Z</time><course>59</course><type>1</type></trkpt>
      <trkpt lat="41.8347783" lon="-4.254095"><ele>2248</ele><speed>62</speed><time>2016-06-29T14:48:19Z</time><course>82</course><type>1</type></trkpt>
      <trkpt lat="41.8347833" lon="-4.253685"><ele>2245</ele><speed>59</speed><time>2016-06-29T14:48:21Z</time><course>94</course><type>1</type></trkpt>
      <trkpt lat="41.834745" lon="-4.2533134"><ele>2243</ele><speed>55</speed><time>2016-06-29T14:48:23Z</time><course>102</course><type>1</type></trkpt>
      <trkpt lat="41.8347133" lon="-4.2531317"><ele>2242</ele><speed>55</speed><time>2016-06-29T14:48:24Z</time><course>103</course><type>1</type></trkpt>
      <trkpt lat="41.83468" lon="-4.2529484"><ele>2241</ele><speed>57</speed><time>2016-06-29T14:48:25Z</time><course>101</course><type>1</type></trkpt>
      <trkpt lat="41.834625" lon="-4.2525867"><ele>2239</ele><speed>52</speed><time>2016-06-29T14:48:27Z</time><course>100</course><type>1</type></trkpt>
      <trkpt lat="41.8345483" lon="-4.2522684"><ele>2236</ele><speed>47</speed><time>2016-06-29T14:48:29Z</time><course>110</course><type>1</type></trkpt>
      <trkpt lat="41.8344616" lon="-4.25196"><ele>2234</ele><speed>46</speed><time>2016-06-29T14:48:31Z</time><course>107</course><type>1</type></trkpt>
      <trkpt lat="41.8343933" lon="-4.2516134"><ele>2232</ele><speed>53</speed><time>2016-06-29T14:48:33Z</time><course>102</course><type>1</type></trkpt>
      <trkpt lat="41.8343233" lon="-4.2512934"><ele>2230</ele><speed>47</speed><time>2016-06-29T14:48:35Z</time><course>108</course><type>1</type></trkpt>
      <trkpt lat="41.8342216" lon="-4.2509917"><ele>2229</ele><speed>52</speed><time>2016-06-29T14:48:37Z</time><course>115</course><type>1</type></trkpt>
      <trkpt lat="41.8341566" lon="-4.25084"><ele>2228</ele><speed>53</speed><time>2016-06-29T14:48:38Z</time><course>119</course><type>1</type></trkpt>
      <trkpt lat="41.83401" lon="-4.2505801"><ele>2225</ele><speed>44</speed><time>2016-06-29T14:48:40Z</time><course>129</course><type>1</type></trkpt>
      <trkpt lat="41.8339333" lon="-4.2504634"><ele>2223</ele><speed>44</speed><time>2016-06-29T14:48:41Z</time><course>132</course><type>1</type></trkpt>
      <trkpt lat="41.8337583" lon="-4.2502617"><ele>2219</ele><speed>47</speed><time>2016-06-29T14:48:43Z</time><course>140</course><type>1</type></trkpt>
      <trkpt lat="41.833575" lon="-4.2501117"><ele>2218</ele><speed>39</speed><time>2016-06-29T14:48:45Z</time><course>154</course><type>1</type></trkpt>
      <trkpt lat="41.833415" lon="-4.25002"><ele>2217</ele><speed>31</speed><time>2016-06-29T14:48:47Z</time><course>165</course><type>1</type></trkpt>
      <trkpt lat="41.8332683" lon="-4.2499784"><ele>2216</ele><speed>28</speed><time>2016-06-29T14:48:49Z</time><course>172</course><type>1</type></trkpt>
      <trkpt lat="41.8332" lon="-4.2499734"><ele>2216</ele><speed>27</speed><time>2016-06-29T14:48:50Z</time><course>176</course><type>1</type></trkpt>
      <trkpt lat="41.8330683" lon="-4.2499967"><ele>2215</ele><speed>23</speed><time>2016-06-29T14:48:52Z</time><course>193</course><type>1</type></trkpt>
      <trkpt lat="41.832945" lon="-4.2500117"><ele>2213</ele><speed>26</speed><time>2016-06-29T14:48:54Z</time><course>181</course><type>1</type></trkpt>
      <trkpt lat="41.8327833" lon="-4.250015"><ele>2211</ele><speed>33</speed><time>2016-06-29T14:48:56Z</time><course>178</course><type>1</type></trkpt>
      <trkpt lat="41.83271" lon="-4.2500184"><ele>2210</ele><speed>30</speed><time>2016-06-29T14:48:57Z</time><course>181</course><type>1</type></trkpt>
      <trkpt lat="41.8326416" lon="-4.25001"><ele>2209</ele><speed>27</speed><time>2016-06-29T14:48:58Z</time><course>179</course><type>1</type></trkpt>
      <trkpt lat="41.8325716" lon="-4.2500067"><ele>2208</ele><speed>28</speed><time>2016-06-29T14:48:59Z</time><course>177</course><type>1</type></trkpt>
      <trkpt lat="41.832485" lon="-4.250015"><ele>2207</ele><speed>31</speed><time>2016-06-29T14:49:00Z</time><course>177</course><type>1</type></trkpt>
      <trkpt lat="41.8323233" lon="-4.2499784"><ele>2207</ele><speed>35</speed><time>2016-06-29T14:49:02Z</time><course>170</course><type>1</type></trkpt>
      <trkpt lat="41.8322616" lon="-4.2499334"><ele>2207</ele><speed>34</speed><time>2016-06-29T14:49:03Z</time><course>159</course><type>1</type></trkpt>
      <trkpt lat="41.8321416" lon="-4.249795"><ele>2205</ele><speed>31</speed><time>2016-06-29T14:49:05Z</time><course>141</course><type>1</type></trkpt>
      <trkpt lat="41.832025" lon="-4.2495717"><ele>2204</ele><speed>42</speed><time>2016-06-29T14:49:07Z</time><course>126</course><type>1</type></trkpt>
      <trkpt lat="41.83195" lon="-4.2494617"><ele>2202</ele><speed>44</speed><time>2016-06-29T14:49:08Z</time><course>130</course><type>1</type></trkpt>
      <trkpt lat="41.8318699" lon="-4.24936"><ele>2201</ele><speed>43</speed><time>2016-06-29T14:49:09Z</time><course>133</course><type>1</type></trkpt>
      <trkpt lat="41.83172" lon="-4.2491734"><ele>2199</ele><speed>37</speed><time>2016-06-29T14:49:11Z</time><course>132</course><type>1</type></trkpt>
      <trkpt lat="41.8316566" lon="-4.249085"><ele>2198</ele><speed>35</speed><time>2016-06-29T14:49:12Z</time><course>132</course><type>1</type></trkpt>
      <trkpt lat="41.831525" lon="-4.248885"><ele>2196</ele><speed>39</speed><time>2016-06-29T14:49:14Z</time><course>131</course><type>1</type></trkpt>
      <trkpt lat="41.8314583" lon="-4.2487884"><ele>2195</ele><speed>39</speed><time>2016-06-29T14:49:15Z</time><course>133</course><type>1</type></trkpt>
      <trkpt lat="41.83131" lon="-4.2486317"><ele>2193</ele><speed>35</speed><time>2016-06-29T14:49:17Z</time><course>141</course><type>1</type></trkpt>
      <trkpt lat="41.8312383" lon="-4.2485651"><ele>2191</ele><speed>34</speed><time>2016-06-29T14:49:18Z</time><course>142</course><type>1</type></trkpt>
      <trkpt lat="41.8310883" lon="-4.2483984"><ele>2188</ele><speed>38</speed><time>2016-06-29T14:49:20Z</time><course>136</course><type>1</type></trkpt>
      <trkpt lat="41.83101" lon="-4.2483117"><ele>2187</ele><speed>40</speed><time>2016-06-29T14:49:21Z</time><course>137</course><type>1</type></trkpt>
      <trkpt lat="41.8308799" lon="-4.2481517"><ele>2186</ele><speed>34</speed><time>2016-06-29T14:49:23Z</time><course>139</course><type>1</type></trkpt>
      <trkpt lat="41.8308066" lon="-4.2480817"><ele>2184</ele><speed>34</speed><time>2016-06-29T14:49:24Z</time><course>140</course><type>1</type></trkpt>
      <trkpt lat="41.8306483" lon="-4.247945"><ele>2181</ele><speed>37</speed><time>2016-06-29T14:49:26Z</time><course>148</course><type>1</type></trkpt>
      <trkpt lat="41.8305616" lon="-4.2478884"><ele>2179</ele><speed>37</speed><time>2016-06-29T14:49:27Z</time><course>152</course><type>1</type></trkpt>
      <trkpt lat="41.8304" lon="-4.2477734"><ele>2177</ele><speed>34</speed><time>2016-06-29T14:49:29Z</time><course>149</course><type>1</type></trkpt>
      <trkpt lat="41.8302616" lon="-4.2476267"><ele>2175</ele><speed>35</speed><time>2016-06-29T14:49:31Z</time><course>142</course><type>1</type></trkpt>
      <trkpt lat="41.8301066" lon="-4.24746"><ele>2173</ele><speed>40</speed><time>2016-06-29T14:49:33Z</time><course>139</course><type>1</type></trkpt>
      <trkpt lat="41.8300266" lon="-4.247365"><ele>2171</ele><speed>43</speed><time>2016-06-29T14:49:34Z</time><course>139</course><type>1</type></trkpt>
      <trkpt lat="41.8298616" lon="-4.2471417"><ele>2168</ele><speed>48</speed><time>2016-06-29T14:49:36Z</time><course>134</course><type>1</type></trkpt>
      <trkpt lat="41.8296883" lon="-4.2469167"><ele>2164</ele><speed>47</speed><time>2016-06-29T14:49:38Z</time><course>134</course><type>1</type></trkpt>
      <trkpt lat="41.8295216" lon="-4.2466934"><ele>2160</ele><speed>46</speed><time>2016-06-29T14:49:40Z</time><course>134</course><type>1</type></trkpt>
      <trkpt lat="41.8294433" lon="-4.2465784"><ele>2159</ele><speed>45</speed><time>2016-06-29T14:49:41Z</time><course>131</course><type>1</type></trkpt>
      <trkpt lat="41.8292866" lon="-4.2463317"><ele>2155</ele><speed>46</speed><time>2016-06-29T14:49:43Z</time><course>129</course><type>1</type></trkpt>
      <trkpt lat="41.8292" lon="-4.2462067"><ele>2152</ele><speed>48</speed><time>2016-06-29T14:49:44Z</time><course>132</course><type>1</type></trkpt>
      <trkpt lat="41.82904" lon="-4.2459767"><ele>2149</ele><speed>47</speed><time>2016-06-29T14:49:46Z</time><course>132</course><type>1</type></trkpt>
      <trkpt lat="41.82896" lon="-4.2458784"><ele>2147</ele><speed>40</speed><time>2016-06-29T14:49:47Z</time><course>137</course><type>1</type></trkpt>
      <trkpt lat="41.8288083" lon="-4.24573"><ele>2144</ele><speed>37</speed><time>2016-06-29T14:49:49Z</time><course>141</course><type>1</type></trkpt>
      <trkpt lat="41.828725" lon="-4.24565"><ele>2142</ele><speed>41</speed><time>2016-06-29T14:49:50Z</time><course>142</course><type>1</type></trkpt>
      <trkpt lat="41.828545" lon="-4.2454767"><ele>2139</ele><speed>45</speed><time>2016-06-29T14:49:52Z</time><course>142</course><type>1</type></trkpt>
      <trkpt lat="41.8284449" lon="-4.24538"><ele>2137</ele><speed>46</speed><time>2016-06-29T14:49:53Z</time><course>146</course><type>1</type></trkpt>
      <trkpt lat="41.8282466" lon="-4.2451984"><ele>2135</ele><speed>46</speed><time>2016-06-29T14:49:55Z</time><course>144</course><type>1</type></trkpt>
      <trkpt lat="41.8280316" lon="-4.2449817"><ele>2131</ele><speed>56</speed><time>2016-06-29T14:49:57Z</time><course>136</course><type>1</type></trkpt>
      <trkpt lat="41.827835" lon="-4.2447117"><ele>2128</ele><speed>54</speed><time>2016-06-29T14:49:59Z</time><course>134</course><type>1</type></trkpt>
      <trkpt lat="41.827735" lon="-4.244585"><ele>2127</ele><speed>54</speed><time>2016-06-29T14:50:00Z</time><course>136</course><type>1</type></trkpt>
      <trkpt lat="41.8276316" lon="-4.2444617"><ele>2126</ele><speed>54</speed><time>2016-06-29T14:50:01Z</time><course>140</course><type>1</type></trkpt>
      <trkpt lat="41.8274016" lon="-4.2442534"><ele>2124</ele><speed>54</speed><time>2016-06-29T14:50:03Z</time><course>146</course><type>1</type></trkpt>
      <trkpt lat="41.8271766" lon="-4.2440217"><ele>2121</ele><speed>61</speed><time>2016-06-29T14:50:05Z</time><course>139</course><type>1</type></trkpt>
      <trkpt lat="41.827065" lon="-4.2438867"><ele>2120</ele><speed>60</speed><time>2016-06-29T14:50:06Z</time><course>138</course><type>1</type></trkpt>
      <trkpt lat="41.8268516" lon="-4.24365"><ele>2118</ele><speed>51</speed><time>2016-06-29T14:50:08Z</time><course>141</course><type>1</type></trkpt>
      <trkpt lat="41.8267533" lon="-4.24355"><ele>2117</ele><speed>47</speed><time>2016-06-29T14:50:09Z</time><course>144</course><type>1</type></trkpt>
      <trkpt lat="41.8265433" lon="-4.2433751"><ele>2115</ele><speed>49</speed><time>2016-06-29T14:50:11Z</time><course>148</course><type>1</type></trkpt>
      <trkpt lat="41.8263116" lon="-4.2431534"><ele>2113</ele><speed>60</speed><time>2016-06-29T14:50:13Z</time><course>141</course><type>1</type></trkpt>
      <trkpt lat="41.8261183" lon="-4.242885"><ele>2111</ele><speed>53</speed><time>2016-06-29T14:50:15Z</time><course>134</course><type>1</type></trkpt>
      <trkpt lat="41.8260216" lon="-4.24276"><ele>2109</ele><speed>53</speed><time>2016-06-29T14:50:16Z</time><course>136</course><type>1</type></trkpt>
      <trkpt lat="41.8258183" lon="-4.24251"><ele>2108</ele><speed>56</speed><time>2016-06-29T14:50:18Z</time><course>137</course><type>1</type></trkpt>
      <trkpt lat="41.82572" lon="-4.2423767"><ele>2108</ele><speed>58</speed><time>2016-06-29T14:50:19Z</time><course>135</course><type>1</type></trkpt>
      <trkpt lat="41.8255333" lon="-4.24212"><ele>2107</ele><speed>57</speed><time>2016-06-29T14:50:21Z</time><course>135</course><type>1</type></trkpt>
      <trkpt lat="41.825445" lon="-4.2419984"><ele>2107</ele><speed>57</speed><time>2016-06-29T14:50:22Z</time><course>135</course><type>1</type></trkpt>
      <trkpt lat="41.8252466" lon="-4.2417734"><ele>2106</ele><speed>50</speed><time>2016-06-29T14:50:24Z</time><course>142</course><type>1</type></trkpt>
      <trkpt lat="41.82515" lon="-4.2416784"><ele>2106</ele><speed>46</speed><time>2016-06-29T14:50:25Z</time><course>145</course><type>1</type></trkpt>
      <trkpt lat="41.82498" lon="-4.2415217"><ele>2105</ele><speed>40</speed><time>2016-06-29T14:50:27Z</time><course>144</course><type>1</type></trkpt>
      <trkpt lat="41.824795" lon="-4.2413484"><ele>2104</ele><speed>50</speed><time>2016-06-29T14:50:29Z</time><course>143</course><type>1</type></trkpt>
      <trkpt lat="41.8246983" lon="-4.2412484"><ele>2104</ele><speed>51</speed><time>2016-06-29T14:50:30Z</time><course>140</course><type>1</type></trkpt>
      <trkpt lat="41.8246066" lon="-4.241135"><ele>2105</ele><speed>48</speed><time>2016-06-29T14:50:31Z</time><course>136</course><type>1</type></trkpt>
      <trkpt lat="41.8244499" lon="-4.2408867"><ele>2105</ele><speed>51</speed><time>2016-06-29T14:50:33Z</time><course>124</course><type>1</type></trkpt>
      <trkpt lat="41.8243216" lon="-4.2405917"><ele>2106</ele><speed>50</speed><time>2016-06-29T14:50:35Z</time><course>117</course><type>1</type></trkpt>
      <trkpt lat="41.8242483" lon="-4.2402867"><ele>2107</ele><speed>50</speed><time>2016-06-29T14:50:37Z</time><course>103</course><type>1</type></trkpt>
      <trkpt lat="41.82421" lon="-4.2399567"><ele>2107</ele><speed>50</speed><time>2016-06-29T14:50:39Z</time><course>94</course><type>1</type></trkpt>
      <trkpt lat="41.8242283" lon="-4.2396034"><ele>2112</ele><speed>51</speed><time>2016-06-29T14:50:41Z</time><course>84</course><type>1</type></trkpt>
      <trkpt lat="41.8242716" lon="-4.23929"><ele>2116</ele><speed>44</speed><time>2016-06-29T14:50:43Z</time><course>80</course><type>1</type></trkpt>
      <trkpt lat="41.824305" lon="-4.2389984"><ele>2117</ele><speed>43</speed><time>2016-06-29T14:50:45Z</time><course>81</course><type>1</type></trkpt>
      <trkpt lat="41.8243466" lon="-4.238675"><ele>2118</ele><speed>54</speed><time>2016-06-29T14:50:47Z</time><course>78</course><type>1</type></trkpt>
      <trkpt lat="41.824375" lon="-4.2385034"><ele>2118</ele><speed>52</speed><time>2016-06-29T14:50:48Z</time><course>77</course><type>1</type></trkpt>
      <trkpt lat="41.8244466" lon="-4.2382201"><ele>2121</ele><speed>39</speed><time>2016-06-29T14:50:50Z</time><course>69</course><type>1</type></trkpt>
      <trkpt lat="41.824525" lon="-4.23799"><ele>2122</ele><speed>40</speed><time>2016-06-29T14:50:52Z</time><course>66</course><type>1</type></trkpt>
      <trkpt lat="41.8246066" lon="-4.237715"><ele>2123</ele><speed>45</speed><time>2016-06-29T14:50:54Z</time><course>68</course><type>1</type></trkpt>
      <trkpt lat="41.8247133" lon="-4.2374617"><ele>2123</ele><speed>42</speed><time>2016-06-29T14:50:56Z</time><course>53</course><type>1</type></trkpt>
      <trkpt lat="41.824775" lon="-4.23736"><ele>2123</ele><speed>38</speed><time>2016-06-29T14:50:57Z</time><course>49</course><type>1</type></trkpt>
      <trkpt lat="41.824835" lon="-4.2372684"><ele>2123</ele><speed>35</speed><time>2016-06-29T14:50:58Z</time><course>50</course><type>1</type></trkpt>
      <trkpt lat="41.82495" lon="-4.2370734"><ele>2122</ele><speed>36</speed><time>2016-06-29T14:51:00Z</time><course>50</course><type>1</type></trkpt>
      <trkpt lat="41.8250183" lon="-4.2369767"><ele>2122</ele><speed>38</speed><time>2016-06-29T14:51:01Z</time><course>45</course><type>1</type></trkpt>
      <trkpt lat="41.8251683" lon="-4.2368167"><ele>2123</ele><speed>38</speed><time>2016-06-29T14:51:03Z</time><course>36</course><type>1</type></trkpt>
      <trkpt lat="41.8253033" lon="-4.2367017"><ele>2123</ele><speed>30</speed><time>2016-06-29T14:51:05Z</time><course>32</course><type>1</type></trkpt>
      <trkpt lat="41.8254333" lon="-4.2366017"><ele>2123</ele><speed>30</speed><time>2016-06-29T14:51:07Z</time><course>25</course><type>1</type></trkpt>
      <trkpt lat="41.8255716" lon="-4.236525"><ele>2124</ele><speed>28</speed><time>2016-06-29T14:51:09Z</time><course>21</course><type>1</type></trkpt>
      <trkpt lat="41.8257" lon="-4.2364634"><ele>2125</ele><speed>26</speed><time>2016-06-29T14:51:11Z</time><course>17</course><type>1</type></trkpt>
      <trkpt lat="41.8257583" lon="-4.2364417"><ele>2126</ele><speed>24</speed><time>2016-06-29T14:51:12Z</time><course>15</course><type>1</type></trkpt>
      <trkpt lat="41.8258733" lon="-4.2364267"><ele>2127</ele><speed>21</speed><time>2016-06-29T14:51:14Z</time><course>2</course><type>1</type></trkpt>
      <trkpt lat="41.82597" lon="-4.23647"><ele>2128</ele><speed>21</speed><time>2016-06-29T14:51:16Z</time><course>336</course><type>1</type></trkpt>
      <trkpt lat="41.8260466" lon="-4.23656"><ele>2130</ele><speed>19</speed><time>2016-06-29T14:51:18Z</time><course>323</course><type>1</type></trkpt>
      <trkpt lat="41.8261149" lon="-4.2366367"><ele>2132</ele><speed>15</speed><time>2016-06-29T14:51:20Z</time><course>316</course><type>1</type></trkpt>
      <trkpt lat="41.8261416" lon="-4.23668"><ele>2133</ele><speed>13</speed><time>2016-06-29T14:51:21Z</time><course>311</course><type>1</type></trkpt>
      <trkpt lat="41.82619" lon="-4.23676"><ele>2135</ele><speed>15</speed><time>2016-06-29T14:51:23Z</time><course>303</course><type>1</type></trkpt>
      <trkpt lat="41.8262049" lon="-4.2368084"><ele>2136</ele><speed>14</speed><time>2016-06-29T14:51:24Z</time><course>289</course><type>1</type></trkpt>
      <trkpt lat="41.8262116" lon="-4.23686"><ele>2136</ele><speed>15</speed><time>2016-06-29T14:51:25Z</time><course>276</course><type>1</type></trkpt>
      <trkpt lat="41.8261816" lon="-4.236975"><ele>2138</ele><speed>18</speed><time>2016-06-29T14:51:27Z</time><course>244</course><type>1</type></trkpt>
      <trkpt lat="41.8261516" lon="-4.23703"><ele>2138</ele><speed>19</speed><time>2016-06-29T14:51:28Z</time><course>224</course><type>1</type></trkpt>
      <trkpt lat="41.8261133" lon="-4.237075"><ele>2139</ele><speed>19</speed><time>2016-06-29T14:51:29Z</time><course>219</course><type>1</type></trkpt>
      <trkpt lat="41.82603" lon="-4.2371717"><ele>2140</ele><speed>21</speed><time>2016-06-29T14:51:31Z</time><course>219</course><type>1</type></trkpt>
      <trkpt lat="41.8259333" lon="-4.2372834"><ele>2141</ele><speed>29</speed><time>2016-06-29T14:51:33Z</time><course>218</course><type>1</type></trkpt>
      <trkpt lat="41.8258633" lon="-4.2373367"><ele>2141</ele><speed>32</speed><time>2016-06-29T14:51:34Z</time><course>204</course><type>1</type></trkpt>
      <trkpt lat="41.8256883" lon="-4.2373817"><ele>2142</ele><speed>33</speed><time>2016-06-29T14:51:36Z</time><course>180</course><type>1</type></trkpt>
      <trkpt lat="41.8255416" lon="-4.237385"><ele>2142</ele><speed>29</speed><time>2016-06-29T14:51:38Z</time><course>181</course><type>1</type></trkpt>
      <trkpt lat="41.8253783" lon="-4.2374067"><ele>2143</ele><speed>33</speed><time>2016-06-29T14:51:40Z</time><course>183</course><type>1</type></trkpt>
      <trkpt lat="41.8252933" lon="-4.2374084"><ele>2143</ele><speed>33</speed><time>2016-06-29T14:51:41Z</time><course>180</course><type>1</type></trkpt>
      <trkpt lat="41.8251066" lon="-4.237405"><ele>2144</ele><speed>34</speed><time>2016-06-29T14:51:43Z</time><course>180</course><type>1</type></trkpt>
      <trkpt lat="41.8249716" lon="-4.2374317"><ele>2145</ele><speed>25</speed><time>2016-06-29T14:51:45Z</time><course>190</course><type>1</type></trkpt>
      <trkpt lat="41.8248983" lon="-4.2374567"><ele>2145</ele><speed>28</speed><time>2016-06-29T14:51:46Z</time><course>190</course><type>1</type></trkpt>
      <trkpt lat="41.8248166" lon="-4.237475"><ele>2145</ele><speed>31</speed><time>2016-06-29T14:51:47Z</time><course>188</course><type>1</type></trkpt>
      <trkpt lat="41.82473" lon="-4.2374867"><ele>2146</ele><speed>32</speed><time>2016-06-29T14:51:48Z</time><course>185</course><type>1</type></trkpt>
      <trkpt lat="41.8245533" lon="-4.2375067"><ele>2146</ele><speed>31</speed><time>2016-06-29T14:51:50Z</time><course>186</course><type>1</type></trkpt>
      <trkpt lat="41.8244733" lon="-4.2375217"><ele>2146</ele><speed>31</speed><time>2016-06-29T14:51:51Z</time><course>188</course><type>1</type></trkpt>
      <trkpt lat="41.8243183" lon="-4.2375384"><ele>2146</ele><speed>30</speed><time>2016-06-29T14:51:53Z</time><course>188</course><type>1</type></trkpt>
      <trkpt lat="41.824245" lon="-4.2375467"><ele>2146</ele><speed>29</speed><time>2016-06-29T14:51:54Z</time><course>188</course><type>1</type></trkpt>
      <trkpt lat="41.8241216" lon="-4.2375734"><ele>2144</ele><speed>24</speed><time>2016-06-29T14:51:56Z</time><course>197</course><type>1</type></trkpt>
      <trkpt lat="41.824065" lon="-4.23759"><ele>2144</ele><speed>24</speed><time>2016-06-29T14:51:57Z</time><course>197</course><type>1</type></trkpt>
      <trkpt lat="41.82395" lon="-4.2376284"><ele>2144</ele><speed>23</speed><time>2016-06-29T14:51:59Z</time><course>192</course><type>1</type></trkpt>
      <trkpt lat="41.8238516" lon="-4.2376484"><ele>2144</ele><speed>19</speed><time>2016-06-29T14:52:01Z</time><course>192</course><type>1</type></trkpt>
      <trkpt lat="41.8237533" lon="-4.2376734"><ele>2144</ele><speed>20</speed><time>2016-06-29T14:52:03Z</time><course>191</course><type>1</type></trkpt>
      <trkpt lat="41.8236183" lon="-4.2376967"><ele>2144</ele><speed>25</speed><time>2016-06-29T14:52:05Z</time><course>172</course><type>1</type></trkpt>
      <trkpt lat="41.8235483" lon="-4.2376834"><ele>2144</ele><speed>26</speed><time>2016-06-29T14:52:06Z</time><course>166</course><type>1</type></trkpt>
      <trkpt lat="41.8234116" lon="-4.2376284"><ele>2144</ele><speed>29</speed><time>2016-06-29T14:52:08Z</time><course>159</course><type>1</type></trkpt>
      <trkpt lat="41.8232416" lon="-4.23755"><ele>2144</ele><speed>38</speed><time>2016-06-29T14:52:10Z</time><course>160</course><type>1</type></trkpt>
      <trkpt lat="41.8230633" lon="-4.2374834"><ele>2146</ele><speed>32</speed><time>2016-06-29T14:52:12Z</time><course>164</course><type>1</type></trkpt>
      <trkpt lat="41.822995" lon="-4.2374434"><ele>2147</ele><speed>30</speed><time>2016-06-29T14:52:13Z</time><course>159</course><type>1</type></trkpt>
      <trkpt lat="41.82289" lon="-4.237385"><ele>2149</ele><speed>28</speed><time>2016-06-29T14:52:15Z</time><course>162</course><type>1</type></trkpt>
      <trkpt lat="41.8227383" lon="-4.2373317"><ele>2152</ele><speed>32</speed><time>2016-06-29T14:52:17Z</time><course>171</course><type>1</type></trkpt>
      <trkpt lat="41.8226033" lon="-4.2373084"><ele>2154</ele><speed>23</speed><time>2016-06-29T14:52:19Z</time><course>181</course><type>1</type></trkpt>
      <trkpt lat="41.8224816" lon="-4.2373117"><ele>2156</ele><speed>25</speed><time>2016-06-29T14:52:21Z</time><course>183</course><type>1</type></trkpt>
      <trkpt lat="41.8223483" lon="-4.23732"><ele>2158</ele><speed>28</speed><time>2016-06-29T14:52:23Z</time><course>188</course><type>1</type></trkpt>
      <trkpt lat="41.8222933" lon="-4.237325"><ele>2160</ele><speed>23</speed><time>2016-06-29T14:52:24Z</time><course>188</course><type>1</type></trkpt>
      <trkpt lat="41.8222516" lon="-4.2373334"><ele>2162</ele><speed>17</speed><time>2016-06-29T14:52:25Z</time><course>196</course><type>1</type></trkpt>
      <trkpt lat="41.8221783" lon="-4.2373867"><ele>2166</ele><speed>18</speed><time>2016-06-29T14:52:27Z</time><course>212</course><type>1</type></trkpt>
      <trkpt lat="41.8220866" lon="-4.237475"><ele>2170</ele><speed>20</speed><time>2016-06-29T14:52:29Z</time><course>211</course><type>1</type></trkpt>
      <trkpt lat="41.8220166" lon="-4.23749"><ele>2173</ele><speed>13</speed><time>2016-06-29T14:52:31Z</time><course>183</course><type>1</type></trkpt>
      <trkpt lat="41.8219216" lon="-4.237515"><ele>2182</ele><speed>9</speed><time>2016-06-29T14:52:34Z</time><course>208</course><type>1</type></trkpt>
      <trkpt lat="41.8220166" lon="-4.2375834"><ele>2192</ele><speed>30</speed><time>2016-06-29T14:52:38Z</time><course>21</course><type>1</type></trkpt>
      <trkpt lat="41.822085" lon="-4.23753"><ele>2193</ele><speed>36</speed><time>2016-06-29T14:52:39Z</time><course>38</course><type>1</type></trkpt>
      <trkpt lat="41.8222133" lon="-4.2373084"><ele>2197</ele><speed>50</speed><time>2016-06-29T14:52:41Z</time><course>58</course><type>1</type></trkpt>
      <trkpt lat="41.82228" lon="-4.23715"><ele>2199</ele><speed>56</speed><time>2016-06-29T14:52:42Z</time><course>66</course><type>1</type></trkpt>
      <trkpt lat="41.822365" lon="-4.2367584"><ele>2203</ele><speed>62</speed><time>2016-06-29T14:52:44Z</time><course>84</course><type>1</type></trkpt>
      <trkpt lat="41.8223633" lon="-4.2365384"><ele>2205</ele><speed>66</speed><time>2016-06-29T14:52:45Z</time><course>97</course><type>1</type></trkpt>
      <trkpt lat="41.8222883" lon="-4.236145"><ele>2211</ele><speed>56</speed><time>2016-06-29T14:52:47Z</time><course>117</course><type>1</type></trkpt>
      <trkpt lat="41.8222283" lon="-4.2359867"><ele>2214</ele><speed>51</speed><time>2016-06-29T14:52:48Z</time><course>119</course><type>1</type></trkpt>
      <trkpt lat="41.8220966" lon="-4.23571"><ele>2219</ele><speed>48</speed><time>2016-06-29T14:52:50Z</time><course>124</course><type>1</type></trkpt>
      <trkpt lat="41.8220283" lon="-4.235575"><ele>2222</ele><speed>48</speed><time>2016-06-29T14:52:51Z</time><course>126</course><type>1</type></trkpt>
      <trkpt lat="41.8218716" lon="-4.2353234"><ele>2226</ele><speed>47</speed><time>2016-06-29T14:52:53Z</time><course>133</course><type>1</type></trkpt>
      <trkpt lat="41.821795" lon="-4.2352317"><ele>2229</ele><speed>41</speed><time>2016-06-29T14:52:54Z</time><course>146</course><type>1</type></trkpt>
      <trkpt lat="41.8216283" lon="-4.23511"><ele>2234</ele><speed>40</speed><time>2016-06-29T14:52:56Z</time><course>156</course><type>1</type></trkpt>
      <trkpt lat="41.8214633" lon="-4.2350367"><ele>2235</ele><speed>30</speed><time>2016-06-29T14:52:58Z</time><course>165</course><type>1</type></trkpt>
      <trkpt lat="41.8213416" lon="-4.2349934"><ele>2241</ele><speed>22</speed><time>2016-06-29T14:53:00Z</time><course>181</course><type>1</type></trkpt>
      <trkpt lat="41.82123" lon="-4.2349717"><ele>2245</ele><speed>22</speed><time>2016-06-29T14:53:02Z</time><course>181</course><type>1</type></trkpt>
      <trkpt lat="41.8211833" lon="-4.234975"><ele>2248</ele><speed>19</speed><time>2016-06-29T14:53:03Z</time><course>202</course><type>1</type></trkpt>
      <trkpt lat="41.82114" lon="-4.2350184"><ele>2251</ele><speed>13</speed><time>2016-06-29T14:53:05Z</time><course>252</course><type>1</type></trkpt>
      <trkpt lat="41.8211266" lon="-4.2350934"><ele>2256</ele><speed>11</speed><time>2016-06-29T14:53:07Z</time><course>255</course><type>1</type></trkpt>
      <trkpt lat="41.8210833" lon="-4.2351834"><ele>2264</ele><speed>8</speed><time>2016-06-29T14:53:10Z</time><course>235</course><type>1</type></trkpt>
      <trkpt lat="41.8212083" lon="-4.2351817"><ele>2272</ele><speed>28</speed><time>2016-06-29T14:53:13Z</time><course>0</course><type>1</type></trkpt>
      <trkpt lat="41.8212866" lon="-4.23516"><ele>2275</ele><speed>30</speed><time>2016-06-29T14:53:14Z</time><course>17</course><type>1</type></trkpt>
      <trkpt lat="41.8214366" lon="-4.2350317"><ele>2280</ele><speed>44</speed><time>2016-06-29T14:53:16Z</time><course>44</course><type>1</type></trkpt>
      <trkpt lat="41.82151" lon="-4.2349134"><ele>2282</ele><speed>52</speed><time>2016-06-29T14:53:17Z</time><course>54</course><type>1</type></trkpt>
      <trkpt lat="41.8216266" lon="-4.23461"><ele>2289</ele><speed>50</speed><time>2016-06-29T14:53:19Z</time><course>75</course><type>1</type></trkpt>
      <trkpt lat="41.82166" lon="-4.2344534"><ele>2291</ele><speed>47</speed><time>2016-06-29T14:53:20Z</time><course>78</course><type>1</type></trkpt>
      <trkpt lat="41.8216733" lon="-4.2341334"><ele>2296</ele><speed>47</speed><time>2016-06-29T14:53:22Z</time><course>99</course><type>1</type></trkpt>
      <trkpt lat="41.8216433" lon="-4.2339684"><ele>2299</ele><speed>55</speed><time>2016-06-29T14:53:23Z</time><course>109</course><type>1</type></trkpt>
      <trkpt lat="41.8215166" lon="-4.2336717"><ele>2304</ele><speed>51</speed><time>2016-06-29T14:53:25Z</time><course>125</course><type>1</type></trkpt>
      <trkpt lat="41.821435" lon="-4.2335617"><ele>2306</ele><speed>46</speed><time>2016-06-29T14:53:26Z</time><course>136</course><type>1</type></trkpt>
      <trkpt lat="41.8212533" lon="-4.2334084"><ele>2310</ele><speed>41</speed><time>2016-06-29T14:53:28Z</time><course>150</course><type>1</type></trkpt>
      <trkpt lat="41.8211683" lon="-4.2333567"><ele>2313</ele><speed>35</speed><time>2016-06-29T14:53:29Z</time><course>155</course><type>1</type></trkpt>
      <trkpt lat="41.82101" lon="-4.2332667"><ele>2314</ele><speed>33</speed><time>2016-06-29T14:53:31Z</time><course>154</course><type>1</type></trkpt>
      <trkpt lat="41.8209316" lon="-4.2332317"><ele>2316</ele><speed>32</speed><time>2016-06-29T14:53:32Z</time><course>162</course><type>1</type></trkpt>
      <trkpt lat="41.8207699" lon="-4.233205"><ele>2321</ele><speed>31</speed><time>2016-06-29T14:53:34Z</time><course>180</course><type>1</type></trkpt>
      <trkpt lat="41.8206216" lon="-4.2332384"><ele>2326</ele><speed>28</speed><time>2016-06-29T14:53:36Z</time><course>194</course><type>1</type></trkpt>
      <trkpt lat="41.8204966" lon="-4.233265"><ele>2328</ele><speed>20</speed><time>2016-06-29T14:53:38Z</time><course>180</course><type>1</type></trkpt>
      <trkpt lat="41.82045" lon="-4.2332634"><ele>2330</ele><speed>18</speed><time>2016-06-29T14:53:39Z</time><course>179</course><type>1</type></trkpt>
      <trkpt lat="41.8204133" lon="-4.2332617"><ele>2333</ele><speed>18</speed><time>2016-06-29T14:53:40Z</time><course>183</course><type>1</type></trkpt>
      <trkpt lat="41.8203416" lon="-4.2333467"><ele>2338</ele><speed>18</speed><time>2016-06-29T14:53:42Z</time><course>233</course><type>1</type></trkpt>
      <trkpt lat="41.8203199" lon="-4.2334634"><ele>2343</ele><speed>16</speed><time>2016-06-29T14:53:44Z</time><course>264</course><type>1</type></trkpt>
      <trkpt lat="41.8203266" lon="-4.233545"><ele>2348</ele><speed>11</speed><time>2016-06-29T14:53:46Z</time><course>275</course><type>1</type></trkpt>
      <trkpt lat="41.8204133" lon="-4.2336067"><ele>2351</ele><speed>20</speed><time>2016-06-29T14:53:49Z</time><course>347</course><type>1</type></trkpt>
      <trkpt lat="41.8205433" lon="-4.2336167"><ele>2355</ele><speed>32</speed><time>2016-06-29T14:53:51Z</time><course>0</course><type>1</type></trkpt>
      <trkpt lat="41.82064" lon="-4.2335617"><ele>2357</ele><speed>38</speed><time>2016-06-29T14:53:52Z</time><course>35</course><type>1</type></trkpt>
      <trkpt lat="41.820795" lon="-4.23335"><ele>2360</ele><speed>48</speed><time>2016-06-29T14:53:54Z</time><course>55</course><type>1</type></trkpt>
      <trkpt lat="41.8208816" lon="-4.2332084"><ele>2363</ele><speed>58</speed><time>2016-06-29T14:53:55Z</time><course>54</course><type>1</type></trkpt>
      <trkpt lat="41.8210266" lon="-4.232855"><ele>2367</ele><speed>60</speed><time>2016-06-29T14:53:57Z</time><course>75</course><type>1</type></trkpt>
      <trkpt lat="41.82105" lon="-4.2324584"><ele>2372</ele><speed>61</speed><time>2016-06-29T14:53:59Z</time><course>104</course><type>1</type></trkpt>
      <trkpt lat="41.8209216" lon="-4.2321384"><ele>2378</ele><speed>53</speed><time>2016-06-29T14:54:01Z</time><course>135</course><type>1</type></trkpt>
      <trkpt lat="41.820755" lon="-4.231915"><ele>2383</ele><speed>46</speed><time>2016-06-29T14:54:03Z</time><course>132</course><type>1</type></trkpt>
      <trkpt lat="41.8206483" lon="-4.23171"><ele>2388</ele><speed>36</speed><time>2016-06-29T14:54:05Z</time><course>124</course><type>1</type></trkpt>
      <trkpt lat="41.8205516" lon="-4.231535"><ele>2393</ele><speed>32</speed><time>2016-06-29T14:54:07Z</time><course>132</course><type>1</type></trkpt>
      <trkpt lat="41.8204166" lon="-4.2314734"><ele>2395</ele><speed>29</speed><time>2016-06-29T14:54:09Z</time><course>162</course><type>1</type></trkpt>
      <trkpt lat="41.82029" lon="-4.231425"><ele>2399</ele><speed>26</speed><time>2016-06-29T14:54:11Z</time><course>167</course><type>1</type></trkpt>
      <trkpt lat="41.820185" lon="-4.231355"><ele>2404</ele><speed>25</speed><time>2016-06-29T14:54:13Z</time><course>154</course><type>1</type></trkpt>
      <trkpt lat="41.820125" lon="-4.2313234"><ele>2405</ele><speed>24</speed><time>2016-06-29T14:54:14Z</time><course>163</course><type>1</type></trkpt>
      <trkpt lat="41.82003" lon="-4.2313167"><ele>2410</ele><speed>16</speed><time>2016-06-29T14:54:16Z</time><course>198</course><type>1</type></trkpt>
      <trkpt lat="41.8199766" lon="-4.23137"><ele>2413</ele><speed>14</speed><time>2016-06-29T14:54:18Z</time><course>225</course><type>1</type></trkpt>
      <trkpt lat="41.8199316" lon="-4.2313917"><ele>2417</ele><speed>12</speed><time>2016-06-29T14:54:20Z</time><course>193</course><type>1</type></trkpt>
      <trkpt lat="41.8198716" lon="-4.2314234"><ele>2421</ele><speed>10</speed><time>2016-06-29T14:54:22Z</time><course>206</course><type>1</type></trkpt>
      <trkpt lat="41.8198266" lon="-4.2314651"><ele>2426</ele><speed>9</speed><time>2016-06-29T14:54:25Z</time><course>207</course><type>1</type></trkpt>
      <trkpt lat="41.8197783" lon="-4.2315234"><ele>2433</ele><speed>8</speed><time>2016-06-29T14:54:29Z</time><course>320</course><type>1</type></trkpt>
      <trkpt lat="41.8198266" lon="-4.2315634"><ele>2436</ele><speed>10</speed><time>2016-06-29T14:54:31Z</time><course>332</course><type>1</type></trkpt>
      <trkpt lat="41.8198983" lon="-4.2316367"><ele>2439</ele><speed>16</speed><time>2016-06-29T14:54:34Z</time><course>337</course><type>1</type></trkpt>
      <trkpt lat="41.8200166" lon="-4.23165"><ele>2439</ele><speed>29</speed><time>2016-06-29T14:54:36Z</time><course>3</course><type>1</type></trkpt>
      <trkpt lat="41.8201583" lon="-4.231605"><ele>2440</ele><speed>29</speed><time>2016-06-29T14:54:38Z</time><course>17</course><type>1</type></trkpt>
      <trkpt lat="41.8203066" lon="-4.23156"><ele>2441</ele><speed>29</speed><time>2016-06-29T14:54:40Z</time><course>8</course><type>1</type></trkpt>
      <trkpt lat="41.8204766" lon="-4.2315"><ele>2440</ele><speed>36</speed><time>2016-06-29T14:54:42Z</time><course>13</course><type>1</type></trkpt>
      <trkpt lat="41.8205683" lon="-4.2314617"><ele>2440</ele><speed>39</speed><time>2016-06-29T14:54:43Z</time><course>16</course><type>1</type></trkpt>
      <trkpt lat="41.8207433" lon="-4.2313434"><ele>2439</ele><speed>37</speed><time>2016-06-29T14:54:45Z</time><course>32</course><type>1</type></trkpt>
      <trkpt lat="41.8209083" lon="-4.2311584"><ele>2438</ele><speed>46</speed><time>2016-06-29T14:54:47Z</time><course>43</course><type>1</type></trkpt>
      <trkpt lat="41.8211083" lon="-4.2309334"><ele>2437</ele><speed>54</speed><time>2016-06-29T14:54:49Z</time><course>37</course><type>1</type></trkpt>
      <trkpt lat="41.821325" lon="-4.2307267"><ele>2436</ele><speed>50</speed><time>2016-06-29T14:54:51Z</time><course>32</course><type>1</type></trkpt>
      <trkpt lat="41.8214183" lon="-4.230635"><ele>2436</ele><speed>50</speed><time>2016-06-29T14:54:52Z</time><course>30</course><type>1</type></trkpt>
      <trkpt lat="41.82163" lon="-4.2304334"><ele>2437</ele><speed>52</speed><time>2016-06-29T14:54:54Z</time><course>39</course><type>1</type></trkpt>
      <trkpt lat="41.821825" lon="-4.2302017"><ele>2438</ele><speed>49</speed><time>2016-06-29T14:54:56Z</time><course>41</course><type>1</type></trkpt>
      <trkpt lat="41.8220016" lon="-4.2299584"><ele>2438</ele><speed>53</speed><time>2016-06-29T14:54:58Z</time><course>49</course><type>1</type></trkpt>
      <trkpt lat="41.822125" lon="-4.2295934"><ele>2440</ele><speed>61</speed><time>2016-06-29T14:55:00Z</time><course>76</course><type>1</type></trkpt>
      <trkpt lat="41.82218" lon="-4.2291967"><ele>2441</ele><speed>62</speed><time>2016-06-29T14:55:02Z</time><course>84</course><type>1</type></trkpt>
      <trkpt lat="41.8222083" lon="-4.22881"><ele>2442</ele><speed>58</speed><time>2016-06-29T14:55:04Z</time><course>87</course><type>1</type></trkpt>
      <trkpt lat="41.8222033" lon="-4.2284317"><ele>2442</ele><speed>55</speed><time>2016-06-29T14:55:06Z</time><course>94</course><type>1</type></trkpt>
      <trkpt lat="41.8221283" lon="-4.2280867"><ele>2442</ele><speed>53</speed><time>2016-06-29T14:55:08Z</time><course>110</course><type>1</type></trkpt>
      <trkpt lat="41.8220749" lon="-4.22793"><ele>2442</ele><speed>50</speed><time>2016-06-29T14:55:09Z</time><course>114</course><type>1</type></trkpt>
      <trkpt lat="41.8219399" lon="-4.2276601"><ele>2442</ele><speed>47</speed><time>2016-06-29T14:55:11Z</time><course>125</course><type>1</type></trkpt>
      <trkpt lat="41.8218566" lon="-4.2275517"><ele>2442</ele><speed>46</speed><time>2016-06-29T14:55:12Z</time><course>134</course><type>1</type></trkpt>
      <trkpt lat="41.8216833" lon="-4.2274084"><ele>2443</ele><speed>40</speed><time>2016-06-29T14:55:14Z</time><course>155</course><type>1</type></trkpt>
      <trkpt lat="41.821595" lon="-4.2273667"><ele>2443</ele><speed>40</speed><time>2016-06-29T14:55:15Z</time><course>161</course><type>1</type></trkpt>
      <trkpt lat="41.82141" lon="-4.2273084"><ele>2444</ele><speed>37</speed><time>2016-06-29T14:55:17Z</time><course>167</course><type>1</type></trkpt>
      <trkpt lat="41.8212633" lon="-4.2272617"><ele>2446</ele><speed>29</speed><time>2016-06-29T14:55:19Z</time><course>169</course><type>1</type></trkpt>
      <trkpt lat="41.8212166" lon="-4.2272384"><ele>2447</ele><speed>20</speed><time>2016-06-29T14:55:20Z</time><course>164</course><type>1</type></trkpt>
      <trkpt lat="41.8211683" lon="-4.2272184"><ele>2447</ele><speed>19</speed><time>2016-06-29T14:55:21Z</time><course>161</course><type>1</type></trkpt>
      <trkpt lat="41.8210766" lon="-4.2271834"><ele>2448</ele><speed>18</speed><time>2016-06-29T14:55:23Z</time><course>169</course><type>1</type></trkpt>
      <trkpt lat="41.820985" lon="-4.227195"><ele>2447</ele><speed>18</speed><time>2016-06-29T14:55:25Z</time><course>190</course><type>1</type></trkpt>
      <trkpt lat="41.8209216" lon="-4.2272217"><ele>2447</ele><speed>12</speed><time>2016-06-29T14:55:27Z</time><course>195</course><type>1</type></trkpt>
      <trkpt lat="41.8208683" lon="-4.2272434"><ele>2448</ele><speed>5</speed><time>2016-06-29T14:55:31Z</time><course>184</course><type>1</type></trkpt>
      <trkpt lat="41.820835" lon="-4.2273001"><ele>2449</ele><speed>11</speed><time>2016-06-29T14:55:33Z</time><course>242</course><type>1</type></trkpt>
      <trkpt lat="41.8208183" lon="-4.2273467"><ele>2449</ele><speed>4</speed><time>2016-06-29T14:55:35Z</time><course>234</course><type>1</type></trkpt>
      <trkpt lat="41.8209366" lon="-4.22728"><ele>2455</ele><speed>25</speed><time>2016-06-29T14:55:45Z</time><course>34</course><type>1</type></trkpt>
      <trkpt lat="41.8210849" lon="-4.2271134"><ele>2457</ele><speed>40</speed><time>2016-06-29T14:55:47Z</time><course>47</course><type>1</type></trkpt>
      <trkpt lat="41.8211666" lon="-4.2269967"><ele>2457</ele><speed>48</speed><time>2016-06-29T14:55:48Z</time><course>50</course><type>1</type></trkpt>
      <trkpt lat="41.8213416" lon="-4.22668"><ele>2460</ele><speed>60</speed><time>2016-06-29T14:55:50Z</time><course>60</course><type>1</type></trkpt>
      <trkpt lat="41.8214833" lon="-4.2262967"><ele>2462</ele><speed>63</speed><time>2016-06-29T14:55:52Z</time><course>72</course><type>1</type></trkpt>
      <trkpt lat="41.8215066" lon="-4.2260634"><ele>2463</ele><speed>70</speed><time>2016-06-29T14:55:53Z</time><course>87</course><type>1</type></trkpt>
      <trkpt lat="41.8214683" lon="-4.2256417"><ele>2468</ele><speed>56</speed><time>2016-06-29T14:55:55Z</time><course>103</course><type>1</type></trkpt>
      <trkpt lat="41.8214116" lon="-4.22527"><ele>2471</ele><speed>56</speed><time>2016-06-29T14:55:57Z</time><course>102</course><type>1</type></trkpt>
      <trkpt lat="41.8213783" lon="-4.22508"><ele>2472</ele><speed>59</speed><time>2016-06-29T14:55:58Z</time><course>106</course><type>1</type></trkpt>
      <trkpt lat="41.821245" lon="-4.2247384"><ele>2477</ele><speed>56</speed><time>2016-06-29T14:56:00Z</time><course>126</course><type>1</type></trkpt>
      <trkpt lat="41.82116" lon="-4.2246017"><ele>2479</ele><speed>50</speed><time>2016-06-29T14:56:01Z</time><course>131</course><type>1</type></trkpt>
      <trkpt lat="41.8210766" lon="-4.2244867"><ele>2481</ele><speed>45</speed><time>2016-06-29T14:56:02Z</time><course>134</course><type>1</type></trkpt>
      <trkpt lat="41.82093" lon="-4.2242834"><ele>2483</ele><speed>41</speed><time>2016-06-29T14:56:04Z</time><course>132</course><type>1</type></trkpt>
      <trkpt lat="41.820785" lon="-4.2241217"><ele>2486</ele><speed>38</speed><time>2016-06-29T14:56:06Z</time><course>142</course><type>1</type></trkpt>
      <trkpt lat="41.82071" lon="-4.2240634"><ele>2488</ele><speed>33</speed><time>2016-06-29T14:56:07Z</time><course>148</course><type>1</type></trkpt>
      <trkpt lat="41.8205683" lon="-4.2240017"><ele>2490</ele><speed>28</speed><time>2016-06-29T14:56:09Z</time><course>157</course><type>1</type></trkpt>
      <trkpt lat="41.8204416" lon="-4.2239334"><ele>2492</ele><speed>27</speed><time>2016-06-29T14:56:11Z</time><course>159</course><type>1</type></trkpt>
      <trkpt lat="41.8203266" lon="-4.2239067"><ele>2493</ele><speed>22</speed><time>2016-06-29T14:56:13Z</time><course>172</course><type>1</type></trkpt>
      <trkpt lat="41.82022" lon="-4.22392"><ele>2496</ele><speed>21</speed><time>2016-06-29T14:56:15Z</time><course>186</course><type>1</type></trkpt>
      <trkpt lat="41.8201383" lon="-4.2239267"><ele>2499</ele><speed>17</speed><time>2016-06-29T14:56:17Z</time><course>182</course><type>1</type></trkpt>
      <trkpt lat="41.8201" lon="-4.22393"><ele>2501</ele><speed>16</speed><time>2016-06-29T14:56:18Z</time><course>188</course><type>1</type></trkpt>
      <trkpt lat="41.82006" lon="-4.2239417"><ele>2503</ele><speed>17</speed><time>2016-06-29T14:56:19Z</time><course>195</course><type>1</type></trkpt>
      <trkpt lat="41.820005" lon="-4.2239634"><ele>2506</ele><speed>11</speed><time>2016-06-29T14:56:21Z</time><course>199</course><type>1</type></trkpt>
      <trkpt lat="41.8200566" lon="-4.22398"><ele>2515</ele><speed>14</speed><time>2016-06-29T14:56:27Z</time><course>6</course><type>1</type></trkpt>
      <trkpt lat="41.8201533" lon="-4.22395"><ele>2518</ele><speed>17</speed><time>2016-06-29T14:56:29Z</time><course>16</course><type>1</type></trkpt>
      <trkpt lat="41.8202116" lon="-4.2239217"><ele>2519</ele><speed>22</speed><time>2016-06-29T14:56:30Z</time><course>16</course><type>1</type></trkpt>
      <trkpt lat="41.8203533" lon="-4.2238117"><ele>2522</ele><speed>29</speed><time>2016-06-29T14:56:32Z</time><course>34</course><type>1</type></trkpt>
      <trkpt lat="41.8205016" lon="-4.2236467"><ele>2525</ele><speed>34</speed><time>2016-06-29T14:56:34Z</time><course>41</course><type>1</type></trkpt>
      <trkpt lat="41.820645" lon="-4.2234684"><ele>2527</ele><speed>40</speed><time>2016-06-29T14:56:36Z</time><course>42</course><type>1</type></trkpt>
      <trkpt lat="41.8208149" lon="-4.2231767"><ele>2530</ele><speed>62</speed><time>2016-06-29T14:56:38Z</time><course>60</course><type>1</type></trkpt>
      <trkpt lat="41.8209316" lon="-4.222735"><ele>2533</ele><speed>74</speed><time>2016-06-29T14:56:40Z</time><course>80</course><type>1</type></trkpt>
      <trkpt lat="41.8209383" lon="-4.222245"><ele>2538</ele><speed>69</speed><time>2016-06-29T14:56:42Z</time><course>99</course><type>1</type></trkpt>
      <trkpt lat="41.8208716" lon="-4.2218217"><ele>2542</ele><speed>60</speed><time>2016-06-29T14:56:44Z</time><course>107</course><type>1</type></trkpt>
      <trkpt lat="41.8207633" lon="-4.2214484"><ele>2545</ele><speed>58</speed><time>2016-06-29T14:56:46Z</time><course>114</course><type>1</type></trkpt>
      <trkpt lat="41.8205983" lon="-4.2212034"><ele>2548</ele><speed>44</speed><time>2016-06-29T14:56:48Z</time><course>142</course><type>1</type></trkpt>
      <trkpt lat="41.820435" lon="-4.2210984"><ele>2550</ele><speed>33</speed><time>2016-06-29T14:56:50Z</time><course>163</course><type>1</type></trkpt>
      <trkpt lat="41.8203733" lon="-4.2210734"><ele>2552</ele><speed>25</speed><time>2016-06-29T14:56:51Z</time><course>166</course><type>1</type></trkpt>
      <trkpt lat="41.8203183" lon="-4.2210484"><ele>2553</ele><speed>23</speed><time>2016-06-29T14:56:52Z</time><course>167</course><type>1</type></trkpt>
      <trkpt lat="41.8202716" lon="-4.2210334"><ele>2555</ele><speed>19</speed><time>2016-06-29T14:56:53Z</time><course>175</course><type>1</type></trkpt>
      <trkpt lat="41.8202316" lon="-4.2210234"><ele>2557</ele><speed>16</speed><time>2016-06-29T14:56:54Z</time><course>171</course><type>1</type></trkpt>
      <trkpt lat="41.82018" lon="-4.2210301"><ele>2560</ele><speed>10</speed><time>2016-06-29T14:56:56Z</time><course>190</course><type>1</type></trkpt>
      <trkpt lat="41.82013" lon="-4.2210517"><ele>2562</ele><speed>9</speed><time>2016-06-29T14:56:58Z</time><course>201</course><type>1</type></trkpt>
      <trkpt lat="41.82015" lon="-4.221115"><ele>2567</ele><speed>9</speed><time>2016-06-29T14:57:03Z</time><course>333</course><type>1</type></trkpt>
      <trkpt lat="41.82024" lon="-4.22111"><ele>2570</ele><speed>13</speed><time>2016-06-29T14:57:06Z</time><course>29</course><type>1</type></trkpt>
      <trkpt lat="41.8202866" lon="-4.2210784"><ele>2571</ele><speed>19</speed><time>2016-06-29T14:57:07Z</time><course>30</course><type>1</type></trkpt>
      <trkpt lat="41.8203916" lon="-4.2210017"><ele>2573</ele><speed>23</speed><time>2016-06-29T14:57:09Z</time><course>24</course><type>1</type></trkpt>
      <trkpt lat="41.82054" lon="-4.2209667"><ele>2575</ele><speed>31</speed><time>2016-06-29T14:57:11Z</time><course>8</course><type>1</type></trkpt>
      <trkpt lat="41.8206966" lon="-4.2208884"><ele>2576</ele><speed>36</speed><time>2016-06-29T14:57:13Z</time><course>31</course><type>1</type></trkpt>
      <trkpt lat="41.8207583" lon="-4.2208367"><ele>2577</ele><speed>36</speed><time>2016-06-29T14:57:14Z</time><course>37</course><type>1</type></trkpt>
      <trkpt lat="41.8208433" lon="-4.2206484"><ele>2578</ele><speed>38</speed><time>2016-06-29T14:57:16Z</time><course>59</course><type>1</type></trkpt>
      <trkpt lat="41.82089" lon="-4.2205434"><ele>2578</ele><speed>41</speed><time>2016-06-29T14:57:17Z</time><course>52</course><type>1</type></trkpt>
      <trkpt lat="41.8210066" lon="-4.22034"><ele>2579</ele><speed>39</speed><time>2016-06-29T14:57:19Z</time><course>53</course><type>1</type></trkpt>
      <trkpt lat="41.8210533" lon="-4.2202167"><ele>2580</ele><speed>44</speed><time>2016-06-29T14:57:20Z</time><course>60</course><type>1</type></trkpt>
      <trkpt lat="41.8211566" lon="-4.2199267"><ele>2582</ele><speed>48</speed><time>2016-06-29T14:57:22Z</time><course>66</course><type>1</type></trkpt>
      <trkpt lat="41.8212116" lon="-4.2197767"><ele>2583</ele><speed>51</speed><time>2016-06-29T14:57:23Z</time><course>64</course><type>1</type></trkpt>
      <trkpt lat="41.8213516" lon="-4.2194834"><ele>2585</ele><speed>49</speed><time>2016-06-29T14:57:25Z</time><course>56</course><type>1</type></trkpt>
      <trkpt lat="41.8214166" lon="-4.2193334"><ele>2587</ele><speed>49</speed><time>2016-06-29T14:57:26Z</time><course>60</course><type>1</type></trkpt>
      <trkpt lat="41.8215349" lon="-4.219"><ele>2591</ele><speed>51</speed><time>2016-06-29T14:57:28Z</time><course>74</course><type>1</type></trkpt>
      <trkpt lat="41.821575" lon="-4.2188134"><ele>2593</ele><speed>56</speed><time>2016-06-29T14:57:29Z</time><course>79</course><type>1</type></trkpt>
      <trkpt lat="41.8216283" lon="-4.2184084"><ele>2595</ele><speed>61</speed><time>2016-06-29T14:57:31Z</time><course>86</course><type>1</type></trkpt>
      <trkpt lat="41.8216183" lon="-4.2179884"><ele>2596</ele><speed>64</speed><time>2016-06-29T14:57:33Z</time><course>100</course><type>1</type></trkpt>
      <trkpt lat="41.8215349" lon="-4.21758"><ele>2595</ele><speed>63</speed><time>2016-06-29T14:57:35Z</time><course>110</course><type>1</type></trkpt>
      <trkpt lat="41.8213833" lon="-4.2172167"><ele>2595</ele><speed>65</speed><time>2016-06-29T14:57:37Z</time><course>118</course><type>1</type></trkpt>
      <trkpt lat="41.821215" lon="-4.2168651"><ele>2595</ele><speed>64</speed><time>2016-06-29T14:57:39Z</time><course>124</course><type>1</type></trkpt>
      <trkpt lat="41.8210316" lon="-4.2166"><ele>2596</ele><speed>50</speed><time>2016-06-29T14:57:41Z</time><course>139</course><type>1</type></trkpt>
      <trkpt lat="41.8209416" lon="-4.2165184"><ele>2596</ele><speed>40</speed><time>2016-06-29T14:57:42Z</time><course>149</course><type>1</type></trkpt>
      <trkpt lat="41.8207916" lon="-4.216405"><ele>2597</ele><speed>31</speed><time>2016-06-29T14:57:44Z</time><course>158</course><type>1</type></trkpt>
      <trkpt lat="41.82074" lon="-4.2163701"><ele>2598</ele><speed>23</speed><time>2016-06-29T14:57:45Z</time><course>157</course><type>1</type></trkpt>
      <trkpt lat="41.8206433" lon="-4.2163167"><ele>2597</ele><speed>20</speed><time>2016-06-29T14:57:47Z</time><course>169</course><type>1</type></trkpt>
      <trkpt lat="41.820595" lon="-4.21631"><ele>2598</ele><speed>19</speed><time>2016-06-29T14:57:48Z</time><course>178</course><type>1</type></trkpt>
      <trkpt lat="41.8205033" lon="-4.2163084"><ele>2599</ele><speed>19</speed><time>2016-06-29T14:57:50Z</time><course>184</course><type>1</type></trkpt>
      <trkpt lat="41.8204683" lon="-4.2162967"><ele>2600</ele><speed>16</speed><time>2016-06-29T14:57:51Z</time><course>176</course><type>1</type></trkpt>
      <trkpt lat="41.8203866" lon="-4.216285"><ele>2602</ele><speed>8</speed><time>2016-06-29T14:57:54Z</time><course>190</course><type>1</type></trkpt>
      <trkpt lat="41.8204233" lon="-4.2163334"><ele>2604</ele><speed>15</speed><time>2016-06-29T14:57:58Z</time><course>353</course><type>1</type></trkpt>
      <trkpt lat="41.8205216" lon="-4.2163184"><ele>2605</ele><speed>21</speed><time>2016-06-29T14:58:00Z</time><course>9</course><type>1</type></trkpt>
      <trkpt lat="41.8206366" lon="-4.2162917"><ele>2605</ele><speed>24</speed><time>2016-06-29T14:58:02Z</time><course>8</course><type>1</type></trkpt>
      <trkpt lat="41.8207533" lon="-4.2162334"><ele>2606</ele><speed>25</speed><time>2016-06-29T14:58:04Z</time><course>23</course><type>1</type></trkpt>
      <trkpt lat="41.820865" lon="-4.2161517"><ele>2606</ele><speed>30</speed><time>2016-06-29T14:58:06Z</time><course>30</course><type>1</type></trkpt>
      <trkpt lat="41.8209516" lon="-4.2160917"><ele>2607</ele><speed>35</speed><time>2016-06-29T14:58:07Z</time><course>34</course><type>1</type></trkpt>
      <trkpt lat="41.8210783" lon="-4.2159484"><ele>2608</ele><speed>35</speed><time>2016-06-29T14:58:09Z</time><course>44</course><type>1</type></trkpt>
      <trkpt lat="41.82121" lon="-4.2157717"><ele>2608</ele><speed>43</speed><time>2016-06-29T14:58:11Z</time><course>47</course><type>1</type></trkpt>
      <trkpt lat="41.8213616" lon="-4.2154917"><ele>2610</ele><speed>57</speed><time>2016-06-29T14:58:13Z</time><course>59</course><type>1</type></trkpt>
      <trkpt lat="41.8215016" lon="-4.2151534"><ele>2614</ele><speed>59</speed><time>2016-06-29T14:58:15Z</time><course>64</course><type>1</type></trkpt>
      <trkpt lat="41.8216233" lon="-4.21482"><ele>2614</ele><speed>53</speed><time>2016-06-29T14:58:17Z</time><course>63</course><type>1</type></trkpt>
      <trkpt lat="41.8216883" lon="-4.214655"><ele>2615</ele><speed>54</speed><time>2016-06-29T14:58:18Z</time><course>65</course><type>1</type></trkpt>
      <trkpt lat="41.8217933" lon="-4.2142517"><ele>2617</ele><speed>66</speed><time>2016-06-29T14:58:20Z</time><course>80</course><type>1</type></trkpt>
      <trkpt lat="41.8218133" lon="-4.2138184"><ele>2618</ele><speed>59</speed><time>2016-06-29T14:58:22Z</time><course>93</course><type>1</type></trkpt>
      <trkpt lat="41.8217833" lon="-4.2134284"><ele>2619</ele><speed>56</speed><time>2016-06-29T14:58:24Z</time><course>100</course><type>1</type></trkpt>
      <trkpt lat="41.8217116" lon="-4.2130434"><ele>2620</ele><speed>58</speed><time>2016-06-29T14:58:26Z</time><course>108</course><type>1</type></trkpt>
      <trkpt lat="41.8216083" lon="-4.2126967"><ele>2621</ele><speed>53</speed><time>2016-06-29T14:58:28Z</time><course>115</course><type>1</type></trkpt>
      <trkpt lat="41.82145" lon="-4.2124267"><ele>2622</ele><speed>50</speed><time>2016-06-29T14:58:30Z</time><course>129</course><type>1</type></trkpt>
      <trkpt lat="41.8212766" lon="-4.2121917"><ele>2623</ele><speed>48</speed><time>2016-06-29T14:58:32Z</time><course>135</course><type>1</type></trkpt>
      <trkpt lat="41.8211183" lon="-4.211995"><ele>2625</ele><speed>40</speed><time>2016-06-29T14:58:34Z</time><course>138</course><type>1</type></trkpt>
      <trkpt lat="41.8209666" lon="-4.2118634"><ele>2627</ele><speed>35</speed><time>2016-06-29T14:58:36Z</time><course>153</course><type>1</type></trkpt>
      <trkpt lat="41.8208216" lon="-4.2117617"><ele>2629</ele><speed>32</speed><time>2016-06-29T14:58:38Z</time><course>157</course><type>1</type></trkpt>
      <trkpt lat="41.8207533" lon="-4.2117167"><ele>2631</ele><speed>30</speed><time>2016-06-29T14:58:39Z</time><course>156</course><type>1</type></trkpt>
      <trkpt lat="41.8206283" lon="-4.2116634"><ele>2632</ele><speed>20</speed><time>2016-06-29T14:58:41Z</time><course>171</course><type>1</type></trkpt>
      <trkpt lat="41.8205583" lon="-4.211665"><ele>2633</ele><speed>11</speed><time>2016-06-29T14:58:43Z</time><course>204</course><type>1</type></trkpt>
      <trkpt lat="41.82062" lon="-4.211695"><ele>2636</ele><speed>9</speed><time>2016-06-29T14:58:50Z</time><course>3</course><type>1</type></trkpt>
      <trkpt lat="41.820675" lon="-4.21167"><ele>2637</ele><speed>12</speed><time>2016-06-29T14:58:52Z</time><course>6</course><type>1</type></trkpt>
      <trkpt lat="41.8207449" lon="-4.211655"><ele>2637</ele><speed>17</speed><time>2016-06-29T14:58:54Z</time><course>3</course><type>1</type></trkpt>
      <trkpt lat="41.8208016" lon="-4.2116317"><ele>2638</ele><speed>20</speed><time>2016-06-29T14:58:55Z</time><course>12</course><type>1</type></trkpt>
      <trkpt lat="41.820895" lon="-4.2115984"><ele>2638</ele><speed>20</speed><time>2016-06-29T14:58:57Z</time><course>13</course><type>1</type></trkpt>
      <trkpt lat="41.82099" lon="-4.2115784"><ele>2638</ele><speed>19</speed><time>2016-06-29T14:58:59Z</time><course>6</course><type>1</type></trkpt>
      <trkpt lat="41.821055" lon="-4.2115584"><ele>2639</ele><speed>22</speed><time>2016-06-29T14:59:00Z</time><course>11</course><type>1</type></trkpt>
      <trkpt lat="41.8211533" lon="-4.2115367"><ele>2637</ele><speed>29</speed><time>2016-06-29T14:59:02Z</time><course>9</course><type>1</type></trkpt>
      <trkpt lat="41.8212333" lon="-4.2115184"><ele>2638</ele><speed>31</speed><time>2016-06-29T14:59:03Z</time><course>8</course><type>1</type></trkpt>
      <trkpt lat="41.8213766" lon="-4.21148"><ele>2636</ele><speed>29</speed><time>2016-06-29T14:59:05Z</time><course>15</course><type>1</type></trkpt>
      <trkpt lat="41.8214466" lon="-4.2114434"><ele>2635</ele><speed>38</speed><time>2016-06-29T14:59:06Z</time><course>21</course><type>1</type></trkpt>
      <trkpt lat="41.8216116" lon="-4.2113017"><ele>2634</ele><speed>42</speed><time>2016-06-29T14:59:08Z</time><course>38</course><type>1</type></trkpt>
      <trkpt lat="41.8217883" lon="-4.2111217"><ele>2632</ele><speed>46</speed><time>2016-06-29T14:59:10Z</time><course>35</course><type>1</type></trkpt>
      <trkpt lat="41.8218816" lon="-4.2110334"><ele>2632</ele><speed>46</speed><time>2016-06-29T14:59:11Z</time><course>33</course><type>1</type></trkpt>
      <trkpt lat="41.82209" lon="-4.2108417"><ele>2633</ele><speed>48</speed><time>2016-06-29T14:59:13Z</time><course>34</course><type>1</type></trkpt>
      <trkpt lat="41.8222683" lon="-4.2106567"><ele>2635</ele><speed>40</speed><time>2016-06-29T14:59:15Z</time><course>38</course><type>1</type></trkpt>
      <trkpt lat="41.8224366" lon="-4.2104784"><ele>2636</ele><speed>43</speed><time>2016-06-29T14:59:17Z</time><course>40</course><type>1</type></trkpt>
      <trkpt lat="41.82261" lon="-4.21025"><ele>2636</ele><speed>52</speed><time>2016-06-29T14:59:19Z</time><course>48</course><type>1</type></trkpt>
      <trkpt lat="41.822775" lon="-4.2099567"><ele>2637</ele><speed>56</speed><time>2016-06-29T14:59:21Z</time><course>59</course><type>1</type></trkpt>
      <trkpt lat="41.8228383" lon="-4.2097917"><ele>2637</ele><speed>54</speed><time>2016-06-29T14:59:22Z</time><course>67</course><type>1</type></trkpt>
      <trkpt lat="41.8229366" lon="-4.2094417"><ele>2639</ele><speed>54</speed><time>2016-06-29T14:59:24Z</time><course>74</course><type>1</type></trkpt>
      <trkpt lat="41.8230033" lon="-4.2090751"><ele>2640</ele><speed>55</speed><time>2016-06-29T14:59:26Z</time><course>80</course><type>1</type></trkpt>
      <trkpt lat="41.823015" lon="-4.2086884"><ele>2640</ele><speed>58</speed><time>2016-06-29T14:59:28Z</time><course>93</course><type>1</type></trkpt>
      <trkpt lat="41.8229916" lon="-4.2084967"><ele>2640</ele><speed>58</speed><time>2016-06-29T14:59:29Z</time><course>101</course><type>1</type></trkpt>
      <trkpt lat="41.8229" lon="-4.2081434"><ele>2639</ele><speed>55</speed><time>2016-06-29T14:59:31Z</time><course>112</course><type>1</type></trkpt>
      <trkpt lat="41.822835" lon="-4.2079934"><ele>2640</ele><speed>51</speed><time>2016-06-29T14:59:32Z</time><course>120</course><type>1</type></trkpt>
      <trkpt lat="41.8226883" lon="-4.207745"><ele>2640</ele><speed>43</speed><time>2016-06-29T14:59:34Z</time><course>135</course><type>1</type></trkpt>
      <trkpt lat="41.8226116" lon="-4.2076434"><ele>2639</ele><speed>42</speed><time>2016-06-29T14:59:35Z</time><course>135</course><type>1</type></trkpt>
      <trkpt lat="41.82244" lon="-4.2074484"><ele>2638</ele><speed>45</speed><time>2016-06-29T14:59:37Z</time><course>137</course><type>1</type></trkpt>
      <trkpt lat="41.82225" lon="-4.2073034"><ele>2637</ele><speed>44</speed><time>2016-06-29T14:59:39Z</time><course>157</course><type>1</type></trkpt>
      <trkpt lat="41.8220616" lon="-4.2072617"><ele>2636</ele><speed>36</speed><time>2016-06-29T14:59:41Z</time><course>175</course><type>1</type></trkpt>
      <trkpt lat="41.8219849" lon="-4.207255"><ele>2636</ele><speed>32</speed><time>2016-06-29T14:59:42Z</time><course>177</course><type>1</type></trkpt>
      <trkpt lat="41.8218366" lon="-4.2072384"><ele>2637</ele><speed>29</speed><time>2016-06-29T14:59:44Z</time><course>179</course><type>1</type></trkpt>
      <trkpt lat="41.821765" lon="-4.2072484"><ele>2637</ele><speed>29</speed><time>2016-06-29T14:59:45Z</time><course>190</course><type>1</type></trkpt>
      <trkpt lat="41.821635" lon="-4.2072867"><ele>2637</ele><speed>25</speed><time>2016-06-29T14:59:47Z</time><course>195</course><type>1</type></trkpt>
      <trkpt lat="41.821545" lon="-4.2072467"><ele>2638</ele><speed>20</speed><time>2016-06-29T14:59:49Z</time><course>152</course><type>1</type></trkpt>
      <trkpt lat="41.8214683" lon="-4.2071884"><ele>2638</ele><speed>15</speed><time>2016-06-29T14:59:51Z</time><course>154</course><type>1</type></trkpt>
      <trkpt lat="41.8213983" lon="-4.2071884"><ele>2638</ele><speed>13</speed><time>2016-06-29T14:59:53Z</time><course>178</course><type>1</type></trkpt>
      <trkpt lat="41.8213066" lon="-4.2072"><ele>2639</ele><speed>22</speed><time>2016-06-29T14:59:55Z</time><course>180</course><type>1</type></trkpt>
      <trkpt lat="41.821185" lon="-4.20718"><ele>2640</ele><speed>15</speed><time>2016-06-29T14:59:58Z</time><course>178</course><type>1</type></trkpt>
      <trkpt lat="41.8210883" lon="-4.2072034"><ele>2640</ele><speed>19</speed><time>2016-06-29T15:00:00Z</time><course>190</course><type>1</type></trkpt>
      <trkpt lat="41.8209683" lon="-4.2072317"><ele>2641</ele><speed>16</speed><time>2016-06-29T15:00:03Z</time><course>201</course><type>1</type></trkpt>
      <trkpt lat="41.820895" lon="-4.2072534"><ele>2642</ele><speed>14</speed><time>2016-06-29T15:00:05Z</time><course>167</course><type>1</type></trkpt>
      <trkpt lat="41.8208066" lon="-4.2072684"><ele>2642</ele><speed>16</speed><time>2016-06-29T15:00:07Z</time><course>185</course><type>1</type></trkpt>
      <trkpt lat="41.8207166" lon="-4.2073134"><ele>2643</ele><speed>19</speed><time>2016-06-29T15:00:09Z</time><course>208</course><type>1</type></trkpt>
      <trkpt lat="41.82064" lon="-4.2073667"><ele>2644</ele><speed>14</speed><time>2016-06-29T15:00:11Z</time><course>197</course><type>1</type></trkpt>
      <trkpt lat="41.8206866" lon="-4.2074317"><ele>2644</ele><speed>16</speed><time>2016-06-29T15:00:16Z</time><course>20</course><type>1</type></trkpt>
      <trkpt lat="41.8208483" lon="-4.2072984"><ele>2641</ele><speed>39</speed><time>2016-06-29T15:00:18Z</time><course>40</course><type>1</type></trkpt>
      <trkpt lat="41.8209266" lon="-4.2071917"><ele>2640</ele><speed>45</speed><time>2016-06-29T15:00:19Z</time><course>46</course><type>1</type></trkpt>
      <trkpt lat="41.8210849" lon="-4.2069317"><ele>2639</ele><speed>49</speed><time>2016-06-29T15:00:21Z</time><course>51</course><type>1</type></trkpt>
      <trkpt lat="41.82116" lon="-4.2068034"><ele>2638</ele><speed>45</speed><time>2016-06-29T15:00:22Z</time><course>56</course><type>1</type></trkpt>
      <trkpt lat="41.8212933" lon="-4.206545"><ele>2637</ele><speed>46</speed><time>2016-06-29T15:00:24Z</time><course>59</course><type>1</type></trkpt>
      <trkpt lat="41.8213583" lon="-4.2064"><ele>2636</ele><speed>52</speed><time>2016-06-29T15:00:25Z</time><course>63</course><type>1</type></trkpt>
      <trkpt lat="41.8214833" lon="-4.2060334"><ele>2635</ele><speed>65</speed><time>2016-06-29T15:00:27Z</time><course>68</course><type>1</type></trkpt>
      <trkpt lat="41.8215666" lon="-4.2056084"><ele>2633</ele><speed>67</speed><time>2016-06-29T15:00:29Z</time><course>80</course><type>1</type></trkpt>
      <trkpt lat="41.8215866" lon="-4.20539"><ele>2633</ele><speed>65</speed><time>2016-06-29T15:00:30Z</time><course>86</course><type>1</type></trkpt>
      <trkpt lat="41.821605" lon="-4.2049584"><ele>2633</ele><speed>64</speed><time>2016-06-29T15:00:32Z</time><course>85</course><type>1</type></trkpt>
      <trkpt lat="41.8216383" lon="-4.2045217"><ele>2632</ele><speed>67</speed><time>2016-06-29T15:00:34Z</time><course>83</course><type>1</type></trkpt>
      <trkpt lat="41.8216666" lon="-4.2040617"><ele>2632</ele><speed>69</speed><time>2016-06-29T15:00:36Z</time><course>87</course><type>1</type></trkpt>
      <trkpt lat="41.8216683" lon="-4.2038367"><ele>2633</ele><speed>66</speed><time>2016-06-29T15:00:37Z</time><course>90</course><type>1</type></trkpt>
      <trkpt lat="41.821635" lon="-4.2034084"><ele>2634</ele><speed>64</speed><time>2016-06-29T15:00:39Z</time><course>99</course><type>1</type></trkpt>
      <trkpt lat="41.8216066" lon="-4.2031934"><ele>2634</ele><speed>65</speed><time>2016-06-29T15:00:40Z</time><course>101</course><type>1</type></trkpt>
      <trkpt lat="41.821555" lon="-4.2027717"><ele>2636</ele><speed>63</speed><time>2016-06-29T15:00:42Z</time><course>97</course><type>1</type></trkpt>
      <trkpt lat="41.8215283" lon="-4.2025684"><ele>2636</ele><speed>63</speed><time>2016-06-29T15:00:43Z</time><course>99</course><type>1</type></trkpt>
      <trkpt lat="41.8214449" lon="-4.2021667"><ele>2638</ele><speed>63</speed><time>2016-06-29T15:00:45Z</time><course>111</course><type>1</type></trkpt>
      <trkpt lat="41.8213833" lon="-4.2019684"><ele>2639</ele><speed>62</speed><time>2016-06-29T15:00:46Z</time><course>114</course><type>1</type></trkpt>
      <trkpt lat="41.8213099" lon="-4.201775"><ele>2641</ele><speed>65</speed><time>2016-06-29T15:00:47Z</time><course>118</course><type>1</type></trkpt>
      <trkpt lat="41.8211716" lon="-4.2014201"><ele>2644</ele><speed>55</speed><time>2016-06-29T15:00:49Z</time><course>116</course><type>1</type></trkpt>
      <trkpt lat="41.821115" lon="-4.2012634"><ele>2645</ele><speed>49</speed><time>2016-06-29T15:00:50Z</time><course>117</course><type>1</type></trkpt>
      <trkpt lat="41.820975" lon="-4.200975"><ele>2646</ele><speed>50</speed><time>2016-06-29T15:00:52Z</time><course>129</course><type>1</type></trkpt>
      <trkpt lat="41.820785" lon="-4.20074"><ele>2648</ele><speed>51</speed><time>2016-06-29T15:00:54Z</time><course>140</course><type>1</type></trkpt>
      <trkpt lat="41.8206883" lon="-4.2006484"><ele>2649</ele><speed>48</speed><time>2016-06-29T15:00:55Z</time><course>145</course><type>1</type></trkpt>
      <trkpt lat="41.8204916" lon="-4.2004967"><ele>2650</ele><speed>40</speed><time>2016-06-29T15:00:57Z</time><course>152</course><type>1</type></trkpt>
      <trkpt lat="41.8203583" lon="-4.2004284"><ele>2650</ele><speed>27</speed><time>2016-06-29T15:00:59Z</time><course>163</course><type>1</type></trkpt>
      <trkpt lat="41.82022" lon="-4.2004167"><ele>2650</ele><speed>29</speed><time>2016-06-29T15:01:01Z</time><course>178</course><type>1</type></trkpt>
      <trkpt lat="41.82005" lon="-4.20047"><ele>2651</ele><speed>37</speed><time>2016-06-29T15:01:03Z</time><course>187</course><type>1</type></trkpt>
      <trkpt lat="41.819905" lon="-4.2004434"><ele>2652</ele><speed>29</speed><time>2016-06-29T15:01:05Z</time><course>168</course><type>1</type></trkpt>
      <trkpt lat="41.8198083" lon="-4.2004117"><ele>2653</ele><speed>23</speed><time>2016-06-29T15:01:07Z</time><course>168</course><type>1</type></trkpt>
      <trkpt lat="41.8197416" lon="-4.2004034"><ele>2653</ele><speed>25</speed><time>2016-06-29T15:01:08Z</time><course>172</course><type>1</type></trkpt>
      <trkpt lat="41.81967" lon="-4.2003951"><ele>2653</ele><speed>27</speed><time>2016-06-29T15:01:09Z</time><course>175</course><type>1</type></trkpt>
      <trkpt lat="41.8195283" lon="-4.20038"><ele>2653</ele><speed>25</speed><time>2016-06-29T15:01:11Z</time><course>177</course><type>1</type></trkpt>
      <trkpt lat="41.8194616" lon="-4.2004367"><ele>2652</ele><speed>9</speed><time>2016-06-29T15:01:14Z</time><course>312</course><type>1</type></trkpt>
      <trkpt lat="41.8195299" lon="-4.2004617"><ele>2652</ele><speed>14</speed><time>2016-06-29T15:01:16Z</time><course>341</course><type>1</type></trkpt>
      <trkpt lat="41.8196616" lon="-4.2004667"><ele>2649</ele><speed>23</speed><time>2016-06-29T15:01:19Z</time><course>7</course><type>1</type></trkpt>
      <trkpt lat="41.8197316" lon="-4.2004317"><ele>2649</ele><speed>29</speed><time>2016-06-29T15:01:20Z</time><course>28</course><type>1</type></trkpt>
      <trkpt lat="41.8197999" lon="-4.200365"><ele>2647</ele><speed>38</speed><time>2016-06-29T15:01:21Z</time><course>38</course><type>1</type></trkpt>
      <trkpt lat="41.81997" lon="-4.2001584"><ele>2644</ele><speed>53</speed><time>2016-06-29T15:01:23Z</time><course>39</course><type>1</type></trkpt>
      <trkpt lat="41.8201416" lon="-4.1999017"><ele>2643</ele><speed>51</speed><time>2016-06-29T15:01:25Z</time><course>55</course><type>1</type></trkpt>
      <trkpt lat="41.82026" lon="-4.1995717"><ele>2641</ele><speed>58</speed><time>2016-06-29T15:01:27Z</time><course>69</course><type>1</type></trkpt>
      <trkpt lat="41.820355" lon="-4.1991834"><ele>2640</ele><speed>64</speed><time>2016-06-29T15:01:29Z</time><course>72</course><type>1</type></trkpt>
      <trkpt lat="41.8204016" lon="-4.1989767"><ele>2639</ele><speed>65</speed><time>2016-06-29T15:01:30Z</time><course>74</course><type>1</type></trkpt>
      <trkpt lat="41.82048" lon="-4.198565"><ele>2640</ele><speed>61</speed><time>2016-06-29T15:01:32Z</time><course>75</course><type>1</type></trkpt>
      <trkpt lat="41.8205233" lon="-4.198375"><ele>2640</ele><speed>58</speed><time>2016-06-29T15:01:33Z</time><course>71</course><type>1</type></trkpt>
      <trkpt lat="41.8206183" lon="-4.1980017"><ele>2640</ele><speed>59</speed><time>2016-06-29T15:01:35Z</time><course>75</course><type>1</type></trkpt>
      <trkpt lat="41.8206716" lon="-4.1975834"><ele>2641</ele><speed>65</speed><time>2016-06-29T15:01:37Z</time><course>86</course><type>1</type></trkpt>
      <trkpt lat="41.82066" lon="-4.1971534"><ele>2642</ele><speed>63</speed><time>2016-06-29T15:01:39Z</time><course>95</course><type>1</type></trkpt>
      <trkpt lat="41.8206366" lon="-4.1967167"><ele>2644</ele><speed>65</speed><time>2016-06-29T15:01:41Z</time><course>93</course><type>1</type></trkpt>
      <trkpt lat="41.8206266" lon="-4.1964984"><ele>2645</ele><speed>65</speed><time>2016-06-29T15:01:42Z</time><course>94</course><type>1</type></trkpt>
      <trkpt lat="41.8206066" lon="-4.1962867"><ele>2646</ele><speed>65</speed><time>2016-06-29T15:01:43Z</time><course>98</course><type>1</type></trkpt>
      <trkpt lat="41.8205066" lon="-4.1958767"><ele>2646</ele><speed>64</speed><time>2016-06-29T15:01:45Z</time><course>113</course><type>1</type></trkpt>
      <trkpt lat="41.8203399" lon="-4.1955234"><ele>2648</ele><speed>63</speed><time>2016-06-29T15:01:47Z</time><course>126</course><type>1</type></trkpt>
      <trkpt lat="41.820145" lon="-4.1952217"><ele>2650</ele><speed>58</speed><time>2016-06-29T15:01:49Z</time><course>132</course><type>1</type></trkpt>
      <trkpt lat="41.81995" lon="-4.19495"><ele>2651</ele><speed>55</speed><time>2016-06-29T15:01:51Z</time><course>133</course><type>1</type></trkpt>
      <trkpt lat="41.8197433" lon="-4.1947217"><ele>2653</ele><speed>53</speed><time>2016-06-29T15:01:53Z</time><course>140</course><type>1</type></trkpt>
      <trkpt lat="41.8195333" lon="-4.1945767"><ele>2653</ele><speed>44</speed><time>2016-06-29T15:01:55Z</time><course>155</course><type>1</type></trkpt>
      <trkpt lat="41.819355" lon="-4.194505"><ele>2653</ele><speed>30</speed><time>2016-06-29T15:01:57Z</time><course>173</course><type>1</type></trkpt>
      <trkpt lat="41.8192416" lon="-4.1944817"><ele>2654</ele><speed>19</speed><time>2016-06-29T15:01:59Z</time><course>185</course><type>1</type></trkpt>
      <trkpt lat="41.81916" lon="-4.1944967"><ele>2652</ele><speed>7</speed><time>2016-06-29T15:02:02Z</time><course>237</course><type>1</type></trkpt>
      <trkpt lat="41.8192149" lon="-4.194495"><ele>2653</ele><speed>11</speed><time>2016-06-29T15:02:06Z</time><course>21</course><type>1</type></trkpt>
      <trkpt lat="41.81933" lon="-4.1944534"><ele>2652</ele><speed>28</speed><time>2016-06-29T15:02:08Z</time><course>7</course><type>1</type></trkpt>
      <trkpt lat="41.8194833" lon="-4.19439"><ele>2652</ele><speed>32</speed><time>2016-06-29T15:02:10Z</time><course>23</course><type>1</type></trkpt>
      <trkpt lat="41.819615" lon="-4.1942684"><ele>2650</ele><speed>35</speed><time>2016-06-29T15:02:12Z</time><course>39</course><type>1</type></trkpt>
      <trkpt lat="41.8196916" lon="-4.1941834"><ele>2648</ele><speed>41</speed><time>2016-06-29T15:02:13Z</time><course>36</course><type>1</type></trkpt>
      <trkpt lat="41.8197766" lon="-4.1940984"><ele>2647</ele><speed>44</speed><time>2016-06-29T15:02:14Z</time><course>36</course><type>1</type></trkpt>
      <trkpt lat="41.8199566" lon="-4.1938884"><ele>2645</ele><speed>52</speed><time>2016-06-29T15:02:16Z</time><course>42</course><type>1</type></trkpt>
      <trkpt lat="41.82014" lon="-4.1936267"><ele>2643</ele><speed>55</speed><time>2016-06-29T15:02:18Z</time><course>49</course><type>1</type></trkpt>
      <trkpt lat="41.8203066" lon="-4.1933151"><ele>2640</ele><speed>61</speed><time>2016-06-29T15:02:20Z</time><course>55</course><type>1</type></trkpt>
      <trkpt lat="41.8203849" lon="-4.1931334"><ele>2639</ele><speed>67</speed><time>2016-06-29T15:02:21Z</time><course>56</course><type>1</type></trkpt>
      <trkpt lat="41.8205466" lon="-4.19273"><ele>2638</ele><speed>72</speed><time>2016-06-29T15:02:23Z</time><course>62</course><type>1</type></trkpt>
      <trkpt lat="41.8206233" lon="-4.1925151"><ele>2638</ele><speed>68</speed><time>2016-06-29T15:02:24Z</time><course>68</course><type>1</type></trkpt>
      <trkpt lat="41.8207333" lon="-4.19209"><ele>2637</ele><speed>66</speed><time>2016-06-29T15:02:26Z</time><course>71</course><type>1</type></trkpt>
      <trkpt lat="41.8208316" lon="-4.19167"><ele>2638</ele><speed>65</speed><time>2016-06-29T15:02:28Z</time><course>71</course><type>1</type></trkpt>
      <trkpt lat="41.8209416" lon="-4.1912467"><ele>2638</ele><speed>67</speed><time>2016-06-29T15:02:30Z</time><course>70</course><type>1</type></trkpt>
      <trkpt lat="41.821055" lon="-4.1908217"><ele>2640</ele><speed>67</speed><time>2016-06-29T15:02:32Z</time><course>68</course><type>1</type></trkpt>
      <trkpt lat="41.8211133" lon="-4.19062"><ele>2641</ele><speed>67</speed><time>2016-06-29T15:02:33Z</time><course>67</course><type>1</type></trkpt>
      <trkpt lat="41.8212216" lon="-4.1902284"><ele>2644</ele><speed>59</speed><time>2016-06-29T15:02:35Z</time><course>74</course><type>1</type></trkpt>
      <trkpt lat="41.8212666" lon="-4.18983"><ele>2645</ele><speed>58</speed><time>2016-06-29T15:02:37Z</time><course>87</course><type>1</type></trkpt>
      <trkpt lat="41.8212433" lon="-4.189395"><ele>2647</ele><speed>69</speed><time>2016-06-29T15:02:39Z</time><course>98</course><type>1</type></trkpt>
      <trkpt lat="41.8211833" lon="-4.1889567"><ele>2650</ele><speed>60</speed><time>2016-06-29T15:02:41Z</time><course>99</course><type>1</type></trkpt>
      <trkpt lat="41.8211566" lon="-4.1885867"><ele>2653</ele><speed>51</speed><time>2016-06-29T15:02:43Z</time><course>94</course><type>1</type></trkpt>
      <trkpt lat="41.8211383" lon="-4.1884084"><ele>2654</ele><speed>55</speed><time>2016-06-29T15:02:44Z</time><course>99</course><type>1</type></trkpt>
      <trkpt lat="41.8210966" lon="-4.1882134"><ele>2655</ele><speed>62</speed><time>2016-06-29T15:02:45Z</time><course>106</course><type>1</type></trkpt>
      <trkpt lat="41.8209783" lon="-4.1878551"><ele>2658</ele><speed>52</speed><time>2016-06-29T15:02:47Z</time><course>116</course><type>1</type></trkpt>
      <trkpt lat="41.8208383" lon="-4.1875484"><ele>2660</ele><speed>53</speed><time>2016-06-29T15:02:49Z</time><course>127</course><type>1</type></trkpt>
      <trkpt lat="41.8207583" lon="-4.1874067"><ele>2661</ele><speed>52</speed><time>2016-06-29T15:02:50Z</time><course>129</course><type>1</type></trkpt>
      <trkpt lat="41.8206616" lon="-4.1872734"><ele>2662</ele><speed>54</speed><time>2016-06-29T15:02:51Z</time><course>134</course><type>1</type></trkpt>
      <trkpt lat="41.82046" lon="-4.1870617"><ele>2665</ele><speed>51</speed><time>2016-06-29T15:02:53Z</time><course>143</course><type>1</type></trkpt>
      <trkpt lat="41.8202683" lon="-4.1868967"><ele>2668</ele><speed>41</speed><time>2016-06-29T15:02:55Z</time><course>151</course><type>1</type></trkpt>
      <trkpt lat="41.820175" lon="-4.1868417"><ele>2669</ele><speed>39</speed><time>2016-06-29T15:02:56Z</time><course>156</course><type>1</type></trkpt>
      <trkpt lat="41.82002" lon="-4.18677"><ele>2671</ele><speed>29</speed><time>2016-06-29T15:02:58Z</time><course>162</course><type>1</type></trkpt>
      <trkpt lat="41.8199583" lon="-4.1867417"><ele>2672</ele><speed>25</speed><time>2016-06-29T15:02:59Z</time><course>163</course><type>1</type></trkpt>
      <trkpt lat="41.81984" lon="-4.1867117"><ele>2674</ele><speed>22</speed><time>2016-06-29T15:03:01Z</time><course>175</course><type>1</type></trkpt>
      <trkpt lat="41.8197616" lon="-4.1866934"><ele>2675</ele><speed>14</speed><time>2016-06-29T15:03:03Z</time><course>185</course><type>1</type></trkpt>
      <trkpt lat="41.819695" lon="-4.1866817"><ele>2679</ele><speed>8</speed><time>2016-06-29T15:03:07Z</time><course>186</course><type>1</type></trkpt>
      <trkpt lat="41.8197766" lon="-4.1866417"><ele>2684</ele><speed>16</speed><time>2016-06-29T15:03:15Z</time><course>10</course><type>1</type></trkpt>
      <trkpt lat="41.8198316" lon="-4.1866234"><ele>2685</ele><speed>23</speed><time>2016-06-29T15:03:16Z</time><course>13</course><type>1</type></trkpt>
      <trkpt lat="41.819895" lon="-4.1865967"><ele>2685</ele><speed>27</speed><time>2016-06-29T15:03:17Z</time><course>17</course><type>1</type></trkpt>
      <trkpt lat="41.8200366" lon="-4.1865134"><ele>2686</ele><speed>32</speed><time>2016-06-29T15:03:19Z</time><course>24</course><type>1</type></trkpt>
      <trkpt lat="41.820195" lon="-4.1864184"><ele>2687</ele><speed>38</speed><time>2016-06-29T15:03:21Z</time><course>21</course><type>1</type></trkpt>
      <trkpt lat="41.8202783" lon="-4.1863717"><ele>2688</ele><speed>37</speed><time>2016-06-29T15:03:22Z</time><course>23</course><type>1</type></trkpt>
      <trkpt lat="41.820445" lon="-4.1862417"><ele>2689</ele><speed>38</speed><time>2016-06-29T15:03:24Z</time><course>40</course><type>1</type></trkpt>
      <trkpt lat="41.820615" lon="-4.1860584"><ele>2691</ele><speed>47</speed><time>2016-06-29T15:03:26Z</time><course>40</course><type>1</type></trkpt>
      <trkpt lat="41.82069" lon="-4.1859717"><ele>2691</ele><speed>42</speed><time>2016-06-29T15:03:27Z</time><course>43</course><type>1</type></trkpt>
      <trkpt lat="41.8208416" lon="-4.1857434"><ele>2692</ele><speed>50</speed><time>2016-06-29T15:03:29Z</time><course>51</course><type>1</type></trkpt>
      <trkpt lat="41.8209216" lon="-4.1855934"><ele>2693</ele><speed>59</speed><time>2016-06-29T15:03:30Z</time><course>55</course><type>1</type></trkpt>
      <trkpt lat="41.8210733" lon="-4.1852217"><ele>2694</ele><speed>62</speed><time>2016-06-29T15:03:32Z</time><course>64</course><type>1</type></trkpt>
      <trkpt lat="41.8211966" lon="-4.1848317"><ele>2695</ele><speed>65</speed><time>2016-06-29T15:03:34Z</time><course>70</course><type>1</type></trkpt>
      <trkpt lat="41.82128" lon="-4.1843684"><ele>2696</ele><speed>75</speed><time>2016-06-29T15:03:36Z</time><course>81</course><type>1</type></trkpt>
      <trkpt lat="41.82128" lon="-4.18411"><ele>2697</ele><speed>76</speed><time>2016-06-29T15:03:37Z</time><course>86</course><type>1</type></trkpt>
      <trkpt lat="41.8211483" lon="-4.1836567"><ele>2698</ele><speed>63</speed><time>2016-06-29T15:03:39Z</time><course>105</course><type>1</type></trkpt>
      <trkpt lat="41.8210399" lon="-4.1832967"><ele>2699</ele><speed>55</speed><time>2016-06-29T15:03:41Z</time><course>110</course><type>1</type></trkpt>
      <trkpt lat="41.8209716" lon="-4.18314"><ele>2700</ele><speed>54</speed><time>2016-06-29T15:03:42Z</time><course>114</course><type>1</type></trkpt>
      <trkpt lat="41.8207966" lon="-4.1828434"><ele>2701</ele><speed>55</speed><time>2016-06-29T15:03:44Z</time><course>127</course><type>1</type></trkpt>
      <trkpt lat="41.820575" lon="-4.182655"><ele>2702</ele><speed>47</speed><time>2016-06-29T15:03:46Z</time><course>148</course><type>1</type></trkpt>
      <trkpt lat="41.8204016" lon="-4.1825017"><ele>2703</ele><speed>38</speed><time>2016-06-29T15:03:48Z</time><course>142</course><type>1</type></trkpt>
      <trkpt lat="41.820235" lon="-4.1823734"><ele>2704</ele><speed>39</speed><time>2016-06-29T15:03:50Z</time><course>148</course><type>1</type></trkpt>
      <trkpt lat="41.8200633" lon="-4.1823417"><ele>2706</ele><speed>33</speed><time>2016-06-29T15:03:52Z</time><course>169</course><type>1</type></trkpt>
      <trkpt lat="41.8198899" lon="-4.1822967"><ele>2707</ele><speed>37</speed><time>2016-06-29T15:03:54Z</time><course>166</course><type>1</type></trkpt>
      <trkpt lat="41.819715" lon="-4.1822117"><ele>2708</ele><speed>37</speed><time>2016-06-29T15:03:56Z</time><course>159</course><type>1</type></trkpt>
      <trkpt lat="41.8195683" lon="-4.1821384"><ele>2710</ele><speed>31</speed><time>2016-06-29T15:03:58Z</time><course>161</course><type>1</type></trkpt>
      <trkpt lat="41.819415" lon="-4.1820817"><ele>2711</ele><speed>32</speed><time>2016-06-29T15:04:00Z</time><course>160</course><type>1</type></trkpt>
      <trkpt lat="41.8192516" lon="-4.1820084"><ele>2712</ele><speed>33</speed><time>2016-06-29T15:04:02Z</time><course>160</course><type>1</type></trkpt>
      <trkpt lat="41.8191433" lon="-4.181965"><ele>2714</ele><speed>22</speed><time>2016-06-29T15:04:04Z</time><course>174</course><type>1</type></trkpt>
      <trkpt lat="41.8190483" lon="-4.1819534"><ele>2716</ele><speed>19</speed><time>2016-06-29T15:04:06Z</time><course>177</course><type>1</type></trkpt>
      <trkpt lat="41.8189633" lon="-4.1819367"><ele>2718</ele><speed>14</speed><time>2016-06-29T15:04:08Z</time><course>176</course><type>1</type></trkpt>
      <trkpt lat="41.8190566" lon="-4.1819334"><ele>2720</ele><speed>16</speed><time>2016-06-29T15:04:15Z</time><course>4</course><type>1</type></trkpt>
      <trkpt lat="41.8191683" lon="-4.1818934"><ele>2720</ele><speed>25</speed><time>2016-06-29T15:04:17Z</time><course>16</course><type>1</type></trkpt>
      <trkpt lat="41.8193116" lon="-4.18184"><ele>2721</ele><speed>31</speed><time>2016-06-29T15:04:19Z</time><course>15</course><type>1</type></trkpt>
      <trkpt lat="41.8194766" lon="-4.1817767"><ele>2721</ele><speed>37</speed><time>2016-06-29T15:04:21Z</time><course>19</course><type>1</type></trkpt>
      <trkpt lat="41.8196233" lon="-4.181695"><ele>2720</ele><speed>36</speed><time>2016-06-29T15:04:23Z</time><course>22</course><type>1</type></trkpt>
      <trkpt lat="41.81979" lon="-4.1815734"><ele>2719</ele><speed>38</speed><time>2016-06-29T15:04:25Z</time><course>33</course><type>1</type></trkpt>
      <trkpt lat="41.8199466" lon="-4.18142"><ele>2717</ele><speed>42</speed><time>2016-06-29T15:04:27Z</time><course>36</course><type>1</type></trkpt>
      <trkpt lat="41.8201316" lon="-4.1812317"><ele>2715</ele><speed>51</speed><time>2016-06-29T15:04:29Z</time><course>33</course><type>1</type></trkpt>
      <trkpt lat="41.82033" lon="-4.1810134"><ele>2714</ele><speed>53</speed><time>2016-06-29T15:04:31Z</time><course>42</course><type>1</type></trkpt>
      <trkpt lat="41.8204099" lon="-4.1808984"><ele>2714</ele><speed>48</speed><time>2016-06-29T15:04:32Z</time><course>44</course><type>1</type></trkpt>
      <trkpt lat="41.8205649" lon="-4.180675"><ele>2713</ele><speed>45</speed><time>2016-06-29T15:04:34Z</time><course>45</course><type>1</type></trkpt>
      <trkpt lat="41.8207466" lon="-4.18045"><ele>2713</ele><speed>52</speed><time>2016-06-29T15:04:36Z</time><course>41</course><type>1</type></trkpt>
      <trkpt lat="41.8209116" lon="-4.180175"><ele>2713</ele><speed>57</speed><time>2016-06-29T15:04:38Z</time><course>52</course><type>1</type></trkpt>
      <trkpt lat="41.82105" lon="-4.1798484"><ele>2714</ele><speed>55</speed><time>2016-06-29T15:04:40Z</time><course>67</course><type>1</type></trkpt>
      <trkpt lat="41.8211033" lon="-4.1796684"><ele>2715</ele><speed>57</speed><time>2016-06-29T15:04:41Z</time><course>70</course><type>1</type></trkpt>
      <trkpt lat="41.8211866" lon="-4.1792817"><ele>2716</ele><speed>62</speed><time>2016-06-29T15:04:43Z</time><course>76</course><type>1</type></trkpt>
      <trkpt lat="41.8212333" lon="-4.1788634"><ele>2717</ele><speed>63</speed><time>2016-06-29T15:04:45Z</time><course>83</course><type>1</type></trkpt>
      <trkpt lat="41.821245" lon="-4.1784317"><ele>2719</ele><speed>66</speed><time>2016-06-29T15:04:47Z</time><course>92</course><type>1</type></trkpt>
      <trkpt lat="41.8212033" lon="-4.1779984"><ele>2723</ele><speed>65</speed><time>2016-06-29T15:04:49Z</time><course>101</course><type>1</type></trkpt>
      <trkpt lat="41.8211683" lon="-4.1777934"><ele>2724</ele><speed>62</speed><time>2016-06-29T15:04:50Z</time><course>103</course><type>1</type></trkpt>
      <trkpt lat="41.8211283" lon="-4.1775884"><ele>2726</ele><speed>63</speed><time>2016-06-29T15:04:51Z</time><course>103</course><type>1</type></trkpt>
      <trkpt lat="41.8210333" lon="-4.17722"><ele>2729</ele><speed>52</speed><time>2016-06-29T15:04:53Z</time><course>110</course><type>1</type></trkpt>
      <trkpt lat="41.8209483" lon="-4.176915"><ele>2733</ele><speed>45</speed><time>2016-06-29T15:04:55Z</time><course>111</course><type>1</type></trkpt>
      <trkpt lat="41.8209" lon="-4.1767717"><ele>2733</ele><speed>48</speed><time>2016-06-29T15:04:56Z</time><course>111</course><type>1</type></trkpt>
      <trkpt lat="41.8208266" lon="-4.1766167"><ele>2733</ele><speed>54</speed><time>2016-06-29T15:04:57Z</time><course>119</course><type>1</type></trkpt>
      <trkpt lat="41.8206633" lon="-4.176355"><ele>2736</ele><speed>51</speed><time>2016-06-29T15:04:59Z</time><course>136</course><type>1</type></trkpt>
      <trkpt lat="41.8205666" lon="-4.1762867"><ele>2737</ele><speed>38</speed><time>2016-06-29T15:05:00Z</time><course>146</course><type>1</type></trkpt>
      <trkpt lat="41.8204316" lon="-4.1762534"><ele>2737</ele><speed>17</speed><time>2016-06-29T15:05:02Z</time><course>180</course><type>1</type></trkpt>
      <trkpt lat="41.8203933" lon="-4.1762567"><ele>2738</ele><speed>12</speed><time>2016-06-29T15:05:03Z</time><course>177</course><type>1</type></trkpt>
      <trkpt lat="41.82036" lon="-4.1762267"><ele>2741</ele><speed>9</speed><time>2016-06-29T15:05:05Z</time><course>105</course><type>1</type></trkpt>
      <trkpt lat="41.8203833" lon="-4.1761617"><ele>2745</ele><speed>10</speed><time>2016-06-29T15:05:09Z</time><course>353</course><type>1</type></trkpt>
      <trkpt lat="41.8204933" lon="-4.1761617"><ele>2749</ele><speed>15</speed><time>2016-06-29T15:05:12Z</time><course>13</course><type>1</type></trkpt>
      <trkpt lat="41.8205449" lon="-4.1761434"><ele>2750</ele><speed>19</speed><time>2016-06-29T15:05:13Z</time><course>13</course><type>1</type></trkpt>
      <trkpt lat="41.8206549" lon="-4.1760934"><ele>2753</ele><speed>23</speed><time>2016-06-29T15:05:15Z</time><course>23</course><type>1</type></trkpt>
      <trkpt lat="41.8207916" lon="-4.176"><ele>2755</ele><speed>31</speed><time>2016-06-29T15:05:17Z</time><course>28</course><type>1</type></trkpt>
      <trkpt lat="41.8209483" lon="-4.17587"><ele>2758</ele><speed>35</speed><time>2016-06-29T15:05:19Z</time><course>31</course><type>1</type></trkpt>
      <trkpt lat="41.8210266" lon="-4.1757967"><ele>2759</ele><speed>39</speed><time>2016-06-29T15:05:20Z</time><course>36</course><type>1</type></trkpt>
      <trkpt lat="41.8211766" lon="-4.17558"><ele>2762</ele><speed>48</speed><time>2016-06-29T15:05:22Z</time><course>55</course><type>1</type></trkpt>
      <trkpt lat="41.8212966" lon="-4.1753"><ele>2765</ele><speed>46</speed><time>2016-06-29T15:05:24Z</time><course>65</course><type>1</type></trkpt>
      <trkpt lat="41.8213983" lon="-4.1750117"><ele>2767</ele><speed>49</speed><time>2016-06-29T15:05:26Z</time><course>68</course><type>1</type></trkpt>
      <trkpt lat="41.8214733" lon="-4.1746817"><ele>2768</ele><speed>53</speed><time>2016-06-29T15:05:28Z</time><course>77</course><type>1</type></trkpt>
      <trkpt lat="41.821515" lon="-4.1742967"><ele>2770</ele><speed>61</speed><time>2016-06-29T15:05:30Z</time><course>84</course><type>1</type></trkpt>
      <trkpt lat="41.82153" lon="-4.1738734"><ele>2772</ele><speed>64</speed><time>2016-06-29T15:05:32Z</time><course>89</course><type>1</type></trkpt>
      <trkpt lat="41.8215216" lon="-4.17367"><ele>2773</ele><speed>66</speed><time>2016-06-29T15:05:33Z</time><course>95</course><type>1</type></trkpt>
      <trkpt lat="41.821455" lon="-4.1732784"><ele>2774</ele><speed>61</speed><time>2016-06-29T15:05:35Z</time><course>108</course><type>1</type></trkpt>
      <trkpt lat="41.8213983" lon="-4.1730884"><ele>2774</ele><speed>61</speed><time>2016-06-29T15:05:36Z</time><course>112</course><type>1</type></trkpt>
      <trkpt lat="41.8212566" lon="-4.172745"><ele>2776</ele><speed>56</speed><time>2016-06-29T15:05:38Z</time><course>121</course><type>1</type></trkpt>
      <trkpt lat="41.82109" lon="-4.1724617"><ele>2777</ele><speed>53</speed><time>2016-06-29T15:05:40Z</time><course>131</course><type>1</type></trkpt>
      <trkpt lat="41.8208916" lon="-4.1722167"><ele>2778</ele><speed>53</speed><time>2016-06-29T15:05:42Z</time><course>139</course><type>1</type></trkpt>
      <trkpt lat="41.8207833" lon="-4.17211"><ele>2778</ele><speed>52</speed><time>2016-06-29T15:05:43Z</time><course>142</course><type>1</type></trkpt>
      <trkpt lat="41.82057" lon="-4.1719567"><ele>2779</ele><speed>46</speed><time>2016-06-29T15:05:45Z</time><course>153</course><type>1</type></trkpt>
      <trkpt lat="41.820465" lon="-4.1718934"><ele>2780</ele><speed>46</speed><time>2016-06-29T15:05:46Z</time><course>154</course><type>1</type></trkpt>
      <trkpt lat="41.8202583" lon="-4.1717817"><ele>2782</ele><speed>44</speed><time>2016-06-29T15:05:48Z</time><course>157</course><type>1</type></trkpt>
      <trkpt lat="41.8201599" lon="-4.171725"><ele>2783</ele><speed>42</speed><time>2016-06-29T15:05:49Z</time><course>158</course><type>1</type></trkpt>
      <trkpt lat="41.8199683" lon="-4.1716367"><ele>2785</ele><speed>38</speed><time>2016-06-29T15:05:51Z</time><course>161</course><type>1</type></trkpt>
      <trkpt lat="41.81988" lon="-4.1716001"><ele>2786</ele><speed>37</speed><time>2016-06-29T15:05:52Z</time><course>163</course><type>1</type></trkpt>
      <trkpt lat="41.8197216" lon="-4.1715334"><ele>2788</ele><speed>32</speed><time>2016-06-29T15:05:54Z</time><course>162</course><type>1</type></trkpt>
      <trkpt lat="41.8196533" lon="-4.1714984"><ele>2790</ele><speed>29</speed><time>2016-06-29T15:05:55Z</time><course>153</course><type>1</type></trkpt>
      <trkpt lat="41.8195083" lon="-4.17141"><ele>2792</ele><speed>32</speed><time>2016-06-29T15:05:57Z</time><course>154</course><type>1</type></trkpt>
      <trkpt lat="41.81943" lon="-4.17137"><ele>2792</ele><speed>31</speed><time>2016-06-29T15:05:58Z</time><course>161</course><type>1</type></trkpt>
      <trkpt lat="41.8193083" lon="-4.1713367"><ele>2792</ele><speed>20</speed><time>2016-06-29T15:06:00Z</time><course>178</course><type>1</type></trkpt>
      <trkpt lat="41.81919" lon="-4.1713417"><ele>2792</ele><speed>26</speed><time>2016-06-29T15:06:02Z</time><course>187</course><type>1</type></trkpt>
      <trkpt lat="41.8191266" lon="-4.171345"><ele>2792</ele><speed>27</speed><time>2016-06-29T15:06:03Z</time><course>188</course><type>1</type></trkpt>
      <trkpt lat="41.8190366" lon="-4.1713584"><ele>2792</ele><speed>11</speed><time>2016-06-29T15:06:05Z</time><course>196</course><type>1</type></trkpt>
      <trkpt lat="41.8190116" lon="-4.1714167"><ele>2792</ele><speed>11</speed><time>2016-06-29T15:06:08Z</time><course>271</course><type>1</type></trkpt>
      <trkpt lat="41.8190166" lon="-4.1714884"><ele>2792</ele><speed>0</speed><time>2016-06-29T15:06:12Z</time><course>263</course><type>1</type></trkpt>
      <trkpt lat="41.8190733" lon="-4.1715234"><ele>2792</ele><speed>11</speed><time>2016-06-29T15:06:15Z</time><course>344</course><type>1</type></trkpt>
      <trkpt lat="41.81915" lon="-4.1715567"><ele>2792</ele><speed>20</speed><time>2016-06-29T15:06:17Z</time><course>349</course><type>1</type></trkpt>
      <trkpt lat="41.8192116" lon="-4.1715584"><ele>2791</ele><speed>23</speed><time>2016-06-29T15:06:18Z</time><course>3</course><type>1</type></trkpt>
      <trkpt lat="41.8193583" lon="-4.1714984"><ele>2791</ele><speed>30</speed><time>2016-06-29T15:06:20Z</time><course>21</course><type>1</type></trkpt>
      <trkpt lat="41.819495" lon="-4.171445"><ele>2791</ele><speed>27</speed><time>2016-06-29T15:06:22Z</time><course>13</course><type>1</type></trkpt>
      <trkpt lat="41.8195716" lon="-4.171435"><ele>2789</ele><speed>30</speed><time>2016-06-29T15:06:23Z</time><course>5</course><type>1</type></trkpt>
      <trkpt lat="41.8197483" lon="-4.171365"><ele>2785</ele><speed>42</speed><time>2016-06-29T15:06:25Z</time><course>26</course><type>1</type></trkpt>
      <trkpt lat="41.8199283" lon="-4.1711784"><ele>2781</ele><speed>48</speed><time>2016-06-29T15:06:27Z</time><course>48</course><type>1</type></trkpt>
      <trkpt lat="41.820005" lon="-4.1710467"><ele>2779</ele><speed>50</speed><time>2016-06-29T15:06:28Z</time><course>52</course><type>1</type></trkpt>
      <trkpt lat="41.8200783" lon="-4.1709067"><ele>2777</ele><speed>51</speed><time>2016-06-29T15:06:29Z</time><course>54</course><type>1</type></trkpt>
      <trkpt lat="41.8202333" lon="-4.1706"><ele>2774</ele><speed>57</speed><time>2016-06-29T15:06:31Z</time><course>58</course><type>1</type></trkpt>
      <trkpt lat="41.82038" lon="-4.1702417"><ele>2772</ele><speed>64</speed><time>2016-06-29T15:06:33Z</time><course>62</course><type>1</type></trkpt>
      <trkpt lat="41.82051" lon="-4.169865"><ele>2771</ele><speed>57</speed><time>2016-06-29T15:06:35Z</time><course>66</course><type>1</type></trkpt>
      <trkpt lat="41.8206216" lon="-4.16953"><ele>2771</ele><speed>50</speed><time>2016-06-29T15:06:37Z</time><course>65</course><type>1</type></trkpt>
      <trkpt lat="41.8207533" lon="-4.1692067"><ele>2770</ele><speed>55</speed><time>2016-06-29T15:06:39Z</time><course>61</course><type>1</type></trkpt>
      <trkpt lat="41.8208683" lon="-4.1688817"><ele>2771</ele><speed>51</speed><time>2016-06-29T15:06:41Z</time><course>67</course><type>1</type></trkpt>
      <trkpt lat="41.8209533" lon="-4.168555"><ele>2773</ele><speed>51</speed><time>2016-06-29T15:06:43Z</time><course>72</course><type>1</type></trkpt>
      <trkpt lat="41.8210416" lon="-4.1682167"><ele>2772</ele><speed>53</speed><time>2016-06-29T15:06:45Z</time><course>67</course><type>1</type></trkpt>
      <trkpt lat="41.8211366" lon="-4.167855"><ele>2772</ele><speed>61</speed><time>2016-06-29T15:06:47Z</time><course>73</course><type>1</type></trkpt>
      <trkpt lat="41.821205" lon="-4.16746"><ele>2772</ele><speed>57</speed><time>2016-06-29T15:06:49Z</time><course>80</course><type>1</type></trkpt>
      <trkpt lat="41.8212566" lon="-4.16711"><ele>2773</ele><speed>49</speed><time>2016-06-29T15:06:51Z</time><course>79</course><type>1</type></trkpt>
      <trkpt lat="41.8213099" lon="-4.1667584"><ele>2771</ele><speed>56</speed><time>2016-06-29T15:06:53Z</time><course>78</course><type>1</type></trkpt>
      <trkpt lat="41.82133" lon="-4.1665684"><ele>2771</ele><speed>57</speed><time>2016-06-29T15:06:54Z</time><course>87</course><type>1</type></trkpt>
      <trkpt lat="41.8213316" lon="-4.1661834"><ele>2770</ele><speed>55</speed><time>2016-06-29T15:06:56Z</time><course>92</course><type>1</type></trkpt>
      <trkpt lat="41.8213333" lon="-4.1659984"><ele>2769</ele><speed>54</speed><time>2016-06-29T15:06:57Z</time><course>89</course><type>1</type></trkpt>
      <trkpt lat="41.821325" lon="-4.1656117"><ele>2768</ele><speed>61</speed><time>2016-06-29T15:06:59Z</time><course>94</course><type>1</type></trkpt>
      <trkpt lat="41.8212916" lon="-4.1652034"><ele>2767</ele><speed>60</speed><time>2016-06-29T15:07:01Z</time><course>98</course><type>1</type></trkpt>
      <trkpt lat="41.8212616" lon="-4.1648117"><ele>2764</ele><speed>57</speed><time>2016-06-29T15:07:03Z</time><course>92</course><type>1</type></trkpt>
      <trkpt lat="41.8212266" lon="-4.1644017"><ele>2762</ele><speed>57</speed><time>2016-06-29T15:07:05Z</time><course>100</course><type>1</type></trkpt>
      <trkpt lat="41.82119" lon="-4.1641834"><ele>2760</ele><speed>67</speed><time>2016-06-29T15:07:06Z</time><course>103</course><type>1</type></trkpt>
      <trkpt lat="41.8210883" lon="-4.1637434"><ele>2757</ele><speed>68</speed><time>2016-06-29T15:07:08Z</time><course>110</course><type>1</type></trkpt>
      <trkpt lat="41.8209466" lon="-4.163325"><ele>2752</ele><speed>68</speed><time>2016-06-29T15:07:10Z</time><course>116</course><type>1</type></trkpt>
      <trkpt lat="41.8208666" lon="-4.1631184"><ele>2750</ele><speed>68</speed><time>2016-06-29T15:07:11Z</time><course>117</course><type>1</type></trkpt>
      <trkpt lat="41.8207866" lon="-4.1629117"><ele>2748</ele><speed>67</speed><time>2016-06-29T15:07:12Z</time><course>117</course><type>1</type></trkpt>
      <trkpt lat="41.82062" lon="-4.1625284"><ele>2746</ele><speed>67</speed><time>2016-06-29T15:07:14Z</time><course>120</course><type>1</type></trkpt>
      <trkpt lat="41.8205416" lon="-4.1623484"><ele>2745</ele><speed>61</speed><time>2016-06-29T15:07:15Z</time><course>121</course><type>1</type></trkpt>
      <trkpt lat="41.8203516" lon="-4.1619984"><ele>2742</ele><speed>63</speed><time>2016-06-29T15:07:17Z</time><course>127</course><type>1</type></trkpt>
      <trkpt lat="41.8202416" lon="-4.1618367"><ele>2740</ele><speed>63</speed><time>2016-06-29T15:07:18Z</time><course>130</course><type>1</type></trkpt>
      <trkpt lat="41.820015" lon="-4.16154"><ele>2738</ele><speed>60</speed><time>2016-06-29T15:07:20Z</time><course>135</course><type>1</type></trkpt>
      <trkpt lat="41.8198016" lon="-4.16129"><ele>2736</ele><speed>53</speed><time>2016-06-29T15:07:22Z</time><course>140</course><type>1</type></trkpt>
      <trkpt lat="41.819585" lon="-4.1610734"><ele>2735</ele><speed>51</speed><time>2016-06-29T15:07:24Z</time><course>144</course><type>1</type></trkpt>
      <trkpt lat="41.8194766" lon="-4.1609817"><ele>2734</ele><speed>49</speed><time>2016-06-29T15:07:25Z</time><course>148</course><type>1</type></trkpt>
      <trkpt lat="41.81937" lon="-4.1608867"><ele>2733</ele><speed>49</speed><time>2016-06-29T15:07:26Z</time><course>149</course><type>1</type></trkpt>
      <trkpt lat="41.8191266" lon="-4.1607384"><ele>2729</ele><speed>51</speed><time>2016-06-29T15:07:28Z</time><course>155</course><type>1</type></trkpt>
      <trkpt lat="41.819" lon="-4.1606767"><ele>2726</ele><speed>50</speed><time>2016-06-29T15:07:29Z</time><course>155</course><type>1</type></trkpt>
      <trkpt lat="41.8187916" lon="-4.1605484"><ele>2723</ele><speed>43</speed><time>2016-06-29T15:07:31Z</time><course>150</course><type>1</type></trkpt>
      <trkpt lat="41.8187016" lon="-4.1604884"><ele>2721</ele><speed>40</speed><time>2016-06-29T15:07:32Z</time><course>151</course><type>1</type></trkpt>
      <trkpt lat="41.8185066" lon="-4.1603817"><ele>2717</ele><speed>42</speed><time>2016-06-29T15:07:34Z</time><course>158</course><type>1</type></trkpt>
      <trkpt lat="41.8184049" lon="-4.1603334"><ele>2715</ele><speed>41</speed><time>2016-06-29T15:07:35Z</time><course>161</course><type>1</type></trkpt>
      <trkpt lat="41.818215" lon="-4.1602334"><ele>2713</ele><speed>42</speed><time>2016-06-29T15:07:37Z</time><course>154</course><type>1</type></trkpt>
      <trkpt lat="41.8181166" lon="-4.1601684"><ele>2712</ele><speed>45</speed><time>2016-06-29T15:07:38Z</time><course>150</course><type>1</type></trkpt>
      <trkpt lat="41.8179099" lon="-4.1600017"><ele>2709</ele><speed>49</speed><time>2016-06-29T15:07:40Z</time><course>148</course><type>1</type></trkpt>
      <trkpt lat="41.8176983" lon="-4.1598701"><ele>2707</ele><speed>44</speed><time>2016-06-29T15:07:42Z</time><course>157</course><type>1</type></trkpt>
      <trkpt lat="41.8174933" lon="-4.1597634"><ele>2704</ele><speed>44</speed><time>2016-06-29T15:07:44Z</time><course>156</course><type>1</type></trkpt>
      <trkpt lat="41.8172983" lon="-4.15963"><ele>2702</ele><speed>44</speed><time>2016-06-29T15:07:46Z</time><course>152</course><type>1</type></trkpt>
      <trkpt lat="41.8171133" lon="-4.15951"><ele>2700</ele><speed>40</speed><time>2016-06-29T15:07:48Z</time><course>157</course><type>1</type></trkpt>
      <trkpt lat="41.8169383" lon="-4.1594267"><ele>2699</ele><speed>37</speed><time>2016-06-29T15:07:50Z</time><course>162</course><type>1</type></trkpt>
      <trkpt lat="41.8167733" lon="-4.1593584"><ele>2697</ele><speed>36</speed><time>2016-06-29T15:07:52Z</time><course>163</course><type>1</type></trkpt>
      <trkpt lat="41.816585" lon="-4.1592767"><ele>2695</ele><speed>41</speed><time>2016-06-29T15:07:54Z</time><course>155</course><type>1</type></trkpt>
      <trkpt lat="41.8163783" lon="-4.1591467"><ele>2693</ele><speed>46</speed><time>2016-06-29T15:07:56Z</time><course>155</course><type>1</type></trkpt>
      <trkpt lat="41.8161783" lon="-4.1590234"><ele>2690</ele><speed>41</speed><time>2016-06-29T15:07:58Z</time><course>156</course><type>1</type></trkpt>
      <trkpt lat="41.815985" lon="-4.1589417"><ele>2687</ele><speed>38</speed><time>2016-06-29T15:08:00Z</time><course>164</course><type>1</type></trkpt>
      <trkpt lat="41.8158883" lon="-4.15891"><ele>2686</ele><speed>40</speed><time>2016-06-29T15:08:01Z</time><course>165</course><type>1</type></trkpt>
      <trkpt lat="41.8157833" lon="-4.158875"><ele>2685</ele><speed>43</speed><time>2016-06-29T15:08:02Z</time><course>165</course><type>1</type></trkpt>
      <trkpt lat="41.8155683" lon="-4.1587817"><ele>2683</ele><speed>47</speed><time>2016-06-29T15:08:04Z</time><course>156</course><type>1</type></trkpt>
      <trkpt lat="41.8153383" lon="-4.1586134"><ele>2681</ele><speed>54</speed><time>2016-06-29T15:08:06Z</time><course>146</course><type>1</type></trkpt>
      <trkpt lat="41.8152116" lon="-4.1585034"><ele>2680</ele><speed>58</speed><time>2016-06-29T15:08:07Z</time><course>144</course><type>1</type></trkpt>
      <trkpt lat="41.81509" lon="-4.1583917"><ele>2679</ele><speed>58</speed><time>2016-06-29T15:08:08Z</time><course>145</course><type>1</type></trkpt>
      <trkpt lat="41.8148533" lon="-4.1581767"><ele>2677</ele><speed>55</speed><time>2016-06-29T15:08:10Z</time><course>146</course><type>1</type></trkpt>
      <trkpt lat="41.8146116" lon="-4.1579667"><ele>2674</ele><speed>57</speed><time>2016-06-29T15:08:12Z</time><course>146</course><type>1</type></trkpt>
      <trkpt lat="41.814485" lon="-4.1578434"><ele>2673</ele><speed>62</speed><time>2016-06-29T15:08:13Z</time><course>143</course><type>1</type></trkpt>
      <trkpt lat="41.8142016" lon="-4.157565"><ele>2671</ele><speed>72</speed><time>2016-06-29T15:08:15Z</time><course>144</course><type>1</type></trkpt>
      <trkpt lat="41.8140683" lon="-4.157435"><ele>2670</ele><speed>69</speed><time>2016-06-29T15:08:16Z</time><course>145</course><type>1</type></trkpt>
      <trkpt lat="41.813845" lon="-4.1572"><ele>2668</ele><speed>54</speed><time>2016-06-29T15:08:18Z</time><course>142</course><type>1</type></trkpt>
      <trkpt lat="41.8136133" lon="-4.1569684"><ele>2667</ele><speed>59</speed><time>2016-06-29T15:08:20Z</time><course>141</course><type>1</type></trkpt>
      <trkpt lat="41.81335" lon="-4.1566984"><ele>2665</ele><speed>66</speed><time>2016-06-29T15:08:22Z</time><course>142</course><type>1</type></trkpt>
      <trkpt lat="41.8131033" lon="-4.1564467"><ele>2663</ele><speed>61</speed><time>2016-06-29T15:08:24Z</time><course>142</course><type>1</type></trkpt>
      <trkpt lat="41.812875" lon="-4.1562217"><ele>2661</ele><speed>55</speed><time>2016-06-29T15:08:26Z</time><course>142</course><type>1</type></trkpt>
      <trkpt lat="41.81277" lon="-4.1561034"><ele>2660</ele><speed>55</speed><time>2016-06-29T15:08:27Z</time><course>141</course><type>1</type></trkpt>
      <trkpt lat="41.8125416" lon="-4.1558684"><ele>2659</ele><speed>56</speed><time>2016-06-29T15:08:29Z</time><course>143</course><type>1</type></trkpt>
      <trkpt lat="41.8124216" lon="-4.1557684"><ele>2657</ele><speed>55</speed><time>2016-06-29T15:08:30Z</time><course>146</course><type>1</type></trkpt>
      <trkpt lat="41.8121733" lon="-4.1556017"><ele>2656</ele><speed>54</speed><time>2016-06-29T15:08:32Z</time><course>153</course><type>1</type></trkpt>
      <trkpt lat="41.811945" lon="-4.155455"><ele>2655</ele><speed>49</speed><time>2016-06-29T15:08:34Z</time><course>154</course><type>1</type></trkpt>
      <trkpt lat="41.811825" lon="-4.1553984"><ele>2654</ele><speed>49</speed><time>2016-06-29T15:08:35Z</time><course>159</course><type>1</type></trkpt>
      <trkpt lat="41.8116116" lon="-4.15531"><ele>2652</ele><speed>43</speed><time>2016-06-29T15:08:37Z</time><course>166</course><type>1</type></trkpt>
      <trkpt lat="41.8113966" lon="-4.1552684"><ele>2649</ele><speed>40</speed><time>2016-06-29T15:08:39Z</time><course>176</course><type>1</type></trkpt>
      <trkpt lat="41.8113" lon="-4.1552717"><ele>2648</ele><speed>36</speed><time>2016-06-29T15:08:40Z</time><course>185</course><type>1</type></trkpt>
      <trkpt lat="41.8112016" lon="-4.1552967"><ele>2646</ele><speed>37</speed><time>2016-06-29T15:08:41Z</time><course>194</course><type>1</type></trkpt>
      <trkpt lat="41.8110766" lon="-4.1553567"><ele>2644</ele><speed>23</speed><time>2016-06-29T15:08:43Z</time><course>201</course><type>1</type></trkpt>
      <trkpt lat="41.8109933" lon="-4.1554017"><ele>2642</ele><speed>12</speed><time>2016-06-29T15:08:45Z</time><course>211</course><type>1</type></trkpt>
      <trkpt lat="41.8109583" lon="-4.1554717"><ele>2639</ele><speed>14</speed><time>2016-06-29T15:08:47Z</time><course>261</course><type>1</type></trkpt>
      <trkpt lat="41.810965" lon="-4.155565"><ele>2637</ele><speed>14</speed><time>2016-06-29T15:08:49Z</time><course>293</course><type>1</type></trkpt>
      <trkpt lat="41.8109883" lon="-4.1556234"><ele>2635</ele><speed>8</speed><time>2016-06-29T15:08:51Z</time><course>312</course><type>1</type></trkpt>
      <trkpt lat="41.81103" lon="-4.1556484"><ele>2633</ele><speed>10</speed><time>2016-06-29T15:08:53Z</time><course>350</course><type>1</type></trkpt>
      <trkpt lat="41.8111083" lon="-4.155655"><ele>2630</ele><speed>19</speed><time>2016-06-29T15:08:55Z</time><course>356</course><type>1</type></trkpt>
      <trkpt lat="41.8111566" lon="-4.155655"><ele>2629</ele><speed>18</speed><time>2016-06-29T15:08:56Z</time><course>4</course><type>1</type></trkpt>
      <trkpt lat="41.8112066" lon="-4.1556417"><ele>2628</ele><speed>20</speed><time>2016-06-29T15:08:57Z</time><course>14</course><type>1</type></trkpt>
      <trkpt lat="41.8113116" lon="-4.155555"><ele>2625</ele><speed>28</speed><time>2016-06-29T15:08:59Z</time><course>37</course><type>1</type></trkpt>
      <trkpt lat="41.8114233" lon="-4.1554034"><ele>2621</ele><speed>35</speed><time>2016-06-29T15:09:01Z</time><course>47</course><type>1</type></trkpt>
      <trkpt lat="41.8114916" lon="-4.155315"><ele>2620</ele><speed>38</speed><time>2016-06-29T15:09:02Z</time><course>47</course><type>1</type></trkpt>
      <trkpt lat="41.811615" lon="-4.155105"><ele>2618</ele><speed>44</speed><time>2016-06-29T15:09:04Z</time><course>58</course><type>1</type></trkpt>
      <trkpt lat="41.81167" lon="-4.1549734"><ele>2616</ele><speed>46</speed><time>2016-06-29T15:09:05Z</time><course>61</course><type>1</type></trkpt>
      <trkpt lat="41.81177" lon="-4.1546534"><ele>2613</ele><speed>55</speed><time>2016-06-29T15:09:07Z</time><course>71</course><type>1</type></trkpt>
      <trkpt lat="41.8118366" lon="-4.154255"><ele>2611</ele><speed>64</speed><time>2016-06-29T15:09:09Z</time><course>79</course><type>1</type></trkpt>
      <trkpt lat="41.8118666" lon="-4.1538417"><ele>2610</ele><speed>58</speed><time>2016-06-29T15:09:11Z</time><course>91</course><type>1</type></trkpt>
      <trkpt lat="41.81185" lon="-4.15345"><ele>2608</ele><speed>60</speed><time>2016-06-29T15:09:13Z</time><course>92</course><type>1</type></trkpt>
      <trkpt lat="41.811845" lon="-4.1532384"><ele>2606</ele><speed>64</speed><time>2016-06-29T15:09:14Z</time><course>93</course><type>1</type></trkpt>
      <trkpt lat="41.81182" lon="-4.1527834"><ele>2605</ele><speed>70</speed><time>2016-06-29T15:09:16Z</time><course>96</course><type>1</type></trkpt>
      <trkpt lat="41.8117966" lon="-4.15256"><ele>2604</ele><speed>70</speed><time>2016-06-29T15:09:17Z</time><course>99</course><type>1</type></trkpt>
      <trkpt lat="41.8117666" lon="-4.1523467"><ele>2604</ele><speed>63</speed><time>2016-06-29T15:09:18Z</time><course>102</course><type>1</type></trkpt>
      <trkpt lat="41.8117133" lon="-4.1519567"><ele>2604</ele><speed>57</speed><time>2016-06-29T15:09:20Z</time><course>97</course><type>1</type></trkpt>
      <trkpt lat="41.8116816" lon="-4.1515684"><ele>2604</ele><speed>63</speed><time>2016-06-29T15:09:22Z</time><course>97</course><type>1</type></trkpt>
      <trkpt lat="41.8116416" lon="-4.1513717"><ele>2605</ele><speed>63</speed><time>2016-06-29T15:09:23Z</time><course>108</course><type>1</type></trkpt>
      <trkpt lat="41.8115733" lon="-4.1511784"><ele>2606</ele><speed>63</speed><time>2016-06-29T15:09:24Z</time><course>120</course><type>1</type></trkpt>
      <trkpt lat="41.8113566" lon="-4.1508434"><ele>2607</ele><speed>65</speed><time>2016-06-29T15:09:26Z</time><course>140</course><type>1</type></trkpt>
      <trkpt lat="41.8111333" lon="-4.1506484"><ele>2609</ele><speed>45</speed><time>2016-06-29T15:09:28Z</time><course>155</course><type>1</type></trkpt>
      <trkpt lat="41.8109766" lon="-4.1505617"><ele>2607</ele><speed>28</speed><time>2016-06-29T15:09:30Z</time><course>169</course><type>1</type></trkpt>
      <trkpt lat="41.81084" lon="-4.1505434"><ele>2606</ele><speed>25</speed><time>2016-06-29T15:09:32Z</time><course>184</course><type>1</type></trkpt>
      <trkpt lat="41.810755" lon="-4.150585"><ele>2605</ele><speed>33</speed><time>2016-06-29T15:09:33Z</time><course>203</course><type>1</type></trkpt>
      <trkpt lat="41.8107166" lon="-4.1506567"><ele>2603</ele><speed>10</speed><time>2016-06-29T15:09:35Z</time><course>260</course><type>1</type></trkpt>
      <trkpt lat="41.8107066" lon="-4.1507234"><ele>2600</ele><speed>6</speed><time>2016-06-29T15:09:39Z</time><course>294</course><type>1</type></trkpt>
      <trkpt lat="41.810845" lon="-4.1507267"><ele>2597</ele><speed>25</speed><time>2016-06-29T15:09:42Z</time><course>10</course><type>1</type></trkpt>
      <trkpt lat="41.8109866" lon="-4.1506167"><ele>2595</ele><speed>34</speed><time>2016-06-29T15:09:44Z</time><course>32</course><type>1</type></trkpt>
      <trkpt lat="41.8111233" lon="-4.1504984"><ele>2594</ele><speed>32</speed><time>2016-06-29T15:09:46Z</time><course>36</course><type>1</type></trkpt>
      <trkpt lat="41.8112583" lon="-4.1503684"><ele>2593</ele><speed>36</speed><time>2016-06-29T15:09:48Z</time><course>38</course><type>1</type></trkpt>
      <trkpt lat="41.8114233" lon="-4.150175"><ele>2593</ele><speed>50</speed><time>2016-06-29T15:09:50Z</time><course>45</course><type>1</type></trkpt>
      <trkpt lat="41.8115783" lon="-4.1499367"><ele>2593</ele><speed>43</speed><time>2016-06-29T15:09:52Z</time><course>52</course><type>1</type></trkpt>
      <trkpt lat="41.8116433" lon="-4.1498217"><ele>2594</ele><speed>42</speed><time>2016-06-29T15:09:53Z</time><course>53</course><type>1</type></trkpt>
      <trkpt lat="41.8117566" lon="-4.14959"><ele>2594</ele><speed>41</speed><time>2016-06-29T15:09:55Z</time><course>57</course><type>1</type></trkpt>
      <trkpt lat="41.8118166" lon="-4.14948"><ele>2596</ele><speed>39</speed><time>2016-06-29T15:09:56Z</time><course>53</course><type>1</type></trkpt>
      <trkpt lat="41.8119266" lon="-4.1492617"><ele>2597</ele><speed>39</speed><time>2016-06-29T15:09:58Z</time><course>57</course><type>1</type></trkpt>
      <trkpt lat="41.81198" lon="-4.1491484"><ele>2598</ele><speed>39</speed><time>2016-06-29T15:09:59Z</time><course>58</course><type>1</type></trkpt>
      <trkpt lat="41.8120866" lon="-4.1489317"><ele>2601</ele><speed>38</speed><time>2016-06-29T15:10:01Z</time><course>53</course><type>1</type></trkpt>
      <trkpt lat="41.8121933" lon="-4.1487184"><ele>2605</ele><speed>40</speed><time>2016-06-29T15:10:03Z</time><course>58</course><type>1</type></trkpt>
      <trkpt lat="41.812245" lon="-4.1486"><ele>2607</ele><speed>40</speed><time>2016-06-29T15:10:04Z</time><course>62</course><type>1</type></trkpt>
      <trkpt lat="41.81233" lon="-4.1483417"><ele>2611</ele><speed>42</speed><time>2016-06-29T15:10:06Z</time><course>65</course><type>1</type></trkpt>
      <trkpt lat="41.8124066" lon="-4.1480634"><ele>2614</ele><speed>47</speed><time>2016-06-29T15:10:08Z</time><course>72</course><type>1</type></trkpt>
      <trkpt lat="41.8124633" lon="-4.1477317"><ele>2616</ele><speed>56</speed><time>2016-06-29T15:10:10Z</time><course>80</course><type>1</type></trkpt>
      <trkpt lat="41.8124766" lon="-4.1475467"><ele>2618</ele><speed>54</speed><time>2016-06-29T15:10:11Z</time><course>87</course><type>1</type></trkpt>
      <trkpt lat="41.812465" lon="-4.1471684"><ele>2621</ele><speed>59</speed><time>2016-06-29T15:10:13Z</time><course>97</course><type>1</type></trkpt>
      <trkpt lat="41.8124116" lon="-4.1467784"><ele>2623</ele><speed>60</speed><time>2016-06-29T15:10:15Z</time><course>103</course><type>1</type></trkpt>
      <trkpt lat="41.8122799" lon="-4.1464384"><ele>2624</ele><speed>59</speed><time>2016-06-29T15:10:17Z</time><course>122</course><type>1</type></trkpt>
      <trkpt lat="41.8120716" lon="-4.1461417"><ele>2624</ele><speed>58</speed><time>2016-06-29T15:10:19Z</time><course>135</course><type>1</type></trkpt>
      <trkpt lat="41.81195" lon="-4.1460084"><ele>2624</ele><speed>58</speed><time>2016-06-29T15:10:20Z</time><course>141</course><type>1</type></trkpt>
      <trkpt lat="41.8117366" lon="-4.1458234"><ele>2624</ele><speed>50</speed><time>2016-06-29T15:10:22Z</time><course>154</course><type>1</type></trkpt>
      <trkpt lat="41.8115016" lon="-4.1456917"><ele>2625</ele><speed>52</speed><time>2016-06-29T15:10:24Z</time><course>161</course><type>1</type></trkpt>
      <trkpt lat="41.8112733" lon="-4.1456317"><ele>2627</ele><speed>36</speed><time>2016-06-29T15:10:26Z</time><course>182</course><type>1</type></trkpt>
      <trkpt lat="41.811195" lon="-4.1456384"><ele>2626</ele><speed>27</speed><time>2016-06-29T15:10:27Z</time><course>197</course><type>1</type></trkpt>
      <trkpt lat="41.8111083" lon="-4.1457017"><ele>2624</ele><speed>14</speed><time>2016-06-29T15:10:29Z</time><course>245</course><type>1</type></trkpt>
      <trkpt lat="41.8111066" lon="-4.1457667"><ele>2625</ele><speed>7</speed><time>2016-06-29T15:10:31Z</time><course>310</course><type>1</type></trkpt>
      <trkpt lat="41.8111816" lon="-4.1458117"><ele>2625</ele><speed>13</speed><time>2016-06-29T15:10:34Z</time><course>347</course><type>1</type></trkpt>
      <trkpt lat="41.811275" lon="-4.14577"><ele>2628</ele><speed>19</speed><time>2016-06-29T15:10:37Z</time><course>44</course><type>1</type></trkpt>
      <trkpt lat="41.8113683" lon="-4.14568"><ele>2630</ele><speed>26</speed><time>2016-06-29T15:10:39Z</time><course>30</course><type>1</type></trkpt>
      <trkpt lat="41.8114233" lon="-4.1456417"><ele>2631</ele><speed>26</speed><time>2016-06-29T15:10:40Z</time><course>27</course><type>1</type></trkpt>
      <trkpt lat="41.8114783" lon="-4.1455984"><ele>2633</ele><speed>28</speed><time>2016-06-29T15:10:41Z</time><course>35</course><type>1</type></trkpt>
      <trkpt lat="41.8115883" lon="-4.14547"><ele>2635</ele><speed>32</speed><time>2016-06-29T15:10:43Z</time><course>43</course><type>1</type></trkpt>
      <trkpt lat="41.8117133" lon="-4.14532"><ele>2637</ele><speed>36</speed><time>2016-06-29T15:10:45Z</time><course>43</course><type>1</type></trkpt>
      <trkpt lat="41.811845" lon="-4.1451417"><ele>2640</ele><speed>41</speed><time>2016-06-29T15:10:47Z</time><course>49</course><type>1</type></trkpt>
      <trkpt lat="41.8119649" lon="-4.14491"><ele>2642</ele><speed>45</speed><time>2016-06-29T15:10:49Z</time><course>59</course><type>1</type></trkpt>
      <trkpt lat="41.8120833" lon="-4.1446467"><ele>2643</ele><speed>47</speed><time>2016-06-29T15:10:51Z</time><course>58</course><type>1</type></trkpt>
      <trkpt lat="41.8122183" lon="-4.144375"><ele>2645</ele><speed>53</speed><time>2016-06-29T15:10:53Z</time><course>56</course><type>1</type></trkpt>
      <trkpt lat="41.812345" lon="-4.1440534"><ele>2646</ele><speed>55</speed><time>2016-06-29T15:10:55Z</time><course>69</course><type>1</type></trkpt>
      <trkpt lat="41.8124133" lon="-4.1436784"><ele>2648</ele><speed>59</speed><time>2016-06-29T15:10:57Z</time><course>78</course><type>1</type></trkpt>
      <trkpt lat="41.8124783" lon="-4.1432967"><ele>2647</ele><speed>58</speed><time>2016-06-29T15:10:59Z</time><course>74</course><type>1</type></trkpt>
      <trkpt lat="41.8125083" lon="-4.1431084"><ele>2648</ele><speed>58</speed><time>2016-06-29T15:11:00Z</time><course>79</course><type>1</type></trkpt>
      <trkpt lat="41.8125233" lon="-4.1429134"><ele>2648</ele><speed>58</speed><time>2016-06-29T15:11:01Z</time><course>88</course><type>1</type></trkpt>
      <trkpt lat="41.8125183" lon="-4.1425084"><ele>2649</ele><speed>61</speed><time>2016-06-29T15:11:03Z</time><course>92</course><type>1</type></trkpt>
      <trkpt lat="41.8124433" lon="-4.142095"><ele>2649</ele><speed>63</speed><time>2016-06-29T15:11:05Z</time><course>108</course><type>1</type></trkpt>
      <trkpt lat="41.81232" lon="-4.1417117"><ele>2647</ele><speed>60</speed><time>2016-06-29T15:11:07Z</time><course>117</course><type>1</type></trkpt>
      <trkpt lat="41.8121566" lon="-4.1413584"><ele>2643</ele><speed>62</speed><time>2016-06-29T15:11:09Z</time><course>123</course><type>1</type></trkpt>
      <trkpt lat="41.81197" lon="-4.1410117"><ele>2640</ele><speed>63</speed><time>2016-06-29T15:11:11Z</time><course>125</course><type>1</type></trkpt>
      <trkpt lat="41.8118833" lon="-4.1408617"><ele>2639</ele><speed>54</speed><time>2016-06-29T15:11:12Z</time><course>127</course><type>1</type></trkpt>
      <trkpt lat="41.81171" lon="-4.14059"><ele>2638</ele><speed>50</speed><time>2016-06-29T15:11:14Z</time><course>132</course><type>1</type></trkpt>
      <trkpt lat="41.81162" lon="-4.1404617"><ele>2637</ele><speed>55</speed><time>2016-06-29T15:11:15Z</time><course>131</course><type>1</type></trkpt>
      <trkpt lat="41.8113966" lon="-4.1401717"><ele>2636</ele><speed>63</speed><time>2016-06-29T15:11:17Z</time><course>135</course><type>1</type></trkpt>
      <trkpt lat="41.81127" lon="-4.1400267"><ele>2636</ele><speed>63</speed><time>2016-06-29T15:11:18Z</time><course>138</course><type>1</type></trkpt>
      <trkpt lat="41.8110316" lon="-4.1397517"><ele>2635</ele><speed>62</speed><time>2016-06-29T15:11:20Z</time><course>138</course><type>1</type></trkpt>
      <trkpt lat="41.8108" lon="-4.13947"><ele>2635</ele><speed>61</speed><time>2016-06-29T15:11:22Z</time><course>137</course><type>1</type></trkpt>
      <trkpt lat="41.8106916" lon="-4.1393367"><ele>2635</ele><speed>60</speed><time>2016-06-29T15:11:23Z</time><course>138</course><type>1</type></trkpt>
      <trkpt lat="41.8105716" lon="-4.1392067"><ele>2634</ele><speed>56</speed><time>2016-06-29T15:11:24Z</time><course>139</course><type>1</type></trkpt>
      <trkpt lat="41.8103416" lon="-4.1389667"><ele>2633</ele><speed>57</speed><time>2016-06-29T15:11:26Z</time><course>143</course><type>1</type></trkpt>
      <trkpt lat="41.8100933" lon="-4.1387284"><ele>2632</ele><speed>60</speed><time>2016-06-29T15:11:28Z</time><course>144</course><type>1</type></trkpt>
      <trkpt lat="41.8098366" lon="-4.1385384"><ele>2633</ele><speed>55</speed><time>2016-06-29T15:11:30Z</time><course>152</course><type>1</type></trkpt>
      <trkpt lat="41.80972" lon="-4.1384567"><ele>2633</ele><speed>53</speed><time>2016-06-29T15:11:31Z</time><course>153</course><type>1</type></trkpt>
      <trkpt lat="41.8096066" lon="-4.138375"><ele>2633</ele><speed>54</speed><time>2016-06-29T15:11:32Z</time><course>150</course><type>1</type></trkpt>
      <trkpt lat="41.8094866" lon="-4.1382767"><ele>2633</ele><speed>57</speed><time>2016-06-29T15:11:33Z</time><course>147</course><type>1</type></trkpt>
      <trkpt lat="41.809235" lon="-4.1380767"><ele>2634</ele><speed>56</speed><time>2016-06-29T15:11:35Z</time><course>149</course><type>1</type></trkpt>
      <trkpt lat="41.8090183" lon="-4.1379234"><ele>2636</ele><speed>52</speed><time>2016-06-29T15:11:37Z</time><course>159</course><type>1</type></trkpt>
      <trkpt lat="41.8087799" lon="-4.137825"><ele>2636</ele><speed>50</speed><time>2016-06-29T15:11:39Z</time><course>164</course><type>1</type></trkpt>
      <trkpt lat="41.808535" lon="-4.13775"><ele>2635</ele><speed>46</speed><time>2016-06-29T15:11:41Z</time><course>173</course><type>1</type></trkpt>
      <trkpt lat="41.8084299" lon="-4.1377434"><ele>2634</ele><speed>40</speed><time>2016-06-29T15:11:42Z</time><course>181</course><type>1</type></trkpt>
      <trkpt lat="41.8083283" lon="-4.1377517"><ele>2633</ele><speed>39</speed><time>2016-06-29T15:11:43Z</time><course>186</course><type>1</type></trkpt>
      <trkpt lat="41.8082333" lon="-4.1377684"><ele>2632</ele><speed>37</speed><time>2016-06-29T15:11:44Z</time><course>190</course><type>1</type></trkpt>
      <trkpt lat="41.8081333" lon="-4.1377767"><ele>2630</ele><speed>38</speed><time>2016-06-29T15:11:45Z</time><course>183</course><type>1</type></trkpt>
      <trkpt lat="41.8079266" lon="-4.137775"><ele>2627</ele><speed>37</speed><time>2016-06-29T15:11:47Z</time><course>182</course><type>1</type></trkpt>
      <trkpt lat="41.8078166" lon="-4.137825"><ele>2623</ele><speed>17</speed><time>2016-06-29T15:11:49Z</time><course>215</course><type>1</type></trkpt>
      <trkpt lat="41.807775" lon="-4.1379184"><ele>2618</ele><speed>12</speed><time>2016-06-29T15:11:52Z</time><course>238</course><type>1</type></trkpt>
      <trkpt lat="41.80773" lon="-4.1379851"><ele>2616</ele><speed>13</speed><time>2016-06-29T15:11:54Z</time><course>222</course><type>1</type></trkpt>
      <trkpt lat="41.8077099" lon="-4.1380267"><ele>2614</ele><speed>6</speed><time>2016-06-29T15:11:56Z</time><course>258</course><type>1</type></trkpt>
      <trkpt lat="41.80774" lon="-4.1380717"><ele>2612</ele><speed>10</speed><time>2016-06-29T15:11:58Z</time><course>313</course><type>1</type></trkpt>
      <trkpt lat="41.807775" lon="-4.1380984"><ele>2611</ele><speed>5</speed><time>2016-06-29T15:12:00Z</time><course>349</course><type>1</type></trkpt>
      <trkpt lat="41.8078633" lon="-4.1380667"><ele>2609</ele><speed>14</speed><time>2016-06-29T15:12:03Z</time><course>8</course><type>1</type></trkpt>
      <trkpt lat="41.8079933" lon="-4.1380434"><ele>2607</ele><speed>17</speed><time>2016-06-29T15:12:06Z</time><course>3</course><type>1</type></trkpt>
      <trkpt lat="41.8080333" lon="-4.138035"><ele>2607</ele><speed>15</speed><time>2016-06-29T15:12:07Z</time><course>14</course><type>1</type></trkpt>
      <trkpt lat="41.8081116" lon="-4.1380034"><ele>2606</ele><speed>17</speed><time>2016-06-29T15:12:09Z</time><course>26</course><type>1</type></trkpt>
      <trkpt lat="41.808155" lon="-4.1379784"><ele>2606</ele><speed>19</speed><time>2016-06-29T15:12:10Z</time><course>25</course><type>1</type></trkpt>
      <trkpt lat="41.8082049" lon="-4.13795"><ele>2606</ele><speed>21</speed><time>2016-06-29T15:12:11Z</time><course>21</course><type>1</type></trkpt>
      <trkpt lat="41.8082949" lon="-4.1379134"><ele>2606</ele><speed>17</speed><time>2016-06-29T15:12:13Z</time><course>18</course><type>1</type></trkpt>
      <trkpt lat="41.8083616" lon="-4.1378501"><ele>2607</ele><speed>17</speed><time>2016-06-29T15:12:15Z</time><course>52</course><type>1</type></trkpt>
      <trkpt lat="41.8084283" lon="-4.1377601"><ele>2606</ele><speed>19</speed><time>2016-06-29T15:12:17Z</time><course>47</course><type>1</type></trkpt>
      <trkpt lat="41.8085333" lon="-4.1377151"><ele>2606</ele><speed>20</speed><time>2016-06-29T15:12:19Z</time><course>13</course><type>1</type></trkpt>
      <trkpt lat="41.8086633" lon="-4.1377151"><ele>2605</ele><speed>25</speed><time>2016-06-29T15:12:21Z</time><course>359</course><type>1</type></trkpt>
      <trkpt lat="41.808725" lon="-4.137705"><ele>2605</ele><speed>24</speed><time>2016-06-29T15:12:22Z</time><course>9</course><type>1</type></trkpt>
      <trkpt lat="41.8087833" lon="-4.1376784"><ele>2606</ele><speed>24</speed><time>2016-06-29T15:12:23Z</time><course>19</course><type>1</type></trkpt>
      <trkpt lat="41.8089" lon="-4.1376134"><ele>2606</ele><speed>25</speed><time>2016-06-29T15:12:25Z</time><course>29</course><type>1</type></trkpt>
      <trkpt lat="41.809045" lon="-4.1375317"><ele>2605</ele><speed>31</speed><time>2016-06-29T15:12:27Z</time><course>22</course><type>1</type></trkpt>
      <trkpt lat="41.8091849" lon="-4.1374451"><ele>2605</ele><speed>30</speed><time>2016-06-29T15:12:29Z</time><course>29</course><type>1</type></trkpt>
      <trkpt lat="41.80933" lon="-4.1373467"><ele>2605</ele><speed>33</speed><time>2016-06-29T15:12:31Z</time><course>26</course><type>1</type></trkpt>
      <trkpt lat="41.8094083" lon="-4.1373034"><ele>2606</ele><speed>33</speed><time>2016-06-29T15:12:32Z</time><course>25</course><type>1</type></trkpt>
      <trkpt lat="41.8095616" lon="-4.1372034"><ele>2607</ele><speed>35</speed><time>2016-06-29T15:12:34Z</time><course>30</course><type>1</type></trkpt>
      <trkpt lat="41.8097183" lon="-4.1370867"><ele>2609</ele><speed>37</speed><time>2016-06-29T15:12:36Z</time><course>30</course><type>1</type></trkpt>
      <trkpt lat="41.8098716" lon="-4.1369484"><ele>2611</ele><speed>40</speed><time>2016-06-29T15:12:38Z</time><course>37</course><type>1</type></trkpt>
      <trkpt lat="41.8100283" lon="-4.1367717"><ele>2613</ele><speed>42</speed><time>2016-06-29T15:12:40Z</time><course>39</course><type>1</type></trkpt>
      <trkpt lat="41.8101866" lon="-4.13662"><ele>2614</ele><speed>37</speed><time>2016-06-29T15:12:42Z</time><course>31</course><type>1</type></trkpt>
      <trkpt lat="41.8102649" lon="-4.1365567"><ele>2615</ele><speed>38</speed><time>2016-06-29T15:12:43Z</time><course>30</course><type>1</type></trkpt>
      <trkpt lat="41.81034" lon="-4.1364784"><ele>2616</ele><speed>39</speed><time>2016-06-29T15:12:44Z</time><course>42</course><type>1</type></trkpt>
      <trkpt lat="41.8104899" lon="-4.1362684"><ele>2617</ele><speed>46</speed><time>2016-06-29T15:12:46Z</time><course>48</course><type>1</type></trkpt>
      <trkpt lat="41.810655" lon="-4.1360417"><ele>2618</ele><speed>47</speed><time>2016-06-29T15:12:48Z</time><course>46</course><type>1</type></trkpt>
      <trkpt lat="41.8107366" lon="-4.1359284"><ele>2618</ele><speed>46</speed><time>2016-06-29T15:12:49Z</time><course>48</course><type>1</type></trkpt>
      <trkpt lat="41.8108866" lon="-4.1356767"><ele>2619</ele><speed>51</speed><time>2016-06-29T15:12:51Z</time><course>52</course><type>1</type></trkpt>
      <trkpt lat="41.810965" lon="-4.1355334"><ele>2617</ele><speed>53</speed><time>2016-06-29T15:12:52Z</time><course>53</course><type>1</type></trkpt>
      <trkpt lat="41.8111266" lon="-4.135245"><ele>2616</ele><speed>51</speed><time>2016-06-29T15:12:54Z</time><course>53</course><type>1</type></trkpt>
      <trkpt lat="41.811205" lon="-4.135105"><ele>2615</ele><speed>54</speed><time>2016-06-29T15:12:55Z</time><course>52</course><type>1</type></trkpt>
      <trkpt lat="41.811285" lon="-4.13497"><ele>2614</ele><speed>54</speed><time>2016-06-29T15:12:56Z</time><course>49</course><type>1</type></trkpt>
      <trkpt lat="41.8114616" lon="-4.134745"><ele>2611</ele><speed>45</speed><time>2016-06-29T15:12:58Z</time><course>38</course><type>1</type></trkpt>
      <trkpt lat="41.81164" lon="-4.134565"><ele>2610</ele><speed>45</speed><time>2016-06-29T15:13:00Z</time><course>37</course><type>1</type></trkpt>
      <trkpt lat="41.8118016" lon="-4.1343667"><ele>2608</ele><speed>41</speed><time>2016-06-29T15:13:02Z</time><course>45</course><type>1</type></trkpt>
      <trkpt lat="41.8118733" lon="-4.1342667"><ele>2607</ele><speed>41</speed><time>2016-06-29T15:13:03Z</time><course>46</course><type>1</type></trkpt>
      <trkpt lat="41.8120033" lon="-4.1340884"><ele>2604</ele><speed>34</speed><time>2016-06-29T15:13:05Z</time><course>42</course><type>1</type></trkpt>
      <trkpt lat="41.8121683" lon="-4.1339684"><ele>2602</ele><speed>37</speed><time>2016-06-29T15:13:07Z</time><course>24</course><type>1</type></trkpt>
      <trkpt lat="41.812245" lon="-4.1339067"><ele>2600</ele><speed>36</speed><time>2016-06-29T15:13:08Z</time><course>28</course><type>1</type></trkpt>
      <trkpt lat="41.8123216" lon="-4.1338417"><ele>2599</ele><speed>36</speed><time>2016-06-29T15:13:09Z</time><course>33</course><type>1</type></trkpt>
      <trkpt lat="41.812455" lon="-4.1337084"><ele>2596</ele><speed>31</speed><time>2016-06-29T15:13:11Z</time><course>37</course><type>1</type></trkpt>
      <trkpt lat="41.8125933" lon="-4.133585"><ele>2592</ele><speed>34</speed><time>2016-06-29T15:13:13Z</time><course>30</course><type>1</type></trkpt>
      <trkpt lat="41.812745" lon="-4.1334717"><ele>2589</ele><speed>33</speed><time>2016-06-29T15:13:15Z</time><course>28</course><type>1</type></trkpt>
      <trkpt lat="41.8128566" lon="-4.133445"><ele>2583</ele><speed>18</speed><time>2016-06-29T15:13:17Z</time><course>358</course><type>1</type></trkpt>
      <trkpt lat="41.812905" lon="-4.1334767"><ele>2578</ele><speed>13</speed><time>2016-06-29T15:13:19Z</time><course>332</course><type>1</type></trkpt>
      <trkpt lat="41.81293" lon="-4.1335134"><ele>2573</ele><speed>7</speed><time>2016-06-29T15:13:21Z</time><course>320</course><type>1</type></trkpt>
      <trkpt lat="41.8129666" lon="-4.1335567"><ele>2569</ele><speed>0</speed><time>2016-06-29T15:13:25Z</time><course>305</course><type>1</type></trkpt>
      <trkpt lat="41.8130083" lon="-4.13357"><ele>2566</ele><speed>13</speed><time>2016-06-29T15:13:27Z</time><course>337</course><type>1</type></trkpt>
      <trkpt lat="41.8130633" lon="-4.1336234"><ele>2563</ele><speed>13</speed><time>2016-06-29T15:13:29Z</time><course>317</course><type>1</type></trkpt>
      <trkpt lat="41.8130816" lon="-4.1336734"><ele>2560</ele><speed>6</speed><time>2016-06-29T15:13:31Z</time><course>278</course><type>1</type></trkpt>
      <trkpt lat="41.81307" lon="-4.13376"><ele>2552</ele><speed>9</speed><time>2016-06-29T15:13:35Z</time><course>232</course><type>1</type></trkpt>
      <trkpt lat="41.8130366" lon="-4.1337784"><ele>2551</ele><speed>14</speed><time>2016-06-29T15:13:36Z</time><course>206</course><type>1</type></trkpt>
      <trkpt lat="41.812955" lon="-4.1338"><ele>2547</ele><speed>17</speed><time>2016-06-29T15:13:38Z</time><course>185</course><type>1</type></trkpt>
      <trkpt lat="41.81287" lon="-4.133825"><ele>2544</ele><speed>20</speed><time>2016-06-29T15:13:40Z</time><course>192</course><type>1</type></trkpt>
      <trkpt lat="41.812755" lon="-4.13388"><ele>2540</ele><speed>27</speed><time>2016-06-29T15:13:42Z</time><course>203</course><type>1</type></trkpt>
      <trkpt lat="41.8126416" lon="-4.133935"><ele>2537</ele><speed>23</speed><time>2016-06-29T15:13:44Z</time><course>199</course><type>1</type></trkpt>
      <trkpt lat="41.812545" lon="-4.1339534"><ele>2533</ele><speed>18</speed><time>2016-06-29T15:13:46Z</time><course>187</course><type>1</type></trkpt>
      <trkpt lat="41.812455" lon="-4.1339884"><ele>2530</ele><speed>17</speed><time>2016-06-29T15:13:48Z</time><course>201</course><type>1</type></trkpt>
      <trkpt lat="41.8123966" lon="-4.1340467"><ele>2526</ele><speed>13</speed><time>2016-06-29T15:13:50Z</time><course>222</course><type>1</type></trkpt>
      <trkpt lat="41.8122983" lon="-4.13407"><ele>2522</ele><speed>24</speed><time>2016-06-29T15:13:53Z</time><course>165</course><type>1</type></trkpt>
      <trkpt lat="41.8121483" lon="-4.134005"><ele>2519</ele><speed>35</speed><time>2016-06-29T15:13:55Z</time><course>159</course><type>1</type></trkpt>
      <trkpt lat="41.8120516" lon="-4.1339517"><ele>2517</ele><speed>42</speed><time>2016-06-29T15:13:56Z</time><course>156</course><type>1</type></trkpt>
      <trkpt lat="41.8118316" lon="-4.13379"><ele>2514</ele><speed>52</speed><time>2016-06-29T15:13:58Z</time><course>150</course><type>1</type></trkpt>
      <trkpt lat="41.81161" lon="-4.1335734"><ele>2510</ele><speed>54</speed><time>2016-06-29T15:14:00Z</time><course>146</course><type>1</type></trkpt>
      <trkpt lat="41.8114066" lon="-4.1333434"><ele>2506</ele><speed>52</speed><time>2016-06-29T15:14:02Z</time><course>139</course><type>1</type></trkpt>
      <trkpt lat="41.8112116" lon="-4.1330967"><ele>2502</ele><speed>52</speed><time>2016-06-29T15:14:04Z</time><course>137</course><type>1</type></trkpt>
      <trkpt lat="41.8109916" lon="-4.13282"><ele>2498</ele><speed>61</speed><time>2016-06-29T15:14:06Z</time><course>135</course><type>1</type></trkpt>
      <trkpt lat="41.81078" lon="-4.1325267"><ele>2498</ele><speed>63</speed><time>2016-06-29T15:14:08Z</time><course>133</course><type>1</type></trkpt>
      <trkpt lat="41.8105716" lon="-4.1321817"><ele>2495</ele><speed>66</speed><time>2016-06-29T15:14:10Z</time><course>129</course><type>1</type></trkpt>
      <trkpt lat="41.8103583" lon="-4.1318334"><ele>2492</ele><speed>71</speed><time>2016-06-29T15:14:12Z</time><course>133</course><type>1</type></trkpt>
      <trkpt lat="41.81014" lon="-4.1314667"><ele>2489</ele><speed>66</speed><time>2016-06-29T15:14:14Z</time><course>127</course><type>1</type></trkpt>
      <trkpt lat="41.80997" lon="-4.1310984"><ele>2486</ele><speed>64</speed><time>2016-06-29T15:14:16Z</time><course>122</course><type>1</type></trkpt>
      <trkpt lat="41.8097966" lon="-4.1307117"><ele>2482</ele><speed>67</speed><time>2016-06-29T15:14:18Z</time><course>124</course><type>1</type></trkpt>
      <trkpt lat="41.8096" lon="-4.13033"><ele>2478</ele><speed>69</speed><time>2016-06-29T15:14:20Z</time><course>126</course><type>1</type></trkpt>
      <trkpt lat="41.809415" lon="-4.129965"><ele>2475</ele><speed>64</speed><time>2016-06-29T15:14:22Z</time><course>124</course><type>1</type></trkpt>
      <trkpt lat="41.8092216" lon="-4.1295917"><ele>2472</ele><speed>67</speed><time>2016-06-29T15:14:24Z</time><course>125</course><type>1</type></trkpt>
      <trkpt lat="41.8090216" lon="-4.1292167"><ele>2469</ele><speed>68</speed><time>2016-06-29T15:14:26Z</time><course>126</course><type>1</type></trkpt>
      <trkpt lat="41.80884" lon="-4.128855"><ele>2465</ele><speed>59</speed><time>2016-06-29T15:14:28Z</time><course>124</course><type>1</type></trkpt>
      <trkpt lat="41.8087566" lon="-4.128695"><ele>2464</ele><speed>56</speed><time>2016-06-29T15:14:29Z</time><course>124</course><type>1</type></trkpt>
      <trkpt lat="41.8085883" lon="-4.1283817"><ele>2461</ele><speed>57</speed><time>2016-06-29T15:14:31Z</time><course>125</course><type>1</type></trkpt>
      <trkpt lat="41.8084216" lon="-4.1280584"><ele>2458</ele><speed>59</speed><time>2016-06-29T15:14:33Z</time><course>127</course><type>1</type></trkpt>
      <trkpt lat="41.8083399" lon="-4.1279017"><ele>2457</ele><speed>54</speed><time>2016-06-29T15:14:34Z</time><course>126</course><type>1</type></trkpt>
      <trkpt lat="41.80826" lon="-4.1277517"><ele>2456</ele><speed>54</speed><time>2016-06-29T15:14:35Z</time><course>126</course><type>1</type></trkpt>
      <trkpt lat="41.8081783" lon="-4.1276067"><ele>2454</ele><speed>53</speed><time>2016-06-29T15:14:36Z</time><course>128</course><type>1</type></trkpt>
      <trkpt lat="41.8080149" lon="-4.1273117"><ele>2451</ele><speed>55</speed><time>2016-06-29T15:14:38Z</time><course>128</course><type>1</type></trkpt>
      <trkpt lat="41.8078483" lon="-4.1269967"><ele>2447</ele><speed>56</speed><time>2016-06-29T15:14:40Z</time><course>125</course><type>1</type></trkpt>
      <trkpt lat="41.8076916" lon="-4.12668"><ele>2443</ele><speed>55</speed><time>2016-06-29T15:14:42Z</time><course>119</course><type>1</type></trkpt>
      <trkpt lat="41.8075333" lon="-4.1263517"><ele>2438</ele><speed>60</speed><time>2016-06-29T15:14:44Z</time><course>126</course><type>1</type></trkpt>
      <trkpt lat="41.8074333" lon="-4.1261867"><ele>2436</ele><speed>63</speed><time>2016-06-29T15:14:45Z</time><course>129</course><type>1</type></trkpt>
      <trkpt lat="41.807235" lon="-4.1258567"><ele>2433</ele><speed>61</speed><time>2016-06-29T15:14:47Z</time><course>126</course><type>1</type></trkpt>
      <trkpt lat="41.80705" lon="-4.125515"><ele>2429</ele><speed>61</speed><time>2016-06-29T15:14:49Z</time><course>127</course><type>1</type></trkpt>
      <trkpt lat="41.8068466" lon="-4.1251917"><ele>2426</ele><speed>64</speed><time>2016-06-29T15:14:51Z</time><course>133</course><type>1</type></trkpt>
      <trkpt lat="41.80666" lon="-4.12487"><ele>2423</ele><speed>59</speed><time>2016-06-29T15:14:53Z</time><course>126</course><type>1</type></trkpt>
      <trkpt lat="41.806575" lon="-4.124715"><ele>2422</ele><speed>56</speed><time>2016-06-29T15:14:54Z</time><course>122</course><type>1</type></trkpt>
      <trkpt lat="41.8063983" lon="-4.124405"><ele>2419</ele><speed>59</speed><time>2016-06-29T15:14:56Z</time><course>130</course><type>1</type></trkpt>
      <trkpt lat="41.8061799" lon="-4.124085"><ele>2416</ele><speed>66</speed><time>2016-06-29T15:14:58Z</time><course>135</course><type>1</type></trkpt>
      <trkpt lat="41.805965" lon="-4.1237784"><ele>2414</ele><speed>61</speed><time>2016-06-29T15:15:00Z</time><course>132</course><type>1</type></trkpt>
      <trkpt lat="41.805765" lon="-4.1234684"><ele>2412</ele><speed>58</speed><time>2016-06-29T15:15:02Z</time><course>129</course><type>1</type></trkpt>
      <trkpt lat="41.80557" lon="-4.1231384"><ele>2409</ele><speed>66</speed><time>2016-06-29T15:15:04Z</time><course>129</course><type>1</type></trkpt>
      <trkpt lat="41.805465" lon="-4.122965"><ele>2408</ele><speed>69</speed><time>2016-06-29T15:15:05Z</time><course>131</course><type>1</type></trkpt>
      <trkpt lat="41.80524" lon="-4.1226084"><ele>2404</ele><speed>69</speed><time>2016-06-29T15:15:07Z</time><course>128</course><type>1</type></trkpt>
      <trkpt lat="41.805135" lon="-4.1224384"><ele>2402</ele><speed>62</speed><time>2016-06-29T15:15:08Z</time><course>126</course><type>1</type></trkpt>
      <trkpt lat="41.8049483" lon="-4.122105"><ele>2399</ele><speed>59</speed><time>2016-06-29T15:15:10Z</time><course>124</course><type>1</type></trkpt>
      <trkpt lat="41.8047383" lon="-4.1217734"><ele>2396</ele><speed>64</speed><time>2016-06-29T15:15:12Z</time><course>128</course><type>1</type></trkpt>
      <trkpt lat="41.8045266" lon="-4.1214467"><ele>2392</ele><speed>62</speed><time>2016-06-29T15:15:14Z</time><course>130</course><type>1</type></trkpt>
      <trkpt lat="41.8043483" lon="-4.1211451"><ele>2388</ele><speed>56</speed><time>2016-06-29T15:15:16Z</time><course>127</course><type>1</type></trkpt>
      <trkpt lat="41.8041533" lon="-4.1208367"><ele>2384</ele><speed>62</speed><time>2016-06-29T15:15:18Z</time><course>130</course><type>1</type></trkpt>
      <trkpt lat="41.8040466" lon="-4.1206717"><ele>2382</ele><speed>64</speed><time>2016-06-29T15:15:19Z</time><course>129</course><type>1</type></trkpt>
      <trkpt lat="41.8038599" lon="-4.1203284"><ele>2378</ele><speed>62</speed><time>2016-06-29T15:15:21Z</time><course>123</course><type>1</type></trkpt>
      <trkpt lat="41.803675" lon="-4.11995"><ele>2372</ele><speed>69</speed><time>2016-06-29T15:15:23Z</time><course>122</course><type>1</type></trkpt>
      <trkpt lat="41.80349" lon="-4.1195384"><ele>2366</ele><speed>72</speed><time>2016-06-29T15:15:25Z</time><course>120</course><type>1</type></trkpt>
      <trkpt lat="41.803395" lon="-4.119325"><ele>2363</ele><speed>74</speed><time>2016-06-29T15:15:26Z</time><course>120</course><type>1</type></trkpt>
      <trkpt lat="41.80321" lon="-4.118915"><ele>2359</ele><speed>69</speed><time>2016-06-29T15:15:28Z</time><course>121</course><type>1</type></trkpt>
      <trkpt lat="41.80312" lon="-4.1187184"><ele>2357</ele><speed>72</speed><time>2016-06-29T15:15:29Z</time><course>121</course><type>1</type></trkpt>
      <trkpt lat="41.8030316" lon="-4.1185184"><ele>2355</ele><speed>70</speed><time>2016-06-29T15:15:30Z</time><course>120</course><type>1</type></trkpt>
      <trkpt lat="41.8028516" lon="-4.1181134"><ele>2351</ele><speed>70</speed><time>2016-06-29T15:15:32Z</time><course>123</course><type>1</type></trkpt>
      <trkpt lat="41.8026416" lon="-4.1177284"><ele>2347</ele><speed>70</speed><time>2016-06-29T15:15:34Z</time><course>128</course><type>1</type></trkpt>
      <trkpt lat="41.8024183" lon="-4.1173517"><ele>2344</ele><speed>73</speed><time>2016-06-29T15:15:36Z</time><course>125</course><type>1</type></trkpt>
      <trkpt lat="41.8022283" lon="-4.11696"><ele>2341</ele><speed>72</speed><time>2016-06-29T15:15:38Z</time><course>121</course><type>1</type></trkpt>
      <trkpt lat="41.8020416" lon="-4.1166067"><ele>2337</ele><speed>63</speed><time>2016-06-29T15:15:40Z</time><course>127</course><type>1</type></trkpt>
      <trkpt lat="41.8019433" lon="-4.1164267"><ele>2335</ele><speed>69</speed><time>2016-06-29T15:15:41Z</time><course>125</course><type>1</type></trkpt>
      <trkpt lat="41.8018383" lon="-4.1162217"><ele>2333</ele><speed>76</speed><time>2016-06-29T15:15:42Z</time><course>123</course><type>1</type></trkpt>
      <trkpt lat="41.8016416" lon="-4.1157984"><ele>2329</ele><speed>71</speed><time>2016-06-29T15:15:44Z</time><course>122</course><type>1</type></trkpt>
      <trkpt lat="41.8014416" lon="-4.1154484"><ele>2325</ele><speed>62</speed><time>2016-06-29T15:15:46Z</time><course>132</course><type>1</type></trkpt>
      <trkpt lat="41.8013316" lon="-4.1152934"><ele>2322</ele><speed>63</speed><time>2016-06-29T15:15:47Z</time><course>133</course><type>1</type></trkpt>
      <trkpt lat="41.8010916" lon="-4.1149317"><ele>2319</ele><speed>72</speed><time>2016-06-29T15:15:49Z</time><course>130</course><type>1</type></trkpt>
      <trkpt lat="41.8009833" lon="-4.1147367"><ele>2317</ele><speed>74</speed><time>2016-06-29T15:15:50Z</time><course>129</course><type>1</type></trkpt>
      <trkpt lat="41.800785" lon="-4.114365"><ele>2312</ele><speed>64</speed><time>2016-06-29T15:15:52Z</time><course>126</course><type>1</type></trkpt>
      <trkpt lat="41.8006883" lon="-4.1141934"><ele>2310</ele><speed>64</speed><time>2016-06-29T15:15:53Z</time><course>127</course><type>1</type></trkpt>
      <trkpt lat="41.8004933" lon="-4.1138367"><ele>2306</ele><speed>69</speed><time>2016-06-29T15:15:55Z</time><course>127</course><type>1</type></trkpt>
      <trkpt lat="41.8003833" lon="-4.1136484"><ele>2303</ele><speed>76</speed><time>2016-06-29T15:15:56Z</time><course>128</course><type>1</type></trkpt>
      <trkpt lat="41.8002683" lon="-4.113455"><ele>2301</ele><speed>71</speed><time>2016-06-29T15:15:57Z</time><course>129</course><type>1</type></trkpt>
      <trkpt lat="41.8000816" lon="-4.1131167"><ele>2295</ele><speed>57</speed><time>2016-06-29T15:15:59Z</time><course>125</course><type>1</type></trkpt>
      <trkpt lat="41.7999066" lon="-4.112805"><ele>2289</ele><speed>61</speed><time>2016-06-29T15:16:01Z</time><course>125</course><type>1</type></trkpt>
      <trkpt lat="41.799815" lon="-4.1126234"><ele>2287</ele><speed>70</speed><time>2016-06-29T15:16:02Z</time><course>123</course><type>1</type></trkpt>
      <trkpt lat="41.7997233" lon="-4.1124184"><ele>2285</ele><speed>72</speed><time>2016-06-29T15:16:03Z</time><course>120</course><type>1</type></trkpt>
      <trkpt lat="41.7996383" lon="-4.1121984"><ele>2282</ele><speed>73</speed><time>2016-06-29T15:16:04Z</time><course>116</course><type>1</type></trkpt>
      <trkpt lat="41.79956" lon="-4.11198"><ele>2280</ele><speed>72</speed><time>2016-06-29T15:16:05Z</time><course>115</course><type>1</type></trkpt>
      <trkpt lat="41.7994" lon="-4.1115484"><ele>2274</ele><speed>70</speed><time>2016-06-29T15:16:07Z</time><course>116</course><type>1</type></trkpt>
      <trkpt lat="41.799265" lon="-4.111125"><ele>2270</ele><speed>71</speed><time>2016-06-29T15:16:09Z</time><course>111</course><type>1</type></trkpt>
      <trkpt lat="41.7991866" lon="-4.1108867"><ele>2267</ele><speed>80</speed><time>2016-06-29T15:16:10Z</time><course>114</course><type>1</type></trkpt>
      <trkpt lat="41.7990466" lon="-4.1104334"><ele>2261</ele><speed>66</speed><time>2016-06-29T15:16:12Z</time><course>107</course><type>1</type></trkpt>
      <trkpt lat="41.7989866" lon="-4.110055"><ele>2256</ele><speed>55</speed><time>2016-06-29T15:16:14Z</time><course>100</course><type>1</type></trkpt>
      <trkpt lat="41.7989516" lon="-4.1098634"><ele>2253</ele><speed>57</speed><time>2016-06-29T15:16:15Z</time><course>101</course><type>1</type></trkpt>
      <trkpt lat="41.7988616" lon="-4.10947"><ele>2247</ele><speed>65</speed><time>2016-06-29T15:16:17Z</time><course>107</course><type>1</type></trkpt>
      <trkpt lat="41.7987516" lon="-4.1090634"><ele>2241</ele><speed>61</speed><time>2016-06-29T15:16:19Z</time><course>115</course><type>1</type></trkpt>
      <trkpt lat="41.798605" lon="-4.1087167"><ele>2236</ele><speed>58</speed><time>2016-06-29T15:16:21Z</time><course>117</course><type>1</type></trkpt>
      <trkpt lat="41.79854" lon="-4.1085284"><ele>2232</ele><speed>61</speed><time>2016-06-29T15:16:22Z</time><course>112</course><type>1</type></trkpt>
      <trkpt lat="41.7984449" lon="-4.108085"><ele>2226</ele><speed>69</speed><time>2016-06-29T15:16:24Z</time><course>104</course><type>1</type></trkpt>
      <trkpt lat="41.7983983" lon="-4.1078617"><ele>2223</ele><speed>65</speed><time>2016-06-29T15:16:25Z</time><course>105</course><type>1</type></trkpt>
      <trkpt lat="41.798285" lon="-4.1074484"><ele>2218</ele><speed>63</speed><time>2016-06-29T15:16:27Z</time><course>111</course><type>1</type></trkpt>
      <trkpt lat="41.79823" lon="-4.1072617"><ele>2215</ele><speed>64</speed><time>2016-06-29T15:16:28Z</time><course>109</course><type>1</type></trkpt>
      <trkpt lat="41.7981233" lon="-4.10684"><ele>2209</ele><speed>66</speed><time>2016-06-29T15:16:30Z</time><course>108</course><type>1</type></trkpt>
      <trkpt lat="41.7980683" lon="-4.1066284"><ele>2206</ele><speed>68</speed><time>2016-06-29T15:16:31Z</time><course>109</course><type>1</type></trkpt>
      <trkpt lat="41.7980083" lon="-4.1064184"><ele>2204</ele><speed>66</speed><time>2016-06-29T15:16:32Z</time><course>113</course><type>1</type></trkpt>
      <trkpt lat="41.7978833" lon="-4.1060167"><ele>2199</ele><speed>63</speed><time>2016-06-29T15:16:34Z</time><course>111</course><type>1</type></trkpt>
      <trkpt lat="41.7977766" lon="-4.1056101"><ele>2193</ele><speed>66</speed><time>2016-06-29T15:16:36Z</time><course>110</course><type>1</type></trkpt>
      <trkpt lat="41.79772" lon="-4.1054017"><ele>2191</ele><speed>65</speed><time>2016-06-29T15:16:37Z</time><course>110</course><type>1</type></trkpt>
      <trkpt lat="41.7976166" lon="-4.105"><ele>2186</ele><speed>63</speed><time>2016-06-29T15:16:39Z</time><course>107</course><type>1</type></trkpt>
      <trkpt lat="41.79757" lon="-4.1047967"><ele>2183</ele><speed>65</speed><time>2016-06-29T15:16:40Z</time><course>107</course><type>1</type></trkpt>
      <trkpt lat="41.7975166" lon="-4.1045767"><ele>2181</ele><speed>69</speed><time>2016-06-29T15:16:41Z</time><course>107</course><type>1</type></trkpt>
      <trkpt lat="41.7974083" lon="-4.1041384"><ele>2175</ele><speed>71</speed><time>2016-06-29T15:16:43Z</time><course>109</course><type>1</type></trkpt>
      <trkpt lat="41.7973533" lon="-4.1039217"><ele>2173</ele><speed>71</speed><time>2016-06-29T15:16:44Z</time><course>107</course><type>1</type></trkpt>
      <trkpt lat="41.7972633" lon="-4.1035084"><ele>2168</ele><speed>63</speed><time>2016-06-29T15:16:46Z</time><course>103</course><type>1</type></trkpt>
      <trkpt lat="41.7971766" lon="-4.1031034"><ele>2162</ele><speed>62</speed><time>2016-06-29T15:16:48Z</time><course>107</course><type>1</type></trkpt>
      <trkpt lat="41.797075" lon="-4.1027067"><ele>2157</ele><speed>63</speed><time>2016-06-29T15:16:50Z</time><course>109</course><type>1</type></trkpt>
      <trkpt lat="41.7970216" lon="-4.102505"><ele>2155</ele><speed>63</speed><time>2016-06-29T15:16:51Z</time><course>110</course><type>1</type></trkpt>
      <trkpt lat="41.7969249" lon="-4.1021134"><ele>2150</ele><speed>63</speed><time>2016-06-29T15:16:53Z</time><course>107</course><type>1</type></trkpt>
      <trkpt lat="41.7968783" lon="-4.1019067"><ele>2147</ele><speed>63</speed><time>2016-06-29T15:16:54Z</time><course>105</course><type>1</type></trkpt>
      <trkpt lat="41.7968016" lon="-4.10148"><ele>2144</ele><speed>69</speed><time>2016-06-29T15:16:56Z</time><course>107</course><type>1</type></trkpt>
      <trkpt lat="41.7966983" lon="-4.101045"><ele>2140</ele><speed>65</speed><time>2016-06-29T15:16:58Z</time><course>107</course><type>1</type></trkpt>
      <trkpt lat="41.796585" lon="-4.10065"><ele>2135</ele><speed>61</speed><time>2016-06-29T15:17:00Z</time><course>115</course><type>1</type></trkpt>
      <trkpt lat="41.7965183" lon="-4.1004617"><ele>2133</ele><speed>63</speed><time>2016-06-29T15:17:01Z</time><course>115</course><type>1</type></trkpt>
      <trkpt lat="41.79638" lon="-4.1000434"><ele>2128</ele><speed>71</speed><time>2016-06-29T15:17:03Z</time><course>113</course><type>1</type></trkpt>
      <trkpt lat="41.7963066" lon="-4.0998267"><ele>2127</ele><speed>69</speed><time>2016-06-29T15:17:04Z</time><course>112</course><type>1</type></trkpt>
      <trkpt lat="41.7961666" lon="-4.0994301"><ele>2122</ele><speed>63</speed><time>2016-06-29T15:17:06Z</time><course>117</course><type>1</type></trkpt>
      <trkpt lat="41.7960966" lon="-4.0992467"><ele>2121</ele><speed>61</speed><time>2016-06-29T15:17:07Z</time><course>115</course><type>1</type></trkpt>
      <trkpt lat="41.7959833" lon="-4.09886"><ele>2117</ele><speed>63</speed><time>2016-06-29T15:17:09Z</time><course>108</course><type>1</type></trkpt>
      <trkpt lat="41.7959266" lon="-4.0986584"><ele>2115</ele><speed>66</speed><time>2016-06-29T15:17:10Z</time><course>111</course><type>1</type></trkpt>
      <trkpt lat="41.795785" lon="-4.0982517"><ele>2111</ele><speed>67</speed><time>2016-06-29T15:17:12Z</time><course>116</course><type>1</type></trkpt>
      <trkpt lat="41.7956416" lon="-4.0978384"><ele>2108</ele><speed>66</speed><time>2016-06-29T15:17:14Z</time><course>111</course><type>1</type></trkpt>
      <trkpt lat="41.7955216" lon="-4.0974184"><ele>2104</ele><speed>65</speed><time>2016-06-29T15:17:16Z</time><course>110</course><type>1</type></trkpt>
      <trkpt lat="41.79539" lon="-4.0970017"><ele>2100</ele><speed>70</speed><time>2016-06-29T15:17:18Z</time><course>111</course><type>1</type></trkpt>
      <trkpt lat="41.7953366" lon="-4.09679"><ele>2099</ele><speed>64</speed><time>2016-06-29T15:17:19Z</time><course>105</course><type>1</type></trkpt>
      <trkpt lat="41.7952716" lon="-4.0963884"><ele>2096</ele><speed>59</speed><time>2016-06-29T15:17:21Z</time><course>100</course><type>1</type></trkpt>
      <trkpt lat="41.7951816" lon="-4.0959767"><ele>2092</ele><speed>68</speed><time>2016-06-29T15:17:23Z</time><course>110</course><type>1</type></trkpt>
      <trkpt lat="41.7951233" lon="-4.0957634"><ele>2090</ele><speed>68</speed><time>2016-06-29T15:17:24Z</time><course>109</course><type>1</type></trkpt>
      <trkpt lat="41.7950216" lon="-4.09534"><ele>2087</ele><speed>68</speed><time>2016-06-29T15:17:26Z</time><course>106</course><type>1</type></trkpt>
      <trkpt lat="41.7949183" lon="-4.0949234"><ele>2082</ele><speed>68</speed><time>2016-06-29T15:17:28Z</time><course>109</course><type>1</type></trkpt>
      <trkpt lat="41.7948616" lon="-4.0947084"><ele>2080</ele><speed>69</speed><time>2016-06-29T15:17:29Z</time><course>108</course><type>1</type></trkpt>
      <trkpt lat="41.7947566" lon="-4.0942617"><ele>2077</ele><speed>71</speed><time>2016-06-29T15:17:31Z</time><course>106</course><type>1</type></trkpt>
      <trkpt lat="41.7947066" lon="-4.0940384"><ele>2075</ele><speed>68</speed><time>2016-06-29T15:17:32Z</time><course>106</course><type>1</type></trkpt>
      <trkpt lat="41.7946083" lon="-4.0936167"><ele>2072</ele><speed>60</speed><time>2016-06-29T15:17:34Z</time><course>107</course><type>1</type></trkpt>
      <trkpt lat="41.7945066" lon="-4.0932084"><ele>2068</ele><speed>66</speed><time>2016-06-29T15:17:36Z</time><course>109</course><type>1</type></trkpt>
      <trkpt lat="41.7943966" lon="-4.092775"><ele>2065</ele><speed>67</speed><time>2016-06-29T15:17:38Z</time><course>108</course><type>1</type></trkpt>
      <trkpt lat="41.7942933" lon="-4.092335"><ele>2061</ele><speed>68</speed><time>2016-06-29T15:17:40Z</time><course>107</course><type>1</type></trkpt>
      <trkpt lat="41.794245" lon="-4.0921134"><ele>2059</ele><speed>68</speed><time>2016-06-29T15:17:41Z</time><course>105</course><type>1</type></trkpt>
      <trkpt lat="41.7941566" lon="-4.0916784"><ele>2054</ele><speed>68</speed><time>2016-06-29T15:17:43Z</time><course>105</course><type>1</type></trkpt>
      <trkpt lat="41.7941133" lon="-4.0914467"><ele>2052</ele><speed>69</speed><time>2016-06-29T15:17:44Z</time><course>103</course><type>1</type></trkpt>
      <trkpt lat="41.7940266" lon="-4.0909884"><ele>2048</ele><speed>73</speed><time>2016-06-29T15:17:46Z</time><course>105</course><type>1</type></trkpt>
      <trkpt lat="41.7939266" lon="-4.090545"><ele>2045</ele><speed>68</speed><time>2016-06-29T15:17:48Z</time><course>108</course><type>1</type></trkpt>
      <trkpt lat="41.7938183" lon="-4.0901234"><ele>2042</ele><speed>65</speed><time>2016-06-29T15:17:50Z</time><course>109</course><type>1</type></trkpt>
      <trkpt lat="41.7937133" lon="-4.0897067"><ele>2039</ele><speed>65</speed><time>2016-06-29T15:17:52Z</time><course>107</course><type>1</type></trkpt>
      <trkpt lat="41.7935966" lon="-4.0892667"><ele>2035</ele><speed>72</speed><time>2016-06-29T15:17:54Z</time><course>110</course><type>1</type></trkpt>
      <trkpt lat="41.7935316" lon="-4.08904"><ele>2033</ele><speed>72</speed><time>2016-06-29T15:17:55Z</time><course>110</course><type>1</type></trkpt>
      <trkpt lat="41.7934683" lon="-4.088815"><ele>2030</ele><speed>68</speed><time>2016-06-29T15:17:56Z</time><course>109</course><type>1</type></trkpt>
      <trkpt lat="41.793355" lon="-4.0883967"><ele>2027</ele><speed>64</speed><time>2016-06-29T15:17:58Z</time><course>109</course><type>1</type></trkpt>
      <trkpt lat="41.79324" lon="-4.0879701"><ele>2023</ele><speed>70</speed><time>2016-06-29T15:18:00Z</time><course>109</course><type>1</type></trkpt>
      <trkpt lat="41.79319" lon="-4.08775"><ele>2021</ele><speed>71</speed><time>2016-06-29T15:18:01Z</time><course>105</course><type>1</type></trkpt>
      <trkpt lat="41.7931483" lon="-4.08753"><ele>2019</ele><speed>66</speed><time>2016-06-29T15:18:02Z</time><course>103</course><type>1</type></trkpt>
      <trkpt lat="41.79307" lon="-4.0871317"><ele>2016</ele><speed>56</speed><time>2016-06-29T15:18:04Z</time><course>105</course><type>1</type></trkpt>
      <trkpt lat="41.7929833" lon="-4.0867567"><ele>2012</ele><speed>55</speed><time>2016-06-29T15:18:06Z</time><course>109</course><type>1</type></trkpt>
      <trkpt lat="41.792935" lon="-4.0865384"><ele>2010</ele><speed>71</speed><time>2016-06-29T15:18:07Z</time><course>107</course><type>1</type></trkpt>
      <trkpt lat="41.7928266" lon="-4.086105"><ele>2007</ele><speed>67</speed><time>2016-06-29T15:18:09Z</time><course>109</course><type>1</type></trkpt>
      <trkpt lat="41.79277" lon="-4.0859034"><ele>2006</ele><speed>63</speed><time>2016-06-29T15:18:10Z</time><course>111</course><type>1</type></trkpt>
      <trkpt lat="41.7926533" lon="-4.08552"><ele>2002</ele><speed>63</speed><time>2016-06-29T15:18:12Z</time><course>111</course><type>1</type></trkpt>
      <trkpt lat="41.7925966" lon="-4.0853217"><ele>2001</ele><speed>60</speed><time>2016-06-29T15:18:13Z</time><course>110</course><type>1</type></trkpt>
      <trkpt lat="41.792495" lon="-4.0849284"><ele>1998</ele><speed>60</speed><time>2016-06-29T15:18:15Z</time><course>107</course><type>1</type></trkpt>
      <trkpt lat="41.7924449" lon="-4.0847417"><ele>1996</ele><speed>60</speed><time>2016-06-29T15:18:16Z</time><course>109</course><type>1</type></trkpt>
      <trkpt lat="41.7923333" lon="-4.0843417"><ele>1993</ele><speed>60</speed><time>2016-06-29T15:18:18Z</time><course>113</course><type>1</type></trkpt>
      <trkpt lat="41.7922066" lon="-4.0839084"><ele>1990</ele><speed>71</speed><time>2016-06-29T15:18:20Z</time><course>109</course><type>1</type></trkpt>
      <trkpt lat="41.79211" lon="-4.0834667"><ele>1987</ele><speed>64</speed><time>2016-06-29T15:18:22Z</time><course>105</course><type>1</type></trkpt>
      <trkpt lat="41.7920216" lon="-4.0830617"><ele>1985</ele><speed>59</speed><time>2016-06-29T15:18:24Z</time><course>107</course><type>1</type></trkpt>
      <trkpt lat="41.7919216" lon="-4.0826584"><ele>1981</ele><speed>65</speed><time>2016-06-29T15:18:26Z</time><course>108</course><type>1</type></trkpt>
      <trkpt lat="41.7918733" lon="-4.08244"><ele>1980</ele><speed>68</speed><time>2016-06-29T15:18:27Z</time><course>105</course><type>1</type></trkpt>
      <trkpt lat="41.7917716" lon="-4.0819984"><ele>1977</ele><speed>70</speed><time>2016-06-29T15:18:29Z</time><course>109</course><type>1</type></trkpt>
      <trkpt lat="41.79166" lon="-4.0815717"><ele>1973</ele><speed>63</speed><time>2016-06-29T15:18:31Z</time><course>108</course><type>1</type></trkpt>
      <trkpt lat="41.7916083" lon="-4.0813617"><ele>1972</ele><speed>65</speed><time>2016-06-29T15:18:32Z</time><course>106</course><type>1</type></trkpt>
      <trkpt lat="41.7915033" lon="-4.0809284"><ele>1968</ele><speed>65</speed><time>2016-06-29T15:18:34Z</time><course>109</course><type>1</type></trkpt>
      <trkpt lat="41.791445" lon="-4.0807184"><ele>1966</ele><speed>65</speed><time>2016-06-29T15:18:35Z</time><course>109</course><type>1</type></trkpt>
      <trkpt lat="41.7913433" lon="-4.0802967"><ele>1963</ele><speed>66</speed><time>2016-06-29T15:18:37Z</time><course>106</course><type>1</type></trkpt>
      <trkpt lat="41.7912933" lon="-4.0800784"><ele>1961</ele><speed>66</speed><time>2016-06-29T15:18:38Z</time><course>106</course><type>1</type></trkpt>
      <trkpt lat="41.7911916" lon="-4.0796367"><ele>1957</ele><speed>70</speed><time>2016-06-29T15:18:40Z</time><course>107</course><type>1</type></trkpt>
      <trkpt lat="41.7911399" lon="-4.0794184"><ele>1955</ele><speed>68</speed><time>2016-06-29T15:18:41Z</time><course>107</course><type>1</type></trkpt>
      <trkpt lat="41.7910483" lon="-4.0789917"><ele>1950</ele><speed>66</speed><time>2016-06-29T15:18:43Z</time><course>104</course><type>1</type></trkpt>
      <trkpt lat="41.7910049" lon="-4.0787617"><ele>1948</ele><speed>66</speed><time>2016-06-29T15:18:44Z</time><course>102</course><type>1</type></trkpt>
      <trkpt lat="41.7909716" lon="-4.078535"><ele>1946</ele><speed>69</speed><time>2016-06-29T15:18:45Z</time><course>100</course><type>1</type></trkpt>
      <trkpt lat="41.7909083" lon="-4.0780751"><ele>1942</ele><speed>71</speed><time>2016-06-29T15:18:47Z</time><course>100</course><type>1</type></trkpt>
      <trkpt lat="41.7908516" lon="-4.07763"><ele>1938</ele><speed>63</speed><time>2016-06-29T15:18:49Z</time><course>98</course><type>1</type></trkpt>
      <trkpt lat="41.7908083" lon="-4.0772117"><ele>1933</ele><speed>64</speed><time>2016-06-29T15:18:51Z</time><course>97</course><type>1</type></trkpt>
      <trkpt lat="41.7907633" lon="-4.07676"><ele>1929</ele><speed>71</speed><time>2016-06-29T15:18:53Z</time><course>97</course><type>1</type></trkpt>
      <trkpt lat="41.79074" lon="-4.07653"><ele>1926</ele><speed>68</speed><time>2016-06-29T15:18:54Z</time><course>98</course><type>1</type></trkpt>
      <trkpt lat="41.7906883" lon="-4.076095"><ele>1922</ele><speed>64</speed><time>2016-06-29T15:18:56Z</time><course>99</course><type>1</type></trkpt>
      <trkpt lat="41.79066" lon="-4.075875"><ele>1919</ele><speed>68</speed><time>2016-06-29T15:18:57Z</time><course>100</course><type>1</type></trkpt>
      <trkpt lat="41.7906016" lon="-4.075405"><ele>1915</ele><speed>72</speed><time>2016-06-29T15:18:59Z</time><course>98</course><type>1</type></trkpt>
      <trkpt lat="41.7905766" lon="-4.0751784"><ele>1914</ele><speed>68</speed><time>2016-06-29T15:19:00Z</time><course>99</course><type>1</type></trkpt>
      <trkpt lat="41.7905166" lon="-4.0747834"><ele>1911</ele><speed>58</speed><time>2016-06-29T15:19:02Z</time><course>102</course><type>1</type></trkpt>
      <trkpt lat="41.7904983" lon="-4.0745867"><ele>1909</ele><speed>61</speed><time>2016-06-29T15:19:03Z</time><course>95</course><type>1</type></trkpt>
      <trkpt lat="41.7905216" lon="-4.0741584"><ele>1906</ele><speed>66</speed><time>2016-06-29T15:19:05Z</time><course>82</course><type>1</type></trkpt>
      <trkpt lat="41.7905633" lon="-4.0737417"><ele>1903</ele><speed>64</speed><time>2016-06-29T15:19:07Z</time><course>83</course><type>1</type></trkpt>
      <trkpt lat="41.79058" lon="-4.0735384"><ele>1902</ele><speed>62</speed><time>2016-06-29T15:19:08Z</time><course>84</course><type>1</type></trkpt>
      <trkpt lat="41.7906033" lon="-4.073345"><ele>1900</ele><speed>63</speed><time>2016-06-29T15:19:09Z</time><course>80</course><type>1</type></trkpt>
      <trkpt lat="41.7906766" lon="-4.07294"><ele>1898</ele><speed>58</speed><time>2016-06-29T15:19:11Z</time><course>78</course><type>1</type></trkpt>
      <trkpt lat="41.7907683" lon="-4.0725684"><ele>1895</ele><speed>61</speed><time>2016-06-29T15:19:13Z</time><course>66</course><type>1</type></trkpt>
      <trkpt lat="41.7908283" lon="-4.07238"><ele>1893</ele><speed>60</speed><time>2016-06-29T15:19:14Z</time><course>68</course><type>1</type></trkpt>
      <trkpt lat="41.7909383" lon="-4.0719934"><ele>1891</ele><speed>63</speed><time>2016-06-29T15:19:16Z</time><course>70</course><type>1</type></trkpt>
      <trkpt lat="41.7909983" lon="-4.0717884"><ele>1890</ele><speed>63</speed><time>2016-06-29T15:19:17Z</time><course>71</course><type>1</type></trkpt>
      <trkpt lat="41.7911183" lon="-4.0714101"><ele>1889</ele><speed>59</speed><time>2016-06-29T15:19:19Z</time><course>69</course><type>1</type></trkpt>
      <trkpt lat="41.7912266" lon="-4.0710417"><ele>1888</ele><speed>59</speed><time>2016-06-29T15:19:21Z</time><course>69</course><type>1</type></trkpt>
      <trkpt lat="41.79135" lon="-4.0706901"><ele>1886</ele><speed>58</speed><time>2016-06-29T15:19:23Z</time><course>61</course><type>1</type></trkpt>
      <trkpt lat="41.7914883" lon="-4.070335"><ele>1884</ele><speed>62</speed><time>2016-06-29T15:19:25Z</time><course>64</course><type>1</type></trkpt>
      <trkpt lat="41.7915483" lon="-4.07014"><ele>1883</ele><speed>66</speed><time>2016-06-29T15:19:26Z</time><course>71</course><type>1</type></trkpt>
      <trkpt lat="41.7916" lon="-4.0699334"><ele>1882</ele><speed>66</speed><time>2016-06-29T15:19:27Z</time><course>75</course><type>1</type></trkpt>
      <trkpt lat="41.7916483" lon="-4.0697217"><ele>1881</ele><speed>65</speed><time>2016-06-29T15:19:28Z</time><course>76</course><type>1</type></trkpt>
      <trkpt lat="41.7916966" lon="-4.06951"><ele>1879</ele><speed>66</speed><time>2016-06-29T15:19:29Z</time><course>76</course><type>1</type></trkpt>
      <trkpt lat="41.791745" lon="-4.069295"><ele>1878</ele><speed>65</speed><time>2016-06-29T15:19:30Z</time><course>75</course><type>1</type></trkpt>
      <trkpt lat="41.7918316" lon="-4.068875"><ele>1874</ele><speed>63</speed><time>2016-06-29T15:19:32Z</time><course>75</course><type>1</type></trkpt>
      <trkpt lat="41.79191" lon="-4.06844"><ele>1869</ele><speed>67</speed><time>2016-06-29T15:19:34Z</time><course>77</course><type>1</type></trkpt>
      <trkpt lat="41.79198" lon="-4.068005"><ele>1865</ele><speed>64</speed><time>2016-06-29T15:19:36Z</time><course>78</course><type>1</type></trkpt>
      <trkpt lat="41.7920466" lon="-4.0675967"><ele>1859</ele><speed>59</speed><time>2016-06-29T15:19:38Z</time><course>74</course><type>1</type></trkpt>
      <trkpt lat="41.7921183" lon="-4.0671784"><ele>1854</ele><speed>66</speed><time>2016-06-29T15:19:40Z</time><course>77</course><type>1</type></trkpt>
      <trkpt lat="41.7921483" lon="-4.06696"><ele>1851</ele><speed>65</speed><time>2016-06-29T15:19:41Z</time><course>79</course><type>1</type></trkpt>
      <trkpt lat="41.7921966" lon="-4.06653"><ele>1845</ele><speed>63</speed><time>2016-06-29T15:19:43Z</time><course>81</course><type>1</type></trkpt>
      <trkpt lat="41.7922183" lon="-4.0663234"><ele>1843</ele><speed>61</speed><time>2016-06-29T15:19:44Z</time><course>81</course><type>1</type></trkpt>
      <trkpt lat="41.7922633" lon="-4.0659167"><ele>1839</ele><speed>61</speed><time>2016-06-29T15:19:46Z</time><course>80</course><type>1</type></trkpt>
      <trkpt lat="41.7922916" lon="-4.065715"><ele>1838</ele><speed>61</speed><time>2016-06-29T15:19:47Z</time><course>78</course><type>1</type></trkpt>
      <trkpt lat="41.7923416" lon="-4.0652784"><ele>1832</ele><speed>63</speed><time>2016-06-29T15:19:49Z</time><course>81</course><type>1</type></trkpt>
      <trkpt lat="41.7923683" lon="-4.0650617"><ele>1830</ele><speed>61</speed><time>2016-06-29T15:19:50Z</time><course>80</course><type>1</type></trkpt>
      <trkpt lat="41.7923899" lon="-4.0648567"><ele>1828</ele><speed>62</speed><time>2016-06-29T15:19:51Z</time><course>80</course><type>1</type></trkpt>
      <trkpt lat="41.7924083" lon="-4.06464"><ele>1824</ele><speed>66</speed><time>2016-06-29T15:19:52Z</time><course>80</course><type>1</type></trkpt>
      <trkpt lat="41.7924366" lon="-4.0644267"><ele>1821</ele><speed>68</speed><time>2016-06-29T15:19:53Z</time><course>79</course><type>1</type></trkpt>
      <trkpt lat="41.7924633" lon="-4.064205"><ele>1819</ele><speed>66</speed><time>2016-06-29T15:19:54Z</time><course>80</course><type>1</type></trkpt>
      <trkpt lat="41.7925016" lon="-4.0637367"><ele>1813</ele><speed>70</speed><time>2016-06-29T15:19:56Z</time><course>82</course><type>1</type></trkpt>
      <trkpt lat="41.7925516" lon="-4.0632601"><ele>1807</ele><speed>72</speed><time>2016-06-29T15:19:58Z</time><course>79</course><type>1</type></trkpt>
      <trkpt lat="41.79262" lon="-4.0628067"><ele>1800</ele><speed>69</speed><time>2016-06-29T15:20:00Z</time><course>75</course><type>1</type></trkpt>
      <trkpt lat="41.7926599" lon="-4.0625834"><ele>1796</ele><speed>69</speed><time>2016-06-29T15:20:01Z</time><course>74</course><type>1</type></trkpt>
      <trkpt lat="41.7927566" lon="-4.0621534"><ele>1790</ele><speed>70</speed><time>2016-06-29T15:20:03Z</time><course>71</course><type>1</type></trkpt>
      <trkpt lat="41.792815" lon="-4.06194"><ele>1788</ele><speed>66</speed><time>2016-06-29T15:20:04Z</time><course>69</course><type>1</type></trkpt>
      <trkpt lat="41.7928666" lon="-4.06173"><ele>1785</ele><speed>66</speed><time>2016-06-29T15:20:05Z</time><course>73</course><type>1</type></trkpt>
      <trkpt lat="41.792935" lon="-4.06129"><ele>1779</ele><speed>67</speed><time>2016-06-29T15:20:07Z</time><course>77</course><type>1</type></trkpt>
      <trkpt lat="41.79296" lon="-4.0610717"><ele>1777</ele><speed>71</speed><time>2016-06-29T15:20:08Z</time><course>79</course><type>1</type></trkpt>
      <trkpt lat="41.7930333" lon="-4.0606184"><ele>1772</ele><speed>69</speed><time>2016-06-29T15:20:10Z</time><course>76</course><type>1</type></trkpt>
      <trkpt lat="41.79308" lon="-4.0601184"><ele>1765</ele><speed>75</speed><time>2016-06-29T15:20:12Z</time><course>80</course><type>1</type></trkpt>
      <trkpt lat="41.79316" lon="-4.0596017"><ele>1758</ele><speed>79</speed><time>2016-06-29T15:20:14Z</time><course>75</course><type>1</type></trkpt>
      <trkpt lat="41.7932583" lon="-4.0590967"><ele>1752</ele><speed>77</speed><time>2016-06-29T15:20:16Z</time><course>74</course><type>1</type></trkpt>
      <trkpt lat="41.7933033" lon="-4.058865"><ele>1749</ele><speed>72</speed><time>2016-06-29T15:20:17Z</time><course>76</course><type>1</type></trkpt>
      <trkpt lat="41.7933416" lon="-4.0586334"><ele>1745</ele><speed>70</speed><time>2016-06-29T15:20:18Z</time><course>76</course><type>1</type></trkpt>
      <trkpt lat="41.7934216" lon="-4.058175"><ele>1740</ele><speed>68</speed><time>2016-06-29T15:20:20Z</time><course>73</course><type>1</type></trkpt>
      <trkpt lat="41.7935333" lon="-4.05775"><ele>1733</ele><speed>68</speed><time>2016-06-29T15:20:22Z</time><course>69</course><type>1</type></trkpt>
      <trkpt lat="41.7936583" lon="-4.057325"><ele>1727</ele><speed>66</speed><time>2016-06-29T15:20:24Z</time><course>66</course><type>1</type></trkpt>
      <trkpt lat="41.7937883" lon="-4.05695"><ele>1723</ele><speed>62</speed><time>2016-06-29T15:20:26Z</time><course>64</course><type>1</type></trkpt>
      <trkpt lat="41.7939316" lon="-4.0565967"><ele>1717</ele><speed>64</speed><time>2016-06-29T15:20:28Z</time><course>63</course><type>1</type></trkpt>
      <trkpt lat="41.794005" lon="-4.0564051"><ele>1715</ele><speed>68</speed><time>2016-06-29T15:20:29Z</time><course>63</course><type>1</type></trkpt>
      <trkpt lat="41.7941583" lon="-4.0559934"><ele>1710</ele><speed>72</speed><time>2016-06-29T15:20:31Z</time><course>62</course><type>1</type></trkpt>
      <trkpt lat="41.7943133" lon="-4.0555984"><ele>1703</ele><speed>69</speed><time>2016-06-29T15:20:33Z</time><course>63</course><type>1</type></trkpt>
      <trkpt lat="41.7944516" lon="-4.0552184"><ele>1696</ele><speed>62</speed><time>2016-06-29T15:20:35Z</time><course>63</course><type>1</type></trkpt>
      <trkpt lat="41.7945966" lon="-4.0547967"><ele>1690</ele><speed>72</speed><time>2016-06-29T15:20:37Z</time><course>62</course><type>1</type></trkpt>
      <trkpt lat="41.79474" lon="-4.0543884"><ele>1684</ele><speed>71</speed><time>2016-06-29T15:20:39Z</time><course>69</course><type>1</type></trkpt>
      <trkpt lat="41.7948633" lon="-4.0540167"><ele>1680</ele><speed>55</speed><time>2016-06-29T15:20:41Z</time><course>64</course><type>1</type></trkpt>
      <trkpt lat="41.79498" lon="-4.0537017"><ele>1673</ele><speed>58</speed><time>2016-06-29T15:20:43Z</time><course>67</course><type>1</type></trkpt>
      <trkpt lat="41.795035" lon="-4.05351"><ele>1671</ele><speed>62</speed><time>2016-06-29T15:20:44Z</time><course>68</course><type>1</type></trkpt>
      <trkpt lat="41.7951416" lon="-4.0531534"><ele>1665</ele><speed>55</speed><time>2016-06-29T15:20:46Z</time><course>69</course><type>1</type></trkpt>
      <trkpt lat="41.7951933" lon="-4.0530167"><ele>1661</ele><speed>48</speed><time>2016-06-29T15:20:47Z</time><course>65</course><type>1</type></trkpt>
      <trkpt lat="41.7952816" lon="-4.0527467"><ele>1653</ele><speed>48</speed><time>2016-06-29T15:20:49Z</time><course>68</course><type>1</type></trkpt>
      <trkpt lat="41.7953983" lon="-4.0524317"><ele>1647</ele><speed>57</speed><time>2016-06-29T15:20:51Z</time><course>63</course><type>1</type></trkpt>
      <trkpt lat="41.7955233" lon="-4.0520734"><ele>1642</ele><speed>62</speed><time>2016-06-29T15:20:53Z</time><course>65</course><type>1</type></trkpt>
      <trkpt lat="41.7956116" lon="-4.0517101"><ele>1637</ele><speed>54</speed><time>2016-06-29T15:20:55Z</time><course>77</course><type>1</type></trkpt>
      <trkpt lat="41.7956433" lon="-4.0515301"><ele>1635</ele><speed>49</speed><time>2016-06-29T15:20:56Z</time><course>73</course><type>1</type></trkpt>
      <trkpt lat="41.7956766" lon="-4.0513484"><ele>1631</ele><speed>54</speed><time>2016-06-29T15:20:57Z</time><course>70</course><type>1</type></trkpt>
      <trkpt lat="41.7957816" lon="-4.0510017"><ele>1625</ele><speed>62</speed><time>2016-06-29T15:20:59Z</time><course>64</course><type>1</type></trkpt>
      <trkpt lat="41.7958383" lon="-4.0508084"><ele>1622</ele><speed>61</speed><time>2016-06-29T15:21:00Z</time><course>66</course><type>1</type></trkpt>
      <trkpt lat="41.7958983" lon="-4.0506667"><ele>1620</ele><speed>49</speed><time>2016-06-29T15:21:01Z</time><course>61</course><type>1</type></trkpt>
      <trkpt lat="41.7959466" lon="-4.0505284"><ele>1618</ele><speed>43</speed><time>2016-06-29T15:21:02Z</time><course>60</course><type>1</type></trkpt>
      <trkpt lat="41.7960316" lon="-4.05026"><ele>1613</ele><speed>42</speed><time>2016-06-29T15:21:04Z</time><course>64</course><type>1</type></trkpt>
      <trkpt lat="41.79614" lon="-4.050005"><ele>1609</ele><speed>45</speed><time>2016-06-29T15:21:06Z</time><course>56</course><type>1</type></trkpt>
      <trkpt lat="41.7962983" lon="-4.0498034"><ele>1604</ele><speed>41</speed><time>2016-06-29T15:21:08Z</time><course>38</course><type>1</type></trkpt>
      <trkpt lat="41.796375" lon="-4.04974"><ele>1602</ele><speed>38</speed><time>2016-06-29T15:21:09Z</time><course>29</course><type>1</type></trkpt>
      <trkpt lat="41.7965133" lon="-4.0496134"><ele>1598</ele><speed>32</speed><time>2016-06-29T15:21:11Z</time><course>38</course><type>1</type></trkpt>
      <trkpt lat="41.7965733" lon="-4.049555"><ele>1596</ele><speed>30</speed><time>2016-06-29T15:21:12Z</time><course>38</course><type>1</type></trkpt>
      <trkpt lat="41.796705" lon="-4.0494834"><ele>1592</ele><speed>26</speed><time>2016-06-29T15:21:14Z</time><course>18</course><type>1</type></trkpt>
      <trkpt lat="41.79683" lon="-4.0494867"><ele>1589</ele><speed>28</speed><time>2016-06-29T15:21:16Z</time><course>349</course><type>1</type></trkpt>
      <trkpt lat="41.79694" lon="-4.0495117"><ele>1586</ele><speed>21</speed><time>2016-06-29T15:21:18Z</time><course>359</course><type>1</type></trkpt>
      <trkpt lat="41.7970583" lon="-4.0495017"><ele>1583</ele><speed>22</speed><time>2016-06-29T15:21:20Z</time><course>3</course><type>1</type></trkpt>
      <trkpt lat="41.7971716" lon="-4.04952"><ele>1580</ele><speed>22</speed><time>2016-06-29T15:21:22Z</time><course>347</course><type>1</type></trkpt>
      <trkpt lat="41.7972983" lon="-4.049595"><ele>1576</ele><speed>17</speed><time>2016-06-29T15:21:25Z</time><course>336</course><type>1</type></trkpt>
      <trkpt lat="41.7973616" lon="-4.04965"><ele>1573</ele><speed>13</speed><time>2016-06-29T15:21:27Z</time><course>326</course><type>1</type></trkpt>
      <trkpt lat="41.7974266" lon="-4.0497267"><ele>1570</ele><speed>22</speed><time>2016-06-29T15:21:29Z</time><course>319</course><type>1</type></trkpt>
      <trkpt lat="41.7974616" lon="-4.049765"><ele>1569</ele><speed>18</speed><time>2016-06-29T15:21:30Z</time><course>327</course><type>1</type></trkpt>
      <trkpt lat="41.7975" lon="-4.04979"><ele>1570</ele><speed>5</speed><time>2016-06-29T15:21:32Z</time><course>356</course><type>1</type></trkpt>
      <trkpt lat="41.7975633" lon="-4.0498084"><ele>1567</ele><speed>14</speed><time>2016-06-29T15:21:34Z</time><course>335</course><type>1</type></trkpt>
      <trkpt lat="41.7975983" lon="-4.0498317"><ele>1566</ele><speed>16</speed><time>2016-06-29T15:21:35Z</time><course>334</course><type>1</type></trkpt>
      <trkpt lat="41.7976266" lon="-4.0498784"><ele>1565</ele><speed>19</speed><time>2016-06-29T15:21:36Z</time><course>310</course><type>1</type></trkpt>
      <trkpt lat="41.7976466" lon="-4.0499634"><ele>1562</ele><speed>9</speed><time>2016-06-29T15:21:38Z</time><course>277</course><type>1</type></trkpt>
      <trkpt lat="41.797665" lon="-4.0500067"><ele>1559</ele><speed>6</speed><time>2016-06-29T15:21:40Z</time><course>301</course><type>1</type></trkpt>
      <trkpt lat="41.79772" lon="-4.0501084"><ele>1556</ele><speed>13</speed><time>2016-06-29T15:21:43Z</time><course>303</course><type>1</type></trkpt>
      <trkpt lat="41.7976866" lon="-4.0501517"><ele>1551</ele><speed>10</speed><time>2016-06-29T15:21:47Z</time><course>190</course><type>1</type></trkpt>
      <trkpt lat="41.7976166" lon="-4.0501517"><ele>1550</ele><speed>23</speed><time>2016-06-29T15:21:48Z</time><course>175</course><type>1</type></trkpt>
      <trkpt lat="41.7974466" lon="-4.0500667"><ele>1547</ele><speed>38</speed><time>2016-06-29T15:21:50Z</time><course>148</course><type>1</type></trkpt>
      <trkpt lat="41.79728" lon="-4.049775"><ele>1544</ele><speed>53</speed><time>2016-06-29T15:21:52Z</time><course>124</course><type>1</type></trkpt>
      <trkpt lat="41.79722" lon="-4.04961"><ele>1542</ele><speed>54</speed><time>2016-06-29T15:21:53Z</time><course>118</course><type>1</type></trkpt>
      <trkpt lat="41.7971766" lon="-4.0494384"><ele>1540</ele><speed>50</speed><time>2016-06-29T15:21:54Z</time><course>111</course><type>1</type></trkpt>
      <trkpt lat="41.7971316" lon="-4.04907"><ele>1537</ele><speed>58</speed><time>2016-06-29T15:21:56Z</time><course>97</course><type>1</type></trkpt>
      <trkpt lat="41.797145" lon="-4.0486367"><ele>1533</ele><speed>65</speed><time>2016-06-29T15:21:58Z</time><course>88</course><type>1</type></trkpt>
      <trkpt lat="41.7971616" lon="-4.0484334"><ele>1532</ele><speed>59</speed><time>2016-06-29T15:21:59Z</time><course>88</course><type>1</type></trkpt>
      <trkpt lat="41.797175" lon="-4.0482567"><ele>1530</ele><speed>48</speed><time>2016-06-29T15:22:00Z</time><course>88</course><type>1</type></trkpt>
      <trkpt lat="41.7972366" lon="-4.0479784"><ele>1527</ele><speed>43</speed><time>2016-06-29T15:22:02Z</time><course>75</course><type>1</type></trkpt>
      <trkpt lat="41.7973216" lon="-4.0476801"><ele>1524</ele><speed>48</speed><time>2016-06-29T15:22:04Z</time><course>69</course><type>1</type></trkpt>
      <trkpt lat="41.7973816" lon="-4.0475484"><ele>1522</ele><speed>43</speed><time>2016-06-29T15:22:05Z</time><course>60</course><type>1</type></trkpt>
      <trkpt lat="41.79753" lon="-4.04731"><ele>1519</ele><speed>47</speed><time>2016-06-29T15:22:07Z</time><course>50</course><type>1</type></trkpt>
      <trkpt lat="41.7976683" lon="-4.0470501"><ele>1516</ele><speed>46</speed><time>2016-06-29T15:22:09Z</time><course>56</course><type>1</type></trkpt>
      <trkpt lat="41.79781" lon="-4.0468067"><ele>1512</ele><speed>46</speed><time>2016-06-29T15:22:11Z</time><course>51</course><type>1</type></trkpt>
      <trkpt lat="41.7978933" lon="-4.0466867"><ele>1511</ele><speed>50</speed><time>2016-06-29T15:22:12Z</time><course>50</course><type>1</type></trkpt>
      <trkpt lat="41.7980866" lon="-4.0464167"><ele>1507</ele><speed>55</speed><time>2016-06-29T15:22:14Z</time><course>50</course><type>1</type></trkpt>
      <trkpt lat="41.7982083" lon="-4.0461284"><ele>1503</ele><speed>50</speed><time>2016-06-29T15:22:16Z</time><course>59</course><type>1</type></trkpt>
      <trkpt lat="41.79833" lon="-4.0458184"><ele>1500</ele><speed>52</speed><time>2016-06-29T15:22:18Z</time><course>63</course><type>1</type></trkpt>
      <trkpt lat="41.7983966" lon="-4.0456617"><ele>1501</ele><speed>55</speed><time>2016-06-29T15:22:19Z</time><course>62</course><type>1</type></trkpt>
      <trkpt lat="41.7985333" lon="-4.045315"><ele>1499</ele><speed>58</speed><time>2016-06-29T15:22:21Z</time><course>62</course><type>1</type></trkpt>
      <trkpt lat="41.798645" lon="-4.0449884"><ele>1497</ele><speed>54</speed><time>2016-06-29T15:22:23Z</time><course>65</course><type>1</type></trkpt>
      <trkpt lat="41.798785" lon="-4.0446917"><ele>1494</ele><speed>52</speed><time>2016-06-29T15:22:25Z</time><course>57</course><type>1</type></trkpt>
      <trkpt lat="41.7989283" lon="-4.0444217"><ele>1491</ele><speed>50</speed><time>2016-06-29T15:22:27Z</time><course>57</course><type>1</type></trkpt>
      <trkpt lat="41.79907" lon="-4.04415"><ele>1489</ele><speed>48</speed><time>2016-06-29T15:22:29Z</time><course>56</course><type>1</type></trkpt>
      <trkpt lat="41.7992083" lon="-4.0438934"><ele>1487</ele><speed>45</speed><time>2016-06-29T15:22:31Z</time><course>54</course><type>1</type></trkpt>
      <trkpt lat="41.799275" lon="-4.0437667"><ele>1486</ele><speed>45</speed><time>2016-06-29T15:22:32Z</time><course>52</course><type>1</type></trkpt>
      <trkpt lat="41.79942" lon="-4.0435067"><ele>1483</ele><speed>51</speed><time>2016-06-29T15:22:34Z</time><course>53</course><type>1</type></trkpt>
      <trkpt lat="41.7994983" lon="-4.0433767"><ele>1482</ele><speed>51</speed><time>2016-06-29T15:22:35Z</time><course>53</course><type>1</type></trkpt>
      <trkpt lat="41.7995633" lon="-4.0432451"><ele>1481</ele><speed>47</speed><time>2016-06-29T15:22:36Z</time><course>55</course><type>1</type></trkpt>
      <trkpt lat="41.7997" lon="-4.0430167"><ele>1479</ele><speed>41</speed><time>2016-06-29T15:22:38Z</time><course>50</course><type>1</type></trkpt>
      <trkpt lat="41.7998433" lon="-4.0428317"><ele>1477</ele><speed>38</speed><time>2016-06-29T15:22:40Z</time><course>43</course><type>1</type></trkpt>
      <trkpt lat="41.79992" lon="-4.0427534"><ele>1475</ele><speed>38</speed><time>2016-06-29T15:22:41Z</time><course>39</course><type>1</type></trkpt>
      <trkpt lat="41.8000233" lon="-4.0427"><ele>1475</ele><speed>39</speed><time>2016-06-29T15:22:42Z</time><course>26</course><type>1</type></trkpt>
      <trkpt lat="41.8001133" lon="-4.0426567"><ele>1474</ele><speed>38</speed><time>2016-06-29T15:22:43Z</time><course>19</course><type>1</type></trkpt>
      <trkpt lat="41.8002783" lon="-4.0425767"><ele>1472</ele><speed>35</speed><time>2016-06-29T15:22:45Z</time><course>20</course><type>1</type></trkpt>
      <trkpt lat="41.8004383" lon="-4.0425067"><ele>1471</ele><speed>35</speed><time>2016-06-29T15:22:47Z</time><course>17</course><type>1</type></trkpt>
      <trkpt lat="41.800605" lon="-4.042485"><ele>1470</ele><speed>31</speed><time>2016-06-29T15:22:49Z</time><course>0</course><type>1</type></trkpt>
      <trkpt lat="41.800735" lon="-4.0425017"><ele>1471</ele><speed>27</speed><time>2016-06-29T15:22:51Z</time><course>354</course><type>1</type></trkpt>
      <trkpt lat="41.8008666" lon="-4.0425084"><ele>1471</ele><speed>25</speed><time>2016-06-29T15:22:53Z</time><course>5</course><type>1</type></trkpt>
      <trkpt lat="41.8009333" lon="-4.042505"><ele>1471</ele><speed>24</speed><time>2016-06-29T15:22:54Z</time><course>8</course><type>1</type></trkpt>
      <trkpt lat="41.8010533" lon="-4.0425367"><ele>1472</ele><speed>25</speed><time>2016-06-29T15:22:56Z</time><course>346</course><type>1</type></trkpt>
      <trkpt lat="41.8011483" lon="-4.0425934"><ele>1473</ele><speed>21</speed><time>2016-06-29T15:22:58Z</time><course>341</course><type>1</type></trkpt>
      <trkpt lat="41.8012" lon="-4.0426151"><ele>1473</ele><speed>22</speed><time>2016-06-29T15:22:59Z</time><course>345</course><type>1</type></trkpt>
      <trkpt lat="41.8012566" lon="-4.0426417"><ele>1473</ele><speed>25</speed><time>2016-06-29T15:23:00Z</time><course>340</course><type>1</type></trkpt>
      <trkpt lat="41.8013683" lon="-4.0427234"><ele>1475</ele><speed>23</speed><time>2016-06-29T15:23:02Z</time><course>330</course><type>1</type></trkpt>
      <trkpt lat="41.801435" lon="-4.0428"><ele>1476</ele><speed>14</speed><time>2016-06-29T15:23:04Z</time><course>315</course><type>1</type></trkpt>
      <trkpt lat="41.8014683" lon="-4.0428884"><ele>1477</ele><speed>16</speed><time>2016-06-29T15:23:06Z</time><course>293</course><type>1</type></trkpt>
      <trkpt lat="41.801515" lon="-4.043"><ele>1479</ele><speed>17</speed><time>2016-06-29T15:23:08Z</time><course>297</course><type>1</type></trkpt>
      <trkpt lat="41.80153" lon="-4.0430667"><ele>1480</ele><speed>16</speed><time>2016-06-29T15:23:09Z</time><course>285</course><type>1</type></trkpt>
      <trkpt lat="41.8015566" lon="-4.0431967"><ele>1482</ele><speed>20</speed><time>2016-06-29T15:23:11Z</time><course>291</course><type>1</type></trkpt>
      <trkpt lat="41.801625" lon="-4.0433117"><ele>1484</ele><speed>24</speed><time>2016-06-29T15:23:13Z</time><course>317</course><type>1</type></trkpt>
      <trkpt lat="41.8016966" lon="-4.0434167"><ele>1486</ele><speed>17</speed><time>2016-06-29T15:23:15Z</time><course>314</course><type>1</type></trkpt>
      <trkpt lat="41.8017616" lon="-4.0434701"><ele>1489</ele><speed>15</speed><time>2016-06-29T15:23:17Z</time><course>331</course><type>1</type></trkpt>
      <trkpt lat="41.80181" lon="-4.0434684"><ele>1496</ele><speed>6</speed><time>2016-06-29T15:23:19Z</time><course>29</course><type>1</type></trkpt>
      <trkpt lat="41.8018783" lon="-4.0434167"><ele>1501</ele><speed>14</speed><time>2016-06-29T15:23:21Z</time><course>39</course><type>1</type></trkpt>
      <trkpt lat="41.80198" lon="-4.043305"><ele>1506</ele><speed>29</speed><time>2016-06-29T15:23:23Z</time><course>66</course><type>1</type></trkpt>
      <trkpt lat="41.802055" lon="-4.0431767"><ele>1508</ele><speed>46</speed><time>2016-06-29T15:23:24Z</time><course>59</course><type>1</type></trkpt>
      <trkpt lat="41.8020783" lon="-4.0427767"><ele>1511</ele><speed>62</speed><time>2016-06-29T15:23:26Z</time><course>99</course><type>1</type></trkpt>
      <trkpt lat="41.8020116" lon="-4.0423817"><ele>1514</ele><speed>60</speed><time>2016-06-29T15:23:28Z</time><course>109</course><type>1</type></trkpt>
      <trkpt lat="41.8017933" lon="-4.04219"><ele>1517</ele><speed>50</speed><time>2016-06-29T15:23:30Z</time><course>154</course><type>1</type></trkpt>
      <trkpt lat="41.8016883" lon="-4.0421867"><ele>1520</ele><speed>42</speed><time>2016-06-29T15:23:31Z</time><course>194</course><type>1</type></trkpt>
      <trkpt lat="41.80163" lon="-4.0423367"><ele>1527</ele><speed>28</speed><time>2016-06-29T15:23:33Z</time><course>270</course><type>1</type></trkpt>
      <trkpt lat="41.801665" lon="-4.0423917"><ele>1542</ele><speed>14</speed><time>2016-06-29T15:23:35Z</time><course>71</course><type>1</type></trkpt>
      <trkpt lat="41.8016966" lon="-4.0422467"><ele>1549</ele><speed>22</speed><time>2016-06-29T15:23:37Z</time><course>78</course><type>1</type></trkpt>
      <trkpt lat="41.8017366" lon="-4.0421667"><ele>1552</ele><speed>26</speed><time>2016-06-29T15:23:38Z</time><course>63</course><type>1</type></trkpt>
      <trkpt lat="41.8018183" lon="-4.041905"><ele>1557</ele><speed>60</speed><time>2016-06-29T15:23:40Z</time><course>76</course><type>1</type></trkpt>
      <trkpt lat="41.8017633" lon="-4.0415134"><ele>1563</ele><speed>61</speed><time>2016-06-29T15:23:42Z</time><course>116</course><type>1</type></trkpt>
      <trkpt lat="41.8016383" lon="-4.04124"><ele>1572</ele><speed>46</speed><time>2016-06-29T15:23:44Z</time><course>127</course><type>1</type></trkpt>
      <trkpt lat="41.8015766" lon="-4.041145"><ele>1575</ele><speed>38</speed><time>2016-06-29T15:23:45Z</time><course>133</course><type>1</type></trkpt>
      <trkpt lat="41.8014316" lon="-4.0410167"><ele>1582</ele><speed>37</speed><time>2016-06-29T15:23:47Z</time><course>148</course><type>1</type></trkpt>
      <trkpt lat="41.801335" lon="-4.04098"><ele>1589</ele><speed>44</speed><time>2016-06-29T15:23:48Z</time><course>174</course><type>1</type></trkpt>
      <trkpt lat="41.8011216" lon="-4.0409884"><ele>1598</ele><speed>39</speed><time>2016-06-29T15:23:50Z</time><course>200</course><type>1</type></trkpt>
      <trkpt lat="41.8010483" lon="-4.0410084"><ele>1600</ele><speed>34</speed><time>2016-06-29T15:23:51Z</time><course>197</course><type>1</type></trkpt>
      <trkpt lat="41.80102" lon="-4.0410784"><ele>1608</ele><speed>16</speed><time>2016-06-29T15:23:53Z</time><course>243</course><type>1</type></trkpt>
      <trkpt lat="41.8009966" lon="-4.0412367"><ele>1613</ele><speed>17</speed><time>2016-06-29T15:23:56Z</time><course>278</course><type>1</type></trkpt>
      <trkpt lat="41.801105" lon="-4.04131"><ele>1619</ele><speed>31</speed><time>2016-06-29T15:23:58Z</time><course>346</course><type>1</type></trkpt>
      <trkpt lat="41.8011883" lon="-4.0413334"><ele>1623</ele><speed>34</speed><time>2016-06-29T15:23:59Z</time><course>354</course><type>1</type></trkpt>
      <trkpt lat="41.8013466" lon="-4.0413467"><ele>1632</ele><speed>29</speed><time>2016-06-29T15:24:01Z</time><course>14</course><type>1</type></trkpt>
      <trkpt lat="41.8014633" lon="-4.04129"><ele>1636</ele><speed>26</speed><time>2016-06-29T15:24:03Z</time><course>22</course><type>1</type></trkpt>
      <trkpt lat="41.80159" lon="-4.04122"><ele>1643</ele><speed>31</speed><time>2016-06-29T15:24:05Z</time><course>35</course><type>1</type></trkpt>
      <trkpt lat="41.801715" lon="-4.041045"><ele>1649</ele><speed>42</speed><time>2016-06-29T15:24:07Z</time><course>54</course><type>1</type></trkpt>
      <trkpt lat="41.8018366" lon="-4.0408317"><ele>1658</ele><speed>47</speed><time>2016-06-29T15:24:09Z</time><course>57</course><type>1</type></trkpt>
      <trkpt lat="41.801915" lon="-4.0405817"><ele>1670</ele><speed>50</speed><time>2016-06-29T15:24:11Z</time><course>72</course><type>1</type></trkpt>
      <trkpt lat="41.801935" lon="-4.0404184"><ele>1673</ele><speed>53</speed><time>2016-06-29T15:24:12Z</time><course>79</course><type>1</type></trkpt>
      <trkpt lat="41.8018583" lon="-4.0400251"><ele>1679</ele><speed>64</speed><time>2016-06-29T15:24:14Z</time><course>111</course><type>1</type></trkpt>
      <trkpt lat="41.80167" lon="-4.0397117"><ele>1685</ele><speed>60</speed><time>2016-06-29T15:24:16Z</time><course>142</course><type>1</type></trkpt>
      <trkpt lat="41.8015666" lon="-4.03964"><ele>1690</ele><speed>49</speed><time>2016-06-29T15:24:17Z</time><course>162</course><type>1</type></trkpt>
      <trkpt lat="41.8014666" lon="-4.0396067"><ele>1694</ele><speed>38</speed><time>2016-06-29T15:24:18Z</time><course>178</course><type>1</type></trkpt>
      <trkpt lat="41.8013866" lon="-4.039655"><ele>1699</ele><speed>17</speed><time>2016-06-29T15:24:20Z</time><course>253</course><type>1</type></trkpt>
      <trkpt lat="41.8014233" lon="-4.0397417"><ele>1711</ele><speed>12</speed><time>2016-06-29T15:24:22Z</time><course>346</course><type>1</type></trkpt>
      <trkpt lat="41.8014933" lon="-4.0396967"><ele>1715</ele><speed>15</speed><time>2016-06-29T15:24:24Z</time><course>40</course><type>1</type></trkpt>
      <trkpt lat="41.8015633" lon="-4.039675"><ele>1720</ele><speed>17</speed><time>2016-06-29T15:24:26Z</time><course>356</course><type>1</type></trkpt>
      <trkpt lat="41.8016666" lon="-4.0396867"><ele>1729</ele><speed>26</speed><time>2016-06-29T15:24:28Z</time><course>27</course><type>1</type></trkpt>
      <trkpt lat="41.8018166" lon="-4.039535"><ele>1739</ele><speed>45</speed><time>2016-06-29T15:24:30Z</time><course>52</course><type>1</type></trkpt>
      <trkpt lat="41.801935" lon="-4.039295"><ele>1743</ele><speed>44</speed><time>2016-06-29T15:24:32Z</time><course>59</course><type>1</type></trkpt>
      <trkpt lat="41.8020383" lon="-4.0390584"><ele>1749</ele><speed>42</speed><time>2016-06-29T15:24:34Z</time><course>63</course><type>1</type></trkpt>
      <trkpt lat="41.8021049" lon="-4.0388134"><ele>1755</ele><speed>42</speed><time>2016-06-29T15:24:36Z</time><course>76</course><type>1</type></trkpt>
      <trkpt lat="41.8021233" lon="-4.0386667"><ele>1758</ele><speed>50</speed><time>2016-06-29T15:24:37Z</time><course>80</course><type>1</type></trkpt>
      <trkpt lat="41.8021483" lon="-4.038295"><ele>1763</ele><speed>61</speed><time>2016-06-29T15:24:39Z</time><course>88</course><type>1</type></trkpt>
      <trkpt lat="41.8020783" lon="-4.0379384"><ele>1769</ele><speed>56</speed><time>2016-06-29T15:24:41Z</time><course>109</course><type>1</type></trkpt>
      <trkpt lat="41.8019983" lon="-4.0377934"><ele>1772</ele><speed>54</speed><time>2016-06-29T15:24:42Z</time><course>126</course><type>1</type></trkpt>
      <trkpt lat="41.80183" lon="-4.0375484"><ele>1777</ele><speed>49</speed><time>2016-06-29T15:24:44Z</time><course>135</course><type>1</type></trkpt>
      <trkpt lat="41.8016433" lon="-4.0373767"><ele>1786</ele><speed>45</speed><time>2016-06-29T15:24:46Z</time><course>160</course><type>1</type></trkpt>
      <trkpt lat="41.8014566" lon="-4.0373367"><ele>1794</ele><speed>32</speed><time>2016-06-29T15:24:48Z</time><course>185</course><type>1</type></trkpt>
      <trkpt lat="41.8013783" lon="-4.0373517"><ele>1794</ele><speed>31</speed><time>2016-06-29T15:24:49Z</time><course>191</course><type>1</type></trkpt>
      <trkpt lat="41.80131" lon="-4.0373917"><ele>1803</ele><speed>9</speed><time>2016-06-29T15:24:52Z</time><course>191</course><type>1</type></trkpt>
      <trkpt lat="41.8013266" lon="-4.037465"><ele>1811</ele><speed>5</speed><time>2016-06-29T15:24:56Z</time><course>286</course><type>1</type></trkpt>
      <trkpt lat="41.8013733" lon="-4.0374734"><ele>1815</ele><speed>12</speed><time>2016-06-29T15:24:58Z</time><course>20</course><type>1</type></trkpt>
      <trkpt lat="41.801465" lon="-4.0374834"><ele>1818</ele><speed>19</speed><time>2016-06-29T15:25:00Z</time><course>351</course><type>1</type></trkpt>
      <trkpt lat="41.8015183" lon="-4.03749"><ele>1821</ele><speed>20</speed><time>2016-06-29T15:25:01Z</time><course>355</course><type>1</type></trkpt>
      <trkpt lat="41.8016416" lon="-4.0375"><ele>1824</ele><speed>26</speed><time>2016-06-29T15:25:03Z</time><course>4</course><type>1</type></trkpt>
      <trkpt lat="41.8017216" lon="-4.0374767"><ele>1826</ele><speed>34</speed><time>2016-06-29T15:25:04Z</time><course>14</course><type>1</type></trkpt>
      <trkpt lat="41.8019066" lon="-4.037455"><ele>1830</ele><speed>41</speed><time>2016-06-29T15:25:06Z</time><course>15</course><type>1</type></trkpt>
      <trkpt lat="41.8020633" lon="-4.037405"><ele>1838</ele><speed>38</speed><time>2016-06-29T15:25:08Z</time><course>44</course><type>1</type></trkpt>
      <trkpt lat="41.802205" lon="-4.03718"><ele>1843</ele><speed>54</speed><time>2016-06-29T15:25:10Z</time><course>58</course><type>1</type></trkpt>
      <trkpt lat="41.8022716" lon="-4.0370334"><ele>1846</ele><speed>49</speed><time>2016-06-29T15:25:11Z</time><course>63</course><type>1</type></trkpt>
      <trkpt lat="41.80237" lon="-4.0367317"><ele>1850</ele><speed>53</speed><time>2016-06-29T15:25:13Z</time><course>68</course><type>1</type></trkpt>
      <trkpt lat="41.8024" lon="-4.0365717"><ele>1852</ele><speed>49</speed><time>2016-06-29T15:25:14Z</time><course>81</course><type>1</type></trkpt>
      <trkpt lat="41.802365" lon="-4.03618"><ele>1856</ele><speed>67</speed><time>2016-06-29T15:25:16Z</time><course>104</course><type>1</type></trkpt>
      <trkpt lat="41.802315" lon="-4.035985"><ele>1859</ele><speed>61</speed><time>2016-06-29T15:25:17Z</time><course>108</course><type>1</type></trkpt>
      <trkpt lat="41.802235" lon="-4.0356"><ele>1864</ele><speed>58</speed><time>2016-06-29T15:25:19Z</time><course>103</course><type>1</type></trkpt>
      <trkpt lat="41.8022033" lon="-4.0354134"><ele>1866</ele><speed>57</speed><time>2016-06-29T15:25:20Z</time><course>103</course><type>1</type></trkpt>
      <trkpt lat="41.8020633" lon="-4.0350534"><ele>1870</ele><speed>63</speed><time>2016-06-29T15:25:22Z</time><course>130</course><type>1</type></trkpt>
      <trkpt lat="41.8019516" lon="-4.0349684"><ele>1871</ele><speed>57</speed><time>2016-06-29T15:25:23Z</time><course>154</course><type>1</type></trkpt>
      <trkpt lat="41.8018183" lon="-4.0349084"><ele>1873</ele><speed>53</speed><time>2016-06-29T15:25:24Z</time><course>169</course><type>1</type></trkpt>
      <trkpt lat="41.80158" lon="-4.0348617"><ele>1876</ele><speed>41</speed><time>2016-06-29T15:25:26Z</time><course>176</course><type>1</type></trkpt>
      <trkpt lat="41.8014266" lon="-4.0348484"><ele>1880</ele><speed>28</speed><time>2016-06-29T15:25:28Z</time><course>179</course><type>1</type></trkpt>
      <trkpt lat="41.80136" lon="-4.0348434"><ele>1882</ele><speed>25</speed><time>2016-06-29T15:25:29Z</time><course>176</course><type>1</type></trkpt>
      <trkpt lat="41.8012933" lon="-4.0348251"><ele>1881</ele><speed>26</speed><time>2016-06-29T15:25:30Z</time><course>171</course><type>1</type></trkpt>
      <trkpt lat="41.8011366" lon="-4.0347984"><ele>1885</ele><speed>27</speed><time>2016-06-29T15:25:32Z</time><course>181</course><type>1</type></trkpt>
      <trkpt lat="41.8010683" lon="-4.0348317"><ele>1890</ele><speed>17</speed><time>2016-06-29T15:25:34Z</time><course>243</course><type>1</type></trkpt>
      <trkpt lat="41.8011266" lon="-4.0349234"><ele>1896</ele><speed>21</speed><time>2016-06-29T15:25:37Z</time><course>343</course><type>1</type></trkpt>
      <trkpt lat="41.8012133" lon="-4.0349284"><ele>1903</ele><speed>26</speed><time>2016-06-29T15:25:39Z</time><course>29</course><type>1</type></trkpt>
      <trkpt lat="41.8012733" lon="-4.03488"><ele>1906</ele><speed>32</speed><time>2016-06-29T15:25:40Z</time><course>35</course><type>1</type></trkpt>
      <trkpt lat="41.80135" lon="-4.03481"><ele>1909</ele><speed>39</speed><time>2016-06-29T15:25:41Z</time><course>37</course><type>1</type></trkpt>
      <trkpt lat="41.801515" lon="-4.0345784"><ele>1913</ele><speed>55</speed><time>2016-06-29T15:25:43Z</time><course>56</course><type>1</type></trkpt>
      <trkpt lat="41.8015733" lon="-4.0341717"><ele>1917</ele><speed>65</speed><time>2016-06-29T15:25:45Z</time><course>92</course><type>1</type></trkpt>
      <trkpt lat="41.8014933" lon="-4.0337484"><ele>1921</ele><speed>65</speed><time>2016-06-29T15:25:47Z</time><course>108</course><type>1</type></trkpt>
      <trkpt lat="41.8013966" lon="-4.033385"><ele>1926</ele><speed>54</speed><time>2016-06-29T15:25:49Z</time><course>114</course><type>1</type></trkpt>
      <trkpt lat="41.801335" lon="-4.03322"><ele>1928</ele><speed>53</speed><time>2016-06-29T15:25:50Z</time><course>119</course><type>1</type></trkpt>
      <trkpt lat="41.8011683" lon="-4.0329167"><ele>1932</ele><speed>60</speed><time>2016-06-29T15:25:52Z</time><course>129</course><type>1</type></trkpt>
      <trkpt lat="41.8010766" lon="-4.0328"><ele>1935</ele><speed>58</speed><time>2016-06-29T15:25:53Z</time><course>135</course><type>1</type></trkpt>
      <trkpt lat="41.8009083" lon="-4.032635"><ele>1942</ele><speed>41</speed><time>2016-06-29T15:25:55Z</time><course>141</course><type>1</type></trkpt>
      <trkpt lat="41.8008316" lon="-4.032565"><ele>1945</ele><speed>39</speed><time>2016-06-29T15:25:56Z</time><course>144</course><type>1</type></trkpt>
      <trkpt lat="41.8006666" lon="-4.032475"><ele>1947</ele><speed>35</speed><time>2016-06-29T15:25:58Z</time><course>158</course><type>1</type></trkpt>
      <trkpt lat="41.8005833" lon="-4.0324334"><ele>1948</ele><speed>35</speed><time>2016-06-29T15:25:59Z</time><course>159</course><type>1</type></trkpt>
      <trkpt lat="41.800435" lon="-4.0323934"><ele>1952</ele><speed>29</speed><time>2016-06-29T15:26:01Z</time><course>171</course><type>1</type></trkpt>
      <trkpt lat="41.8003683" lon="-4.03242"><ele>1955</ele><speed>28</speed><time>2016-06-29T15:26:02Z</time><course>187</course><type>1</type></trkpt>
      <trkpt lat="41.8002916" lon="-4.0324384"><ele>1957</ele><speed>31</speed><time>2016-06-29T15:26:03Z</time><course>188</course><type>1</type></trkpt>
      <trkpt lat="41.800115" lon="-4.03247"><ele>1962</ele><speed>36</speed><time>2016-06-29T15:26:05Z</time><course>178</course><type>1</type></trkpt>
      <trkpt lat="41.80004" lon="-4.03245"><ele>1961</ele><speed>31</speed><time>2016-06-29T15:26:06Z</time><course>166</course><type>1</type></trkpt>
      <trkpt lat="41.79994" lon="-4.0323967"><ele>1965</ele><speed>22</speed><time>2016-06-29T15:26:08Z</time><course>152</course><type>1</type></trkpt>
      <trkpt lat="41.7998533" lon="-4.032435"><ele>1968</ele><speed>21</speed><time>2016-06-29T15:26:10Z</time><course>218</course><type>1</type></trkpt>
      <trkpt lat="41.799835" lon="-4.0325167"><ele>1974</ele><speed>3</speed><time>2016-06-29T15:26:13Z</time><course>245</course><type>1</type></trkpt>
      <trkpt lat="41.7997733" lon="-4.0325534"><ele>1980</ele><speed>13</speed><time>2016-06-29T15:26:17Z</time><course>252</course><type>1</type></trkpt>
      <trkpt lat="41.7997866" lon="-4.0326067"><ele>1985</ele><speed>14</speed><time>2016-06-29T15:26:19Z</time><course>339</course><type>1</type></trkpt>
      <trkpt lat="41.7998233" lon="-4.03262"><ele>1987</ele><speed>20</speed><time>2016-06-29T15:26:20Z</time><course>357</course><type>1</type></trkpt>
      <trkpt lat="41.7998983" lon="-4.0326017"><ele>1989</ele><speed>37</speed><time>2016-06-29T15:26:21Z</time><course>21</course><type>1</type></trkpt>
      <trkpt lat="41.8000766" lon="-4.0324584"><ele>1994</ele><speed>48</speed><time>2016-06-29T15:26:23Z</time><course>45</course><type>1</type></trkpt>
      <trkpt lat="41.8002016" lon="-4.0322"><ele>1999</ele><speed>50</speed><time>2016-06-29T15:26:25Z</time><course>62</course><type>1</type></trkpt>
      <trkpt lat="41.800285" lon="-4.0318634"><ele>2002</ele><speed>56</speed><time>2016-06-29T15:26:27Z</time><course>76</course><type>1</type></trkpt>
      <trkpt lat="41.8003333" lon="-4.0314684"><ele>2007</ele><speed>61</speed><time>2016-06-29T15:26:29Z</time><course>88</course><type>1</type></trkpt>
      <trkpt lat="41.8003233" lon="-4.0312734"><ele>2009</ele><speed>59</speed><time>2016-06-29T15:26:30Z</time><course>96</course><type>1</type></trkpt>
      <trkpt lat="41.8002566" lon="-4.030935"><ele>2015</ele><speed>57</speed><time>2016-06-29T15:26:32Z</time><course>112</course><type>1</type></trkpt>
      <trkpt lat="41.80019" lon="-4.0307817"><ele>2017</ele><speed>57</speed><time>2016-06-29T15:26:33Z</time><course>123</course><type>1</type></trkpt>
      <trkpt lat="41.800065" lon="-4.030475"><ele>2022</ele><speed>55</speed><time>2016-06-29T15:26:35Z</time><course>113</course><type>1</type></trkpt>
      <trkpt lat="41.8000133" lon="-4.0303267"><ele>2025</ele><speed>51</speed><time>2016-06-29T15:26:36Z</time><course>114</course><type>1</type></trkpt>
      <trkpt lat="41.799885" lon="-4.0300684"><ele>2031</ele><speed>43</speed><time>2016-06-29T15:26:38Z</time><course>134</course><type>1</type></trkpt>
      <trkpt lat="41.799805" lon="-4.0299834"><ele>2034</ele><speed>43</speed><time>2016-06-29T15:26:39Z</time><course>142</course><type>1</type></trkpt>
      <trkpt lat="41.7996466" lon="-4.0297617"><ele>2040</ele><speed>46</speed><time>2016-06-29T15:26:41Z</time><course>128</course><type>1</type></trkpt>
      <trkpt lat="41.7995733" lon="-4.02965"><ele>2043</ele><speed>43</speed><time>2016-06-29T15:26:42Z</time><course>128</course><type>1</type></trkpt>
      <trkpt lat="41.7995" lon="-4.0295517"><ele>2046</ele><speed>42</speed><time>2016-06-29T15:26:43Z</time><course>135</course><type>1</type></trkpt>
      <trkpt lat="41.7993266" lon="-4.0293967"><ele>2049</ele><speed>42</speed><time>2016-06-29T15:26:45Z</time><course>154</course><type>1</type></trkpt>
      <trkpt lat="41.7991566" lon="-4.029305"><ele>2054</ele><speed>32</speed><time>2016-06-29T15:26:47Z</time><course>163</course><type>1</type></trkpt>
      <trkpt lat="41.7990433" lon="-4.0292567"><ele>2059</ele><speed>19</speed><time>2016-06-29T15:26:49Z</time><course>180</course><type>1</type></trkpt>
      <trkpt lat="41.79896" lon="-4.029285"><ele>2066</ele><speed>17</speed><time>2016-06-29T15:26:51Z</time><course>219</course><type>1</type></trkpt>
      <trkpt lat="41.79893" lon="-4.0293134"><ele>2069</ele><speed>7</speed><time>2016-06-29T15:26:53Z</time><course>253</course><type>1</type></trkpt>
      <trkpt lat="41.79897" lon="-4.029355"><ele>2079</ele><speed>10</speed><time>2016-06-29T15:26:58Z</time><course>342</course><type>1</type></trkpt>
      <trkpt lat="41.799105" lon="-4.0294034"><ele>2085</ele><speed>35</speed><time>2016-06-29T15:27:00Z</time><course>5</course><type>1</type></trkpt>
      <trkpt lat="41.7991799" lon="-4.0294034"><ele>2090</ele><speed>35</speed><time>2016-06-29T15:27:01Z</time><course>23</course><type>1</type></trkpt>
      <trkpt lat="41.7993033" lon="-4.0293"><ele>2099</ele><speed>36</speed><time>2016-06-29T15:27:03Z</time><course>48</course><type>1</type></trkpt>
      <trkpt lat="41.799355" lon="-4.0292167"><ele>2101</ele><speed>38</speed><time>2016-06-29T15:27:04Z</time><course>54</course><type>1</type></trkpt>
      <trkpt lat="41.7994816" lon="-4.02898"><ele>2103</ele><speed>52</speed><time>2016-06-29T15:27:06Z</time><course>54</course><type>1</type></trkpt>
      <trkpt lat="41.7995516" lon="-4.0288434"><ele>2106</ele><speed>52</speed><time>2016-06-29T15:27:07Z</time><course>55</course><type>1</type></trkpt>
      <trkpt lat="41.7996883" lon="-4.0285734"><ele>2111</ele><speed>49</speed><time>2016-06-29T15:27:09Z</time><course>60</course><type>1</type></trkpt>
      <trkpt lat="41.79974" lon="-4.0284367"><ele>2114</ele><speed>48</speed><time>2016-06-29T15:27:10Z</time><course>66</course><type>1</type></trkpt>
      <trkpt lat="41.7997816" lon="-4.02828"><ele>2116</ele><speed>49</speed><time>2016-06-29T15:27:11Z</time><course>71</course><type>1</type></trkpt>
      <trkpt lat="41.7998283" lon="-4.0278984"><ele>2121</ele><speed>61</speed><time>2016-06-29T15:27:13Z</time><course>86</course><type>1</type></trkpt>
      <trkpt lat="41.799845" lon="-4.0275117"><ele>2127</ele><speed>57</speed><time>2016-06-29T15:27:15Z</time><course>96</course><type>1</type></trkpt>
      <trkpt lat="41.799795" lon="-4.0271584"><ele>2133</ele><speed>57</speed><time>2016-06-29T15:27:17Z</time><course>108</course><type>1</type></trkpt>
      <trkpt lat="41.799695" lon="-4.026835"><ele>2139</ele><speed>52</speed><time>2016-06-29T15:27:19Z</time><course>119</course><type>1</type></trkpt>
      <trkpt lat="41.7995833" lon="-4.026535"><ele>2142</ele><speed>51</speed><time>2016-06-29T15:27:21Z</time><course>117</course><type>1</type></trkpt>
      <trkpt lat="41.799465" lon="-4.0262534"><ele>2147</ele><speed>49</speed><time>2016-06-29T15:27:23Z</time><course>127</course><type>1</type></trkpt>
      <trkpt lat="41.7993916" lon="-4.026135"><ele>2149</ele><speed>46</speed><time>2016-06-29T15:27:24Z</time><course>132</course><type>1</type></trkpt>
      <trkpt lat="41.7992483" lon="-4.0259967"><ele>2154</ele><speed>37</speed><time>2016-06-29T15:27:26Z</time><course>148</course><type>1</type></trkpt>
      <trkpt lat="41.79911" lon="-4.0258751"><ele>2159</ele><speed>27</speed><time>2016-06-29T15:27:28Z</time><course>159</course><type>1</type></trkpt>
      <trkpt lat="41.7990299" lon="-4.0258467"><ele>2162</ele><speed>28</speed><time>2016-06-29T15:27:29Z</time><course>182</course><type>1</type></trkpt>
      <trkpt lat="41.7989616" lon="-4.025845"><ele>2165</ele><speed>28</speed><time>2016-06-29T15:27:30Z</time><course>188</course><type>1</type></trkpt>
      <trkpt lat="41.7988583" lon="-4.0258684"><ele>2167</ele><speed>18</speed><time>2016-06-29T15:27:32Z</time><course>205</course><type>1</type></trkpt>
      <trkpt lat="41.798795" lon="-4.02586"><ele>2174</ele><speed>12</speed><time>2016-06-29T15:27:36Z</time><course>193</course><type>1</type></trkpt>
      <trkpt lat="41.79875" lon="-4.0259034"><ele>2179</ele><speed>9</speed><time>2016-06-29T15:27:38Z</time><course>238</course><type>1</type></trkpt>
      <trkpt lat="41.7987616" lon="-4.025955"><ele>2190</ele><speed>7</speed><time>2016-06-29T15:27:42Z</time><course>333</course><type>1</type></trkpt>
      <trkpt lat="41.7988366" lon="-4.0259934"><ele>2195</ele><speed>24</speed><time>2016-06-29T15:27:44Z</time><course>356</course><type>1</type></trkpt>
      <trkpt lat="41.7989166" lon="-4.0259617"><ele>2197</ele><speed>36</speed><time>2016-06-29T15:27:45Z</time><course>20</course><type>1</type></trkpt>
      <trkpt lat="41.7989933" lon="-4.0259034"><ele>2200</ele><speed>48</speed><time>2016-06-29T15:27:46Z</time><course>45</course><type>1</type></trkpt>
      <trkpt lat="41.7991033" lon="-4.025645"><ele>2206</ele><speed>62</speed><time>2016-06-29T15:27:48Z</time><course>70</course><type>1</type></trkpt>
      <trkpt lat="41.79915" lon="-4.0252734"><ele>2212</ele><speed>62</speed><time>2016-06-29T15:27:50Z</time><course>83</course><type>1</type></trkpt>
      <trkpt lat="41.7991233" lon="-4.0249017"><ele>2218</ele><speed>58</speed><time>2016-06-29T15:27:52Z</time><course>99</course><type>1</type></trkpt>
      <trkpt lat="41.7991066" lon="-4.0247234"><ele>2221</ele><speed>58</speed><time>2016-06-29T15:27:53Z</time><course>101</course><type>1</type></trkpt>
      <trkpt lat="41.7990299" lon="-4.0243717"><ele>2226</ele><speed>56</speed><time>2016-06-29T15:27:55Z</time><course>110</course><type>1</type></trkpt>
      <trkpt lat="41.7989133" lon="-4.02405"><ele>2231</ele><speed>54</speed><time>2016-06-29T15:27:57Z</time><course>122</course><type>1</type></trkpt>
      <trkpt lat="41.7987783" lon="-4.023795"><ele>2237</ele><speed>44</speed><time>2016-06-29T15:27:59Z</time><course>127</course><type>1</type></trkpt>
      <trkpt lat="41.7986483" lon="-4.02355"><ele>2242</ele><speed>44</speed><time>2016-06-29T15:28:01Z</time><course>123</course><type>1</type></trkpt>
      <trkpt lat="41.79851" lon="-4.02336"><ele>2246</ele><speed>38</speed><time>2016-06-29T15:28:03Z</time><course>140</course><type>1</type></trkpt>
      <trkpt lat="41.7984316" lon="-4.0233"><ele>2248</ele><speed>34</speed><time>2016-06-29T15:28:04Z</time><course>149</course><type>1</type></trkpt>
      <trkpt lat="41.7982583" lon="-4.0232134"><ele>2253</ele><speed>33</speed><time>2016-06-29T15:28:06Z</time><course>163</course><type>1</type></trkpt>
      <trkpt lat="41.7980733" lon="-4.0231734"><ele>2257</ele><speed>36</speed><time>2016-06-29T15:28:08Z</time><course>176</course><type>1</type></trkpt>
      <trkpt lat="41.79798" lon="-4.0231734"><ele>2256</ele><speed>34</speed><time>2016-06-29T15:28:09Z</time><course>178</course><type>1</type></trkpt>
      <trkpt lat="41.797815" lon="-4.02316"><ele>2259</ele><speed>32</speed><time>2016-06-29T15:28:11Z</time><course>169</course><type>1</type></trkpt>
      <trkpt lat="41.79774" lon="-4.0231234"><ele>2261</ele><speed>31</speed><time>2016-06-29T15:28:12Z</time><course>162</course><type>1</type></trkpt>
      <trkpt lat="41.7976416" lon="-4.0230684"><ele>2267</ele><speed>15</speed><time>2016-06-29T15:28:14Z</time><course>175</course><type>1</type></trkpt>
      <trkpt lat="41.7975933" lon="-4.0230634"><ele>2271</ele><speed>9</speed><time>2016-06-29T15:28:16Z</time><course>196</course><type>1</type></trkpt>
      <trkpt lat="41.7976733" lon="-4.0231017"><ele>2275</ele><speed>17</speed><time>2016-06-29T15:28:19Z</time><course>1</course><type>1</type></trkpt>
      <trkpt lat="41.7978033" lon="-4.0230717"><ele>2279</ele><speed>38</speed><time>2016-06-29T15:28:21Z</time><course>19</course><type>1</type></trkpt>
      <trkpt lat="41.797965" lon="-4.0228934"><ele>2284</ele><speed>50</speed><time>2016-06-29T15:28:23Z</time><course>53</course><type>1</type></trkpt>
      <trkpt lat="41.7980216" lon="-4.022755"><ele>2286</ele><speed>50</speed><time>2016-06-29T15:28:24Z</time><course>66</course><type>1</type></trkpt>
      <trkpt lat="41.7981016" lon="-4.0224284"><ele>2290</ele><speed>56</speed><time>2016-06-29T15:28:26Z</time><course>73</course><type>1</type></trkpt>
      <trkpt lat="41.798135" lon="-4.0222434"><ele>2292</ele><speed>60</speed><time>2016-06-29T15:28:27Z</time><course>75</course><type>1</type></trkpt>
      <trkpt lat="41.7982133" lon="-4.021875"><ele>2297</ele><speed>55</speed><time>2016-06-29T15:28:29Z</time><course>78</course><type>1</type></trkpt>
      <trkpt lat="41.7982533" lon="-4.0215301"><ele>2302</ele><speed>53</speed><time>2016-06-29T15:28:31Z</time><course>86</course><type>1</type></trkpt>
      <trkpt lat="41.7982233" lon="-4.0211884"><ele>2307</ele><speed>52</speed><time>2016-06-29T15:28:33Z</time><course>110</course><type>1</type></trkpt>
      <trkpt lat="41.7981683" lon="-4.02103"><ele>2309</ele><speed>53</speed><time>2016-06-29T15:28:34Z</time><course>121</course><type>1</type></trkpt>
      <trkpt lat="41.7980616" lon="-4.020765"><ele>2314</ele><speed>44</speed><time>2016-06-29T15:28:36Z</time><course>117</course><type>1</type></trkpt>
      <trkpt lat="41.7979433" lon="-4.0205017"><ele>2318</ele><speed>46</speed><time>2016-06-29T15:28:38Z</time><course>123</course><type>1</type></trkpt>
      <trkpt lat="41.7977816" lon="-4.0202717"><ele>2321</ele><speed>49</speed><time>2016-06-29T15:28:40Z</time><course>137</course><type>1</type></trkpt>
      <trkpt lat="41.7975983" lon="-4.0200984"><ele>2325</ele><speed>45</speed><time>2016-06-29T15:28:42Z</time><course>150</course><type>1</type></trkpt>
      <trkpt lat="41.797415" lon="-4.019985"><ele>2327</ele><speed>33</speed><time>2016-06-29T15:28:44Z</time><course>166</course><type>1</type></trkpt>
      <trkpt lat="41.797275" lon="-4.0199767"><ele>2328</ele><speed>25</speed><time>2016-06-29T15:28:46Z</time><course>187</course><type>1</type></trkpt>
      <trkpt lat="41.797175" lon="-4.0200084"><ele>2331</ele><speed>16</speed><time>2016-06-29T15:28:48Z</time><course>198</course><type>1</type></trkpt>
      <trkpt lat="41.7970933" lon="-4.02005"><ele>2334</ele><speed>8</speed><time>2016-06-29T15:28:51Z</time><course>221</course><type>1</type></trkpt>
      <trkpt lat="41.7970983" lon="-4.0201084"><ele>2337</ele><speed>15</speed><time>2016-06-29T15:28:53Z</time><course>312</course><type>1</type></trkpt>
      <trkpt lat="41.7971833" lon="-4.020125"><ele>2338</ele><speed>22</speed><time>2016-06-29T15:28:55Z</time><course>0</course><type>1</type></trkpt>
      <trkpt lat="41.797305" lon="-4.0200934"><ele>2341</ele><speed>28</speed><time>2016-06-29T15:28:57Z</time><course>16</course><type>1</type></trkpt>
      <trkpt lat="41.7973716" lon="-4.0200634"><ele>2342</ele><speed>31</speed><time>2016-06-29T15:28:58Z</time><course>22</course><type>1</type></trkpt>
      <trkpt lat="41.7975216" lon="-4.0199584"><ele>2344</ele><speed>38</speed><time>2016-06-29T15:29:00Z</time><course>33</course><type>1</type></trkpt>
      <trkpt lat="41.7976766" lon="-4.0197967"><ele>2346</ele><speed>41</speed><time>2016-06-29T15:29:02Z</time><course>42</course><type>1</type></trkpt>
      <trkpt lat="41.79782" lon="-4.0195917"><ele>2347</ele><speed>42</speed><time>2016-06-29T15:29:04Z</time><course>52</course><type>1</type></trkpt>
      <trkpt lat="41.7978833" lon="-4.0194734"><ele>2347</ele><speed>45</speed><time>2016-06-29T15:29:05Z</time><course>54</course><type>1</type></trkpt>
      <trkpt lat="41.7980183" lon="-4.0191717"><ele>2348</ele><speed>57</speed><time>2016-06-29T15:29:07Z</time><course>62</course><type>1</type></trkpt>
      <trkpt lat="41.7980583" lon="-4.019"><ele>2349</ele><speed>54</speed><time>2016-06-29T15:29:08Z</time><course>72</course><type>1</type></trkpt>
      <trkpt lat="41.7980866" lon="-4.018825"><ele>2351</ele><speed>52</speed><time>2016-06-29T15:29:09Z</time><course>82</course><type>1</type></trkpt>
      <trkpt lat="41.7981" lon="-4.0184534"><ele>2354</ele><speed>56</speed><time>2016-06-29T15:29:11Z</time><course>92</course><type>1</type></trkpt>
      <trkpt lat="41.7980983" lon="-4.01825"><ele>2356</ele><speed>59</speed><time>2016-06-29T15:29:12Z</time><course>94</course><type>1</type></trkpt>
      <trkpt lat="41.7980566" lon="-4.0178834"><ele>2359</ele><speed>53</speed><time>2016-06-29T15:29:14Z</time><course>105</course><type>1</type></trkpt>
      <trkpt lat="41.7979966" lon="-4.0177417"><ele>2361</ele><speed>50</speed><time>2016-06-29T15:29:15Z</time><course>123</course><type>1</type></trkpt>
      <trkpt lat="41.797935" lon="-4.0176034"><ele>2363</ele><speed>48</speed><time>2016-06-29T15:29:16Z</time><course>124</course><type>1</type></trkpt>
      <trkpt lat="41.7978633" lon="-4.0174784"><ele>2365</ele><speed>48</speed><time>2016-06-29T15:29:17Z</time><course>130</course><type>1</type></trkpt>
      <trkpt lat="41.7977883" lon="-4.0173484"><ele>2367</ele><speed>47</speed><time>2016-06-29T15:29:18Z</time><course>129</course><type>1</type></trkpt>
      <trkpt lat="41.7977116" lon="-4.0172317"><ele>2369</ele><speed>46</speed><time>2016-06-29T15:29:19Z</time><course>132</course><type>1</type></trkpt>
      <trkpt lat="41.797565" lon="-4.01705"><ele>2373</ele><speed>39</speed><time>2016-06-29T15:29:21Z</time><course>145</course><type>1</type></trkpt>
      <trkpt lat="41.7974883" lon="-4.0169767"><ele>2376</ele><speed>35</speed><time>2016-06-29T15:29:22Z</time><course>149</course><type>1</type></trkpt>
      <trkpt lat="41.7973333" lon="-4.0168934"><ele>2377</ele><speed>30</speed><time>2016-06-29T15:29:24Z</time><course>164</course><type>1</type></trkpt>
      <trkpt lat="41.79725" lon="-4.016865"><ele>2379</ele><speed>32</speed><time>2016-06-29T15:29:25Z</time><course>163</course><type>1</type></trkpt>
      <trkpt lat="41.7970933" lon="-4.016815"><ele>2383</ele><speed>29</speed><time>2016-06-29T15:29:27Z</time><course>168</course><type>1</type></trkpt>
      <trkpt lat="41.79703" lon="-4.0168067"><ele>2385</ele><speed>23</speed><time>2016-06-29T15:29:28Z</time><course>179</course><type>1</type></trkpt>
      <trkpt lat="41.7969766" lon="-4.0168134"><ele>2386</ele><speed>20</speed><time>2016-06-29T15:29:29Z</time><course>195</course><type>1</type></trkpt>
      <trkpt lat="41.7969116" lon="-4.0168634"><ele>2389</ele><speed>10</speed><time>2016-06-29T15:29:31Z</time><course>238</course><type>1</type></trkpt>
      <trkpt lat="41.7969583" lon="-4.0169267"><ele>2393</ele><speed>12</speed><time>2016-06-29T15:29:35Z</time><course>354</course><type>1</type></trkpt>
      <trkpt lat="41.79709" lon="-4.0169134"><ele>2395</ele><speed>30</speed><time>2016-06-29T15:29:37Z</time><course>16</course><type>1</type></trkpt>
      <trkpt lat="41.7972466" lon="-4.0168351"><ele>2397</ele><speed>37</speed><time>2016-06-29T15:29:39Z</time><course>26</course><type>1</type></trkpt>
      <trkpt lat="41.7973166" lon="-4.01673"><ele>2399</ele><speed>44</speed><time>2016-06-29T15:29:40Z</time><course>48</course><type>1</type></trkpt>
      <trkpt lat="41.7973816" lon="-4.0166101"><ele>2400</ele><speed>46</speed><time>2016-06-29T15:29:41Z</time><course>56</course><type>1</type></trkpt>
      <trkpt lat="41.7974983" lon="-4.0163367"><ele>2404</ele><speed>50</speed><time>2016-06-29T15:29:43Z</time><course>62</course><type>1</type></trkpt>
      <trkpt lat="41.7975466" lon="-4.0161784"><ele>2406</ele><speed>53</speed><time>2016-06-29T15:29:44Z</time><course>72</course><type>1</type></trkpt>
      <trkpt lat="41.79759" lon="-4.015835"><ele>2410</ele><speed>49</speed><time>2016-06-29T15:29:46Z</time><course>87</course><type>1</type></trkpt>
      <trkpt lat="41.7975966" lon="-4.0156717"><ele>2412</ele><speed>48</speed><time>2016-06-29T15:29:47Z</time><course>92</course><type>1</type></trkpt>
      <trkpt lat="41.797575" lon="-4.0153467"><ele>2416</ele><speed>51</speed><time>2016-06-29T15:29:49Z</time><course>99</course><type>1</type></trkpt>
      <trkpt lat="41.7975466" lon="-4.0151634"><ele>2417</ele><speed>58</speed><time>2016-06-29T15:29:50Z</time><course>104</course><type>1</type></trkpt>
      <trkpt lat="41.79745" lon="-4.014785"><ele>2421</ele><speed>63</speed><time>2016-06-29T15:29:52Z</time><course>116</course><type>1</type></trkpt>
      <trkpt lat="41.7973783" lon="-4.0146034"><ele>2423</ele><speed>63</speed><time>2016-06-29T15:29:53Z</time><course>121</course><type>1</type></trkpt>
      <trkpt lat="41.7972399" lon="-4.0142717"><ele>2427</ele><speed>52</speed><time>2016-06-29T15:29:55Z</time><course>119</course><type>1</type></trkpt>
      <trkpt lat="41.7971733" lon="-4.0141217"><ele>2429</ele><speed>52</speed><time>2016-06-29T15:29:56Z</time><course>121</course><type>1</type></trkpt>
      <trkpt lat="41.7970183" lon="-4.0138517"><ele>2433</ele><speed>49</speed><time>2016-06-29T15:29:58Z</time><course>129</course><type>1</type></trkpt>
      <trkpt lat="41.7969416" lon="-4.01373"><ele>2436</ele><speed>48</speed><time>2016-06-29T15:29:59Z</time><course>130</course><type>1</type></trkpt>
      <trkpt lat="41.79686" lon="-4.0136217"><ele>2438</ele><speed>46</speed><time>2016-06-29T15:30:00Z</time><course>135</course><type>1</type></trkpt>
      <trkpt lat="41.7966883" lon="-4.01342"><ele>2443</ele><speed>45</speed><time>2016-06-29T15:30:02Z</time><course>140</course><type>1</type></trkpt>
      <trkpt lat="41.796485" lon="-4.0133"><ele>2447</ele><speed>41</speed><time>2016-06-29T15:30:04Z</time><course>160</course><type>1</type></trkpt>
      <trkpt lat="41.796285" lon="-4.0132317"><ele>2450</ele><speed>37</speed><time>2016-06-29T15:30:06Z</time><course>166</course><type>1</type></trkpt>
      <trkpt lat="41.7960683" lon="-4.013185"><ele>2454</ele><speed>39</speed><time>2016-06-29T15:30:08Z</time><course>170</course><type>1</type></trkpt>
      <trkpt lat="41.7958616" lon="-4.0131467"><ele>2459</ele><speed>39</speed><time>2016-06-29T15:30:10Z</time><course>178</course><type>1</type></trkpt>
      <trkpt lat="41.7957016" lon="-4.013155"><ele>2464</ele><speed>32</speed><time>2016-06-29T15:30:12Z</time><course>187</course><type>1</type></trkpt>
      <trkpt lat="41.79557" lon="-4.0131867"><ele>2469</ele><speed>29</speed><time>2016-06-29T15:30:14Z</time><course>195</course><type>1</type></trkpt>
      <trkpt lat="41.79543" lon="-4.0132284"><ele>2473</ele><speed>27</speed><time>2016-06-29T15:30:16Z</time><course>189</course><type>1</type></trkpt>
      <trkpt lat="41.79538" lon="-4.0132617"><ele>2475</ele><speed>22</speed><time>2016-06-29T15:30:17Z</time><course>210</course><type>1</type></trkpt>
      <trkpt lat="41.7953183" lon="-4.013395"><ele>2480</ele><speed>23</speed><time>2016-06-29T15:30:19Z</time><course>253</course><type>1</type></trkpt>
      <trkpt lat="41.7953083" lon="-4.0135567"><ele>2486</ele><speed>18</speed><time>2016-06-29T15:30:21Z</time><course>280</course><type>1</type></trkpt>
      <trkpt lat="41.7953266" lon="-4.0136134"><ele>2488</ele><speed>17</speed><time>2016-06-29T15:30:22Z</time><course>300</course><type>1</type></trkpt>
      <trkpt lat="41.79539" lon="-4.0137284"><ele>2494</ele><speed>20</speed><time>2016-06-29T15:30:24Z</time><course>315</course><type>1</type></trkpt>
      <trkpt lat="41.7954616" lon="-4.01376"><ele>2496</ele><speed>28</speed><time>2016-06-29T15:30:25Z</time><course>343</course><type>1</type></trkpt>
      <trkpt lat="41.7956033" lon="-4.0137851"><ele>2500</ele><speed>29</speed><time>2016-06-29T15:30:27Z</time><course>359</course><type>1</type></trkpt>
      <trkpt lat="41.795675" lon="-4.0137717"><ele>2503</ele><speed>28</speed><time>2016-06-29T15:30:28Z</time><course>15</course><type>1</type></trkpt>
      <trkpt lat="41.79581" lon="-4.013685"><ele>2508</ele><speed>34</speed><time>2016-06-29T15:30:30Z</time><course>36</course><type>1</type></trkpt>
      <trkpt lat="41.7958883" lon="-4.0136017"><ele>2510</ele><speed>43</speed><time>2016-06-29T15:30:31Z</time><course>42</course><type>1</type></trkpt>
      <trkpt lat="41.7960316" lon="-4.013365"><ele>2513</ele><speed>50</speed><time>2016-06-29T15:30:33Z</time><course>55</course><type>1</type></trkpt>
      <trkpt lat="41.7960966" lon="-4.0132267"><ele>2515</ele><speed>48</speed><time>2016-06-29T15:30:34Z</time><course>63</course><type>1</type></trkpt>
      <trkpt lat="41.7961916" lon="-4.0129367"><ele>2518</ele><speed>50</speed><time>2016-06-29T15:30:36Z</time><course>68</course><type>1</type></trkpt>
      <trkpt lat="41.7962366" lon="-4.0127667"><ele>2519</ele><speed>57</speed><time>2016-06-29T15:30:37Z</time><course>73</course><type>1</type></trkpt>
      <trkpt lat="41.7962833" lon="-4.01238"><ele>2523</ele><speed>60</speed><time>2016-06-29T15:30:39Z</time><course>84</course><type>1</type></trkpt>
      <trkpt lat="41.7962949" lon="-4.01219"><ele>2525</ele><speed>56</speed><time>2016-06-29T15:30:40Z</time><course>89</course><type>1</type></trkpt>
      <trkpt lat="41.7962949" lon="-4.011825"><ele>2528</ele><speed>55</speed><time>2016-06-29T15:30:42Z</time><course>94</course><type>1</type></trkpt>
      <trkpt lat="41.7962866" lon="-4.0116367"><ele>2530</ele><speed>59</speed><time>2016-06-29T15:30:43Z</time><course>96</course><type>1</type></trkpt>
      <trkpt lat="41.7962683" lon="-4.0114434"><ele>2532</ele><speed>59</speed><time>2016-06-29T15:30:44Z</time><course>103</course><type>1</type></trkpt>
      <trkpt lat="41.7961983" lon="-4.01107"><ele>2535</ele><speed>58</speed><time>2016-06-29T15:30:46Z</time><course>108</course><type>1</type></trkpt>
      <trkpt lat="41.7961583" lon="-4.010885"><ele>2537</ele><speed>58</speed><time>2016-06-29T15:30:47Z</time><course>106</course><type>1</type></trkpt>
      <trkpt lat="41.7960966" lon="-4.010535"><ele>2542</ele><speed>47</speed><time>2016-06-29T15:30:49Z</time><course>103</course><type>1</type></trkpt>
      <trkpt lat="41.7960699" lon="-4.0103934"><ele>2544</ele><speed>41</speed><time>2016-06-29T15:30:50Z</time><course>106</course><type>1</type></trkpt>
      <trkpt lat="41.796" lon="-4.0101067"><ele>2547</ele><speed>45</speed><time>2016-06-29T15:30:52Z</time><course>108</course><type>1</type></trkpt>
      <trkpt lat="41.7959066" lon="-4.0097534"><ele>2550</ele><speed>56</speed><time>2016-06-29T15:30:54Z</time><course>110</course><type>1</type></trkpt>
      <trkpt lat="41.7957883" lon="-4.0094117"><ele>2554</ele><speed>56</speed><time>2016-06-29T15:30:56Z</time><course>118</course><type>1</type></trkpt>
      <trkpt lat="41.7956583" lon="-4.009095"><ele>2558</ele><speed>54</speed><time>2016-06-29T15:30:58Z</time><course>121</course><type>1</type></trkpt>
      <trkpt lat="41.795595" lon="-4.0089217"><ele>2560</ele><speed>57</speed><time>2016-06-29T15:30:59Z</time><course>116</course><type>1</type></trkpt>
      <trkpt lat="41.7955333" lon="-4.0087517"><ele>2562</ele><speed>56</speed><time>2016-06-29T15:31:00Z</time><course>117</course><type>1</type></trkpt>
      <trkpt lat="41.7953949" lon="-4.00845"><ele>2567</ele><speed>52</speed><time>2016-06-29T15:31:02Z</time><course>123</course><type>1</type></trkpt>
      <trkpt lat="41.7952533" lon="-4.0081684"><ele>2571</ele><speed>48</speed><time>2016-06-29T15:31:04Z</time><course>123</course><type>1</type></trkpt>
      <trkpt lat="41.7951016" lon="-4.0079167"><ele>2576</ele><speed>48</speed><time>2016-06-29T15:31:06Z</time><course>132</course><type>1</type></trkpt>
      <trkpt lat="41.7950183" lon="-4.0078034"><ele>2578</ele><speed>48</speed><time>2016-06-29T15:31:07Z</time><course>135</course><type>1</type></trkpt>
      <trkpt lat="41.7948366" lon="-4.0076017"><ele>2583</ele><speed>46</speed><time>2016-06-29T15:31:09Z</time><course>142</course><type>1</type></trkpt>
      <trkpt lat="41.7947433" lon="-4.0075217"><ele>2585</ele><speed>44</speed><time>2016-06-29T15:31:10Z</time><course>146</course><type>1</type></trkpt>
      <trkpt lat="41.79456" lon="-4.0073834"><ele>2589</ele><speed>40</speed><time>2016-06-29T15:31:12Z</time><course>154</course><type>1</type></trkpt>
      <trkpt lat="41.7944599" lon="-4.00733"><ele>2591</ele><speed>43</speed><time>2016-06-29T15:31:13Z</time><course>155</course><type>1</type></trkpt>
      <trkpt lat="41.794255" lon="-4.0072534"><ele>2594</ele><speed>40</speed><time>2016-06-29T15:31:15Z</time><course>166</course><type>1</type></trkpt>
      <trkpt lat="41.7940666" lon="-4.00724"><ele>2597</ele><speed>35</speed><time>2016-06-29T15:31:17Z</time><course>180</course><type>1</type></trkpt>
      <trkpt lat="41.7939016" lon="-4.0072734"><ele>2600</ele><speed>32</speed><time>2016-06-29T15:31:19Z</time><course>188</course><type>1</type></trkpt>
      <trkpt lat="41.7938216" lon="-4.0073134"><ele>2601</ele><speed>32</speed><time>2016-06-29T15:31:20Z</time><course>198</course><type>1</type></trkpt>
      <trkpt lat="41.7936683" lon="-4.0074"><ele>2604</ele><speed>31</speed><time>2016-06-29T15:31:22Z</time><course>209</course><type>1</type></trkpt>
      <trkpt lat="41.7935616" lon="-4.0075434"><ele>2607</ele><speed>28</speed><time>2016-06-29T15:31:24Z</time><course>237</course><type>1</type></trkpt>
      <trkpt lat="41.793535" lon="-4.0076234"><ele>2609</ele><speed>24</speed><time>2016-06-29T15:31:25Z</time><course>248</course><type>1</type></trkpt>
      <trkpt lat="41.7935016" lon="-4.0077767"><ele>2612</ele><speed>20</speed><time>2016-06-29T15:31:27Z</time><course>254</course><type>1</type></trkpt>
      <trkpt lat="41.79349" lon="-4.00785"><ele>2614</ele><speed>20</speed><time>2016-06-29T15:31:28Z</time><course>259</course><type>1</type></trkpt>
      <trkpt lat="41.7934833" lon="-4.0079984"><ele>2616</ele><speed>24</speed><time>2016-06-29T15:31:30Z</time><course>270</course><type>1</type></trkpt>
      <trkpt lat="41.7934883" lon="-4.008085"><ele>2618</ele><speed>24</speed><time>2016-06-29T15:31:31Z</time><course>275</course><type>1</type></trkpt>
      <trkpt lat="41.7934916" lon="-4.0081634"><ele>2620</ele><speed>21</speed><time>2016-06-29T15:31:32Z</time><course>271</course><type>1</type></trkpt>
      <trkpt lat="41.7935083" lon="-4.0082867"><ele>2624</ele><speed>17</speed><time>2016-06-29T15:31:34Z</time><course>293</course><type>1</type></trkpt>
      <trkpt lat="41.793565" lon="-4.0083934"><ele>2627</ele><speed>21</speed><time>2016-06-29T15:31:36Z</time><course>317</course><type>1</type></trkpt>
      <trkpt lat="41.793615" lon="-4.0084234"><ele>2628</ele><speed>19</speed><time>2016-06-29T15:31:37Z</time><course>341</course><type>1</type></trkpt>
      <trkpt lat="41.7936683" lon="-4.0084317"><ele>2630</ele><speed>24</speed><time>2016-06-29T15:31:38Z</time><course>344</course><type>1</type></trkpt>
      <trkpt lat="41.7937866" lon="-4.008435"><ele>2633</ele><speed>23</speed><time>2016-06-29T15:31:40Z</time><course>10</course><type>1</type></trkpt>
      <trkpt lat="41.7939216" lon="-4.0083667"><ele>2635</ele><speed>30</speed><time>2016-06-29T15:31:42Z</time><course>25</course><type>1</type></trkpt>
      <trkpt lat="41.7940616" lon="-4.0082617"><ele>2637</ele><speed>34</speed><time>2016-06-29T15:31:44Z</time><course>33</course><type>1</type></trkpt>
      <trkpt lat="41.7941233" lon="-4.0081834"><ele>2638</ele><speed>36</speed><time>2016-06-29T15:31:45Z</time><course>44</course><type>1</type></trkpt>
      <trkpt lat="41.7942266" lon="-4.00797"><ele>2639</ele><speed>41</speed><time>2016-06-29T15:31:47Z</time><course>65</course><type>1</type></trkpt>
      <trkpt lat="41.79426" lon="-4.0078417"><ele>2641</ele><speed>41</speed><time>2016-06-29T15:31:48Z</time><course>73</course><type>1</type></trkpt>
      <trkpt lat="41.7943233" lon="-4.00757"><ele>2643</ele><speed>44</speed><time>2016-06-29T15:31:50Z</time><course>68</course><type>1</type></trkpt>
      <trkpt lat="41.7943616" lon="-4.0072767"><ele>2645</ele><speed>47</speed><time>2016-06-29T15:31:52Z</time><course>86</course><type>1</type></trkpt>
      <trkpt lat="41.7943416" lon="-4.0069317"><ele>2646</ele><speed>53</speed><time>2016-06-29T15:31:54Z</time><course>99</course><type>1</type></trkpt>
      <trkpt lat="41.7943133" lon="-4.0067617"><ele>2647</ele><speed>52</speed><time>2016-06-29T15:31:55Z</time><course>107</course><type>1</type></trkpt>
      <trkpt lat="41.7942683" lon="-4.006605"><ele>2648</ele><speed>49</speed><time>2016-06-29T15:31:56Z</time><course>114</course><type>1</type></trkpt>
      <trkpt lat="41.7941683" lon="-4.0063017"><ele>2650</ele><speed>50</speed><time>2016-06-29T15:31:58Z</time><course>116</course><type>1</type></trkpt>
      <trkpt lat="41.7940533" lon="-4.0060067"><ele>2653</ele><speed>52</speed><time>2016-06-29T15:32:00Z</time><course>120</course><type>1</type></trkpt>
      <trkpt lat="41.7939883" lon="-4.0058684"><ele>2654</ele><speed>49</speed><time>2016-06-29T15:32:01Z</time><course>124</course><type>1</type></trkpt>
      <trkpt lat="41.7939183" lon="-4.005745"><ele>2655</ele><speed>45</speed><time>2016-06-29T15:32:02Z</time><course>132</course><type>1</type></trkpt>
      <trkpt lat="41.793755" lon="-4.0055167"><ele>2658</ele><speed>50</speed><time>2016-06-29T15:32:04Z</time><course>136</course><type>1</type></trkpt>
      <trkpt lat="41.7935766" lon="-4.005305"><ele>2661</ele><speed>45</speed><time>2016-06-29T15:32:06Z</time><course>139</course><type>1</type></trkpt>
      <trkpt lat="41.7934" lon="-4.0051284"><ele>2660</ele><speed>40</speed><time>2016-06-29T15:32:08Z</time><course>147</course><type>1</type></trkpt>
      <trkpt lat="41.7932133" lon="-4.0049634"><ele>2660</ele><speed>45</speed><time>2016-06-29T15:32:10Z</time><course>148</course><type>1</type></trkpt>
      <trkpt lat="41.7930083" lon="-4.004815"><ele>2659</ele><speed>46</speed><time>2016-06-29T15:32:12Z</time><course>153</course><type>1</type></trkpt>
      <trkpt lat="41.7928133" lon="-4.0047117"><ele>2659</ele><speed>34</speed><time>2016-06-29T15:32:14Z</time><course>159</course><type>1</type></trkpt>
      <trkpt lat="41.79272" lon="-4.0046934"><ele>2659</ele><speed>36</speed><time>2016-06-29T15:32:15Z</time><course>170</course><type>1</type></trkpt>
      <trkpt lat="41.7926249" lon="-4.0046767"><ele>2659</ele><speed>37</speed><time>2016-06-29T15:32:16Z</time><course>172</course><type>1</type></trkpt>
      <trkpt lat="41.79241" lon="-4.0046767"><ele>2659</ele><speed>43</speed><time>2016-06-29T15:32:18Z</time><course>184</course><type>1</type></trkpt>
      <trkpt lat="41.7921966" lon="-4.0047384"><ele>2659</ele><speed>40</speed><time>2016-06-29T15:32:20Z</time><course>197</course><type>1</type></trkpt>
      <trkpt lat="41.7920216" lon="-4.0048184"><ele>2659</ele><speed>33</speed><time>2016-06-29T15:32:22Z</time><course>199</course><type>1</type></trkpt>
      <trkpt lat="41.7918633" lon="-4.0049217"><ele>2658</ele><speed>35</speed><time>2016-06-29T15:32:24Z</time><course>208</course><type>1</type></trkpt>
      <trkpt lat="41.791785" lon="-4.0049884"><ele>2658</ele><speed>36</speed><time>2016-06-29T15:32:25Z</time><course>213</course><type>1</type></trkpt>
      <trkpt lat="41.7917133" lon="-4.0050617"><ele>2658</ele><speed>34</speed><time>2016-06-29T15:32:26Z</time><course>220</course><type>1</type></trkpt>
      <trkpt lat="41.7916166" lon="-4.0052184"><ele>2658</ele><speed>28</speed><time>2016-06-29T15:32:28Z</time><course>241</course><type>1</type></trkpt>
      <trkpt lat="41.7915683" lon="-4.00539"><ele>2657</ele><speed>27</speed><time>2016-06-29T15:32:30Z</time><course>257</course><type>1</type></trkpt>
      <trkpt lat="41.7915383" lon="-4.0055817"><ele>2656</ele><speed>29</speed><time>2016-06-29T15:32:32Z</time><course>260</course><type>1</type></trkpt>
      <trkpt lat="41.7915183" lon="-4.0057667"><ele>2655</ele><speed>27</speed><time>2016-06-29T15:32:34Z</time><course>266</course><type>1</type></trkpt>
      <trkpt lat="41.7915433" lon="-4.0059517"><ele>2654</ele><speed>29</speed><time>2016-06-29T15:32:36Z</time><course>292</course><type>1</type></trkpt>
      <trkpt lat="41.7916116" lon="-4.0060984"><ele>2651</ele><speed>26</speed><time>2016-06-29T15:32:38Z</time><course>303</course><type>1</type></trkpt>
      <trkpt lat="41.7916533" lon="-4.006165"><ele>2650</ele><speed>28</speed><time>2016-06-29T15:32:39Z</time><course>309</course><type>1</type></trkpt>
      <trkpt lat="41.7917683" lon="-4.0063067"><ele>2649</ele><speed>33</speed><time>2016-06-29T15:32:41Z</time><course>318</course><type>1</type></trkpt>
      <trkpt lat="41.7918866" lon="-4.0064367"><ele>2646</ele><speed>32</speed><time>2016-06-29T15:32:43Z</time><course>320</course><type>1</type></trkpt>
      <trkpt lat="41.7919516" lon="-4.006495"><ele>2644</ele><speed>30</speed><time>2016-06-29T15:32:44Z</time><course>329</course><type>1</type></trkpt>
      <trkpt lat="41.7920966" lon="-4.0066067"><ele>2641</ele><speed>37</speed><time>2016-06-29T15:32:46Z</time><course>327</course><type>1</type></trkpt>
      <trkpt lat="41.7922383" lon="-4.0067184"><ele>2638</ele><speed>29</speed><time>2016-06-29T15:32:48Z</time><course>330</course><type>1</type></trkpt>
      <trkpt lat="41.792305" lon="-4.0067617"><ele>2637</ele><speed>30</speed><time>2016-06-29T15:32:49Z</time><course>338</course><type>1</type></trkpt>
      <trkpt lat="41.792495" lon="-4.00681"><ele>2635</ele><speed>44</speed><time>2016-06-29T15:32:51Z</time><course>359</course><type>1</type></trkpt>
      <trkpt lat="41.7926866" lon="-4.00675"><ele>2633</ele><speed>37</speed><time>2016-06-29T15:32:53Z</time><course>25</course><type>1</type></trkpt>
      <trkpt lat="41.7927616" lon="-4.006695"><ele>2632</ele><speed>31</speed><time>2016-06-29T15:32:54Z</time><course>32</course><type>1</type></trkpt>
      <trkpt lat="41.7928283" lon="-4.006645"><ele>2631</ele><speed>30</speed><time>2016-06-29T15:32:55Z</time><course>28</course><type>1</type></trkpt>
      <trkpt lat="41.7930083" lon="-4.00655"><ele>2629</ele><speed>41</speed><time>2016-06-29T15:32:57Z</time><course>19</course><type>1</type></trkpt>
      <trkpt lat="41.7931066" lon="-4.0064867"><ele>2629</ele><speed>45</speed><time>2016-06-29T15:32:58Z</time><course>26</course><type>1</type></trkpt>
      <trkpt lat="41.79327" lon="-4.006315"><ele>2628</ele><speed>39</speed><time>2016-06-29T15:33:00Z</time><course>45</course><type>1</type></trkpt>
      <trkpt lat="41.7933383" lon="-4.0062201"><ele>2627</ele><speed>37</speed><time>2016-06-29T15:33:01Z</time><course>48</course><type>1</type></trkpt>
      <trkpt lat="41.7934666" lon="-4.0060267"><ele>2624</ele><speed>40</speed><time>2016-06-29T15:33:03Z</time><course>45</course><type>1</type></trkpt>
      <trkpt lat="41.7935366" lon="-4.0059217"><ele>2622</ele><speed>42</speed><time>2016-06-29T15:33:04Z</time><course>48</course><type>1</type></trkpt>
      <trkpt lat="41.7936866" lon="-4.0056734"><ele>2620</ele><speed>49</speed><time>2016-06-29T15:33:06Z</time><course>52</course><type>1</type></trkpt>
      <trkpt lat="41.7937533" lon="-4.0055467"><ele>2619</ele><speed>43</speed><time>2016-06-29T15:33:07Z</time><course>57</course><type>1</type></trkpt>
      <trkpt lat="41.7938616" lon="-4.0053084"><ele>2618</ele><speed>39</speed><time>2016-06-29T15:33:09Z</time><course>59</course><type>1</type></trkpt>
      <trkpt lat="41.7939116" lon="-4.0051884"><ele>2617</ele><speed>38</speed><time>2016-06-29T15:33:10Z</time><course>67</course><type>1</type></trkpt>
      <trkpt lat="41.7939516" lon="-4.0050634"><ele>2617</ele><speed>41</speed><time>2016-06-29T15:33:11Z</time><course>66</course><type>1</type></trkpt>
      <trkpt lat="41.7940483" lon="-4.0047834"><ele>2615</ele><speed>50</speed><time>2016-06-29T15:33:13Z</time><course>61</course><type>1</type></trkpt>
      <trkpt lat="41.7941483" lon="-4.0044834"><ele>2613</ele><speed>47</speed><time>2016-06-29T15:33:15Z</time><course>66</course><type>1</type></trkpt>
      <trkpt lat="41.7942" lon="-4.0043334"><ele>2612</ele><speed>46</speed><time>2016-06-29T15:33:16Z</time><course>66</course><type>1</type></trkpt>
      <trkpt lat="41.7942916" lon="-4.004035"><ele>2612</ele><speed>46</speed><time>2016-06-29T15:33:18Z</time><course>73</course><type>1</type></trkpt>
      <trkpt lat="41.794345" lon="-4.0037184"><ele>2614</ele><speed>46</speed><time>2016-06-29T15:33:20Z</time><course>80</course><type>1</type></trkpt>
      <trkpt lat="41.794395" lon="-4.0034317"><ele>2616</ele><speed>41</speed><time>2016-06-29T15:33:22Z</time><course>75</course><type>1</type></trkpt>
      <trkpt lat="41.7944233" lon="-4.003295"><ele>2617</ele><speed>43</speed><time>2016-06-29T15:33:23Z</time><course>73</course><type>1</type></trkpt>
      <trkpt lat="41.79445" lon="-4.003145"><ele>2618</ele><speed>46</speed><time>2016-06-29T15:33:24Z</time><course>82</course><type>1</type></trkpt>
      <trkpt lat="41.7944583" lon="-4.0029784"><ele>2618</ele><speed>52</speed><time>2016-06-29T15:33:25Z</time><course>89</course><type>1</type></trkpt>
      <trkpt lat="41.7944416" lon="-4.00263"><ele>2621</ele><speed>53</speed><time>2016-06-29T15:33:27Z</time><course>103</course><type>1</type></trkpt>
      <trkpt lat="41.79443" lon="-4.002455"><ele>2623</ele><speed>54</speed><time>2016-06-29T15:33:28Z</time><course>103</course><type>1</type></trkpt>
      <trkpt lat="41.7943933" lon="-4.002105"><ele>2627</ele><speed>53</speed><time>2016-06-29T15:33:30Z</time><course>103</course><type>1</type></trkpt>
      <trkpt lat="41.79434" lon="-4.001755"><ele>2630</ele><speed>50</speed><time>2016-06-29T15:33:32Z</time><course>107</course><type>1</type></trkpt>
      <trkpt lat="41.79427" lon="-4.001445"><ele>2634</ele><speed>47</speed><time>2016-06-29T15:33:34Z</time><course>113</course><type>1</type></trkpt>
      <trkpt lat="41.7942133" lon="-4.0013017"><ele>2636</ele><speed>50</speed><time>2016-06-29T15:33:35Z</time><course>117</course><type>1</type></trkpt>
      <trkpt lat="41.7940716" lon="-4.0010534"><ele>2640</ele><speed>48</speed><time>2016-06-29T15:33:37Z</time><course>141</course><type>1</type></trkpt>
      <trkpt lat="41.7939883" lon="-4.00097"><ele>2641</ele><speed>50</speed><time>2016-06-29T15:33:38Z</time><course>145</course><type>1</type></trkpt>
      <trkpt lat="41.79381" lon="-4.0008484"><ele>2643</ele><speed>39</speed><time>2016-06-29T15:33:40Z</time><course>158</course><type>1</type></trkpt>
      <trkpt lat="41.7937016" lon="-4.0007834"><ele>2645</ele><speed>40</speed><time>2016-06-29T15:33:41Z</time><course>160</course><type>1</type></trkpt>
      <trkpt lat="41.7935216" lon="-4.0007034"><ele>2647</ele><speed>34</speed><time>2016-06-29T15:33:43Z</time><course>173</course><type>1</type></trkpt>
      <trkpt lat="41.7934466" lon="-4.0006967"><ele>2648</ele><speed>25</speed><time>2016-06-29T15:33:44Z</time><course>182</course><type>1</type></trkpt>
      <trkpt lat="41.7933133" lon="-4.0007184"><ele>2650</ele><speed>24</speed><time>2016-06-29T15:33:46Z</time><course>197</course><type>1</type></trkpt>
      <trkpt lat="41.79325" lon="-4.0007484"><ele>2651</ele><speed>26</speed><time>2016-06-29T15:33:47Z</time><course>204</course><type>1</type></trkpt>
      <trkpt lat="41.7931633" lon="-4.00086"><ele>2654</ele><speed>20</speed><time>2016-06-29T15:33:49Z</time><course>249</course><type>1</type></trkpt>
      <trkpt lat="41.7932183" lon="-4.0009517"><ele>2655</ele><speed>13</speed><time>2016-06-29T15:33:52Z</time><course>339</course><type>1</type></trkpt>
      <trkpt lat="41.793355" lon="-4.0009784"><ele>2655</ele><speed>26</speed><time>2016-06-29T15:33:55Z</time><course>5</course><type>1</type></trkpt>
      <trkpt lat="41.7935166" lon="-4.0008467"><ele>2657</ele><speed>44</speed><time>2016-06-29T15:33:57Z</time><course>46</course><type>1</type></trkpt>
      <trkpt lat="41.7936383" lon="-4.0005667"><ele>2658</ele><speed>51</speed><time>2016-06-29T15:33:59Z</time><course>67</course><type>1</type></trkpt>
      <trkpt lat="41.7936816" lon="-4.00041"><ele>2660</ele><speed>48</speed><time>2016-06-29T15:34:00Z</time><course>71</course><type>1</type></trkpt>
      <trkpt lat="41.7937583" lon="-4.0001301"><ele>2663</ele><speed>41</speed><time>2016-06-29T15:34:02Z</time><course>67</course><type>1</type></trkpt>
      <trkpt lat="41.7938516" lon="-3.9998817"><ele>2665</ele><speed>42</speed><time>2016-06-29T15:34:04Z</time><course>59</course><type>1</type></trkpt>
      <trkpt lat="41.79397" lon="-3.9996351"><ele>2667</ele><speed>43</speed><time>2016-06-29T15:34:06Z</time><course>54</course><type>1</type></trkpt>
      <trkpt lat="41.7940333" lon="-3.9995217"><ele>2669</ele><speed>41</speed><time>2016-06-29T15:34:07Z</time><course>53</course><type>1</type></trkpt>
      <trkpt lat="41.7941566" lon="-3.9992967"><ele>2672</ele><speed>43</speed><time>2016-06-29T15:34:09Z</time><course>56</course><type>1</type></trkpt>
      <trkpt lat="41.7942583" lon="-3.9990467"><ele>2675</ele><speed>42</speed><time>2016-06-29T15:34:11Z</time><course>65</course><type>1</type></trkpt>
      <trkpt lat="41.7943366" lon="-3.998775"><ele>2678</ele><speed>47</speed><time>2016-06-29T15:34:13Z</time><course>65</course><type>1</type></trkpt>
      <trkpt lat="41.7943816" lon="-3.99846"><ele>2681</ele><speed>47</speed><time>2016-06-29T15:34:15Z</time><course>89</course><type>1</type></trkpt>
      <trkpt lat="41.7943716" lon="-3.9982917"><ele>2683</ele><speed>48</speed><time>2016-06-29T15:34:16Z</time><course>94</course><type>1</type></trkpt>
      <trkpt lat="41.794305" lon="-3.9979667"><ele>2687</ele><speed>47</speed><time>2016-06-29T15:34:18Z</time><course>107</course><type>1</type></trkpt>
      <trkpt lat="41.79426" lon="-3.997815"><ele>2689</ele><speed>47</speed><time>2016-06-29T15:34:19Z</time><course>110</course><type>1</type></trkpt>
      <trkpt lat="41.7941516" lon="-3.99752"><ele>2692</ele><speed>48</speed><time>2016-06-29T15:34:21Z</time><course>119</course><type>1</type></trkpt>
      <trkpt lat="41.794085" lon="-3.997385"><ele>2693</ele><speed>46</speed><time>2016-06-29T15:34:22Z</time><course>127</course><type>1</type></trkpt>
      <trkpt lat="41.7939333" lon="-3.9971734"><ele>2696</ele><speed>40</speed><time>2016-06-29T15:34:24Z</time><course>140</course><type>1</type></trkpt>
      <trkpt lat="41.7938566" lon="-3.9970984"><ele>2697</ele><speed>37</speed><time>2016-06-29T15:34:25Z</time><course>142</course><type>1</type></trkpt>
      <trkpt lat="41.7937066" lon="-3.9969867"><ele>2698</ele><speed>33</speed><time>2016-06-29T15:34:27Z</time><course>149</course><type>1</type></trkpt>
      <trkpt lat="41.7936216" lon="-3.9969734"><ele>2699</ele><speed>35</speed><time>2016-06-29T15:34:28Z</time><course>171</course><type>1</type></trkpt>
      <trkpt lat="41.7934566" lon="-3.9969984"><ele>2702</ele><speed>32</speed><time>2016-06-29T15:34:30Z</time><course>187</course><type>1</type></trkpt>
      <trkpt lat="41.7933349" lon="-3.99708"><ele>2704</ele><speed>24</speed><time>2016-06-29T15:34:32Z</time><course>201</course><type>1</type></trkpt>
      <trkpt lat="41.793295" lon="-3.99713"><ele>2705</ele><speed>19</speed><time>2016-06-29T15:34:33Z</time><course>225</course><type>1</type></trkpt>
      <trkpt lat="41.7932583" lon="-3.99723"><ele>2707</ele><speed>15</speed><time>2016-06-29T15:34:35Z</time><course>255</course><type>1</type></trkpt>
      <trkpt lat="41.79326" lon="-3.9973384"><ele>2708</ele><speed>17</speed><time>2016-06-29T15:34:37Z</time><course>283</course><type>1</type></trkpt>
      <trkpt lat="41.793285" lon="-3.9973817"><ele>2708</ele><speed>19</speed><time>2016-06-29T15:34:38Z</time><course>320</course><type>1</type></trkpt>
      <trkpt lat="41.7934033" lon="-3.9974234"><ele>2708</ele><speed>28</speed><time>2016-06-29T15:34:40Z</time><course>352</course><type>1</type></trkpt>
      <trkpt lat="41.7935383" lon="-3.9974017"><ele>2709</ele><speed>28</speed><time>2016-06-29T15:34:42Z</time><course>13</course><type>1</type></trkpt>
      <trkpt lat="41.7936816" lon="-3.9973334"><ele>2711</ele><speed>34</speed><time>2016-06-29T15:34:44Z</time><course>24</course><type>1</type></trkpt>
      <trkpt lat="41.7937583" lon="-3.9972734"><ele>2712</ele><speed>37</speed><time>2016-06-29T15:34:45Z</time><course>32</course><type>1</type></trkpt>
      <trkpt lat="41.7938383" lon="-3.9972017"><ele>2713</ele><speed>39</speed><time>2016-06-29T15:34:46Z</time><course>34</course><type>1</type></trkpt>
      <trkpt lat="41.7939866" lon="-3.997015"><ele>2716</ele><speed>40</speed><time>2016-06-29T15:34:48Z</time><course>46</course><type>1</type></trkpt>
      <trkpt lat="41.7940549" lon="-3.996915"><ele>2716</ele><speed>39</speed><time>2016-06-29T15:34:49Z</time><course>47</course><type>1</type></trkpt>
      <trkpt lat="41.7941916" lon="-3.996715"><ele>2719</ele><speed>41</speed><time>2016-06-29T15:34:51Z</time><course>47</course><type>1</type></trkpt>
      <trkpt lat="41.79432" lon="-3.99647"><ele>2720</ele><speed>47</speed><time>2016-06-29T15:34:53Z</time><course>58</course><type>1</type></trkpt>
      <trkpt lat="41.7944283" lon="-3.9961901"><ele>2725</ele><speed>48</speed><time>2016-06-29T15:34:55Z</time><course>71</course><type>1</type></trkpt>
      <trkpt lat="41.7944716" lon="-3.9958834"><ele>2728</ele><speed>46</speed><time>2016-06-29T15:34:57Z</time><course>86</course><type>1</type></trkpt>
      <trkpt lat="41.79447" lon="-3.995555"><ele>2731</ele><speed>46</speed><time>2016-06-29T15:34:59Z</time><course>100</course><type>1</type></trkpt>
      <trkpt lat="41.7944416" lon="-3.9953967"><ele>2732</ele><speed>48</speed><time>2016-06-29T15:35:00Z</time><course>108</course><type>1</type></trkpt>
      <trkpt lat="41.79439" lon="-3.9952534"><ele>2734</ele><speed>48</speed><time>2016-06-29T15:35:01Z</time><course>119</course><type>1</type></trkpt>
      <trkpt lat="41.7942383" lon="-3.9950067"><ele>2737</ele><speed>50</speed><time>2016-06-29T15:35:03Z</time><course>137</course><type>1</type></trkpt>
      <trkpt lat="41.7941483" lon="-3.994915"><ele>2738</ele><speed>41</speed><time>2016-06-29T15:35:04Z</time><course>148</course><type>1</type></trkpt>
      <trkpt lat="41.7939783" lon="-3.99483"><ele>2741</ele><speed>33</speed><time>2016-06-29T15:35:06Z</time><course>164</course><type>1</type></trkpt>
      <trkpt lat="41.793825" lon="-3.9948117"><ele>2743</ele><speed>29</speed><time>2016-06-29T15:35:08Z</time><course>183</course><type>1</type></trkpt>
      <trkpt lat="41.7937016" lon="-3.99488"><ele>2745</ele><speed>23</speed><time>2016-06-29T15:35:10Z</time><course>221</course><type>1</type></trkpt>
      <trkpt lat="41.79367" lon="-3.99501"><ele>2747</ele><speed>22</speed><time>2016-06-29T15:35:12Z</time><course>283</course><type>1</type></trkpt>
      <trkpt lat="41.7936983" lon="-3.9950684"><ele>2747</ele><speed>22</speed><time>2016-06-29T15:35:13Z</time><course>311</course><type>1</type></trkpt>
      <trkpt lat="41.79379" lon="-3.9951467"><ele>2748</ele><speed>22</speed><time>2016-06-29T15:35:15Z</time><course>337</course><type>1</type></trkpt>
      <trkpt lat="41.7939383" lon="-3.995135"><ele>2749</ele><speed>34</speed><time>2016-06-29T15:35:17Z</time><course>6</course><type>1</type></trkpt>
      <trkpt lat="41.7941216" lon="-3.9950517"><ele>2750</ele><speed>43</speed><time>2016-06-29T15:35:19Z</time><course>27</course><type>1</type></trkpt>
      <trkpt lat="41.79421" lon="-3.99497"><ele>2751</ele><speed>45</speed><time>2016-06-29T15:35:20Z</time><course>40</course><type>1</type></trkpt>
      <trkpt lat="41.7943516" lon="-3.9947667"><ele>2753</ele><speed>38</speed><time>2016-06-29T15:35:22Z</time><course>46</course><type>1</type></trkpt>
      <trkpt lat="41.7944166" lon="-3.9946767"><ele>2754</ele><speed>37</speed><time>2016-06-29T15:35:23Z</time><course>42</course><type>1</type></trkpt>
      <trkpt lat="41.7945733" lon="-3.994515"><ele>2756</ele><speed>38</speed><time>2016-06-29T15:35:25Z</time><course>39</course><type>1</type></trkpt>
      <trkpt lat="41.794655" lon="-3.9944267"><ele>2757</ele><speed>40</speed><time>2016-06-29T15:35:26Z</time><course>43</course><type>1</type></trkpt>
      <trkpt lat="41.7947266" lon="-3.994325"><ele>2758</ele><speed>41</speed><time>2016-06-29T15:35:27Z</time><course>49</course><type>1</type></trkpt>
      <trkpt lat="41.79485" lon="-3.9940834"><ele>2759</ele><speed>45</speed><time>2016-06-29T15:35:29Z</time><course>59</course><type>1</type></trkpt>
      <trkpt lat="41.79494" lon="-3.9937734"><ele>2761</ele><speed>50</speed><time>2016-06-29T15:35:31Z</time><course>76</course><type>1</type></trkpt>
      <trkpt lat="41.7949533" lon="-3.9936117"><ele>2762</ele><speed>46</speed><time>2016-06-29T15:35:32Z</time><course>88</course><type>1</type></trkpt>
      <trkpt lat="41.7949183" lon="-3.9932917"><ele>2764</ele><speed>48</speed><time>2016-06-29T15:35:34Z</time><course>107</course><type>1</type></trkpt>
      <trkpt lat="41.7948766" lon="-3.9931434"><ele>2765</ele><speed>48</speed><time>2016-06-29T15:35:35Z</time><course>113</course><type>1</type></trkpt>
      <trkpt lat="41.79475" lon="-3.9928767"><ele>2767</ele><speed>47</speed><time>2016-06-29T15:35:37Z</time><course>130</course><type>1</type></trkpt>
      <trkpt lat="41.794575" lon="-3.9926617"><ele>2768</ele><speed>47</speed><time>2016-06-29T15:35:39Z</time><course>142</course><type>1</type></trkpt>
      <trkpt lat="41.7943866" lon="-3.9925134"><ele>2771</ele><speed>40</speed><time>2016-06-29T15:35:41Z</time><course>155</course><type>1</type></trkpt>
      <trkpt lat="41.7942116" lon="-3.9924734"><ele>2772</ele><speed>33</speed><time>2016-06-29T15:35:43Z</time><course>180</course><type>1</type></trkpt>
      <trkpt lat="41.7941333" lon="-3.9924867"><ele>2773</ele><speed>29</speed><time>2016-06-29T15:35:44Z</time><course>189</course><type>1</type></trkpt>
      <trkpt lat="41.79402" lon="-3.9925567"><ele>2775</ele><speed>21</speed><time>2016-06-29T15:35:46Z</time><course>211</course><type>1</type></trkpt>
      <trkpt lat="41.7939916" lon="-3.9926017"><ele>2776</ele><speed>16</speed><time>2016-06-29T15:35:47Z</time><course>231</course><type>1</type></trkpt>
      <trkpt lat="41.793995" lon="-3.99272"><ele>2777</ele><speed>19</speed><time>2016-06-29T15:35:49Z</time><course>285</course><type>1</type></trkpt>
      <trkpt lat="41.7940183" lon="-3.992785"><ele>2777</ele><speed>22</speed><time>2016-06-29T15:35:50Z</time><course>298</course><type>1</type></trkpt>
      <trkpt lat="41.7941216" lon="-3.992885"><ele>2775</ele><speed>27</speed><time>2016-06-29T15:35:52Z</time><course>332</course><type>1</type></trkpt>
      <trkpt lat="41.794195" lon="-3.992905"><ele>2776</ele><speed>29</speed><time>2016-06-29T15:35:53Z</time><course>348</course><type>1</type></trkpt>
      <trkpt lat="41.79438" lon="-3.9928184"><ele>2777</ele><speed>39</speed><time>2016-06-29T15:35:55Z</time><course>27</course><type>1</type></trkpt>
      <trkpt lat="41.7944633" lon="-3.99275"><ele>2778</ele><speed>39</speed><time>2016-06-29T15:35:56Z</time><course>31</course><type>1</type></trkpt>
      <trkpt lat="41.7945466" lon="-3.9926784"><ele>2778</ele><speed>38</speed><time>2016-06-29T15:35:57Z</time><course>33</course><type>1</type></trkpt>
      <trkpt lat="41.7947116" lon="-3.9925267"><ele>2779</ele><speed>40</speed><time>2016-06-29T15:35:59Z</time><course>35</course><type>1</type></trkpt>
      <trkpt lat="41.7948649" lon="-3.9923367"><ele>2780</ele><speed>42</speed><time>2016-06-29T15:36:01Z</time><course>47</course><type>1</type></trkpt>
      <trkpt lat="41.79499" lon="-3.992075"><ele>2781</ele><speed>48</speed><time>2016-06-29T15:36:03Z</time><course>57</course><type>1</type></trkpt>
      <trkpt lat="41.7950933" lon="-3.9917867"><ele>2781</ele><speed>47</speed><time>2016-06-29T15:36:05Z</time><course>69</course><type>1</type></trkpt>
      <trkpt lat="41.795125" lon="-3.9916284"><ele>2782</ele><speed>50</speed><time>2016-06-29T15:36:06Z</time><course>76</course><type>1</type></trkpt>
      <trkpt lat="41.7951416" lon="-3.991275"><ele>2782</ele><speed>53</speed><time>2016-06-29T15:36:08Z</time><course>93</course><type>1</type></trkpt>
      <trkpt lat="41.795125" lon="-3.9911034"><ele>2783</ele><speed>49</speed><time>2016-06-29T15:36:09Z</time><course>100</course><type>1</type></trkpt>
      <trkpt lat="41.7950533" lon="-3.9908134"><ele>2783</ele><speed>41</speed><time>2016-06-29T15:36:11Z</time><course>110</course><type>1</type></trkpt>
      <trkpt lat="41.7950083" lon="-3.9906767"><ele>2782</ele><speed>44</speed><time>2016-06-29T15:36:12Z</time><course>113</course><type>1</type></trkpt>
      <trkpt lat="41.7948866" lon="-3.99039"><ele>2783</ele><speed>51</speed><time>2016-06-29T15:36:14Z</time><course>126</course><type>1</type></trkpt>
      <trkpt lat="41.7948116" lon="-3.9902617"><ele>2783</ele><speed>47</speed><time>2016-06-29T15:36:15Z</time><course>129</course><type>1</type></trkpt>
      <trkpt lat="41.7946583" lon="-3.9900434"><ele>2784</ele><speed>43</speed><time>2016-06-29T15:36:17Z</time><course>135</course><type>1</type></trkpt>
      <trkpt lat="41.7944966" lon="-3.9898667"><ele>2785</ele><speed>43</speed><time>2016-06-29T15:36:19Z</time><course>147</course><type>1</type></trkpt>
      <trkpt lat="41.7944016" lon="-3.9897984"><ele>2785</ele><speed>44</speed><time>2016-06-29T15:36:20Z</time><course>154</course><type>1</type></trkpt>
      <trkpt lat="41.794205" lon="-3.9897467"><ele>2786</ele><speed>37</speed><time>2016-06-29T15:36:22Z</time><course>175</course><type>1</type></trkpt>
      <trkpt lat="41.794115" lon="-3.9897467"><ele>2786</ele><speed>35</speed><time>2016-06-29T15:36:23Z</time><course>183</course><type>1</type></trkpt>
      <trkpt lat="41.7940233" lon="-3.9897534"><ele>2785</ele><speed>35</speed><time>2016-06-29T15:36:24Z</time><course>187</course><type>1</type></trkpt>
      <trkpt lat="41.7938866" lon="-3.9898017"><ele>2785</ele><speed>24</speed><time>2016-06-29T15:36:26Z</time><course>203</course><type>1</type></trkpt>
      <trkpt lat="41.7938416" lon="-3.9898434"><ele>2786</ele><speed>23</speed><time>2016-06-29T15:36:27Z</time><course>215</course><type>1</type></trkpt>
      <trkpt lat="41.7938116" lon="-3.989975"><ele>2788</ele><speed>20</speed><time>2016-06-29T15:36:29Z</time><course>268</course><type>1</type></trkpt>
      <trkpt lat="41.7938133" lon="-3.9900817"><ele>2790</ele><speed>11</speed><time>2016-06-29T15:36:31Z</time><course>287</course><type>1</type></trkpt>
      <trkpt lat="41.793895" lon="-3.9901767"><ele>2790</ele><speed>18</speed><time>2016-06-29T15:36:34Z</time><course>319</course><type>1</type></trkpt>
      <trkpt lat="41.7939766" lon="-3.9902467"><ele>2790</ele><speed>21</speed><time>2016-06-29T15:36:36Z</time><course>333</course><type>1</type></trkpt>
      <trkpt lat="41.794035" lon="-3.9902817"><ele>2791</ele><speed>25</speed><time>2016-06-29T15:36:37Z</time><course>346</course><type>1</type></trkpt>
      <trkpt lat="41.794185" lon="-3.990315"><ele>2792</ele><speed>34</speed><time>2016-06-29T15:36:39Z</time><course>358</course><type>1</type></trkpt>
      <trkpt lat="41.7943566" lon="-3.9902684"><ele>2793</ele><speed>39</speed><time>2016-06-29T15:36:41Z</time><course>24</course><type>1</type></trkpt>
      <trkpt lat="41.7945283" lon="-3.9901034"><ele>2793</ele><speed>46</speed><time>2016-06-29T15:36:43Z</time><course>44</course><type>1</type></trkpt>
      <trkpt lat="41.7946816" lon="-3.9898567"><ele>2793</ele><speed>49</speed><time>2016-06-29T15:36:45Z</time><course>51</course><type>1</type></trkpt>
      <trkpt lat="41.79475" lon="-3.989725"><ele>2792</ele><speed>48</speed><time>2016-06-29T15:36:46Z</time><course>53</course><type>1</type></trkpt>
      <trkpt lat="41.7948166" lon="-3.9895934"><ele>2792</ele><speed>48</speed><time>2016-06-29T15:36:47Z</time><course>55</course><type>1</type></trkpt>
      <trkpt lat="41.7949383" lon="-3.989325"><ele>2793</ele><speed>46</speed><time>2016-06-29T15:36:49Z</time><course>62</course><type>1</type></trkpt>
      <trkpt lat="41.79502" lon="-3.9890167"><ele>2792</ele><speed>51</speed><time>2016-06-29T15:36:51Z</time><course>71</course><type>1</type></trkpt>
      <trkpt lat="41.7950516" lon="-3.9888484"><ele>2792</ele><speed>52</speed><time>2016-06-29T15:36:52Z</time><course>77</course><type>1</type></trkpt>
      <trkpt lat="41.7950883" lon="-3.9884867"><ele>2791</ele><speed>55</speed><time>2016-06-29T15:36:54Z</time><course>83</course><type>1</type></trkpt>
      <trkpt lat="41.7950983" lon="-3.9883017"><ele>2791</ele><speed>56</speed><time>2016-06-29T15:36:55Z</time><course>87</course><type>1</type></trkpt>
      <trkpt lat="41.7950966" lon="-3.9881134"><ele>2791</ele><speed>55</speed><time>2016-06-29T15:36:56Z</time><course>92</course><type>1</type></trkpt>
      <trkpt lat="41.795065" lon="-3.98776"><ele>2790</ele><speed>51</speed><time>2016-06-29T15:36:58Z</time><course>102</course><type>1</type></trkpt>
      <trkpt lat="41.7950416" lon="-3.9875934"><ele>2789</ele><speed>50</speed><time>2016-06-29T15:36:59Z</time><course>103</course><type>1</type></trkpt>
      <trkpt lat="41.794975" lon="-3.9872517"><ele>2788</ele><speed>55</speed><time>2016-06-29T15:37:01Z</time><course>109</course><type>1</type></trkpt>
      <trkpt lat="41.7949233" lon="-3.9870884"><ele>2787</ele><speed>52</speed><time>2016-06-29T15:37:02Z</time><course>114</course><type>1</type></trkpt>
      <trkpt lat="41.7948616" lon="-3.9869467"><ele>2786</ele><speed>48</speed><time>2016-06-29T15:37:03Z</time><course>122</course><type>1</type></trkpt>
      <trkpt lat="41.7947133" lon="-3.9866934"><ele>2786</ele><speed>48</speed><time>2016-06-29T15:37:05Z</time><course>131</course><type>1</type></trkpt>
      <trkpt lat="41.7945383" lon="-3.9864584"><ele>2786</ele><speed>51</speed><time>2016-06-29T15:37:07Z</time><course>137</course><type>1</type></trkpt>
      <trkpt lat="41.794365" lon="-3.9862684"><ele>2787</ele><speed>41</speed><time>2016-06-29T15:37:09Z</time><course>143</course><type>1</type></trkpt>
      <trkpt lat="41.7942133" lon="-3.9860917"><ele>2787</ele><speed>41</speed><time>2016-06-29T15:37:11Z</time><course>132</course><type>1</type></trkpt>
      <trkpt lat="41.7940666" lon="-3.9858517"><ele>2787</ele><speed>48</speed><time>2016-06-29T15:37:13Z</time><course>127</course><type>1</type></trkpt>
      <trkpt lat="41.7939933" lon="-3.985725"><ele>2787</ele><speed>48</speed><time>2016-06-29T15:37:14Z</time><course>127</course><type>1</type></trkpt>
      <trkpt lat="41.7939199" lon="-3.985605"><ele>2788</ele><speed>45</speed><time>2016-06-29T15:37:15Z</time><course>130</course><type>1</type></trkpt>
      <trkpt lat="41.79377" lon="-3.9853867"><ele>2789</ele><speed>43</speed><time>2016-06-29T15:37:17Z</time><course>134</course><type>1</type></trkpt>
      <trkpt lat="41.7936066" lon="-3.985165"><ele>2790</ele><speed>46</speed><time>2016-06-29T15:37:19Z</time><course>132</course><type>1</type></trkpt>
      <trkpt lat="41.7935266" lon="-3.9850484"><ele>2791</ele><speed>46</speed><time>2016-06-29T15:37:20Z</time><course>131</course><type>1</type></trkpt>
      <trkpt lat="41.79345" lon="-3.9849367"><ele>2792</ele><speed>44</speed><time>2016-06-29T15:37:21Z</time><course>132</course><type>1</type></trkpt>
      <trkpt lat="41.7932899" lon="-3.9847417"><ele>2794</ele><speed>43</speed><time>2016-06-29T15:37:23Z</time><course>140</course><type>1</type></trkpt>
      <trkpt lat="41.7931199" lon="-3.9845667"><ele>2796</ele><speed>40</speed><time>2016-06-29T15:37:25Z</time><course>142</course><type>1</type></trkpt>
      <trkpt lat="41.79295" lon="-3.9844167"><ele>2797</ele><speed>39</speed><time>2016-06-29T15:37:27Z</time><course>149</course><type>1</type></trkpt>
      <trkpt lat="41.7928633" lon="-3.98435"><ele>2798</ele><speed>38</speed><time>2016-06-29T15:37:28Z</time><course>151</course><type>1</type></trkpt>
      <trkpt lat="41.7926933" lon="-3.9842117"><ele>2800</ele><speed>39</speed><time>2016-06-29T15:37:30Z</time><course>147</course><type>1</type></trkpt>
      <trkpt lat="41.7926066" lon="-3.9841451"><ele>2801</ele><speed>39</speed><time>2016-06-29T15:37:31Z</time><course>150</course><type>1</type></trkpt>
      <trkpt lat="41.7924433" lon="-3.9840667"><ele>2802</ele><speed>33</speed><time>2016-06-29T15:37:33Z</time><course>164</course><type>1</type></trkpt>
      <trkpt lat="41.792365" lon="-3.9840667"><ele>2802</ele><speed>30</speed><time>2016-06-29T15:37:34Z</time><course>181</course><type>1</type></trkpt>
      <trkpt lat="41.792205" lon="-3.9840917"><ele>2803</ele><speed>32</speed><time>2016-06-29T15:37:36Z</time><course>188</course><type>1</type></trkpt>
      <trkpt lat="41.7921266" lon="-3.984105"><ele>2804</ele><speed>30</speed><time>2016-06-29T15:37:37Z</time><course>186</course><type>1</type></trkpt>
      <trkpt lat="41.79198" lon="-3.9841367"><ele>2805</ele><speed>29</speed><time>2016-06-29T15:37:39Z</time><course>190</course><type>1</type></trkpt>
      <trkpt lat="41.7919133" lon="-3.9841784"><ele>2806</ele><speed>29</speed><time>2016-06-29T15:37:40Z</time><course>206</course><type>1</type></trkpt>
      <trkpt lat="41.7918516" lon="-3.9842334"><ele>2807</ele><speed>27</speed><time>2016-06-29T15:37:41Z</time><course>211</course><type>1</type></trkpt>
      <trkpt lat="41.79175" lon="-3.9843634"><ele>2809</ele><speed>27</speed><time>2016-06-29T15:37:43Z</time><course>230</course><type>1</type></trkpt>
      <trkpt lat="41.7916833" lon="-3.9844967"><ele>2811</ele><speed>19</speed><time>2016-06-29T15:37:45Z</time><course>239</course><type>1</type></trkpt>
      <trkpt lat="41.7916533" lon="-3.98463"><ele>2813</ele><speed>20</speed><time>2016-06-29T15:37:47Z</time><course>261</course><type>1</type></trkpt>
      <trkpt lat="41.791665" lon="-3.984755"><ele>2814</ele><speed>17</speed><time>2016-06-29T15:37:49Z</time><course>291</course><type>1</type></trkpt>
      <trkpt lat="41.7917166" lon="-3.9848484"><ele>2815</ele><speed>17</speed><time>2016-06-29T15:37:51Z</time><course>312</course><type>1</type></trkpt>
      <trkpt lat="41.791775" lon="-3.98493"><ele>2815</ele><speed>17</speed><time>2016-06-29T15:37:53Z</time><course>314</course><type>1</type></trkpt>
      <trkpt lat="41.7918116" lon="-3.9849634"><ele>2814</ele><speed>17</speed><time>2016-06-29T15:37:54Z</time><course>340</course><type>1</type></trkpt>
      <trkpt lat="41.791945" lon="-3.9849867"><ele>2812</ele><speed>35</speed><time>2016-06-29T15:37:56Z</time><course>358</course><type>1</type></trkpt>
      <trkpt lat="41.7920433" lon="-3.9849567"><ele>2810</ele><speed>42</speed><time>2016-06-29T15:37:57Z</time><course>15</course><type>1</type></trkpt>
      <trkpt lat="41.7921483" lon="-3.9848984"><ele>2808</ele><speed>44</speed><time>2016-06-29T15:37:58Z</time><course>19</course><type>1</type></trkpt>
      <trkpt lat="41.792335" lon="-3.9847117"><ele>2806</ele><speed>42</speed><time>2016-06-29T15:38:00Z</time><course>37</course><type>1</type></trkpt>
      <trkpt lat="41.7925" lon="-3.9845434"><ele>2802</ele><speed>41</speed><time>2016-06-29T15:38:02Z</time><course>32</course><type>1</type></trkpt>
      <trkpt lat="41.792685" lon="-3.9843384"><ele>2799</ele><speed>53</speed><time>2016-06-29T15:38:04Z</time><course>49</course><type>1</type></trkpt>
      <trkpt lat="41.7928183" lon="-3.9840067"><ele>2796</ele><speed>55</speed><time>2016-06-29T15:38:06Z</time><course>70</course><type>1</type></trkpt>
      <trkpt lat="41.7928733" lon="-3.9836284"><ele>2793</ele><speed>57</speed><time>2016-06-29T15:38:08Z</time><course>81</course><type>1</type></trkpt>
      <trkpt lat="41.792875" lon="-3.983435"><ele>2792</ele><speed>59</speed><time>2016-06-29T15:38:09Z</time><course>83</course><type>1</type></trkpt>
      <trkpt lat="41.7928783" lon="-3.9830434"><ele>2790</ele><speed>57</speed><time>2016-06-29T15:38:11Z</time><course>93</course><type>1</type></trkpt>
      <trkpt lat="41.7928633" lon="-3.9828534"><ele>2789</ele><speed>58</speed><time>2016-06-29T15:38:12Z</time><course>96</course><type>1</type></trkpt>
      <trkpt lat="41.79283" lon="-3.9824767"><ele>2789</ele><speed>53</speed><time>2016-06-29T15:38:14Z</time><course>99</course><type>1</type></trkpt>
      <trkpt lat="41.7928133" lon="-3.9822984"><ele>2789</ele><speed>51</speed><time>2016-06-29T15:38:15Z</time><course>99</course><type>1</type></trkpt>
      <trkpt lat="41.792785" lon="-3.981945"><ele>2788</ele><speed>54</speed><time>2016-06-29T15:38:17Z</time><course>95</course><type>1</type></trkpt>
      <trkpt lat="41.7927433" lon="-3.981575"><ele>2787</ele><speed>55</speed><time>2016-06-29T15:38:19Z</time><course>101</course><type>1</type></trkpt>
      <trkpt lat="41.7926766" lon="-3.9812284"><ele>2788</ele><speed>51</speed><time>2016-06-29T15:38:21Z</time><course>106</course><type>1</type></trkpt>
      <trkpt lat="41.7926" lon="-3.9809184"><ele>2789</ele><speed>50</speed><time>2016-06-29T15:38:23Z</time><course>110</course><type>1</type></trkpt>
      <trkpt lat="41.7924899" lon="-3.9806134"><ele>2790</ele><speed>51</speed><time>2016-06-29T15:38:25Z</time><course>117</course><type>1</type></trkpt>
      <trkpt lat="41.7923666" lon="-3.98032"><ele>2792</ele><speed>51</speed><time>2016-06-29T15:38:27Z</time><course>120</course><type>1</type></trkpt>
      <trkpt lat="41.7922183" lon="-3.9800517"><ele>2793</ele><speed>47</speed><time>2016-06-29T15:38:29Z</time><course>127</course><type>1</type></trkpt>
      <trkpt lat="41.792065" lon="-3.9798334"><ele>2795</ele><speed>42</speed><time>2016-06-29T15:38:31Z</time><course>136</course><type>1</type></trkpt>
      <trkpt lat="41.79198" lon="-3.9797434"><ele>2793</ele><speed>43</speed><time>2016-06-29T15:38:32Z</time><course>141</course><type>1</type></trkpt>
      <trkpt lat="41.7918" lon="-3.9795667"><ele>2792</ele><speed>41</speed><time>2016-06-29T15:38:34Z</time><course>147</course><type>1</type></trkpt>
      <trkpt lat="41.7917133" lon="-3.9795067"><ele>2791</ele><speed>39</speed><time>2016-06-29T15:38:35Z</time><course>153</course><type>1</type></trkpt>
      <trkpt lat="41.79152" lon="-3.979405"><ele>2789</ele><speed>41</speed><time>2016-06-29T15:38:37Z</time><course>164</course><type>1</type></trkpt>
      <trkpt lat="41.7914166" lon="-3.9793717"><ele>2788</ele><speed>41</speed><time>2016-06-29T15:38:38Z</time><course>167</course><type>1</type></trkpt>
      <trkpt lat="41.7912216" lon="-3.9793534"><ele>2787</ele><speed>37</speed><time>2016-06-29T15:38:40Z</time><course>183</course><type>1</type></trkpt>
      <trkpt lat="41.791055" lon="-3.9794034"><ele>2787</ele><speed>31</speed><time>2016-06-29T15:38:42Z</time><course>201</course><type>1</type></trkpt>
      <trkpt lat="41.7909333" lon="-3.9795034"><ele>2786</ele><speed>26</speed><time>2016-06-29T15:38:44Z</time><course>218</course><type>1</type></trkpt>
      <trkpt lat="41.790875" lon="-3.97957"><ele>2784</ele><speed>30</speed><time>2016-06-29T15:38:45Z</time><course>223</course><type>1</type></trkpt>
      <trkpt lat="41.790775" lon="-3.97971"><ele>2784</ele><speed>33</speed><time>2016-06-29T15:38:47Z</time><course>232</course><type>1</type></trkpt>
      <trkpt lat="41.7906899" lon="-3.97988"><ele>2783</ele><speed>27</speed><time>2016-06-29T15:38:49Z</time><course>237</course><type>1</type></trkpt>
      <trkpt lat="41.7906566" lon="-3.9799534"><ele>2783</ele><speed>24</speed><time>2016-06-29T15:38:50Z</time><course>231</course><type>1</type></trkpt>
      <trkpt lat="41.790595" lon="-3.98008"><ele>2783</ele><speed>21</speed><time>2016-06-29T15:38:52Z</time><course>238</course><type>1</type></trkpt>
      <trkpt lat="41.7905566" lon="-3.9802284"><ele>2782</ele><speed>23</speed><time>2016-06-29T15:38:54Z</time><course>254</course><type>1</type></trkpt>
      <trkpt lat="41.7905466" lon="-3.9802967"><ele>2782</ele><speed>20</speed><time>2016-06-29T15:38:55Z</time><course>256</course><type>1</type></trkpt>
      <trkpt lat="41.790525" lon="-3.9804301"><ele>2781</ele><speed>17</speed><time>2016-06-29T15:38:57Z</time><course>249</course><type>1</type></trkpt>
      <trkpt lat="41.790495" lon="-3.98057"><ele>2780</ele><speed>25</speed><time>2016-06-29T15:38:59Z</time><course>260</course><type>1</type></trkpt>
      <trkpt lat="41.7905016" lon="-3.980705"><ele>2779</ele><speed>18</speed><time>2016-06-29T15:39:01Z</time><course>277</course><type>1</type></trkpt>
      <trkpt lat="41.7905116" lon="-3.9807567"><ele>2778</ele><speed>14</speed><time>2016-06-29T15:39:02Z</time><course>280</course><type>1</type></trkpt>
      <trkpt lat="41.7905566" lon="-3.98084"><ele>2777</ele><speed>13</speed><time>2016-06-29T15:39:04Z</time><course>307</course><type>1</type></trkpt>
      <trkpt lat="41.7905833" lon="-3.9808734"><ele>2775</ele><speed>15</speed><time>2016-06-29T15:39:05Z</time><course>314</course><type>1</type></trkpt>
      <trkpt lat="41.7906716" lon="-3.9809517"><ele>2773</ele><speed>23</speed><time>2016-06-29T15:39:07Z</time><course>332</course><type>1</type></trkpt>
      <trkpt lat="41.7907316" lon="-3.980985"><ele>2772</ele><speed>26</speed><time>2016-06-29T15:39:08Z</time><course>338</course><type>1</type></trkpt>
      <trkpt lat="41.7908533" lon="-3.9810134"><ele>2768</ele><speed>25</speed><time>2016-06-29T15:39:10Z</time><course>355</course><type>1</type></trkpt>
      <trkpt lat="41.7909983" lon="-3.9809867"><ele>2764</ele><speed>32</speed><time>2016-06-29T15:39:12Z</time><course>8</course><type>1</type></trkpt>
      <trkpt lat="41.7911833" lon="-3.9808984"><ele>2757</ele><speed>44</speed><time>2016-06-29T15:39:14Z</time><course>24</course><type>1</type></trkpt>
      <trkpt lat="41.7913683" lon="-3.9807217"><ele>2752</ele><speed>48</speed><time>2016-06-29T15:39:16Z</time><course>44</course><type>1</type></trkpt>
      <trkpt lat="41.79151" lon="-3.9804684"><ele>2746</ele><speed>48</speed><time>2016-06-29T15:39:18Z</time><course>56</course><type>1</type></trkpt>
      <trkpt lat="41.791575" lon="-3.98033"><ele>2745</ele><speed>49</speed><time>2016-06-29T15:39:19Z</time><course>59</course><type>1</type></trkpt>
      <trkpt lat="41.791685" lon="-3.98002"><ele>2741</ele><speed>55</speed><time>2016-06-29T15:39:21Z</time><course>66</course><type>1</type></trkpt>
      <trkpt lat="41.7917766" lon="-3.97965"><ele>2737</ele><speed>60</speed><time>2016-06-29T15:39:23Z</time><course>73</course><type>1</type></trkpt>
      <trkpt lat="41.7918083" lon="-3.97945"><ele>2735</ele><speed>60</speed><time>2016-06-29T15:39:24Z</time><course>80</course><type>1</type></trkpt>
      <trkpt lat="41.79183" lon="-3.9790434"><ele>2732</ele><speed>60</speed><time>2016-06-29T15:39:26Z</time><course>91</course><type>1</type></trkpt>
      <trkpt lat="41.7918116" lon="-3.9786484"><ele>2730</ele><speed>56</speed><time>2016-06-29T15:39:28Z</time><course>95</course><type>1</type></trkpt>
      <trkpt lat="41.7918033" lon="-3.9782717"><ele>2729</ele><speed>56</speed><time>2016-06-29T15:39:30Z</time><course>92</course><type>1</type></trkpt>
      <trkpt lat="41.7917933" lon="-3.9778834"><ele>2726</ele><speed>58</speed><time>2016-06-29T15:39:32Z</time><course>93</course><type>1</type></trkpt>
      <trkpt lat="41.79176" lon="-3.977495"><ele>2724</ele><speed>57</speed><time>2016-06-29T15:39:34Z</time><course>103</course><type>1</type></trkpt>
      <trkpt lat="41.7917216" lon="-3.977305"><ele>2722</ele><speed>57</speed><time>2016-06-29T15:39:35Z</time><course>108</course><type>1</type></trkpt>
      <trkpt lat="41.7916266" lon="-3.9769717"><ele>2721</ele><speed>55</speed><time>2016-06-29T15:39:37Z</time><course>110</course><type>1</type></trkpt>
      <trkpt lat="41.7915833" lon="-3.9768217"><ele>2721</ele><speed>47</speed><time>2016-06-29T15:39:38Z</time><course>110</course><type>1</type></trkpt>
      <trkpt lat="41.7915483" lon="-3.97668"><ele>2720</ele><speed>42</speed><time>2016-06-29T15:39:39Z</time><course>108</course><type>1</type></trkpt>
      <trkpt lat="41.791505" lon="-3.97654"><ele>2720</ele><speed>45</speed><time>2016-06-29T15:39:40Z</time><course>112</course><type>1</type></trkpt>
      <trkpt lat="41.7914133" lon="-3.9762334"><ele>2717</ele><speed>49</speed><time>2016-06-29T15:39:42Z</time><course>107</course><type>1</type></trkpt>
      <trkpt lat="41.7913433" lon="-3.975915"><ele>2715</ele><speed>47</speed><time>2016-06-29T15:39:44Z</time><course>106</course><type>1</type></trkpt>
      <trkpt lat="41.7913016" lon="-3.9757684"><ele>2714</ele><speed>50</speed><time>2016-06-29T15:39:45Z</time><course>114</course><type>1</type></trkpt>
      <trkpt lat="41.791175" lon="-3.9754634"><ele>2711</ele><speed>51</speed><time>2016-06-29T15:39:47Z</time><course>117</course><type>1</type></trkpt>
      <trkpt lat="41.7911183" lon="-3.9753017"><ele>2710</ele><speed>54</speed><time>2016-06-29T15:39:48Z</time><course>112</course><type>1</type></trkpt>
      <trkpt lat="41.79107" lon="-3.97514"><ele>2710</ele><speed>55</speed><time>2016-06-29T15:39:49Z</time><course>110</course><type>1</type></trkpt>
      <trkpt lat="41.7909616" lon="-3.97482"><ele>2708</ele><speed>49</speed><time>2016-06-29T15:39:51Z</time><course>115</course><type>1</type></trkpt>
      <trkpt lat="41.7908416" lon="-3.9745167"><ele>2705</ele><speed>56</speed><time>2016-06-29T15:39:53Z</time><course>120</course><type>1</type></trkpt>
      <trkpt lat="41.7907233" lon="-3.9741567"><ele>2704</ele><speed>58</speed><time>2016-06-29T15:39:55Z</time><course>113</course><type>1</type></trkpt>
      <trkpt lat="41.7906716" lon="-3.974005"><ele>2705</ele><speed>48</speed><time>2016-06-29T15:39:56Z</time><course>119</course><type>1</type></trkpt>
      <trkpt lat="41.7905383" lon="-3.97375"><ele>2704</ele><speed>47</speed><time>2016-06-29T15:39:58Z</time><course>129</course><type>1</type></trkpt>
      <trkpt lat="41.790455" lon="-3.97362"><ele>2704</ele><speed>52</speed><time>2016-06-29T15:39:59Z</time><course>129</course><type>1</type></trkpt>
      <trkpt lat="41.7902833" lon="-3.9732984"><ele>2704</ele><speed>62</speed><time>2016-06-29T15:40:01Z</time><course>122</course><type>1</type></trkpt>
      <trkpt lat="41.790205" lon="-3.9731234"><ele>2704</ele><speed>61</speed><time>2016-06-29T15:40:02Z</time><course>121</course><type>1</type></trkpt>
      <trkpt lat="41.7900483" lon="-3.97279"><ele>2704</ele><speed>56</speed><time>2016-06-29T15:40:04Z</time><course>121</course><type>1</type></trkpt>
      <trkpt lat="41.7898883" lon="-3.9724601"><ele>2704</ele><speed>61</speed><time>2016-06-29T15:40:06Z</time><course>123</course><type>1</type></trkpt>
      <trkpt lat="41.7897066" lon="-3.972135"><ele>2704</ele><speed>58</speed><time>2016-06-29T15:40:08Z</time><course>130</course><type>1</type></trkpt>
      <trkpt lat="41.7895133" lon="-3.971905"><ele>2704</ele><speed>47</speed><time>2016-06-29T15:40:10Z</time><course>143</course><type>1</type></trkpt>
      <trkpt lat="41.789325" lon="-3.9717284"><ele>2702</ele><speed>42</speed><time>2016-06-29T15:40:12Z</time><course>144</course><type>1</type></trkpt>
      <trkpt lat="41.7891433" lon="-3.97156"><ele>2701</ele><speed>46</speed><time>2016-06-29T15:40:14Z</time><course>145</course><type>1</type></trkpt>
      <trkpt lat="41.7890383" lon="-3.9714834"><ele>2700</ele><speed>47</speed><time>2016-06-29T15:40:15Z</time><course>153</course><type>1</type></trkpt>
      <trkpt lat="41.7889283" lon="-3.97145"><ele>2699</ele><speed>42</speed><time>2016-06-29T15:40:16Z</time><course>168</course><type>1</type></trkpt>
      <trkpt lat="41.78876" lon="-3.9714534"><ele>2697</ele><speed>29</speed><time>2016-06-29T15:40:18Z</time><course>190</course><type>1</type></trkpt>
      <trkpt lat="41.788635" lon="-3.9715267"><ele>2693</ele><speed>29</speed><time>2016-06-29T15:40:20Z</time><course>214</course><type>1</type></trkpt>
      <trkpt lat="41.7885633" lon="-3.97166"><ele>2692</ele><speed>25</speed><time>2016-06-29T15:40:22Z</time><course>255</course><type>1</type></trkpt>
      <trkpt lat="41.7885566" lon="-3.9717384"><ele>2691</ele><speed>24</speed><time>2016-06-29T15:40:23Z</time><course>267</course><type>1</type></trkpt>
      <trkpt lat="41.7885633" lon="-3.97181"><ele>2690</ele><speed>20</speed><time>2016-06-29T15:40:24Z</time><course>282</course><type>1</type></trkpt>
      <trkpt lat="41.7885583" lon="-3.9719184"><ele>2688</ele><speed>13</speed><time>2016-06-29T15:40:26Z</time><course>267</course><type>1</type></trkpt>
      <trkpt lat="41.7886216" lon="-3.9720434"><ele>2682</ele><speed>23</speed><time>2016-06-29T15:40:29Z</time><course>333</course><type>1</type></trkpt>
      <trkpt lat="41.788755" lon="-3.97204"><ele>2678</ele><speed>30</speed><time>2016-06-29T15:40:31Z</time><course>5</course><type>1</type></trkpt>
      <trkpt lat="41.7888183" lon="-3.97197"><ele>2675</ele><speed>34</speed><time>2016-06-29T15:40:32Z</time><course>36</course><type>1</type></trkpt>
      <trkpt lat="41.7889533" lon="-3.9717684"><ele>2668</ele><speed>45</speed><time>2016-06-29T15:40:34Z</time><course>52</course><type>1</type></trkpt>
      <trkpt lat="41.7890233" lon="-3.97164"><ele>2667</ele><speed>48</speed><time>2016-06-29T15:40:35Z</time><course>53</course><type>1</type></trkpt>
      <trkpt lat="41.78915" lon="-3.9713667"><ele>2664</ele><speed>43</speed><time>2016-06-29T15:40:37Z</time><course>60</course><type>1</type></trkpt>
      <trkpt lat="41.7892" lon="-3.9712417"><ele>2663</ele><speed>39</speed><time>2016-06-29T15:40:38Z</time><course>63</course><type>1</type></trkpt>
      <trkpt lat="41.7892433" lon="-3.9711234"><ele>2662</ele><speed>39</speed><time>2016-06-29T15:40:39Z</time><course>63</course><type>1</type></trkpt>
      <trkpt lat="41.789335" lon="-3.970865"><ele>2660</ele><speed>44</speed><time>2016-06-29T15:40:41Z</time><course>65</course><type>1</type></trkpt>
      <trkpt lat="41.7893816" lon="-3.9707334"><ele>2659</ele><speed>43</speed><time>2016-06-29T15:40:42Z</time><course>62</course><type>1</type></trkpt>
      <trkpt lat="41.7895" lon="-3.9704717"><ele>2657</ele><speed>46</speed><time>2016-06-29T15:40:44Z</time><course>60</course><type>1</type></trkpt>
      <trkpt lat="41.7896083" lon="-3.9701834"><ele>2656</ele><speed>50</speed><time>2016-06-29T15:40:46Z</time><course>68</course><type>1</type></trkpt>
      <trkpt lat="41.78969" lon="-3.9698567"><ele>2655</ele><speed>52</speed><time>2016-06-29T15:40:48Z</time><course>72</course><type>1</type></trkpt>
      <trkpt lat="41.7897733" lon="-3.9695217"><ele>2654</ele><speed>53</speed><time>2016-06-29T15:40:50Z</time><course>70</course><type>1</type></trkpt>
      <trkpt lat="41.7898516" lon="-3.9691817"><ele>2653</ele><speed>53</speed><time>2016-06-29T15:40:52Z</time><course>76</course><type>1</type></trkpt>
      <trkpt lat="41.7898783" lon="-3.9690034"><ele>2653</ele><speed>54</speed><time>2016-06-29T15:40:53Z</time><course>78</course><type>1</type></trkpt>
      <trkpt lat="41.789905" lon="-3.9688134"><ele>2653</ele><speed>57</speed><time>2016-06-29T15:40:54Z</time><course>81</course><type>1</type></trkpt>
      <trkpt lat="41.7899333" lon="-3.9684234"><ele>2653</ele><speed>60</speed><time>2016-06-29T15:40:56Z</time><course>86</course><type>1</type></trkpt>
      <trkpt lat="41.7899383" lon="-3.9680267"><ele>2652</ele><speed>60</speed><time>2016-06-29T15:40:58Z</time><course>89</course><type>1</type></trkpt>
      <trkpt lat="41.7899466" lon="-3.96762"><ele>2653</ele><speed>61</speed><time>2016-06-29T15:41:00Z</time><course>91</course><type>1</type></trkpt>
      <trkpt lat="41.7899466" lon="-3.96742"><ele>2653</ele><speed>61</speed><time>2016-06-29T15:41:01Z</time><course>92</course><type>1</type></trkpt>
      <trkpt lat="41.7899416" lon="-3.9670284"><ele>2652</ele><speed>59</speed><time>2016-06-29T15:41:03Z</time><course>90</course><type>1</type></trkpt>
      <trkpt lat="41.789945" lon="-3.966625"><ele>2651</ele><speed>59</speed><time>2016-06-29T15:41:05Z</time><course>91</course><type>1</type></trkpt>
      <trkpt lat="41.7899616" lon="-3.9662334"><ele>2650</ele><speed>57</speed><time>2016-06-29T15:41:07Z</time><course>89</course><type>1</type></trkpt>
      <trkpt lat="41.7899466" lon="-3.965825"><ele>2647</ele><speed>58</speed><time>2016-06-29T15:41:09Z</time><course>92</course><type>1</type></trkpt>
      <trkpt lat="41.78993" lon="-3.965605"><ele>2647</ele><speed>67</speed><time>2016-06-29T15:41:10Z</time><course>99</course><type>1</type></trkpt>
      <trkpt lat="41.78989" lon="-3.9651867"><ele>2647</ele><speed>59</speed><time>2016-06-29T15:41:12Z</time><course>98</course><type>1</type></trkpt>
      <trkpt lat="41.7898666" lon="-3.9649984"><ele>2647</ele><speed>56</speed><time>2016-06-29T15:41:13Z</time><course>99</course><type>1</type></trkpt>
      <trkpt lat="41.789805" lon="-3.9646217"><ele>2648</ele><speed>59</speed><time>2016-06-29T15:41:15Z</time><course>106</course><type>1</type></trkpt>
      <trkpt lat="41.78976" lon="-3.9644284"><ele>2647</ele><speed>56</speed><time>2016-06-29T15:41:16Z</time><course>109</course><type>1</type></trkpt>
      <trkpt lat="41.7896716" lon="-3.9640417"><ele>2647</ele><speed>61</speed><time>2016-06-29T15:41:18Z</time><course>103</course><type>1</type></trkpt>
      <trkpt lat="41.7896033" lon="-3.9636284"><ele>2646</ele><speed>66</speed><time>2016-06-29T15:41:20Z</time><course>103</course><type>1</type></trkpt>
      <trkpt lat="41.7894933" lon="-3.9631984"><ele>2646</ele><speed>69</speed><time>2016-06-29T15:41:22Z</time><course>113</course><type>1</type></trkpt>
      <trkpt lat="41.7893283" lon="-3.9628017"><ele>2646</ele><speed>65</speed><time>2016-06-29T15:41:24Z</time><course>122</course><type>1</type></trkpt>
      <trkpt lat="41.789245" lon="-3.96262"><ele>2647</ele><speed>63</speed><time>2016-06-29T15:41:25Z</time><course>121</course><type>1</type></trkpt>
      <trkpt lat="41.7890716" lon="-3.9622734"><ele>2648</ele><speed>63</speed><time>2016-06-29T15:41:27Z</time><course>126</course><type>1</type></trkpt>
      <trkpt lat="41.7888616" lon="-3.9619717"><ele>2649</ele><speed>61</speed><time>2016-06-29T15:41:29Z</time><course>135</course><type>1</type></trkpt>
      <trkpt lat="41.7886583" lon="-3.9616984"><ele>2651</ele><speed>54</speed><time>2016-06-29T15:41:31Z</time><course>133</course><type>1</type></trkpt>
      <trkpt lat="41.7884683" lon="-3.9614384"><ele>2651</ele><speed>54</speed><time>2016-06-29T15:41:33Z</time><course>137</course><type>1</type></trkpt>
      <trkpt lat="41.788245" lon="-3.9612084"><ele>2651</ele><speed>57</speed><time>2016-06-29T15:41:35Z</time><course>144</course><type>1</type></trkpt>
      <trkpt lat="41.7880133" lon="-3.9610534"><ele>2651</ele><speed>50</speed><time>2016-06-29T15:41:37Z</time><course>156</course><type>1</type></trkpt>
      <trkpt lat="41.7879" lon="-3.960995"><ele>2651</ele><speed>47</speed><time>2016-06-29T15:41:38Z</time><course>161</course><type>1</type></trkpt>
      <trkpt lat="41.787685" lon="-3.960885"><ele>2652</ele><speed>46</speed><time>2016-06-29T15:41:40Z</time><course>158</course><type>1</type></trkpt>
      <trkpt lat="41.7875766" lon="-3.9608284"><ele>2652</ele><speed>43</speed><time>2016-06-29T15:41:41Z</time><course>159</course><type>1</type></trkpt>
      <trkpt lat="41.78737" lon="-3.96075"><ele>2654</ele><speed>43</speed><time>2016-06-29T15:41:43Z</time><course>167</course><type>1</type></trkpt>
      <trkpt lat="41.78718" lon="-3.9607534"><ele>2655</ele><speed>36</speed><time>2016-06-29T15:41:45Z</time><course>185</course><type>1</type></trkpt>
      <trkpt lat="41.787025" lon="-3.96076"><ele>2658</ele><speed>29</speed><time>2016-06-29T15:41:47Z</time><course>185</course><type>1</type></trkpt>
      <trkpt lat="41.7869533" lon="-3.9607634"><ele>2658</ele><speed>27</speed><time>2016-06-29T15:41:48Z</time><course>188</course><type>1</type></trkpt>
      <trkpt lat="41.786825" lon="-3.9608017"><ele>2660</ele><speed>26</speed><time>2016-06-29T15:41:50Z</time><course>197</course><type>1</type></trkpt>
      <trkpt lat="41.786715" lon="-3.9608651"><ele>2663</ele><speed>22</speed><time>2016-06-29T15:41:52Z</time><course>211</course><type>1</type></trkpt>
      <trkpt lat="41.78668" lon="-3.9609067"><ele>2665</ele><speed>18</speed><time>2016-06-29T15:41:53Z</time><course>220</course><type>1</type></trkpt>
      <trkpt lat="41.7866516" lon="-3.9609384"><ele>2665</ele><speed>12</speed><time>2016-06-29T15:41:54Z</time><course>222</course><type>1</type></trkpt>
      <trkpt lat="41.7866083" lon="-3.961005"><ele>2667</ele><speed>9</speed><time>2016-06-29T15:41:56Z</time><course>240</course><type>1</type></trkpt>
      <trkpt lat="41.7865866" lon="-3.9610901"><ele>2669</ele><speed>13</speed><time>2016-06-29T15:41:58Z</time><course>265</course><type>1</type></trkpt>
      <trkpt lat="41.7866016" lon="-3.9611734"><ele>2669</ele><speed>11</speed><time>2016-06-29T15:42:00Z</time><course>305</course><type>1</type></trkpt>
      <trkpt lat="41.7867366" lon="-3.96119"><ele>2666</ele><speed>28</speed><time>2016-06-29T15:42:03Z</time><course>8</course><type>1</type></trkpt>
      <trkpt lat="41.7868116" lon="-3.9611584"><ele>2665</ele><speed>33</speed><time>2016-06-29T15:42:04Z</time><course>19</course><type>1</type></trkpt>
      <trkpt lat="41.7869683" lon="-3.9610467"><ele>2664</ele><speed>38</speed><time>2016-06-29T15:42:06Z</time><course>37</course><type>1</type></trkpt>
      <trkpt lat="41.787045" lon="-3.9609617"><ele>2663</ele><speed>40</speed><time>2016-06-29T15:42:07Z</time><course>41</course><type>1</type></trkpt>
      <trkpt lat="41.78717" lon="-3.9607"><ele>2657</ele><speed>51</speed><time>2016-06-29T15:42:09Z</time><course>61</course><type>1</type></trkpt>
      <trkpt lat="41.7872683" lon="-3.96035"><ele>2654</ele><speed>59</speed><time>2016-06-29T15:42:11Z</time><course>73</course><type>1</type></trkpt>
      <trkpt lat="41.7873066" lon="-3.9599367"><ele>2650</ele><speed>63</speed><time>2016-06-29T15:42:13Z</time><course>85</course><type>1</type></trkpt>
      <trkpt lat="41.7872916" lon="-3.9595034"><ele>2647</ele><speed>65</speed><time>2016-06-29T15:42:15Z</time><course>95</course><type>1</type></trkpt>
      <trkpt lat="41.787265" lon="-3.959285"><ele>2646</ele><speed>66</speed><time>2016-06-29T15:42:16Z</time><course>100</course><type>1</type></trkpt>
      <trkpt lat="41.787225" lon="-3.95906"><ele>2645</ele><speed>69</speed><time>2016-06-29T15:42:17Z</time><course>102</course><type>1</type></trkpt>
      <trkpt lat="41.787105" lon="-3.9586184"><ele>2644</ele><speed>70</speed><time>2016-06-29T15:42:19Z</time><course>107</course><type>1</type></trkpt>
      <trkpt lat="41.78706" lon="-3.9584084"><ele>2643</ele><speed>62</speed><time>2016-06-29T15:42:20Z</time><course>103</course><type>1</type></trkpt>
      <trkpt lat="41.7869966" lon="-3.95801"><ele>2643</ele><speed>59</speed><time>2016-06-29T15:42:22Z</time><course>101</course><type>1</type></trkpt>
      <trkpt lat="41.78696" lon="-3.9578184"><ele>2643</ele><speed>58</speed><time>2016-06-29T15:42:23Z</time><course>101</course><type>1</type></trkpt>
      <trkpt lat="41.7869283" lon="-3.9576267"><ele>2643</ele><speed>57</speed><time>2016-06-29T15:42:24Z</time><course>103</course><type>1</type></trkpt>
      <trkpt lat="41.7868666" lon="-3.95725"><ele>2643</ele><speed>58</speed><time>2016-06-29T15:42:26Z</time><course>100</course><type>1</type></trkpt>
      <trkpt lat="41.7867916" lon="-3.9568784"><ele>2643</ele><speed>55</speed><time>2016-06-29T15:42:28Z</time><course>111</course><type>1</type></trkpt>
      <trkpt lat="41.78673" lon="-3.9567117"><ele>2643</ele><speed>56</speed><time>2016-06-29T15:42:29Z</time><course>118</course><type>1</type></trkpt>
      <trkpt lat="41.7866583" lon="-3.9565467"><ele>2643</ele><speed>56</speed><time>2016-06-29T15:42:30Z</time><course>120</course><type>1</type></trkpt>
      <trkpt lat="41.7865083" lon="-3.9562317"><ele>2643</ele><speed>56</speed><time>2016-06-29T15:42:32Z</time><course>124</course><type>1</type></trkpt>
      <trkpt lat="41.7863283" lon="-3.9559517"><ele>2643</ele><speed>55</speed><time>2016-06-29T15:42:34Z</time><course>133</course><type>1</type></trkpt>
      <trkpt lat="41.7862233" lon="-3.9558267"><ele>2643</ele><speed>56</speed><time>2016-06-29T15:42:35Z</time><course>138</course><type>1</type></trkpt>
      <trkpt lat="41.7861083" lon="-3.9557217"><ele>2643</ele><speed>56</speed><time>2016-06-29T15:42:36Z</time><course>144</course><type>1</type></trkpt>
      <trkpt lat="41.78588" lon="-3.955555"><ele>2644</ele><speed>49</speed><time>2016-06-29T15:42:38Z</time><course>152</course><type>1</type></trkpt>
      <trkpt lat="41.7856699" lon="-3.9554517"><ele>2643</ele><speed>41</speed><time>2016-06-29T15:42:40Z</time><course>163</course><type>1</type></trkpt>
      <trkpt lat="41.78557" lon="-3.955415"><ele>2643</ele><speed>42</speed><time>2016-06-29T15:42:41Z</time><course>165</course><type>1</type></trkpt>
      <trkpt lat="41.78547" lon="-3.9553917"><ele>2642</ele><speed>40</speed><time>2016-06-29T15:42:42Z</time><course>169</course><type>1</type></trkpt>
      <trkpt lat="41.785295" lon="-3.95539"><ele>2643</ele><speed>33</speed><time>2016-06-29T15:42:44Z</time><course>182</course><type>1</type></trkpt>
      <trkpt lat="41.785195" lon="-3.95543"><ele>2646</ele><speed>17</speed><time>2016-06-29T15:42:46Z</time><course>188</course><type>1</type></trkpt>
      <trkpt lat="41.7851533" lon="-3.9554467"><ele>2646</ele><speed>18</speed><time>2016-06-29T15:42:47Z</time><course>203</course><type>1</type></trkpt>
      <trkpt lat="41.7850933" lon="-3.9555084"><ele>2646</ele><speed>18</speed><time>2016-06-29T15:42:49Z</time><course>238</course><type>1</type></trkpt>
      <trkpt lat="41.7850716" lon="-3.9555567"><ele>2646</ele><speed>15</speed><time>2016-06-29T15:42:50Z</time><course>240</course><type>1</type></trkpt>
      <trkpt lat="41.7850933" lon="-3.9556"><ele>2646</ele><speed>9</speed><time>2016-06-29T15:42:52Z</time><course>349</course><type>1</type></trkpt>
      <trkpt lat="41.7851783" lon="-3.9555851"><ele>2648</ele><speed>17</speed><time>2016-06-29T15:42:54Z</time><course>13</course><type>1</type></trkpt>
      <trkpt lat="41.785225" lon="-3.9555667"><ele>2649</ele><speed>19</speed><time>2016-06-29T15:42:55Z</time><course>20</course><type>1</type></trkpt>
      <trkpt lat="41.7853366" lon="-3.9554734"><ele>2649</ele><speed>30</speed><time>2016-06-29T15:42:57Z</time><course>40</course><type>1</type></trkpt>
      <trkpt lat="41.7853983" lon="-3.9553917"><ele>2650</ele><speed>36</speed><time>2016-06-29T15:42:58Z</time><course>46</course><type>1</type></trkpt>
      <trkpt lat="41.7855216" lon="-3.9551884"><ele>2651</ele><speed>38</speed><time>2016-06-29T15:43:00Z</time><course>53</course><type>1</type></trkpt>
      <trkpt lat="41.78563" lon="-3.9549734"><ele>2651</ele><speed>37</speed><time>2016-06-29T15:43:02Z</time><course>56</course><type>1</type></trkpt>
      <trkpt lat="41.78568" lon="-3.9548634"><ele>2652</ele><speed>39</speed><time>2016-06-29T15:43:03Z</time><course>56</course><type>1</type></trkpt>
      <trkpt lat="41.7857816" lon="-3.954605"><ele>2652</ele><speed>47</speed><time>2016-06-29T15:43:05Z</time><course>69</course><type>1</type></trkpt>
      <trkpt lat="41.7858483" lon="-3.95427"><ele>2652</ele><speed>53</speed><time>2016-06-29T15:43:07Z</time><course>78</course><type>1</type></trkpt>
      <trkpt lat="41.785865" lon="-3.9540867"><ele>2652</ele><speed>55</speed><time>2016-06-29T15:43:08Z</time><course>82</course><type>1</type></trkpt>
      <trkpt lat="41.7859016" lon="-3.95371"><ele>2651</ele><speed>58</speed><time>2016-06-29T15:43:10Z</time><course>83</course><type>1</type></trkpt>
      <trkpt lat="41.7859033" lon="-3.9533184"><ele>2650</ele><speed>57</speed><time>2016-06-29T15:43:12Z</time><course>94</course><type>1</type></trkpt>
      <trkpt lat="41.78586" lon="-3.952945"><ele>2651</ele><speed>57</speed><time>2016-06-29T15:43:14Z</time><course>101</course><type>1</type></trkpt>
      <trkpt lat="41.7857783" lon="-3.952585"><ele>2649</ele><speed>56</speed><time>2016-06-29T15:43:16Z</time><course>110</course><type>1</type></trkpt>
      <trkpt lat="41.7857266" lon="-3.952405"><ele>2649</ele><speed>58</speed><time>2016-06-29T15:43:17Z</time><course>113</course><type>1</type></trkpt>
      <trkpt lat="41.7856133" lon="-3.95205"><ele>2648</ele><speed>58</speed><time>2016-06-29T15:43:19Z</time><course>115</course><type>1</type></trkpt>
      <trkpt lat="41.7854883" lon="-3.95172"><ele>2648</ele><speed>53</speed><time>2016-06-29T15:43:21Z</time><course>120</course><type>1</type></trkpt>
      <trkpt lat="41.7853466" lon="-3.9514034"><ele>2648</ele><speed>58</speed><time>2016-06-29T15:43:23Z</time><course>122</course><type>1</type></trkpt>
      <trkpt lat="41.7851833" lon="-3.9510734"><ele>2647</ele><speed>61</speed><time>2016-06-29T15:43:25Z</time><course>126</course><type>1</type></trkpt>
      <trkpt lat="41.7849916" lon="-3.950775"><ele>2647</ele><speed>58</speed><time>2016-06-29T15:43:27Z</time><course>134</course><type>1</type></trkpt>
      <trkpt lat="41.7847916" lon="-3.9505084"><ele>2647</ele><speed>54</speed><time>2016-06-29T15:43:29Z</time><course>135</course><type>1</type></trkpt>
      <trkpt lat="41.7846033" lon="-3.9502667"><ele>2645</ele><speed>50</speed><time>2016-06-29T15:43:31Z</time><course>138</course><type>1</type></trkpt>
      <trkpt lat="41.7844999" lon="-3.9501717"><ele>2643</ele><speed>50</speed><time>2016-06-29T15:43:32Z</time><course>148</course><type>1</type></trkpt>
      <trkpt lat="41.7842783" lon="-3.9500217"><ele>2639</ele><speed>52</speed><time>2016-06-29T15:43:34Z</time><course>154</course><type>1</type></trkpt>
      <trkpt lat="41.7841633" lon="-3.9499517"><ele>2638</ele><speed>50</speed><time>2016-06-29T15:43:35Z</time><course>155</course><type>1</type></trkpt>
      <trkpt lat="41.7840516" lon="-3.9498917"><ele>2636</ele><speed>47</speed><time>2016-06-29T15:43:36Z</time><course>157</course><type>1</type></trkpt>
      <trkpt lat="41.78383" lon="-3.9498134"><ele>2634</ele><speed>43</speed><time>2016-06-29T15:43:38Z</time><course>172</course><type>1</type></trkpt>
      <trkpt lat="41.7836483" lon="-3.949825"><ele>2632</ele><speed>32</speed><time>2016-06-29T15:43:40Z</time><course>190</course><type>1</type></trkpt>
      <trkpt lat="41.78353" lon="-3.9498784"><ele>2630</ele><speed>24</speed><time>2016-06-29T15:43:42Z</time><course>202</course><type>1</type></trkpt>
      <trkpt lat="41.78347" lon="-3.9499117"><ele>2629</ele><speed>27</speed><time>2016-06-29T15:43:43Z</time><course>207</course><type>1</type></trkpt>
      <trkpt lat="41.7834033" lon="-3.94996"><ele>2629</ele><speed>30</speed><time>2016-06-29T15:43:44Z</time><course>207</course><type>1</type></trkpt>
      <trkpt lat="41.7833166" lon="-3.9500517"><ele>2627</ele><speed>18</speed><time>2016-06-29T15:43:46Z</time><course>238</course><type>1</type></trkpt>
      <trkpt lat="41.7832916" lon="-3.9501017"><ele>2626</ele><speed>15</speed><time>2016-06-29T15:43:47Z</time><course>242</course><type>1</type></trkpt>
      <trkpt lat="41.7833216" lon="-3.95015"><ele>2625</ele><speed>11</speed><time>2016-06-29T15:43:49Z</time><course>334</course><type>1</type></trkpt>
      <trkpt lat="41.7834499" lon="-3.9501417"><ele>2622</ele><speed>24</speed><time>2016-06-29T15:43:52Z</time><course>15</course><type>1</type></trkpt>
      <trkpt lat="41.783515" lon="-3.9501034"><ele>2622</ele><speed>29</speed><time>2016-06-29T15:43:53Z</time><course>26</course><type>1</type></trkpt>
      <trkpt lat="41.7835766" lon="-3.95004"><ele>2622</ele><speed>32</speed><time>2016-06-29T15:43:54Z</time><course>44</course><type>1</type></trkpt>
      <trkpt lat="41.783695" lon="-3.9498484"><ele>2619</ele><speed>40</speed><time>2016-06-29T15:43:56Z</time><course>54</course><type>1</type></trkpt>
      <trkpt lat="41.7838116" lon="-3.9496117"><ele>2617</ele><speed>42</speed><time>2016-06-29T15:43:58Z</time><course>61</course><type>1</type></trkpt>
      <trkpt lat="41.7838766" lon="-3.9493067"><ele>2615</ele><speed>52</speed><time>2016-06-29T15:44:00Z</time><course>80</course><type>1</type></trkpt>
      <trkpt lat="41.7838983" lon="-3.9489101"><ele>2612</ele><speed>62</speed><time>2016-06-29T15:44:02Z</time><course>88</course><type>1</type></trkpt>
      <trkpt lat="41.7838783" lon="-3.94849"><ele>2610</ele><speed>61</speed><time>2016-06-29T15:44:04Z</time><course>93</course><type>1</type></trkpt>
      <trkpt lat="41.7838533" lon="-3.9482967"><ele>2609</ele><speed>58</speed><time>2016-06-29T15:44:05Z</time><course>103</course><type>1</type></trkpt>
      <trkpt lat="41.7837816" lon="-3.9479167"><ele>2608</ele><speed>58</speed><time>2016-06-29T15:44:07Z</time><course>105</course><type>1</type></trkpt>
      <trkpt lat="41.7837416" lon="-3.9477267"><ele>2607</ele><speed>58</speed><time>2016-06-29T15:44:08Z</time><course>105</course><type>1</type></trkpt>
      <trkpt lat="41.7836466" lon="-3.9473484"><ele>2604</ele><speed>59</speed><time>2016-06-29T15:44:10Z</time><course>111</course><type>1</type></trkpt>
      <trkpt lat="41.7835316" lon="-3.9469734"><ele>2602</ele><speed>61</speed><time>2016-06-29T15:44:12Z</time><course>112</course><type>1</type></trkpt>
      <trkpt lat="41.78343" lon="-3.9465984"><ele>2599</ele><speed>56</speed><time>2016-06-29T15:44:14Z</time><course>109</course><type>1</type></trkpt>
      <trkpt lat="41.7833366" lon="-3.9462367"><ele>2596</ele><speed>57</speed><time>2016-06-29T15:44:16Z</time><course>110</course><type>1</type></trkpt>
      <trkpt lat="41.7832216" lon="-3.9458684"><ele>2593</ele><speed>58</speed><time>2016-06-29T15:44:18Z</time><course>114</course><type>1</type></trkpt>
      <trkpt lat="41.78316" lon="-3.9456884"><ele>2591</ele><speed>59</speed><time>2016-06-29T15:44:19Z</time><course>114</course><type>1</type></trkpt>
      <trkpt lat="41.7830433" lon="-3.9453317"><ele>2587</ele><speed>57</speed><time>2016-06-29T15:44:21Z</time><course>112</course><type>1</type></trkpt>
      <trkpt lat="41.782935" lon="-3.9449784"><ele>2583</ele><speed>59</speed><time>2016-06-29T15:44:23Z</time><course>111</course><type>1</type></trkpt>
      <trkpt lat="41.7828233" lon="-3.9446"><ele>2578</ele><speed>62</speed><time>2016-06-29T15:44:25Z</time><course>112</course><type>1</type></trkpt>
      <trkpt lat="41.7827166" lon="-3.9442117"><ele>2574</ele><speed>61</speed><time>2016-06-29T15:44:27Z</time><course>107</course><type>1</type></trkpt>
      <trkpt lat="41.782625" lon="-3.9438134"><ele>2569</ele><speed>62</speed><time>2016-06-29T15:44:29Z</time><course>106</course><type>1</type></trkpt>
      <trkpt lat="41.7825183" lon="-3.9434017"><ele>2565</ele><speed>66</speed><time>2016-06-29T15:44:31Z</time><course>109</course><type>1</type></trkpt>
      <trkpt lat="41.7824583" lon="-3.9431934"><ele>2562</ele><speed>67</speed><time>2016-06-29T15:44:32Z</time><course>110</course><type>1</type></trkpt>
      <trkpt lat="41.7823966" lon="-3.9429817"><ele>2560</ele><speed>70</speed><time>2016-06-29T15:44:33Z</time><course>111</course><type>1</type></trkpt>
      <trkpt lat="41.78227" lon="-3.9425667"><ele>2555</ele><speed>62</speed><time>2016-06-29T15:44:35Z</time><course>111</course><type>1</type></trkpt>
      <trkpt lat="41.78215" lon="-3.9421817"><ele>2550</ele><speed>63</speed><time>2016-06-29T15:44:37Z</time><course>113</course><type>1</type></trkpt>
      <trkpt lat="41.7820016" lon="-3.9417884"><ele>2544</ele><speed>68</speed><time>2016-06-29T15:44:39Z</time><course>120</course><type>1</type></trkpt>
      <trkpt lat="41.781915" lon="-3.9416"><ele>2542</ele><speed>66</speed><time>2016-06-29T15:44:40Z</time><course>122</course><type>1</type></trkpt>
      <trkpt lat="41.78174" lon="-3.9412284"><ele>2538</ele><speed>63</speed><time>2016-06-29T15:44:42Z</time><course>121</course><type>1</type></trkpt>
      <trkpt lat="41.7816516" lon="-3.94105"><ele>2535</ele><speed>62</speed><time>2016-06-29T15:44:43Z</time><course>121</course><type>1</type></trkpt>
      <trkpt lat="41.7815016" lon="-3.940685"><ele>2530</ele><speed>62</speed><time>2016-06-29T15:44:45Z</time><course>118</course><type>1</type></trkpt>
      <trkpt lat="41.7814133" lon="-3.940505"><ele>2527</ele><speed>65</speed><time>2016-06-29T15:44:46Z</time><course>122</course><type>1</type></trkpt>
      <trkpt lat="41.7812266" lon="-3.9401284"><ele>2522</ele><speed>69</speed><time>2016-06-29T15:44:48Z</time><course>125</course><type>1</type></trkpt>
      <trkpt lat="41.7810316" lon="-3.9397634"><ele>2518</ele><speed>64</speed><time>2016-06-29T15:44:50Z</time><course>124</course><type>1</type></trkpt>
      <trkpt lat="41.7808433" lon="-3.9394217"><ele>2512</ele><speed>62</speed><time>2016-06-29T15:44:52Z</time><course>127</course><type>1</type></trkpt>
      <trkpt lat="41.7807466" lon="-3.939265"><ele>2510</ele><speed>61</speed><time>2016-06-29T15:44:53Z</time><course>129</course><type>1</type></trkpt>
      <trkpt lat="41.7806416" lon="-3.939095"><ele>2508</ele><speed>60</speed><time>2016-06-29T15:44:54Z</time><course>125</course><type>1</type></trkpt>
      <trkpt lat="41.78053" lon="-3.9389084"><ele>2505</ele><speed>72</speed><time>2016-06-29T15:44:55Z</time><course>128</course><type>1</type></trkpt>
      <trkpt lat="41.780415" lon="-3.9387101"><ele>2502</ele><speed>74</speed><time>2016-06-29T15:44:56Z</time><course>130</course><type>1</type></trkpt>
      <trkpt lat="41.780165" lon="-3.9383334"><ele>2495</ele><speed>71</speed><time>2016-06-29T15:44:58Z</time><course>132</course><type>1</type></trkpt>
      <trkpt lat="41.7800416" lon="-3.9381567"><ele>2493</ele><speed>69</speed><time>2016-06-29T15:44:59Z</time><course>131</course><type>1</type></trkpt>
      <trkpt lat="41.77983" lon="-3.9378084"><ele>2489</ele><speed>66</speed><time>2016-06-29T15:45:01Z</time><course>127</course><type>1</type></trkpt>
      <trkpt lat="41.7797233" lon="-3.937625"><ele>2486</ele><speed>65</speed><time>2016-06-29T15:45:02Z</time><course>127</course><type>1</type></trkpt>
      <trkpt lat="41.7796166" lon="-3.937435"><ele>2483</ele><speed>73</speed><time>2016-06-29T15:45:03Z</time><course>129</course><type>1</type></trkpt>
      <trkpt lat="41.7793666" lon="-3.9370684"><ele>2478</ele><speed>71</speed><time>2016-06-29T15:45:05Z</time><course>134</course><type>1</type></trkpt>
      <trkpt lat="41.7792383" lon="-3.93689"><ele>2476</ele><speed>70</speed><time>2016-06-29T15:45:06Z</time><course>134</course><type>1</type></trkpt>
      <trkpt lat="41.7790066" lon="-3.93654"><ele>2471</ele><speed>69</speed><time>2016-06-29T15:45:08Z</time><course>130</course><type>1</type></trkpt>
      <trkpt lat="41.778765" lon="-3.93619"><ele>2466</ele><speed>72</speed><time>2016-06-29T15:45:10Z</time><course>134</course><type>1</type></trkpt>
      <trkpt lat="41.778635" lon="-3.9360267"><ele>2464</ele><speed>71</speed><time>2016-06-29T15:45:11Z</time><course>135</course><type>1</type></trkpt>
      <trkpt lat="41.778515" lon="-3.9358617"><ele>2462</ele><speed>68</speed><time>2016-06-29T15:45:12Z</time><course>134</course><type>1</type></trkpt>
      <trkpt lat="41.7783983" lon="-3.9356934"><ele>2460</ele><speed>66</speed><time>2016-06-29T15:45:13Z</time><course>133</course><type>1</type></trkpt>
      <trkpt lat="41.778175" lon="-3.9353567"><ele>2454</ele><speed>69</speed><time>2016-06-29T15:45:15Z</time><course>130</course><type>1</type></trkpt>
      <trkpt lat="41.7779366" lon="-3.9350034"><ele>2450</ele><speed>72</speed><time>2016-06-29T15:45:17Z</time><course>131</course><type>1</type></trkpt>
      <trkpt lat="41.7778133" lon="-3.9348184"><ele>2447</ele><speed>70</speed><time>2016-06-29T15:45:18Z</time><course>130</course><type>1</type></trkpt>
      <trkpt lat="41.7775833" lon="-3.9344667"><ele>2443</ele><speed>66</speed><time>2016-06-29T15:45:20Z</time><course>131</course><type>1</type></trkpt>
      <trkpt lat="41.7773683" lon="-3.934115"><ele>2439</ele><speed>67</speed><time>2016-06-29T15:45:22Z</time><course>129</course><type>1</type></trkpt>
      <trkpt lat="41.7772583" lon="-3.9339367"><ele>2436</ele><speed>69</speed><time>2016-06-29T15:45:23Z</time><course>129</course><type>1</type></trkpt>
      <trkpt lat="41.7770349" lon="-3.9335767"><ele>2432</ele><speed>67</speed><time>2016-06-29T15:45:25Z</time><course>130</course><type>1</type></trkpt>
      <trkpt lat="41.7769266" lon="-3.9334017"><ele>2430</ele><speed>67</speed><time>2016-06-29T15:45:26Z</time><course>129</course><type>1</type></trkpt>
      <trkpt lat="41.7767066" lon="-3.93304"><ele>2425</ele><speed>68</speed><time>2016-06-29T15:45:28Z</time><course>129</course><type>1</type></trkpt>
      <trkpt lat="41.7765949" lon="-3.9328684"><ele>2423</ele><speed>66</speed><time>2016-06-29T15:45:29Z</time><course>130</course><type>1</type></trkpt>
      <trkpt lat="41.776375" lon="-3.93252"><ele>2419</ele><speed>68</speed><time>2016-06-29T15:45:31Z</time><course>129</course><type>1</type></trkpt>
      <trkpt lat="41.7762666" lon="-3.93234"><ele>2417</ele><speed>68</speed><time>2016-06-29T15:45:32Z</time><course>127</course><type>1</type></trkpt>
      <trkpt lat="41.77605" lon="-3.931985"><ele>2412</ele><speed>66</speed><time>2016-06-29T15:45:34Z</time><course>130</course><type>1</type></trkpt>
      <trkpt lat="41.7758233" lon="-3.931635"><ele>2408</ele><speed>68</speed><time>2016-06-29T15:45:36Z</time><course>130</course><type>1</type></trkpt>
      <trkpt lat="41.77561" lon="-3.9313034"><ele>2404</ele><speed>66</speed><time>2016-06-29T15:45:38Z</time><course>129</course><type>1</type></trkpt>
      <trkpt lat="41.7754166" lon="-3.93099"><ele>2400</ele><speed>59</speed><time>2016-06-29T15:45:40Z</time><course>129</course><type>1</type></trkpt>
      <trkpt lat="41.7753166" lon="-3.9308301"><ele>2397</ele><speed>61</speed><time>2016-06-29T15:45:41Z</time><course>130</course><type>1</type></trkpt>
      <trkpt lat="41.7751116" lon="-3.9305117"><ele>2392</ele><speed>62</speed><time>2016-06-29T15:45:43Z</time><course>131</course><type>1</type></trkpt>
      <trkpt lat="41.7749033" lon="-3.930205"><ele>2388</ele><speed>60</speed><time>2016-06-29T15:45:45Z</time><course>131</course><type>1</type></trkpt>
      <trkpt lat="41.7746816" lon="-3.92988"><ele>2384</ele><speed>68</speed><time>2016-06-29T15:45:47Z</time><course>131</course><type>1</type></trkpt>
      <trkpt lat="41.7744716" lon="-3.9295267"><ele>2379</ele><speed>66</speed><time>2016-06-29T15:45:49Z</time><course>125</course><type>1</type></trkpt>
      <trkpt lat="41.77438" lon="-3.9293517"><ele>2377</ele><speed>61</speed><time>2016-06-29T15:45:50Z</time><course>124</course><type>1</type></trkpt>
      <trkpt lat="41.7741966" lon="-3.92901"><ele>2372</ele><speed>61</speed><time>2016-06-29T15:45:52Z</time><course>125</course><type>1</type></trkpt>
      <trkpt lat="41.77402" lon="-3.928655"><ele>2368</ele><speed>62</speed><time>2016-06-29T15:45:54Z</time><course>122</course><type>1</type></trkpt>
      <trkpt lat="41.7738433" lon="-3.9283017"><ele>2364</ele><speed>63</speed><time>2016-06-29T15:45:56Z</time><course>125</course><type>1</type></trkpt>
      <trkpt lat="41.7736483" lon="-3.927945"><ele>2359</ele><speed>65</speed><time>2016-06-29T15:45:58Z</time><course>125</course><type>1</type></trkpt>
      <trkpt lat="41.7735516" lon="-3.927765"><ele>2356</ele><speed>65</speed><time>2016-06-29T15:45:59Z</time><course>124</course><type>1</type></trkpt>
      <trkpt lat="41.7733633" lon="-3.927405"><ele>2352</ele><speed>65</speed><time>2016-06-29T15:46:01Z</time><course>128</course><type>1</type></trkpt>
      <trkpt lat="41.7732516" lon="-3.927235"><ele>2350</ele><speed>66</speed><time>2016-06-29T15:46:02Z</time><course>131</course><type>1</type></trkpt>
      <trkpt lat="41.7730266" lon="-3.9269167"><ele>2345</ele><speed>59</speed><time>2016-06-29T15:46:04Z</time><course>135</course><type>1</type></trkpt>
      <trkpt lat="41.7728033" lon="-3.9266567"><ele>2340</ele><speed>57</speed><time>2016-06-29T15:46:06Z</time><course>140</course><type>1</type></trkpt>
      <trkpt lat="41.7725616" lon="-3.9263834"><ele>2334</ele><speed>64</speed><time>2016-06-29T15:46:08Z</time><course>136</course><type>1</type></trkpt>
      <trkpt lat="41.7723183" lon="-3.9260817"><ele>2327</ele><speed>63</speed><time>2016-06-29T15:46:10Z</time><course>137</course><type>1</type></trkpt>
      <trkpt lat="41.7721933" lon="-3.9259417"><ele>2323</ele><speed>63</speed><time>2016-06-29T15:46:11Z</time><course>141</course><type>1</type></trkpt>
      <trkpt lat="41.7719683" lon="-3.925655"><ele>2316</ele><speed>59</speed><time>2016-06-29T15:46:13Z</time><course>137</course><type>1</type></trkpt>
      <trkpt lat="41.7717716" lon="-3.9253617"><ele>2310</ele><speed>58</speed><time>2016-06-29T15:46:15Z</time><course>129</course><type>1</type></trkpt>
      <trkpt lat="41.7715933" lon="-3.9250067"><ele>2304</ele><speed>66</speed><time>2016-06-29T15:46:17Z</time><course>124</course><type>1</type></trkpt>
      <trkpt lat="41.771415" lon="-3.9246317"><ele>2297</ele><speed>64</speed><time>2016-06-29T15:46:19Z</time><course>132</course><type>1</type></trkpt>
      <trkpt lat="41.7713233" lon="-3.9244817"><ele>2293</ele><speed>67</speed><time>2016-06-29T15:46:20Z</time><course>130</course><type>1</type></trkpt>
      <trkpt lat="41.7711633" lon="-3.9241567"><ele>2288</ele><speed>59</speed><time>2016-06-29T15:46:22Z</time><course>119</course><type>1</type></trkpt>
      <trkpt lat="41.7710916" lon="-3.9239634"><ele>2285</ele><speed>64</speed><time>2016-06-29T15:46:23Z</time><course>120</course><type>1</type></trkpt>
      <trkpt lat="41.7709233" lon="-3.9235984"><ele>2279</ele><speed>64</speed><time>2016-06-29T15:46:25Z</time><course>125</course><type>1</type></trkpt>
      <trkpt lat="41.7708433" lon="-3.923425"><ele>2276</ele><speed>60</speed><time>2016-06-29T15:46:26Z</time><course>121</course><type>1</type></trkpt>
      <trkpt lat="41.77071" lon="-3.9230434"><ele>2270</ele><speed>62</speed><time>2016-06-29T15:46:28Z</time><course>111</course><type>1</type></trkpt>
      <trkpt lat="41.77065" lon="-3.922835"><ele>2268</ele><speed>61</speed><time>2016-06-29T15:46:29Z</time><course>112</course><type>1</type></trkpt>
      <trkpt lat="41.7705066" lon="-3.9224184"><ele>2262</ele><speed>67</speed><time>2016-06-29T15:46:31Z</time><course>116</course><type>1</type></trkpt>
      <trkpt lat="41.7704333" lon="-3.9222117"><ele>2259</ele><speed>66</speed><time>2016-06-29T15:46:32Z</time><course>115</course><type>1</type></trkpt>
      <trkpt lat="41.7702933" lon="-3.9218167"><ele>2254</ele><speed>62</speed><time>2016-06-29T15:46:34Z</time><course>114</course><type>1</type></trkpt>
      <trkpt lat="41.7701516" lon="-3.9214384"><ele>2247</ele><speed>63</speed><time>2016-06-29T15:46:36Z</time><course>116</course><type>1</type></trkpt>
      <trkpt lat="41.7700783" lon="-3.9212417"><ele>2244</ele><speed>64</speed><time>2016-06-29T15:46:37Z</time><course>116</course><type>1</type></trkpt>
      <trkpt lat="41.769915" lon="-3.9208734"><ele>2239</ele><speed>62</speed><time>2016-06-29T15:46:39Z</time><course>121</course><type>1</type></trkpt>
      <trkpt lat="41.769745" lon="-3.9205167"><ele>2234</ele><speed>62</speed><time>2016-06-29T15:46:41Z</time><course>120</course><type>1</type></trkpt>
      <trkpt lat="41.7695966" lon="-3.92015"><ele>2228</ele><speed>60</speed><time>2016-06-29T15:46:43Z</time><course>117</course><type>1</type></trkpt>
      <trkpt lat="41.7694583" lon="-3.9197817"><ele>2221</ele><speed>59</speed><time>2016-06-29T15:46:45Z</time><course>116</course><type>1</type></trkpt>
      <trkpt lat="41.7693933" lon="-3.91961"><ele>2219</ele><speed>55</speed><time>2016-06-29T15:46:46Z</time><course>116</course><type>1</type></trkpt>
      <trkpt lat="41.7693316" lon="-3.91944"><ele>2216</ele><speed>55</speed><time>2016-06-29T15:46:47Z</time><course>114</course><type>1</type></trkpt>
      <trkpt lat="41.7692216" lon="-3.9191001"><ele>2209</ele><speed>54</speed><time>2016-06-29T15:46:49Z</time><course>110</course><type>1</type></trkpt>
      <trkpt lat="41.7691733" lon="-3.9189267"><ele>2207</ele><speed>53</speed><time>2016-06-29T15:46:50Z</time><course>107</course><type>1</type></trkpt>
      <trkpt lat="41.7690833" lon="-3.9185767"><ele>2200</ele><speed>54</speed><time>2016-06-29T15:46:52Z</time><course>110</course><type>1</type></trkpt>
      <trkpt lat="41.769025" lon="-3.91841"><ele>2198</ele><speed>53</speed><time>2016-06-29T15:46:53Z</time><course>114</course><type>1</type></trkpt>
      <trkpt lat="41.7688749" lon="-3.9181384"><ele>2191</ele><speed>48</speed><time>2016-06-29T15:46:55Z</time><course>128</course><type>1</type></trkpt>
      <trkpt lat="41.7686883" lon="-3.9178617"><ele>2183</ele><speed>59</speed><time>2016-06-29T15:46:57Z</time><course>124</course><type>1</type></trkpt>
      <trkpt lat="41.7685033" lon="-3.917515"><ele>2177</ele><speed>61</speed><time>2016-06-29T15:46:59Z</time><course>120</course><type>1</type></trkpt>
      <trkpt lat="41.7684233" lon="-3.91734"><ele>2173</ele><speed>58</speed><time>2016-06-29T15:47:00Z</time><course>121</course><type>1</type></trkpt>
      <trkpt lat="41.7682666" lon="-3.9170084"><ele>2165</ele><speed>56</speed><time>2016-06-29T15:47:02Z</time><course>120</course><type>1</type></trkpt>
      <trkpt lat="41.7681016" lon="-3.9166584"><ele>2157</ele><speed>64</speed><time>2016-06-29T15:47:04Z</time><course>120</course><type>1</type></trkpt>
      <trkpt lat="41.7679283" lon="-3.9162684"><ele>2150</ele><speed>67</speed><time>2016-06-29T15:47:06Z</time><course>121</course><type>1</type></trkpt>
      <trkpt lat="41.7678416" lon="-3.9160717"><ele>2146</ele><speed>65</speed><time>2016-06-29T15:47:07Z</time><course>120</course><type>1</type></trkpt>
      <trkpt lat="41.7677933" lon="-3.9158517"><ele>2141</ele><speed>67</speed><time>2016-06-29T15:47:08Z</time><course>113</course><type>1</type></trkpt>
      <trkpt lat="41.7677333" lon="-3.9153884"><ele>2130</ele><speed>66</speed><time>2016-06-29T15:47:10Z</time><course>107</course><type>1</type></trkpt>
      <trkpt lat="41.7676766" lon="-3.9151834"><ele>2126</ele><speed>64</speed><time>2016-06-29T15:47:11Z</time><course>113</course><type>1</type></trkpt>
      <trkpt lat="41.7674933" lon="-3.9148167"><ele>2120</ele><speed>63</speed><time>2016-06-29T15:47:13Z</time><course>128</course><type>1</type></trkpt>
      <trkpt lat="41.7674083" lon="-3.9146267"><ele>2116</ele><speed>63</speed><time>2016-06-29T15:47:14Z</time><course>120</course><type>1</type></trkpt>
      <trkpt lat="41.7672766" lon="-3.9142234"><ele>2107</ele><speed>61</speed><time>2016-06-29T15:47:16Z</time><course>116</course><type>1</type></trkpt>
      <trkpt lat="41.767205" lon="-3.9140334"><ele>2102</ele><speed>61</speed><time>2016-06-29T15:47:17Z</time><course>120</course><type>1</type></trkpt>
      <trkpt lat="41.7670366" lon="-3.9136634"><ele>2095</ele><speed>65</speed><time>2016-06-29T15:47:19Z</time><course>122</course><type>1</type></trkpt>
      <trkpt lat="41.7668783" lon="-3.9132584"><ele>2086</ele><speed>68</speed><time>2016-06-29T15:47:21Z</time><course>116</course><type>1</type></trkpt>
      <trkpt lat="41.7667466" lon="-3.9128434"><ele>2079</ele><speed>65</speed><time>2016-06-29T15:47:23Z</time><course>113</course><type>1</type></trkpt>
      <trkpt lat="41.7666166" lon="-3.9124284"><ele>2070</ele><speed>63</speed><time>2016-06-29T15:47:25Z</time><course>113</course><type>1</type></trkpt>
      <trkpt lat="41.7665383" lon="-3.9122267"><ele>2067</ele><speed>63</speed><time>2016-06-29T15:47:26Z</time><course>117</course><type>1</type></trkpt>
      <trkpt lat="41.766385" lon="-3.9118217"><ele>2060</ele><speed>66</speed><time>2016-06-29T15:47:28Z</time><course>119</course><type>1</type></trkpt>
      <trkpt lat="41.7663016" lon="-3.9116234"><ele>2057</ele><speed>67</speed><time>2016-06-29T15:47:29Z</time><course>120</course><type>1</type></trkpt>
      <trkpt lat="41.7661416" lon="-3.9112434"><ele>2053</ele><speed>59</speed><time>2016-06-29T15:47:31Z</time><course>117</course><type>1</type></trkpt>
      <trkpt lat="41.766015" lon="-3.91089"><ele>2048</ele><speed>55</speed><time>2016-06-29T15:47:33Z</time><course>114</course><type>1</type></trkpt>
      <trkpt lat="41.7658883" lon="-3.9105284"><ele>2042</ele><speed>60</speed><time>2016-06-29T15:47:35Z</time><course>115</course><type>1</type></trkpt>
      <trkpt lat="41.765755" lon="-3.9101584"><ele>2036</ele><speed>61</speed><time>2016-06-29T15:47:37Z</time><course>115</course><type>1</type></trkpt>
      <trkpt lat="41.76562" lon="-3.90979"><ele>2030</ele><speed>59</speed><time>2016-06-29T15:47:39Z</time><course>117</course><type>1</type></trkpt>
      <trkpt lat="41.7655533" lon="-3.909615"><ele>2026</ele><speed>54</speed><time>2016-06-29T15:47:40Z</time><course>115</course><type>1</type></trkpt>
      <trkpt lat="41.7654516" lon="-3.9092817"><ele>2019</ele><speed>53</speed><time>2016-06-29T15:47:42Z</time><course>109</course><type>1</type></trkpt>
      <trkpt lat="41.7653233" lon="-3.9088984"><ele>2011</ele><speed>65</speed><time>2016-06-29T15:47:44Z</time><course>116</course><type>1</type></trkpt>
      <trkpt lat="41.7651866" lon="-3.9085217"><ele>2004</ele><speed>58</speed><time>2016-06-29T15:47:46Z</time><course>113</course><type>1</type></trkpt>
      <trkpt lat="41.7651366" lon="-3.9083534"><ele>2000</ele><speed>52</speed><time>2016-06-29T15:47:47Z</time><course>108</course><type>1</type></trkpt>
      <trkpt lat="41.765025" lon="-3.9079984"><ele>1993</ele><speed>58</speed><time>2016-06-29T15:47:49Z</time><course>113</course><type>1</type></trkpt>
      <trkpt lat="41.76496" lon="-3.9078101"><ele>1990</ele><speed>62</speed><time>2016-06-29T15:47:50Z</time><course>114</course><type>1</type></trkpt>
      <trkpt lat="41.76489" lon="-3.9076184"><ele>1987</ele><speed>63</speed><time>2016-06-29T15:47:51Z</time><course>115</course><type>1</type></trkpt>
      <trkpt lat="41.764755" lon="-3.9072284"><ele>1982</ele><speed>65</speed><time>2016-06-29T15:47:53Z</time><course>113</course><type>1</type></trkpt>
      <trkpt lat="41.76469" lon="-3.907035"><ele>1978</ele><speed>60</speed><time>2016-06-29T15:47:54Z</time><course>113</course><type>1</type></trkpt>
      <trkpt lat="41.7645633" lon="-3.9066817"><ele>1972</ele><speed>57</speed><time>2016-06-29T15:47:56Z</time><course>116</course><type>1</type></trkpt>
      <trkpt lat="41.7644933" lon="-3.9065"><ele>1968</ele><speed>60</speed><time>2016-06-29T15:47:57Z</time><course>115</course><type>1</type></trkpt>
      <trkpt lat="41.764425" lon="-3.9063084"><ele>1965</ele><speed>57</speed><time>2016-06-29T15:47:58Z</time><course>114</course><type>1</type></trkpt>
      <trkpt lat="41.7643566" lon="-3.9061134"><ele>1963</ele><speed>64</speed><time>2016-06-29T15:47:59Z</time><course>114</course><type>1</type></trkpt>
      <trkpt lat="41.76423" lon="-3.9057367"><ele>1959</ele><speed>57</speed><time>2016-06-29T15:48:01Z</time><course>115</course><type>1</type></trkpt>
      <trkpt lat="41.7641633" lon="-3.905565"><ele>1957</ele><speed>55</speed><time>2016-06-29T15:48:02Z</time><course>116</course><type>1</type></trkpt>
      <trkpt lat="41.764095" lon="-3.9053967"><ele>1954</ele><speed>57</speed><time>2016-06-29T15:48:03Z</time><course>117</course><type>1</type></trkpt>
      <trkpt lat="41.7639616" lon="-3.905035"><ele>1950</ele><speed>60</speed><time>2016-06-29T15:48:05Z</time><course>113</course><type>1</type></trkpt>
      <trkpt lat="41.7638233" lon="-3.9046384"><ele>1945</ele><speed>67</speed><time>2016-06-29T15:48:07Z</time><course>114</course><type>1</type></trkpt>
      <trkpt lat="41.7637516" lon="-3.9044434"><ele>1943</ele><speed>66</speed><time>2016-06-29T15:48:08Z</time><course>116</course><type>1</type></trkpt>
      <trkpt lat="41.763625" lon="-3.90408"><ele>1940</ele><speed>63</speed><time>2016-06-29T15:48:10Z</time><course>112</course><type>1</type></trkpt>
      <trkpt lat="41.7635683" lon="-3.90389"><ele>1938</ele><speed>62</speed><time>2016-06-29T15:48:11Z</time><course>111</course><type>1</type></trkpt>
      <trkpt lat="41.7635083" lon="-3.9036934"><ele>1935</ele><speed>62</speed><time>2016-06-29T15:48:12Z</time><course>111</course><type>1</type></trkpt>
      <trkpt lat="41.7633916" lon="-3.9033167"><ele>1931</ele><speed>57</speed><time>2016-06-29T15:48:14Z</time><course>111</course><type>1</type></trkpt>
      <trkpt lat="41.7633366" lon="-3.903135"><ele>1929</ele><speed>57</speed><time>2016-06-29T15:48:15Z</time><course>111</course><type>1</type></trkpt>
      <trkpt lat="41.76322" lon="-3.9027617"><ele>1925</ele><speed>60</speed><time>2016-06-29T15:48:17Z</time><course>113</course><type>1</type></trkpt>
      <trkpt lat="41.76308" lon="-3.9024034"><ele>1920</ele><speed>59</speed><time>2016-06-29T15:48:19Z</time><course>120</course><type>1</type></trkpt>
      <trkpt lat="41.763005" lon="-3.902235"><ele>1917</ele><speed>57</speed><time>2016-06-29T15:48:20Z</time><course>120</course><type>1</type></trkpt>
      <trkpt lat="41.7629283" lon="-3.902065"><ele>1914</ele><speed>59</speed><time>2016-06-29T15:48:21Z</time><course>121</course><type>1</type></trkpt>
      <trkpt lat="41.7628516" lon="-3.9018867"><ele>1912</ele><speed>59</speed><time>2016-06-29T15:48:22Z</time><course>119</course><type>1</type></trkpt>
      <trkpt lat="41.7627016" lon="-3.9015234"><ele>1908</ele><speed>58</speed><time>2016-06-29T15:48:24Z</time><course>119</course><type>1</type></trkpt>
      <trkpt lat="41.7625533" lon="-3.9011984"><ele>1904</ele><speed>56</speed><time>2016-06-29T15:48:26Z</time><course>122</course><type>1</type></trkpt>
      <trkpt lat="41.7624733" lon="-3.9010384"><ele>1901</ele><speed>58</speed><time>2016-06-29T15:48:27Z</time><course>123</course><type>1</type></trkpt>
      <trkpt lat="41.76239" lon="-3.9008784"><ele>1899</ele><speed>58</speed><time>2016-06-29T15:48:28Z</time><course>125</course><type>1</type></trkpt>
      <trkpt lat="41.7623016" lon="-3.900715"><ele>1896</ele><speed>57</speed><time>2016-06-29T15:48:29Z</time><course>126</course><type>1</type></trkpt>
      <trkpt lat="41.76212" lon="-3.9003801"><ele>1893</ele><speed>63</speed><time>2016-06-29T15:48:31Z</time><course>125</course><type>1</type></trkpt>
      <trkpt lat="41.7619499" lon="-3.9000467"><ele>1891</ele><speed>60</speed><time>2016-06-29T15:48:33Z</time><course>125</course><type>1</type></trkpt>
      <trkpt lat="41.7617833" lon="-3.8997334"><ele>1890</ele><speed>54</speed><time>2016-06-29T15:48:35Z</time><course>124</course><type>1</type></trkpt>
      <trkpt lat="41.761705" lon="-3.8995784"><ele>1889</ele><speed>56</speed><time>2016-06-29T15:48:36Z</time><course>123</course><type>1</type></trkpt>
      <trkpt lat="41.7615433" lon="-3.8992434"><ele>1886</ele><speed>61</speed><time>2016-06-29T15:48:38Z</time><course>121</course><type>1</type></trkpt>
      <trkpt lat="41.7613833" lon="-3.8989051"><ele>1884</ele><speed>58</speed><time>2016-06-29T15:48:40Z</time><course>122</course><type>1</type></trkpt>
      <trkpt lat="41.7613066" lon="-3.8987417"><ele>1883</ele><speed>57</speed><time>2016-06-29T15:48:41Z</time><course>122</course><type>1</type></trkpt>
      <trkpt lat="41.7611633" lon="-3.898415"><ele>1880</ele><speed>58</speed><time>2016-06-29T15:48:43Z</time><course>119</course><type>1</type></trkpt>
      <trkpt lat="41.76101" lon="-3.8980667"><ele>1878</ele><speed>57</speed><time>2016-06-29T15:48:45Z</time><course>120</course><type>1</type></trkpt>
      <trkpt lat="41.7608583" lon="-3.8977317"><ele>1875</ele><speed>56</speed><time>2016-06-29T15:48:47Z</time><course>121</course><type>1</type></trkpt>
      <trkpt lat="41.760695" lon="-3.8973934"><ele>1872</ele><speed>63</speed><time>2016-06-29T15:48:49Z</time><course>123</course><type>1</type></trkpt>
      <trkpt lat="41.760525" lon="-3.8970534"><ele>1869</ele><speed>58</speed><time>2016-06-29T15:48:51Z</time><course>123</course><type>1</type></trkpt>
      <trkpt lat="41.7604533" lon="-3.8969017"><ele>1868</ele><speed>50</speed><time>2016-06-29T15:48:52Z</time><course>121</course><type>1</type></trkpt>
      <trkpt lat="41.7603849" lon="-3.8967551"><ele>1866</ele><speed>50</speed><time>2016-06-29T15:48:53Z</time><course>121</course><type>1</type></trkpt>
      <trkpt lat="41.7602466" lon="-3.8964417"><ele>1862</ele><speed>57</speed><time>2016-06-29T15:48:55Z</time><course>120</course><type>1</type></trkpt>
      <trkpt lat="41.7600883" lon="-3.8960967"><ele>1858</ele><speed>62</speed><time>2016-06-29T15:48:57Z</time><course>122</course><type>1</type></trkpt>
      <trkpt lat="41.75993" lon="-3.8957767"><ele>1854</ele><speed>52</speed><time>2016-06-29T15:48:59Z</time><course>124</course><type>1</type></trkpt>
      <trkpt lat="41.7598516" lon="-3.8956317"><ele>1852</ele><speed>52</speed><time>2016-06-29T15:49:00Z</time><course>126</course><type>1</type></trkpt>
      <trkpt lat="41.7597716" lon="-3.8954834"><ele>1850</ele><speed>56</speed><time>2016-06-29T15:49:01Z</time><course>125</course><type>1</type></trkpt>
      <trkpt lat="41.7596166" lon="-3.895155"><ele>1847</ele><speed>59</speed><time>2016-06-29T15:49:03Z</time><course>121</course><type>1</type></trkpt>
      <trkpt lat="41.75947" lon="-3.89484"><ele>1843</ele><speed>51</speed><time>2016-06-29T15:49:05Z</time><course>122</course><type>1</type></trkpt>
      <trkpt lat="41.7593283" lon="-3.8945584"><ele>1839</ele><speed>52</speed><time>2016-06-29T15:49:07Z</time><course>123</course><type>1</type></trkpt>
      <trkpt lat="41.7591716" lon="-3.8942384"><ele>1834</ele><speed>60</speed><time>2016-06-29T15:49:09Z</time><course>123</course><type>1</type></trkpt>
      <trkpt lat="41.7590166" lon="-3.8939167"><ele>1831</ele><speed>54</speed><time>2016-06-29T15:49:11Z</time><course>122</course><type>1</type></trkpt>
      <trkpt lat="41.7589466" lon="-3.893765"><ele>1830</ele><speed>51</speed><time>2016-06-29T15:49:12Z</time><course>122</course><type>1</type></trkpt>
      <trkpt lat="41.7587983" lon="-3.89346"><ele>1826</ele><speed>54</speed><time>2016-06-29T15:49:14Z</time><course>122</course><type>1</type></trkpt>
      <trkpt lat="41.7587199" lon="-3.8933084"><ele>1825</ele><speed>52</speed><time>2016-06-29T15:49:15Z</time><course>125</course><type>1</type></trkpt>
      <trkpt lat="41.7586416" lon="-3.893155"><ele>1823</ele><speed>56</speed><time>2016-06-29T15:49:16Z</time><course>123</course><type>1</type></trkpt>
      <trkpt lat="41.7585" lon="-3.89284"><ele>1820</ele><speed>53</speed><time>2016-06-29T15:49:18Z</time><course>119</course><type>1</type></trkpt>
      <trkpt lat="41.75843" lon="-3.892685"><ele>1819</ele><speed>54</speed><time>2016-06-29T15:49:19Z</time><course>121</course><type>1</type></trkpt>
      <trkpt lat="41.7582666" lon="-3.892375"><ele>1816</ele><speed>56</speed><time>2016-06-29T15:49:21Z</time><course>127</course><type>1</type></trkpt>
      <trkpt lat="41.758095" lon="-3.8920967"><ele>1813</ele><speed>55</speed><time>2016-06-29T15:49:23Z</time><course>131</course><type>1</type></trkpt>
      <trkpt lat="41.7579283" lon="-3.8918117"><ele>1811</ele><speed>54</speed><time>2016-06-29T15:49:25Z</time><course>124</course><type>1</type></trkpt>
      <trkpt lat="41.7578" lon="-3.8915484"><ele>1810</ele><speed>37</speed><time>2016-06-29T15:49:27Z</time><course>119</course><type>1</type></trkpt>
      <trkpt lat="41.7577533" lon="-3.891445"><ele>1809</ele><speed>35</speed><time>2016-06-29T15:49:28Z</time><course>123</course><type>1</type></trkpt>
      <trkpt lat="41.7576966" lon="-3.8913367"><ele>1807</ele><speed>40</speed><time>2016-06-29T15:49:29Z</time><course>124</course><type>1</type></trkpt>
      <trkpt lat="41.7575633" lon="-3.89106"><ele>1804</ele><speed>56</speed><time>2016-06-29T15:49:31Z</time><course>121</course><type>1</type></trkpt>
      <trkpt lat="41.7574966" lon="-3.8909017"><ele>1804</ele><speed>55</speed><time>2016-06-29T15:49:32Z</time><course>117</course><type>1</type></trkpt>
      <trkpt lat="41.7573733" lon="-3.8906184"><ele>1803</ele><speed>42</speed><time>2016-06-29T15:49:34Z</time><course>122</course><type>1</type></trkpt>
      <trkpt lat="41.7572433" lon="-3.890355"><ele>1802</ele><speed>49</speed><time>2016-06-29T15:49:36Z</time><course>125</course><type>1</type></trkpt>
      <trkpt lat="41.7571716" lon="-3.8902117"><ele>1801</ele><speed>52</speed><time>2016-06-29T15:49:37Z</time><course>123</course><type>1</type></trkpt>
      <trkpt lat="41.7570433" lon="-3.8899184"><ele>1800</ele><speed>48</speed><time>2016-06-29T15:49:39Z</time><course>117</course><type>1</type></trkpt>
      <trkpt lat="41.7569883" lon="-3.8897767"><ele>1799</ele><speed>45</speed><time>2016-06-29T15:49:40Z</time><course>117</course><type>1</type></trkpt>
      <trkpt lat="41.7568833" lon="-3.889495"><ele>1797</ele><speed>48</speed><time>2016-06-29T15:49:42Z</time><course>115</course><type>1</type></trkpt>
      <trkpt lat="41.7567916" lon="-3.8891767"><ele>1794</ele><speed>51</speed><time>2016-06-29T15:49:44Z</time><course>107</course><type>1</type></trkpt>
      <trkpt lat="41.7567016" lon="-3.88887"><ele>1792</ele><speed>49</speed><time>2016-06-29T15:49:46Z</time><course>117</course><type>1</type></trkpt>
      <trkpt lat="41.75664" lon="-3.8887284"><ele>1791</ele><speed>49</speed><time>2016-06-29T15:49:47Z</time><course>123</course><type>1</type></trkpt>
      <trkpt lat="41.7565683" lon="-3.8885917"><ele>1790</ele><speed>49</speed><time>2016-06-29T15:49:48Z</time><course>126</course><type>1</type></trkpt>
      <trkpt lat="41.7564233" lon="-3.88833"><ele>1789</ele><speed>46</speed><time>2016-06-29T15:49:50Z</time><course>128</course><type>1</type></trkpt>
      <trkpt lat="41.7562733" lon="-3.8881017"><ele>1788</ele><speed>45</speed><time>2016-06-29T15:49:52Z</time><course>134</course><type>1</type></trkpt>
      <trkpt lat="41.756195" lon="-3.8879934"><ele>1788</ele><speed>47</speed><time>2016-06-29T15:49:53Z</time><course>133</course><type>1</type></trkpt>
      <trkpt lat="41.7560466" lon="-3.8877634"><ele>1787</ele><speed>43</speed><time>2016-06-29T15:49:55Z</time><course>128</course><type>1</type></trkpt>
      <trkpt lat="41.755985" lon="-3.887645"><ele>1786</ele><speed>43</speed><time>2016-06-29T15:49:56Z</time><course>123</course><type>1</type></trkpt>
      <trkpt lat="41.7558633" lon="-3.887385"><ele>1784</ele><speed>48</speed><time>2016-06-29T15:49:58Z</time><course>123</course><type>1</type></trkpt>
      <trkpt lat="41.755795" lon="-3.8872534"><ele>1783</ele><speed>48</speed><time>2016-06-29T15:49:59Z</time><course>126</course><type>1</type></trkpt>
      <trkpt lat="41.755655" lon="-3.8870134"><ele>1781</ele><speed>40</speed><time>2016-06-29T15:50:01Z</time><course>127</course><type>1</type></trkpt>
      <trkpt lat="41.7555983" lon="-3.8869067"><ele>1780</ele><speed>38</speed><time>2016-06-29T15:50:02Z</time><course>124</course><type>1</type></trkpt>
      <trkpt lat="41.7554783" lon="-3.8866801"><ele>1778</ele><speed>43</speed><time>2016-06-29T15:50:04Z</time><course>126</course><type>1</type></trkpt>
      <trkpt lat="41.7554099" lon="-3.8865634"><ele>1777</ele><speed>44</speed><time>2016-06-29T15:50:05Z</time><course>128</course><type>1</type></trkpt>
      <trkpt lat="41.7552716" lon="-3.8863234"><ele>1774</ele><speed>45</speed><time>2016-06-29T15:50:07Z</time><course>126</course><type>1</type></trkpt>
      <trkpt lat="41.7551483" lon="-3.8860867"><ele>1771</ele><speed>41</speed><time>2016-06-29T15:50:09Z</time><course>124</course><type>1</type></trkpt>
      <trkpt lat="41.7550116" lon="-3.8858634"><ele>1767</ele><speed>44</speed><time>2016-06-29T15:50:11Z</time><course>131</course><type>1</type></trkpt>
      <trkpt lat="41.7548516" lon="-3.88565"><ele>1764</ele><speed>46</speed><time>2016-06-29T15:50:13Z</time><course>135</course><type>1</type></trkpt>
      <trkpt lat="41.7547716" lon="-3.885555"><ele>1762</ele><speed>38</speed><time>2016-06-29T15:50:14Z</time><course>140</course><type>1</type></trkpt>
      <trkpt lat="41.754615" lon="-3.88541"><ele>1758</ele><speed>38</speed><time>2016-06-29T15:50:16Z</time><course>147</course><type>1</type></trkpt>
      <trkpt lat="41.7544466" lon="-3.8852517"><ele>1757</ele><speed>42</speed><time>2016-06-29T15:50:18Z</time><course>144</course><type>1</type></trkpt>
      <trkpt lat="41.75427" lon="-3.8850967"><ele>1754</ele><speed>40</speed><time>2016-06-29T15:50:20Z</time><course>149</course><type>1</type></trkpt>
      <trkpt lat="41.75409" lon="-3.8849567"><ele>1750</ele><speed>40</speed><time>2016-06-29T15:50:22Z</time><course>148</course><type>1</type></trkpt>
      <trkpt lat="41.7540016" lon="-3.884885"><ele>1748</ele><speed>41</speed><time>2016-06-29T15:50:23Z</time><course>148</course><type>1</type></trkpt>
      <trkpt lat="41.75382" lon="-3.88474"><ele>1745</ele><speed>41</speed><time>2016-06-29T15:50:25Z</time><course>145</course><type>1</type></trkpt>
      <trkpt lat="41.753735" lon="-3.8846667"><ele>1744</ele><speed>40</speed><time>2016-06-29T15:50:26Z</time><course>148</course><type>1</type></trkpt>
      <trkpt lat="41.7535516" lon="-3.8845317"><ele>1741</ele><speed>42</speed><time>2016-06-29T15:50:28Z</time><course>151</course><type>1</type></trkpt>
      <trkpt lat="41.75346" lon="-3.8844567"><ele>1739</ele><speed>43</speed><time>2016-06-29T15:50:29Z</time><course>146</course><type>1</type></trkpt>
      <trkpt lat="41.753285" lon="-3.8842784"><ele>1735</ele><speed>43</speed><time>2016-06-29T15:50:31Z</time><course>140</course><type>1</type></trkpt>
      <trkpt lat="41.7532016" lon="-3.88419"><ele>1734</ele><speed>41</speed><time>2016-06-29T15:50:32Z</time><course>141</course><type>1</type></trkpt>
      <trkpt lat="41.7530266" lon="-3.8840167"><ele>1730</ele><speed>44</speed><time>2016-06-29T15:50:34Z</time><course>142</course><type>1</type></trkpt>
      <trkpt lat="41.7529366" lon="-3.8839134"><ele>1728</ele><speed>47</speed><time>2016-06-29T15:50:35Z</time><course>138</course><type>1</type></trkpt>
      <trkpt lat="41.7527566" lon="-3.8836684"><ele>1724</ele><speed>52</speed><time>2016-06-29T15:50:37Z</time><course>133</course><type>1</type></trkpt>
      <trkpt lat="41.75266" lon="-3.8835384"><ele>1722</ele><speed>55</speed><time>2016-06-29T15:50:38Z</time><course>136</course><type>1</type></trkpt>
      <trkpt lat="41.7524666" lon="-3.8833067"><ele>1720</ele><speed>48</speed><time>2016-06-29T15:50:40Z</time><course>139</course><type>1</type></trkpt>
      <trkpt lat="41.7523816" lon="-3.8831984"><ele>1719</ele><speed>46</speed><time>2016-06-29T15:50:41Z</time><course>133</course><type>1</type></trkpt>
      <trkpt lat="41.75222" lon="-3.88295"><ele>1716</ele><speed>47</speed><time>2016-06-29T15:50:43Z</time><course>130</course><type>1</type></trkpt>
      <trkpt lat="41.7521316" lon="-3.88281"><ele>1715</ele><speed>55</speed><time>2016-06-29T15:50:44Z</time><course>129</course><type>1</type></trkpt>
      <trkpt lat="41.7519383" lon="-3.88255"><ele>1712</ele><speed>53</speed><time>2016-06-29T15:50:46Z</time><course>137</course><type>1</type></trkpt>
      <trkpt lat="41.7517533" lon="-3.8823067"><ele>1711</ele><speed>53</speed><time>2016-06-29T15:50:48Z</time><course>136</course><type>1</type></trkpt>
      <trkpt lat="41.7516583" lon="-3.8821884"><ele>1711</ele><speed>52</speed><time>2016-06-29T15:50:49Z</time><course>138</course><type>1</type></trkpt>
      <trkpt lat="41.75147" lon="-3.8819884"><ele>1712</ele><speed>39</speed><time>2016-06-29T15:50:51Z</time><course>150</course><type>1</type></trkpt>
      <trkpt lat="41.7513066" lon="-3.881885"><ele>1712</ele><speed>35</speed><time>2016-06-29T15:50:53Z</time><course>159</course><type>1</type></trkpt>
      <trkpt lat="41.751225" lon="-3.8818417"><ele>1712</ele><speed>35</speed><time>2016-06-29T15:50:54Z</time><course>156</course><type>1</type></trkpt>
      <trkpt lat="41.7510766" lon="-3.8817467"><ele>1714</ele><speed>30</speed><time>2016-06-29T15:50:56Z</time><course>155</course><type>1</type></trkpt>
      <trkpt lat="41.7510116" lon="-3.8817167"><ele>1714</ele><speed>27</speed><time>2016-06-29T15:50:57Z</time><course>163</course><type>1</type></trkpt>
      <trkpt lat="41.750915" lon="-3.88171"><ele>1715</ele><speed>17</speed><time>2016-06-29T15:50:59Z</time><course>187</course><type>1</type></trkpt>
      <trkpt lat="41.750875" lon="-3.88172"><ele>1715</ele><speed>14</speed><time>2016-06-29T15:51:00Z</time><course>192</course><type>1</type></trkpt>
      <trkpt lat="41.7507916" lon="-3.8817484"><ele>1716</ele><speed>18</speed><time>2016-06-29T15:51:02Z</time><course>202</course><type>1</type></trkpt>
      <trkpt lat="41.7507466" lon="-3.881775"><ele>1716</ele><speed>21</speed><time>2016-06-29T15:51:03Z</time><course>211</course><type>1</type></trkpt>
      <trkpt lat="41.7506533" lon="-3.881845"><ele>1716</ele><speed>23</speed><time>2016-06-29T15:51:05Z</time><course>205</course><type>1</type></trkpt>
      <trkpt lat="41.7505633" lon="-3.8819117"><ele>1718</ele><speed>16</speed><time>2016-06-29T15:51:07Z</time><course>208</course><type>1</type></trkpt>
      <trkpt lat="41.75054" lon="-3.881975"><ele>1720</ele><speed>8</speed><time>2016-06-29T15:51:09Z</time><course>264</course><type>1</type></trkpt>
      <trkpt lat="41.7505166" lon="-3.8820517"><ele>1722</ele><speed>7</speed><time>2016-06-29T15:51:12Z</time><course>247</course><type>1</type></trkpt>
      <trkpt lat="41.7505816" lon="-3.8820667"><ele>1724</ele><speed>14</speed><time>2016-06-29T15:51:17Z</time><course>7</course><type>1</type></trkpt>
      <trkpt lat="41.7506216" lon="-3.8820584"><ele>1724</ele><speed>16</speed><time>2016-06-29T15:51:18Z</time><course>6</course><type>1</type></trkpt>
      <trkpt lat="41.7507033" lon="-3.88202"><ele>1725</ele><speed>19</speed><time>2016-06-29T15:51:20Z</time><course>30</course><type>1</type></trkpt>
      <trkpt lat="41.75079" lon="-3.8819017"><ele>1725</ele><speed>30</speed><time>2016-06-29T15:51:22Z</time><course>49</course><type>1</type></trkpt>
      <trkpt lat="41.7508866" lon="-3.8817184"><ele>1725</ele><speed>37</speed><time>2016-06-29T15:51:24Z</time><course>60</course><type>1</type></trkpt>
      <trkpt lat="41.75098" lon="-3.881475"><ele>1725</ele><speed>43</speed><time>2016-06-29T15:51:26Z</time><course>65</course><type>1</type></trkpt>
      <trkpt lat="41.75102" lon="-3.8813367"><ele>1726</ele><speed>44</speed><time>2016-06-29T15:51:27Z</time><course>69</course><type>1</type></trkpt>
      <trkpt lat="41.7510783" lon="-3.8810367"><ele>1726</ele><speed>47</speed><time>2016-06-29T15:51:29Z</time><course>78</course><type>1</type></trkpt>
      <trkpt lat="41.751085" lon="-3.8808634"><ele>1725</ele><speed>50</speed><time>2016-06-29T15:51:30Z</time><course>83</course><type>1</type></trkpt>
      <trkpt lat="41.7510766" lon="-3.8804584"><ele>1724</ele><speed>61</speed><time>2016-06-29T15:51:32Z</time><course>87</course><type>1</type></trkpt>
      <trkpt lat="41.7510783" lon="-3.880255"><ele>1724</ele><speed>60</speed><time>2016-06-29T15:51:33Z</time><course>87</course><type>1</type></trkpt>
      <trkpt lat="41.7510783" lon="-3.8798667"><ele>1724</ele><speed>56</speed><time>2016-06-29T15:51:35Z</time><course>93</course><type>1</type></trkpt>
      <trkpt lat="41.751075" lon="-3.8796767"><ele>1725</ele><speed>56</speed><time>2016-06-29T15:51:36Z</time><course>91</course><type>1</type></trkpt>
      <trkpt lat="41.7510766" lon="-3.87928"><ele>1725</ele><speed>61</speed><time>2016-06-29T15:51:38Z</time><course>89</course><type>1</type></trkpt>
      <trkpt lat="41.7510833" lon="-3.8790734"><ele>1726</ele><speed>61</speed><time>2016-06-29T15:51:39Z</time><course>91</course><type>1</type></trkpt>
      <trkpt lat="41.7510683" lon="-3.87868"><ele>1728</ele><speed>56</speed><time>2016-06-29T15:51:41Z</time><course>100</course><type>1</type></trkpt>
      <trkpt lat="41.7510416" lon="-3.8784984"><ele>1729</ele><speed>54</speed><time>2016-06-29T15:51:42Z</time><course>104</course><type>1</type></trkpt>
      <trkpt lat="41.7509366" lon="-3.8781717"><ele>1729</ele><speed>53</speed><time>2016-06-29T15:51:44Z</time><course>117</course><type>1</type></trkpt>
      <trkpt lat="41.750875" lon="-3.8780084"><ele>1729</ele><speed>56</speed><time>2016-06-29T15:51:45Z</time><course>116</course><type>1</type></trkpt>
      <trkpt lat="41.7507266" lon="-3.8776884"><ele>1730</ele><speed>55</speed><time>2016-06-29T15:51:47Z</time><course>125</course><type>1</type></trkpt>
      <trkpt lat="41.750645" lon="-3.8775434"><ele>1730</ele><speed>54</speed><time>2016-06-29T15:51:48Z</time><course>127</course><type>1</type></trkpt>
      <trkpt lat="41.7504683" lon="-3.877295"><ele>1730</ele><speed>49</speed><time>2016-06-29T15:51:50Z</time><course>137</course><type>1</type></trkpt>
      <trkpt lat="41.750285" lon="-3.87711"><ele>1731</ele><speed>44</speed><time>2016-06-29T15:51:52Z</time><course>140</course><type>1</type></trkpt>
      <trkpt lat="41.7502016" lon="-3.877025"><ele>1731</ele><speed>44</speed><time>2016-06-29T15:51:53Z</time><course>141</course><type>1</type></trkpt>
      <trkpt lat="41.7500133" lon="-3.8768567"><ele>1732</ele><speed>45</speed><time>2016-06-29T15:51:55Z</time><course>146</course><type>1</type></trkpt>
      <trkpt lat="41.7498316" lon="-3.87671"><ele>1734</ele><speed>39</speed><time>2016-06-29T15:51:57Z</time><course>148</course><type>1</type></trkpt>
      <trkpt lat="41.7496583" lon="-3.8765984"><ele>1734</ele><speed>41</speed><time>2016-06-29T15:51:59Z</time><course>155</course><type>1</type></trkpt>
      <trkpt lat="41.749475" lon="-3.8765151"><ele>1736</ele><speed>36</speed><time>2016-06-29T15:52:01Z</time><course>163</course><type>1</type></trkpt>
      <trkpt lat="41.7493933" lon="-3.876495"><ele>1736</ele><speed>33</speed><time>2016-06-29T15:52:02Z</time><course>169</course><type>1</type></trkpt>
      <trkpt lat="41.749255" lon="-3.8764767"><ele>1736</ele><speed>25</speed><time>2016-06-29T15:52:04Z</time><course>174</course><type>1</type></trkpt>
      <trkpt lat="41.74919" lon="-3.8764734"><ele>1736</ele><speed>24</speed><time>2016-06-29T15:52:05Z</time><course>177</course><type>1</type></trkpt>
      <trkpt lat="41.749045" lon="-3.87649"><ele>1736</ele><speed>31</speed><time>2016-06-29T15:52:07Z</time><course>189</course><type>1</type></trkpt>
      <trkpt lat="41.7489033" lon="-3.8765367"><ele>1736</ele><speed>26</speed><time>2016-06-29T15:52:09Z</time><course>196</course><type>1</type></trkpt>
      <trkpt lat="41.7488083" lon="-3.8765784"><ele>1737</ele><speed>16</speed><time>2016-06-29T15:52:11Z</time><course>202</course><type>1</type></trkpt>
      <trkpt lat="41.7487716" lon="-3.8765984"><ele>1737</ele><speed>14</speed><time>2016-06-29T15:52:12Z</time><course>201</course><type>1</type></trkpt>
      <trkpt lat="41.7487083" lon="-3.87664"><ele>1737</ele><speed>12</speed><time>2016-06-29T15:52:14Z</time><course>209</course><type>1</type></trkpt>
      <trkpt lat="41.74864" lon="-3.8766967"><ele>1736</ele><speed>16</speed><time>2016-06-29T15:52:16Z</time><course>216</course><type>1</type></trkpt>
      <trkpt lat="41.7486083" lon="-3.8767317"><ele>1736</ele><speed>17</speed><time>2016-06-29T15:52:17Z</time><course>222</course><type>1</type></trkpt>
      <trkpt lat="41.7485649" lon="-3.8767884"><ele>1736</ele><speed>8</speed><time>2016-06-29T15:52:19Z</time><course>226</course><type>1</type></trkpt>
      <trkpt lat="41.748685" lon="-3.87672"><ele>1734</ele><speed>29</speed><time>2016-06-29T15:52:23Z</time><course>28</course><type>1</type></trkpt>
      <trkpt lat="41.7487533" lon="-3.8766284"><ele>1732</ele><speed>42</speed><time>2016-06-29T15:52:24Z</time><course>50</course><type>1</type></trkpt>
      <trkpt lat="41.74881" lon="-3.87649"><ele>1730</ele><speed>51</speed><time>2016-06-29T15:52:25Z</time><course>64</course><type>1</type></trkpt>
      <trkpt lat="41.7488633" lon="-3.8761267"><ele>1727</ele><speed>58</speed><time>2016-06-29T15:52:27Z</time><course>85</course><type>1</type></trkpt>
      <trkpt lat="41.7488466" lon="-3.8759217"><ele>1725</ele><speed>60</speed><time>2016-06-29T15:52:28Z</time><course>94</course><type>1</type></trkpt>
      <trkpt lat="41.7488133" lon="-3.8757134"><ele>1724</ele><speed>62</speed><time>2016-06-29T15:52:29Z</time><course>102</course><type>1</type></trkpt>
      <trkpt lat="41.7487633" lon="-3.8755084"><ele>1723</ele><speed>63</speed><time>2016-06-29T15:52:30Z</time><course>107</course><type>1</type></trkpt>
      <trkpt lat="41.7487033" lon="-3.8753134"><ele>1721</ele><speed>61</speed><time>2016-06-29T15:52:31Z</time><course>112</course><type>1</type></trkpt>
      <trkpt lat="41.7485683" lon="-3.8749501"><ele>1719</ele><speed>59</speed><time>2016-06-29T15:52:33Z</time><course>119</course><type>1</type></trkpt>
      <trkpt lat="41.748495" lon="-3.8747734"><ele>1718</ele><speed>59</speed><time>2016-06-29T15:52:34Z</time><course>119</course><type>1</type></trkpt>
      <trkpt lat="41.7484266" lon="-3.8745917"><ele>1717</ele><speed>61</speed><time>2016-06-29T15:52:35Z</time><course>117</course><type>1</type></trkpt>
      <trkpt lat="41.7482783" lon="-3.8742167"><ele>1716</ele><speed>64</speed><time>2016-06-29T15:52:37Z</time><course>120</course><type>1</type></trkpt>
      <trkpt lat="41.7481933" lon="-3.8740367"><ele>1715</ele><speed>63</speed><time>2016-06-29T15:52:38Z</time><course>124</course><type>1</type></trkpt>
      <trkpt lat="41.747995" lon="-3.8737117"><ele>1713</ele><speed>63</speed><time>2016-06-29T15:52:40Z</time><course>133</course><type>1</type></trkpt>
      <trkpt lat="41.7478816" lon="-3.8735617"><ele>1713</ele><speed>63</speed><time>2016-06-29T15:52:41Z</time><course>136</course><type>1</type></trkpt>
      <trkpt lat="41.7476616" lon="-3.873285"><ele>1712</ele><speed>60</speed><time>2016-06-29T15:52:43Z</time><course>135</course><type>1</type></trkpt>
      <trkpt lat="41.7474616" lon="-3.8730267"><ele>1710</ele><speed>52</speed><time>2016-06-29T15:52:45Z</time><course>136</course><type>1</type></trkpt>
      <trkpt lat="41.7472699" lon="-3.8727884"><ele>1708</ele><speed>52</speed><time>2016-06-29T15:52:47Z</time><course>141</course><type>1</type></trkpt>
      <trkpt lat="41.7470333" lon="-3.8726"><ele>1705</ele><speed>56</speed><time>2016-06-29T15:52:49Z</time><course>151</course><type>1</type></trkpt>
      <trkpt lat="41.7469116" lon="-3.8725134"><ele>1704</ele><speed>54</speed><time>2016-06-29T15:52:50Z</time><course>150</course><type>1</type></trkpt>
      <trkpt lat="41.7466833" lon="-3.8723634"><ele>1702</ele><speed>48</speed><time>2016-06-29T15:52:52Z</time><course>157</course><type>1</type></trkpt>
      <trkpt lat="41.7465683" lon="-3.8723017"><ele>1700</ele><speed>49</speed><time>2016-06-29T15:52:53Z</time><course>159</course><type>1</type></trkpt>
      <trkpt lat="41.74633" lon="-3.8721801"><ele>1697</ele><speed>52</speed><time>2016-06-29T15:52:55Z</time><course>156</course><type>1</type></trkpt>
      <trkpt lat="41.7460983" lon="-3.8720284"><ele>1696</ele><speed>49</speed><time>2016-06-29T15:52:57Z</time><course>151</course><type>1</type></trkpt>
      <trkpt lat="41.745915" lon="-3.8719"><ele>1694</ele><speed>36</speed><time>2016-06-29T15:52:59Z</time><course>156</course><type>1</type></trkpt>
      <trkpt lat="41.745725" lon="-3.8718184"><ele>1693</ele><speed>42</speed><time>2016-06-29T15:53:01Z</time><course>165</course><type>1</type></trkpt>
      <trkpt lat="41.74562" lon="-3.8717784"><ele>1692</ele><speed>44</speed><time>2016-06-29T15:53:02Z</time><course>162</course><type>1</type></trkpt>
      <trkpt lat="41.7454083" lon="-3.8716784"><ele>1691</ele><speed>42</speed><time>2016-06-29T15:53:04Z</time><course>158</course><type>1</type></trkpt>
      <trkpt lat="41.7452133" lon="-3.8715684"><ele>1690</ele><speed>41</speed><time>2016-06-29T15:53:06Z</time><course>157</course><type>1</type></trkpt>
      <trkpt lat="41.7450033" lon="-3.8714534"><ele>1688</ele><speed>47</speed><time>2016-06-29T15:53:08Z</time><course>157</course><type>1</type></trkpt>
      <trkpt lat="41.7448883" lon="-3.8713834"><ele>1687</ele><speed>50</speed><time>2016-06-29T15:53:09Z</time><course>154</course><type>1</type></trkpt>
      <trkpt lat="41.744635" lon="-3.87122"><ele>1684</ele><speed>54</speed><time>2016-06-29T15:53:11Z</time><course>153</course><type>1</type></trkpt>
      <trkpt lat="41.74452" lon="-3.8711467"><ele>1682</ele><speed>46</speed><time>2016-06-29T15:53:12Z</time><course>156</course><type>1</type></trkpt>
      <trkpt lat="41.74432" lon="-3.8710684"><ele>1679</ele><speed>36</speed><time>2016-06-29T15:53:14Z</time><course>171</course><type>1</type></trkpt>
      <trkpt lat="41.74414" lon="-3.87105"><ele>1675</ele><speed>36</speed><time>2016-06-29T15:53:16Z</time><course>178</course><type>1</type></trkpt>
      <trkpt lat="41.7440466" lon="-3.871045"><ele>1673</ele><speed>38</speed><time>2016-06-29T15:53:17Z</time><course>176</course><type>1</type></trkpt>
      <trkpt lat="41.7439483" lon="-3.8710367"><ele>1672</ele><speed>40</speed><time>2016-06-29T15:53:18Z</time><course>174</course><type>1</type></trkpt>
      <trkpt lat="41.7437466" lon="-3.871015"><ele>1670</ele><speed>39</speed><time>2016-06-29T15:53:20Z</time><course>177</course><type>1</type></trkpt>
      <trkpt lat="41.74357" lon="-3.8710134"><ele>1668</ele><speed>32</speed><time>2016-06-29T15:53:22Z</time><course>180</course><type>1</type></trkpt>
      <trkpt lat="41.7434916" lon="-3.87102"><ele>1666</ele><speed>30</speed><time>2016-06-29T15:53:23Z</time><course>187</course><type>1</type></trkpt>
      <trkpt lat="41.7433383" lon="-3.8710517"><ele>1663</ele><speed>31</speed><time>2016-06-29T15:53:25Z</time><course>187</course><type>1</type></trkpt>
      <trkpt lat="41.7432583" lon="-3.8710617"><ele>1661</ele><speed>32</speed><time>2016-06-29T15:53:26Z</time><course>183</course><type>1</type></trkpt>
      <trkpt lat="41.7431083" lon="-3.871075"><ele>1658</ele><speed>28</speed><time>2016-06-29T15:53:28Z</time><course>182</course><type>1</type></trkpt>
      <trkpt lat="41.743045" lon="-3.8710817"><ele>1657</ele><speed>25</speed><time>2016-06-29T15:53:29Z</time><course>187</course><type>1</type></trkpt>
      <trkpt lat="41.7429266" lon="-3.8711167"><ele>1653</ele><speed>23</speed><time>2016-06-29T15:53:31Z</time><course>199</course><type>1</type></trkpt>
      <trkpt lat="41.7428699" lon="-3.8711534"><ele>1652</ele><speed>25</speed><time>2016-06-29T15:53:32Z</time><course>207</course><type>1</type></trkpt>
      <trkpt lat="41.7427566" lon="-3.8712367"><ele>1648</ele><speed>22</speed><time>2016-06-29T15:53:34Z</time><course>212</course><type>1</type></trkpt>
      <trkpt lat="41.7427" lon="-3.8713017"><ele>1644</ele><speed>11</speed><time>2016-06-29T15:53:36Z</time><course>232</course><type>1</type></trkpt>
      <trkpt lat="41.7426816" lon="-3.8713684"><ele>1641</ele><speed>11</speed><time>2016-06-29T15:53:38Z</time><course>261</course><type>1</type></trkpt>
      <trkpt lat="41.742695" lon="-3.871445"><ele>1639</ele><speed>12</speed><time>2016-06-29T15:53:40Z</time><course>297</course><type>1</type></trkpt>
      <trkpt lat="41.74274" lon="-3.8714934"><ele>1636</ele><speed>10</speed><time>2016-06-29T15:53:42Z</time><course>338</course><type>1</type></trkpt>
      <trkpt lat="41.7427983" lon="-3.8714967"><ele>1634</ele><speed>12</speed><time>2016-06-29T15:53:44Z</time><course>11</course><type>1</type></trkpt>
      <trkpt lat="41.742885" lon="-3.8714684"><ele>1632</ele><speed>19</speed><time>2016-06-29T15:53:46Z</time><course>11</course><type>1</type></trkpt>
      <trkpt lat="41.7430033" lon="-3.8714234"><ele>1629</ele><speed>26</speed><time>2016-06-29T15:53:48Z</time><course>17</course><type>1</type></trkpt>
      <trkpt lat="41.7431316" lon="-3.87133"><ele>1626</ele><speed>29</speed><time>2016-06-29T15:53:50Z</time><course>36</course><type>1</type></trkpt>
      <trkpt lat="41.743255" lon="-3.871175"><ele>1623</ele><speed>36</speed><time>2016-06-29T15:53:52Z</time><course>47</course><type>1</type></trkpt>
      <trkpt lat="41.74338" lon="-3.870975"><ele>1620</ele><speed>39</speed><time>2016-06-29T15:53:54Z</time><course>53</course><type>1</type></trkpt>
      <trkpt lat="41.7434983" lon="-3.8707434"><ele>1616</ele><speed>43</speed><time>2016-06-29T15:53:56Z</time><course>58</course><type>1</type></trkpt>
      <trkpt lat="41.7435966" lon="-3.8704634"><ele>1612</ele><speed>46</speed><time>2016-06-29T15:53:58Z</time><course>68</course><type>1</type></trkpt>
      <trkpt lat="41.74363" lon="-3.87031"><ele>1611</ele><speed>47</speed><time>2016-06-29T15:53:59Z</time><course>72</course><type>1</type></trkpt>
      <trkpt lat="41.74366" lon="-3.87015"><ele>1609</ele><speed>49</speed><time>2016-06-29T15:54:00Z</time><course>76</course><type>1</type></trkpt>
      <trkpt lat="41.7436933" lon="-3.8698084"><ele>1606</ele><speed>52</speed><time>2016-06-29T15:54:02Z</time><course>83</course><type>1</type></trkpt>
      <trkpt lat="41.7436916" lon="-3.8694434"><ele>1603</ele><speed>54</speed><time>2016-06-29T15:54:04Z</time><course>93</course><type>1</type></trkpt>
      <trkpt lat="41.74365" lon="-3.869055"><ele>1599</ele><speed>56</speed><time>2016-06-29T15:54:06Z</time><course>100</course><type>1</type></trkpt>
      <trkpt lat="41.74357" lon="-3.8686717"><ele>1595</ele><speed>58</speed><time>2016-06-29T15:54:08Z</time><course>110</course><type>1</type></trkpt>
      <trkpt lat="41.74346" lon="-3.8683084"><ele>1592</ele><speed>57</speed><time>2016-06-29T15:54:10Z</time><course>113</course><type>1</type></trkpt>
      <trkpt lat="41.7434" lon="-3.8681234"><ele>1590</ele><speed>62</speed><time>2016-06-29T15:54:11Z</time><course>114</course><type>1</type></trkpt>
      <trkpt lat="41.7432666" lon="-3.86772"><ele>1587</ele><speed>67</speed><time>2016-06-29T15:54:13Z</time><course>116</course><type>1</type></trkpt>
      <trkpt lat="41.7431166" lon="-3.8673317"><ele>1584</ele><speed>66</speed><time>2016-06-29T15:54:15Z</time><course>118</course><type>1</type></trkpt>
      <trkpt lat="41.7429566" lon="-3.8669617"><ele>1580</ele><speed>65</speed><time>2016-06-29T15:54:17Z</time><course>121</course><type>1</type></trkpt>
      <trkpt lat="41.742875" lon="-3.8667784"><ele>1579</ele><speed>64</speed><time>2016-06-29T15:54:18Z</time><course>121</course><type>1</type></trkpt>
      <trkpt lat="41.7427883" lon="-3.8665934"><ele>1578</ele><speed>64</speed><time>2016-06-29T15:54:19Z</time><course>122</course><type>1</type></trkpt>
      <trkpt lat="41.7427033" lon="-3.8664217"><ele>1576</ele><speed>60</speed><time>2016-06-29T15:54:20Z</time><course>124</course><type>1</type></trkpt>
      <trkpt lat="41.7425233" lon="-3.866115"><ele>1573</ele><speed>55</speed><time>2016-06-29T15:54:22Z</time><course>131</course><type>1</type></trkpt>
      <trkpt lat="41.742425" lon="-3.8659817"><ele>1571</ele><speed>57</speed><time>2016-06-29T15:54:23Z</time><course>135</course><type>1</type></trkpt>
      <trkpt lat="41.742205" lon="-3.8657434"><ele>1567</ele><speed>55</speed><time>2016-06-29T15:54:25Z</time><course>144</course><type>1</type></trkpt>
      <trkpt lat="41.7419583" lon="-3.86556"><ele>1564</ele><speed>56</speed><time>2016-06-29T15:54:27Z</time><course>151</course><type>1</type></trkpt>
      <trkpt lat="41.7417283" lon="-3.8654317"><ele>1560</ele><speed>45</speed><time>2016-06-29T15:54:29Z</time><course>161</course><type>1</type></trkpt>
      <trkpt lat="41.7416216" lon="-3.8653967"><ele>1558</ele><speed>44</speed><time>2016-06-29T15:54:30Z</time><course>167</course><type>1</type></trkpt>
      <trkpt lat="41.7414033" lon="-3.8653517"><ele>1554</ele><speed>44</speed><time>2016-06-29T15:54:32Z</time><course>172</course><type>1</type></trkpt>
      <trkpt lat="41.7411883" lon="-3.86532"><ele>1551</ele><speed>42</speed><time>2016-06-29T15:54:34Z</time><course>172</course><type>1</type></trkpt>
      <trkpt lat="41.7410899" lon="-3.8653067"><ele>1549</ele><speed>40</speed><time>2016-06-29T15:54:35Z</time><course>173</course><type>1</type></trkpt>
      <trkpt lat="41.7409966" lon="-3.8652984"><ele>1547</ele><speed>38</speed><time>2016-06-29T15:54:36Z</time><course>176</course><type>1</type></trkpt>
      <trkpt lat="41.7407983" lon="-3.8652767"><ele>1544</ele><speed>41</speed><time>2016-06-29T15:54:38Z</time><course>174</course><type>1</type></trkpt>
      <trkpt lat="41.7406933" lon="-3.865265"><ele>1542</ele><speed>43</speed><time>2016-06-29T15:54:39Z</time><course>174</course><type>1</type></trkpt>
      <trkpt lat="41.7404933" lon="-3.8652584"><ele>1540</ele><speed>37</speed><time>2016-06-29T15:54:41Z</time><course>180</course><type>1</type></trkpt>
      <trkpt lat="41.7403116" lon="-3.865275"><ele>1538</ele><speed>36</speed><time>2016-06-29T15:54:43Z</time><course>187</course><type>1</type></trkpt>
      <trkpt lat="41.7402266" lon="-3.8652884"><ele>1536</ele><speed>33</speed><time>2016-06-29T15:54:44Z</time><course>186</course><type>1</type></trkpt>
      <trkpt lat="41.7400766" lon="-3.8653251"><ele>1533</ele><speed>29</speed><time>2016-06-29T15:54:46Z</time><course>197</course><type>1</type></trkpt>
      <trkpt lat="41.7399566" lon="-3.86539"><ele>1531</ele><speed>24</speed><time>2016-06-29T15:54:48Z</time><course>203</course><type>1</type></trkpt>
      <trkpt lat="41.739835" lon="-3.8654567"><ele>1528</ele><speed>26</speed><time>2016-06-29T15:54:50Z</time><course>201</course><type>1</type></trkpt>
      <trkpt lat="41.73977" lon="-3.86549"><ele>1527</ele><speed>27</speed><time>2016-06-29T15:54:51Z</time><course>198</course><type>1</type></trkpt>
      <trkpt lat="41.7397033" lon="-3.86552"><ele>1525</ele><speed>27</speed><time>2016-06-29T15:54:52Z</time><course>199</course><type>1</type></trkpt>
      <trkpt lat="41.7395833" lon="-3.86561"><ele>1524</ele><speed>26</speed><time>2016-06-29T15:54:54Z</time><course>212</course><type>1</type></trkpt>
      <trkpt lat="41.73951" lon="-3.86571"><ele>1523</ele><speed>16</speed><time>2016-06-29T15:54:56Z</time><course>229</course><type>1</type></trkpt>
      <trkpt lat="41.7394783" lon="-3.86575"><ele>1523</ele><speed>13</speed><time>2016-06-29T15:54:57Z</time><course>219</course><type>1</type></trkpt>
      <trkpt lat="41.739435" lon="-3.8657867"><ele>1522</ele><speed>19</speed><time>2016-06-29T15:54:58Z</time><course>211</course><type>1</type></trkpt>
      <trkpt lat="41.7393416" lon="-3.8658667"><ele>1521</ele><speed>20</speed><time>2016-06-29T15:55:00Z</time><course>216</course><type>1</type></trkpt>
      <trkpt lat="41.7392833" lon="-3.8659634"><ele>1519</ele><speed>16</speed><time>2016-06-29T15:55:02Z</time><course>236</course><type>1</type></trkpt>
      <trkpt lat="41.7392583" lon="-3.8660217"><ele>1517</ele><speed>21</speed><time>2016-06-29T15:55:03Z</time><course>241</course><type>1</type></trkpt>
      <trkpt lat="41.7391733" lon="-3.86616"><ele>1515</ele><speed>29</speed><time>2016-06-29T15:55:05Z</time><course>223</course><type>1</type></trkpt>
      <trkpt lat="41.7391133" lon="-3.8662234"><ele>1514</ele><speed>31</speed><time>2016-06-29T15:55:06Z</time><course>218</course><type>1</type></trkpt>
      <trkpt lat="41.7390216" lon="-3.866315"><ele>1512</ele><speed>17</speed><time>2016-06-29T15:55:08Z</time><course>220</course><type>1</type></trkpt>
      <trkpt lat="41.7389533" lon="-3.8664317"><ele>1507</ele><speed>18</speed><time>2016-06-29T15:55:11Z</time><course>241</course><type>1</type></trkpt>
      <trkpt lat="41.7389166" lon="-3.8664934"><ele>1505</ele><speed>24</speed><time>2016-06-29T15:55:12Z</time><course>231</course><type>1</type></trkpt>
      <trkpt lat="41.738875" lon="-3.8665517"><ele>1503</ele><speed>25</speed><time>2016-06-29T15:55:13Z</time><course>231</course><type>1</type></trkpt>
      <trkpt lat="41.7388016" lon="-3.8666484"><ele>1500</ele><speed>18</speed><time>2016-06-29T15:55:15Z</time><course>220</course><type>1</type></trkpt>
      <trkpt lat="41.7387266" lon="-3.8667517"><ele>1497</ele><speed>24</speed><time>2016-06-29T15:55:17Z</time><course>222</course><type>1</type></trkpt>
      <trkpt lat="41.73868" lon="-3.866805"><ele>1496</ele><speed>26</speed><time>2016-06-29T15:55:18Z</time><course>221</course><type>1</type></trkpt>
      <trkpt lat="41.7385983" lon="-3.8669034"><ele>1493</ele><speed>19</speed><time>2016-06-29T15:55:20Z</time><course>224</course><type>1</type></trkpt>
      <trkpt lat="41.738575" lon="-3.866945"><ele>1491</ele><speed>14</speed><time>2016-06-29T15:55:21Z</time><course>234</course><type>1</type></trkpt>
      <trkpt lat="41.7385683" lon="-3.867035"><ele>1488</ele><speed>15</speed><time>2016-06-29T15:55:23Z</time><course>274</course><type>1</type></trkpt>
      <trkpt lat="41.7385816" lon="-3.86708"><ele>1487</ele><speed>13</speed><time>2016-06-29T15:55:24Z</time><course>295</course><type>1</type></trkpt>
      <trkpt lat="41.738635" lon="-3.8671284"><ele>1485</ele><speed>12</speed><time>2016-06-29T15:55:26Z</time><course>344</course><type>1</type></trkpt>
      <trkpt lat="41.7386966" lon="-3.8671284"><ele>1483</ele><speed>12</speed><time>2016-06-29T15:55:28Z</time><course>2</course><type>1</type></trkpt>
      <trkpt lat="41.7387483" lon="-3.8671184"><ele>1480</ele><speed>10</speed><time>2016-06-29T15:55:30Z</time><course>2</course><type>1</type></trkpt>
      <trkpt lat="41.7388283" lon="-3.8671234"><ele>1477</ele><speed>20</speed><time>2016-06-29T15:55:32Z</time><course>353</course><type>1</type></trkpt>
      <trkpt lat="41.73888" lon="-3.86713"><ele>1476</ele><speed>21</speed><time>2016-06-29T15:55:33Z</time><course>349</course><type>1</type></trkpt>
      <trkpt lat="41.7389733" lon="-3.8671267"><ele>1473</ele><speed>15</speed><time>2016-06-29T15:55:35Z</time><course>1</course><type>1</type></trkpt>
      <trkpt lat="41.739055" lon="-3.867105"><ele>1472</ele><speed>19</speed><time>2016-06-29T15:55:37Z</time><course>13</course><type>1</type></trkpt>
      <trkpt lat="41.7391549" lon="-3.8670634"><ele>1472</ele><speed>18</speed><time>2016-06-29T15:55:39Z</time><course>21</course><type>1</type></trkpt>
      <trkpt lat="41.7391883" lon="-3.86704"><ele>1472</ele><speed>12</speed><time>2016-06-29T15:55:40Z</time><course>28</course><type>1</type></trkpt>
      <trkpt lat="41.7392433" lon="-3.8670167"><ele>1471</ele><speed>13</speed><time>2016-06-29T15:55:42Z</time><course>12</course><type>1</type></trkpt>
      <trkpt lat="41.7393183" lon="-3.867015"><ele>1470</ele><speed>14</speed><time>2016-06-29T15:55:44Z</time><course>6</course><type>1</type></trkpt>
      <trkpt lat="41.7393916" lon="-3.8670167"><ele>1469</ele><speed>14</speed><time>2016-06-29T15:55:46Z</time><course>356</course><type>1</type></trkpt>
      <trkpt lat="41.7394666" lon="-3.866995"><ele>1467</ele><speed>16</speed><time>2016-06-29T15:55:48Z</time><course>20</course><type>1</type></trkpt>
      <trkpt lat="41.739505" lon="-3.866975"><ele>1467</ele><speed>16</speed><time>2016-06-29T15:55:49Z</time><course>24</course><type>1</type></trkpt>
      <trkpt lat="41.739545" lon="-3.8669567"><ele>1466</ele><speed>18</speed><time>2016-06-29T15:55:50Z</time><course>19</course><type>1</type></trkpt>
      <trkpt lat="41.7396466" lon="-3.8669267"><ele>1465</ele><speed>23</speed><time>2016-06-29T15:55:52Z</time><course>7</course><type>1</type></trkpt>
      <trkpt lat="41.7397433" lon="-3.8669134"><ele>1463</ele><speed>16</speed><time>2016-06-29T15:55:54Z</time><course>2</course><type>1</type></trkpt>
      <trkpt lat="41.73979" lon="-3.8669384"><ele>1463</ele><speed>6</speed><time>2016-06-29T15:55:56Z</time><course>318</course><type>1</type></trkpt>
      <trkpt lat="41.7398299" lon="-3.8669584"><ele>1462</ele><speed>10</speed><time>2016-06-29T15:55:58Z</time><course>358</course><type>1</type></trkpt>
      <trkpt lat="41.739925" lon="-3.8669334"><ele>1461</ele><speed>22</speed><time>2016-06-29T15:56:00Z</time><course>11</course><type>1</type></trkpt>
      <trkpt lat="41.7399766" lon="-3.866915"><ele>1460</ele><speed>21</speed><time>2016-06-29T15:56:01Z</time><course>12</course><type>1</type></trkpt>
      <trkpt lat="41.7400233" lon="-3.8668967"><ele>1459</ele><speed>19</speed><time>2016-06-29T15:56:02Z</time><course>13</course><type>1</type></trkpt>
      <trkpt lat="41.7401133" lon="-3.866865"><ele>1458</ele><speed>19</speed><time>2016-06-29T15:56:04Z</time><course>17</course><type>1</type></trkpt>
      <trkpt lat="41.7401666" lon="-3.8668451"><ele>1457</ele><speed>22</speed><time>2016-06-29T15:56:05Z</time><course>16</course><type>1</type></trkpt>
      <trkpt lat="41.740275" lon="-3.8667984"><ele>1455</ele><speed>22</speed><time>2016-06-29T15:56:07Z</time><course>16</course><type>1</type></trkpt>
      <trkpt lat="41.7403666" lon="-3.8667567"><ele>1453</ele><speed>18</speed><time>2016-06-29T15:56:09Z</time><course>20</course><type>1</type></trkpt>
      <trkpt lat="41.7404083" lon="-3.866735"><ele>1452</ele><speed>18</speed><time>2016-06-29T15:56:10Z</time><course>18</course><type>1</type></trkpt>
      <trkpt lat="41.7405083" lon="-3.8667017"><ele>1450</ele><speed>22</speed><time>2016-06-29T15:56:12Z</time><course>13</course><type>1</type></trkpt>
      <trkpt lat="41.7405633" lon="-3.8666767"><ele>1449</ele><speed>24</speed><time>2016-06-29T15:56:13Z</time><course>11</course><type>1</type></trkpt>
      <trkpt lat="41.740675" lon="-3.86662"><ele>1447</ele><speed>23</speed><time>2016-06-29T15:56:15Z</time><course>26</course><type>1</type></trkpt>
      <trkpt lat="41.7407733" lon="-3.866565"><ele>1444</ele><speed>20</speed><time>2016-06-29T15:56:17Z</time><course>17</course><type>1</type></trkpt>
      <trkpt lat="41.74088" lon="-3.8665384"><ele>1442</ele><speed>21</speed><time>2016-06-29T15:56:19Z</time><course>7</course><type>1</type></trkpt>
      <trkpt lat="41.74098" lon="-3.8664967"><ele>1440</ele><speed>20</speed><time>2016-06-29T15:56:21Z</time><course>18</course><type>1</type></trkpt>
      <trkpt lat="41.7410283" lon="-3.8664717"><ele>1439</ele><speed>20</speed><time>2016-06-29T15:56:22Z</time><course>22</course><type>1</type></trkpt>
      <trkpt lat="41.74113" lon="-3.86644"><ele>1438</ele><speed>22</speed><time>2016-06-29T15:56:24Z</time><course>10</course><type>1</type></trkpt>
      <trkpt lat="41.7412433" lon="-3.8664"><ele>1436</ele><speed>24</speed><time>2016-06-29T15:56:26Z</time><course>21</course><type>1</type></trkpt>
      <trkpt lat="41.7413533" lon="-3.86633"><ele>1435</ele><speed>25</speed><time>2016-06-29T15:56:28Z</time><course>27</course><type>1</type></trkpt>
      <trkpt lat="41.7414766" lon="-3.86625"><ele>1433</ele><speed>29</speed><time>2016-06-29T15:56:30Z</time><course>23</course><type>1</type></trkpt>
      <trkpt lat="41.741615" lon="-3.8661667"><ele>1431</ele><speed>30</speed><time>2016-06-29T15:56:32Z</time><course>24</course><type>1</type></trkpt>
      <trkpt lat="41.7416816" lon="-3.86613"><ele>1430</ele><speed>28</speed><time>2016-06-29T15:56:33Z</time><course>18</course><type>1</type></trkpt>
      <trkpt lat="41.7418066" lon="-3.8660767"><ele>1428</ele><speed>26</speed><time>2016-06-29T15:56:35Z</time><course>13</course><type>1</type></trkpt>
      <trkpt lat="41.74192" lon="-3.8660467"><ele>1425</ele><speed>18</speed><time>2016-06-29T15:56:37Z</time><course>9</course><type>1</type></trkpt>
      <trkpt lat="41.7418816" lon="-3.8661"><ele>1422</ele><speed>11</speed><time>2016-06-29T15:56:44Z</time><course>227</course><type>1</type></trkpt>
      <trkpt lat="41.7417916" lon="-3.8661584"><ele>1420</ele><speed>14</speed><time>2016-06-29T15:56:47Z</time><course>197</course><type>1</type></trkpt>
      <trkpt lat="41.741755" lon="-3.8661717"><ele>1419</ele><speed>17</speed><time>2016-06-29T15:56:48Z</time><course>197</course><type>1</type></trkpt>
      <trkpt lat="41.741645" lon="-3.86618"><ele>1417</ele><speed>24</speed><time>2016-06-29T15:56:50Z</time><course>175</course><type>1</type></trkpt>
      <trkpt lat="41.7415733" lon="-3.866165"><ele>1416</ele><speed>29</speed><time>2016-06-29T15:56:51Z</time><course>169</course><type>1</type></trkpt>
      <trkpt lat="41.7413783" lon="-3.8660984"><ele>1414</ele><speed>40</speed><time>2016-06-29T15:56:53Z</time><course>164</course><type>1</type></trkpt>
      <trkpt lat="41.7412866" lon="-3.86606"><ele>1414</ele><speed>38</speed><time>2016-06-29T15:56:54Z</time><course>162</course><type>1</type></trkpt>
      <trkpt lat="41.7411983" lon="-3.8660234"><ele>1413</ele><speed>36</speed><time>2016-06-29T15:56:55Z</time><course>163</course><type>1</type></trkpt>
      <trkpt lat="41.7410333" lon="-3.8659717"><ele>1412</ele><speed>30</speed><time>2016-06-29T15:56:57Z</time><course>170</course><type>1</type></trkpt>
      <trkpt lat="41.7408916" lon="-3.865955"><ele>1411</ele><speed>26</speed><time>2016-06-29T15:56:59Z</time><course>172</course><type>1</type></trkpt>
      <trkpt lat="41.7408266" lon="-3.8659367"><ele>1410</ele><speed>24</speed><time>2016-06-29T15:57:00Z</time><course>162</course><type>1</type></trkpt>
      <trkpt lat="41.7407166" lon="-3.86589"><ele>1409</ele><speed>21</speed><time>2016-06-29T15:57:02Z</time><course>160</course><type>1</type></trkpt>
      <trkpt lat="41.7406083" lon="-3.8658734"><ele>1408</ele><speed>21</speed><time>2016-06-29T15:57:04Z</time><course>178</course><type>1</type></trkpt>
      <trkpt lat="41.7405116" lon="-3.8658817"><ele>1407</ele><speed>17</speed><time>2016-06-29T15:57:06Z</time><course>183</course><type>1</type></trkpt>
      <trkpt lat="41.74047" lon="-3.8658767"><ele>1406</ele><speed>16</speed><time>2016-06-29T15:57:07Z</time><course>168</course><type>1</type></trkpt>
      <trkpt lat="41.740435" lon="-3.8658584"><ele>1406</ele><speed>15</speed><time>2016-06-29T15:57:08Z</time><course>150</course><type>1</type></trkpt>
      <trkpt lat="41.7403833" lon="-3.8658117"><ele>1405</ele><speed>10</speed><time>2016-06-29T15:57:10Z</time><course>152</course><type>1</type></trkpt>
      <trkpt lat="41.7403283" lon="-3.865795"><ele>1406</ele><speed>11</speed><time>2016-06-29T15:57:12Z</time><course>166</course><type>1</type></trkpt>
      <trkpt lat="41.74023" lon="-3.8657567"><ele>1405</ele><speed>12</speed><time>2016-06-29T15:57:15Z</time><course>159</course><type>1</type></trkpt>
      <trkpt lat="41.740165" lon="-3.8657317"><ele>1406</ele><speed>8</speed><time>2016-06-29T15:57:18Z</time><course>156</course><type>1</type></trkpt>
      <trkpt lat="41.7400966" lon="-3.865715"><ele>1405</ele><speed>7</speed><time>2016-06-29T15:57:21Z</time><course>178</course><type>1</type></trkpt>
      <trkpt lat="41.7401133" lon="-3.8656517"><ele>1406</ele><speed>14</speed><time>2016-06-29T15:57:26Z</time><course>42</course><type>1</type></trkpt>
      <trkpt lat="41.7401899" lon="-3.8655617"><ele>1406</ele><speed>23</speed><time>2016-06-29T15:57:28Z</time><course>40</course><type>1</type></trkpt>
      <trkpt lat="41.7402349" lon="-3.8655067"><ele>1406</ele><speed>25</speed><time>2016-06-29T15:57:29Z</time><course>41</course><type>1</type></trkpt>
      <trkpt lat="41.7403266" lon="-3.8653984"><ele>1405</ele><speed>22</speed><time>2016-06-29T15:57:31Z</time><course>38</course><type>1</type></trkpt>
      <trkpt lat="41.7403966" lon="-3.8653217"><ele>1404</ele><speed>15</speed><time>2016-06-29T15:57:33Z</time><course>29</course><type>1</type></trkpt>
      <trkpt lat="41.7404333" lon="-3.8652567"><ele>1404</ele><speed>12</speed><time>2016-06-29T15:57:35Z</time><course>66</course><type>1</type></trkpt>
      <trkpt lat="41.7404416" lon="-3.865205"><ele>1403</ele><speed>8</speed><time>2016-06-29T15:57:37Z</time><course>64</course><type>1</type></trkpt>
      <trkpt lat="41.740515" lon="-3.8651484"><ele>1402</ele><speed>17</speed><time>2016-06-29T15:57:39Z</time><course>30</course><type>1</type></trkpt>
      <trkpt lat="41.7405566" lon="-3.8651034"><ele>1398</ele><speed>8</speed><time>2016-06-29T15:57:41Z</time><course>19</course><type>1</type></trkpt>
      <trkpt lat="41.7406266" lon="-3.865075"><ele>1391</ele><speed>9</speed><time>2016-06-29T15:57:46Z</time><course>12</course><type>1</type></trkpt>
      <trkpt lat="41.7406616" lon="-3.8650417"><ele>1388</ele><speed>4</speed><time>2016-06-29T15:57:52Z</time><course>121</course><type>1</type></trkpt>
      <trkpt lat="41.740715" lon="-3.86504"><ele>1386</ele><speed>4</speed><time>2016-06-29T15:57:56Z</time><course>341</course><type>1</type></trkpt>
      <trkpt lat="41.740765" lon="-3.8649984"><ele>1385</ele><speed>10</speed><time>2016-06-29T15:57:59Z</time><course>21</course><type>1</type></trkpt>
      <trkpt lat="41.7407733" lon="-3.8650484"><ele>1381</ele><speed>5</speed><time>2016-06-29T15:58:04Z</time><course>252</course><type>1</type></trkpt>
      <trkpt lat="41.7407766" lon="-3.865105"><ele>1379</ele><speed>4</speed><time>2016-06-29T15:58:07Z</time><course>270</course><type>1</type></trkpt>
      <trkpt lat="41.7407516" lon="-3.865165"><ele>1375</ele><speed>0</speed><time>2016-06-29T15:58:15Z</time><course>270</course><type>1</type></trkpt>
      <trkpt lat="41.7407216" lon="-3.8652"><ele>1373</ele><speed>8</speed><time>2016-06-29T15:58:17Z</time><course>236</course><type>1</type></trkpt>
      <trkpt lat="41.7407" lon="-3.8652534"><ele>1371</ele><speed>4</speed><time>2016-06-29T15:58:20Z</time><course>250</course><type>1</type></trkpt>
      <trkpt lat="41.7406583" lon="-3.8652517"><ele>1369</ele><speed>7</speed><time>2016-06-29T15:58:23Z</time><course>186</course><type>1</type></trkpt>
      <trkpt lat="41.74062" lon="-3.8652817"><ele>1367</ele><speed>8</speed><time>2016-06-29T15:58:26Z</time><course>227</course><type>1</type></trkpt>
      <trkpt lat="41.74056" lon="-3.8652967"><ele>1366</ele><speed>13</speed><time>2016-06-29T15:58:28Z</time><course>186</course><type>1</type></trkpt>
      <trkpt lat="41.7405233" lon="-3.8652934"><ele>1365</ele><speed>13</speed><time>2016-06-29T15:58:29Z</time><course>175</course><type>1</type></trkpt>
      <trkpt lat="41.7404583" lon="-3.8652934"><ele>1364</ele><speed>12</speed><time>2016-06-29T15:58:31Z</time><course>181</course><type>1</type></trkpt>
      <trkpt lat="41.7403966" lon="-3.8652934"><ele>1363</ele><speed>11</speed><time>2016-06-29T15:58:33Z</time><course>185</course><type>1</type></trkpt>
      <trkpt lat="41.740365" lon="-3.865265"><ele>1358</ele><speed>0</speed><time>2016-06-29T15:58:43Z</time><course>108</course><type>1</type></trkpt>
      <trkpt lat="41.7403249" lon="-3.8652517"><ele>1356</ele><speed>0</speed><time>2016-06-29T15:58:46Z</time><course>108</course><type>1</type></trkpt>
      <trkpt lat="41.7402666" lon="-3.8652984"><ele>1354</ele><speed>8</speed><time>2016-06-29T15:58:49Z</time><course>201</course><type>1</type></trkpt>
      <trkpt lat="41.7402066" lon="-3.8653067"><ele>1352</ele><speed>12</speed><time>2016-06-29T15:58:51Z</time><course>186</course><type>1</type></trkpt>
      <trkpt lat="41.7401433" lon="-3.8653267"><ele>1351</ele><speed>13</speed><time>2016-06-29T15:58:53Z</time><course>201</course><type>1</type></trkpt>
      <trkpt lat="41.7401133" lon="-3.8653534"><ele>1349</ele><speed>4</speed><time>2016-06-29T15:58:55Z</time><course>198</course><type>1</type></trkpt>
      <trkpt lat="41.7400233" lon="-3.865385"><ele>1347</ele><speed>16</speed><time>2016-06-29T15:58:59Z</time><course>185</course><type>1</type></trkpt>
      <trkpt lat="41.7399316" lon="-3.8654067"><ele>1345</ele><speed>21</speed><time>2016-06-29T15:59:01Z</time><course>193</course><type>1</type></trkpt>
      <trkpt lat="41.7398333" lon="-3.8654567"><ele>1344</ele><speed>20</speed><time>2016-06-29T15:59:03Z</time><course>200</course><type>1</type></trkpt>
      <trkpt lat="41.7397849" lon="-3.8654584"><ele>1343</ele><speed>17</speed><time>2016-06-29T15:59:04Z</time><course>166</course><type>1</type></trkpt>
      <trkpt lat="41.7396883" lon="-3.8654284"><ele>1341</ele><speed>19</speed><time>2016-06-29T15:59:06Z</time><course>171</course><type>1</type></trkpt>
      <trkpt lat="41.7395716" lon="-3.8654534"><ele>1339</ele><speed>26</speed><time>2016-06-29T15:59:08Z</time><course>197</course><type>1</type></trkpt>
      <trkpt lat="41.7394316" lon="-3.86549"><ele>1337</ele><speed>27</speed><time>2016-06-29T15:59:10Z</time><course>183</course><type>1</type></trkpt>
      <trkpt lat="41.739265" lon="-3.865455"><ele>1334</ele><speed>33</speed><time>2016-06-29T15:59:12Z</time><course>162</course><type>1</type></trkpt>
      <trkpt lat="41.7391066" lon="-3.8653984"><ele>1333</ele><speed>33</speed><time>2016-06-29T15:59:14Z</time><course>167</course><type>1</type></trkpt>
      <trkpt lat="41.7389299" lon="-3.8653701"><ele>1330</ele><speed>34</speed><time>2016-06-29T15:59:16Z</time><course>174</course><type>1</type></trkpt>
      <trkpt lat="41.7387533" lon="-3.8653417"><ele>1328</ele><speed>33</speed><time>2016-06-29T15:59:18Z</time><course>171</course><type>1</type></trkpt>
      <trkpt lat="41.7385766" lon="-3.8652984"><ele>1327</ele><speed>36</speed><time>2016-06-29T15:59:20Z</time><course>167</course><type>1</type></trkpt>
      <trkpt lat="41.7384799" lon="-3.8652817"><ele>1326</ele><speed>38</speed><time>2016-06-29T15:59:21Z</time><course>169</course><type>1</type></trkpt>
      <trkpt lat="41.7382866" lon="-3.865245"><ele>1323</ele><speed>39</speed><time>2016-06-29T15:59:23Z</time><course>174</course><type>1</type></trkpt>
      <trkpt lat="41.738195" lon="-3.8652334"><ele>1321</ele><speed>35</speed><time>2016-06-29T15:59:24Z</time><course>174</course><type>1</type></trkpt>
      <trkpt lat="41.7380116" lon="-3.8652217"><ele>1317</ele><speed>36</speed><time>2016-06-29T15:59:26Z</time><course>173</course><type>1</type></trkpt>
      <trkpt lat="41.737815" lon="-3.865185"><ele>1313</ele><speed>43</speed><time>2016-06-29T15:59:28Z</time><course>166</course><type>1</type></trkpt>
      <trkpt lat="41.7375799" lon="-3.865095"><ele>1309</ele><speed>51</speed><time>2016-06-29T15:59:30Z</time><course>162</course><type>1</type></trkpt>
      <trkpt lat="41.7374583" lon="-3.86503"><ele>1307</ele><speed>51</speed><time>2016-06-29T15:59:31Z</time><course>157</course><type>1</type></trkpt>
      <trkpt lat="41.7372199" lon="-3.86488"><ele>1303</ele><speed>52</speed><time>2016-06-29T15:59:33Z</time><course>149</course><type>1</type></trkpt>
      <trkpt lat="41.7371016" lon="-3.8647784"><ele>1302</ele><speed>55</speed><time>2016-06-29T15:59:34Z</time><course>146</course><type>1</type></trkpt>
      <trkpt lat="41.7368683" lon="-3.8645417"><ele>1299</ele><speed>59</speed><time>2016-06-29T15:59:36Z</time><course>140</course><type>1</type></trkpt>
      <trkpt lat="41.7366466" lon="-3.864265"><ele>1297</ele><speed>61</speed><time>2016-06-29T15:59:38Z</time><course>135</course><type>1</type></trkpt>
      <trkpt lat="41.7364216" lon="-3.863955"><ele>1295</ele><speed>67</speed><time>2016-06-29T15:59:40Z</time><course>136</course><type>1</type></trkpt>
      <trkpt lat="41.736195" lon="-3.8636367"><ele>1293</ele><speed>62</speed><time>2016-06-29T15:59:42Z</time><course>133</course><type>1</type></trkpt>
      <trkpt lat="41.7360933" lon="-3.8634734"><ele>1291</ele><speed>62</speed><time>2016-06-29T15:59:43Z</time><course>129</course><type>1</type></trkpt>
      <trkpt lat="41.7359916" lon="-3.8633017"><ele>1289</ele><speed>66</speed><time>2016-06-29T15:59:44Z</time><course>129</course><type>1</type></trkpt>
      <trkpt lat="41.7358833" lon="-3.8631284"><ele>1287</ele><speed>66</speed><time>2016-06-29T15:59:45Z</time><course>132</course><type>1</type></trkpt>
      <trkpt lat="41.735665" lon="-3.86279"><ele>1284</ele><speed>67</speed><time>2016-06-29T15:59:47Z</time><course>130</course><type>1</type></trkpt>
      <trkpt lat="41.7354533" lon="-3.8624584"><ele>1281</ele><speed>65</speed><time>2016-06-29T15:59:49Z</time><course>130</course><type>1</type></trkpt>
      <trkpt lat="41.735215" lon="-3.8621017"><ele>1278</ele><speed>73</speed><time>2016-06-29T15:59:51Z</time><course>132</course><type>1</type></trkpt>
      <trkpt lat="41.7349833" lon="-3.8617534"><ele>1275</ele><speed>66</speed><time>2016-06-29T15:59:53Z</time><course>128</course><type>1</type></trkpt>
      <trkpt lat="41.73478" lon="-3.86142"><ele>1273</ele><speed>61</speed><time>2016-06-29T15:59:55Z</time><course>130</course><type>1</type></trkpt>
      <trkpt lat="41.7346716" lon="-3.8612567"><ele>1272</ele><speed>64</speed><time>2016-06-29T15:59:56Z</time><course>132</course><type>1</type></trkpt>
      <trkpt lat="41.7344383" lon="-3.86092"><ele>1269</ele><speed>70</speed><time>2016-06-29T15:59:58Z</time><course>136</course><type>1</type></trkpt>
      <trkpt lat="41.7343116" lon="-3.8607634"><ele>1268</ele><speed>69</speed><time>2016-06-29T15:59:59Z</time><course>137</course><type>1</type></trkpt>
      <trkpt lat="41.7340783" lon="-3.8604684"><ele>1265</ele><speed>60</speed><time>2016-06-29T16:00:01Z</time><course>135</course><type>1</type></trkpt>
      <trkpt lat="41.7338683" lon="-3.8602034"><ele>1263</ele><speed>57</speed><time>2016-06-29T16:00:03Z</time><course>136</course><type>1</type></trkpt>
      <trkpt lat="41.7337583" lon="-3.86007"><ele>1262</ele><speed>57</speed><time>2016-06-29T16:00:04Z</time><course>139</course><type>1</type></trkpt>
      <trkpt lat="41.733645" lon="-3.8599567"><ele>1262</ele><speed>57</speed><time>2016-06-29T16:00:05Z</time><course>145</course><type>1</type></trkpt>
      <trkpt lat="41.7334083" lon="-3.8597567"><ele>1261</ele><speed>52</speed><time>2016-06-29T16:00:07Z</time><course>152</course><type>1</type></trkpt>
      <trkpt lat="41.733195" lon="-3.859615"><ele>1260</ele><speed>44</speed><time>2016-06-29T16:00:09Z</time><course>158</course><type>1</type></trkpt>
      <trkpt lat="41.733" lon="-3.85957"><ele>1257</ele><speed>36</speed><time>2016-06-29T16:00:11Z</time><course>183</course><type>1</type></trkpt>
      <trkpt lat="41.73287" lon="-3.8595951"><ele>1258</ele><speed>17</speed><time>2016-06-29T16:00:13Z</time><course>196</course><type>1</type></trkpt>
      <trkpt lat="41.7328316" lon="-3.8596084"><ele>1258</ele><speed>13</speed><time>2016-06-29T16:00:14Z</time><course>192</course><type>1</type></trkpt>
      <trkpt lat="41.7327766" lon="-3.8596401"><ele>1257</ele><speed>10</speed><time>2016-06-29T16:00:16Z</time><course>218</course><type>1</type></trkpt>
      <trkpt lat="41.7328083" lon="-3.8596167"><ele>1253</ele><speed>9</speed><time>2016-06-29T16:00:20Z</time><course>22</course><type>1</type></trkpt>
      <trkpt lat="41.732875" lon="-3.85958"><ele>1251</ele><speed>14</speed><time>2016-06-29T16:00:22Z</time><course>28</course><type>1</type></trkpt>
      <trkpt lat="41.7329033" lon="-3.85954"><ele>1250</ele><speed>17</speed><time>2016-06-29T16:00:23Z</time><course>49</course><type>1</type></trkpt>
      <trkpt lat="41.7329333" lon="-3.8594817"><ele>1250</ele><speed>23</speed><time>2016-06-29T16:00:24Z</time><course>59</course><type>1</type></trkpt>
      <trkpt lat="41.7330066" lon="-3.8592984"><ele>1247</ele><speed>36</speed><time>2016-06-29T16:00:26Z</time><course>63</course><type>1</type></trkpt>
      <trkpt lat="41.73305" lon="-3.85918"><ele>1247</ele><speed>40</speed><time>2016-06-29T16:00:27Z</time><course>63</course><type>1</type></trkpt>
      <trkpt lat="41.733115" lon="-3.858855"><ele>1244</ele><speed>54</speed><time>2016-06-29T16:00:29Z</time><course>80</course><type>1</type></trkpt>
      <trkpt lat="41.73313" lon="-3.8584667"><ele>1242</ele><speed>59</speed><time>2016-06-29T16:00:31Z</time><course>85</course><type>1</type></trkpt>
      <trkpt lat="41.7331366" lon="-3.858265"><ele>1241</ele><speed>60</speed><time>2016-06-29T16:00:32Z</time><course>92</course><type>1</type></trkpt>
      <trkpt lat="41.7331166" lon="-3.8578417"><ele>1238</ele><speed>65</speed><time>2016-06-29T16:00:34Z</time><course>91</course><type>1</type></trkpt>
      <trkpt lat="41.7330816" lon="-3.857415"><ele>1236</ele><speed>61</speed><time>2016-06-29T16:00:36Z</time><course>98</course><type>1</type></trkpt>
      <trkpt lat="41.7330416" lon="-3.8570084"><ele>1234</ele><speed>62</speed><time>2016-06-29T16:00:38Z</time><course>99</course><type>1</type></trkpt>
      <trkpt lat="41.7330133" lon="-3.8567934"><ele>1233</ele><speed>66</speed><time>2016-06-29T16:00:39Z</time><course>100</course><type>1</type></trkpt>
      <trkpt lat="41.7329399" lon="-3.8563567"><ele>1232</ele><speed>64</speed><time>2016-06-29T16:00:41Z</time><course>104</course><type>1</type></trkpt>
      <trkpt lat="41.7328583" lon="-3.8559534"><ele>1230</ele><speed>60</speed><time>2016-06-29T16:00:43Z</time><course>104</course><type>1</type></trkpt>
      <trkpt lat="41.732775" lon="-3.8555517"><ele>1229</ele><speed>63</speed><time>2016-06-29T16:00:45Z</time><course>108</course><type>1</type></trkpt>
      <trkpt lat="41.7326566" lon="-3.855135"><ele>1227</ele><speed>65</speed><time>2016-06-29T16:00:47Z</time><course>111</course><type>1</type></trkpt>
      <trkpt lat="41.7325883" lon="-3.8549334"><ele>1226</ele><speed>65</speed><time>2016-06-29T16:00:48Z</time><course>114</course><type>1</type></trkpt>
      <trkpt lat="41.7324633" lon="-3.8545367"><ele>1226</ele><speed>63</speed><time>2016-06-29T16:00:50Z</time><course>111</course><type>1</type></trkpt>
      <trkpt lat="41.732405" lon="-3.8543384"><ele>1226</ele><speed>61</speed><time>2016-06-29T16:00:51Z</time><course>110</course><type>1</type></trkpt>
      <trkpt lat="41.73228" lon="-3.85397"><ele>1227</ele><speed>59</speed><time>2016-06-29T16:00:53Z</time><course>120</course><type>1</type></trkpt>
      <trkpt lat="41.7321016" lon="-3.8536934"><ele>1227</ele><speed>51</speed><time>2016-06-29T16:00:55Z</time><course>143</course><type>1</type></trkpt>
      <trkpt lat="41.7319983" lon="-3.85362"><ele>1226</ele><speed>48</speed><time>2016-06-29T16:00:56Z</time><course>155</course><type>1</type></trkpt>
      <trkpt lat="41.7318933" lon="-3.8535817"><ele>1225</ele><speed>42</speed><time>2016-06-29T16:00:57Z</time><course>167</course><type>1</type></trkpt>
      <trkpt lat="41.73171" lon="-3.85359"><ele>1225</ele><speed>32</speed><time>2016-06-29T16:00:59Z</time><course>188</course><type>1</type></trkpt>
      <trkpt lat="41.73167" lon="-3.8536334"><ele>1225</ele><speed>18</speed><time>2016-06-29T16:01:00Z</time><course>218</course><type>1</type></trkpt>
      <trkpt lat="41.7316533" lon="-3.8536967"><ele>1223</ele><speed>4</speed><time>2016-06-29T16:01:02Z</time><course>246</course><type>1</type></trkpt>
      <trkpt lat="41.7317016" lon="-3.853655"><ele>1224</ele><speed>20</speed><time>2016-06-29T16:01:04Z</time><course>41</course><type>1</type></trkpt>
      <trkpt lat="41.731745" lon="-3.8535884"><ele>1224</ele><speed>24</speed><time>2016-06-29T16:01:05Z</time><course>48</course><type>1</type></trkpt>
      <trkpt lat="41.7317933" lon="-3.8535167"><ele>1225</ele><speed>27</speed><time>2016-06-29T16:01:06Z</time><course>44</course><type>1</type></trkpt>
      <trkpt lat="41.7318983" lon="-3.8533467"><ele>1226</ele><speed>34</speed><time>2016-06-29T16:01:08Z</time><course>52</course><type>1</type></trkpt>
      <trkpt lat="41.7319483" lon="-3.853245"><ele>1227</ele><speed>36</speed><time>2016-06-29T16:01:09Z</time><course>58</course><type>1</type></trkpt>
      <trkpt lat="41.732065" lon="-3.8530334"><ele>1227</ele><speed>39</speed><time>2016-06-29T16:01:11Z</time><course>54</course><type>1</type></trkpt>
      <trkpt lat="41.7321633" lon="-3.8527767"><ele>1228</ele><speed>46</speed><time>2016-06-29T16:01:13Z</time><course>67</course><type>1</type></trkpt>
      <trkpt lat="41.7321966" lon="-3.852625"><ele>1228</ele><speed>48</speed><time>2016-06-29T16:01:14Z</time><course>77</course><type>1</type></trkpt>
      <trkpt lat="41.7322533" lon="-3.8522717"><ele>1227</ele><speed>59</speed><time>2016-06-29T16:01:16Z</time><course>76</course><type>1</type></trkpt>
      <trkpt lat="41.7322866" lon="-3.85207"><ele>1227</ele><speed>62</speed><time>2016-06-29T16:01:17Z</time><course>76</course><type>1</type></trkpt>
      <trkpt lat="41.7323133" lon="-3.8518634"><ele>1227</ele><speed>61</speed><time>2016-06-29T16:01:18Z</time><course>79</course><type>1</type></trkpt>
      <trkpt lat="41.7323366" lon="-3.8514567"><ele>1227</ele><speed>59</speed><time>2016-06-29T16:01:20Z</time><course>82</course><type>1</type></trkpt>
      <trkpt lat="41.73235" lon="-3.8510634"><ele>1227</ele><speed>55</speed><time>2016-06-29T16:01:22Z</time><course>93</course><type>1</type></trkpt>
      <trkpt lat="41.732325" lon="-3.850675"><ele>1227</ele><speed>58</speed><time>2016-06-29T16:01:24Z</time><course>94</course><type>1</type></trkpt>
      <trkpt lat="41.7322766" lon="-3.8502734"><ele>1227</ele><speed>61</speed><time>2016-06-29T16:01:26Z</time><course>100</course><type>1</type></trkpt>
      <trkpt lat="41.7321716" lon="-3.8498817"><ele>1226</ele><speed>60</speed><time>2016-06-29T16:01:28Z</time><course>115</course><type>1</type></trkpt>
      <trkpt lat="41.7320216" lon="-3.84957"><ele>1225</ele><speed>51</speed><time>2016-06-29T16:01:30Z</time><course>133</course><type>1</type></trkpt>
      <trkpt lat="41.7318233" lon="-3.8493851"><ele>1223</ele><speed>45</speed><time>2016-06-29T16:01:32Z</time><course>156</course><type>1</type></trkpt>
      <trkpt lat="41.7316466" lon="-3.8493234"><ele>1222</ele><speed>29</speed><time>2016-06-29T16:01:34Z</time><course>178</course><type>1</type></trkpt>
      <trkpt lat="41.7315833" lon="-3.8493367"><ele>1221</ele><speed>23</speed><time>2016-06-29T16:01:35Z</time><course>199</course><type>1</type></trkpt>
      <trkpt lat="41.731515" lon="-3.8493984"><ele>1220</ele><speed>12</speed><time>2016-06-29T16:01:37Z</time><course>219</course><type>1</type></trkpt>
      <trkpt lat="41.7315316" lon="-3.8492867"><ele>1221</ele><speed>12</speed><time>2016-06-29T16:01:42Z</time><course>59</course><type>1</type></trkpt>
      <trkpt lat="41.7315916" lon="-3.8492134"><ele>1222</ele><speed>22</speed><time>2016-06-29T16:01:44Z</time><course>40</course><type>1</type></trkpt>
      <trkpt lat="41.731635" lon="-3.8491567"><ele>1222</ele><speed>24</speed><time>2016-06-29T16:01:45Z</time><course>47</course><type>1</type></trkpt>
      <trkpt lat="41.731715" lon="-3.8490167"><ele>1224</ele><speed>28</speed><time>2016-06-29T16:01:47Z</time><course>54</course><type>1</type></trkpt>
      <trkpt lat="41.731755" lon="-3.848935"><ele>1224</ele><speed>30</speed><time>2016-06-29T16:01:48Z</time><course>58</course><type>1</type></trkpt>
      <trkpt lat="41.7318466" lon="-3.8487267"><ele>1224</ele><speed>39</speed><time>2016-06-29T16:01:50Z</time><course>58</course><type>1</type></trkpt>
      <trkpt lat="41.73194" lon="-3.8484734"><ele>1225</ele><speed>44</speed><time>2016-06-29T16:01:52Z</time><course>66</course><type>1</type></trkpt>
      <trkpt lat="41.7319933" lon="-3.84814"><ele>1224</ele><speed>54</speed><time>2016-06-29T16:01:54Z</time><course>78</course><type>1</type></trkpt>
      <trkpt lat="41.7320116" lon="-3.8477467"><ele>1224</ele><speed>60</speed><time>2016-06-29T16:01:56Z</time><course>87</course><type>1</type></trkpt>
      <trkpt lat="41.7320066" lon="-3.84733"><ele>1223</ele><speed>63</speed><time>2016-06-29T16:01:58Z</time><course>93</course><type>1</type></trkpt>
      <trkpt lat="41.73198" lon="-3.847115"><ele>1222</ele><speed>65</speed><time>2016-06-29T16:01:59Z</time><course>96</course><type>1</type></trkpt>
      <trkpt lat="41.7319583" lon="-3.8468984"><ele>1221</ele><speed>66</speed><time>2016-06-29T16:02:00Z</time><course>98</course><type>1</type></trkpt>
      <trkpt lat="41.731885" lon="-3.8464634"><ele>1220</ele><speed>67</speed><time>2016-06-29T16:02:02Z</time><course>105</course><type>1</type></trkpt>
      <trkpt lat="41.7317799" lon="-3.8460301"><ele>1219</ele><speed>67</speed><time>2016-06-29T16:02:04Z</time><course>111</course><type>1</type></trkpt>
      <trkpt lat="41.7316283" lon="-3.8456317"><ele>1218</ele><speed>65</speed><time>2016-06-29T16:02:06Z</time><course>123</course><type>1</type></trkpt>
      <trkpt lat="41.7315416" lon="-3.845455"><ele>1218</ele><speed>61</speed><time>2016-06-29T16:02:07Z</time><course>124</course><type>1</type></trkpt>
      <trkpt lat="41.7313816" lon="-3.8451367"><ele>1217</ele><speed>53</speed><time>2016-06-29T16:02:09Z</time><course>123</course><type>1</type></trkpt>
      <trkpt lat="41.7313083" lon="-3.8449834"><ele>1216</ele><speed>53</speed><time>2016-06-29T16:02:10Z</time><course>123</course><type>1</type></trkpt>
      <trkpt lat="41.7311266" lon="-3.84473"><ele>1214</ele><speed>54</speed><time>2016-06-29T16:02:12Z</time><course>140</course><type>1</type></trkpt>
      <trkpt lat="41.7310183" lon="-3.844625"><ele>1213</ele><speed>55</speed><time>2016-06-29T16:02:13Z</time><course>145</course><type>1</type></trkpt>
      <trkpt lat="41.7308216" lon="-3.8445017"><ele>1212</ele><speed>38</speed><time>2016-06-29T16:02:15Z</time><course>156</course><type>1</type></trkpt>
      <trkpt lat="41.730735" lon="-3.8444617"><ele>1212</ele><speed>35</speed><time>2016-06-29T16:02:16Z</time><course>163</course><type>1</type></trkpt>
      <trkpt lat="41.73065" lon="-3.8444367"><ele>1212</ele><speed>34</speed><time>2016-06-29T16:02:17Z</time><course>169</course><type>1</type></trkpt>
      <trkpt lat="41.7304866" lon="-3.8444067"><ele>1211</ele><speed>30</speed><time>2016-06-29T16:02:19Z</time><course>173</course><type>1</type></trkpt>
      <trkpt lat="41.730355" lon="-3.8443817"><ele>1211</ele><speed>21</speed><time>2016-06-29T16:02:21Z</time><course>169</course><type>1</type></trkpt>
      <trkpt lat="41.7303066" lon="-3.8443767"><ele>1211</ele><speed>17</speed><time>2016-06-29T16:02:22Z</time><course>175</course><type>1</type></trkpt>
      <trkpt lat="41.7302633" lon="-3.8443817"><ele>1211</ele><speed>16</speed><time>2016-06-29T16:02:23Z</time><course>192</course><type>1</type></trkpt>
      <trkpt lat="41.7301633" lon="-3.8444217"><ele>1210</ele><speed>22</speed><time>2016-06-29T16:02:25Z</time><course>197</course><type>1</type></trkpt>
      <trkpt lat="41.7300583" lon="-3.8444634"><ele>1209</ele><speed>19</speed><time>2016-06-29T16:02:27Z</time><course>199</course><type>1</type></trkpt>
      <trkpt lat="41.7299866" lon="-3.844485"><ele>1209</ele><speed>11</speed><time>2016-06-29T16:02:29Z</time><course>187</course><type>1</type></trkpt>
      <trkpt lat="41.72995" lon="-3.844515"><ele>1207</ele><speed>9</speed><time>2016-06-29T16:02:31Z</time><course>241</course><type>1</type></trkpt>
      <trkpt lat="41.7299333" lon="-3.8446284"><ele>1206</ele><speed>8</speed><time>2016-06-29T16:02:34Z</time><course>255</course><type>1</type></trkpt>
      <trkpt lat="41.7298883" lon="-3.8446434"><ele>1206</ele><speed>3</speed><time>2016-06-29T16:02:39Z</time><course>255</course><type>1</type></trkpt>
      <trkpt lat="41.7298733" lon="-3.8446901"><ele>1206</ele><speed>3</speed><time>2016-06-29T16:02:44Z</time><course>269</course><type>1</type></trkpt>
      <trkpt lat="41.729905" lon="-3.8446434"><ele>1207</ele><speed>10</speed><time>2016-06-29T16:02:47Z</time><course>40</course><type>1</type></trkpt>
      <trkpt lat="41.7299733" lon="-3.8445934"><ele>1206</ele><speed>18</speed><time>2016-06-29T16:02:49Z</time><course>23</course><type>1</type></trkpt>
      <trkpt lat="41.7300216" lon="-3.8445584"><ele>1206</ele><speed>23</speed><time>2016-06-29T16:02:50Z</time><course>27</course><type>1</type></trkpt>
      <trkpt lat="41.73011" lon="-3.8444534"><ele>1207</ele><speed>22</speed><time>2016-06-29T16:02:52Z</time><course>49</course><type>1</type></trkpt>
      <trkpt lat="41.73014" lon="-3.8443984"><ele>1207</ele><speed>19</speed><time>2016-06-29T16:02:53Z</time><course>50</course><type>1</type></trkpt>
      <trkpt lat="41.7302016" lon="-3.8442984"><ele>1207</ele><speed>19</speed><time>2016-06-29T16:02:55Z</time><course>46</course><type>1</type></trkpt>
      <trkpt lat="41.7302433" lon="-3.8442484"><ele>1207</ele><speed>24</speed><time>2016-06-29T16:02:56Z</time><course>41</course><type>1</type></trkpt>
      <trkpt lat="41.7303233" lon="-3.8441017"><ele>1207</ele><speed>29</speed><time>2016-06-29T16:02:58Z</time><course>59</course><type>1</type></trkpt>
      <trkpt lat="41.7303516" lon="-3.8440034"><ele>1207</ele><speed>31</speed><time>2016-06-29T16:02:59Z</time><course>67</course><type>1</type></trkpt>
      <trkpt lat="41.7304016" lon="-3.8437451"><ele>1204</ele><speed>47</speed><time>2016-06-29T16:03:01Z</time><course>76</course><type>1</type></trkpt>
      <trkpt lat="41.730425" lon="-3.8435667"><ele>1203</ele><speed>57</speed><time>2016-06-29T16:03:02Z</time><course>81</course><type>1</type></trkpt>
      <trkpt lat="41.7304116" lon="-3.8431417"><ele>1201</ele><speed>63</speed><time>2016-06-29T16:03:04Z</time><course>98</course><type>1</type></trkpt>
      <trkpt lat="41.7303533" lon="-3.8429267"><ele>1200</ele><speed>64</speed><time>2016-06-29T16:03:05Z</time><course>108</course><type>1</type></trkpt>
      <trkpt lat="41.7301833" lon="-3.8425467"><ele>1197</ele><speed>63</speed><time>2016-06-29T16:03:07Z</time><course>126</course><type>1</type></trkpt>
      <trkpt lat="41.730085" lon="-3.8423784"><ele>1196</ele><speed>62</speed><time>2016-06-29T16:03:08Z</time><course>129</course><type>1</type></trkpt>
      <trkpt lat="41.729885" lon="-3.8420667"><ele>1194</ele><speed>57</speed><time>2016-06-29T16:03:10Z</time><course>131</course><type>1</type></trkpt>
      <trkpt lat="41.7297916" lon="-3.8419267"><ele>1194</ele><speed>56</speed><time>2016-06-29T16:03:11Z</time><course>131</course><type>1</type></trkpt>
      <trkpt lat="41.7295833" lon="-3.8416567"><ele>1193</ele><speed>61</speed><time>2016-06-29T16:03:13Z</time><course>138</course><type>1</type></trkpt>
      <trkpt lat="41.72947" lon="-3.8415234"><ele>1193</ele><speed>58</speed><time>2016-06-29T16:03:14Z</time><course>140</course><type>1</type></trkpt>
      <trkpt lat="41.729265" lon="-3.8412767"><ele>1191</ele><speed>54</speed><time>2016-06-29T16:03:16Z</time><course>137</course><type>1</type></trkpt>
      <trkpt lat="41.7291533" lon="-3.8411534"><ele>1190</ele><speed>58</speed><time>2016-06-29T16:03:17Z</time><course>142</course><type>1</type></trkpt>
      <trkpt lat="41.7289" lon="-3.840945"><ele>1188</ele><speed>60</speed><time>2016-06-29T16:03:19Z</time><course>151</course><type>1</type></trkpt>
      <trkpt lat="41.7287716" lon="-3.8408567"><ele>1187</ele><speed>56</speed><time>2016-06-29T16:03:20Z</time><course>151</course><type>1</type></trkpt>
      <trkpt lat="41.72856" lon="-3.84069"><ele>1187</ele><speed>47</speed><time>2016-06-29T16:03:22Z</time><course>150</course><type>1</type></trkpt>
      <trkpt lat="41.72834" lon="-3.84053"><ele>1186</ele><speed>48</speed><time>2016-06-29T16:03:24Z</time><course>153</course><type>1</type></trkpt>
      <trkpt lat="41.7280916" lon="-3.8403567"><ele>1186</ele><speed>58</speed><time>2016-06-29T16:03:26Z</time><course>152</course><type>1</type></trkpt>
      <trkpt lat="41.72797" lon="-3.84028"><ele>1186</ele><speed>53</speed><time>2016-06-29T16:03:27Z</time><course>155</course><type>1</type></trkpt>
      <trkpt lat="41.727745" lon="-3.840175"><ele>1187</ele><speed>47</speed><time>2016-06-29T16:03:29Z</time><course>161</course><type>1</type></trkpt>
      <trkpt lat="41.7275316" lon="-3.8400784"><ele>1187</ele><speed>46</speed><time>2016-06-29T16:03:31Z</time><course>160</course><type>1</type></trkpt>
      <trkpt lat="41.72732" lon="-3.840005"><ele>1188</ele><speed>45</speed><time>2016-06-29T16:03:33Z</time><course>167</course><type>1</type></trkpt>
      <trkpt lat="41.727215" lon="-3.8399884"><ele>1188</ele><speed>42</speed><time>2016-06-29T16:03:34Z</time><course>173</course><type>1</type></trkpt>
      <trkpt lat="41.7270266" lon="-3.8399717"><ele>1189</ele><speed>36</speed><time>2016-06-29T16:03:36Z</time><course>176</course><type>1</type></trkpt>
      <trkpt lat="41.7268616" lon="-3.839995"><ele>1190</ele><speed>31</speed><time>2016-06-29T16:03:38Z</time><course>193</course><type>1</type></trkpt>
      <trkpt lat="41.7267249" lon="-3.8400684"><ele>1191</ele><speed>27</speed><time>2016-06-29T16:03:40Z</time><course>207</course><type>1</type></trkpt>
      <trkpt lat="41.7266366" lon="-3.840155"><ele>1193</ele><speed>18</speed><time>2016-06-29T16:03:42Z</time><course>220</course><type>1</type></trkpt>
      <trkpt lat="41.7265916" lon="-3.84023"><ele>1193</ele><speed>10</speed><time>2016-06-29T16:03:44Z</time><course>241</course><type>1</type></trkpt>
      <trkpt lat="41.7265916" lon="-3.840305"><ele>1195</ele><speed>12</speed><time>2016-06-29T16:03:46Z</time><course>290</course><type>1</type></trkpt>
      <trkpt lat="41.72664" lon="-3.8403717"><ele>1196</ele><speed>13</speed><time>2016-06-29T16:03:48Z</time><course>324</course><type>1</type></trkpt>
      <trkpt lat="41.7266883" lon="-3.8404084"><ele>1198</ele><speed>9</speed><time>2016-06-29T16:03:50Z</time><course>337</course><type>1</type></trkpt>
      <trkpt lat="41.72674" lon="-3.8404284"><ele>1199</ele><speed>11</speed><time>2016-06-29T16:03:52Z</time><course>357</course><type>1</type></trkpt>
      <trkpt lat="41.72681" lon="-3.8403984"><ele>1201</ele><speed>18</speed><time>2016-06-29T16:03:54Z</time><course>32</course><type>1</type></trkpt>
      <trkpt lat="41.7268983" lon="-3.8403001"><ele>1202</ele><speed>25</speed><time>2016-06-29T16:03:56Z</time><course>42</course><type>1</type></trkpt>
      <trkpt lat="41.727" lon="-3.8401584"><ele>1204</ele><speed>33</speed><time>2016-06-29T16:03:58Z</time><course>52</course><type>1</type></trkpt>
      <trkpt lat="41.7270483" lon="-3.840045"><ele>1205</ele><speed>44</speed><time>2016-06-29T16:03:59Z</time><course>63</course><type>1</type></trkpt>
      <trkpt lat="41.7271016" lon="-3.8397034"><ele>1207</ele><speed>58</speed><time>2016-06-29T16:04:01Z</time><course>87</course><type>1</type></trkpt>
      <trkpt lat="41.7270533" lon="-3.8393317"><ele>1209</ele><speed>52</speed><time>2016-06-29T16:04:03Z</time><course>110</course><type>1</type></trkpt>
      <trkpt lat="41.7269933" lon="-3.83918"><ele>1210</ele><speed>49</speed><time>2016-06-29T16:04:04Z</time><course>123</course><type>1</type></trkpt>
      <trkpt lat="41.726915" lon="-3.83905"><ele>1210</ele><speed>49</speed><time>2016-06-29T16:04:05Z</time><course>134</course><type>1</type></trkpt>
      <trkpt lat="41.7267283" lon="-3.83888"><ele>1212</ele><speed>46</speed><time>2016-06-29T16:04:07Z</time><course>152</course><type>1</type></trkpt>
      <trkpt lat="41.7266333" lon="-3.8388367"><ele>1212</ele><speed>42</speed><time>2016-06-29T16:04:08Z</time><course>158</course><type>1</type></trkpt>
      <trkpt lat="41.7264666" lon="-3.8388234"><ele>1212</ele><speed>33</speed><time>2016-06-29T16:04:10Z</time><course>174</course><type>1</type></trkpt>
      <trkpt lat="41.7263283" lon="-3.8388317"><ele>1214</ele><speed>25</speed><time>2016-06-29T16:04:12Z</time><course>186</course><type>1</type></trkpt>
      <trkpt lat="41.7262216" lon="-3.8388667"><ele>1216</ele><speed>20</speed><time>2016-06-29T16:04:14Z</time><course>196</course><type>1</type></trkpt>
      <trkpt lat="41.7261266" lon="-3.838925"><ele>1217</ele><speed>22</speed><time>2016-06-29T16:04:16Z</time><course>207</course><type>1</type></trkpt>
      <trkpt lat="41.7260616" lon="-3.8389934"><ele>1217</ele><speed>14</speed><time>2016-06-29T16:04:18Z</time><course>236</course><type>1</type></trkpt>
      <trkpt lat="41.7260683" lon="-3.83906"><ele>1218</ele><speed>8</speed><time>2016-06-29T16:04:20Z</time><course>306</course><type>1</type></trkpt>
      <trkpt lat="41.7261" lon="-3.83903"><ele>1220</ele><speed>7</speed><time>2016-06-29T16:04:23Z</time><course>50</course><type>1</type></trkpt>
      <trkpt lat="41.7262016" lon="-3.838925"><ele>1220</ele><speed>25</speed><time>2016-06-29T16:04:26Z</time><course>35</course><type>1</type></trkpt>
      <trkpt lat="41.7262966" lon="-3.8387667"><ele>1220</ele><speed>35</speed><time>2016-06-29T16:04:28Z</time><course>56</course><type>1</type></trkpt>
      <trkpt lat="41.7263433" lon="-3.8386567"><ele>1220</ele><speed>39</speed><time>2016-06-29T16:04:29Z</time><course>60</course><type>1</type></trkpt>
      <trkpt lat="41.7263833" lon="-3.8385267"><ele>1219</ele><speed>42</speed><time>2016-06-29T16:04:30Z</time><course>66</course><type>1</type></trkpt>
      <trkpt lat="41.7264133" lon="-3.8382"><ele>1217</ele><speed>51</speed><time>2016-06-29T16:04:32Z</time><course>85</course><type>1</type></trkpt>
      <trkpt lat="41.7263933" lon="-3.8378317"><ele>1216</ele><speed>58</speed><time>2016-06-29T16:04:34Z</time><course>101</course><type>1</type></trkpt>
      <trkpt lat="41.7263533" lon="-3.837645"><ele>1215</ele><speed>57</speed><time>2016-06-29T16:04:35Z</time><course>109</course><type>1</type></trkpt>
      <trkpt lat="41.7262883" lon="-3.837465"><ele>1214</ele><speed>58</speed><time>2016-06-29T16:04:36Z</time><course>117</course><type>1</type></trkpt>
      <trkpt lat="41.7260966" lon="-3.8371217"><ele>1212</ele><speed>63</speed><time>2016-06-29T16:04:38Z</time><course>130</course><type>1</type></trkpt>
      <trkpt lat="41.725965" lon="-3.8369767"><ele>1212</ele><speed>64</speed><time>2016-06-29T16:04:39Z</time><course>140</course><type>1</type></trkpt>
      <trkpt lat="41.72571" lon="-3.83675"><ele>1211</ele><speed>57</speed><time>2016-06-29T16:04:41Z</time><course>149</course><type>1</type></trkpt>
      <trkpt lat="41.7255816" lon="-3.8366751"><ele>1210</ele><speed>55</speed><time>2016-06-29T16:04:42Z</time><course>155</course><type>1</type></trkpt>
      <trkpt lat="41.725335" lon="-3.836565"><ele>1209</ele><speed>49</speed><time>2016-06-29T16:04:44Z</time><course>163</course><type>1</type></trkpt>
      <trkpt lat="41.7251049" lon="-3.8365017"><ele>1208</ele><speed>47</speed><time>2016-06-29T16:04:46Z</time><course>166</course><type>1</type></trkpt>
      <trkpt lat="41.72499" lon="-3.83646"><ele>1208</ele><speed>46</speed><time>2016-06-29T16:04:47Z</time><course>162</course><type>1</type></trkpt>
      <trkpt lat="41.7247716" lon="-3.8363634"><ele>1208</ele><speed>44</speed><time>2016-06-29T16:04:49Z</time><course>163</course><type>1</type></trkpt>
      <trkpt lat="41.7245733" lon="-3.8363151"><ele>1209</ele><speed>39</speed><time>2016-06-29T16:04:51Z</time><course>174</course><type>1</type></trkpt>
      <trkpt lat="41.7244749" lon="-3.836305"><ele>1209</ele><speed>38</speed><time>2016-06-29T16:04:52Z</time><course>176</course><type>1</type></trkpt>
      <trkpt lat="41.7242816" lon="-3.83629"><ele>1211</ele><speed>38</speed><time>2016-06-29T16:04:54Z</time><course>173</course><type>1</type></trkpt>
      <trkpt lat="41.7241916" lon="-3.8362717"><ele>1211</ele><speed>35</speed><time>2016-06-29T16:04:55Z</time><course>169</course><type>1</type></trkpt>
      <trkpt lat="41.7241066" lon="-3.8362517"><ele>1212</ele><speed>33</speed><time>2016-06-29T16:04:56Z</time><course>170</course><type>1</type></trkpt>
      <trkpt lat="41.7239466" lon="-3.83624"><ele>1213</ele><speed>31</speed><time>2016-06-29T16:04:58Z</time><course>184</course><type>1</type></trkpt>
      <trkpt lat="41.7238083" lon="-3.836285"><ele>1214</ele><speed>28</speed><time>2016-06-29T16:05:00Z</time><course>200</course><type>1</type></trkpt>
      <trkpt lat="41.72369" lon="-3.8363367"><ele>1217</ele><speed>20</speed><time>2016-06-29T16:05:02Z</time><course>195</course><type>1</type></trkpt>
      <trkpt lat="41.723645" lon="-3.836355"><ele>1218</ele><speed>21</speed><time>2016-06-29T16:05:03Z</time><course>206</course><type>1</type></trkpt>
      <trkpt lat="41.7235566" lon="-3.8364084"><ele>1220</ele><speed>18</speed><time>2016-06-29T16:05:05Z</time><course>202</course><type>1</type></trkpt>
      <trkpt lat="41.7235166" lon="-3.8364334"><ele>1222</ele><speed>16</speed><time>2016-06-29T16:05:06Z</time><course>205</course><type>1</type></trkpt>
      <trkpt lat="41.7234583" lon="-3.8365084"><ele>1223</ele><speed>17</speed><time>2016-06-29T16:05:08Z</time><course>240</course><type>1</type></trkpt>
      <trkpt lat="41.723415" lon="-3.83662"><ele>1224</ele><speed>17</speed><time>2016-06-29T16:05:10Z</time><course>242</course><type>1</type></trkpt>
      <trkpt lat="41.7234066" lon="-3.8366751"><ele>1225</ele><speed>15</speed><time>2016-06-29T16:05:11Z</time><course>260</course><type>1</type></trkpt>
      <trkpt lat="41.7234483" lon="-3.8367467"><ele>1227</ele><speed>17</speed><time>2016-06-29T16:05:13Z</time><course>323</course><type>1</type></trkpt>
      <trkpt lat="41.72349" lon="-3.836775"><ele>1227</ele><speed>18</speed><time>2016-06-29T16:05:14Z</time><course>329</course><type>1</type></trkpt>
      <trkpt lat="41.7235683" lon="-3.8368534"><ele>1230</ele><speed>17</speed><time>2016-06-29T16:05:16Z</time><course>319</course><type>1</type></trkpt>
      <trkpt lat="41.723595" lon="-3.8368867"><ele>1231</ele><speed>9</speed><time>2016-06-29T16:05:17Z</time><course>338</course><type>1</type></trkpt>
      <trkpt lat="41.72365" lon="-3.8369001"><ele>1232</ele><speed>15</speed><time>2016-06-29T16:05:19Z</time><course>350</course><type>1</type></trkpt>
      <trkpt lat="41.7236916" lon="-3.8369017"><ele>1232</ele><speed>17</speed><time>2016-06-29T16:05:20Z</time><course>356</course><type>1</type></trkpt>
      <trkpt lat="41.72377" lon="-3.836885"><ele>1235</ele><speed>15</speed><time>2016-06-29T16:05:22Z</time><course>19</course><type>1</type></trkpt>
      <trkpt lat="41.7238066" lon="-3.8368617"><ele>1236</ele><speed>17</speed><time>2016-06-29T16:05:23Z</time><course>25</course><type>1</type></trkpt>
      <trkpt lat="41.723895" lon="-3.8367967"><ele>1238</ele><speed>22</speed><time>2016-06-29T16:05:25Z</time><course>31</course><type>1</type></trkpt>
      <trkpt lat="41.7239766" lon="-3.8367117"><ele>1241</ele><speed>19</speed><time>2016-06-29T16:05:27Z</time><course>43</course><type>1</type></trkpt>
      <trkpt lat="41.7240116" lon="-3.8366667"><ele>1242</ele><speed>19</speed><time>2016-06-29T16:05:28Z</time><course>50</course><type>1</type></trkpt>
      <trkpt lat="41.7240433" lon="-3.8366134"><ele>1243</ele><speed>21</speed><time>2016-06-29T16:05:29Z</time><course>53</course><type>1</type></trkpt>
      <trkpt lat="41.72412" lon="-3.8364934"><ele>1245</ele><speed>26</speed><time>2016-06-29T16:05:31Z</time><course>50</course><type>1</type></trkpt>
      <trkpt lat="41.7241566" lon="-3.8364134"><ele>1247</ele><speed>31</speed><time>2016-06-29T16:05:32Z</time><course>61</course><type>1</type></trkpt>
      <trkpt lat="41.7242049" lon="-3.8361684"><ele>1250</ele><speed>44</speed><time>2016-06-29T16:05:34Z</time><course>80</course><type>1</type></trkpt>
      <trkpt lat="41.72421" lon="-3.8360167"><ele>1253</ele><speed>47</speed><time>2016-06-29T16:05:35Z</time><course>90</course><type>1</type></trkpt>
      <trkpt lat="41.7241916" lon="-3.8358567"><ele>1256</ele><speed>51</speed><time>2016-06-29T16:05:36Z</time><course>108</course><type>1</type></trkpt>
      <trkpt lat="41.7240266" lon="-3.8355867"><ele>1260</ele><speed>57</speed><time>2016-06-29T16:05:38Z</time><course>149</course><type>1</type></trkpt>
      <trkpt lat="41.723905" lon="-3.8355267"><ele>1263</ele><speed>49</speed><time>2016-06-29T16:05:39Z</time><course>168</course><type>1</type></trkpt>
      <trkpt lat="41.7237166" lon="-3.8355367"><ele>1267</ele><speed>33</speed><time>2016-06-29T16:05:41Z</time><course>193</course><type>1</type></trkpt>
      <trkpt lat="41.7236466" lon="-3.83556"><ele>1268</ele><speed>28</speed><time>2016-06-29T16:05:42Z</time><course>193</course><type>1</type></trkpt>
      <trkpt lat="41.723535" lon="-3.8355967"><ele>1272</ele><speed>19</speed><time>2016-06-29T16:05:44Z</time><course>194</course><type>1</type></trkpt>
      <trkpt lat="41.723465" lon="-3.83565"><ele>1275</ele><speed>14</speed><time>2016-06-29T16:05:46Z</time><course>228</course><type>1</type></trkpt>
      <trkpt lat="41.723475" lon="-3.8357067"><ele>1278</ele><speed>9</speed><time>2016-06-29T16:05:48Z</time><course>338</course><type>1</type></trkpt>
      <trkpt lat="41.7235516" lon="-3.835675"><ele>1281</ele><speed>22</speed><time>2016-06-29T16:05:50Z</time><course>26</course><type>1</type></trkpt>
      <trkpt lat="41.7236016" lon="-3.835635"><ele>1283</ele><speed>23</speed><time>2016-06-29T16:05:51Z</time><course>29</course><type>1</type></trkpt>
      <trkpt lat="41.7236716" lon="-3.8355617"><ele>1285</ele><speed>14</speed><time>2016-06-29T16:05:53Z</time><course>40</course><type>1</type></trkpt>
      <trkpt lat="41.7237033" lon="-3.8355317"><ele>1287</ele><speed>16</speed><time>2016-06-29T16:05:54Z</time><course>38</course><type>1</type></trkpt>
      <trkpt lat="41.7237883" lon="-3.8354234"><ele>1290</ele><speed>32</speed><time>2016-06-29T16:05:56Z</time><course>53</course><type>1</type></trkpt>
      <trkpt lat="41.72388" lon="-3.83523"><ele>1294</ele><speed>32</speed><time>2016-06-29T16:05:58Z</time><course>60</course><type>1</type></trkpt>
      <trkpt lat="41.7239233" lon="-3.8351384"><ele>1296</ele><speed>31</speed><time>2016-06-29T16:05:59Z</time><course>57</course><type>1</type></trkpt>
      <trkpt lat="41.7240249" lon="-3.8349684"><ele>1299</ele><speed>33</speed><time>2016-06-29T16:06:01Z</time><course>53</course><type>1</type></trkpt>
      <trkpt lat="41.7241133" lon="-3.8347367"><ele>1303</ele><speed>45</speed><time>2016-06-29T16:06:03Z</time><course>68</course><type>1</type></trkpt>
      <trkpt lat="41.7241416" lon="-3.8345834"><ele>1302</ele><speed>49</speed><time>2016-06-29T16:06:04Z</time><course>75</course><type>1</type></trkpt>
      <trkpt lat="41.7241233" lon="-3.83426"><ele>1307</ele><speed>47</speed><time>2016-06-29T16:06:06Z</time><course>96</course><type>1</type></trkpt>
      <trkpt lat="41.7241016" lon="-3.8341117"><ele>1309</ele><speed>44</speed><time>2016-06-29T16:06:07Z</time><course>102</course><type>1</type></trkpt>
      <trkpt lat="41.724015" lon="-3.8338367"><ele>1312</ele><speed>49</speed><time>2016-06-29T16:06:09Z</time><course>118</course><type>1</type></trkpt>
      <trkpt lat="41.7239416" lon="-3.8336967"><ele>1313</ele><speed>51</speed><time>2016-06-29T16:06:10Z</time><course>128</course><type>1</type></trkpt>
      <trkpt lat="41.7237366" lon="-3.8334934"><ele>1316</ele><speed>51</speed><time>2016-06-29T16:06:12Z</time><course>157</course><type>1</type></trkpt>
      <trkpt lat="41.723625" lon="-3.8334417"><ele>1317</ele><speed>46</speed><time>2016-06-29T16:06:13Z</time><course>162</course><type>1</type></trkpt>
      <trkpt lat="41.7235233" lon="-3.8334184"><ele>1319</ele><speed>39</speed><time>2016-06-29T16:06:14Z</time><course>174</course><type>1</type></trkpt>
      <trkpt lat="41.7234316" lon="-3.8334184"><ele>1320</ele><speed>36</speed><time>2016-06-29T16:06:15Z</time><course>179</course><type>1</type></trkpt>
      <trkpt lat="41.72328" lon="-3.833435"><ele>1324</ele><speed>25</speed><time>2016-06-29T16:06:17Z</time><course>188</course><type>1</type></trkpt>
      <trkpt lat="41.7231783" lon="-3.833475"><ele>1329</ele><speed>19</speed><time>2016-06-29T16:06:19Z</time><course>201</course><type>1</type></trkpt>
      <trkpt lat="41.723095" lon="-3.8335567"><ele>1333</ele><speed>20</speed><time>2016-06-29T16:06:21Z</time><course>223</course><type>1</type></trkpt>
      <trkpt lat="41.7230683" lon="-3.833605"><ele>1335</ele><speed>15</speed><time>2016-06-29T16:06:22Z</time><course>239</course><type>1</type></trkpt>
      <trkpt lat="41.7230633" lon="-3.8336767"><ele>1336</ele><speed>10</speed><time>2016-06-29T16:06:24Z</time><course>279</course><type>1</type></trkpt>
      <trkpt lat="41.7231283" lon="-3.8337417"><ele>1342</ele><speed>8</speed><time>2016-06-29T16:06:27Z</time><course>359</course><type>1</type></trkpt>
      <trkpt lat="41.7232083" lon="-3.8337034"><ele>1348</ele><speed>14</speed><time>2016-06-29T16:06:30Z</time><course>24</course><type>1</type></trkpt>
      <trkpt lat="41.7232733" lon="-3.8336817"><ele>1353</ele><speed>15</speed><time>2016-06-29T16:06:32Z</time><course>20</course><type>1</type></trkpt>
      <trkpt lat="41.7233666" lon="-3.8336184"><ele>1358</ele><speed>28</speed><time>2016-06-29T16:06:34Z</time><course>36</course><type>1</type></trkpt>
      <trkpt lat="41.7234816" lon="-3.833495"><ele>1361</ele><speed>29</speed><time>2016-06-29T16:06:36Z</time><course>37</course><type>1</type></trkpt>
      <trkpt lat="41.7235366" lon="-3.8334434"><ele>1363</ele><speed>25</speed><time>2016-06-29T16:06:37Z</time><course>34</course><type>1</type></trkpt>
      <trkpt lat="41.7235916" lon="-3.83339"><ele>1366</ele><speed>27</speed><time>2016-06-29T16:06:38Z</time><course>38</course><type>1</type></trkpt>
      <trkpt lat="41.7237233" lon="-3.8332234"><ele>1371</ele><speed>43</speed><time>2016-06-29T16:06:40Z</time><course>48</course><type>1</type></trkpt>
      <trkpt lat="41.723835" lon="-3.8329517"><ele>1376</ele><speed>48</speed><time>2016-06-29T16:06:42Z</time><course>67</course><type>1</type></trkpt>
      <trkpt lat="41.72387" lon="-3.8327934"><ele>1379</ele><speed>50</speed><time>2016-06-29T16:06:43Z</time><course>73</course><type>1</type></trkpt>
      <trkpt lat="41.7238766" lon="-3.83261"><ele>1381</ele><speed>56</speed><time>2016-06-29T16:06:44Z</time><course>89</course><type>1</type></trkpt>
      <trkpt lat="41.7238216" lon="-3.83221"><ele>1385</ele><speed>62</speed><time>2016-06-29T16:06:46Z</time><course>107</course><type>1</type></trkpt>
      <trkpt lat="41.723595" lon="-3.8318967"><ele>1391</ele><speed>63</speed><time>2016-06-29T16:06:48Z</time><course>149</course><type>1</type></trkpt>
      <trkpt lat="41.7234616" lon="-3.8318234"><ele>1395</ele><speed>54</speed><time>2016-06-29T16:06:49Z</time><course>164</course><type>1</type></trkpt>
      <trkpt lat="41.723345" lon="-3.8317817"><ele>1396</ele><speed>43</speed><time>2016-06-29T16:06:50Z</time><course>165</course><type>1</type></trkpt>
      <trkpt lat="41.723175" lon="-3.8317117"><ele>1402</ele><speed>33</speed><time>2016-06-29T16:06:52Z</time><course>160</course><type>1</type></trkpt>
      <trkpt lat="41.72301" lon="-3.8316884"><ele>1406</ele><speed>34</speed><time>2016-06-29T16:06:54Z</time><course>183</course><type>1</type></trkpt>
      <trkpt lat="41.7229333" lon="-3.8317167"><ele>1408</ele><speed>29</speed><time>2016-06-29T16:06:55Z</time><course>200</course><type>1</type></trkpt>
      <trkpt lat="41.722895" lon="-3.8317567"><ele>1412</ele><speed>17</speed><time>2016-06-29T16:06:56Z</time><course>227</course><type>1</type></trkpt>
      <trkpt lat="41.722875" lon="-3.83183"><ele>1414</ele><speed>10</speed><time>2016-06-29T16:07:00Z</time><course>251</course><type>1</type></trkpt>
      <trkpt lat="41.7229183" lon="-3.8318884"><ele>1418</ele><speed>14</speed><time>2016-06-29T16:07:02Z</time><course>342</course><type>1</type></trkpt>
      <trkpt lat="41.7229733" lon="-3.831875"><ele>1421</ele><speed>21</speed><time>2016-06-29T16:07:03Z</time><course>12</course><type>1</type></trkpt>
      <trkpt lat="41.7231" lon="-3.831805"><ele>1425</ele><speed>30</speed><time>2016-06-29T16:07:05Z</time><course>25</course><type>1</type></trkpt>
      <trkpt lat="41.7232516" lon="-3.8316717"><ele>1430</ele><speed>40</speed><time>2016-06-29T16:07:07Z</time><course>39</course><type>1</type></trkpt>
      <trkpt lat="41.7233333" lon="-3.83156"><ele>1432</ele><speed>49</speed><time>2016-06-29T16:07:08Z</time><course>49</course><type>1</type></trkpt>
      <trkpt lat="41.7234633" lon="-3.8312484"><ele>1437</ele><speed>53</speed><time>2016-06-29T16:07:10Z</time><course>68</course><type>1</type></trkpt>
      <trkpt lat="41.72349" lon="-3.8310484"><ele>1439</ele><speed>59</speed><time>2016-06-29T16:07:11Z</time><course>81</course><type>1</type></trkpt>
      <trkpt lat="41.7234783" lon="-3.830645"><ele>1443</ele><speed>60</speed><time>2016-06-29T16:07:13Z</time><course>100</course><type>1</type></trkpt>
      <trkpt lat="41.7234283" lon="-3.8304534"><ele>1446</ele><speed>60</speed><time>2016-06-29T16:07:14Z</time><course>114</course><type>1</type></trkpt>
      <trkpt lat="41.7232583" lon="-3.8301634"><ele>1452</ele><speed>48</speed><time>2016-06-29T16:07:16Z</time><course>138</course><type>1</type></trkpt>
      <trkpt lat="41.7231699" lon="-3.8300734"><ele>1455</ele><speed>40</speed><time>2016-06-29T16:07:17Z</time><course>146</course><type>1</type></trkpt>
      <trkpt lat="41.7230066" lon="-3.8299717"><ele>1457</ele><speed>36</speed><time>2016-06-29T16:07:19Z</time><course>160</course><type>1</type></trkpt>
      <trkpt lat="41.7228433" lon="-3.82988"><ele>1463</ele><speed>34</speed><time>2016-06-29T16:07:21Z</time><course>158</course><type>1</type></trkpt>
      <trkpt lat="41.7226966" lon="-3.8298317"><ele>1467</ele><speed>28</speed><time>2016-06-29T16:07:23Z</time><course>167</course><type>1</type></trkpt>
      <trkpt lat="41.72259" lon="-3.8298184"><ele>1474</ele><speed>19</speed><time>2016-06-29T16:07:25Z</time><course>190</course><type>1</type></trkpt>
      <trkpt lat="41.722545" lon="-3.82983"><ele>1477</ele><speed>20</speed><time>2016-06-29T16:07:26Z</time><course>194</course><type>1</type></trkpt>
      <trkpt lat="41.7224733" lon="-3.829845"><ele>1480</ele><speed>12</speed><time>2016-06-29T16:07:28Z</time><course>190</course><type>1</type></trkpt>
      <trkpt lat="41.7223933" lon="-3.82989"><ele>1489</ele><speed>10</speed><time>2016-06-29T16:07:31Z</time><course>201</course><type>1</type></trkpt>
      <trkpt lat="41.7224516" lon="-3.82987"><ele>1493</ele><speed>17</speed><time>2016-06-29T16:07:36Z</time><course>353</course><type>1</type></trkpt>
      <trkpt lat="41.722565" lon="-3.8298201"><ele>1495</ele><speed>30</speed><time>2016-06-29T16:07:38Z</time><course>29</course><type>1</type></trkpt>
      <trkpt lat="41.7226283" lon="-3.8297784"><ele>1497</ele><speed>31</speed><time>2016-06-29T16:07:39Z</time><course>32</course><type>1</type></trkpt>
      <trkpt lat="41.7227566" lon="-3.8296684"><ele>1501</ele><speed>33</speed><time>2016-06-29T16:07:41Z</time><course>34</course><type>1</type></trkpt>
      <trkpt lat="41.72282" lon="-3.8295867"><ele>1502</ele><speed>40</speed><time>2016-06-29T16:07:42Z</time><course>50</course><type>1</type></trkpt>
      <trkpt lat="41.7229416" lon="-3.8293117"><ele>1505</ele><speed>55</speed><time>2016-06-29T16:07:44Z</time><course>66</course><type>1</type></trkpt>
      <trkpt lat="41.7230133" lon="-3.82894"><ele>1510</ele><speed>58</speed><time>2016-06-29T16:07:46Z</time><course>81</course><type>1</type></trkpt>
      <trkpt lat="41.7229916" lon="-3.8285517"><ele>1516</ele><speed>58</speed><time>2016-06-29T16:07:48Z</time><course>111</course><type>1</type></trkpt>
      <trkpt lat="41.7228483" lon="-3.8282234"><ele>1522</ele><speed>55</speed><time>2016-06-29T16:07:50Z</time><course>126</course><type>1</type></trkpt>
      <trkpt lat="41.7226766" lon="-3.8279684"><ele>1527</ele><speed>49</speed><time>2016-06-29T16:07:52Z</time><course>135</course><type>1</type></trkpt>
      <trkpt lat="41.7225916" lon="-3.82787"><ele>1530</ele><speed>45</speed><time>2016-06-29T16:07:53Z</time><course>137</course><type>1</type></trkpt>
      <trkpt lat="41.722445" lon="-3.8276967"><ele>1533</ele><speed>36</speed><time>2016-06-29T16:07:55Z</time><course>140</course><type>1</type></trkpt>
      <trkpt lat="41.722375" lon="-3.827635"><ele>1536</ele><speed>34</speed><time>2016-06-29T16:07:56Z</time><course>146</course><type>1</type></trkpt>
      <trkpt lat="41.7222249" lon="-3.8275817"><ele>1540</ele><speed>32</speed><time>2016-06-29T16:07:58Z</time><course>169</course><type>1</type></trkpt>
      <trkpt lat="41.7220916" lon="-3.827545"><ele>1545</ele><speed>26</speed><time>2016-06-29T16:08:00Z</time><course>164</course><type>1</type></trkpt>
      <trkpt lat="41.7220366" lon="-3.8275184"><ele>1548</ele><speed>23</speed><time>2016-06-29T16:08:01Z</time><course>166</course><type>1</type></trkpt>
      <trkpt lat="41.7219883" lon="-3.82751"><ele>1551</ele><speed>18</speed><time>2016-06-29T16:08:02Z</time><course>178</course><type>1</type></trkpt>
      <trkpt lat="41.721935" lon="-3.8275584"><ele>1555</ele><speed>11</speed><time>2016-06-29T16:08:04Z</time><course>245</course><type>1</type></trkpt>
      <trkpt lat="41.7219416" lon="-3.8276234"><ele>1560</ele><speed>9</speed><time>2016-06-29T16:08:06Z</time><course>305</course><type>1</type></trkpt>
      <trkpt lat="41.7220416" lon="-3.827625"><ele>1567</ele><speed>19</speed><time>2016-06-29T16:08:09Z</time><course>16</course><type>1</type></trkpt>
      <trkpt lat="41.7221316" lon="-3.82758"><ele>1572</ele><speed>21</speed><time>2016-06-29T16:08:11Z</time><course>24</course><type>1</type></trkpt>
      <trkpt lat="41.722245" lon="-3.8274834"><ele>1576</ele><speed>33</speed><time>2016-06-29T16:08:13Z</time><course>35</course><type>1</type></trkpt>
      <trkpt lat="41.7223183" lon="-3.8274067"><ele>1578</ele><speed>39</speed><time>2016-06-29T16:08:14Z</time><course>38</course><type>1</type></trkpt>
      <trkpt lat="41.722475" lon="-3.8271917"><ele>1583</ele><speed>48</speed><time>2016-06-29T16:08:16Z</time><course>52</course><type>1</type></trkpt>
      <trkpt lat="41.7225433" lon="-3.82706"><ele>1586</ele><speed>47</speed><time>2016-06-29T16:08:17Z</time><course>58</course><type>1</type></trkpt>
      <trkpt lat="41.7226466" lon="-3.8267767"><ele>1591</ele><speed>48</speed><time>2016-06-29T16:08:19Z</time><course>66</course><type>1</type></trkpt>
      <trkpt lat="41.7227033" lon="-3.82662"><ele>1593</ele><speed>49</speed><time>2016-06-29T16:08:20Z</time><course>71</course><type>1</type></trkpt>
      <trkpt lat="41.7227833" lon="-3.8262434"><ele>1597</ele><speed>60</speed><time>2016-06-29T16:08:22Z</time><course>79</course><type>1</type></trkpt>
      <trkpt lat="41.7227933" lon="-3.8260367"><ele>1600</ele><speed>62</speed><time>2016-06-29T16:08:23Z</time><course>85</course><type>1</type></trkpt>
      <trkpt lat="41.7227483" lon="-3.8256284"><ele>1603</ele><speed>61</speed><time>2016-06-29T16:08:25Z</time><course>108</course><type>1</type></trkpt>
      <trkpt lat="41.7226716" lon="-3.8254384"><ele>1605</ele><speed>63</speed><time>2016-06-29T16:08:26Z</time><course>123</course><type>1</type></trkpt>
      <trkpt lat="41.7224666" lon="-3.82523"><ele>1609</ele><speed>43</speed><time>2016-06-29T16:08:28Z</time><course>160</course><type>1</type></trkpt>
      <trkpt lat="41.72232" lon="-3.8251734"><ele>1614</ele><speed>24</speed><time>2016-06-29T16:08:30Z</time><course>166</course><type>1</type></trkpt>
      <trkpt lat="41.7222683" lon="-3.8251417"><ele>1614</ele><speed>21</speed><time>2016-06-29T16:08:31Z</time><course>160</course><type>1</type></trkpt>
      <trkpt lat="41.7221733" lon="-3.8250734"><ele>1618</ele><speed>21</speed><time>2016-06-29T16:08:33Z</time><course>167</course><type>1</type></trkpt>
      <trkpt lat="41.722105" lon="-3.82505"><ele>1622</ele><speed>9</speed><time>2016-06-29T16:08:35Z</time><course>171</course><type>1</type></trkpt>
      <trkpt lat="41.72214" lon="-3.8250917"><ele>1626</ele><speed>11</speed><time>2016-06-29T16:08:38Z</time><course>350</course><type>1</type></trkpt>
      <trkpt lat="41.7222016" lon="-3.8250801"><ele>1629</ele><speed>13</speed><time>2016-06-29T16:08:40Z</time><course>19</course><type>1</type></trkpt>
      <trkpt lat="41.7222383" lon="-3.8250667"><ele>1631</ele><speed>16</speed><time>2016-06-29T16:08:41Z</time><course>11</course><type>1</type></trkpt>
      <trkpt lat="41.7223283" lon="-3.82503"><ele>1635</ele><speed>22</speed><time>2016-06-29T16:08:43Z</time><course>24</course><type>1</type></trkpt>
      <trkpt lat="41.7223783" lon="-3.8249917"><ele>1637</ele><speed>26</speed><time>2016-06-29T16:08:44Z</time><course>40</course><type>1</type></trkpt>
      <trkpt lat="41.72248" lon="-3.8248434"><ele>1641</ele><speed>35</speed><time>2016-06-29T16:08:46Z</time><course>52</course><type>1</type></trkpt>
      <trkpt lat="41.7225316" lon="-3.824745"><ele>1643</ele><speed>38</speed><time>2016-06-29T16:08:47Z</time><course>56</course><type>1</type></trkpt>
      <trkpt lat="41.7225816" lon="-3.8246334"><ele>1645</ele><speed>41</speed><time>2016-06-29T16:08:48Z</time><course>60</course><type>1</type></trkpt>
      <trkpt lat="41.722655" lon="-3.8243601"><ele>1648</ele><speed>47</speed><time>2016-06-29T16:08:50Z</time><course>73</course><type>1</type></trkpt>
      <trkpt lat="41.7226883" lon="-3.824015"><ele>1652</ele><speed>55</speed><time>2016-06-29T16:08:52Z</time><course>84</course><type>1</type></trkpt>
      <trkpt lat="41.7226916" lon="-3.823825"><ele>1654</ele><speed>58</speed><time>2016-06-29T16:08:53Z</time><course>88</course><type>1</type></trkpt>
      <trkpt lat="41.7226666" lon="-3.823435"><ele>1658</ele><speed>58</speed><time>2016-06-29T16:08:55Z</time><course>97</course><type>1</type></trkpt>
      <trkpt lat="41.7226416" lon="-3.82324"><ele>1660</ele><speed>60</speed><time>2016-06-29T16:08:56Z</time><course>101</course><type>1</type></trkpt>
      <trkpt lat="41.7225283" lon="-3.8228867"><ele>1663</ele><speed>58</speed><time>2016-06-29T16:08:58Z</time><course>129</course><type>1</type></trkpt>
      <trkpt lat="41.7224316" lon="-3.8227717"><ele>1665</ele><speed>50</speed><time>2016-06-29T16:08:59Z</time><course>144</course><type>1</type></trkpt>
      <trkpt lat="41.7223383" lon="-3.8227017"><ele>1667</ele><speed>40</speed><time>2016-06-29T16:09:00Z</time><course>157</course><type>1</type></trkpt>
      <trkpt lat="41.7221916" lon="-3.82263"><ele>1670</ele><speed>29</speed><time>2016-06-29T16:09:02Z</time><course>155</course><type>1</type></trkpt>
      <trkpt lat="41.7220716" lon="-3.8225717"><ele>1674</ele><speed>24</speed><time>2016-06-29T16:09:04Z</time><course>157</course><type>1</type></trkpt>
      <trkpt lat="41.72196" lon="-3.8225334"><ele>1678</ele><speed>21</speed><time>2016-06-29T16:09:06Z</time><course>170</course><type>1</type></trkpt>
      <trkpt lat="41.7218683" lon="-3.82253"><ele>1682</ele><speed>15</speed><time>2016-06-29T16:09:08Z</time><course>185</course><type>1</type></trkpt>
      <trkpt lat="41.721835" lon="-3.8225484"><ele>1685</ele><speed>3</speed><time>2016-06-29T16:09:10Z</time><course>196</course><type>1</type></trkpt>
      <trkpt lat="41.7218916" lon="-3.82254"><ele>1686</ele><speed>12</speed><time>2016-06-29T16:09:13Z</time><course>7</course><type>1</type></trkpt>
      <trkpt lat="41.7219733" lon="-3.8224734"><ele>1688</ele><speed>22</speed><time>2016-06-29T16:09:15Z</time><course>40</course><type>1</type></trkpt>
      <trkpt lat="41.7220766" lon="-3.8223217"><ele>1690</ele><speed>38</speed><time>2016-06-29T16:09:17Z</time><course>55</course><type>1</type></trkpt>
      <trkpt lat="41.7221333" lon="-3.82219"><ele>1691</ele><speed>48</speed><time>2016-06-29T16:09:18Z</time><course>62</course><type>1</type></trkpt>
      <trkpt lat="41.7221883" lon="-3.8220267"><ele>1692</ele><speed>56</speed><time>2016-06-29T16:09:19Z</time><course>67</course><type>1</type></trkpt>
      <trkpt lat="41.72224" lon="-3.8218367"><ele>1693</ele><speed>60</speed><time>2016-06-29T16:09:20Z</time><course>69</course><type>1</type></trkpt>
      <trkpt lat="41.722215" lon="-3.8214434"><ele>1698</ele><speed>54</speed><time>2016-06-29T16:09:22Z</time><course>105</course><type>1</type></trkpt>
      <trkpt lat="41.72213" lon="-3.821125"><ele>1702</ele><speed>48</speed><time>2016-06-29T16:09:24Z</time><course>114</course><type>1</type></trkpt>
      <trkpt lat="41.7220733" lon="-3.8209817"><ele>1705</ele><speed>49</speed><time>2016-06-29T16:09:25Z</time><course>118</course><type>1</type></trkpt>
      <trkpt lat="41.7219416" lon="-3.8207184"><ele>1710</ele><speed>44</speed><time>2016-06-29T16:09:27Z</time><course>131</course><type>1</type></trkpt>
      <trkpt lat="41.72186" lon="-3.8206517"><ele>1712</ele><speed>35</speed><time>2016-06-29T16:09:28Z</time><course>151</course><type>1</type></trkpt>
      <trkpt lat="41.72179" lon="-3.820605"><ele>1714</ele><speed>29</speed><time>2016-06-29T16:09:29Z</time><course>157</course><type>1</type></trkpt>
      <trkpt lat="41.7217066" lon="-3.8205634"><ele>1716</ele><speed>11</speed><time>2016-06-29T16:09:31Z</time><course>170</course><type>1</type></trkpt>
      <trkpt lat="41.7218183" lon="-3.8204517"><ele>1726</ele><speed>29</speed><time>2016-06-29T16:09:37Z</time><course>48</course><type>1</type></trkpt>
      <trkpt lat="41.7218766" lon="-3.82035"><ele>1728</ele><speed>38</speed><time>2016-06-29T16:09:38Z</time><course>54</course><type>1</type></trkpt>
      <trkpt lat="41.7219816" lon="-3.8201017"><ele>1731</ele><speed>46</speed><time>2016-06-29T16:09:40Z</time><course>64</course><type>1</type></trkpt>
      <trkpt lat="41.7220233" lon="-3.819955"><ele>1733</ele><speed>46</speed><time>2016-06-29T16:09:41Z</time><course>72</course><type>1</type></trkpt>
      <trkpt lat="41.7220383" lon="-3.8198"><ele>1735</ele><speed>46</speed><time>2016-06-29T16:09:42Z</time><course>84</course><type>1</type></trkpt>
      <trkpt lat="41.7219866" lon="-3.8194234"><ele>1738</ele><speed>60</speed><time>2016-06-29T16:09:44Z</time><course>99</course><type>1</type></trkpt>
      <trkpt lat="41.7219016" lon="-3.81905"><ele>1742</ele><speed>56</speed><time>2016-06-29T16:09:46Z</time><course>113</course><type>1</type></trkpt>
      <trkpt lat="41.7218333" lon="-3.8189067"><ele>1744</ele><speed>50</speed><time>2016-06-29T16:09:47Z</time><course>126</course><type>1</type></trkpt>
      <trkpt lat="41.7216833" lon="-3.8186617"><ele>1749</ele><speed>48</speed><time>2016-06-29T16:09:49Z</time><course>134</course><type>1</type></trkpt>
      <trkpt lat="41.7215983" lon="-3.8185567"><ele>1751</ele><speed>47</speed><time>2016-06-29T16:09:50Z</time><course>140</course><type>1</type></trkpt>
      <trkpt lat="41.72151" lon="-3.8184717"><ele>1753</ele><speed>42</speed><time>2016-06-29T16:09:51Z</time><course>147</course><type>1</type></trkpt>
      <trkpt lat="41.7213483" lon="-3.8184017"><ele>1757</ele><speed>30</speed><time>2016-06-29T16:09:53Z</time><course>170</course><type>1</type></trkpt>
      <trkpt lat="41.7212883" lon="-3.8183867"><ele>1759</ele><speed>24</speed><time>2016-06-29T16:09:54Z</time><course>172</course><type>1</type></trkpt>
      <trkpt lat="41.7212066" lon="-3.8183634"><ele>1763</ele><speed>16</speed><time>2016-06-29T16:09:56Z</time><course>168</course><type>1</type></trkpt>
      <trkpt lat="41.7211716" lon="-3.8183517"><ele>1765</ele><speed>13</speed><time>2016-06-29T16:09:57Z</time><course>167</course><type>1</type></trkpt>
      <trkpt lat="41.7211316" lon="-3.8183467"><ele>1769</ele><speed>7</speed><time>2016-06-29T16:09:59Z</time><course>256</course><type>1</type></trkpt>
      <trkpt lat="41.7212866" lon="-3.8183284"><ele>1774</ele><speed>38</speed><time>2016-06-29T16:10:02Z</time><course>19</course><type>1</type></trkpt>
      <trkpt lat="41.7214366" lon="-3.8181384"><ele>1778</ele><speed>46</speed><time>2016-06-29T16:10:04Z</time><course>55</course><type>1</type></trkpt>
      <trkpt lat="41.7215266" lon="-3.8178567"><ele>1782</ele><speed>48</speed><time>2016-06-29T16:10:06Z</time><course>71</course><type>1</type></trkpt>
      <trkpt lat="41.7215366" lon="-3.8176917"><ele>1784</ele><speed>52</speed><time>2016-06-29T16:10:07Z</time><course>83</course><type>1</type></trkpt>
      <trkpt lat="41.7215433" lon="-3.81752"><ele>1786</ele><speed>53</speed><time>2016-06-29T16:10:08Z</time><course>92</course><type>1</type></trkpt>
      <trkpt lat="41.7215183" lon="-3.81716"><ele>1790</ele><speed>56</speed><time>2016-06-29T16:10:10Z</time><course>98</course><type>1</type></trkpt>
      <trkpt lat="41.72138" lon="-3.8168117"><ele>1794</ele><speed>57</speed><time>2016-06-29T16:10:12Z</time><course>124</course><type>1</type></trkpt>
      <trkpt lat="41.7212566" lon="-3.816665"><ele>1796</ele><speed>58</speed><time>2016-06-29T16:10:13Z</time><course>136</course><type>1</type></trkpt>
      <trkpt lat="41.7211466" lon="-3.81655"><ele>1798</ele><speed>53</speed><time>2016-06-29T16:10:14Z</time><course>141</course><type>1</type></trkpt>
      <trkpt lat="41.7209566" lon="-3.8164017"><ele>1803</ele><speed>39</speed><time>2016-06-29T16:10:16Z</time><course>149</course><type>1</type></trkpt>
      <trkpt lat="41.7208033" lon="-3.8162767"><ele>1805</ele><speed>35</speed><time>2016-06-29T16:10:18Z</time><course>151</course><type>1</type></trkpt>
      <trkpt lat="41.720735" lon="-3.8162384"><ele>1806</ele><speed>29</speed><time>2016-06-29T16:10:19Z</time><course>161</course><type>1</type></trkpt>
      <trkpt lat="41.7206766" lon="-3.8162217"><ele>1809</ele><speed>19</speed><time>2016-06-29T16:10:20Z</time><course>171</course><type>1</type></trkpt>
      <trkpt lat="41.72063" lon="-3.8162167"><ele>1813</ele><speed>0</speed><time>2016-06-29T16:10:22Z</time><course>176</course><type>1</type></trkpt>
      <trkpt lat="41.7206766" lon="-3.816205"><ele>1814</ele><speed>9</speed><time>2016-06-29T16:10:24Z</time><course>21</course><type>1</type></trkpt>
      <trkpt lat="41.7207183" lon="-3.8161617"><ele>1815</ele><speed>22</speed><time>2016-06-29T16:10:25Z</time><course>44</course><type>1</type></trkpt>
      <trkpt lat="41.7207583" lon="-3.8161017"><ele>1817</ele><speed>26</speed><time>2016-06-29T16:10:26Z</time><course>49</course><type>1</type></trkpt>
      <trkpt lat="41.7208766" lon="-3.8159117"><ele>1819</ele><speed>44</speed><time>2016-06-29T16:10:28Z</time><course>56</course><type>1</type></trkpt>
      <trkpt lat="41.720915" lon="-3.8157667"><ele>1821</ele><speed>51</speed><time>2016-06-29T16:10:29Z</time><course>69</course><type>1</type></trkpt>
      <trkpt lat="41.7209499" lon="-3.815425"><ele>1825</ele><speed>51</speed><time>2016-06-29T16:10:31Z</time><course>89</course><type>1</type></trkpt>
      <trkpt lat="41.7209283" lon="-3.8150634"><ele>1829</ele><speed>56</speed><time>2016-06-29T16:10:33Z</time><course>95</course><type>1</type></trkpt>
      <trkpt lat="41.7209" lon="-3.8148817"><ele>1832</ele><speed>63</speed><time>2016-06-29T16:10:34Z</time><course>102</course><type>1</type></trkpt>
      <trkpt lat="41.7207983" lon="-3.814525"><ele>1838</ele><speed>57</speed><time>2016-06-29T16:10:36Z</time><course>125</course><type>1</type></trkpt>
      <trkpt lat="41.72073" lon="-3.8143934"><ele>1841</ele><speed>50</speed><time>2016-06-29T16:10:37Z</time><course>128</course><type>1</type></trkpt>
      <trkpt lat="41.7205916" lon="-3.8141951"><ele>1845</ele><speed>38</speed><time>2016-06-29T16:10:39Z</time><course>133</course><type>1</type></trkpt>
      <trkpt lat="41.7204733" lon="-3.8140067"><ele>1850</ele><speed>36</speed><time>2016-06-29T16:10:41Z</time><course>137</course><type>1</type></trkpt>
      <trkpt lat="41.7203349" lon="-3.8138767"><ele>1855</ele><speed>29</speed><time>2016-06-29T16:10:43Z</time><course>147</course><type>1</type></trkpt>
      <trkpt lat="41.720295" lon="-3.81387"><ele>1857</ele><speed>11</speed><time>2016-06-29T16:10:44Z</time><course>179</course><type>1</type></trkpt>
      <trkpt lat="41.72036" lon="-3.8138334"><ele>1865</ele><speed>20</speed><time>2016-06-29T16:10:49Z</time><course>28</course><type>1</type></trkpt>
      <trkpt lat="41.7204099" lon="-3.8138034"><ele>1866</ele><speed>23</speed><time>2016-06-29T16:10:50Z</time><course>23</course><type>1</type></trkpt>
      <trkpt lat="41.72058" lon="-3.8136984"><ele>1869</ele><speed>41</speed><time>2016-06-29T16:10:52Z</time><course>29</course><type>1</type></trkpt>
      <trkpt lat="41.720715" lon="-3.813465"><ele>1873</ele><speed>47</speed><time>2016-06-29T16:10:54Z</time><course>67</course><type>1</type></trkpt>
      <trkpt lat="41.72075" lon="-3.81332"><ele>1875</ele><speed>44</speed><time>2016-06-29T16:10:55Z</time><course>73</course><type>1</type></trkpt>
      <trkpt lat="41.7207766" lon="-3.8131784"><ele>1877</ele><speed>42</speed><time>2016-06-29T16:10:56Z</time><course>72</course><type>1</type></trkpt>
      <trkpt lat="41.7208366" lon="-3.812895"><ele>1880</ele><speed>47</speed><time>2016-06-29T16:10:58Z</time><course>72</course><type>1</type></trkpt>
      <trkpt lat="41.7208566" lon="-3.81273"><ele>1882</ele><speed>52</speed><time>2016-06-29T16:10:59Z</time><course>83</course><type>1</type></trkpt>
      <trkpt lat="41.7208383" lon="-3.81238"><ele>1887</ele><speed>55</speed><time>2016-06-29T16:11:01Z</time><course>104</course><type>1</type></trkpt>
      <trkpt lat="41.7207833" lon="-3.812215"><ele>1889</ele><speed>56</speed><time>2016-06-29T16:11:02Z</time><course>120</course><type>1</type></trkpt>
      <trkpt lat="41.7206266" lon="-3.8119517"><ele>1894</ele><speed>55</speed><time>2016-06-29T16:11:04Z</time><course>135</course><type>1</type></trkpt>
      <trkpt lat="41.7204366" lon="-3.811755"><ele>1899</ele><speed>43</speed><time>2016-06-29T16:11:06Z</time><course>151</course><type>1</type></trkpt>
      <trkpt lat="41.7203066" lon="-3.8116717"><ele>1902</ele><speed>19</speed><time>2016-06-29T16:11:08Z</time><course>157</course><type>1</type></trkpt>
      <trkpt lat="41.72022" lon="-3.8115934"><ele>1907</ele><speed>19</speed><time>2016-06-29T16:11:10Z</time><course>157</course><type>1</type></trkpt>
      <trkpt lat="41.720135" lon="-3.8115634"><ele>1912</ele><speed>15</speed><time>2016-06-29T16:11:12Z</time><course>194</course><type>1</type></trkpt>
      <trkpt lat="41.72021" lon="-3.8116"><ele>1921</ele><speed>20</speed><time>2016-06-29T16:11:16Z</time><course>17</course><type>1</type></trkpt>
      <trkpt lat="41.7202583" lon="-3.811575"><ele>1924</ele><speed>21</speed><time>2016-06-29T16:11:17Z</time><course>20</course><type>1</type></trkpt>
      <trkpt lat="41.7203683" lon="-3.8115267"><ele>1928</ele><speed>27</speed><time>2016-06-29T16:11:19Z</time><course>18</course><type>1</type></trkpt>
      <trkpt lat="41.720445" lon="-3.811485"><ele>1929</ele><speed>36</speed><time>2016-06-29T16:11:20Z</time><course>23</course><type>1</type></trkpt>
      <trkpt lat="41.7205366" lon="-3.8114134"><ele>1931</ele><speed>46</speed><time>2016-06-29T16:11:21Z</time><course>33</course><type>1</type></trkpt>
      <trkpt lat="41.7206883" lon="-3.8111134"><ele>1935</ele><speed>60</speed><time>2016-06-29T16:11:23Z</time><course>66</course><type>1</type></trkpt>
      <trkpt lat="41.7207433" lon="-3.8107584"><ele>1942</ele><speed>50</speed><time>2016-06-29T16:11:25Z</time><course>80</course><type>1</type></trkpt>
      <trkpt lat="41.7207716" lon="-3.8106017"><ele>1945</ele><speed>46</speed><time>2016-06-29T16:11:26Z</time><course>75</course><type>1</type></trkpt>
      <trkpt lat="41.7208283" lon="-3.81028"><ele>1951</ele><speed>52</speed><time>2016-06-29T16:11:28Z</time><course>78</course><type>1</type></trkpt>
      <trkpt lat="41.72081" lon="-3.8099284"><ele>1956</ele><speed>56</speed><time>2016-06-29T16:11:30Z</time><course>105</course><type>1</type></trkpt>
      <trkpt lat="41.7207733" lon="-3.80975"><ele>1959</ele><speed>57</speed><time>2016-06-29T16:11:31Z</time><course>110</course><type>1</type></trkpt>
      <trkpt lat="41.7207066" lon="-3.8095934"><ele>1962</ele><speed>57</speed><time>2016-06-29T16:11:32Z</time><course>124</course><type>1</type></trkpt>
      <trkpt lat="41.7204983" lon="-3.809375"><ele>1969</ele><speed>44</speed><time>2016-06-29T16:11:34Z</time><course>155</course><type>1</type></trkpt>
      <trkpt lat="41.72034" lon="-3.8093217"><ele>1974</ele><speed>24</speed><time>2016-06-29T16:11:36Z</time><course>184</course><type>1</type></trkpt>
      <trkpt lat="41.720275" lon="-3.8093667"><ele>1979</ele><speed>10</speed><time>2016-06-29T16:11:38Z</time><course>259</course><type>1</type></trkpt>
      <trkpt lat="41.7203683" lon="-3.809385"><ele>1985</ele><speed>26</speed><time>2016-06-29T16:11:41Z</time><course>13</course><type>1</type></trkpt>
      <trkpt lat="41.7204433" lon="-3.8093517"><ele>1987</ele><speed>35</speed><time>2016-06-29T16:11:42Z</time><course>18</course><type>1</type></trkpt>
      <trkpt lat="41.7205883" lon="-3.8091017"><ele>1993</ele><speed>59</speed><time>2016-06-29T16:11:44Z</time><course>67</course><type>1</type></trkpt>
      <trkpt lat="41.7206166" lon="-3.8089067"><ele>1997</ele><speed>60</speed><time>2016-06-29T16:11:45Z</time><course>82</course><type>1</type></trkpt>
      <trkpt lat="41.7205783" lon="-3.80853"><ele>2003</ele><speed>53</speed><time>2016-06-29T16:11:47Z</time><course>111</course><type>1</type></trkpt>
      <trkpt lat="41.72044" lon="-3.80825"><ele>2010</ele><speed>51</speed><time>2016-06-29T16:11:49Z</time><course>134</course><type>1</type></trkpt>
      <trkpt lat="41.7203466" lon="-3.8081484"><ele>2013</ele><speed>47</speed><time>2016-06-29T16:11:50Z</time><course>144</course><type>1</type></trkpt>
      <trkpt lat="41.72018" lon="-3.8080234"><ele>2019</ele><speed>31</speed><time>2016-06-29T16:11:52Z</time><course>160</course><type>1</type></trkpt>
      <trkpt lat="41.7201216" lon="-3.8080117"><ele>2021</ele><speed>17</speed><time>2016-06-29T16:11:53Z</time><course>187</course><type>1</type></trkpt>
      <trkpt lat="41.72012" lon="-3.808075"><ele>2030</ele><speed>10</speed><time>2016-06-29T16:11:56Z</time><course>324</course><type>1</type></trkpt>
      <trkpt lat="41.72018" lon="-3.8080817"><ele>2034</ele><speed>15</speed><time>2016-06-29T16:11:58Z</time><course>0</course><type>1</type></trkpt>
      <trkpt lat="41.7202983" lon="-3.808035"><ele>2039</ele><speed>33</speed><time>2016-06-29T16:12:00Z</time><course>22</course><type>1</type></trkpt>
      <trkpt lat="41.7203916" lon="-3.807955"><ele>2041</ele><speed>50</speed><time>2016-06-29T16:12:01Z</time><course>39</course><type>1</type></trkpt>
      <trkpt lat="41.720475" lon="-3.8078067"><ele>2044</ele><speed>62</speed><time>2016-06-29T16:12:02Z</time><course>57</course><type>1</type></trkpt>
      <trkpt lat="41.720555" lon="-3.80741"><ele>2050</ele><speed>58</speed><time>2016-06-29T16:12:04Z</time><course>84</course><type>1</type></trkpt>
      <trkpt lat="41.7205666" lon="-3.80723"><ele>2054</ele><speed>52</speed><time>2016-06-29T16:12:05Z</time><course>84</course><type>1</type></trkpt>
      <trkpt lat="41.720575" lon="-3.8070634"><ele>2057</ele><speed>50</speed><time>2016-06-29T16:12:06Z</time><course>84</course><type>1</type></trkpt>
      <trkpt lat="41.7205666" lon="-3.8067284"><ele>2063</ele><speed>52</speed><time>2016-06-29T16:12:08Z</time><course>97</course><type>1</type></trkpt>
      <trkpt lat="41.7205383" lon="-3.8065517"><ele>2066</ele><speed>56</speed><time>2016-06-29T16:12:09Z</time><course>106</course><type>1</type></trkpt>
      <trkpt lat="41.7204433" lon="-3.8062184"><ele>2072</ele><speed>54</speed><time>2016-06-29T16:12:11Z</time><course>121</course><type>1</type></trkpt>
      <trkpt lat="41.720375" lon="-3.8060934"><ele>2075</ele><speed>46</speed><time>2016-06-29T16:12:12Z</time><course>134</course><type>1</type></trkpt>
      <trkpt lat="41.720215" lon="-3.8059234"><ele>2080</ele><speed>38</speed><time>2016-06-29T16:12:14Z</time><course>144</course><type>1</type></trkpt>
      <trkpt lat="41.7200383" lon="-3.8058234"><ele>2086</ele><speed>38</speed><time>2016-06-29T16:12:16Z</time><course>159</course><type>1</type></trkpt>
      <trkpt lat="41.7198883" lon="-3.805765"><ele>2092</ele><speed>26</speed><time>2016-06-29T16:12:18Z</time><course>175</course><type>1</type></trkpt>
      <trkpt lat="41.7198216" lon="-3.805775"><ele>2096</ele><speed>8</speed><time>2016-06-29T16:12:20Z</time><course>258</course><type>1</type></trkpt>
      <trkpt lat="41.7198616" lon="-3.8057984"><ele>2100</ele><speed>14</speed><time>2016-06-29T16:12:22Z</time><course>352</course><type>1</type></trkpt>
      <trkpt lat="41.7199316" lon="-3.8057734"><ele>2102</ele><speed>30</speed><time>2016-06-29T16:12:23Z</time><course>17</course><type>1</type></trkpt>
      <trkpt lat="41.7200783" lon="-3.8056284"><ele>2108</ele><speed>42</speed><time>2016-06-29T16:12:25Z</time><course>45</course><type>1</type></trkpt>
      <trkpt lat="41.720195" lon="-3.8053734"><ele>2111</ele><speed>47</speed><time>2016-06-29T16:12:27Z</time><course>63</course><type>1</type></trkpt>
      <trkpt lat="41.7202766" lon="-3.80507"><ele>2117</ele><speed>49</speed><time>2016-06-29T16:12:29Z</time><course>74</course><type>1</type></trkpt>
      <trkpt lat="41.7202866" lon="-3.8047017"><ele>2123</ele><speed>56</speed><time>2016-06-29T16:12:31Z</time><course>92</course><type>1</type></trkpt>
      <trkpt lat="41.72026" lon="-3.80451"><ele>2125</ele><speed>56</speed><time>2016-06-29T16:12:32Z</time><course>103</course><type>1</type></trkpt>
      <trkpt lat="41.7202083" lon="-3.8043184"><ele>2128</ele><speed>58</speed><time>2016-06-29T16:12:33Z</time><course>110</course><type>1</type></trkpt>
      <trkpt lat="41.7200216" lon="-3.8040084"><ele>2135</ele><speed>55</speed><time>2016-06-29T16:12:35Z</time><course>135</course><type>1</type></trkpt>
      <trkpt lat="41.7198066" lon="-3.8038767"><ele>2142</ele><speed>40</speed><time>2016-06-29T16:12:37Z</time><course>170</course><type>1</type></trkpt>
      <trkpt lat="41.7197233" lon="-3.8038717"><ele>2146</ele><speed>30</speed><time>2016-06-29T16:12:38Z</time><course>183</course><type>1</type></trkpt>
      <trkpt lat="41.71964" lon="-3.8039167"><ele>2153</ele><speed>8</speed><time>2016-06-29T16:12:40Z</time><course>248</course><type>1</type></trkpt>
      <trkpt lat="41.7197416" lon="-3.803925"><ele>2158</ele><speed>29</speed><time>2016-06-29T16:12:43Z</time><course>17</course><type>1</type></trkpt>
      <trkpt lat="41.7198166" lon="-3.8038734"><ele>2160</ele><speed>40</speed><time>2016-06-29T16:12:44Z</time><course>36</course><type>1</type></trkpt>
      <trkpt lat="41.7199566" lon="-3.8035717"><ele>2166</ele><speed>61</speed><time>2016-06-29T16:12:46Z</time><course>72</course><type>1</type></trkpt>
      <trkpt lat="41.7199566" lon="-3.8033634"><ele>2170</ele><speed>63</speed><time>2016-06-29T16:12:47Z</time><course>96</course><type>1</type></trkpt>
      <trkpt lat="41.7198516" lon="-3.8030234"><ele>2177</ele><speed>52</speed><time>2016-06-29T16:12:49Z</time><course>125</course><type>1</type></trkpt>
      <trkpt lat="41.7197783" lon="-3.8029"><ele>2180</ele><speed>48</speed><time>2016-06-29T16:12:50Z</time><course>133</course><type>1</type></trkpt>
      <trkpt lat="41.7197" lon="-3.8027917"><ele>2184</ele><speed>46</speed><time>2016-06-29T16:12:51Z</time><course>135</course><type>1</type></trkpt>
      <trkpt lat="41.7195283" lon="-3.8026017"><ele>2190</ele><speed>43</speed><time>2016-06-29T16:12:53Z</time><course>142</course><type>1</type></trkpt>
      <trkpt lat="41.7192783" lon="-3.8026467"><ele>2200</ele><speed>14</speed><time>2016-06-29T16:12:57Z</time><course>260</course><type>1</type></trkpt>
      <trkpt lat="41.7193466" lon="-3.8026234"><ele>2204</ele><speed>32</speed><time>2016-06-29T16:12:59Z</time><course>19</course><type>1</type></trkpt>
      <trkpt lat="41.7195" lon="-3.80239"><ele>2208</ele><speed>60</speed><time>2016-06-29T16:13:01Z</time><course>58</course><type>1</type></trkpt>
      <trkpt lat="41.719545" lon="-3.8022117"><ele>2211</ele><speed>56</speed><time>2016-06-29T16:13:02Z</time><course>74</course><type>1</type></trkpt>
      <trkpt lat="41.7195616" lon="-3.802035"><ele>2214</ele><speed>49</speed><time>2016-06-29T16:13:03Z</time><course>83</course><type>1</type></trkpt>
      <trkpt lat="41.719565" lon="-3.8017317"><ele>2219</ele><speed>43</speed><time>2016-06-29T16:13:05Z</time><course>93</course><type>1</type></trkpt>
      <trkpt lat="41.7195516" lon="-3.8015684"><ele>2220</ele><speed>50</speed><time>2016-06-29T16:13:06Z</time><course>90</course><type>1</type></trkpt>
      <trkpt lat="41.71952" lon="-3.80122"><ele>2223</ele><speed>53</speed><time>2016-06-29T16:13:08Z</time><course>98</course><type>1</type></trkpt>
      <trkpt lat="41.7193733" lon="-3.8009717"><ele>2231</ele><speed>54</speed><time>2016-06-29T16:13:10Z</time><course>150</course><type>1</type></trkpt>
      <trkpt lat="41.719205" lon="-3.8008617"><ele>2238</ele><speed>39</speed><time>2016-06-29T16:13:12Z</time><course>159</course><type>1</type></trkpt>
      <trkpt lat="41.7190566" lon="-3.8007634"><ele>2242</ele><speed>34</speed><time>2016-06-29T16:13:14Z</time><course>162</course><type>1</type></trkpt>
      <trkpt lat="41.7189416" lon="-3.8007484"><ele>2248</ele><speed>23</speed><time>2016-06-29T16:13:16Z</time><course>202</course><type>1</type></trkpt>
      <trkpt lat="41.7190033" lon="-3.80074"><ele>2256</ele><speed>22</speed><time>2016-06-29T16:13:20Z</time><course>2</course><type>1</type></trkpt>
      <trkpt lat="41.7190666" lon="-3.800715"><ele>2258</ele><speed>27</speed><time>2016-06-29T16:13:21Z</time><course>5</course><type>1</type></trkpt>
      <trkpt lat="41.71922" lon="-3.8005434"><ele>2261</ele><speed>48</speed><time>2016-06-29T16:13:23Z</time><course>45</course><type>1</type></trkpt>
      <trkpt lat="41.71926" lon="-3.8003484"><ele>2271</ele><speed>52</speed><time>2016-06-29T16:13:25Z</time><course>72</course><type>1</type></trkpt>
      <trkpt lat="41.7192916" lon="-3.8000434"><ele>2276</ele><speed>46</speed><time>2016-06-29T16:13:27Z</time><course>73</course><type>1</type></trkpt>
      <trkpt lat="41.7193116" lon="-3.799765"><ele>2279</ele><speed>43</speed><time>2016-06-29T16:13:29Z</time><course>81</course><type>1</type></trkpt>
      <trkpt lat="41.7193116" lon="-3.7994784"><ele>2285</ele><speed>41</speed><time>2016-06-29T16:13:31Z</time><course>90</course><type>1</type></trkpt>
      <trkpt lat="41.719305" lon="-3.7993167"><ele>2288</ele><speed>52</speed><time>2016-06-29T16:13:32Z</time><course>95</course><type>1</type></trkpt>
      <trkpt lat="41.7192683" lon="-3.7990134"><ele>2294</ele><speed>48</speed><time>2016-06-29T16:13:34Z</time><course>101</course><type>1</type></trkpt>
      <trkpt lat="41.719235" lon="-3.79874"><ele>2298</ele><speed>43</speed><time>2016-06-29T16:13:36Z</time><course>101</course><type>1</type></trkpt>
      <trkpt lat="41.719055" lon="-3.7985234"><ele>2301</ele><speed>43</speed><time>2016-06-29T16:13:38Z</time><course>132</course><type>1</type></trkpt>
      <trkpt lat="41.71891" lon="-3.7984967"><ele>2306</ele><speed>23</speed><time>2016-06-29T16:13:40Z</time><course>180</course><type>1</type></trkpt>
      <trkpt lat="41.7188333" lon="-3.7985034"><ele>2311</ele><speed>14</speed><time>2016-06-29T16:13:42Z</time><course>228</course><type>1</type></trkpt>
      <trkpt lat="41.7189683" lon="-3.7983867"><ele>2323</ele><speed>45</speed><time>2016-06-29T16:13:47Z</time><course>46</course><type>1</type></trkpt>
      <trkpt lat="41.7190416" lon="-3.7981167"><ele>2330</ele><speed>55</speed><time>2016-06-29T16:13:49Z</time><course>64</course><type>1</type></trkpt>
      <trkpt lat="41.7190766" lon="-3.7979617"><ele>2333</ele><speed>52</speed><time>2016-06-29T16:13:50Z</time><course>68</course><type>1</type></trkpt>
      <trkpt lat="41.7191366" lon="-3.79766"><ele>2340</ele><speed>47</speed><time>2016-06-29T16:13:52Z</time><course>69</course><type>1</type></trkpt>
      <trkpt lat="41.7191666" lon="-3.7975217"><ele>2342</ele><speed>44</speed><time>2016-06-29T16:13:53Z</time><course>73</course><type>1</type></trkpt>
      <trkpt lat="41.7191883" lon="-3.7973667"><ele>2346</ele><speed>53</speed><time>2016-06-29T16:13:54Z</time><course>88</course><type>1</type></trkpt>
      <trkpt lat="41.7191416" lon="-3.7970384"><ele>2352</ele><speed>50</speed><time>2016-06-29T16:13:56Z</time><course>108</course><type>1</type></trkpt>
      <trkpt lat="41.71902" lon="-3.7968034"><ele>2359</ele><speed>43</speed><time>2016-06-29T16:13:58Z</time><course>131</course><type>1</type></trkpt>
      <trkpt lat="41.7188716" lon="-3.7967184"><ele>2365</ele><speed>31</speed><time>2016-06-29T16:14:00Z</time><course>164</course><type>1</type></trkpt>
      <trkpt lat="41.71877" lon="-3.7967184"><ele>2372</ele><speed>23</speed><time>2016-06-29T16:14:02Z</time><course>205</course><type>1</type></trkpt>
      <trkpt lat="41.7187766" lon="-3.7967801"><ele>2382</ele><speed>21</speed><time>2016-06-29T16:14:05Z</time><course>341</course><type>1</type></trkpt>
      <trkpt lat="41.71884" lon="-3.7967667"><ele>2385</ele><speed>31</speed><time>2016-06-29T16:14:06Z</time><course>9</course><type>1</type></trkpt>
      <trkpt lat="41.7190116" lon="-3.7966567"><ele>2391</ele><speed>45</speed><time>2016-06-29T16:14:08Z</time><course>31</course><type>1</type></trkpt>
      <trkpt lat="41.7190933" lon="-3.7965784"><ele>2394</ele><speed>46</speed><time>2016-06-29T16:14:09Z</time><course>40</course><type>1</type></trkpt>
      <trkpt lat="41.7192033" lon="-3.7963634"><ele>2404</ele><speed>39</speed><time>2016-06-29T16:14:11Z</time><course>71</course><type>1</type></trkpt>
      <trkpt lat="41.719245" lon="-3.7961334"><ele>2409</ele><speed>38</speed><time>2016-06-29T16:14:13Z</time><course>74</course><type>1</type></trkpt>
      <trkpt lat="41.7192683" lon="-3.7960034"><ele>2412</ele><speed>45</speed><time>2016-06-29T16:14:14Z</time><course>76</course><type>1</type></trkpt>
      <trkpt lat="41.7192783" lon="-3.7956684"><ele>2419</ele><speed>49</speed><time>2016-06-29T16:14:16Z</time><course>88</course><type>1</type></trkpt>
      <trkpt lat="41.7192683" lon="-3.7955"><ele>2422</ele><speed>49</speed><time>2016-06-29T16:14:17Z</time><course>93</course><type>1</type></trkpt>
      <trkpt lat="41.719245" lon="-3.7953517"><ele>2425</ele><speed>45</speed><time>2016-06-29T16:14:18Z</time><course>101</course><type>1</type></trkpt>
      <trkpt lat="41.7190933" lon="-3.79514"><ele>2427</ele><speed>43</speed><time>2016-06-29T16:14:20Z</time><course>136</course><type>1</type></trkpt>
      <trkpt lat="41.7188916" lon="-3.7949567"><ele>2433</ele><speed>47</speed><time>2016-06-29T16:14:22Z</time><course>143</course><type>1</type></trkpt>
      <trkpt lat="41.718715" lon="-3.794875"><ele>2440</ele><speed>26</speed><time>2016-06-29T16:14:24Z</time><course>176</course><type>1</type></trkpt>
      <trkpt lat="41.7186683" lon="-3.7948917"><ele>2443</ele><speed>17</speed><time>2016-06-29T16:14:25Z</time><course>209</course><type>1</type></trkpt>
      <trkpt lat="41.7186466" lon="-3.7949467"><ele>2449</ele><speed>9</speed><time>2016-06-29T16:14:27Z</time><course>270</course><type>1</type></trkpt>
      <trkpt lat="41.718685" lon="-3.7950084"><ele>2454</ele><speed>16</speed><time>2016-06-29T16:14:29Z</time><course>313</course><type>1</type></trkpt>
      <trkpt lat="41.7187316" lon="-3.7950367"><ele>2456</ele><speed>22</speed><time>2016-06-29T16:14:30Z</time><course>332</course><type>1</type></trkpt>
      <trkpt lat="41.7188833" lon="-3.7949984"><ele>2461</ele><speed>40</speed><time>2016-06-29T16:14:32Z</time><course>21</course><type>1</type></trkpt>
      <trkpt lat="41.7190383" lon="-3.7948084"><ele>2466</ele><speed>46</speed><time>2016-06-29T16:14:34Z</time><course>43</course><type>1</type></trkpt>
      <trkpt lat="41.7190883" lon="-3.7946934"><ele>2469</ele><speed>46</speed><time>2016-06-29T16:14:35Z</time><course>51</course><type>1</type></trkpt>
      <trkpt lat="41.719125" lon="-3.794565"><ele>2467</ele><speed>44</speed><time>2016-06-29T16:14:36Z</time><course>60</course><type>1</type></trkpt>
      <trkpt lat="41.71917" lon="-3.7942867"><ele>2470</ele><speed>50</speed><time>2016-06-29T16:14:38Z</time><course>68</course><type>1</type></trkpt>
      <trkpt lat="41.71921" lon="-3.793955"><ele>2473</ele><speed>52</speed><time>2016-06-29T16:14:40Z</time><course>90</course><type>1</type></trkpt>
      <trkpt lat="41.7191933" lon="-3.7937867"><ele>2475</ele><speed>51</speed><time>2016-06-29T16:14:41Z</time><course>99</course><type>1</type></trkpt>
      <trkpt lat="41.7191333" lon="-3.7934617"><ele>2478</ele><speed>55</speed><time>2016-06-29T16:14:43Z</time><course>111</course><type>1</type></trkpt>
      <trkpt lat="41.719085" lon="-3.7933034"><ele>2480</ele><speed>55</speed><time>2016-06-29T16:14:44Z</time><course>113</course><type>1</type></trkpt>
      <trkpt lat="41.7189566" lon="-3.7930651"><ele>2486</ele><speed>49</speed><time>2016-06-29T16:14:46Z</time><course>150</course><type>1</type></trkpt>
      <trkpt lat="41.7188816" lon="-3.7930284"><ele>2492</ele><speed>40</speed><time>2016-06-29T16:14:47Z</time><course>165</course><type>1</type></trkpt>
      <trkpt lat="41.7187283" lon="-3.792995"><ele>2499</ele><speed>33</speed><time>2016-06-29T16:14:49Z</time><course>172</course><type>1</type></trkpt>
      <trkpt lat="41.7186649" lon="-3.792985"><ele>2503</ele><speed>28</speed><time>2016-06-29T16:14:50Z</time><course>174</course><type>1</type></trkpt>
      <trkpt lat="41.7186116" lon="-3.7929834"><ele>2505</ele><speed>21</speed><time>2016-06-29T16:14:51Z</time><course>180</course><type>1</type></trkpt>
      <trkpt lat="41.7185066" lon="-3.7929784"><ele>2511</ele><speed>18</speed><time>2016-06-29T16:14:53Z</time><course>197</course><type>1</type></trkpt>
      <trkpt lat="41.7184783" lon="-3.793055"><ele>2519</ele><speed>13</speed><time>2016-06-29T16:14:56Z</time><course>298</course><type>1</type></trkpt>
      <trkpt lat="41.7185916" lon="-3.7930734"><ele>2524</ele><speed>27</speed><time>2016-06-29T16:14:58Z</time><course>357</course><type>1</type></trkpt>
      <trkpt lat="41.7187583" lon="-3.7929867"><ele>2528</ele><speed>44</speed><time>2016-06-29T16:15:00Z</time><course>34</course><type>1</type></trkpt>
      <trkpt lat="41.7189066" lon="-3.792745"><ele>2534</ele><speed>56</speed><time>2016-06-29T16:15:02Z</time><course>61</course><type>1</type></trkpt>
      <trkpt lat="41.7189366" lon="-3.7923884"><ele>2540</ele><speed>55</speed><time>2016-06-29T16:15:04Z</time><course>88</course><type>1</type></trkpt>
      <trkpt lat="41.7189433" lon="-3.79207"><ele>2544</ele><speed>44</speed><time>2016-06-29T16:15:06Z</time><course>87</course><type>1</type></trkpt>
      <trkpt lat="41.7189466" lon="-3.7919167"><ele>2545</ele><speed>47</speed><time>2016-06-29T16:15:07Z</time><course>88</course><type>1</type></trkpt>
      <trkpt lat="41.7188883" lon="-3.7915734"><ele>2547</ele><speed>59</speed><time>2016-06-29T16:15:09Z</time><course>119</course><type>1</type></trkpt>
      <trkpt lat="41.7186983" lon="-3.7913367"><ele>2548</ele><speed>46</speed><time>2016-06-29T16:15:11Z</time><course>149</course><type>1</type></trkpt>
      <trkpt lat="41.7186033" lon="-3.7912667"><ele>2549</ele><speed>42</speed><time>2016-06-29T16:15:12Z</time><course>151</course><type>1</type></trkpt>
      <trkpt lat="41.718425" lon="-3.791155"><ele>2551</ele><speed>39</speed><time>2016-06-29T16:15:14Z</time><course>159</course><type>1</type></trkpt>
      <trkpt lat="41.71824" lon="-3.7911017"><ele>2553</ele><speed>37</speed><time>2016-06-29T16:15:16Z</time><course>175</course><type>1</type></trkpt>
      <trkpt lat="41.7181566" lon="-3.7911017"><ele>2555</ele><speed>30</speed><time>2016-06-29T16:15:17Z</time><course>183</course><type>1</type></trkpt>
      <trkpt lat="41.71807" lon="-3.7911684"><ele>2558</ele><speed>16</speed><time>2016-06-29T16:15:19Z</time><course>235</course><type>1</type></trkpt>
      <trkpt lat="41.7180533" lon="-3.7912167"><ele>2559</ele><speed>15</speed><time>2016-06-29T16:15:20Z</time><course>253</course><type>1</type></trkpt>
      <trkpt lat="41.718055" lon="-3.7912684"><ele>2560</ele><speed>15</speed><time>2016-06-29T16:15:21Z</time><course>276</course><type>1</type></trkpt>
      <trkpt lat="41.7180883" lon="-3.7913217"><ele>2561</ele><speed>20</speed><time>2016-06-29T16:15:22Z</time><course>314</course><type>1</type></trkpt>
      <trkpt lat="41.7182149" lon="-3.791385"><ele>2563</ele><speed>35</speed><time>2016-06-29T16:15:24Z</time><course>1</course><type>1</type></trkpt>
      <trkpt lat="41.7183933" lon="-3.7912834"><ele>2564</ele><speed>43</speed><time>2016-06-29T16:15:26Z</time><course>38</course><type>1</type></trkpt>
      <trkpt lat="41.7184683" lon="-3.791175"><ele>2565</ele><speed>46</speed><time>2016-06-29T16:15:27Z</time><course>51</course><type>1</type></trkpt>
      <trkpt lat="41.7185883" lon="-3.790895"><ele>2566</ele><speed>51</speed><time>2016-06-29T16:15:29Z</time><course>64</course><type>1</type></trkpt>
      <trkpt lat="41.7186866" lon="-3.79057"><ele>2567</ele><speed>52</speed><time>2016-06-29T16:15:31Z</time><course>69</course><type>1</type></trkpt>
      <trkpt lat="41.7187283" lon="-3.7904034"><ele>2567</ele><speed>51</speed><time>2016-06-29T16:15:32Z</time><course>74</course><type>1</type></trkpt>
      <trkpt lat="41.718775" lon="-3.7900684"><ele>2568</ele><speed>49</speed><time>2016-06-29T16:15:34Z</time><course>84</course><type>1</type></trkpt>
      <trkpt lat="41.71879" lon="-3.7898934"><ele>2568</ele><speed>54</speed><time>2016-06-29T16:15:35Z</time><course>85</course><type>1</type></trkpt>
      <trkpt lat="41.7187983" lon="-3.789515"><ele>2567</ele><speed>57</speed><time>2016-06-29T16:15:37Z</time><course>92</course><type>1</type></trkpt>
      <trkpt lat="41.7187666" lon="-3.7893267"><ele>2566</ele><speed>56</speed><time>2016-06-29T16:15:38Z</time><course>108</course><type>1</type></trkpt>
      <trkpt lat="41.7186233" lon="-3.789005"><ele>2564</ele><speed>57</speed><time>2016-06-29T16:15:40Z</time><course>128</course><type>1</type></trkpt>
      <trkpt lat="41.7185333" lon="-3.788865"><ele>2564</ele><speed>54</speed><time>2016-06-29T16:15:41Z</time><course>131</course><type>1</type></trkpt>
      <trkpt lat="41.71837" lon="-3.788625"><ele>2563</ele><speed>46</speed><time>2016-06-29T16:15:43Z</time><course>132</course><type>1</type></trkpt>
      <trkpt lat="41.7182933" lon="-3.788515"><ele>2563</ele><speed>45</speed><time>2016-06-29T16:15:44Z</time><course>133</course><type>1</type></trkpt>
      <trkpt lat="41.718105" lon="-3.7883084"><ele>2561</ele><speed>45</speed><time>2016-06-29T16:15:46Z</time><course>145</course><type>1</type></trkpt>
      <trkpt lat="41.717995" lon="-3.78822"><ele>2560</ele><speed>51</speed><time>2016-06-29T16:15:47Z</time><course>151</course><type>1</type></trkpt>
      <trkpt lat="41.7177833" lon="-3.788085"><ele>2561</ele><speed>41</speed><time>2016-06-29T16:15:49Z</time><course>155</course><type>1</type></trkpt>
      <trkpt lat="41.7176966" lon="-3.7880284"><ele>2562</ele><speed>36</speed><time>2016-06-29T16:15:50Z</time><course>153</course><type>1</type></trkpt>
      <trkpt lat="41.7175433" lon="-3.78792"><ele>2563</ele><speed>36</speed><time>2016-06-29T16:15:52Z</time><course>150</course><type>1</type></trkpt>
      <trkpt lat="41.71738" lon="-3.787805"><ele>2564</ele><speed>36</speed><time>2016-06-29T16:15:54Z</time><course>154</course><type>1</type></trkpt>
      <trkpt lat="41.71724" lon="-3.787735"><ele>2566</ele><speed>26</speed><time>2016-06-29T16:15:56Z</time><course>162</course><type>1</type></trkpt>
      <trkpt lat="41.7171133" lon="-3.7877034"><ele>2568</ele><speed>25</speed><time>2016-06-29T16:15:58Z</time><course>170</course><type>1</type></trkpt>
      <trkpt lat="41.7170466" lon="-3.7876917"><ele>2569</ele><speed>27</speed><time>2016-06-29T16:15:59Z</time><course>171</course><type>1</type></trkpt>
      <trkpt lat="41.7169783" lon="-3.7876817"><ele>2570</ele><speed>27</speed><time>2016-06-29T16:16:00Z</time><course>175</course><type>1</type></trkpt>
      <trkpt lat="41.716865" lon="-3.78769"><ele>2574</ele><speed>18</speed><time>2016-06-29T16:16:02Z</time><course>190</course><type>1</type></trkpt>
      <trkpt lat="41.7167833" lon="-3.7876834"><ele>2578</ele><speed>17</speed><time>2016-06-29T16:16:04Z</time><course>162</course><type>1</type></trkpt>
      <trkpt lat="41.7167399" lon="-3.78767"><ele>2579</ele><speed>17</speed><time>2016-06-29T16:16:05Z</time><course>166</course><type>1</type></trkpt>
      <trkpt lat="41.7167033" lon="-3.7876734"><ele>2581</ele><speed>11</speed><time>2016-06-29T16:16:06Z</time><course>200</course><type>1</type></trkpt>
      <trkpt lat="41.7167116" lon="-3.7877567"><ele>2584</ele><speed>21</speed><time>2016-06-29T16:16:08Z</time><course>315</course><type>1</type></trkpt>
      <trkpt lat="41.7168483" lon="-3.7878067"><ele>2586</ele><speed>33</speed><time>2016-06-29T16:16:10Z</time><course>356</course><type>1</type></trkpt>
      <trkpt lat="41.717025" lon="-3.7877467"><ele>2588</ele><speed>38</speed><time>2016-06-29T16:16:12Z</time><course>25</course><type>1</type></trkpt>
      <trkpt lat="41.7172066" lon="-3.7875517"><ele>2589</ele><speed>53</speed><time>2016-06-29T16:16:14Z</time><course>48</course><type>1</type></trkpt>
      <trkpt lat="41.7173383" lon="-3.7872117"><ele>2590</ele><speed>59</speed><time>2016-06-29T16:16:16Z</time><course>71</course><type>1</type></trkpt>
      <trkpt lat="41.7173583" lon="-3.7868417"><ele>2592</ele><speed>52</speed><time>2016-06-29T16:16:18Z</time><course>94</course><type>1</type></trkpt>
      <trkpt lat="41.7173516" lon="-3.786495"><ele>2593</ele><speed>52</speed><time>2016-06-29T16:16:20Z</time><course>91</course><type>1</type></trkpt>
      <trkpt lat="41.7173366" lon="-3.7861367"><ele>2594</ele><speed>54</speed><time>2016-06-29T16:16:22Z</time><course>94</course><type>1</type></trkpt>
      <trkpt lat="41.7173216" lon="-3.7859584"><ele>2595</ele><speed>55</speed><time>2016-06-29T16:16:23Z</time><course>99</course><type>1</type></trkpt>
      <trkpt lat="41.7172933" lon="-3.7857767"><ele>2596</ele><speed>54</speed><time>2016-06-29T16:16:24Z</time><course>104</course><type>1</type></trkpt>
      <trkpt lat="41.7171983" lon="-3.78544"><ele>2597</ele><speed>55</speed><time>2016-06-29T16:16:26Z</time><course>115</course><type>1</type></trkpt>
      <trkpt lat="41.7171366" lon="-3.7852884"><ele>2598</ele><speed>52</speed><time>2016-06-29T16:16:27Z</time><course>121</course><type>1</type></trkpt>
      <trkpt lat="41.717" lon="-3.7850684"><ele>2600</ele><speed>39</speed><time>2016-06-29T16:16:29Z</time><course>137</course><type>1</type></trkpt>
      <trkpt lat="41.716925" lon="-3.784975"><ele>2602</ele><speed>39</speed><time>2016-06-29T16:16:30Z</time><course>138</course><type>1</type></trkpt>
      <trkpt lat="41.71677" lon="-3.7847767"><ele>2604</ele><speed>45</speed><time>2016-06-29T16:16:32Z</time><course>136</course><type>1</type></trkpt>
      <trkpt lat="41.716685" lon="-3.7846784"><ele>2606</ele><speed>45</speed><time>2016-06-29T16:16:33Z</time><course>140</course><type>1</type></trkpt>
      <trkpt lat="41.7165233" lon="-3.78454"><ele>2610</ele><speed>29</speed><time>2016-06-29T16:16:35Z</time><course>155</course><type>1</type></trkpt>
      <trkpt lat="41.7164616" lon="-3.7845034"><ele>2612</ele><speed>26</speed><time>2016-06-29T16:16:36Z</time><course>157</course><type>1</type></trkpt>
      <trkpt lat="41.7163416" lon="-3.784435"><ele>2616</ele><speed>25</speed><time>2016-06-29T16:16:38Z</time><course>158</course><type>1</type></trkpt>
      <trkpt lat="41.716285" lon="-3.7844084"><ele>2615</ele><speed>23</speed><time>2016-06-29T16:16:39Z</time><course>159</course><type>1</type></trkpt>
      <trkpt lat="41.716195" lon="-3.7844067"><ele>2619</ele><speed>12</speed><time>2016-06-29T16:16:41Z</time><course>199</course><type>1</type></trkpt>
      <trkpt lat="41.7161583" lon="-3.7844467"><ele>2622</ele><speed>7</speed><time>2016-06-29T16:16:43Z</time><course>228</course><type>1</type></trkpt>
      <trkpt lat="41.7161733" lon="-3.784505"><ele>2626</ele><speed>10</speed><time>2016-06-29T16:16:46Z</time><course>329</course><type>1</type></trkpt>
      <trkpt lat="41.7162466" lon="-3.78455"><ele>2629</ele><speed>19</speed><time>2016-06-29T16:16:48Z</time><course>344</course><type>1</type></trkpt>
      <trkpt lat="41.7163083" lon="-3.7845567"><ele>2631</ele><speed>26</speed><time>2016-06-29T16:16:49Z</time><course>358</course><type>1</type></trkpt>
      <trkpt lat="41.7165083" lon="-3.7844517"><ele>2633</ele><speed>53</speed><time>2016-06-29T16:16:51Z</time><course>36</course><type>1</type></trkpt>
      <trkpt lat="41.7166066" lon="-3.7843117"><ele>2635</ele><speed>64</speed><time>2016-06-29T16:16:52Z</time><course>52</course><type>1</type></trkpt>
      <trkpt lat="41.7167316" lon="-3.7839284"><ele>2640</ele><speed>61</speed><time>2016-06-29T16:16:54Z</time><course>75</course><type>1</type></trkpt>
      <trkpt lat="41.7167666" lon="-3.7837334"><ele>2643</ele><speed>58</speed><time>2016-06-29T16:16:55Z</time><course>76</course><type>1</type></trkpt>
      <trkpt lat="41.7168083" lon="-3.7833617"><ele>2648</ele><speed>58</speed><time>2016-06-29T16:16:57Z</time><course>84</course><type>1</type></trkpt>
      <trkpt lat="41.7167833" lon="-3.78296"><ele>2652</ele><speed>61</speed><time>2016-06-29T16:16:59Z</time><course>105</course><type>1</type></trkpt>
      <trkpt lat="41.7167416" lon="-3.7827767"><ele>2655</ele><speed>56</speed><time>2016-06-29T16:17:00Z</time><course>109</course><type>1</type></trkpt>
      <trkpt lat="41.7166933" lon="-3.7826084"><ele>2657</ele><speed>53</speed><time>2016-06-29T16:17:01Z</time><course>110</course><type>1</type></trkpt>
      <trkpt lat="41.7166499" lon="-3.7824517"><ele>2659</ele><speed>48</speed><time>2016-06-29T16:17:02Z</time><course>108</course><type>1</type></trkpt>
      <trkpt lat="41.7165583" lon="-3.7821617"><ele>2664</ele><speed>45</speed><time>2016-06-29T16:17:04Z</time><course>118</course><type>1</type></trkpt>
      <trkpt lat="41.716495" lon="-3.7820417"><ele>2666</ele><speed>45</speed><time>2016-06-29T16:17:05Z</time><course>127</course><type>1</type></trkpt>
      <trkpt lat="41.7163333" lon="-3.7818734"><ele>2670</ele><speed>37</speed><time>2016-06-29T16:17:07Z</time><course>147</course><type>1</type></trkpt>
      <trkpt lat="41.71626" lon="-3.7818184"><ele>2671</ele><speed>31</speed><time>2016-06-29T16:17:08Z</time><course>152</course><type>1</type></trkpt>
      <trkpt lat="41.71615" lon="-3.78178"><ele>2674</ele><speed>21</speed><time>2016-06-29T16:17:10Z</time><course>177</course><type>1</type></trkpt>
      <trkpt lat="41.7161" lon="-3.7817851"><ele>2676</ele><speed>17</speed><time>2016-06-29T16:17:11Z</time><course>190</course><type>1</type></trkpt>
      <trkpt lat="41.7160316" lon="-3.7818367"><ele>2678</ele><speed>14</speed><time>2016-06-29T16:17:13Z</time><course>224</course><type>1</type></trkpt>
      <trkpt lat="41.7160216" lon="-3.781895"><ele>2680</ele><speed>15</speed><time>2016-06-29T16:17:14Z</time><course>264</course><type>1</type></trkpt>
      <trkpt lat="41.7160866" lon="-3.78199"><ele>2683</ele><speed>21</speed><time>2016-06-29T16:17:16Z</time><course>327</course><type>1</type></trkpt>
      <trkpt lat="41.7162133" lon="-3.782005"><ele>2687</ele><speed>28</speed><time>2016-06-29T16:17:18Z</time><course>17</course><type>1</type></trkpt>
      <trkpt lat="41.7163799" lon="-3.7819267"><ele>2691</ele><speed>36</speed><time>2016-06-29T16:17:20Z</time><course>21</course><type>1</type></trkpt>
      <trkpt lat="41.71657" lon="-3.7817534"><ele>2693</ele><speed>50</speed><time>2016-06-29T16:17:22Z</time><course>40</course><type>1</type></trkpt>
      <trkpt lat="41.716745" lon="-3.7814084"><ele>2696</ele><speed>63</speed><time>2016-06-29T16:17:24Z</time><course>60</course><type>1</type></trkpt>
      <trkpt lat="41.7168583" lon="-3.7810267"><ele>2700</ele><speed>56</speed><time>2016-06-29T16:17:26Z</time><course>71</course><type>1</type></trkpt>
      <trkpt lat="41.7169033" lon="-3.7806684"><ele>2704</ele><speed>51</speed><time>2016-06-29T16:17:28Z</time><course>84</course><type>1</type></trkpt>
      <trkpt lat="41.7168866" lon="-3.7803017"><ele>2708</ele><speed>55</speed><time>2016-06-29T16:17:30Z</time><course>97</course><type>1</type></trkpt>
      <trkpt lat="41.7167966" lon="-3.7799617"><ele>2711</ele><speed>52</speed><time>2016-06-29T16:17:32Z</time><course>121</course><type>1</type></trkpt>
      <trkpt lat="41.716635" lon="-3.7797467"><ele>2713</ele><speed>40</speed><time>2016-06-29T16:17:34Z</time><course>144</course><type>1</type></trkpt>
      <trkpt lat="41.7164766" lon="-3.7796167"><ele>2716</ele><speed>32</speed><time>2016-06-29T16:17:36Z</time><course>149</course><type>1</type></trkpt>
      <trkpt lat="41.7163383" lon="-3.7795334"><ele>2717</ele><speed>27</speed><time>2016-06-29T16:17:38Z</time><course>162</course><type>1</type></trkpt>
      <trkpt lat="41.7162116" lon="-3.7795417"><ele>2718</ele><speed>24</speed><time>2016-06-29T16:17:40Z</time><course>198</course><type>1</type></trkpt>
      <trkpt lat="41.716165" lon="-3.7795784"><ele>2719</ele><speed>21</speed><time>2016-06-29T16:17:41Z</time><course>213</course><type>1</type></trkpt>
      <trkpt lat="41.71609" lon="-3.7796617"><ele>2721</ele><speed>17</speed><time>2016-06-29T16:17:43Z</time><course>219</course><type>1</type></trkpt>
      <trkpt lat="41.7160583" lon="-3.7797734"><ele>2724</ele><speed>15</speed><time>2016-06-29T16:17:46Z</time><course>274</course><type>1</type></trkpt>
      <trkpt lat="41.7160733" lon="-3.77987"><ele>2727</ele><speed>18</speed><time>2016-06-29T16:17:48Z</time><course>275</course><type>1</type></trkpt>
      <trkpt lat="41.7160833" lon="-3.7799234"><ele>2728</ele><speed>15</speed><time>2016-06-29T16:17:49Z</time><course>290</course><type>1</type></trkpt>
      <trkpt lat="41.716125" lon="-3.78001"><ele>2731</ele><speed>14</speed><time>2016-06-29T16:17:51Z</time><course>309</course><type>1</type></trkpt>
      <trkpt lat="41.71622" lon="-3.7800267"><ele>2734</ele><speed>16</speed><time>2016-06-29T16:17:53Z</time><course>352</course><type>1</type></trkpt>
      <trkpt lat="41.7162666" lon="-3.7800317"><ele>2734</ele><speed>20</speed><time>2016-06-29T16:17:54Z</time><course>358</course><type>1</type></trkpt>
      <trkpt lat="41.7164083" lon="-3.78001"><ele>2735</ele><speed>35</speed><time>2016-06-29T16:17:56Z</time><course>15</course><type>1</type></trkpt>
      <trkpt lat="41.7166049" lon="-3.7798284"><ele>2736</ele><speed>55</speed><time>2016-06-29T16:17:58Z</time><course>45</course><type>1</type></trkpt>
      <trkpt lat="41.7167666" lon="-3.7795017"><ele>2737</ele><speed>60</speed><time>2016-06-29T16:18:00Z</time><course>60</course><type>1</type></trkpt>
      <trkpt lat="41.7168366" lon="-3.7793267"><ele>2737</ele><speed>58</speed><time>2016-06-29T16:18:01Z</time><course>62</course><type>1</type></trkpt>
      <trkpt lat="41.716905" lon="-3.77915"><ele>2738</ele><speed>58</speed><time>2016-06-29T16:18:02Z</time><course>63</course><type>1</type></trkpt>
      <trkpt lat="41.717025" lon="-3.7787884"><ele>2739</ele><speed>59</speed><time>2016-06-29T16:18:04Z</time><course>68</course><type>1</type></trkpt>
      <trkpt lat="41.7171133" lon="-3.7784067"><ele>2741</ele><speed>59</speed><time>2016-06-29T16:18:06Z</time><course>75</course><type>1</type></trkpt>
      <trkpt lat="41.7171466" lon="-3.77821"><ele>2742</ele><speed>60</speed><time>2016-06-29T16:18:07Z</time><course>77</course><type>1</type></trkpt>
      <trkpt lat="41.7172033" lon="-3.7778234"><ele>2745</ele><speed>59</speed><time>2016-06-29T16:18:09Z</time><course>81</course><type>1</type></trkpt>
      <trkpt lat="41.7172266" lon="-3.777455"><ele>2748</ele><speed>53</speed><time>2016-06-29T16:18:11Z</time><course>87</course><type>1</type></trkpt>
      <trkpt lat="41.7172133" lon="-3.7770717"><ele>2751</ele><speed>59</speed><time>2016-06-29T16:18:13Z</time><course>98</course><type>1</type></trkpt>
      <trkpt lat="41.7170966" lon="-3.7767217"><ele>2754</ele><speed>57</speed><time>2016-06-29T16:18:15Z</time><course>123</course><type>1</type></trkpt>
      <trkpt lat="41.7169333" lon="-3.7765367"><ele>2757</ele><speed>34</speed><time>2016-06-29T16:18:17Z</time><course>147</course><type>1</type></trkpt>
      <trkpt lat="41.7167983" lon="-3.7764517"><ele>2760</ele><speed>25</speed><time>2016-06-29T16:18:19Z</time><course>156</course><type>1</type></trkpt>
      <trkpt lat="41.7167399" lon="-3.7764384"><ele>2760</ele><speed>24</speed><time>2016-06-29T16:18:20Z</time><course>168</course><type>1</type></trkpt>
      <trkpt lat="41.71669" lon="-3.7764517"><ele>2760</ele><speed>17</speed><time>2016-06-29T16:18:21Z</time><course>199</course><type>1</type></trkpt>
      <trkpt lat="41.7166683" lon="-3.776495"><ele>2760</ele><speed>14</speed><time>2016-06-29T16:18:22Z</time><course>251</course><type>1</type></trkpt>
      <trkpt lat="41.7167383" lon="-3.7766084"><ele>2761</ele><speed>28</speed><time>2016-06-29T16:18:24Z</time><course>340</course><type>1</type></trkpt>
      <trkpt lat="41.7168283" lon="-3.7766117"><ele>2761</ele><speed>36</speed><time>2016-06-29T16:18:25Z</time><course>6</course><type>1</type></trkpt>
      <trkpt lat="41.7170266" lon="-3.7765134"><ele>2762</ele><speed>43</speed><time>2016-06-29T16:18:27Z</time><course>29</course><type>1</type></trkpt>
      <trkpt lat="41.71712" lon="-3.776435"><ele>2762</ele><speed>41</speed><time>2016-06-29T16:18:28Z</time><course>34</course><type>1</type></trkpt>
      <trkpt lat="41.7172166" lon="-3.776355"><ele>2762</ele><speed>43</speed><time>2016-06-29T16:18:29Z</time><course>32</course><type>1</type></trkpt>
      <trkpt lat="41.717415" lon="-3.776145"><ele>2762</ele><speed>55</speed><time>2016-06-29T16:18:31Z</time><course>46</course><type>1</type></trkpt>
      <trkpt lat="41.7175116" lon="-3.7759867"><ele>2763</ele><speed>62</speed><time>2016-06-29T16:18:32Z</time><course>55</course><type>1</type></trkpt>
      <trkpt lat="41.7176299" lon="-3.7755967"><ele>2765</ele><speed>59</speed><time>2016-06-29T16:18:34Z</time><course>75</course><type>1</type></trkpt>
      <trkpt lat="41.717655" lon="-3.7754067"><ele>2766</ele><speed>52</speed><time>2016-06-29T16:18:35Z</time><course>81</course><type>1</type></trkpt>
      <trkpt lat="41.7176883" lon="-3.7750784"><ele>2768</ele><speed>49</speed><time>2016-06-29T16:18:37Z</time><course>80</course><type>1</type></trkpt>
      <trkpt lat="41.7177083" lon="-3.7749117"><ele>2768</ele><speed>47</speed><time>2016-06-29T16:18:38Z</time><course>80</course><type>1</type></trkpt>
      <trkpt lat="41.7177183" lon="-3.77473"><ele>2769</ele><speed>56</speed><time>2016-06-29T16:18:39Z</time><course>88</course><type>1</type></trkpt>
      <trkpt lat="41.7176466" lon="-3.7743167"><ele>2768</ele><speed>62</speed><time>2016-06-29T16:18:41Z</time><course>110</course><type>1</type></trkpt>
      <trkpt lat="41.7175" lon="-3.7739934"><ele>2769</ele><speed>52</speed><time>2016-06-29T16:18:43Z</time><course>124</course><type>1</type></trkpt>
      <trkpt lat="41.7174283" lon="-3.7738484"><ele>2770</ele><speed>50</speed><time>2016-06-29T16:18:44Z</time><course>121</course><type>1</type></trkpt>
      <trkpt lat="41.717365" lon="-3.7737084"><ele>2771</ele><speed>47</speed><time>2016-06-29T16:18:45Z</time><course>120</course><type>1</type></trkpt>
      <trkpt lat="41.7172233" lon="-3.773475"><ele>2772</ele><speed>36</speed><time>2016-06-29T16:18:47Z</time><course>131</course><type>1</type></trkpt>
      <trkpt lat="41.7171566" lon="-3.7733834"><ele>2772</ele><speed>39</speed><time>2016-06-29T16:18:48Z</time><course>134</course><type>1</type></trkpt>
      <trkpt lat="41.7170166" lon="-3.7732034"><ele>2771</ele><speed>40</speed><time>2016-06-29T16:18:50Z</time><course>136</course><type>1</type></trkpt>
      <trkpt lat="41.7168566" lon="-3.7730817"><ele>2772</ele><speed>35</speed><time>2016-06-29T16:18:52Z</time><course>163</course><type>1</type></trkpt>
      <trkpt lat="41.7167166" lon="-3.7730534"><ele>2772</ele><speed>26</speed><time>2016-06-29T16:18:54Z</time><course>168</course><type>1</type></trkpt>
      <trkpt lat="41.7165933" lon="-3.7730267"><ele>2772</ele><speed>27</speed><time>2016-06-29T16:18:56Z</time><course>168</course><type>1</type></trkpt>
      <trkpt lat="41.7164483" lon="-3.7730167"><ele>2772</ele><speed>28</speed><time>2016-06-29T16:18:58Z</time><course>183</course><type>1</type></trkpt>
      <trkpt lat="41.7163366" lon="-3.7730534"><ele>2772</ele><speed>19</speed><time>2016-06-29T16:19:00Z</time><course>207</course><type>1</type></trkpt>
      <trkpt lat="41.7163066" lon="-3.77309"><ele>2772</ele><speed>14</speed><time>2016-06-29T16:19:01Z</time><course>232</course><type>1</type></trkpt>
      <trkpt lat="41.716325" lon="-3.7732367"><ele>2771</ele><speed>20</speed><time>2016-06-29T16:19:04Z</time><course>310</course><type>1</type></trkpt>
      <trkpt lat="41.7164466" lon="-3.773305"><ele>2770</ele><speed>32</speed><time>2016-06-29T16:19:06Z</time><course>351</course><type>1</type></trkpt>
      <trkpt lat="41.7165383" lon="-3.773305"><ele>2770</ele><speed>37</speed><time>2016-06-29T16:19:07Z</time><course>7</course><type>1</type></trkpt>
      <trkpt lat="41.7167316" lon="-3.7731667"><ele>2767</ele><speed>49</speed><time>2016-06-29T16:19:09Z</time><course>40</course><type>1</type></trkpt>
      <trkpt lat="41.7168166" lon="-3.7730367"><ele>2767</ele><speed>52</speed><time>2016-06-29T16:19:10Z</time><course>54</course><type>1</type></trkpt>
      <trkpt lat="41.716915" lon="-3.7727"><ele>2764</ele><speed>56</speed><time>2016-06-29T16:19:12Z</time><course>77</course><type>1</type></trkpt>
      <trkpt lat="41.7169316" lon="-3.7725117"><ele>2762</ele><speed>58</speed><time>2016-06-29T16:19:13Z</time><course>84</course><type>1</type></trkpt>
      <trkpt lat="41.71694" lon="-3.7723167"><ele>2761</ele><speed>57</speed><time>2016-06-29T16:19:14Z</time><course>88</course><type>1</type></trkpt>
      <trkpt lat="41.71694" lon="-3.7719434"><ele>2760</ele><speed>52</speed><time>2016-06-29T16:19:16Z</time><course>91</course><type>1</type></trkpt>
      <trkpt lat="41.716885" lon="-3.7715967"><ele>2758</ele><speed>54</speed><time>2016-06-29T16:19:18Z</time><course>107</course><type>1</type></trkpt>
      <trkpt lat="41.71676" lon="-3.7712967"><ele>2756</ele><speed>48</speed><time>2016-06-29T16:19:20Z</time><course>123</course><type>1</type></trkpt>
      <trkpt lat="41.7166233" lon="-3.7710517"><ele>2756</ele><speed>43</speed><time>2016-06-29T16:19:22Z</time><course>125</course><type>1</type></trkpt>
      <trkpt lat="41.7165" lon="-3.7708017"><ele>2756</ele><speed>44</speed><time>2016-06-29T16:19:24Z</time><course>121</course><type>1</type></trkpt>
      <trkpt lat="41.7164366" lon="-3.770675"><ele>2756</ele><speed>45</speed><time>2016-06-29T16:19:25Z</time><course>125</course><type>1</type></trkpt>
      <trkpt lat="41.7163666" lon="-3.7705617"><ele>2756</ele><speed>42</speed><time>2016-06-29T16:19:26Z</time><course>131</course><type>1</type></trkpt>
      <trkpt lat="41.7162166" lon="-3.770385"><ele>2756</ele><speed>38</speed><time>2016-06-29T16:19:28Z</time><course>142</course><type>1</type></trkpt>
      <trkpt lat="41.7160583" lon="-3.7702434"><ele>2755</ele><speed>39</speed><time>2016-06-29T16:19:30Z</time><course>144</course><type>1</type></trkpt>
      <trkpt lat="41.7159766" lon="-3.770165"><ele>2754</ele><speed>40</speed><time>2016-06-29T16:19:31Z</time><course>144</course><type>1</type></trkpt>
      <trkpt lat="41.7158066" lon="-3.77003"><ele>2754</ele><speed>38</speed><time>2016-06-29T16:19:33Z</time><course>153</course><type>1</type></trkpt>
      <trkpt lat="41.715725" lon="-3.76998"><ele>2753</ele><speed>33</speed><time>2016-06-29T16:19:34Z</time><course>155</course><type>1</type></trkpt>
      <trkpt lat="41.7155816" lon="-3.7699034"><ele>2752</ele><speed>33</speed><time>2016-06-29T16:19:36Z</time><course>155</course><type>1</type></trkpt>
      <trkpt lat="41.7154183" lon="-3.769735"><ele>2751</ele><speed>46</speed><time>2016-06-29T16:19:38Z</time><course>133</course><type>1</type></trkpt>
      <trkpt lat="41.7152666" lon="-3.7694867"><ele>2751</ele><speed>46</speed><time>2016-06-29T16:19:40Z</time><course>126</course><type>1</type></trkpt>
      <trkpt lat="41.7151966" lon="-3.769365"><ele>2750</ele><speed>44</speed><time>2016-06-29T16:19:41Z</time><course>126</course><type>1</type></trkpt>
      <trkpt lat="41.7150633" lon="-3.7691101"><ele>2749</ele><speed>46</speed><time>2016-06-29T16:19:43Z</time><course>123</course><type>1</type></trkpt>
      <trkpt lat="41.715" lon="-3.7689517"><ele>2749</ele><speed>57</speed><time>2016-06-29T16:19:44Z</time><course>115</course><type>1</type></trkpt>
      <trkpt lat="41.714885" lon="-3.7686017"><ele>2748</ele><speed>53</speed><time>2016-06-29T16:19:46Z</time><course>115</course><type>1</type></trkpt>
      <trkpt lat="41.7147666" lon="-3.7683334"><ele>2747</ele><speed>44</speed><time>2016-06-29T16:19:48Z</time><course>122</course><type>1</type></trkpt>
      <trkpt lat="41.7146433" lon="-3.76805"><ele>2746</ele><speed>53</speed><time>2016-06-29T16:19:50Z</time><course>118</course><type>1</type></trkpt>
      <trkpt lat="41.7145266" lon="-3.7677117"><ele>2744</ele><speed>55</speed><time>2016-06-29T16:19:52Z</time><course>117</course><type>1</type></trkpt>
      <trkpt lat="41.7144066" lon="-3.7674067"><ele>2744</ele><speed>49</speed><time>2016-06-29T16:19:54Z</time><course>114</course><type>1</type></trkpt>
      <trkpt lat="41.7143166" lon="-3.7670734"><ele>2743</ele><speed>50</speed><time>2016-06-29T16:19:56Z</time><course>107</course><type>1</type></trkpt>
      <trkpt lat="41.7142649" lon="-3.766895"><ele>2742</ele><speed>55</speed><time>2016-06-29T16:19:57Z</time><course>109</course><type>1</type></trkpt>
      <trkpt lat="41.7141566" lon="-3.76659"><ele>2743</ele><speed>48</speed><time>2016-06-29T16:19:59Z</time><course>118</course><type>1</type></trkpt>
      <trkpt lat="41.7141" lon="-3.7664434"><ele>2743</ele><speed>48</speed><time>2016-06-29T16:20:00Z</time><course>114</course><type>1</type></trkpt>
      <trkpt lat="41.714" lon="-3.76613"><ele>2743</ele><speed>52</speed><time>2016-06-29T16:20:02Z</time><course>113</course><type>1</type></trkpt>
      <trkpt lat="41.7138683" lon="-3.765805"><ele>2743</ele><speed>56</speed><time>2016-06-29T16:20:04Z</time><course>122</course><type>1</type></trkpt>
      <trkpt lat="41.71379" lon="-3.765645"><ele>2744</ele><speed>56</speed><time>2016-06-29T16:20:05Z</time><course>122</course><type>1</type></trkpt>
      <trkpt lat="41.7136583" lon="-3.7653184"><ele>2746</ele><speed>52</speed><time>2016-06-29T16:20:07Z</time><course>111</course><type>1</type></trkpt>
      <trkpt lat="41.7135533" lon="-3.7650234"><ele>2747</ele><speed>45</speed><time>2016-06-29T16:20:09Z</time><course>124</course><type>1</type></trkpt>
      <trkpt lat="41.7134783" lon="-3.76491"><ele>2748</ele><speed>43</speed><time>2016-06-29T16:20:10Z</time><course>132</course><type>1</type></trkpt>
      <trkpt lat="41.7132733" lon="-3.76477"><ele>2748</ele><speed>43</speed><time>2016-06-29T16:20:12Z</time><course>157</course><type>1</type></trkpt>
      <trkpt lat="41.7131716" lon="-3.7647217"><ele>2748</ele><speed>41</speed><time>2016-06-29T16:20:13Z</time><course>159</course><type>1</type></trkpt>
      <trkpt lat="41.713075" lon="-3.7646734"><ele>2748</ele><speed>39</speed><time>2016-06-29T16:20:14Z</time><course>158</course><type>1</type></trkpt>
      <trkpt lat="41.7129083" lon="-3.7645884"><ele>2749</ele><speed>34</speed><time>2016-06-29T16:20:16Z</time><course>160</course><type>1</type></trkpt>
      <trkpt lat="41.7127283" lon="-3.76453"><ele>2748</ele><speed>38</speed><time>2016-06-29T16:20:18Z</time><course>171</course><type>1</type></trkpt>
      <trkpt lat="41.712555" lon="-3.7645167"><ele>2747</ele><speed>30</speed><time>2016-06-29T16:20:20Z</time><course>180</course><type>1</type></trkpt>
      <trkpt lat="41.71248" lon="-3.7645184"><ele>2747</ele><speed>28</speed><time>2016-06-29T16:20:21Z</time><course>179</course><type>1</type></trkpt>
      <trkpt lat="41.712335" lon="-3.7645117"><ele>2746</ele><speed>30</speed><time>2016-06-29T16:20:23Z</time><course>177</course><type>1</type></trkpt>
      <trkpt lat="41.7121783" lon="-3.7645284"><ele>2744</ele><speed>29</speed><time>2016-06-29T16:20:25Z</time><course>191</course><type>1</type></trkpt>
      <trkpt lat="41.7121116" lon="-3.7645584"><ele>2744</ele><speed>27</speed><time>2016-06-29T16:20:26Z</time><course>202</course><type>1</type></trkpt>
      <trkpt lat="41.7120066" lon="-3.764625"><ele>2742</ele><speed>22</speed><time>2016-06-29T16:20:28Z</time><course>199</course><type>1</type></trkpt>
      <trkpt lat="41.7118883" lon="-3.7646234"><ele>2740</ele><speed>28</speed><time>2016-06-29T16:20:30Z</time><course>165</course><type>1</type></trkpt>
      <trkpt lat="41.7118083" lon="-3.7645967"><ele>2739</ele><speed>35</speed><time>2016-06-29T16:20:31Z</time><course>163</course><type>1</type></trkpt>
      <trkpt lat="41.7117116" lon="-3.7645534"><ele>2737</ele><speed>44</speed><time>2016-06-29T16:20:32Z</time><course>162</course><type>1</type></trkpt>
      <trkpt lat="41.7115166" lon="-3.76444"><ele>2735</ele><speed>38</speed><time>2016-06-29T16:20:34Z</time><course>155</course><type>1</type></trkpt>
      <trkpt lat="41.711375" lon="-3.7642867"><ele>2732</ele><speed>37</speed><time>2016-06-29T16:20:36Z</time><course>135</course><type>1</type></trkpt>
      <trkpt lat="41.7113066" lon="-3.7641934"><ele>2730</ele><speed>40</speed><time>2016-06-29T16:20:37Z</time><course>136</course><type>1</type></trkpt>
      <trkpt lat="41.7111516" lon="-3.7639967"><ele>2727</ele><speed>44</speed><time>2016-06-29T16:20:39Z</time><course>135</course><type>1</type></trkpt>
      <trkpt lat="41.7110266" lon="-3.7637367"><ele>2723</ele><speed>48</speed><time>2016-06-29T16:20:41Z</time><course>116</course><type>1</type></trkpt>
      <trkpt lat="41.71097" lon="-3.7635934"><ele>2722</ele><speed>48</speed><time>2016-06-29T16:20:42Z</time><course>119</course><type>1</type></trkpt>
      <trkpt lat="41.7109016" lon="-3.763465"><ele>2719</ele><speed>46</speed><time>2016-06-29T16:20:43Z</time><course>130</course><type>1</type></trkpt>
      <trkpt lat="41.710825" lon="-3.7633534"><ele>2717</ele><speed>43</speed><time>2016-06-29T16:20:44Z</time><course>133</course><type>1</type></trkpt>
      <trkpt lat="41.7106783" lon="-3.763115"><ele>2713</ele><speed>49</speed><time>2016-06-29T16:20:46Z</time><course>123</course><type>1</type></trkpt>
      <trkpt lat="41.71055" lon="-3.76283"><ele>2710</ele><speed>47</speed><time>2016-06-29T16:20:48Z</time><course>123</course><type>1</type></trkpt>
      <trkpt lat="41.71042" lon="-3.7625967"><ele>2706</ele><speed>40</speed><time>2016-06-29T16:20:50Z</time><course>125</course><type>1</type></trkpt>
      <trkpt lat="41.7103166" lon="-3.7623484"><ele>2702</ele><speed>43</speed><time>2016-06-29T16:20:52Z</time><course>117</course><type>1</type></trkpt>
      <trkpt lat="41.71018" lon="-3.762135"><ele>2701</ele><speed>41</speed><time>2016-06-29T16:20:54Z</time><course>135</course><type>1</type></trkpt>
      <trkpt lat="41.7100833" lon="-3.7620684"><ele>2699</ele><speed>43</speed><time>2016-06-29T16:20:55Z</time><course>153</course><type>1</type></trkpt>
      <trkpt lat="41.7099066" lon="-3.7619767"><ele>2696</ele><speed>33</speed><time>2016-06-29T16:20:57Z</time><course>162</course><type>1</type></trkpt>
      <trkpt lat="41.7098316" lon="-3.7619584"><ele>2694</ele><speed>28</speed><time>2016-06-29T16:20:58Z</time><course>170</course><type>1</type></trkpt>
      <trkpt lat="41.70968" lon="-3.7619"><ele>2690</ele><speed>37</speed><time>2016-06-29T16:21:00Z</time><course>154</course><type>1</type></trkpt>
      <trkpt lat="41.70959" lon="-3.761835"><ele>2688</ele><speed>43</speed><time>2016-06-29T16:21:01Z</time><course>149</course><type>1</type></trkpt>
      <trkpt lat="41.7094083" lon="-3.7616817"><ele>2684</ele><speed>41</speed><time>2016-06-29T16:21:03Z</time><course>152</course><type>1</type></trkpt>
      <trkpt lat="41.709325" lon="-3.7616234"><ele>2682</ele><speed>36</speed><time>2016-06-29T16:21:04Z</time><course>151</course><type>1</type></trkpt>
      <trkpt lat="41.70918" lon="-3.7614784"><ele>2677</ele><speed>40</speed><time>2016-06-29T16:21:06Z</time><course>138</course><type>1</type></trkpt>
      <trkpt lat="41.709095" lon="-3.7613834"><ele>2675</ele><speed>45</speed><time>2016-06-29T16:21:07Z</time><course>137</course><type>1</type></trkpt>
      <trkpt lat="41.7089183" lon="-3.7611567"><ele>2674</ele><speed>50</speed><time>2016-06-29T16:21:09Z</time><course>134</course><type>1</type></trkpt>
      <trkpt lat="41.708845" lon="-3.76103"><ele>2672</ele><speed>46</speed><time>2016-06-29T16:21:10Z</time><course>125</course><type>1</type></trkpt>
      <trkpt lat="41.7087233" lon="-3.7607734"><ele>2668</ele><speed>45</speed><time>2016-06-29T16:21:12Z</time><course>121</course><type>1</type></trkpt>
      <trkpt lat="41.7085816" lon="-3.760505"><ele>2663</ele><speed>51</speed><time>2016-06-29T16:21:14Z</time><course>126</course><type>1</type></trkpt>
      <trkpt lat="41.7084216" lon="-3.7602184"><ele>2658</ele><speed>53</speed><time>2016-06-29T16:21:16Z</time><course>127</course><type>1</type></trkpt>
      <trkpt lat="41.7082783" lon="-3.7599367"><ele>2652</ele><speed>50</speed><time>2016-06-29T16:21:18Z</time><course>120</course><type>1</type></trkpt>
      <trkpt lat="41.7081466" lon="-3.7596317"><ele>2649</ele><speed>54</speed><time>2016-06-29T16:21:20Z</time><course>121</course><type>1</type></trkpt>
      <trkpt lat="41.7080633" lon="-3.7594767"><ele>2646</ele><speed>58</speed><time>2016-06-29T16:21:21Z</time><course>126</course><type>1</type></trkpt>
      <trkpt lat="41.7078866" lon="-3.7592084"><ele>2643</ele><speed>50</speed><time>2016-06-29T16:21:23Z</time><course>134</course><type>1</type></trkpt>
      <trkpt lat="41.7077316" lon="-3.75895"><ele>2639</ele><speed>50</speed><time>2016-06-29T16:21:25Z</time><course>124</course><type>1</type></trkpt>
      <trkpt lat="41.7075666" lon="-3.7586734"><ele>2634</ele><speed>55</speed><time>2016-06-29T16:21:27Z</time><course>132</course><type>1</type></trkpt>
      <trkpt lat="41.7073666" lon="-3.7584184"><ele>2630</ele><speed>56</speed><time>2016-06-29T16:21:29Z</time><course>135</course><type>1</type></trkpt>
      <trkpt lat="41.707205" lon="-3.7581434"><ele>2626</ele><speed>50</speed><time>2016-06-29T16:21:31Z</time><course>122</course><type>1</type></trkpt>
      <trkpt lat="41.707135" lon="-3.7580017"><ele>2624</ele><speed>50</speed><time>2016-06-29T16:21:32Z</time><course>124</course><type>1</type></trkpt>
      <trkpt lat="41.7069516" lon="-3.757735"><ele>2619</ele><speed>57</speed><time>2016-06-29T16:21:34Z</time><course>136</course><type>1</type></trkpt>
      <trkpt lat="41.7068416" lon="-3.7576"><ele>2617</ele><speed>62</speed><time>2016-06-29T16:21:35Z</time><course>137</course><type>1</type></trkpt>
      <trkpt lat="41.7066283" lon="-3.7573167"><ele>2612</ele><speed>58</speed><time>2016-06-29T16:21:37Z</time><course>134</course><type>1</type></trkpt>
      <trkpt lat="41.7065233" lon="-3.7571767"><ele>2610</ele><speed>59</speed><time>2016-06-29T16:21:38Z</time><course>134</course><type>1</type></trkpt>
      <trkpt lat="41.7063" lon="-3.7568917"><ele>2605</ele><speed>62</speed><time>2016-06-29T16:21:40Z</time><course>136</course><type>1</type></trkpt>
      <trkpt lat="41.7061866" lon="-3.7567484"><ele>2603</ele><speed>62</speed><time>2016-06-29T16:21:41Z</time><course>136</course><type>1</type></trkpt>
      <trkpt lat="41.7059616" lon="-3.7564567"><ele>2599</ele><speed>62</speed><time>2016-06-29T16:21:43Z</time><course>135</course><type>1</type></trkpt>
      <trkpt lat="41.7058533" lon="-3.7563084"><ele>2597</ele><speed>60</speed><time>2016-06-29T16:21:44Z</time><course>132</course><type>1</type></trkpt>
      <trkpt lat="41.705645" lon="-3.75601"><ele>2592</ele><speed>63</speed><time>2016-06-29T16:21:46Z</time><course>133</course><type>1</type></trkpt>
      <trkpt lat="41.7055316" lon="-3.7558584"><ele>2589</ele><speed>65</speed><time>2016-06-29T16:21:47Z</time><course>135</course><type>1</type></trkpt>
      <trkpt lat="41.7052949" lon="-3.7555484"><ele>2585</ele><speed>65</speed><time>2016-06-29T16:21:49Z</time><course>136</course><type>1</type></trkpt>
      <trkpt lat="41.7051783" lon="-3.7554"><ele>2582</ele><speed>66</speed><time>2016-06-29T16:21:50Z</time><course>135</course><type>1</type></trkpt>
      <trkpt lat="41.7049533" lon="-3.7551"><ele>2578</ele><speed>64</speed><time>2016-06-29T16:21:52Z</time><course>134</course><type>1</type></trkpt>
      <trkpt lat="41.7048366" lon="-3.7549467"><ele>2576</ele><speed>66</speed><time>2016-06-29T16:21:53Z</time><course>137</course><type>1</type></trkpt>
      <trkpt lat="41.7045883" lon="-3.7546551"><ele>2571</ele><speed>65</speed><time>2016-06-29T16:21:55Z</time><course>139</course><type>1</type></trkpt>
      <trkpt lat="41.70447" lon="-3.7545134"><ele>2568</ele><speed>65</speed><time>2016-06-29T16:21:56Z</time><course>137</course><type>1</type></trkpt>
      <trkpt lat="41.7042466" lon="-3.7542534"><ele>2563</ele><speed>57</speed><time>2016-06-29T16:21:58Z</time><course>140</course><type>1</type></trkpt>
      <trkpt lat="41.70413" lon="-3.7541367"><ele>2561</ele><speed>57</speed><time>2016-06-29T16:21:59Z</time><course>145</course><type>1</type></trkpt>
      <trkpt lat="41.70389" lon="-3.75394"><ele>2557</ele><speed>55</speed><time>2016-06-29T16:22:01Z</time><course>150</course><type>1</type></trkpt>
      <trkpt lat="41.7037716" lon="-3.7538467"><ele>2555</ele><speed>54</speed><time>2016-06-29T16:22:02Z</time><course>149</course><type>1</type></trkpt>
      <trkpt lat="41.70354" lon="-3.7536517"><ele>2550</ele><speed>54</speed><time>2016-06-29T16:22:04Z</time><course>145</course><type>1</type></trkpt>
      <trkpt lat="41.703425" lon="-3.753545"><ele>2547</ele><speed>57</speed><time>2016-06-29T16:22:05Z</time><course>145</course><type>1</type></trkpt>
      <trkpt lat="41.7031883" lon="-3.7533267"><ele>2543</ele><speed>57</speed><time>2016-06-29T16:22:07Z</time><course>146</course><type>1</type></trkpt>
      <trkpt lat="41.7030733" lon="-3.7532217"><ele>2541</ele><speed>55</speed><time>2016-06-29T16:22:08Z</time><course>146</course><type>1</type></trkpt>
      <trkpt lat="41.7028483" lon="-3.7530184"><ele>2536</ele><speed>53</speed><time>2016-06-29T16:22:10Z</time><course>145</course><type>1</type></trkpt>
      <trkpt lat="41.7027366" lon="-3.7529134"><ele>2533</ele><speed>56</speed><time>2016-06-29T16:22:11Z</time><course>144</course><type>1</type></trkpt>
      <trkpt lat="41.70262" lon="-3.7527984"><ele>2531</ele><speed>59</speed><time>2016-06-29T16:22:12Z</time><course>142</course><type>1</type></trkpt>
      <trkpt lat="41.7023783" lon="-3.7525317"><ele>2526</ele><speed>64</speed><time>2016-06-29T16:22:14Z</time><course>137</course><type>1</type></trkpt>
      <trkpt lat="41.70216" lon="-3.7522517"><ele>2523</ele><speed>64</speed><time>2016-06-29T16:22:16Z</time><course>136</course><type>1</type></trkpt>
      <trkpt lat="41.7020616" lon="-3.7521234"><ele>2521</ele><speed>53</speed><time>2016-06-29T16:22:17Z</time><course>136</course><type>1</type></trkpt>
      <trkpt lat="41.7019616" lon="-3.7520017"><ele>2518</ele><speed>54</speed><time>2016-06-29T16:22:18Z</time><course>136</course><type>1</type></trkpt>
      <trkpt lat="41.7017433" lon="-3.7517334"><ele>2514</ele><speed>63</speed><time>2016-06-29T16:22:20Z</time><course>139</course><type>1</type></trkpt>
      <trkpt lat="41.701505" lon="-3.7514567"><ele>2510</ele><speed>61</speed><time>2016-06-29T16:22:22Z</time><course>138</course><type>1</type></trkpt>
      <trkpt lat="41.7013933" lon="-3.7513234"><ele>2509</ele><speed>64</speed><time>2016-06-29T16:22:23Z</time><course>137</course><type>1</type></trkpt>
      <trkpt lat="41.701285" lon="-3.75119"><ele>2507</ele><speed>58</speed><time>2016-06-29T16:22:24Z</time><course>136</course><type>1</type></trkpt>
      <trkpt lat="41.7010583" lon="-3.7509234"><ele>2504</ele><speed>59</speed><time>2016-06-29T16:22:26Z</time><course>139</course><type>1</type></trkpt>
      <trkpt lat="41.7008283" lon="-3.750645"><ele>2502</ele><speed>61</speed><time>2016-06-29T16:22:28Z</time><course>136</course><type>1</type></trkpt>
      <trkpt lat="41.7007183" lon="-3.750505"><ele>2503</ele><speed>61</speed><time>2016-06-29T16:22:29Z</time><course>135</course><type>1</type></trkpt>
      <trkpt lat="41.70061" lon="-3.750365"><ele>2503</ele><speed>59</speed><time>2016-06-29T16:22:30Z</time><course>136</course><type>1</type></trkpt>
      <trkpt lat="41.70039" lon="-3.750095"><ele>2502</ele><speed>59</speed><time>2016-06-29T16:22:32Z</time><course>138</course><type>1</type></trkpt>
      <trkpt lat="41.70028" lon="-3.7499634"><ele>2503</ele><speed>59</speed><time>2016-06-29T16:22:33Z</time><course>139</course><type>1</type></trkpt>
      <trkpt lat="41.7000883" lon="-3.74971"><ele>2504</ele><speed>50</speed><time>2016-06-29T16:22:35Z</time><course>131</course><type>1</type></trkpt>
      <trkpt lat="41.6999316" lon="-3.7494484"><ele>2504</ele><speed>51</speed><time>2016-06-29T16:22:37Z</time><course>127</course><type>1</type></trkpt>
      <trkpt lat="41.6998483" lon="-3.749315"><ele>2503</ele><speed>49</speed><time>2016-06-29T16:22:38Z</time><course>131</course><type>1</type></trkpt>
      <trkpt lat="41.6997566" lon="-3.749195"><ele>2503</ele><speed>49</speed><time>2016-06-29T16:22:39Z</time><course>137</course><type>1</type></trkpt>
      <trkpt lat="41.699665" lon="-3.7491017"><ele>2502</ele><speed>43</speed><time>2016-06-29T16:22:40Z</time><course>148</course><type>1</type></trkpt>
      <trkpt lat="41.6994866" lon="-3.74902"><ele>2499</ele><speed>33</speed><time>2016-06-29T16:22:42Z</time><course>171</course><type>1</type></trkpt>
      <trkpt lat="41.69942" lon="-3.7490267"><ele>2499</ele><speed>25</speed><time>2016-06-29T16:22:43Z</time><course>189</course><type>1</type></trkpt>
      <trkpt lat="41.6993383" lon="-3.7490467"><ele>2498</ele><speed>11</speed><time>2016-06-29T16:22:45Z</time><course>195</course><type>1</type></trkpt>
      <trkpt lat="41.6994066" lon="-3.7490717"><ele>2495</ele><speed>19</speed><time>2016-06-29T16:22:48Z</time><course>0</course><type>1</type></trkpt>
      <trkpt lat="41.6994733" lon="-3.7490567"><ele>2494</ele><speed>28</speed><time>2016-06-29T16:22:49Z</time><course>13</course><type>1</type></trkpt>
      <trkpt lat="41.699545" lon="-3.749025"><ele>2493</ele><speed>31</speed><time>2016-06-29T16:22:50Z</time><course>18</course><type>1</type></trkpt>
      <trkpt lat="41.6996983" lon="-3.7489117"><ele>2491</ele><speed>36</speed><time>2016-06-29T16:22:52Z</time><course>31</course><type>1</type></trkpt>
      <trkpt lat="41.6998566" lon="-3.74875"><ele>2490</ele><speed>42</speed><time>2016-06-29T16:22:54Z</time><course>39</course><type>1</type></trkpt>
      <trkpt lat="41.70002" lon="-3.7485434"><ele>2489</ele><speed>46</speed><time>2016-06-29T16:22:56Z</time><course>46</course><type>1</type></trkpt>
      <trkpt lat="41.700165" lon="-3.7482934"><ele>2488</ele><speed>47</speed><time>2016-06-29T16:22:58Z</time><course>57</course><type>1</type></trkpt>
      <trkpt lat="41.700225" lon="-3.7481534"><ele>2488</ele><speed>48</speed><time>2016-06-29T16:22:59Z</time><course>61</course><type>1</type></trkpt>
      <trkpt lat="41.7003366" lon="-3.7478434"><ele>2488</ele><speed>52</speed><time>2016-06-29T16:23:01Z</time><course>67</course><type>1</type></trkpt>
      <trkpt lat="41.7004133" lon="-3.7475017"><ele>2488</ele><speed>53</speed><time>2016-06-29T16:23:03Z</time><course>77</course><type>1</type></trkpt>
      <trkpt lat="41.7004416" lon="-3.7471184"><ele>2490</ele><speed>59</speed><time>2016-06-29T16:23:05Z</time><course>90</course><type>1</type></trkpt>
      <trkpt lat="41.7004416" lon="-3.7467484"><ele>2491</ele><speed>57</speed><time>2016-06-29T16:23:07Z</time><course>89</course><type>1</type></trkpt>
      <trkpt lat="41.7004433" lon="-3.7465734"><ele>2491</ele><speed>52</speed><time>2016-06-29T16:23:08Z</time><course>89</course><type>1</type></trkpt>
      <trkpt lat="41.70042" lon="-3.7462217"><ele>2493</ele><speed>54</speed><time>2016-06-29T16:23:10Z</time><course>100</course><type>1</type></trkpt>
      <trkpt lat="41.7003883" lon="-3.746045"><ele>2493</ele><speed>55</speed><time>2016-06-29T16:23:11Z</time><course>106</course><type>1</type></trkpt>
      <trkpt lat="41.700275" lon="-3.745725"><ele>2496</ele><speed>50</speed><time>2016-06-29T16:23:13Z</time><course>119</course><type>1</type></trkpt>
      <trkpt lat="41.70021" lon="-3.7455917"><ele>2497</ele><speed>46</speed><time>2016-06-29T16:23:14Z</time><course>122</course><type>1</type></trkpt>
      <trkpt lat="41.700065" lon="-3.7453417"><ele>2497</ele><speed>50</speed><time>2016-06-29T16:23:16Z</time><course>132</course><type>1</type></trkpt>
      <trkpt lat="41.6999766" lon="-3.7452284"><ele>2497</ele><speed>49</speed><time>2016-06-29T16:23:17Z</time><course>138</course><type>1</type></trkpt>
      <trkpt lat="41.6997983" lon="-3.7450884"><ele>2498</ele><speed>35</speed><time>2016-06-29T16:23:19Z</time><course>160</course><type>1</type></trkpt>
      <trkpt lat="41.6997183" lon="-3.7450634"><ele>2498</ele><speed>30</speed><time>2016-06-29T16:23:20Z</time><course>170</course><type>1</type></trkpt>
      <trkpt lat="41.6995833" lon="-3.7450584"><ele>2499</ele><speed>22</speed><time>2016-06-29T16:23:22Z</time><course>189</course><type>1</type></trkpt>
      <trkpt lat="41.6995366" lon="-3.74508"><ele>2500</ele><speed>18</speed><time>2016-06-29T16:23:23Z</time><course>209</course><type>1</type></trkpt>
      <trkpt lat="41.69953" lon="-3.745155"><ele>2500</ele><speed>15</speed><time>2016-06-29T16:23:25Z</time><course>314</course><type>1</type></trkpt>
      <trkpt lat="41.6995683" lon="-3.7451817"><ele>2500</ele><speed>20</speed><time>2016-06-29T16:23:26Z</time><course>333</course><type>1</type></trkpt>
      <trkpt lat="41.6996866" lon="-3.7451717"><ele>2501</ele><speed>27</speed><time>2016-06-29T16:23:28Z</time><course>14</course><type>1</type></trkpt>
      <trkpt lat="41.699755" lon="-3.7451367"><ele>2500</ele><speed>29</speed><time>2016-06-29T16:23:29Z</time><course>23</course><type>1</type></trkpt>
      <trkpt lat="41.6998999" lon="-3.7450134"><ele>2501</ele><speed>36</speed><time>2016-06-29T16:23:31Z</time><course>39</course><type>1</type></trkpt>
      <trkpt lat="41.69998" lon="-3.744905"><ele>2501</ele><speed>46</speed><time>2016-06-29T16:23:32Z</time><course>46</course><type>1</type></trkpt>
      <trkpt lat="41.7001316" lon="-3.744655"><ele>2501</ele><speed>45</speed><time>2016-06-29T16:23:34Z</time><course>55</course><type>1</type></trkpt>
      <trkpt lat="41.7002216" lon="-3.7443384"><ele>2502</ele><speed>53</speed><time>2016-06-29T16:23:36Z</time><course>67</course><type>1</type></trkpt>
      <trkpt lat="41.70031" lon="-3.74399"><ele>2502</ele><speed>51</speed><time>2016-06-29T16:23:38Z</time><course>75</course><type>1</type></trkpt>
      <trkpt lat="41.70034" lon="-3.7438067"><ele>2502</ele><speed>53</speed><time>2016-06-29T16:23:39Z</time><course>81</course><type>1</type></trkpt>
      <trkpt lat="41.7003566" lon="-3.743625"><ele>2502</ele><speed>55</speed><time>2016-06-29T16:23:40Z</time><course>80</course><type>1</type></trkpt>
      <trkpt lat="41.700375" lon="-3.7432267"><ele>2504</ele><speed>61</speed><time>2016-06-29T16:23:42Z</time><course>87</course><type>1</type></trkpt>
      <trkpt lat="41.7003683" lon="-3.7430334"><ele>2505</ele><speed>56</speed><time>2016-06-29T16:23:43Z</time><course>93</course><type>1</type></trkpt>
      <trkpt lat="41.7003616" lon="-3.7428484"><ele>2506</ele><speed>54</speed><time>2016-06-29T16:23:44Z</time><course>94</course><type>1</type></trkpt>
      <trkpt lat="41.7003216" lon="-3.742505"><ele>2508</ele><speed>54</speed><time>2016-06-29T16:23:46Z</time><course>99</course><type>1</type></trkpt>
      <trkpt lat="41.7002433" lon="-3.7421517"><ele>2509</ele><speed>56</speed><time>2016-06-29T16:23:48Z</time><course>113</course><type>1</type></trkpt>
      <trkpt lat="41.70018" lon="-3.741985"><ele>2509</ele><speed>54</speed><time>2016-06-29T16:23:49Z</time><course>119</course><type>1</type></trkpt>
      <trkpt lat="41.7000983" lon="-3.74184"><ele>2510</ele><speed>53</speed><time>2016-06-29T16:23:50Z</time><course>127</course><type>1</type></trkpt>
      <trkpt lat="41.6999116" lon="-3.7416117"><ele>2511</ele><speed>46</speed><time>2016-06-29T16:23:52Z</time><course>139</course><type>1</type></trkpt>
      <trkpt lat="41.6998233" lon="-3.7415167"><ele>2512</ele><speed>45</speed><time>2016-06-29T16:23:53Z</time><course>140</course><type>1</type></trkpt>
      <trkpt lat="41.6997333" lon="-3.7414267"><ele>2513</ele><speed>42</speed><time>2016-06-29T16:23:54Z</time><course>142</course><type>1</type></trkpt>
      <trkpt lat="41.6995433" lon="-3.741285"><ele>2515</ele><speed>43</speed><time>2016-06-29T16:23:56Z</time><course>157</course><type>1</type></trkpt>
      <trkpt lat="41.6993533" lon="-3.7412084"><ele>2517</ele><speed>34</speed><time>2016-06-29T16:23:58Z</time><course>165</course><type>1</type></trkpt>
      <trkpt lat="41.6992233" lon="-3.7411784"><ele>2519</ele><speed>22</speed><time>2016-06-29T16:24:00Z</time><course>170</course><type>1</type></trkpt>
      <trkpt lat="41.6991816" lon="-3.7411767"><ele>2520</ele><speed>17</speed><time>2016-06-29T16:24:01Z</time><course>178</course><type>1</type></trkpt>
      <trkpt lat="41.6990983" lon="-3.7412067"><ele>2522</ele><speed>18</speed><time>2016-06-29T16:24:03Z</time><course>201</course><type>1</type></trkpt>
      <trkpt lat="41.6990983" lon="-3.7413"><ele>2525</ele><speed>11</speed><time>2016-06-29T16:24:06Z</time><course>331</course><type>1</type></trkpt>
      <trkpt lat="41.6991383" lon="-3.7413067"><ele>2526</ele><speed>15</speed><time>2016-06-29T16:24:07Z</time><course>357</course><type>1</type></trkpt>
      <trkpt lat="41.6992483" lon="-3.7412734"><ele>2527</ele><speed>24</speed><time>2016-06-29T16:24:09Z</time><course>19</course><type>1</type></trkpt>
      <trkpt lat="41.6993133" lon="-3.7412367"><ele>2528</ele><speed>27</speed><time>2016-06-29T16:24:10Z</time><course>21</course><type>1</type></trkpt>
      <trkpt lat="41.699465" lon="-3.7410867"><ele>2529</ele><speed>42</speed><time>2016-06-29T16:24:12Z</time><course>47</course><type>1</type></trkpt>
      <trkpt lat="41.6995366" lon="-3.7409634"><ele>2530</ele><speed>47</speed><time>2016-06-29T16:24:13Z</time><course>50</course><type>1</type></trkpt>
      <trkpt lat="41.69961" lon="-3.7408334"><ele>2531</ele><speed>48</speed><time>2016-06-29T16:24:14Z</time><course>57</course><type>1</type></trkpt>
      <trkpt lat="41.6997366" lon="-3.7403434"><ele>2533</ele><speed>56</speed><time>2016-06-29T16:24:17Z</time><course>84</course><type>1</type></trkpt>
      <trkpt lat="41.6997383" lon="-3.740155"><ele>2534</ele><speed>57</speed><time>2016-06-29T16:24:18Z</time><course>93</course><type>1</type></trkpt>
      <trkpt lat="41.6997016" lon="-3.739775"><ele>2536</ele><speed>56</speed><time>2016-06-29T16:24:20Z</time><course>100</course><type>1</type></trkpt>
      <trkpt lat="41.6996133" lon="-3.7394267"><ele>2538</ele><speed>53</speed><time>2016-06-29T16:24:22Z</time><course>114</course><type>1</type></trkpt>
      <trkpt lat="41.6995416" lon="-3.7392784"><ele>2539</ele><speed>52</speed><time>2016-06-29T16:24:23Z</time><course>126</course><type>1</type></trkpt>
      <trkpt lat="41.6993566" lon="-3.739035"><ele>2541</ele><speed>52</speed><time>2016-06-29T16:24:25Z</time><course>141</course><type>1</type></trkpt>
      <trkpt lat="41.6992533" lon="-3.7389367"><ele>2542</ele><speed>51</speed><time>2016-06-29T16:24:26Z</time><course>145</course><type>1</type></trkpt>
      <trkpt lat="41.6990616" lon="-3.7387967"><ele>2543</ele><speed>40</speed><time>2016-06-29T16:24:28Z</time><course>154</course><type>1</type></trkpt>
      <trkpt lat="41.6989733" lon="-3.73875"><ele>2544</ele><speed>37</speed><time>2016-06-29T16:24:29Z</time><course>159</course><type>1</type></trkpt>
      <trkpt lat="41.6988183" lon="-3.7387067"><ele>2545</ele><speed>27</speed><time>2016-06-29T16:24:31Z</time><course>172</course><type>1</type></trkpt>
      <trkpt lat="41.69876" lon="-3.73871"><ele>2546</ele><speed>22</speed><time>2016-06-29T16:24:32Z</time><course>181</course><type>1</type></trkpt>
      <trkpt lat="41.6986983" lon="-3.7387467"><ele>2546</ele><speed>11</speed><time>2016-06-29T16:24:34Z</time><course>213</course><type>1</type></trkpt>
      <trkpt lat="41.6986933" lon="-3.738795"><ele>2548</ele><speed>7</speed><time>2016-06-29T16:24:36Z</time><course>296</course><type>1</type></trkpt>
      <trkpt lat="41.6987783" lon="-3.7388267"><ele>2549</ele><speed>24</speed><time>2016-06-29T16:24:38Z</time><course>355</course><type>1</type></trkpt>
      <trkpt lat="41.6989316" lon="-3.7387717"><ele>2550</ele><speed>34</speed><time>2016-06-29T16:24:40Z</time><course>23</course><type>1</type></trkpt>
      <trkpt lat="41.6990883" lon="-3.73862"><ele>2550</ele><speed>40</speed><time>2016-06-29T16:24:42Z</time><course>43</course><type>1</type></trkpt>
      <trkpt lat="41.69924" lon="-3.7383867"><ele>2551</ele><speed>49</speed><time>2016-06-29T16:24:44Z</time><course>55</course><type>1</type></trkpt>
      <trkpt lat="41.6993733" lon="-3.7380634"><ele>2552</ele><speed>56</speed><time>2016-06-29T16:24:46Z</time><course>66</course><type>1</type></trkpt>
      <trkpt lat="41.6994049" lon="-3.7376584"><ele>2554</ele><speed>56</speed><time>2016-06-29T16:24:48Z</time><course>92</course><type>1</type></trkpt>
      <trkpt lat="41.699385" lon="-3.7374534"><ele>2554</ele><speed>57</speed><time>2016-06-29T16:24:49Z</time><course>95</course><type>1</type></trkpt>
      <trkpt lat="41.6993533" lon="-3.737255"><ele>2554</ele><speed>55</speed><time>2016-06-29T16:24:50Z</time><course>96</course><type>1</type></trkpt>
      <trkpt lat="41.6992716" lon="-3.736885"><ele>2554</ele><speed>55</speed><time>2016-06-29T16:24:52Z</time><course>110</course><type>1</type></trkpt>
      <trkpt lat="41.69921" lon="-3.7367234"><ele>2556</ele><speed>53</speed><time>2016-06-29T16:24:53Z</time><course>118</course><type>1</type></trkpt>
      <trkpt lat="41.699085" lon="-3.7364234"><ele>2558</ele><speed>50</speed><time>2016-06-29T16:24:55Z</time><course>116</course><type>1</type></trkpt>
      <trkpt lat="41.6990233" lon="-3.73627"><ele>2558</ele><speed>52</speed><time>2016-06-29T16:24:56Z</time><course>118</course><type>1</type></trkpt>
      <trkpt lat="41.69887" lon="-3.7360084"><ele>2557</ele><speed>50</speed><time>2016-06-29T16:24:58Z</time><course>137</course><type>1</type></trkpt>
      <trkpt lat="41.6986783" lon="-3.7358817"><ele>2555</ele><speed>42</speed><time>2016-06-29T16:25:00Z</time><course>160</course><type>1</type></trkpt>
      <trkpt lat="41.6985883" lon="-3.735865"><ele>2555</ele><speed>35</speed><time>2016-06-29T16:25:01Z</time><course>171</course><type>1</type></trkpt>
      <trkpt lat="41.6985066" lon="-3.7358617"><ele>2555</ele><speed>32</speed><time>2016-06-29T16:25:02Z</time><course>175</course><type>1</type></trkpt>
      <trkpt lat="41.6984316" lon="-3.7358617"><ele>2556</ele><speed>28</speed><time>2016-06-29T16:25:03Z</time><course>178</course><type>1</type></trkpt>
      <trkpt lat="41.698325" lon="-3.7358717"><ele>2558</ele><speed>15</speed><time>2016-06-29T16:25:05Z</time><course>185</course><type>1</type></trkpt>
      <trkpt lat="41.6982449" lon="-3.7359134"><ele>2557</ele><speed>8</speed><time>2016-06-29T16:25:08Z</time><course>209</course><type>1</type></trkpt>
      <trkpt lat="41.698255" lon="-3.7359684"><ele>2556</ele><speed>9</speed><time>2016-06-29T16:25:10Z</time><course>293</course><type>1</type></trkpt>
      <trkpt lat="41.6983066" lon="-3.7359984"><ele>2556</ele><speed>19</speed><time>2016-06-29T16:25:11Z</time><course>321</course><type>1</type></trkpt>
      <trkpt lat="41.6984266" lon="-3.736"><ele>2556</ele><speed>22</speed><time>2016-06-29T16:25:13Z</time><course>8</course><type>1</type></trkpt>
      <trkpt lat="41.69858" lon="-3.7359034"><ele>2555</ele><speed>36</speed><time>2016-06-29T16:25:15Z</time><course>28</course><type>1</type></trkpt>
      <trkpt lat="41.6987583" lon="-3.73576"><ele>2555</ele><speed>43</speed><time>2016-06-29T16:25:17Z</time><course>38</course><type>1</type></trkpt>
      <trkpt lat="41.6989166" lon="-3.7355367"><ele>2555</ele><speed>49</speed><time>2016-06-29T16:25:19Z</time><course>52</course><type>1</type></trkpt>
      <trkpt lat="41.69899" lon="-3.7353934"><ele>2555</ele><speed>52</speed><time>2016-06-29T16:25:20Z</time><course>58</course><type>1</type></trkpt>
      <trkpt lat="41.6991166" lon="-3.7350684"><ele>2555</ele><speed>55</speed><time>2016-06-29T16:25:22Z</time><course>67</course><type>1</type></trkpt>
      <trkpt lat="41.6992116" lon="-3.7347334"><ele>2554</ele><speed>56</speed><time>2016-06-29T16:25:24Z</time><course>74</course><type>1</type></trkpt>
      <trkpt lat="41.6992833" lon="-3.7343434"><ele>2552</ele><speed>61</speed><time>2016-06-29T16:25:26Z</time><course>79</course><type>1</type></trkpt>
      <trkpt lat="41.6992799" lon="-3.7339534"><ele>2552</ele><speed>57</speed><time>2016-06-29T16:25:28Z</time><course>99</course><type>1</type></trkpt>
      <trkpt lat="41.6992166" lon="-3.7335784"><ele>2550</ele><speed>58</speed><time>2016-06-29T16:25:30Z</time><course>105</course><type>1</type></trkpt>
      <trkpt lat="41.69917" lon="-3.733385"><ele>2550</ele><speed>63</speed><time>2016-06-29T16:25:31Z</time><course>108</course><type>1</type></trkpt>
      <trkpt lat="41.6991166" lon="-3.7331884"><ele>2550</ele><speed>63</speed><time>2016-06-29T16:25:32Z</time><course>111</course><type>1</type></trkpt>
      <trkpt lat="41.6989933" lon="-3.7328317"><ele>2551</ele><speed>46</speed><time>2016-06-29T16:25:34Z</time><course>117</course><type>1</type></trkpt>
      <trkpt lat="41.6989316" lon="-3.7326917"><ele>2551</ele><speed>48</speed><time>2016-06-29T16:25:35Z</time><course>122</course><type>1</type></trkpt>
      <trkpt lat="41.6987933" lon="-3.732405"><ele>2550</ele><speed>56</speed><time>2016-06-29T16:25:37Z</time><course>122</course><type>1</type></trkpt>
      <trkpt lat="41.6986533" lon="-3.7320717"><ele>2551</ele><speed>54</speed><time>2016-06-29T16:25:39Z</time><course>118</course><type>1</type></trkpt>
      <trkpt lat="41.698525" lon="-3.7317784"><ele>2552</ele><speed>47</speed><time>2016-06-29T16:25:41Z</time><course>125</course><type>1</type></trkpt>
      <trkpt lat="41.698365" lon="-3.7315384"><ele>2553</ele><speed>49</speed><time>2016-06-29T16:25:43Z</time><course>134</course><type>1</type></trkpt>
      <trkpt lat="41.6982816" lon="-3.7314184"><ele>2553</ele><speed>47</speed><time>2016-06-29T16:25:44Z</time><course>130</course><type>1</type></trkpt>
      <trkpt lat="41.6981366" lon="-3.7311817"><ele>2554</ele><speed>43</speed><time>2016-06-29T16:25:46Z</time><course>132</course><type>1</type></trkpt>
      <trkpt lat="41.6980583" lon="-3.7310817"><ele>2554</ele><speed>43</speed><time>2016-06-29T16:25:47Z</time><course>139</course><type>1</type></trkpt>
      <trkpt lat="41.6978816" lon="-3.7309251"><ele>2554</ele><speed>42</speed><time>2016-06-29T16:25:49Z</time><course>149</course><type>1</type></trkpt>
      <trkpt lat="41.6977049" lon="-3.730775"><ele>2555</ele><speed>40</speed><time>2016-06-29T16:25:51Z</time><course>144</course><type>1</type></trkpt>
      <trkpt lat="41.697625" lon="-3.7307017"><ele>2555</ele><speed>38</speed><time>2016-06-29T16:25:52Z</time><course>146</course><type>1</type></trkpt>
      <trkpt lat="41.6974633" lon="-3.7305984"><ele>2555</ele><speed>34</speed><time>2016-06-29T16:25:54Z</time><course>162</course><type>1</type></trkpt>
      <trkpt lat="41.6973016" lon="-3.73055"><ele>2555</ele><speed>30</speed><time>2016-06-29T16:25:56Z</time><course>170</course><type>1</type></trkpt>
      <trkpt lat="41.6971666" lon="-3.7305484"><ele>2555</ele><speed>23</speed><time>2016-06-29T16:25:58Z</time><course>189</course><type>1</type></trkpt>
      <trkpt lat="41.6970716" lon="-3.7305917"><ele>2554</ele><speed>17</speed><time>2016-06-29T16:26:00Z</time><course>206</course><type>1</type></trkpt>
      <trkpt lat="41.69708" lon="-3.7306517"><ele>2553</ele><speed>10</speed><time>2016-06-29T16:26:02Z</time><course>306</course><type>1</type></trkpt>
      <trkpt lat="41.6971883" lon="-3.7306551"><ele>2551</ele><speed>26</speed><time>2016-06-29T16:26:04Z</time><course>11</course><type>1</type></trkpt>
      <trkpt lat="41.6973466" lon="-3.7305417"><ele>2549</ele><speed>42</speed><time>2016-06-29T16:26:06Z</time><course>37</course><type>1</type></trkpt>
      <trkpt lat="41.6974966" lon="-3.7302684"><ele>2546</ele><speed>57</speed><time>2016-06-29T16:26:08Z</time><course>65</course><type>1</type></trkpt>
      <trkpt lat="41.6975533" lon="-3.729855"><ele>2543</ele><speed>67</speed><time>2016-06-29T16:26:10Z</time><course>89</course><type>1</type></trkpt>
      <trkpt lat="41.6975483" lon="-3.72963"><ele>2543</ele><speed>67</speed><time>2016-06-29T16:26:11Z</time><course>93</course><type>1</type></trkpt>
      <trkpt lat="41.69753" lon="-3.72922"><ele>2544</ele><speed>66</speed><time>2016-06-29T16:26:13Z</time><course>92</course><type>1</type></trkpt>
      <trkpt lat="41.697515" lon="-3.728845"><ele>2544</ele><speed>56</speed><time>2016-06-29T16:26:15Z</time><course>95</course><type>1</type></trkpt>
      <trkpt lat="41.6974533" lon="-3.7284584"><ele>2544</ele><speed>61</speed><time>2016-06-29T16:26:17Z</time><course>109</course><type>1</type></trkpt>
      <trkpt lat="41.697395" lon="-3.7282801"><ele>2545</ele><speed>57</speed><time>2016-06-29T16:26:18Z</time><course>117</course><type>1</type></trkpt>
      <trkpt lat="41.6972583" lon="-3.7279617"><ele>2546</ele><speed>54</speed><time>2016-06-29T16:26:20Z</time><course>123</course><type>1</type></trkpt>
      <trkpt lat="41.6970983" lon="-3.7276567"><ele>2549</ele><speed>54</speed><time>2016-06-29T16:26:22Z</time><course>126</course><type>1</type></trkpt>
      <trkpt lat="41.6969283" lon="-3.7274"><ele>2550</ele><speed>49</speed><time>2016-06-29T16:26:24Z</time><course>136</course><type>1</type></trkpt>
      <trkpt lat="41.6967533" lon="-3.727195"><ele>2552</ele><speed>45</speed><time>2016-06-29T16:26:26Z</time><course>139</course><type>1</type></trkpt>
      <trkpt lat="41.6965799" lon="-3.7269984"><ele>2551</ele><speed>47</speed><time>2016-06-29T16:26:28Z</time><course>140</course><type>1</type></trkpt>
      <trkpt lat="41.6963983" lon="-3.7268484"><ele>2551</ele><speed>38</speed><time>2016-06-29T16:26:30Z</time><course>159</course><type>1</type></trkpt>
      <trkpt lat="41.6963116" lon="-3.7268134"><ele>2551</ele><speed>35</speed><time>2016-06-29T16:26:31Z</time><course>165</course><type>1</type></trkpt>
      <trkpt lat="41.6962316" lon="-3.7267917"><ele>2550</ele><speed>31</speed><time>2016-06-29T16:26:32Z</time><course>171</course><type>1</type></trkpt>
      <trkpt lat="41.6960816" lon="-3.7267817"><ele>2549</ele><speed>27</speed><time>2016-06-29T16:26:34Z</time><course>181</course><type>1</type></trkpt>
      <trkpt lat="41.696025" lon="-3.7267967"><ele>2549</ele><speed>21</speed><time>2016-06-29T16:26:35Z</time><course>196</course><type>1</type></trkpt>
      <trkpt lat="41.695975" lon="-3.7268634"><ele>2547</ele><speed>16</speed><time>2016-06-29T16:26:37Z</time><course>259</course><type>1</type></trkpt>
      <trkpt lat="41.6960849" lon="-3.7268834"><ele>2544</ele><speed>27</speed><time>2016-06-29T16:26:40Z</time><course>23</course><type>1</type></trkpt>
      <trkpt lat="41.6962333" lon="-3.7267601"><ele>2541</ele><speed>38</speed><time>2016-06-29T16:26:42Z</time><course>38</course><type>1</type></trkpt>
      <trkpt lat="41.6963116" lon="-3.72666"><ele>2540</ele><speed>42</speed><time>2016-06-29T16:26:43Z</time><course>46</course><type>1</type></trkpt>
      <trkpt lat="41.69638" lon="-3.7265184"><ele>2539</ele><speed>50</speed><time>2016-06-29T16:26:44Z</time><course>59</course><type>1</type></trkpt>
      <trkpt lat="41.6964899" lon="-3.726195"><ele>2537</ele><speed>54</speed><time>2016-06-29T16:26:46Z</time><course>69</course><type>1</type></trkpt>
      <trkpt lat="41.6965633" lon="-3.7258134"><ele>2536</ele><speed>59</speed><time>2016-06-29T16:26:48Z</time><course>78</course><type>1</type></trkpt>
      <trkpt lat="41.6966116" lon="-3.725415"><ele>2536</ele><speed>58</speed><time>2016-06-29T16:26:50Z</time><course>83</course><type>1</type></trkpt>
      <trkpt lat="41.6966249" lon="-3.7250434"><ele>2536</ele><speed>53</speed><time>2016-06-29T16:26:52Z</time><course>87</course><type>1</type></trkpt>
      <trkpt lat="41.6966283" lon="-3.7246617"><ele>2535</ele><speed>60</speed><time>2016-06-29T16:26:54Z</time><course>90</course><type>1</type></trkpt>
      <trkpt lat="41.696615" lon="-3.7244584"><ele>2534</ele><speed>60</speed><time>2016-06-29T16:26:55Z</time><course>95</course><type>1</type></trkpt>
      <trkpt lat="41.6965916" lon="-3.7242567"><ele>2533</ele><speed>60</speed><time>2016-06-29T16:26:56Z</time><course>100</course><type>1</type></trkpt>
      <trkpt lat="41.6965183" lon="-3.7238617"><ele>2531</ele><speed>60</speed><time>2016-06-29T16:26:58Z</time><course>103</course><type>1</type></trkpt>
      <trkpt lat="41.6964833" lon="-3.7236684"><ele>2531</ele><speed>60</speed><time>2016-06-29T16:26:59Z</time><course>103</course><type>1</type></trkpt>
      <trkpt lat="41.696395" lon="-3.7233"><ele>2530</ele><speed>55</speed><time>2016-06-29T16:27:01Z</time><course>112</course><type>1</type></trkpt>
      <trkpt lat="41.696335" lon="-3.7231334"><ele>2530</ele><speed>55</speed><time>2016-06-29T16:27:02Z</time><course>116</course><type>1</type></trkpt>
      <trkpt lat="41.6961916" lon="-3.72281"><ele>2530</ele><speed>56</speed><time>2016-06-29T16:27:04Z</time><course>120</course><type>1</type></trkpt>
      <trkpt lat="41.6960366" lon="-3.7224884"><ele>2530</ele><speed>55</speed><time>2016-06-29T16:27:06Z</time><course>123</course><type>1</type></trkpt>
      <trkpt lat="41.695875" lon="-3.72222"><ele>2527</ele><speed>49</speed><time>2016-06-29T16:27:08Z</time><course>133</course><type>1</type></trkpt>
      <trkpt lat="41.6956783" lon="-3.7219817"><ele>2525</ele><speed>56</speed><time>2016-06-29T16:27:10Z</time><course>139</course><type>1</type></trkpt>
      <trkpt lat="41.6954583" lon="-3.721695"><ele>2523</ele><speed>60</speed><time>2016-06-29T16:27:12Z</time><course>132</course><type>1</type></trkpt>
      <trkpt lat="41.6952716" lon="-3.72142"><ele>2522</ele><speed>51</speed><time>2016-06-29T16:27:14Z</time><course>133</course><type>1</type></trkpt>
      <trkpt lat="41.6950766" lon="-3.7211767"><ele>2519</ele><speed>56</speed><time>2016-06-29T16:27:16Z</time><course>138</course><type>1</type></trkpt>
      <trkpt lat="41.69486" lon="-3.72089"><ele>2517</ele><speed>63</speed><time>2016-06-29T16:27:18Z</time><course>127</course><type>1</type></trkpt>
      <trkpt lat="41.6946966" lon="-3.7205317"><ele>2516</ele><speed>61</speed><time>2016-06-29T16:27:20Z</time><course>117</course><type>1</type></trkpt>
      <trkpt lat="41.6945383" lon="-3.72018"><ele>2513</ele><speed>62</speed><time>2016-06-29T16:27:22Z</time><course>124</course><type>1</type></trkpt>
      <trkpt lat="41.6943483" lon="-3.7198317"><ele>2511</ele><speed>65</speed><time>2016-06-29T16:27:24Z</time><course>125</course><type>1</type></trkpt>
      <trkpt lat="41.694255" lon="-3.7196567"><ele>2510</ele><speed>63</speed><time>2016-06-29T16:27:25Z</time><course>125</course><type>1</type></trkpt>
      <trkpt lat="41.6941616" lon="-3.7194884"><ele>2508</ele><speed>64</speed><time>2016-06-29T16:27:26Z</time><course>127</course><type>1</type></trkpt>
      <trkpt lat="41.6939533" lon="-3.71916"><ele>2505</ele><speed>65</speed><time>2016-06-29T16:27:28Z</time><course>132</course><type>1</type></trkpt>
      <trkpt lat="41.6938416" lon="-3.719"><ele>2504</ele><speed>65</speed><time>2016-06-29T16:27:29Z</time><course>133</course><type>1</type></trkpt>
      <trkpt lat="41.6936183" lon="-3.71869"><ele>2501</ele><speed>63</speed><time>2016-06-29T16:27:31Z</time><course>133</course><type>1</type></trkpt>
      <trkpt lat="41.6935116" lon="-3.71854"><ele>2500</ele><speed>61</speed><time>2016-06-29T16:27:32Z</time><course>133</course><type>1</type></trkpt>
      <trkpt lat="41.6933083" lon="-3.7182567"><ele>2499</ele><speed>56</speed><time>2016-06-29T16:27:34Z</time><course>134</course><type>1</type></trkpt>
      <trkpt lat="41.6931016" lon="-3.7179934"><ele>2496</ele><speed>56</speed><time>2016-06-29T16:27:36Z</time><course>135</course><type>1</type></trkpt>
      <trkpt lat="41.6928916" lon="-3.7177217"><ele>2494</ele><speed>58</speed><time>2016-06-29T16:27:38Z</time><course>134</course><type>1</type></trkpt>
      <trkpt lat="41.6926966" lon="-3.717425"><ele>2493</ele><speed>59</speed><time>2016-06-29T16:27:40Z</time><course>129</course><type>1</type></trkpt>
      <trkpt lat="41.6926033" lon="-3.7172684"><ele>2492</ele><speed>60</speed><time>2016-06-29T16:27:41Z</time><course>128</course><type>1</type></trkpt>
      <trkpt lat="41.6924149" lon="-3.7169384"><ele>2491</ele><speed>60</speed><time>2016-06-29T16:27:43Z</time><course>127</course><type>1</type></trkpt>
      <trkpt lat="41.6923266" lon="-3.71677"><ele>2490</ele><speed>60</speed><time>2016-06-29T16:27:44Z</time><course>125</course><type>1</type></trkpt>
      <trkpt lat="41.6921766" lon="-3.7164234"><ele>2489</ele><speed>60</speed><time>2016-06-29T16:27:46Z</time><course>122</course><type>1</type></trkpt>
      <trkpt lat="41.6919983" lon="-3.716085"><ele>2488</ele><speed>63</speed><time>2016-06-29T16:27:48Z</time><course>128</course><type>1</type></trkpt>
      <trkpt lat="41.69179" lon="-3.71577"><ele>2489</ele><speed>63</speed><time>2016-06-29T16:27:50Z</time><course>133</course><type>1</type></trkpt>
      <trkpt lat="41.6915916" lon="-3.7154801"><ele>2489</ele><speed>55</speed><time>2016-06-29T16:27:52Z</time><course>131</course><type>1</type></trkpt>
      <trkpt lat="41.6915016" lon="-3.7153417"><ele>2487</ele><speed>56</speed><time>2016-06-29T16:27:53Z</time><course>133</course><type>1</type></trkpt>
      <trkpt lat="41.6914016" lon="-3.7152084"><ele>2486</ele><speed>54</speed><time>2016-06-29T16:27:54Z</time><course>134</course><type>1</type></trkpt>
      <trkpt lat="41.6911816" lon="-3.714935"><ele>2484</ele><speed>64</speed><time>2016-06-29T16:27:56Z</time><course>138</course><type>1</type></trkpt>
      <trkpt lat="41.690965" lon="-3.7146417"><ele>2485</ele><speed>56</speed><time>2016-06-29T16:27:58Z</time><course>132</course><type>1</type></trkpt>
      <trkpt lat="41.6907783" lon="-3.7143884"><ele>2486</ele><speed>51</speed><time>2016-06-29T16:28:00Z</time><course>137</course><type>1</type></trkpt>
      <trkpt lat="41.6906766" lon="-3.7142684"><ele>2486</ele><speed>56</speed><time>2016-06-29T16:28:01Z</time><course>139</course><type>1</type></trkpt>
      <trkpt lat="41.69046" lon="-3.714005"><ele>2487</ele><speed>60</speed><time>2016-06-29T16:28:03Z</time><course>136</course><type>1</type></trkpt>
      <trkpt lat="41.6903533" lon="-3.713875"><ele>2488</ele><speed>55</speed><time>2016-06-29T16:28:04Z</time><course>138</course><type>1</type></trkpt>
      <trkpt lat="41.6901566" lon="-3.7136634"><ele>2490</ele><speed>43</speed><time>2016-06-29T16:28:06Z</time><course>145</course><type>1</type></trkpt>
      <trkpt lat="41.6899816" lon="-3.7135034"><ele>2490</ele><speed>42</speed><time>2016-06-29T16:28:08Z</time><course>146</course><type>1</type></trkpt>
      <trkpt lat="41.6897883" lon="-3.7133684"><ele>2489</ele><speed>42</speed><time>2016-06-29T16:28:10Z</time><course>158</course><type>1</type></trkpt>
      <trkpt lat="41.6896933" lon="-3.7133334"><ele>2489</ele><speed>38</speed><time>2016-06-29T16:28:11Z</time><course>166</course><type>1</type></trkpt>
      <trkpt lat="41.6895333" lon="-3.713295"><ele>2490</ele><speed>29</speed><time>2016-06-29T16:28:13Z</time><course>168</course><type>1</type></trkpt>
      <trkpt lat="41.6894683" lon="-3.713275"><ele>2490</ele><speed>24</speed><time>2016-06-29T16:28:14Z</time><course>163</course><type>1</type></trkpt>
      <trkpt lat="41.6893683" lon="-3.7132734"><ele>2490</ele><speed>15</speed><time>2016-06-29T16:28:16Z</time><course>198</course><type>1</type></trkpt>
      <trkpt lat="41.689335" lon="-3.7133"><ele>2489</ele><speed>14</speed><time>2016-06-29T16:28:17Z</time><course>217</course><type>1</type></trkpt>
      <trkpt lat="41.68939" lon="-3.7133484"><ele>2488</ele><speed>16</speed><time>2016-06-29T16:28:20Z</time><course>11</course><type>1</type></trkpt>
      <trkpt lat="41.68951" lon="-3.7132534"><ele>2486</ele><speed>37</speed><time>2016-06-29T16:28:22Z</time><course>40</course><type>1</type></trkpt>
      <trkpt lat="41.6895833" lon="-3.7131467"><ele>2486</ele><speed>48</speed><time>2016-06-29T16:28:23Z</time><course>51</course><type>1</type></trkpt>
      <trkpt lat="41.6896883" lon="-3.7127901"><ele>2484</ele><speed>65</speed><time>2016-06-29T16:28:25Z</time><course>79</course><type>1</type></trkpt>
      <trkpt lat="41.68971" lon="-3.7125717"><ele>2483</ele><speed>67</speed><time>2016-06-29T16:28:26Z</time><course>85</course><type>1</type></trkpt>
      <trkpt lat="41.6897283" lon="-3.71214"><ele>2484</ele><speed>60</speed><time>2016-06-29T16:28:28Z</time><course>88</course><type>1</type></trkpt>
      <trkpt lat="41.68972" lon="-3.71173"><ele>2483</ele><speed>62</speed><time>2016-06-29T16:28:30Z</time><course>95</course><type>1</type></trkpt>
      <trkpt lat="41.6896999" lon="-3.7115167"><ele>2482</ele><speed>65</speed><time>2016-06-29T16:28:31Z</time><course>98</course><type>1</type></trkpt>
      <trkpt lat="41.6896666" lon="-3.7113"><ele>2482</ele><speed>66</speed><time>2016-06-29T16:28:32Z</time><course>103</course><type>1</type></trkpt>
      <trkpt lat="41.6895783" lon="-3.71089"><ele>2482</ele><speed>61</speed><time>2016-06-29T16:28:34Z</time><course>109</course><type>1</type></trkpt>
      <trkpt lat="41.68945" lon="-3.7105034"><ele>2479</ele><speed>61</speed><time>2016-06-29T16:28:36Z</time><course>117</course><type>1</type></trkpt>
      <trkpt lat="41.689285" lon="-3.7101117"><ele>2478</ele><speed>68</speed><time>2016-06-29T16:28:38Z</time><course>120</course><type>1</type></trkpt>
      <trkpt lat="41.6891133" lon="-3.70974"><ele>2477</ele><speed>67</speed><time>2016-06-29T16:28:40Z</time><course>121</course><type>1</type></trkpt>
      <trkpt lat="41.68903" lon="-3.7095617"><ele>2476</ele><speed>62</speed><time>2016-06-29T16:28:41Z</time><course>122</course><type>1</type></trkpt>
      <trkpt lat="41.6888516" lon="-3.70922"><ele>2474</ele><speed>64</speed><time>2016-06-29T16:28:43Z</time><course>127</course><type>1</type></trkpt>
      <trkpt lat="41.6887516" lon="-3.709055"><ele>2472</ele><speed>63</speed><time>2016-06-29T16:28:44Z</time><course>129</course><type>1</type></trkpt>
      <trkpt lat="41.688565" lon="-3.708745"><ele>2470</ele><speed>56</speed><time>2016-06-29T16:28:46Z</time><course>127</course><type>1</type></trkpt>
      <trkpt lat="41.6883783" lon="-3.7084584"><ele>2468</ele><speed>56</speed><time>2016-06-29T16:28:48Z</time><course>132</course><type>1</type></trkpt>
      <trkpt lat="41.688165" lon="-3.708165"><ele>2465</ele><speed>63</speed><time>2016-06-29T16:28:50Z</time><course>133</course><type>1</type></trkpt>
      <trkpt lat="41.687965" lon="-3.70786"><ele>2463</ele><speed>58</speed><time>2016-06-29T16:28:52Z</time><course>128</course><type>1</type></trkpt>
      <trkpt lat="41.68778" lon="-3.70755"><ele>2461</ele><speed>60</speed><time>2016-06-29T16:28:54Z</time><course>130</course><type>1</type></trkpt>
      <trkpt lat="41.6875716" lon="-3.70723"><ele>2458</ele><speed>66</speed><time>2016-06-29T16:28:56Z</time><course>132</course><type>1</type></trkpt>
      <trkpt lat="41.6873483" lon="-3.70691"><ele>2456</ele><speed>66</speed><time>2016-06-29T16:28:58Z</time><course>132</course><type>1</type></trkpt>
      <trkpt lat="41.68724" lon="-3.7067617"><ele>2455</ele><speed>67</speed><time>2016-06-29T16:28:59Z</time><course>134</course><type>1</type></trkpt>
      <trkpt lat="41.6870316" lon="-3.70648"><ele>2453</ele><speed>59</speed><time>2016-06-29T16:29:01Z</time><course>134</course><type>1</type></trkpt>
      <trkpt lat="41.686925" lon="-3.7063417"><ele>2451</ele><speed>59</speed><time>2016-06-29T16:29:02Z</time><course>136</course><type>1</type></trkpt>
      <trkpt lat="41.6868166" lon="-3.706205"><ele>2450</ele><speed>61</speed><time>2016-06-29T16:29:03Z</time><course>136</course><type>1</type></trkpt>
      <trkpt lat="41.6866066" lon="-3.705925"><ele>2448</ele><speed>58</speed><time>2016-06-29T16:29:05Z</time><course>132</course><type>1</type></trkpt>
      <trkpt lat="41.686415" lon="-3.7056284"><ele>2445</ele><speed>59</speed><time>2016-06-29T16:29:07Z</time><course>130</course><type>1</type></trkpt>
      <trkpt lat="41.686205" lon="-3.7053334"><ele>2441</ele><speed>62</speed><time>2016-06-29T16:29:09Z</time><course>135</course><type>1</type></trkpt>
      <trkpt lat="41.6860933" lon="-3.7051884"><ele>2439</ele><speed>62</speed><time>2016-06-29T16:29:10Z</time><course>135</course><type>1</type></trkpt>
      <trkpt lat="41.6859883" lon="-3.7050434"><ele>2438</ele><speed>60</speed><time>2016-06-29T16:29:11Z</time><course>133</course><type>1</type></trkpt>
      <trkpt lat="41.685775" lon="-3.7047684"><ele>2435</ele><speed>57</speed><time>2016-06-29T16:29:13Z</time><course>136</course><type>1</type></trkpt>
      <trkpt lat="41.685565" lon="-3.7044967"><ele>2432</ele><speed>59</speed><time>2016-06-29T16:29:15Z</time><course>135</course><type>1</type></trkpt>
      <trkpt lat="41.6854583" lon="-3.7043534"><ele>2431</ele><speed>61</speed><time>2016-06-29T16:29:16Z</time><course>135</course><type>1</type></trkpt>
      <trkpt lat="41.6852466" lon="-3.7040784"><ele>2429</ele><speed>59</speed><time>2016-06-29T16:29:18Z</time><course>137</course><type>1</type></trkpt>
      <trkpt lat="41.6851383" lon="-3.70395"><ele>2427</ele><speed>57</speed><time>2016-06-29T16:29:19Z</time><course>139</course><type>1</type></trkpt>
      <trkpt lat="41.6850283" lon="-3.7038284"><ele>2426</ele><speed>57</speed><time>2016-06-29T16:29:20Z</time><course>140</course><type>1</type></trkpt>
      <trkpt lat="41.6848033" lon="-3.7035834"><ele>2423</ele><speed>58</speed><time>2016-06-29T16:29:22Z</time><course>140</course><type>1</type></trkpt>
      <trkpt lat="41.6845733" lon="-3.703335"><ele>2421</ele><speed>58</speed><time>2016-06-29T16:29:24Z</time><course>140</course><type>1</type></trkpt>
      <trkpt lat="41.6844583" lon="-3.7032167"><ele>2420</ele><speed>57</speed><time>2016-06-29T16:29:25Z</time><course>142</course><type>1</type></trkpt>
      <trkpt lat="41.6843416" lon="-3.7031"><ele>2419</ele><speed>58</speed><time>2016-06-29T16:29:26Z</time><course>143</course><type>1</type></trkpt>
      <trkpt lat="41.6841166" lon="-3.702865"><ele>2417</ele><speed>56</speed><time>2016-06-29T16:29:28Z</time><course>138</course><type>1</type></trkpt>
      <trkpt lat="41.6839116" lon="-3.7026217"><ele>2414</ele><speed>53</speed><time>2016-06-29T16:29:30Z</time><course>139</course><type>1</type></trkpt>
      <trkpt lat="41.68381" lon="-3.7025084"><ele>2412</ele><speed>53</speed><time>2016-06-29T16:29:31Z</time><course>141</course><type>1</type></trkpt>
      <trkpt lat="41.6837066" lon="-3.7023934"><ele>2411</ele><speed>54</speed><time>2016-06-29T16:29:32Z</time><course>138</course><type>1</type></trkpt>
      <trkpt lat="41.6835083" lon="-3.7021217"><ele>2408</ele><speed>58</speed><time>2016-06-29T16:29:34Z</time><course>132</course><type>1</type></trkpt>
      <trkpt lat="41.683305" lon="-3.701845"><ele>2405</ele><speed>57</speed><time>2016-06-29T16:29:36Z</time><course>137</course><type>1</type></trkpt>
      <trkpt lat="41.683095" lon="-3.7016084"><ele>2403</ele><speed>52</speed><time>2016-06-29T16:29:38Z</time><course>140</course><type>1</type></trkpt>
      <trkpt lat="41.6829" lon="-3.7013751"><ele>2401</ele><speed>51</speed><time>2016-06-29T16:29:40Z</time><course>134</course><type>1</type></trkpt>
      <trkpt lat="41.682805" lon="-3.7012584"><ele>2400</ele><speed>50</speed><time>2016-06-29T16:29:41Z</time><course>136</course><type>1</type></trkpt>
      <trkpt lat="41.6827099" lon="-3.7011467"><ele>2399</ele><speed>49</speed><time>2016-06-29T16:29:42Z</time><course>140</course><type>1</type></trkpt>
      <trkpt lat="41.6825066" lon="-3.7009484"><ele>2396</ele><speed>49</speed><time>2016-06-29T16:29:44Z</time><course>144</course><type>1</type></trkpt>
      <trkpt lat="41.682405" lon="-3.7008517"><ele>2394</ele><speed>49</speed><time>2016-06-29T16:29:45Z</time><course>142</course><type>1</type></trkpt>
      <trkpt lat="41.6822116" lon="-3.7006434"><ele>2391</ele><speed>49</speed><time>2016-06-29T16:29:47Z</time><course>140</course><type>1</type></trkpt>
      <trkpt lat="41.682115" lon="-3.700545"><ele>2389</ele><speed>49</speed><time>2016-06-29T16:29:48Z</time><course>144</course><type>1</type></trkpt>
      <trkpt lat="41.681915" lon="-3.7003434"><ele>2385</ele><speed>53</speed><time>2016-06-29T16:29:50Z</time><course>137</course><type>1</type></trkpt>
      <trkpt lat="41.6818216" lon="-3.7002151"><ele>2384</ele><speed>54</speed><time>2016-06-29T16:29:51Z</time><course>130</course><type>1</type></trkpt>
      <trkpt lat="41.68165" lon="-3.69996"><ele>2380</ele><speed>46</speed><time>2016-06-29T16:29:53Z</time><course>138</course><type>1</type></trkpt>
      <trkpt lat="41.681555" lon="-3.6998717"><ele>2378</ele><speed>45</speed><time>2016-06-29T16:29:54Z</time><course>150</course><type>1</type></trkpt>
      <trkpt lat="41.6813583" lon="-3.6996917"><ele>2374</ele><speed>51</speed><time>2016-06-29T16:29:56Z</time><course>137</course><type>1</type></trkpt>
      <trkpt lat="41.681185" lon="-3.6993984"><ele>2371</ele><speed>55</speed><time>2016-06-29T16:29:58Z</time><course>126</course><type>1</type></trkpt>
      <trkpt lat="41.6811" lon="-3.6992701"><ele>2370</ele><speed>46</speed><time>2016-06-29T16:29:59Z</time><course>136</course><type>1</type></trkpt>
      <trkpt lat="41.68101" lon="-3.6991784"><ele>2368</ele><speed>41</speed><time>2016-06-29T16:30:00Z</time><course>147</course><type>1</type></trkpt>
      <trkpt lat="41.680825" lon="-3.699025"><ele>2364</ele><speed>47</speed><time>2016-06-29T16:30:02Z</time><course>144</course><type>1</type></trkpt>
      <trkpt lat="41.6806416" lon="-3.6988084"><ele>2361</ele><speed>50</speed><time>2016-06-29T16:30:04Z</time><course>135</course><type>1</type></trkpt>
      <trkpt lat="41.6804666" lon="-3.6985967"><ele>2357</ele><speed>44</speed><time>2016-06-29T16:30:06Z</time><course>143</course><type>1</type></trkpt>
      <trkpt lat="41.6803733" lon="-3.6985184"><ele>2355</ele><speed>44</speed><time>2016-06-29T16:30:07Z</time><course>149</course><type>1</type></trkpt>
      <trkpt lat="41.6802766" lon="-3.69844"><ele>2353</ele><speed>45</speed><time>2016-06-29T16:30:08Z</time><course>147</course><type>1</type></trkpt>
      <trkpt lat="41.6800866" lon="-3.6982534"><ele>2351</ele><speed>49</speed><time>2016-06-29T16:30:10Z</time><course>140</course><type>1</type></trkpt>
      <trkpt lat="41.6798933" lon="-3.6980534"><ele>2348</ele><speed>48</speed><time>2016-06-29T16:30:12Z</time><course>143</course><type>1</type></trkpt>
      <trkpt lat="41.679795" lon="-3.697955"><ele>2346</ele><speed>51</speed><time>2016-06-29T16:30:13Z</time><course>143</course><type>1</type></trkpt>
      <trkpt lat="41.6795833" lon="-3.69774"><ele>2343</ele><speed>52</speed><time>2016-06-29T16:30:15Z</time><course>141</course><type>1</type></trkpt>
      <trkpt lat="41.6794833" lon="-3.6976417"><ele>2341</ele><speed>48</speed><time>2016-06-29T16:30:16Z</time><course>145</course><type>1</type></trkpt>
      <trkpt lat="41.6792816" lon="-3.697465"><ele>2338</ele><speed>47</speed><time>2016-06-29T16:30:18Z</time><course>147</course><type>1</type></trkpt>
      <trkpt lat="41.6791816" lon="-3.69738"><ele>2337</ele><speed>47</speed><time>2016-06-29T16:30:19Z</time><course>145</course><type>1</type></trkpt>
      <trkpt lat="41.67909" lon="-3.6972867"><ele>2335</ele><speed>45</speed><time>2016-06-29T16:30:20Z</time><course>141</course><type>1</type></trkpt>
      <trkpt lat="41.6789083" lon="-3.6970984"><ele>2333</ele><speed>46</speed><time>2016-06-29T16:30:22Z</time><course>141</course><type>1</type></trkpt>
      <trkpt lat="41.67872" lon="-3.6969284"><ele>2331</ele><speed>44</speed><time>2016-06-29T16:30:24Z</time><course>151</course><type>1</type></trkpt>
      <trkpt lat="41.67863" lon="-3.696855"><ele>2331</ele><speed>41</speed><time>2016-06-29T16:30:25Z</time><course>148</course><type>1</type></trkpt>
      <trkpt lat="41.6785533" lon="-3.6967767"><ele>2331</ele><speed>38</speed><time>2016-06-29T16:30:26Z</time><course>141</course><type>1</type></trkpt>
      <trkpt lat="41.6784066" lon="-3.69662"><ele>2328</ele><speed>37</speed><time>2016-06-29T16:30:28Z</time><course>142</course><type>1</type></trkpt>
      <trkpt lat="41.678245" lon="-3.6964667"><ele>2326</ele><speed>42</speed><time>2016-06-29T16:30:30Z</time><course>143</course><type>1</type></trkpt>
      <trkpt lat="41.6781566" lon="-3.696375"><ele>2324</ele><speed>46</speed><time>2016-06-29T16:30:31Z</time><course>141</course><type>1</type></trkpt>
      <trkpt lat="41.6780666" lon="-3.6962751"><ele>2323</ele><speed>47</speed><time>2016-06-29T16:30:32Z</time><course>138</course><type>1</type></trkpt>
      <trkpt lat="41.677895" lon="-3.6960667"><ele>2321</ele><speed>44</speed><time>2016-06-29T16:30:34Z</time><course>136</course><type>1</type></trkpt>
      <trkpt lat="41.6777266" lon="-3.6958617"><ele>2318</ele><speed>46</speed><time>2016-06-29T16:30:36Z</time><course>136</course><type>1</type></trkpt>
      <trkpt lat="41.6775533" lon="-3.6956367"><ele>2315</ele><speed>50</speed><time>2016-06-29T16:30:38Z</time><course>135</course><type>1</type></trkpt>
      <trkpt lat="41.6773666" lon="-3.6954217"><ele>2312</ele><speed>47</speed><time>2016-06-29T16:30:40Z</time><course>143</course><type>1</type></trkpt>
      <trkpt lat="41.6772733" lon="-3.6953317"><ele>2310</ele><speed>45</speed><time>2016-06-29T16:30:41Z</time><course>144</course><type>1</type></trkpt>
      <trkpt lat="41.6770916" lon="-3.695155"><ele>2306</ele><speed>44</speed><time>2016-06-29T16:30:43Z</time><course>142</course><type>1</type></trkpt>
      <trkpt lat="41.6770033" lon="-3.6950601"><ele>2304</ele><speed>46</speed><time>2016-06-29T16:30:44Z</time><course>140</course><type>1</type></trkpt>
      <trkpt lat="41.6769133" lon="-3.6949567"><ele>2303</ele><speed>48</speed><time>2016-06-29T16:30:45Z</time><course>138</course><type>1</type></trkpt>
      <trkpt lat="41.6767333" lon="-3.694745"><ele>2300</ele><speed>48</speed><time>2016-06-29T16:30:47Z</time><course>137</course><type>1</type></trkpt>
      <trkpt lat="41.6765533" lon="-3.694515"><ele>2296</ele><speed>50</speed><time>2016-06-29T16:30:49Z</time><course>134</course><type>1</type></trkpt>
      <trkpt lat="41.6764633" lon="-3.6943917"><ele>2294</ele><speed>52</speed><time>2016-06-29T16:30:50Z</time><course>133</course><type>1</type></trkpt>
      <trkpt lat="41.6762866" lon="-3.6941267"><ele>2291</ele><speed>52</speed><time>2016-06-29T16:30:52Z</time><course>131</course><type>1</type></trkpt>
      <trkpt lat="41.6761133" lon="-3.6938717"><ele>2288</ele><speed>52</speed><time>2016-06-29T16:30:54Z</time><course>134</course><type>1</type></trkpt>
      <trkpt lat="41.6759333" lon="-3.693645"><ele>2285</ele><speed>50</speed><time>2016-06-29T16:30:56Z</time><course>137</course><type>1</type></trkpt>
      <trkpt lat="41.6757433" lon="-3.6934184"><ele>2281</ele><speed>51</speed><time>2016-06-29T16:30:58Z</time><course>136</course><type>1</type></trkpt>
      <trkpt lat="41.67556" lon="-3.6931817"><ele>2277</ele><speed>50</speed><time>2016-06-29T16:31:00Z</time><course>138</course><type>1</type></trkpt>
      <trkpt lat="41.675465" lon="-3.693075"><ele>2275</ele><speed>50</speed><time>2016-06-29T16:31:01Z</time><course>141</course><type>1</type></trkpt>
      <trkpt lat="41.6752716" lon="-3.6928784"><ele>2271</ele><speed>48</speed><time>2016-06-29T16:31:03Z</time><course>143</course><type>1</type></trkpt>
      <trkpt lat="41.6751699" lon="-3.69278"><ele>2269</ele><speed>52</speed><time>2016-06-29T16:31:04Z</time><course>142</course><type>1</type></trkpt>
      <trkpt lat="41.6749666" lon="-3.6925384"><ele>2265</ele><speed>56</speed><time>2016-06-29T16:31:06Z</time><course>137</course><type>1</type></trkpt>
      <trkpt lat="41.674865" lon="-3.6924184"><ele>2264</ele><speed>52</speed><time>2016-06-29T16:31:07Z</time><course>140</course><type>1</type></trkpt>
      <trkpt lat="41.6746666" lon="-3.6922184"><ele>2261</ele><speed>48</speed><time>2016-06-29T16:31:09Z</time><course>145</course><type>1</type></trkpt>
      <trkpt lat="41.6745666" lon="-3.692125"><ele>2259</ele><speed>49</speed><time>2016-06-29T16:31:10Z</time><course>145</course><type>1</type></trkpt>
      <trkpt lat="41.6743566" lon="-3.6919334"><ele>2256</ele><speed>52</speed><time>2016-06-29T16:31:12Z</time><course>144</course><type>1</type></trkpt>
      <trkpt lat="41.6741533" lon="-3.6917334"><ele>2253</ele><speed>47</speed><time>2016-06-29T16:31:14Z</time><course>142</course><type>1</type></trkpt>
      <trkpt lat="41.6739833" lon="-3.6915367"><ele>2250</ele><speed>44</speed><time>2016-06-29T16:31:16Z</time><course>137</course><type>1</type></trkpt>
      <trkpt lat="41.6738016" lon="-3.691315"><ele>2246</ele><speed>45</speed><time>2016-06-29T16:31:18Z</time><course>139</course><type>1</type></trkpt>
      <trkpt lat="41.6737016" lon="-3.6912034"><ele>2245</ele><speed>53</speed><time>2016-06-29T16:31:19Z</time><course>141</course><type>1</type></trkpt>
      <trkpt lat="41.6736016" lon="-3.6910984"><ele>2243</ele><speed>49</speed><time>2016-06-29T16:31:20Z</time><course>143</course><type>1</type></trkpt>
      <trkpt lat="41.6734166" lon="-3.690935"><ele>2240</ele><speed>41</speed><time>2016-06-29T16:31:22Z</time><course>148</course><type>1</type></trkpt>
      <trkpt lat="41.67333" lon="-3.6908584"><ele>2239</ele><speed>41</speed><time>2016-06-29T16:31:23Z</time><course>145</course><type>1</type></trkpt>
      <trkpt lat="41.673165" lon="-3.6906834"><ele>2237</ele><speed>43</speed><time>2016-06-29T16:31:25Z</time><course>139</course><type>1</type></trkpt>
      <trkpt lat="41.6730833" lon="-3.6905934"><ele>2235</ele><speed>41</speed><time>2016-06-29T16:31:26Z</time><course>142</course><type>1</type></trkpt>
      <trkpt lat="41.67291" lon="-3.6904517"><ele>2232</ele><speed>39</speed><time>2016-06-29T16:31:28Z</time><course>152</course><type>1</type></trkpt>
      <trkpt lat="41.6728216" lon="-3.690385"><ele>2231</ele><speed>40</speed><time>2016-06-29T16:31:29Z</time><course>149</course><type>1</type></trkpt>
      <trkpt lat="41.6726566" lon="-3.6902317"><ele>2229</ele><speed>37</speed><time>2016-06-29T16:31:31Z</time><course>145</course><type>1</type></trkpt>
      <trkpt lat="41.6724983" lon="-3.690135"><ele>2225</ele><speed>34</speed><time>2016-06-29T16:31:33Z</time><course>161</course><type>1</type></trkpt>
      <trkpt lat="41.6724116" lon="-3.6900934"><ele>2224</ele><speed>38</speed><time>2016-06-29T16:31:34Z</time><course>158</course><type>1</type></trkpt>
      <trkpt lat="41.672305" lon="-3.6900084"><ele>2221</ele><speed>51</speed><time>2016-06-29T16:31:35Z</time><course>147</course><type>1</type></trkpt>
      <trkpt lat="41.6721033" lon="-3.6897867"><ele>2219</ele><speed>50</speed><time>2016-06-29T16:31:37Z</time><course>138</course><type>1</type></trkpt>
      <trkpt lat="41.6719249" lon="-3.689595"><ele>2217</ele><speed>43</speed><time>2016-06-29T16:31:39Z</time><course>141</course><type>1</type></trkpt>
      <trkpt lat="41.6717383" lon="-3.6893934"><ele>2214</ele><speed>53</speed><time>2016-06-29T16:31:41Z</time><course>141</course><type>1</type></trkpt>
      <trkpt lat="41.67163" lon="-3.6892767"><ele>2213</ele><speed>57</speed><time>2016-06-29T16:31:42Z</time><course>141</course><type>1</type></trkpt>
      <trkpt lat="41.6715183" lon="-3.6891634"><ele>2212</ele><speed>55</speed><time>2016-06-29T16:31:43Z</time><course>143</course><type>1</type></trkpt>
      <trkpt lat="41.6714166" lon="-3.6890601"><ele>2212</ele><speed>57</speed><time>2016-06-29T16:31:44Z</time><course>142</course><type>1</type></trkpt>
      <trkpt lat="41.67123" lon="-3.688855"><ele>2210</ele><speed>48</speed><time>2016-06-29T16:31:46Z</time><course>137</course><type>1</type></trkpt>
      <trkpt lat="41.6711383" lon="-3.68874"><ele>2209</ele><speed>52</speed><time>2016-06-29T16:31:47Z</time><course>136</course><type>1</type></trkpt>
      <trkpt lat="41.6709333" lon="-3.6884884"><ele>2206</ele><speed>57</speed><time>2016-06-29T16:31:49Z</time><course>139</course><type>1</type></trkpt>
      <trkpt lat="41.670825" lon="-3.6883667"><ele>2205</ele><speed>55</speed><time>2016-06-29T16:31:50Z</time><course>139</course><type>1</type></trkpt>
      <trkpt lat="41.6706333" lon="-3.6881217"><ele>2204</ele><speed>52</speed><time>2016-06-29T16:31:52Z</time><course>131</course><type>1</type></trkpt>
      <trkpt lat="41.6704566" lon="-3.687835"><ele>2201</ele><speed>59</speed><time>2016-06-29T16:31:54Z</time><course>128</course><type>1</type></trkpt>
      <trkpt lat="41.6702616" lon="-3.6875417"><ele>2198</ele><speed>59</speed><time>2016-06-29T16:31:56Z</time><course>134</course><type>1</type></trkpt>
      <trkpt lat="41.6700766" lon="-3.68726"><ele>2197</ele><speed>54</speed><time>2016-06-29T16:31:58Z</time><course>124</course><type>1</type></trkpt>
      <trkpt lat="41.6699483" lon="-3.6869084"><ele>2194</ele><speed>64</speed><time>2016-06-29T16:32:00Z</time><course>110</course><type>1</type></trkpt>
      <trkpt lat="41.669845" lon="-3.6864884"><ele>2192</ele><speed>67</speed><time>2016-06-29T16:32:02Z</time><course>107</course><type>1</type></trkpt>
      <trkpt lat="41.6697533" lon="-3.6860584"><ele>2190</ele><speed>70</speed><time>2016-06-29T16:32:04Z</time><course>105</course><type>1</type></trkpt>
      <trkpt lat="41.6696683" lon="-3.6856217"><ele>2186</ele><speed>67</speed><time>2016-06-29T16:32:06Z</time><course>103</course><type>1</type></trkpt>
      <trkpt lat="41.6695933" lon="-3.68518"><ele>2183</ele><speed>69</speed><time>2016-06-29T16:32:08Z</time><course>102</course><type>1</type></trkpt>
      <trkpt lat="41.6695583" lon="-3.6849484"><ele>2181</ele><speed>71</speed><time>2016-06-29T16:32:09Z</time><course>101</course><type>1</type></trkpt>
      <trkpt lat="41.6694933" lon="-3.6845034"><ele>2178</ele><speed>69</speed><time>2016-06-29T16:32:11Z</time><course>101</course><type>1</type></trkpt>
      <trkpt lat="41.6694633" lon="-3.68429"><ele>2177</ele><speed>64</speed><time>2016-06-29T16:32:12Z</time><course>100</course><type>1</type></trkpt>
      <trkpt lat="41.6693883" lon="-3.68385"><ele>2173</ele><speed>69</speed><time>2016-06-29T16:32:14Z</time><course>104</course><type>1</type></trkpt>
      <trkpt lat="41.6693083" lon="-3.6834134"><ele>2170</ele><speed>66</speed><time>2016-06-29T16:32:16Z</time><course>102</course><type>1</type></trkpt>
      <trkpt lat="41.6692733" lon="-3.6831967"><ele>2169</ele><speed>66</speed><time>2016-06-29T16:32:17Z</time><course>102</course><type>1</type></trkpt>
      <trkpt lat="41.6692383" lon="-3.6829767"><ele>2168</ele><speed>66</speed><time>2016-06-29T16:32:18Z</time><course>102</course><type>1</type></trkpt>
      <trkpt lat="41.66916" lon="-3.6825317"><ele>2166</ele><speed>67</speed><time>2016-06-29T16:32:20Z</time><course>103</course><type>1</type></trkpt>
      <trkpt lat="41.66912" lon="-3.6823117"><ele>2165</ele><speed>66</speed><time>2016-06-29T16:32:21Z</time><course>102</course><type>1</type></trkpt>
      <trkpt lat="41.6690616" lon="-3.68189"><ele>2162</ele><speed>63</speed><time>2016-06-29T16:32:23Z</time><course>98</course><type>1</type></trkpt>
      <trkpt lat="41.6690416" lon="-3.6816784"><ele>2161</ele><speed>63</speed><time>2016-06-29T16:32:24Z</time><course>97</course><type>1</type></trkpt>
      <trkpt lat="41.6689983" lon="-3.6812367"><ele>2158</ele><speed>68</speed><time>2016-06-29T16:32:26Z</time><course>96</course><type>1</type></trkpt>
      <trkpt lat="41.6689716" lon="-3.6807867"><ele>2153</ele><speed>70</speed><time>2016-06-29T16:32:28Z</time><course>94</course><type>1</type></trkpt>
      <trkpt lat="41.6689433" lon="-3.6803334"><ele>2150</ele><speed>65</speed><time>2016-06-29T16:32:30Z</time><course>96</course><type>1</type></trkpt>
      <trkpt lat="41.6689066" lon="-3.6798967"><ele>2145</ele><speed>66</speed><time>2016-06-29T16:32:32Z</time><course>95</course><type>1</type></trkpt>
      <trkpt lat="41.66888" lon="-3.6794367"><ele>2140</ele><speed>70</speed><time>2016-06-29T16:32:34Z</time><course>92</course><type>1</type></trkpt>
      <trkpt lat="41.668865" lon="-3.678975"><ele>2137</ele><speed>69</speed><time>2016-06-29T16:32:36Z</time><course>93</course><type>1</type></trkpt>
      <trkpt lat="41.668855" lon="-3.6787517"><ele>2135</ele><speed>68</speed><time>2016-06-29T16:32:37Z</time><course>93</course><type>1</type></trkpt>
      <trkpt lat="41.6688316" lon="-3.6782917"><ele>2131</ele><speed>70</speed><time>2016-06-29T16:32:39Z</time><course>94</course><type>1</type></trkpt>
      <trkpt lat="41.66882" lon="-3.67807"><ele>2130</ele><speed>66</speed><time>2016-06-29T16:32:40Z</time><course>94</course><type>1</type></trkpt>
      <trkpt lat="41.6687849" lon="-3.6776267"><ele>2126</ele><speed>65</speed><time>2016-06-29T16:32:42Z</time><course>95</course><type>1</type></trkpt>
      <trkpt lat="41.66877" lon="-3.677405"><ele>2124</ele><speed>68</speed><time>2016-06-29T16:32:43Z</time><course>95</course><type>1</type></trkpt>
      <trkpt lat="41.66875" lon="-3.677165"><ele>2122</ele><speed>72</speed><time>2016-06-29T16:32:44Z</time><course>95</course><type>1</type></trkpt>
      <trkpt lat="41.66871" lon="-3.6766684"><ele>2117</ele><speed>72</speed><time>2016-06-29T16:32:46Z</time><course>96</course><type>1</type></trkpt>
      <trkpt lat="41.6686666" lon="-3.6762117"><ele>2115</ele><speed>64</speed><time>2016-06-29T16:32:48Z</time><course>96</course><type>1</type></trkpt>
      <trkpt lat="41.6686466" lon="-3.6759934"><ele>2113</ele><speed>66</speed><time>2016-06-29T16:32:49Z</time><course>96</course><type>1</type></trkpt>
      <trkpt lat="41.6686283" lon="-3.6757684"><ele>2110</ele><speed>68</speed><time>2016-06-29T16:32:50Z</time><course>95</course><type>1</type></trkpt>
      <trkpt lat="41.6685916" lon="-3.6753234"><ele>2106</ele><speed>66</speed><time>2016-06-29T16:32:52Z</time><course>98</course><type>1</type></trkpt>
      <trkpt lat="41.6685683" lon="-3.6751117"><ele>2104</ele><speed>65</speed><time>2016-06-29T16:32:53Z</time><course>99</course><type>1</type></trkpt>
      <trkpt lat="41.6685183" lon="-3.674675"><ele>2099</ele><speed>69</speed><time>2016-06-29T16:32:55Z</time><course>97</course><type>1</type></trkpt>
      <trkpt lat="41.6684983" lon="-3.6744417"><ele>2097</ele><speed>72</speed><time>2016-06-29T16:32:56Z</time><course>96</course><type>1</type></trkpt>
      <trkpt lat="41.6684816" lon="-3.6742067"><ele>2095</ele><speed>71</speed><time>2016-06-29T16:32:57Z</time><course>95</course><type>1</type></trkpt>
      <trkpt lat="41.6684366" lon="-3.6737684"><ele>2091</ele><speed>63</speed><time>2016-06-29T16:32:59Z</time><course>100</course><type>1</type></trkpt>
      <trkpt lat="41.668405" lon="-3.6735634"><ele>2089</ele><speed>62</speed><time>2016-06-29T16:33:00Z</time><course>101</course><type>1</type></trkpt>
      <trkpt lat="41.6683516" lon="-3.6731317"><ele>2086</ele><speed>69</speed><time>2016-06-29T16:33:02Z</time><course>98</course><type>1</type></trkpt>
      <trkpt lat="41.6683016" lon="-3.6726834"><ele>2080</ele><speed>68</speed><time>2016-06-29T16:33:04Z</time><course>101</course><type>1</type></trkpt>
      <trkpt lat="41.668265" lon="-3.672465"><ele>2078</ele><speed>66</speed><time>2016-06-29T16:33:05Z</time><course>103</course><type>1</type></trkpt>
      <trkpt lat="41.6681866" lon="-3.6720534"><ele>2073</ele><speed>65</speed><time>2016-06-29T16:33:07Z</time><course>103</course><type>1</type></trkpt>
      <trkpt lat="41.6681533" lon="-3.6718417"><ele>2070</ele><speed>67</speed><time>2016-06-29T16:33:08Z</time><course>102</course><type>1</type></trkpt>
      <trkpt lat="41.6680916" lon="-3.671415"><ele>2065</ele><speed>64</speed><time>2016-06-29T16:33:10Z</time><course>100</course><type>1</type></trkpt>
      <trkpt lat="41.6680649" lon="-3.6712034"><ele>2063</ele><speed>66</speed><time>2016-06-29T16:33:11Z</time><course>100</course><type>1</type></trkpt>
      <trkpt lat="41.668" lon="-3.670755"><ele>2058</ele><speed>72</speed><time>2016-06-29T16:33:13Z</time><course>101</course><type>1</type></trkpt>
      <trkpt lat="41.667965" lon="-3.6705267"><ele>2054</ele><speed>72</speed><time>2016-06-29T16:33:14Z</time><course>102</course><type>1</type></trkpt>
      <trkpt lat="41.6678883" lon="-3.670055"><ele>2048</ele><speed>72</speed><time>2016-06-29T16:33:16Z</time><course>101</course><type>1</type></trkpt>
      <trkpt lat="41.6678583" lon="-3.6698167"><ele>2046</ele><speed>71</speed><time>2016-06-29T16:33:17Z</time><course>98</course><type>1</type></trkpt>
      <trkpt lat="41.6678333" lon="-3.6693467"><ele>2041</ele><speed>70</speed><time>2016-06-29T16:33:19Z</time><course>91</course><type>1</type></trkpt>
      <trkpt lat="41.6678316" lon="-3.6688617"><ele>2037</ele><speed>71</speed><time>2016-06-29T16:33:21Z</time><course>90</course><type>1</type></trkpt>
      <trkpt lat="41.6678466" lon="-3.66837"><ele>2032</ele><speed>73</speed><time>2016-06-29T16:33:23Z</time><course>85</course><type>1</type></trkpt>
      <trkpt lat="41.6678783" lon="-3.66789"><ele>2028</ele><speed>70</speed><time>2016-06-29T16:33:25Z</time><course>83</course><type>1</type></trkpt>
      <trkpt lat="41.6679" lon="-3.6676567"><ele>2026</ele><speed>70</speed><time>2016-06-29T16:33:26Z</time><course>82</course><type>1</type></trkpt>
      <trkpt lat="41.667925" lon="-3.6674234"><ele>2024</ele><speed>70</speed><time>2016-06-29T16:33:27Z</time><course>81</course><type>1</type></trkpt>
      <trkpt lat="41.66795" lon="-3.66719"><ele>2021</ele><speed>70</speed><time>2016-06-29T16:33:28Z</time><course>82</course><type>1</type></trkpt>
      <trkpt lat="41.6679733" lon="-3.6669517"><ele>2019</ele><speed>71</speed><time>2016-06-29T16:33:29Z</time><course>81</course><type>1</type></trkpt>
      <trkpt lat="41.668035" lon="-3.6664867"><ele>2015</ele><speed>69</speed><time>2016-06-29T16:33:31Z</time><course>77</course><type>1</type></trkpt>
      <trkpt lat="41.6680733" lon="-3.6662634"><ele>2013</ele><speed>68</speed><time>2016-06-29T16:33:32Z</time><course>76</course><type>1</type></trkpt>
      <trkpt lat="41.6681533" lon="-3.6658167"><ele>2009</ele><speed>68</speed><time>2016-06-29T16:33:34Z</time><course>77</course><type>1</type></trkpt>
      <trkpt lat="41.66819" lon="-3.6655917"><ele>2009</ele><speed>69</speed><time>2016-06-29T16:33:35Z</time><course>76</course><type>1</type></trkpt>
      <trkpt lat="41.6682766" lon="-3.66514"><ele>2006</ele><speed>70</speed><time>2016-06-29T16:33:37Z</time><course>75</course><type>1</type></trkpt>
      <trkpt lat="41.66832" lon="-3.6649117"><ele>2004</ele><speed>70</speed><time>2016-06-29T16:33:38Z</time><course>76</course><type>1</type></trkpt>
      <trkpt lat="41.6683983" lon="-3.6644467"><ele>2002</ele><speed>72</speed><time>2016-06-29T16:33:40Z</time><course>78</course><type>1</type></trkpt>
      <trkpt lat="41.6684383" lon="-3.6642134"><ele>2000</ele><speed>70</speed><time>2016-06-29T16:33:41Z</time><course>77</course><type>1</type></trkpt>
      <trkpt lat="41.6685333" lon="-3.6637634"><ele>1997</ele><speed>70</speed><time>2016-06-29T16:33:43Z</time><course>73</course><type>1</type></trkpt>
      <trkpt lat="41.6686316" lon="-3.6633034"><ele>1993</ele><speed>71</speed><time>2016-06-29T16:33:45Z</time><course>76</course><type>1</type></trkpt>
      <trkpt lat="41.6687016" lon="-3.66284"><ele>1990</ele><speed>70</speed><time>2016-06-29T16:33:47Z</time><course>79</course><type>1</type></trkpt>
      <trkpt lat="41.6687816" lon="-3.6623867"><ele>1985</ele><speed>70</speed><time>2016-06-29T16:33:49Z</time><course>76</course><type>1</type></trkpt>
      <trkpt lat="41.6688749" lon="-3.6619284"><ele>1979</ele><speed>72</speed><time>2016-06-29T16:33:51Z</time><course>74</course><type>1</type></trkpt>
      <trkpt lat="41.6689716" lon="-3.6614684"><ele>1976</ele><speed>72</speed><time>2016-06-29T16:33:53Z</time><course>75</course><type>1</type></trkpt>
      <trkpt lat="41.6690183" lon="-3.6612384"><ele>1974</ele><speed>71</speed><time>2016-06-29T16:33:54Z</time><course>75</course><type>1</type></trkpt>
      <trkpt lat="41.6691116" lon="-3.66079"><ele>1967</ele><speed>69</speed><time>2016-06-29T16:33:56Z</time><course>75</course><type>1</type></trkpt>
      <trkpt lat="41.6692" lon="-3.66034"><ele>1963</ele><speed>71</speed><time>2016-06-29T16:33:58Z</time><course>75</course><type>1</type></trkpt>
      <trkpt lat="41.6692416" lon="-3.66011"><ele>1961</ele><speed>70</speed><time>2016-06-29T16:33:59Z</time><course>76</course><type>1</type></trkpt>
      <trkpt lat="41.6693316" lon="-3.6596484"><ele>1957</ele><speed>71</speed><time>2016-06-29T16:34:01Z</time><course>75</course><type>1</type></trkpt>
      <trkpt lat="41.669375" lon="-3.6594117"><ele>1954</ele><speed>72</speed><time>2016-06-29T16:34:02Z</time><course>77</course><type>1</type></trkpt>
      <trkpt lat="41.6694483" lon="-3.658925"><ele>1949</ele><speed>74</speed><time>2016-06-29T16:34:04Z</time><course>79</course><type>1</type></trkpt>
      <trkpt lat="41.66948" lon="-3.6586817"><ele>1946</ele><speed>72</speed><time>2016-06-29T16:34:05Z</time><course>81</course><type>1</type></trkpt>
      <trkpt lat="41.66954" lon="-3.6581967"><ele>1937</ele><speed>75</speed><time>2016-06-29T16:34:07Z</time><course>80</course><type>1</type></trkpt>
      <trkpt lat="41.669575" lon="-3.6579417"><ele>1931</ele><speed>79</speed><time>2016-06-29T16:34:08Z</time><course>79</course><type>1</type></trkpt>
      <trkpt lat="41.6696566" lon="-3.6574151"><ele>1923</ele><speed>81</speed><time>2016-06-29T16:34:10Z</time><course>76</course><type>1</type></trkpt>
      <trkpt lat="41.6697033" lon="-3.6571567"><ele>1920</ele><speed>77</speed><time>2016-06-29T16:34:11Z</time><course>76</course><type>1</type></trkpt>
      <trkpt lat="41.669745" lon="-3.65691"><ele>1917</ele><speed>74</speed><time>2016-06-29T16:34:12Z</time><course>77</course><type>1</type></trkpt>
      <trkpt lat="41.6698216" lon="-3.6564134"><ele>1912</ele><speed>77</speed><time>2016-06-29T16:34:14Z</time><course>78</course><type>1</type></trkpt>
      <trkpt lat="41.6699083" lon="-3.6559017"><ele>1907</ele><speed>80</speed><time>2016-06-29T16:34:16Z</time><course>75</course><type>1</type></trkpt>
      <trkpt lat="41.6699616" lon="-3.6556417"><ele>1905</ele><speed>81</speed><time>2016-06-29T16:34:17Z</time><course>73</course><type>1</type></trkpt>
      <trkpt lat="41.670025" lon="-3.6553917"><ele>1903</ele><speed>78</speed><time>2016-06-29T16:34:18Z</time><course>71</course><type>1</type></trkpt>
      <trkpt lat="41.6701483" lon="-3.6549217"><ele>1898</ele><speed>73</speed><time>2016-06-29T16:34:20Z</time><course>71</course><type>1</type></trkpt>
      <trkpt lat="41.670205" lon="-3.6546917"><ele>1896</ele><speed>74</speed><time>2016-06-29T16:34:21Z</time><course>72</course><type>1</type></trkpt>
      <trkpt lat="41.6703183" lon="-3.654235"><ele>1893</ele><speed>71</speed><time>2016-06-29T16:34:23Z</time><course>70</course><type>1</type></trkpt>
      <trkpt lat="41.670375" lon="-3.6540134"><ele>1891</ele><speed>70</speed><time>2016-06-29T16:34:24Z</time><course>72</course><type>1</type></trkpt>
      <trkpt lat="41.6704283" lon="-3.6537934"><ele>1889</ele><speed>68</speed><time>2016-06-29T16:34:25Z</time><course>71</course><type>1</type></trkpt>
      <trkpt lat="41.6705333" lon="-3.6533534"><ele>1885</ele><speed>72</speed><time>2016-06-29T16:34:27Z</time><course>73</course><type>1</type></trkpt>
      <trkpt lat="41.6706483" lon="-3.6528817"><ele>1881</ele><speed>75</speed><time>2016-06-29T16:34:29Z</time><course>73</course><type>1</type></trkpt>
      <trkpt lat="41.6706983" lon="-3.6526467"><ele>1880</ele><speed>74</speed><time>2016-06-29T16:34:30Z</time><course>74</course><type>1</type></trkpt>
      <trkpt lat="41.670785" lon="-3.65221"><ele>1877</ele><speed>65</speed><time>2016-06-29T16:34:32Z</time><course>76</course><type>1</type></trkpt>
      <trkpt lat="41.6708233" lon="-3.6519967"><ele>1875</ele><speed>66</speed><time>2016-06-29T16:34:33Z</time><course>77</course><type>1</type></trkpt>
      <trkpt lat="41.6708966" lon="-3.6515434"><ele>1870</ele><speed>72</speed><time>2016-06-29T16:34:35Z</time><course>76</course><type>1</type></trkpt>
      <trkpt lat="41.67094" lon="-3.65131"><ele>1869</ele><speed>73</speed><time>2016-06-29T16:34:36Z</time><course>76</course><type>1</type></trkpt>
      <trkpt lat="41.670985" lon="-3.6510784"><ele>1867</ele><speed>70</speed><time>2016-06-29T16:34:37Z</time><course>75</course><type>1</type></trkpt>
      <trkpt lat="41.6710283" lon="-3.6508534"><ele>1866</ele><speed>72</speed><time>2016-06-29T16:34:38Z</time><course>75</course><type>1</type></trkpt>
      <trkpt lat="41.6711116" lon="-3.6504217"><ele>1865</ele><speed>66</speed><time>2016-06-29T16:34:40Z</time><course>76</course><type>1</type></trkpt>
      <trkpt lat="41.6711516" lon="-3.650215"><ele>1864</ele><speed>64</speed><time>2016-06-29T16:34:41Z</time><course>75</course><type>1</type></trkpt>
      <trkpt lat="41.6712416" lon="-3.649815"><ele>1861</ele><speed>62</speed><time>2016-06-29T16:34:43Z</time><course>72</course><type>1</type></trkpt>
      <trkpt lat="41.6712933" lon="-3.64961"><ele>1859</ele><speed>64</speed><time>2016-06-29T16:34:44Z</time><course>70</course><type>1</type></trkpt>
      <trkpt lat="41.6713516" lon="-3.6494084"><ele>1858</ele><speed>64</speed><time>2016-06-29T16:34:45Z</time><course>68</course><type>1</type></trkpt>
      <trkpt lat="41.6714683" lon="-3.6490117"><ele>1856</ele><speed>62</speed><time>2016-06-29T16:34:47Z</time><course>68</course><type>1</type></trkpt>
      <trkpt lat="41.6715266" lon="-3.6488184"><ele>1856</ele><speed>64</speed><time>2016-06-29T16:34:48Z</time><course>68</course><type>1</type></trkpt>
      <trkpt lat="41.67165" lon="-3.6484434"><ele>1853</ele><speed>61</speed><time>2016-06-29T16:34:50Z</time><course>65</course><type>1</type></trkpt>
      <trkpt lat="41.6717899" lon="-3.648065"><ele>1851</ele><speed>63</speed><time>2016-06-29T16:34:52Z</time><course>63</course><type>1</type></trkpt>
      <trkpt lat="41.6719249" lon="-3.6476884"><ele>1849</ele><speed>62</speed><time>2016-06-29T16:34:54Z</time><course>64</course><type>1</type></trkpt>
      <trkpt lat="41.6720566" lon="-3.6473167"><ele>1847</ele><speed>61</speed><time>2016-06-29T16:34:56Z</time><course>65</course><type>1</type></trkpt>
      <trkpt lat="41.67218" lon="-3.6469317"><ele>1844</ele><speed>64</speed><time>2016-06-29T16:34:58Z</time><course>66</course><type>1</type></trkpt>
      <trkpt lat="41.6723066" lon="-3.64654"><ele>1841</ele><speed>63</speed><time>2016-06-29T16:35:00Z</time><course>66</course><type>1</type></trkpt>
      <trkpt lat="41.6723733" lon="-3.6463467"><ele>1839</ele><speed>64</speed><time>2016-06-29T16:35:01Z</time><course>65</course><type>1</type></trkpt>
      <trkpt lat="41.67251" lon="-3.6459517"><ele>1835</ele><speed>67</speed><time>2016-06-29T16:35:03Z</time><course>65</course><type>1</type></trkpt>
      <trkpt lat="41.6725783" lon="-3.6457467"><ele>1833</ele><speed>67</speed><time>2016-06-29T16:35:04Z</time><course>65</course><type>1</type></trkpt>
      <trkpt lat="41.6726483" lon="-3.6455417"><ele>1832</ele><speed>67</speed><time>2016-06-29T16:35:05Z</time><course>65</course><type>1</type></trkpt>
      <trkpt lat="41.6727766" lon="-3.6451334"><ele>1830</ele><speed>65</speed><time>2016-06-29T16:35:07Z</time><course>68</course><type>1</type></trkpt>
      <trkpt lat="41.6728366" lon="-3.64493"><ele>1828</ele><speed>66</speed><time>2016-06-29T16:35:08Z</time><course>69</course><type>1</type></trkpt>
      <trkpt lat="41.67296" lon="-3.6445134"><ele>1827</ele><speed>67</speed><time>2016-06-29T16:35:10Z</time><course>67</course><type>1</type></trkpt>
      <trkpt lat="41.6730816" lon="-3.6441267"><ele>1825</ele><speed>59</speed><time>2016-06-29T16:35:12Z</time><course>67</course><type>1</type></trkpt>
      <trkpt lat="41.67314" lon="-3.6439417"><ele>1824</ele><speed>60</speed><time>2016-06-29T16:35:13Z</time><course>67</course><type>1</type></trkpt>
      <trkpt lat="41.673265" lon="-3.6435417"><ele>1821</ele><speed>67</speed><time>2016-06-29T16:35:15Z</time><course>67</course><type>1</type></trkpt>
      <trkpt lat="41.673375" lon="-3.6431267"><ele>1819</ele><speed>63</speed><time>2016-06-29T16:35:17Z</time><course>73</course><type>1</type></trkpt>
      <trkpt lat="41.6734166" lon="-3.64293"><ele>1818</ele><speed>58</speed><time>2016-06-29T16:35:18Z</time><course>74</course><type>1</type></trkpt>
      <trkpt lat="41.6735066" lon="-3.6425567"><ele>1813</ele><speed>61</speed><time>2016-06-29T16:35:20Z</time><course>70</course><type>1</type></trkpt>
      <trkpt lat="41.6736183" lon="-3.642155"><ele>1810</ele><speed>64</speed><time>2016-06-29T16:35:22Z</time><course>69</course><type>1</type></trkpt>
      <trkpt lat="41.6737216" lon="-3.6417784"><ele>1808</ele><speed>57</speed><time>2016-06-29T16:35:24Z</time><course>69</course><type>1</type></trkpt>
      <trkpt lat="41.6737716" lon="-3.6416"><ele>1807</ele><speed>55</speed><time>2016-06-29T16:35:25Z</time><course>69</course><type>1</type></trkpt>
      <trkpt lat="41.6738233" lon="-3.6414217"><ele>1806</ele><speed>58</speed><time>2016-06-29T16:35:26Z</time><course>67</course><type>1</type></trkpt>
      <trkpt lat="41.673945" lon="-3.6410367"><ele>1802</ele><speed>67</speed><time>2016-06-29T16:35:28Z</time><course>66</course><type>1</type></trkpt>
      <trkpt lat="41.67407" lon="-3.64065"><ele>1803</ele><speed>60</speed><time>2016-06-29T16:35:30Z</time><course>66</course><type>1</type></trkpt>
      <trkpt lat="41.6741233" lon="-3.6404684"><ele>1803</ele><speed>56</speed><time>2016-06-29T16:35:31Z</time><course>69</course><type>1</type></trkpt>
      <trkpt lat="41.6741683" lon="-3.6402967"><ele>1802</ele><speed>55</speed><time>2016-06-29T16:35:32Z</time><course>70</course><type>1</type></trkpt>
      <trkpt lat="41.6742216" lon="-3.64012"><ele>1802</ele><speed>58</speed><time>2016-06-29T16:35:33Z</time><course>66</course><type>1</type></trkpt>
      <trkpt lat="41.6743416" lon="-3.63975"><ele>1801</ele><speed>59</speed><time>2016-06-29T16:35:35Z</time><course>68</course><type>1</type></trkpt>
      <trkpt lat="41.6743966" lon="-3.6395684"><ele>1800</ele><speed>57</speed><time>2016-06-29T16:35:36Z</time><course>69</course><type>1</type></trkpt>
      <trkpt lat="41.674505" lon="-3.639215"><ele>1797</ele><speed>57</speed><time>2016-06-29T16:35:38Z</time><course>66</course><type>1</type></trkpt>
      <trkpt lat="41.6746333" lon="-3.6388284"><ele>1794</ele><speed>67</speed><time>2016-06-29T16:35:40Z</time><course>66</course><type>1</type></trkpt>
      <trkpt lat="41.6747383" lon="-3.6384334"><ele>1793</ele><speed>56</speed><time>2016-06-29T16:35:42Z</time><course>72</course><type>1</type></trkpt>
      <trkpt lat="41.67482" lon="-3.63808"><ele>1791</ele><speed>53</speed><time>2016-06-29T16:35:44Z</time><course>71</course><type>1</type></trkpt>
      <trkpt lat="41.6748666" lon="-3.637905"><ele>1789</ele><speed>57</speed><time>2016-06-29T16:35:45Z</time><course>70</course><type>1</type></trkpt>
      <trkpt lat="41.67498" lon="-3.63752"><ele>1786</ele><speed>64</speed><time>2016-06-29T16:35:47Z</time><course>69</course><type>1</type></trkpt>
      <trkpt lat="41.6750383" lon="-3.6373101"><ele>1785</ele><speed>65</speed><time>2016-06-29T16:35:48Z</time><course>70</course><type>1</type></trkpt>
      <trkpt lat="41.6751366" lon="-3.6369267"><ele>1783</ele><speed>57</speed><time>2016-06-29T16:35:50Z</time><course>70</course><type>1</type></trkpt>
      <trkpt lat="41.6752433" lon="-3.6365467"><ele>1780</ele><speed>64</speed><time>2016-06-29T16:35:52Z</time><course>70</course><type>1</type></trkpt>
      <trkpt lat="41.6752933" lon="-3.6363334"><ele>1778</ele><speed>69</speed><time>2016-06-29T16:35:53Z</time><course>72</course><type>1</type></trkpt>
      <trkpt lat="41.6753916" lon="-3.6358867"><ele>1777</ele><speed>67</speed><time>2016-06-29T16:35:55Z</time><course>73</course><type>1</type></trkpt>
      <trkpt lat="41.67547" lon="-3.6354617"><ele>1775</ele><speed>64</speed><time>2016-06-29T16:35:57Z</time><course>78</course><type>1</type></trkpt>
      <trkpt lat="41.6754916" lon="-3.6352434"><ele>1774</ele><speed>66</speed><time>2016-06-29T16:35:58Z</time><course>84</course><type>1</type></trkpt>
      <trkpt lat="41.6755266" lon="-3.6347884"><ele>1770</ele><speed>68</speed><time>2016-06-29T16:36:00Z</time><course>81</course><type>1</type></trkpt>
      <trkpt lat="41.6756166" lon="-3.6343417"><ele>1766</ele><speed>67</speed><time>2016-06-29T16:36:02Z</time><course>69</course><type>1</type></trkpt>
      <trkpt lat="41.6757133" lon="-3.6339167"><ele>1762</ele><speed>64</speed><time>2016-06-29T16:36:04Z</time><course>78</course><type>1</type></trkpt>
      <trkpt lat="41.6757466" lon="-3.6337117"><ele>1761</ele><speed>60</speed><time>2016-06-29T16:36:05Z</time><course>78</course><type>1</type></trkpt>
      <trkpt lat="41.6758416" lon="-3.6333234"><ele>1756</ele><speed>62</speed><time>2016-06-29T16:36:07Z</time><course>68</course><type>1</type></trkpt>
      <trkpt lat="41.6759033" lon="-3.6331284"><ele>1754</ele><speed>64</speed><time>2016-06-29T16:36:08Z</time><course>66</course><type>1</type></trkpt>
      <trkpt lat="41.6760066" lon="-3.6327167"><ele>1749</ele><speed>64</speed><time>2016-06-29T16:36:10Z</time><course>74</course><type>1</type></trkpt>
      <trkpt lat="41.6760883" lon="-3.6323117"><ele>1744</ele><speed>62</speed><time>2016-06-29T16:36:12Z</time><course>73</course><type>1</type></trkpt>
      <trkpt lat="41.6762" lon="-3.6319134"><ele>1740</ele><speed>67</speed><time>2016-06-29T16:36:14Z</time><course>66</course><type>1</type></trkpt>
      <trkpt lat="41.676265" lon="-3.6317034"><ele>1738</ele><speed>67</speed><time>2016-06-29T16:36:15Z</time><course>68</course><type>1</type></trkpt>
      <trkpt lat="41.6763783" lon="-3.6312817"><ele>1732</ele><speed>63</speed><time>2016-06-29T16:36:17Z</time><course>71</course><type>1</type></trkpt>
      <trkpt lat="41.6764316" lon="-3.6310817"><ele>1730</ele><speed>61</speed><time>2016-06-29T16:36:18Z</time><course>70</course><type>1</type></trkpt>
      <trkpt lat="41.6765583" lon="-3.63069"><ele>1724</ele><speed>61</speed><time>2016-06-29T16:36:20Z</time><course>65</course><type>1</type></trkpt>
      <trkpt lat="41.6766316" lon="-3.6304934"><ele>1723</ele><speed>65</speed><time>2016-06-29T16:36:21Z</time><course>63</course><type>1</type></trkpt>
      <trkpt lat="41.6767716" lon="-3.63009"><ele>1718</ele><speed>64</speed><time>2016-06-29T16:36:23Z</time><course>66</course><type>1</type></trkpt>
      <trkpt lat="41.6768916" lon="-3.6297067"><ele>1714</ele><speed>60</speed><time>2016-06-29T16:36:25Z</time><course>67</course><type>1</type></trkpt>
      <trkpt lat="41.67695" lon="-3.629515"><ele>1711</ele><speed>61</speed><time>2016-06-29T16:36:26Z</time><course>68</course><type>1</type></trkpt>
      <trkpt lat="41.6771616" lon="-3.6287217"><ele>1702</ele><speed>62</speed><time>2016-06-29T16:36:30Z</time><course>70</course><type>1</type></trkpt>
      <trkpt lat="41.6772216" lon="-3.6285217"><ele>1700</ele><speed>63</speed><time>2016-06-29T16:36:31Z</time><course>66</course><type>1</type></trkpt>
      <trkpt lat="41.6773633" lon="-3.62812"><ele>1695</ele><speed>68</speed><time>2016-06-29T16:36:33Z</time><course>64</course><type>1</type></trkpt>
      <trkpt lat="41.6774933" lon="-3.6277067"><ele>1691</ele><speed>65</speed><time>2016-06-29T16:36:35Z</time><course>69</course><type>1</type></trkpt>
      <trkpt lat="41.6775433" lon="-3.6275017"><ele>1689</ele><speed>64</speed><time>2016-06-29T16:36:36Z</time><course>71</course><type>1</type></trkpt>
      <trkpt lat="41.6775999" lon="-3.6273017"><ele>1687</ele><speed>63</speed><time>2016-06-29T16:36:37Z</time><course>68</course><type>1</type></trkpt>
      <trkpt lat="41.6777266" lon="-3.6269"><ele>1682</ele><speed>65</speed><time>2016-06-29T16:36:39Z</time><course>67</course><type>1</type></trkpt>
      <trkpt lat="41.6778516" lon="-3.6264867"><ele>1677</ele><speed>66</speed><time>2016-06-29T16:36:41Z</time><course>70</course><type>1</type></trkpt>
      <trkpt lat="41.6779116" lon="-3.62628"><ele>1676</ele><speed>66</speed><time>2016-06-29T16:36:42Z</time><course>70</course><type>1</type></trkpt>
      <trkpt lat="41.6780266" lon="-3.625865"><ele>1672</ele><speed>64</speed><time>2016-06-29T16:36:44Z</time><course>73</course><type>1</type></trkpt>
      <trkpt lat="41.6781216" lon="-3.6254451"><ele>1668</ele><speed>66</speed><time>2016-06-29T16:36:46Z</time><course>74</course><type>1</type></trkpt>
      <trkpt lat="41.67821" lon="-3.6250167"><ele>1664</ele><speed>66</speed><time>2016-06-29T16:36:48Z</time><course>75</course><type>1</type></trkpt>
      <trkpt lat="41.67825" lon="-3.6248034"><ele>1663</ele><speed>66</speed><time>2016-06-29T16:36:49Z</time><course>76</course><type>1</type></trkpt>
      <trkpt lat="41.67833" lon="-3.624375"><ele>1659</ele><speed>66</speed><time>2016-06-29T16:36:51Z</time><course>75</course><type>1</type></trkpt>
      <trkpt lat="41.6784116" lon="-3.623945"><ele>1655</ele><speed>66</speed><time>2016-06-29T16:36:53Z</time><course>76</course><type>1</type></trkpt>
      <trkpt lat="41.67845" lon="-3.62373"><ele>1653</ele><speed>65</speed><time>2016-06-29T16:36:54Z</time><course>75</course><type>1</type></trkpt>
      <trkpt lat="41.6785283" lon="-3.6233"><ele>1649</ele><speed>66</speed><time>2016-06-29T16:36:56Z</time><course>76</course><type>1</type></trkpt>
      <trkpt lat="41.6786033" lon="-3.6228767"><ele>1646</ele><speed>64</speed><time>2016-06-29T16:36:58Z</time><course>77</course><type>1</type></trkpt>
      <trkpt lat="41.6786783" lon="-3.622455"><ele>1642</ele><speed>64</speed><time>2016-06-29T16:37:00Z</time><course>76</course><type>1</type></trkpt>
      <trkpt lat="41.6787566" lon="-3.62203"><ele>1637</ele><speed>66</speed><time>2016-06-29T16:37:02Z</time><course>76</course><type>1</type></trkpt>
      <trkpt lat="41.678825" lon="-3.6215817"><ele>1634</ele><speed>73</speed><time>2016-06-29T16:37:04Z</time><course>78</course><type>1</type></trkpt>
      <trkpt lat="41.678895" lon="-3.6211167"><ele>1631</ele><speed>69</speed><time>2016-06-29T16:37:06Z</time><course>78</course><type>1</type></trkpt>
      <trkpt lat="41.6789616" lon="-3.6206917"><ele>1628</ele><speed>62</speed><time>2016-06-29T16:37:08Z</time><course>79</course><type>1</type></trkpt>
      <trkpt lat="41.6790233" lon="-3.6202617"><ele>1625</ele><speed>62</speed><time>2016-06-29T16:37:10Z</time><course>78</course><type>1</type></trkpt>
      <trkpt lat="41.6791033" lon="-3.619825"><ele>1620</ele><speed>64</speed><time>2016-06-29T16:37:12Z</time><course>74</course><type>1</type></trkpt>
      <trkpt lat="41.6791483" lon="-3.6196184"><ele>1618</ele><speed>63</speed><time>2016-06-29T16:37:13Z</time><course>74</course><type>1</type></trkpt>
      <trkpt lat="41.6792333" lon="-3.6192167"><ele>1614</ele><speed>62</speed><time>2016-06-29T16:37:15Z</time><course>74</course><type>1</type></trkpt>
      <trkpt lat="41.67934" lon="-3.618805"><ele>1609</ele><speed>67</speed><time>2016-06-29T16:37:17Z</time><course>66</course><type>1</type></trkpt>
      <trkpt lat="41.6794116" lon="-3.6186034"><ele>1608</ele><speed>66</speed><time>2016-06-29T16:37:18Z</time><course>62</course><type>1</type></trkpt>
      <trkpt lat="41.6794883" lon="-3.6184117"><ele>1607</ele><speed>65</speed><time>2016-06-29T16:37:19Z</time><course>60</course><type>1</type></trkpt>
      <trkpt lat="41.679635" lon="-3.6180484"><ele>1607</ele><speed>59</speed><time>2016-06-29T16:37:21Z</time><course>62</course><type>1</type></trkpt>
      <trkpt lat="41.6797833" lon="-3.617705"><ele>1606</ele><speed>59</speed><time>2016-06-29T16:37:23Z</time><course>57</course><type>1</type></trkpt>
      <trkpt lat="41.67987" lon="-3.617545"><ele>1605</ele><speed>59</speed><time>2016-06-29T16:37:24Z</time><course>53</course><type>1</type></trkpt>
      <trkpt lat="41.68005" lon="-3.617265"><ele>1605</ele><speed>54</speed><time>2016-06-29T16:37:26Z</time><course>47</course><type>1</type></trkpt>
      <trkpt lat="41.6801383" lon="-3.6171334"><ele>1605</ele><speed>53</speed><time>2016-06-29T16:37:27Z</time><course>50</course><type>1</type></trkpt>
      <trkpt lat="41.6802983" lon="-3.61686"><ele>1607</ele><speed>51</speed><time>2016-06-29T16:37:29Z</time><course>53</course><type>1</type></trkpt>
      <trkpt lat="41.6804516" lon="-3.6166084"><ele>1607</ele><speed>46</speed><time>2016-06-29T16:37:31Z</time><course>48</course><type>1</type></trkpt>
      <trkpt lat="41.680535" lon="-3.61649"><ele>1607</ele><speed>48</speed><time>2016-06-29T16:37:32Z</time><course>46</course><type>1</type></trkpt>
      <trkpt lat="41.6807016" lon="-3.6162567"><ele>1608</ele><speed>48</speed><time>2016-06-29T16:37:34Z</time><course>46</course><type>1</type></trkpt>
      <trkpt lat="41.6807816" lon="-3.6161434"><ele>1608</ele><speed>45</speed><time>2016-06-29T16:37:35Z</time><course>46</course><type>1</type></trkpt>
      <trkpt lat="41.6808566" lon="-3.6160517"><ele>1609</ele><speed>39</speed><time>2016-06-29T16:37:36Z</time><course>37</course><type>1</type></trkpt>
      <trkpt lat="41.681015" lon="-3.61594"><ele>1609</ele><speed>34</speed><time>2016-06-29T16:37:38Z</time><course>22</course><type>1</type></trkpt>
      <trkpt lat="41.6811466" lon="-3.6158667"><ele>1609</ele><speed>27</speed><time>2016-06-29T16:37:40Z</time><course>26</course><type>1</type></trkpt>
      <trkpt lat="41.6812033" lon="-3.6158284"><ele>1609</ele><speed>27</speed><time>2016-06-29T16:37:41Z</time><course>28</course><type>1</type></trkpt>
      <trkpt lat="41.6812683" lon="-3.6157867"><ele>1609</ele><speed>29</speed><time>2016-06-29T16:37:42Z</time><course>24</course><type>1</type></trkpt>
      <trkpt lat="41.6814166" lon="-3.6157167"><ele>1609</ele><speed>32</speed><time>2016-06-29T16:37:44Z</time><course>14</course><type>1</type></trkpt>
      <trkpt lat="41.6814866" lon="-3.6156934"><ele>1610</ele><speed>27</speed><time>2016-06-29T16:37:45Z</time><course>14</course><type>1</type></trkpt>
      <trkpt lat="41.6815916" lon="-3.615635"><ele>1610</ele><speed>21</speed><time>2016-06-29T16:37:47Z</time><course>31</course><type>1</type></trkpt>
      <trkpt lat="41.6816383" lon="-3.61559"><ele>1611</ele><speed>24</speed><time>2016-06-29T16:37:48Z</time><course>36</course><type>1</type></trkpt>
      <trkpt lat="41.6817466" lon="-3.6155067"><ele>1611</ele><speed>25</speed><time>2016-06-29T16:37:50Z</time><course>23</course><type>1</type></trkpt>
      <trkpt lat="41.6817916" lon="-3.6154834"><ele>1611</ele><speed>20</speed><time>2016-06-29T16:37:51Z</time><course>17</course><type>1</type></trkpt>
      <trkpt lat="41.6818466" lon="-3.6154484"><ele>1610</ele><speed>9</speed><time>2016-06-29T16:37:53Z</time><course>31</course><type>1</type></trkpt>
      <trkpt lat="41.6818866" lon="-3.6153767"><ele>1608</ele><speed>8</speed><time>2016-06-29T16:37:56Z</time><course>39</course><type>1</type></trkpt>
      <trkpt lat="41.6818016" lon="-3.615355"><ele>1603</ele><speed>18</speed><time>2016-06-29T16:38:00Z</time><course>168</course><type>1</type></trkpt>
      <trkpt lat="41.6816666" lon="-3.615295"><ele>1602</ele><speed>29</speed><time>2016-06-29T16:38:02Z</time><course>155</course><type>1</type></trkpt>
      <trkpt lat="41.6814916" lon="-3.6151834"><ele>1600</ele><speed>44</speed><time>2016-06-29T16:38:04Z</time><course>152</course><type>1</type></trkpt>
      <trkpt lat="41.681295" lon="-3.6149617"><ele>1598</ele><speed>57</speed><time>2016-06-29T16:38:06Z</time><course>131</course><type>1</type></trkpt>
      <trkpt lat="41.6811383" lon="-3.6145984"><ele>1596</ele><speed>65</speed><time>2016-06-29T16:38:08Z</time><course>115</course><type>1</type></trkpt>
      <trkpt lat="41.6810716" lon="-3.6143984"><ele>1595</ele><speed>64</speed><time>2016-06-29T16:38:09Z</time><course>115</course><type>1</type></trkpt>
      <trkpt lat="41.68094" lon="-3.614"><ele>1592</ele><speed>65</speed><time>2016-06-29T16:38:11Z</time><course>112</course><type>1</type></trkpt>
      <trkpt lat="41.68088" lon="-3.613785"><ele>1591</ele><speed>71</speed><time>2016-06-29T16:38:12Z</time><course>109</course><type>1</type></trkpt>
      <trkpt lat="41.6807966" lon="-3.6133067"><ele>1589</ele><speed>72</speed><time>2016-06-29T16:38:14Z</time><course>98</course><type>1</type></trkpt>
      <trkpt lat="41.6807566" lon="-3.61285"><ele>1588</ele><speed>64</speed><time>2016-06-29T16:38:16Z</time><course>96</course><type>1</type></trkpt>
      <trkpt lat="41.6807166" lon="-3.6124117"><ele>1586</ele><speed>65</speed><time>2016-06-29T16:38:18Z</time><course>96</course><type>1</type></trkpt>
      <trkpt lat="41.6807066" lon="-3.6119717"><ele>1584</ele><speed>70</speed><time>2016-06-29T16:38:20Z</time><course>89</course><type>1</type></trkpt>
      <trkpt lat="41.68071" lon="-3.61174"><ele>1583</ele><speed>65</speed><time>2016-06-29T16:38:21Z</time><course>87</course><type>1</type></trkpt>
      <trkpt lat="41.6807266" lon="-3.611315"><ele>1582</ele><speed>62</speed><time>2016-06-29T16:38:23Z</time><course>85</course><type>1</type></trkpt>
      <trkpt lat="41.6807416" lon="-3.6111017"><ele>1581</ele><speed>61</speed><time>2016-06-29T16:38:24Z</time><course>79</course><type>1</type></trkpt>
      <trkpt lat="41.680835" lon="-3.610705"><ele>1577</ele><speed>62</speed><time>2016-06-29T16:38:26Z</time><course>66</course><type>1</type></trkpt>
      <trkpt lat="41.6809716" lon="-3.6103734"><ele>1575</ele><speed>52</speed><time>2016-06-29T16:38:28Z</time><course>56</course><type>1</type></trkpt>
      <trkpt lat="41.6811283" lon="-3.6101417"><ele>1574</ele><speed>42</speed><time>2016-06-29T16:38:30Z</time><course>46</course><type>1</type></trkpt>
      <trkpt lat="41.6812766" lon="-3.6099817"><ele>1573</ele><speed>35</speed><time>2016-06-29T16:38:32Z</time><course>37</course><type>1</type></trkpt>
      <trkpt lat="41.6813933" lon="-3.6099184"><ele>1571</ele><speed>22</speed><time>2016-06-29T16:38:34Z</time><course>21</course><type>1</type></trkpt>
      <trkpt lat="41.6814333" lon="-3.6099117"><ele>1570</ele><speed>0</speed><time>2016-06-29T16:38:36Z</time><course>18</course><type>1</type></trkpt>
      <trkpt lat="41.68138" lon="-3.6099167"><ele>1569</ele><speed>14</speed><time>2016-06-29T16:38:38Z</time><course>163</course><type>1</type></trkpt>
      <trkpt lat="41.6812666" lon="-3.6098517"><ele>1568</ele><speed>29</speed><time>2016-06-29T16:38:40Z</time><course>152</course><type>1</type></trkpt>
      <trkpt lat="41.6811116" lon="-3.6097267"><ele>1566</ele><speed>39</speed><time>2016-06-29T16:38:42Z</time><course>145</course><type>1</type></trkpt>
      <trkpt lat="41.6809133" lon="-3.6094867"><ele>1565</ele><speed>55</speed><time>2016-06-29T16:38:44Z</time><course>136</course><type>1</type></trkpt>
      <trkpt lat="41.680745" lon="-3.6091567"><ele>1563</ele><speed>59</speed><time>2016-06-29T16:38:46Z</time><course>119</course><type>1</type></trkpt>
      <trkpt lat="41.6806166" lon="-3.60879"><ele>1562</ele><speed>59</speed><time>2016-06-29T16:38:48Z</time><course>112</course><type>1</type></trkpt>
      <trkpt lat="41.6805166" lon="-3.6084"><ele>1560</ele><speed>61</speed><time>2016-06-29T16:38:50Z</time><course>105</course><type>1</type></trkpt>
      <trkpt lat="41.6804516" lon="-3.6079417"><ele>1558</ele><speed>71</speed><time>2016-06-29T16:38:52Z</time><course>97</course><type>1</type></trkpt>
      <trkpt lat="41.68043" lon="-3.6074834"><ele>1557</ele><speed>70</speed><time>2016-06-29T16:38:54Z</time><course>93</course><type>1</type></trkpt>
      <trkpt lat="41.6804266" lon="-3.6070284"><ele>1556</ele><speed>64</speed><time>2016-06-29T16:38:56Z</time><course>87</course><type>1</type></trkpt>
      <trkpt lat="41.6804616" lon="-3.6065884"><ele>1553</ele><speed>66</speed><time>2016-06-29T16:38:58Z</time><course>81</course><type>1</type></trkpt>
      <trkpt lat="41.6804966" lon="-3.60637"><ele>1553</ele><speed>67</speed><time>2016-06-29T16:38:59Z</time><course>75</course><type>1</type></trkpt>
      <trkpt lat="41.68054" lon="-3.6061617"><ele>1552</ele><speed>64</speed><time>2016-06-29T16:39:00Z</time><course>73</course><type>1</type></trkpt>
      <trkpt lat="41.6806416" lon="-3.6057984"><ele>1552</ele><speed>54</speed><time>2016-06-29T16:39:02Z</time><course>66</course><type>1</type></trkpt>
      <trkpt lat="41.6806933" lon="-3.605635"><ele>1553</ele><speed>52</speed><time>2016-06-29T16:39:03Z</time><course>66</course><type>1</type></trkpt>
      <trkpt lat="41.6808183" lon="-3.6053017"><ele>1551</ele><speed>56</speed><time>2016-06-29T16:39:05Z</time><course>61</course><type>1</type></trkpt>
      <trkpt lat="41.6808833" lon="-3.6051417"><ele>1552</ele><speed>53</speed><time>2016-06-29T16:39:06Z</time><course>60</course><type>1</type></trkpt>
      <trkpt lat="41.68102" lon="-3.6048534"><ele>1552</ele><speed>47</speed><time>2016-06-29T16:39:08Z</time><course>55</course><type>1</type></trkpt>
      <trkpt lat="41.6811416" lon="-3.604605"><ele>1552</ele><speed>42</speed><time>2016-06-29T16:39:10Z</time><course>56</course><type>1</type></trkpt>
      <trkpt lat="41.6812666" lon="-3.604365"><ele>1550</ele><speed>44</speed><time>2016-06-29T16:39:12Z</time><course>52</course><type>1</type></trkpt>
      <trkpt lat="41.68142" lon="-3.6041434"><ele>1549</ele><speed>44</speed><time>2016-06-29T16:39:14Z</time><course>42</course><type>1</type></trkpt>
      <trkpt lat="41.6814983" lon="-3.6040417"><ele>1548</ele><speed>43</speed><time>2016-06-29T16:39:15Z</time><course>45</course><type>1</type></trkpt>
      <trkpt lat="41.6816333" lon="-3.6038567"><ele>1549</ele><speed>36</speed><time>2016-06-29T16:39:17Z</time><course>44</course><type>1</type></trkpt>
      <trkpt lat="41.6816933" lon="-3.6037834"><ele>1548</ele><speed>30</speed><time>2016-06-29T16:39:18Z</time><course>42</course><type>1</type></trkpt>
      <trkpt lat="41.681805" lon="-3.6036617"><ele>1547</ele><speed>29</speed><time>2016-06-29T16:39:20Z</time><course>36</course><type>1</type></trkpt>
      <trkpt lat="41.6819183" lon="-3.603555"><ele>1547</ele><speed>25</speed><time>2016-06-29T16:39:22Z</time><course>35</course><type>1</type></trkpt>
      <trkpt lat="41.681965" lon="-3.6035117"><ele>1546</ele><speed>21</speed><time>2016-06-29T16:39:23Z</time><course>32</course><type>1</type></trkpt>
      <trkpt lat="41.6819983" lon="-3.6034834"><ele>1546</ele><speed>14</speed><time>2016-06-29T16:39:24Z</time><course>33</course><type>1</type></trkpt>
      <trkpt lat="41.68194" lon="-3.6034017"><ele>1542</ele><speed>21</speed><time>2016-06-29T16:39:28Z</time><course>141</course><type>1</type></trkpt>
      <trkpt lat="41.6818016" lon="-3.6032567"><ele>1541</ele><speed>38</speed><time>2016-06-29T16:39:30Z</time><course>136</course><type>1</type></trkpt>
      <trkpt lat="41.6816416" lon="-3.60303"><ele>1540</ele><speed>50</speed><time>2016-06-29T16:39:32Z</time><course>130</course><type>1</type></trkpt>
      <trkpt lat="41.68155" lon="-3.6028684"><ele>1539</ele><speed>61</speed><time>2016-06-29T16:39:33Z</time><course>127</course><type>1</type></trkpt>
      <trkpt lat="41.681385" lon="-3.6024934"><ele>1540</ele><speed>64</speed><time>2016-06-29T16:39:35Z</time><course>112</course><type>1</type></trkpt>
      <trkpt lat="41.6813283" lon="-3.602295"><ele>1540</ele><speed>62</speed><time>2016-06-29T16:39:36Z</time><course>109</course><type>1</type></trkpt>
      <trkpt lat="41.681235" lon="-3.6018917"><ele>1539</ele><speed>65</speed><time>2016-06-29T16:39:38Z</time><course>105</course><type>1</type></trkpt>
      <trkpt lat="41.6811883" lon="-3.6016734"><ele>1538</ele><speed>69</speed><time>2016-06-29T16:39:39Z</time><course>105</course><type>1</type></trkpt>
      <trkpt lat="41.6811116" lon="-3.6012084"><ele>1537</ele><speed>70</speed><time>2016-06-29T16:39:41Z</time><course>98</course><type>1</type></trkpt>
      <trkpt lat="41.6810983" lon="-3.6009884"><ele>1538</ele><speed>64</speed><time>2016-06-29T16:39:42Z</time><course>92</course><type>1</type></trkpt>
      <trkpt lat="41.6810933" lon="-3.6007767"><ele>1536</ele><speed>64</speed><time>2016-06-29T16:39:43Z</time><course>90</course><type>1</type></trkpt>
      <trkpt lat="41.6810916" lon="-3.6003217"><ele>1535</ele><speed>68</speed><time>2016-06-29T16:39:45Z</time><course>88</course><type>1</type></trkpt>
      <trkpt lat="41.6811116" lon="-3.599865"><ele>1534</ele><speed>65</speed><time>2016-06-29T16:39:47Z</time><course>81</course><type>1</type></trkpt>
      <trkpt lat="41.681185" lon="-3.5994567"><ele>1533</ele><speed>64</speed><time>2016-06-29T16:39:49Z</time><course>72</course><type>1</type></trkpt>
      <trkpt lat="41.6812316" lon="-3.59926"><ele>1532</ele><speed>62</speed><time>2016-06-29T16:39:50Z</time><course>73</course><type>1</type></trkpt>
      <trkpt lat="41.68133" lon="-3.5988884"><ele>1530</ele><speed>59</speed><time>2016-06-29T16:39:52Z</time><course>70</course><type>1</type></trkpt>
      <trkpt lat="41.6814316" lon="-3.5985167"><ele>1529</ele><speed>56</speed><time>2016-06-29T16:39:54Z</time><course>67</course><type>1</type></trkpt>
      <trkpt lat="41.681565" lon="-3.5982334"><ele>1527</ele><speed>46</speed><time>2016-06-29T16:39:56Z</time><course>50</course><type>1</type></trkpt>
      <trkpt lat="41.6816416" lon="-3.5981134"><ele>1526</ele><speed>47</speed><time>2016-06-29T16:39:57Z</time><course>48</course><type>1</type></trkpt>
      <trkpt lat="41.6818016" lon="-3.5978484"><ele>1524</ele><speed>52</speed><time>2016-06-29T16:39:59Z</time><course>54</course><type>1</type></trkpt>
      <trkpt lat="41.6819483" lon="-3.5975867"><ele>1523</ele><speed>42</speed><time>2016-06-29T16:40:01Z</time><course>51</course><type>1</type></trkpt>
      <trkpt lat="41.6820133" lon="-3.5974917"><ele>1522</ele><speed>35</speed><time>2016-06-29T16:40:02Z</time><course>43</course><type>1</type></trkpt>
      <trkpt lat="41.6821466" lon="-3.597355"><ele>1520</ele><speed>33</speed><time>2016-06-29T16:40:04Z</time><course>35</course><type>1</type></trkpt>
      <trkpt lat="41.6822149" lon="-3.5972884"><ele>1519</ele><speed>34</speed><time>2016-06-29T16:40:05Z</time><course>38</course><type>1</type></trkpt>
      <trkpt lat="41.6822816" lon="-3.5972117"><ele>1518</ele><speed>36</speed><time>2016-06-29T16:40:06Z</time><course>43</course><type>1</type></trkpt>
      <trkpt lat="41.68241" lon="-3.5970484"><ele>1515</ele><speed>34</speed><time>2016-06-29T16:40:08Z</time><course>42</course><type>1</type></trkpt>
      <trkpt lat="41.6825433" lon="-3.59691"><ele>1513</ele><speed>32</speed><time>2016-06-29T16:40:10Z</time><course>36</course><type>1</type></trkpt>
      <trkpt lat="41.6826066" lon="-3.5968467"><ele>1512</ele><speed>30</speed><time>2016-06-29T16:40:11Z</time><course>38</course><type>1</type></trkpt>
      <trkpt lat="41.6826633" lon="-3.59678"><ele>1510</ele><speed>30</speed><time>2016-06-29T16:40:12Z</time><course>42</course><type>1</type></trkpt>
      <trkpt lat="41.6827916" lon="-3.5966167"><ele>1505</ele><speed>38</speed><time>2016-06-29T16:40:14Z</time><course>44</course><type>1</type></trkpt>
      <trkpt lat="41.682955" lon="-3.5963934"><ele>1500</ele><speed>51</speed><time>2016-06-29T16:40:16Z</time><course>46</course><type>1</type></trkpt>
      <trkpt lat="41.6830433" lon="-3.59626"><ele>1498</ele><speed>54</speed><time>2016-06-29T16:40:17Z</time><course>50</course><type>1</type></trkpt>
      <trkpt lat="41.6832066" lon="-3.5959417"><ele>1495</ele><speed>59</speed><time>2016-06-29T16:40:19Z</time><course>58</course><type>1</type></trkpt>
      <trkpt lat="41.6832833" lon="-3.5957617"><ele>1493</ele><speed>63</speed><time>2016-06-29T16:40:20Z</time><course>61</course><type>1</type></trkpt>
      <trkpt lat="41.6833583" lon="-3.59557"><ele>1491</ele><speed>64</speed><time>2016-06-29T16:40:21Z</time><course>62</course><type>1</type></trkpt>
      <trkpt lat="41.6834933" lon="-3.5951684"><ele>1487</ele><speed>65</speed><time>2016-06-29T16:40:23Z</time><course>66</course><type>1</type></trkpt>
      <trkpt lat="41.6835549" lon="-3.59497"><ele>1486</ele><speed>67</speed><time>2016-06-29T16:40:24Z</time><course>68</course><type>1</type></trkpt>
      <trkpt lat="41.6836666" lon="-3.5945934"><ele>1481</ele><speed>58</speed><time>2016-06-29T16:40:26Z</time><course>68</course><type>1</type></trkpt>
      <trkpt lat="41.6837833" lon="-3.5942234"><ele>1477</ele><speed>62</speed><time>2016-06-29T16:40:28Z</time><course>66</course><type>1</type></trkpt>
      <trkpt lat="41.6839066" lon="-3.5938217"><ele>1473</ele><speed>66</speed><time>2016-06-29T16:40:30Z</time><course>69</course><type>1</type></trkpt>
      <trkpt lat="41.6839616" lon="-3.5936134"><ele>1471</ele><speed>65</speed><time>2016-06-29T16:40:31Z</time><course>70</course><type>1</type></trkpt>
      <trkpt lat="41.6840149" lon="-3.59341"><ele>1469</ele><speed>63</speed><time>2016-06-29T16:40:32Z</time><course>70</course><type>1</type></trkpt>
      <trkpt lat="41.6841216" lon="-3.59302"><ele>1464</ele><speed>61</speed><time>2016-06-29T16:40:34Z</time><course>69</course><type>1</type></trkpt>
      <trkpt lat="41.6842299" lon="-3.5926284"><ele>1460</ele><speed>63</speed><time>2016-06-29T16:40:36Z</time><course>69</course><type>1</type></trkpt>
      <trkpt lat="41.684325" lon="-3.5922334"><ele>1456</ele><speed>61</speed><time>2016-06-29T16:40:38Z</time><course>73</course><type>1</type></trkpt>
      <trkpt lat="41.684395" lon="-3.5918534"><ele>1454</ele><speed>55</speed><time>2016-06-29T16:40:40Z</time><course>76</course><type>1</type></trkpt>
      <trkpt lat="41.6844283" lon="-3.591675"><ele>1452</ele><speed>55</speed><time>2016-06-29T16:40:41Z</time><course>76</course><type>1</type></trkpt>
      <trkpt lat="41.6844966" lon="-3.5912967"><ele>1449</ele><speed>62</speed><time>2016-06-29T16:40:43Z</time><course>75</course><type>1</type></trkpt>
      <trkpt lat="41.6845383" lon="-3.59109"><ele>1448</ele><speed>65</speed><time>2016-06-29T16:40:44Z</time><course>74</course><type>1</type></trkpt>
      <trkpt lat="41.6846166" lon="-3.5906784"><ele>1446</ele><speed>61</speed><time>2016-06-29T16:40:46Z</time><course>75</course><type>1</type></trkpt>
      <trkpt lat="41.684695" lon="-3.5902917"><ele>1445</ele><speed>60</speed><time>2016-06-29T16:40:48Z</time><course>74</course><type>1</type></trkpt>
      <trkpt lat="41.6847583" lon="-3.5898917"><ele>1443</ele><speed>62</speed><time>2016-06-29T16:40:50Z</time><course>80</course><type>1</type></trkpt>
      <trkpt lat="41.6848083" lon="-3.58948"><ele>1439</ele><speed>62</speed><time>2016-06-29T16:40:52Z</time><course>78</course><type>1</type></trkpt>
      <trkpt lat="41.684845" lon="-3.5892734"><ele>1437</ele><speed>64</speed><time>2016-06-29T16:40:53Z</time><course>75</course><type>1</type></trkpt>
      <trkpt lat="41.684935" lon="-3.58885"><ele>1433</ele><speed>66</speed><time>2016-06-29T16:40:55Z</time><course>76</course><type>1</type></trkpt>
      <trkpt lat="41.6849716" lon="-3.5886334"><ele>1431</ele><speed>65</speed><time>2016-06-29T16:40:56Z</time><course>78</course><type>1</type></trkpt>
      <trkpt lat="41.68503" lon="-3.5882067"><ele>1427</ele><speed>64</speed><time>2016-06-29T16:40:58Z</time><course>78</course><type>1</type></trkpt>
      <trkpt lat="41.6851066" lon="-3.587805"><ele>1423</ele><speed>61</speed><time>2016-06-29T16:41:00Z</time><course>73</course><type>1</type></trkpt>
      <trkpt lat="41.6851983" lon="-3.587405"><ele>1420</ele><speed>64</speed><time>2016-06-29T16:41:02Z</time><course>73</course><type>1</type></trkpt>
      <trkpt lat="41.685275" lon="-3.58697"><ele>1416</ele><speed>67</speed><time>2016-06-29T16:41:04Z</time><course>78</course><type>1</type></trkpt>
      <trkpt lat="41.6853266" lon="-3.5865334"><ele>1411</ele><speed>65</speed><time>2016-06-29T16:41:06Z</time><course>81</course><type>1</type></trkpt>
      <trkpt lat="41.685375" lon="-3.586095"><ele>1407</ele><speed>67</speed><time>2016-06-29T16:41:08Z</time><course>82</course><type>1</type></trkpt>
      <trkpt lat="41.6854166" lon="-3.5856334"><ele>1403</ele><speed>71</speed><time>2016-06-29T16:41:10Z</time><course>83</course><type>1</type></trkpt>
      <trkpt lat="41.6854566" lon="-3.58518"><ele>1399</ele><speed>66</speed><time>2016-06-29T16:41:12Z</time><course>81</course><type>1</type></trkpt>
      <trkpt lat="41.685485" lon="-3.5849617"><ele>1397</ele><speed>66</speed><time>2016-06-29T16:41:13Z</time><course>78</course><type>1</type></trkpt>
      <trkpt lat="41.6855183" lon="-3.58474"><ele>1395</ele><speed>68</speed><time>2016-06-29T16:41:14Z</time><course>78</course><type>1</type></trkpt>
      <trkpt lat="41.6856016" lon="-3.584275"><ele>1390</ele><speed>73</speed><time>2016-06-29T16:41:16Z</time><course>74</course><type>1</type></trkpt>
      <trkpt lat="41.685705" lon="-3.5838117"><ele>1386</ele><speed>68</speed><time>2016-06-29T16:41:18Z</time><course>73</course><type>1</type></trkpt>
      <trkpt lat="41.68575" lon="-3.583595"><ele>1384</ele><speed>71</speed><time>2016-06-29T16:41:19Z</time><course>75</course><type>1</type></trkpt>
      <trkpt lat="41.685785" lon="-3.583385"><ele>1382</ele><speed>63</speed><time>2016-06-29T16:41:20Z</time><course>78</course><type>1</type></trkpt>
      <trkpt lat="41.6858516" lon="-3.5829584"><ele>1377</ele><speed>67</speed><time>2016-06-29T16:41:22Z</time><course>78</course><type>1</type></trkpt>
      <trkpt lat="41.6858916" lon="-3.5827367"><ele>1375</ele><speed>68</speed><time>2016-06-29T16:41:23Z</time><course>75</course><type>1</type></trkpt>
      <trkpt lat="41.686005" lon="-3.5823034"><ele>1370</ele><speed>66</speed><time>2016-06-29T16:41:25Z</time><course>69</course><type>1</type></trkpt>
      <trkpt lat="41.6860583" lon="-3.5820984"><ele>1368</ele><speed>68</speed><time>2016-06-29T16:41:26Z</time><course>73</course><type>1</type></trkpt>
      <trkpt lat="41.68613" lon="-3.5816717"><ele>1363</ele><speed>66</speed><time>2016-06-29T16:41:28Z</time><course>79</course><type>1</type></trkpt>
      <trkpt lat="41.6861916" lon="-3.5812184"><ele>1354</ele><speed>69</speed><time>2016-06-29T16:41:30Z</time><course>78</course><type>1</type></trkpt>
      <trkpt lat="41.686225" lon="-3.5809934"><ele>1350</ele><speed>68</speed><time>2016-06-29T16:41:31Z</time><course>78</course><type>1</type></trkpt>
      <trkpt lat="41.68626" lon="-3.5807734"><ele>1346</ele><speed>66</speed><time>2016-06-29T16:41:32Z</time><course>77</course><type>1</type></trkpt>
      <trkpt lat="41.6863266" lon="-3.5803484"><ele>1342</ele><speed>64</speed><time>2016-06-29T16:41:34Z</time><course>76</course><type>1</type></trkpt>
      <trkpt lat="41.6864116" lon="-3.5799367"><ele>1337</ele><speed>63</speed><time>2016-06-29T16:41:36Z</time><course>73</course><type>1</type></trkpt>
      <trkpt lat="41.6864533" lon="-3.5797217"><ele>1333</ele><speed>66</speed><time>2016-06-29T16:41:37Z</time><course>76</course><type>1</type></trkpt>
      <trkpt lat="41.6864966" lon="-3.5794967"><ele>1327</ele><speed>70</speed><time>2016-06-29T16:41:38Z</time><course>76</course><type>1</type></trkpt>
      <trkpt lat="41.6865766" lon="-3.5790034"><ele>1320</ele><speed>76</speed><time>2016-06-29T16:41:40Z</time><course>77</course><type>1</type></trkpt>
      <trkpt lat="41.68666" lon="-3.5785267"><ele>1312</ele><speed>76</speed><time>2016-06-29T16:41:42Z</time><course>76</course><type>1</type></trkpt>
      <trkpt lat="41.6867416" lon="-3.5780867"><ele>1304</ele><speed>69</speed><time>2016-06-29T16:41:44Z</time><course>77</course><type>1</type></trkpt>
      <trkpt lat="41.6867833" lon="-3.5778584"><ele>1299</ele><speed>68</speed><time>2016-06-29T16:41:45Z</time><course>76</course><type>1</type></trkpt>
      <trkpt lat="41.6868299" lon="-3.5776217"><ele>1295</ele><speed>74</speed><time>2016-06-29T16:41:46Z</time><course>75</course><type>1</type></trkpt>
      <trkpt lat="41.6869216" lon="-3.5771284"><ele>1291</ele><speed>73</speed><time>2016-06-29T16:41:48Z</time><course>76</course><type>1</type></trkpt>
      <trkpt lat="41.6870016" lon="-3.5766584"><ele>1287</ele><speed>70</speed><time>2016-06-29T16:41:50Z</time><course>78</course><type>1</type></trkpt>
      <trkpt lat="41.687075" lon="-3.5761934"><ele>1281</ele><speed>72</speed><time>2016-06-29T16:41:52Z</time><course>78</course><type>1</type></trkpt>
      <trkpt lat="41.6871383" lon="-3.5757167"><ele>1276</ele><speed>72</speed><time>2016-06-29T16:41:54Z</time><course>80</course><type>1</type></trkpt>
      <trkpt lat="41.687205" lon="-3.5752384"><ele>1269</ele><speed>73</speed><time>2016-06-29T16:41:56Z</time><course>79</course><type>1</type></trkpt>
      <trkpt lat="41.6872666" lon="-3.5747467"><ele>1266</ele><speed>73</speed><time>2016-06-29T16:41:58Z</time><course>79</course><type>1</type></trkpt>
      <trkpt lat="41.6873416" lon="-3.57429"><ele>1262</ele><speed>66</speed><time>2016-06-29T16:42:00Z</time><course>77</course><type>1</type></trkpt>
      <trkpt lat="41.6874116" lon="-3.5738651"><ele>1258</ele><speed>66</speed><time>2016-06-29T16:42:02Z</time><course>79</course><type>1</type></trkpt>
      <trkpt lat="41.6874733" lon="-3.5734167"><ele>1253</ele><speed>72</speed><time>2016-06-29T16:42:04Z</time><course>80</course><type>1</type></trkpt>
      <trkpt lat="41.6875433" lon="-3.5729367"><ele>1248</ele><speed>74</speed><time>2016-06-29T16:42:06Z</time><course>77</course><type>1</type></trkpt>
      <trkpt lat="41.6876183" lon="-3.5724717"><ele>1247</ele><speed>70</speed><time>2016-06-29T16:42:08Z</time><course>78</course><type>1</type></trkpt>
      <trkpt lat="41.6876849" lon="-3.5720301"><ele>1245</ele><speed>64</speed><time>2016-06-29T16:42:10Z</time><course>78</course><type>1</type></trkpt>
      <trkpt lat="41.6877216" lon="-3.5718117"><ele>1243</ele><speed>70</speed><time>2016-06-29T16:42:11Z</time><course>77</course><type>1</type></trkpt>
      <trkpt lat="41.687765" lon="-3.5715817"><ele>1241</ele><speed>67</speed><time>2016-06-29T16:42:12Z</time><course>76</course><type>1</type></trkpt>
      <trkpt lat="41.6878683" lon="-3.571115"><ele>1239</ele><speed>72</speed><time>2016-06-29T16:42:14Z</time><course>73</course><type>1</type></trkpt>
      <trkpt lat="41.687955" lon="-3.5707334"><ele>1238</ele><speed>55</speed><time>2016-06-29T16:42:16Z</time><course>75</course><type>1</type></trkpt>
      <trkpt lat="41.6880233" lon="-3.5703717"><ele>1234</ele><speed>59</speed><time>2016-06-29T16:42:18Z</time><course>76</course><type>1</type></trkpt>
      <trkpt lat="41.6880633" lon="-3.5701767"><ele>1232</ele><speed>62</speed><time>2016-06-29T16:42:19Z</time><course>74</course><type>1</type></trkpt>
      <trkpt lat="41.6881133" lon="-3.569975"><ele>1230</ele><speed>64</speed><time>2016-06-29T16:42:20Z</time><course>69</course><type>1</type></trkpt>
      <trkpt lat="41.68817" lon="-3.569775"><ele>1229</ele><speed>62</speed><time>2016-06-29T16:42:21Z</time><course>69</course><type>1</type></trkpt>
      <trkpt lat="41.6882633" lon="-3.5693784"><ele>1226</ele><speed>62</speed><time>2016-06-29T16:42:23Z</time><course>77</course><type>1</type></trkpt>
      <trkpt lat="41.6882983" lon="-3.56917"><ele>1225</ele><speed>65</speed><time>2016-06-29T16:42:24Z</time><course>78</course><type>1</type></trkpt>
      <trkpt lat="41.68837" lon="-3.56874"><ele>1221</ele><speed>67</speed><time>2016-06-29T16:42:26Z</time><course>76</course><type>1</type></trkpt>
      <trkpt lat="41.6884483" lon="-3.56831"><ele>1219</ele><speed>64</speed><time>2016-06-29T16:42:28Z</time><course>77</course><type>1</type></trkpt>
      <trkpt lat="41.6885116" lon="-3.5678984"><ele>1216</ele><speed>61</speed><time>2016-06-29T16:42:30Z</time><course>79</course><type>1</type></trkpt>
      <trkpt lat="41.6885416" lon="-3.5676934"><ele>1214</ele><speed>63</speed><time>2016-06-29T16:42:31Z</time><course>78</course><type>1</type></trkpt>
      <trkpt lat="41.688575" lon="-3.5674767"><ele>1212</ele><speed>68</speed><time>2016-06-29T16:42:32Z</time><course>78</course><type>1</type></trkpt>
      <trkpt lat="41.688645" lon="-3.5670084"><ele>1208</ele><speed>71</speed><time>2016-06-29T16:42:34Z</time><course>79</course><type>1</type></trkpt>
      <trkpt lat="41.688705" lon="-3.56659"><ele>1206</ele><speed>57</speed><time>2016-06-29T16:42:36Z</time><course>79</course><type>1</type></trkpt>
      <trkpt lat="41.6887583" lon="-3.566195"><ele>1203</ele><speed>64</speed><time>2016-06-29T16:42:38Z</time><course>80</course><type>1</type></trkpt>
      <trkpt lat="41.6888216" lon="-3.565755"><ele>1200</ele><speed>67</speed><time>2016-06-29T16:42:40Z</time><course>78</course><type>1</type></trkpt>
      <trkpt lat="41.6888516" lon="-3.5655434"><ele>1200</ele><speed>61</speed><time>2016-06-29T16:42:41Z</time><course>78</course><type>1</type></trkpt>
      <trkpt lat="41.688905" lon="-3.5651584"><ele>1199</ele><speed>57</speed><time>2016-06-29T16:42:43Z</time><course>80</course><type>1</type></trkpt>
      <trkpt lat="41.6889666" lon="-3.56476"><ele>1196</ele><speed>64</speed><time>2016-06-29T16:42:45Z</time><course>75</course><type>1</type></trkpt>
      <trkpt lat="41.68901" lon="-3.5645517"><ele>1195</ele><speed>64</speed><time>2016-06-29T16:42:46Z</time><course>73</course><type>1</type></trkpt>
      <trkpt lat="41.6890816" lon="-3.56416"><ele>1195</ele><speed>57</speed><time>2016-06-29T16:42:48Z</time><course>78</course><type>1</type></trkpt>
      <trkpt lat="41.6891083" lon="-3.563975"><ele>1194</ele><speed>54</speed><time>2016-06-29T16:42:49Z</time><course>78</course><type>1</type></trkpt>
      <trkpt lat="41.68914" lon="-3.563795"><ele>1193</ele><speed>56</speed><time>2016-06-29T16:42:50Z</time><course>76</course><type>1</type></trkpt>
      <trkpt lat="41.6891749" lon="-3.5636067"><ele>1191</ele><speed>60</speed><time>2016-06-29T16:42:51Z</time><course>76</course><type>1</type></trkpt>
      <trkpt lat="41.6892416" lon="-3.563185"><ele>1188</ele><speed>67</speed><time>2016-06-29T16:42:53Z</time><course>80</course><type>1</type></trkpt>
      <trkpt lat="41.6892666" lon="-3.5629617"><ele>1187</ele><speed>67</speed><time>2016-06-29T16:42:54Z</time><course>82</course><type>1</type></trkpt>
      <trkpt lat="41.6893166" lon="-3.56253"><ele>1185</ele><speed>64</speed><time>2016-06-29T16:42:56Z</time><course>80</course><type>1</type></trkpt>
      <trkpt lat="41.68937" lon="-3.5621034"><ele>1183</ele><speed>65</speed><time>2016-06-29T16:42:58Z</time><course>81</course><type>1</type></trkpt>
      <trkpt lat="41.6893966" lon="-3.5618884"><ele>1181</ele><speed>65</speed><time>2016-06-29T16:42:59Z</time><course>80</course><type>1</type></trkpt>
      <trkpt lat="41.6894266" lon="-3.561675"><ele>1181</ele><speed>65</speed><time>2016-06-29T16:43:00Z</time><course>78</course><type>1</type></trkpt>
      <trkpt lat="41.6894933" lon="-3.5612634"><ele>1180</ele><speed>59</speed><time>2016-06-29T16:43:02Z</time><course>78</course><type>1</type></trkpt>
      <trkpt lat="41.6895583" lon="-3.5608784"><ele>1177</ele><speed>60</speed><time>2016-06-29T16:43:04Z</time><course>75</course><type>1</type></trkpt>
      <trkpt lat="41.6896016" lon="-3.560675"><ele>1175</ele><speed>64</speed><time>2016-06-29T16:43:05Z</time><course>72</course><type>1</type></trkpt>
      <trkpt lat="41.6896549" lon="-3.5604684"><ele>1174</ele><speed>66</speed><time>2016-06-29T16:43:06Z</time><course>69</course><type>1</type></trkpt>
      <trkpt lat="41.6897633" lon="-3.56007"><ele>1173</ele><speed>60</speed><time>2016-06-29T16:43:08Z</time><course>70</course><type>1</type></trkpt>
      <trkpt lat="41.689845" lon="-3.5597"><ele>1171</ele><speed>59</speed><time>2016-06-29T16:43:10Z</time><course>74</course><type>1</type></trkpt>
      <trkpt lat="41.689935" lon="-3.5593034"><ele>1170</ele><speed>63</speed><time>2016-06-29T16:43:12Z</time><course>71</course><type>1</type></trkpt>
      <trkpt lat="41.6899866" lon="-3.5591067"><ele>1169</ele><speed>62</speed><time>2016-06-29T16:43:13Z</time><course>69</course><type>1</type></trkpt>
      <trkpt lat="41.6900833" lon="-3.55874"><ele>1169</ele><speed>55</speed><time>2016-06-29T16:43:15Z</time><course>72</course><type>1</type></trkpt>
      <trkpt lat="41.6901616" lon="-3.558395"><ele>1168</ele><speed>54</speed><time>2016-06-29T16:43:17Z</time><course>73</course><type>1</type></trkpt>
      <trkpt lat="41.69025" lon="-3.558035"><ele>1165</ele><speed>60</speed><time>2016-06-29T16:43:19Z</time><course>71</course><type>1</type></trkpt>
      <trkpt lat="41.6902999" lon="-3.55784"><ele>1164</ele><speed>63</speed><time>2016-06-29T16:43:20Z</time><course>71</course><type>1</type></trkpt>
      <trkpt lat="41.6903899" lon="-3.5574434"><ele>1164</ele><speed>60</speed><time>2016-06-29T16:43:22Z</time><course>76</course><type>1</type></trkpt>
      <trkpt lat="41.69045" lon="-3.5570634"><ele>1161</ele><speed>60</speed><time>2016-06-29T16:43:24Z</time><course>76</course><type>1</type></trkpt>
      <trkpt lat="41.6904883" lon="-3.5568717"><ele>1160</ele><speed>59</speed><time>2016-06-29T16:43:25Z</time><course>73</course><type>1</type></trkpt>
      <trkpt lat="41.6905416" lon="-3.5566834"><ele>1159</ele><speed>61</speed><time>2016-06-29T16:43:26Z</time><course>66</course><type>1</type></trkpt>
      <trkpt lat="41.6906716" lon="-3.5563267"><ele>1158</ele><speed>57</speed><time>2016-06-29T16:43:28Z</time><course>64</course><type>1</type></trkpt>
      <trkpt lat="41.6907583" lon="-3.55598"><ele>1157</ele><speed>52</speed><time>2016-06-29T16:43:30Z</time><course>75</course><type>1</type></trkpt>
      <trkpt lat="41.6907866" lon="-3.5558134"><ele>1156</ele><speed>51</speed><time>2016-06-29T16:43:31Z</time><course>78</course><type>1</type></trkpt>
      <trkpt lat="41.690815" lon="-3.5556367"><ele>1155</ele><speed>55</speed><time>2016-06-29T16:43:32Z</time><course>76</course><type>1</type></trkpt>
      <trkpt lat="41.6909083" lon="-3.55527"><ele>1152</ele><speed>59</speed><time>2016-06-29T16:43:34Z</time><course>67</course><type>1</type></trkpt>
      <trkpt lat="41.6909633" lon="-3.5550934"><ele>1151</ele><speed>54</speed><time>2016-06-29T16:43:35Z</time><course>65</course><type>1</type></trkpt>
      <trkpt lat="41.6910733" lon="-3.5547884"><ele>1149</ele><speed>48</speed><time>2016-06-29T16:43:37Z</time><course>61</course><type>1</type></trkpt>
      <trkpt lat="41.6911316" lon="-3.5546434"><ele>1148</ele><speed>48</speed><time>2016-06-29T16:43:38Z</time><course>61</course><type>1</type></trkpt>
      <trkpt lat="41.6912483" lon="-3.554355"><ele>1145</ele><speed>49</speed><time>2016-06-29T16:43:40Z</time><course>62</course><type>1</type></trkpt>
      <trkpt lat="41.69131" lon="-3.5542117"><ele>1143</ele><speed>48</speed><time>2016-06-29T16:43:41Z</time><course>59</course><type>1</type></trkpt>
      <trkpt lat="41.691445" lon="-3.5539367"><ele>1140</ele><speed>51</speed><time>2016-06-29T16:43:43Z</time><course>53</course><type>1</type></trkpt>
      <trkpt lat="41.69159" lon="-3.553655"><ele>1138</ele><speed>50</speed><time>2016-06-29T16:43:45Z</time><course>59</course><type>1</type></trkpt>
      <trkpt lat="41.6916499" lon="-3.5535067"><ele>1137</ele><speed>47</speed><time>2016-06-29T16:43:46Z</time><course>63</course><type>1</type></trkpt>
      <trkpt lat="41.6917666" lon="-3.5532084"><ele>1133</ele><speed>51</speed><time>2016-06-29T16:43:48Z</time><course>61</course><type>1</type></trkpt>
      <trkpt lat="41.6918299" lon="-3.55306"><ele>1132</ele><speed>51</speed><time>2016-06-29T16:43:49Z</time><course>60</course><type>1</type></trkpt>
      <trkpt lat="41.6919583" lon="-3.5527534"><ele>1129</ele><speed>54</speed><time>2016-06-29T16:43:51Z</time><course>60</course><type>1</type></trkpt>
      <trkpt lat="41.69203" lon="-3.5525934"><ele>1128</ele><speed>57</speed><time>2016-06-29T16:43:52Z</time><course>60</course><type>1</type></trkpt>
      <trkpt lat="41.69217" lon="-3.5522567"><ele>1126</ele><speed>57</speed><time>2016-06-29T16:43:54Z</time><course>63</course><type>1</type></trkpt>
      <trkpt lat="41.6922349" lon="-3.5520834"><ele>1124</ele><speed>57</speed><time>2016-06-29T16:43:55Z</time><course>65</course><type>1</type></trkpt>
      <trkpt lat="41.692295" lon="-3.5519017"><ele>1123</ele><speed>60</speed><time>2016-06-29T16:43:56Z</time><course>68</course><type>1</type></trkpt>
      <trkpt lat="41.6924083" lon="-3.5515084"><ele>1119</ele><speed>63</speed><time>2016-06-29T16:43:58Z</time><course>70</course><type>1</type></trkpt>
      <trkpt lat="41.6925049" lon="-3.5511067"><ele>1116</ele><speed>60</speed><time>2016-06-29T16:44:00Z</time><course>73</course><type>1</type></trkpt>
      <trkpt lat="41.6925499" lon="-3.5509134"><ele>1115</ele><speed>61</speed><time>2016-06-29T16:44:01Z</time><course>73</course><type>1</type></trkpt>
      <trkpt lat="41.6925949" lon="-3.5507117"><ele>1113</ele><speed>63</speed><time>2016-06-29T16:44:02Z</time><course>73</course><type>1</type></trkpt>
      <trkpt lat="41.6926366" lon="-3.5505017"><ele>1111</ele><speed>67</speed><time>2016-06-29T16:44:03Z</time><course>76</course><type>1</type></trkpt>
      <trkpt lat="41.6926733" lon="-3.5502834"><ele>1110</ele><speed>69</speed><time>2016-06-29T16:44:04Z</time><course>78</course><type>1</type></trkpt>
      <trkpt lat="41.692735" lon="-3.549855"><ele>1108</ele><speed>63</speed><time>2016-06-29T16:44:06Z</time><course>79</course><type>1</type></trkpt>
      <trkpt lat="41.6927783" lon="-3.5494334"><ele>1104</ele><speed>65</speed><time>2016-06-29T16:44:08Z</time><course>83</course><type>1</type></trkpt>
      <trkpt lat="41.692805" lon="-3.5490084"><ele>1100</ele><speed>65</speed><time>2016-06-29T16:44:10Z</time><course>85</course><type>1</type></trkpt>
      <trkpt lat="41.692815" lon="-3.5487917"><ele>1098</ele><speed>65</speed><time>2016-06-29T16:44:11Z</time><course>87</course><type>1</type></trkpt>
      <trkpt lat="41.69281" lon="-3.54836"><ele>1094</ele><speed>63</speed><time>2016-06-29T16:44:13Z</time><course>92</course><type>1</type></trkpt>
      <trkpt lat="41.6927749" lon="-3.5479284"><ele>1091</ele><speed>65</speed><time>2016-06-29T16:44:15Z</time><course>97</course><type>1</type></trkpt>
      <trkpt lat="41.6926933" lon="-3.54749"><ele>1087</ele><speed>66</speed><time>2016-06-29T16:44:17Z</time><course>105</course><type>1</type></trkpt>
      <trkpt lat="41.692575" lon="-3.54708"><ele>1083</ele><speed>62</speed><time>2016-06-29T16:44:19Z</time><course>112</course><type>1</type></trkpt>
      <trkpt lat="41.6925083" lon="-3.5468917"><ele>1081</ele><speed>62</speed><time>2016-06-29T16:44:20Z</time><course>116</course><type>1</type></trkpt>
      <trkpt lat="41.6923533" lon="-3.5465334"><ele>1076</ele><speed>64</speed><time>2016-06-29T16:44:22Z</time><course>122</course><type>1</type></trkpt>
      <trkpt lat="41.6922666" lon="-3.5463534"><ele>1074</ele><speed>63</speed><time>2016-06-29T16:44:23Z</time><course>123</course><type>1</type></trkpt>
      <trkpt lat="41.692085" lon="-3.5460084"><ele>1072</ele><speed>64</speed><time>2016-06-29T16:44:25Z</time><course>123</course><type>1</type></trkpt>
      <trkpt lat="41.6919966" lon="-3.5458434"><ele>1070</ele><speed>59</speed><time>2016-06-29T16:44:26Z</time><course>125</course><type>1</type></trkpt>
      <trkpt lat="41.6918183" lon="-3.5455284"><ele>1066</ele><speed>59</speed><time>2016-06-29T16:44:28Z</time><course>126</course><type>1</type></trkpt>
      <trkpt lat="41.6916433" lon="-3.5451867"><ele>1062</ele><speed>64</speed><time>2016-06-29T16:44:30Z</time><course>122</course><type>1</type></trkpt>
      <trkpt lat="41.6915566" lon="-3.5450167"><ele>1061</ele><speed>59</speed><time>2016-06-29T16:44:31Z</time><course>125</course><type>1</type></trkpt>
      <trkpt lat="41.691475" lon="-3.5448817"><ele>1059</ele><speed>48</speed><time>2016-06-29T16:44:32Z</time><course>129</course><type>1</type></trkpt>
      <trkpt lat="41.6913283" lon="-3.5446317"><ele>1055</ele><speed>51</speed><time>2016-06-29T16:44:34Z</time><course>126</course><type>1</type></trkpt>
      <trkpt lat="41.6911566" lon="-3.54433"><ele>1050</ele><speed>62</speed><time>2016-06-29T16:44:36Z</time><course>127</course><type>1</type></trkpt>
      <trkpt lat="41.6910616" lon="-3.5441717"><ele>1048</ele><speed>59</speed><time>2016-06-29T16:44:37Z</time><course>128</course><type>1</type></trkpt>
      <trkpt lat="41.6909716" lon="-3.54403"><ele>1047</ele><speed>52</speed><time>2016-06-29T16:44:38Z</time><course>130</course><type>1</type></trkpt>
      <trkpt lat="41.690815" lon="-3.5437984"><ele>1043</ele><speed>45</speed><time>2016-06-29T16:44:40Z</time><course>129</course><type>1</type></trkpt>
      <trkpt lat="41.690665" lon="-3.5435517"><ele>1040</ele><speed>49</speed><time>2016-06-29T16:44:42Z</time><course>128</course><type>1</type></trkpt>
      <trkpt lat="41.690495" lon="-3.543295"><ele>1036</ele><speed>54</speed><time>2016-06-29T16:44:44Z</time><course>132</course><type>1</type></trkpt>
      <trkpt lat="41.6903083" lon="-3.5430267"><ele>1032</ele><speed>53</speed><time>2016-06-29T16:44:46Z</time><course>130</course><type>1</type></trkpt>
      <trkpt lat="41.6901466" lon="-3.5427567"><ele>1028</ele><speed>49</speed><time>2016-06-29T16:44:48Z</time><course>128</course><type>1</type></trkpt>
      <trkpt lat="41.6899733" lon="-3.5425067"><ele>1024</ele><speed>52</speed><time>2016-06-29T16:44:50Z</time><course>134</course><type>1</type></trkpt>
      <trkpt lat="41.6897783" lon="-3.5422434"><ele>1019</ele><speed>57</speed><time>2016-06-29T16:44:52Z</time><course>131</course><type>1</type></trkpt>
      <trkpt lat="41.68969" lon="-3.542095"><ele>1017</ele><speed>56</speed><time>2016-06-29T16:44:53Z</time><course>126</course><type>1</type></trkpt>
      <trkpt lat="41.68953" lon="-3.5417984"><ele>1013</ele><speed>52</speed><time>2016-06-29T16:44:55Z</time><course>124</course><type>1</type></trkpt>
      <trkpt lat="41.6893666" lon="-3.5415017"><ele>1009</ele><speed>58</speed><time>2016-06-29T16:44:57Z</time><course>128</course><type>1</type></trkpt>
      <trkpt lat="41.6891916" lon="-3.5411767"><ele>1006</ele><speed>60</speed><time>2016-06-29T16:44:59Z</time><course>124</course><type>1</type></trkpt>
      <trkpt lat="41.6890216" lon="-3.5408634"><ele>1002</ele><speed>55</speed><time>2016-06-29T16:45:01Z</time><course>127</course><type>1</type></trkpt>
      <trkpt lat="41.68894" lon="-3.5407167"><ele>1000</ele><speed>56</speed><time>2016-06-29T16:45:02Z</time><course>129</course><type>1</type></trkpt>
      <trkpt lat="41.688765" lon="-3.54041"><ele>996</ele><speed>56</speed><time>2016-06-29T16:45:04Z</time><course>127</course><type>1</type></trkpt>
      <trkpt lat="41.6885883" lon="-3.5400884"><ele>991</ele><speed>58</speed><time>2016-06-29T16:45:06Z</time><course>125</course><type>1</type></trkpt>
      <trkpt lat="41.6884183" lon="-3.539775"><ele>987</ele><speed>58</speed><time>2016-06-29T16:45:08Z</time><course>126</course><type>1</type></trkpt>
      <trkpt lat="41.6882466" lon="-3.5394484"><ele>983</ele><speed>60</speed><time>2016-06-29T16:45:10Z</time><course>125</course><type>1</type></trkpt>
      <trkpt lat="41.68807" lon="-3.5391267"><ele>979</ele><speed>58</speed><time>2016-06-29T16:45:12Z</time><course>124</course><type>1</type></trkpt>
      <trkpt lat="41.6879099" lon="-3.5388017"><ele>974</ele><speed>57</speed><time>2016-06-29T16:45:14Z</time><course>122</course><type>1</type></trkpt>
      <trkpt lat="41.6877433" lon="-3.5384734"><ele>970</ele><speed>58</speed><time>2016-06-29T16:45:16Z</time><course>123</course><type>1</type></trkpt>
      <trkpt lat="41.68766" lon="-3.5383167"><ele>968</ele><speed>56</speed><time>2016-06-29T16:45:17Z</time><course>125</course><type>1</type></trkpt>
      <trkpt lat="41.6875733" lon="-3.5381567"><ele>966</ele><speed>59</speed><time>2016-06-29T16:45:18Z</time><course>124</course><type>1</type></trkpt>
      <trkpt lat="41.6874" lon="-3.5378167"><ele>962</ele><speed>61</speed><time>2016-06-29T16:45:20Z</time><course>123</course><type>1</type></trkpt>
      <trkpt lat="41.6872349" lon="-3.5374984"><ele>958</ele><speed>56</speed><time>2016-06-29T16:45:22Z</time><course>127</course><type>1</type></trkpt>
      <trkpt lat="41.6871433" lon="-3.53736"><ele>956</ele><speed>53</speed><time>2016-06-29T16:45:23Z</time><course>133</course><type>1</type></trkpt>
      <trkpt lat="41.6869466" lon="-3.5371167"><ele>951</ele><speed>54</speed><time>2016-06-29T16:45:25Z</time><course>135</course><type>1</type></trkpt>
      <trkpt lat="41.6867633" lon="-3.5368067"><ele>946</ele><speed>63</speed><time>2016-06-29T16:45:27Z</time><course>121</course><type>1</type></trkpt>
      <trkpt lat="41.6866033" lon="-3.53645"><ele>942</ele><speed>58</speed><time>2016-06-29T16:45:29Z</time><course>121</course><type>1</type></trkpt>
      <trkpt lat="41.6864483" lon="-3.5361167"><ele>938</ele><speed>59</speed><time>2016-06-29T16:45:31Z</time><course>121</course><type>1</type></trkpt>
      <trkpt lat="41.6863716" lon="-3.5359417"><ele>936</ele><speed>61</speed><time>2016-06-29T16:45:32Z</time><course>118</course><type>1</type></trkpt>
      <trkpt lat="41.686225" lon="-3.53555"><ele>931</ele><speed>68</speed><time>2016-06-29T16:45:34Z</time><course>113</course><type>1</type></trkpt>
      <trkpt lat="41.6861033" lon="-3.5351167"><ele>927</ele><speed>68</speed><time>2016-06-29T16:45:36Z</time><course>106</course><type>1</type></trkpt>
      <trkpt lat="41.6860166" lon="-3.5346717"><ele>923</ele><speed>69</speed><time>2016-06-29T16:45:38Z</time><course>101</course><type>1</type></trkpt>
      <trkpt lat="41.68595" lon="-3.534205"><ele>918</ele><speed>72</speed><time>2016-06-29T16:45:40Z</time><course>99</course><type>1</type></trkpt>
      <trkpt lat="41.6859233" lon="-3.5339684"><ele>915</ele><speed>72</speed><time>2016-06-29T16:45:41Z</time><course>98</course><type>1</type></trkpt>
      <trkpt lat="41.6859" lon="-3.5337334"><ele>912</ele><speed>70</speed><time>2016-06-29T16:45:42Z</time><course>97</course><type>1</type></trkpt>
      <trkpt lat="41.68588" lon="-3.5332784"><ele>907</ele><speed>67</speed><time>2016-06-29T16:45:44Z</time><course>91</course><type>1</type></trkpt>
      <trkpt lat="41.6858816" lon="-3.532825"><ele>903</ele><speed>69</speed><time>2016-06-29T16:45:46Z</time><course>89</course><type>1</type></trkpt>
      <trkpt lat="41.6858966" lon="-3.5323617"><ele>898</ele><speed>69</speed><time>2016-06-29T16:45:48Z</time><course>87</course><type>1</type></trkpt>
      <trkpt lat="41.68592" lon="-3.5319084"><ele>895</ele><speed>69</speed><time>2016-06-29T16:45:50Z</time><course>86</course><type>1</type></trkpt>
      <trkpt lat="41.685945" lon="-3.53146"><ele>891</ele><speed>67</speed><time>2016-06-29T16:45:52Z</time><course>84</course><type>1</type></trkpt>
      <trkpt lat="41.6859666" lon="-3.5312334"><ele>888</ele><speed>69</speed><time>2016-06-29T16:45:53Z</time><course>81</course><type>1</type></trkpt>
      <trkpt lat="41.6860266" lon="-3.5307717"><ele>885</ele><speed>67</speed><time>2016-06-29T16:45:55Z</time><course>79</course><type>1</type></trkpt>
      <trkpt lat="41.68606" lon="-3.5305567"><ele>884</ele><speed>63</speed><time>2016-06-29T16:45:56Z</time><course>77</course><type>1</type></trkpt>
      <trkpt lat="41.6861233" lon="-3.5301667"><ele>882</ele><speed>56</speed><time>2016-06-29T16:45:58Z</time><course>78</course><type>1</type></trkpt>
      <trkpt lat="41.6861466" lon="-3.5299784"><ele>881</ele><speed>57</speed><time>2016-06-29T16:45:59Z</time><course>83</course><type>1</type></trkpt>
      <trkpt lat="41.686165" lon="-3.5295834"><ele>879</ele><speed>56</speed><time>2016-06-29T16:46:01Z</time><course>87</course><type>1</type></trkpt>
      <trkpt lat="41.6861616" lon="-3.52919"><ele>880</ele><speed>54</speed><time>2016-06-29T16:46:03Z</time><course>97</course><type>1</type></trkpt>
      <trkpt lat="41.6860816" lon="-3.5288767"><ele>880</ele><speed>43</speed><time>2016-06-29T16:46:05Z</time><course>119</course><type>1</type></trkpt>
      <trkpt lat="41.6860216" lon="-3.5287567"><ele>881</ele><speed>41</speed><time>2016-06-29T16:46:06Z</time><course>122</course><type>1</type></trkpt>
      <trkpt lat="41.68592" lon="-3.5285184"><ele>880</ele><speed>41</speed><time>2016-06-29T16:46:08Z</time><course>121</course><type>1</type></trkpt>
      <trkpt lat="41.6857716" lon="-3.5283217"><ele>878</ele><speed>43</speed><time>2016-06-29T16:46:10Z</time><course>147</course><type>1</type></trkpt>
      <trkpt lat="41.6855799" lon="-3.528185"><ele>878</ele><speed>38</speed><time>2016-06-29T16:46:12Z</time><course>152</course><type>1</type></trkpt>
      <trkpt lat="41.6854283" lon="-3.5280717"><ele>877</ele><speed>29</speed><time>2016-06-29T16:46:14Z</time><course>147</course><type>1</type></trkpt>
      <trkpt lat="41.685295" lon="-3.5279584"><ele>876</ele><speed>33</speed><time>2016-06-29T16:46:16Z</time><course>145</course><type>1</type></trkpt>
      <trkpt lat="41.68514" lon="-3.5278217"><ele>874</ele><speed>37</speed><time>2016-06-29T16:46:18Z</time><course>147</course><type>1</type></trkpt>
      <trkpt lat="41.6849949" lon="-3.5277034"><ele>874</ele><speed>30</speed><time>2016-06-29T16:46:20Z</time><course>145</course><type>1</type></trkpt>
      <trkpt lat="41.6848916" lon="-3.5275884"><ele>873</ele><speed>24</speed><time>2016-06-29T16:46:22Z</time><course>140</course><type>1</type></trkpt>
      <trkpt lat="41.6848033" lon="-3.5275334"><ele>870</ele><speed>17</speed><time>2016-06-29T16:46:24Z</time><course>169</course><type>1</type></trkpt>
      <trkpt lat="41.6847166" lon="-3.5275217"><ele>868</ele><speed>17</speed><time>2016-06-29T16:46:26Z</time><course>179</course><type>1</type></trkpt>
      <trkpt lat="41.6846466" lon="-3.52751"><ele>865</ele><speed>12</speed><time>2016-06-29T16:46:28Z</time><course>166</course><type>1</type></trkpt>
      <trkpt lat="41.684585" lon="-3.527495"><ele>862</ele><speed>12</speed><time>2016-06-29T16:46:30Z</time><course>170</course><type>1</type></trkpt>
      <trkpt lat="41.6845133" lon="-3.5275017"><ele>859</ele><speed>15</speed><time>2016-06-29T16:46:32Z</time><course>185</course><type>1</type></trkpt>
      <trkpt lat="41.6844433" lon="-3.5275"><ele>857</ele><speed>12</speed><time>2016-06-29T16:46:34Z</time><course>174</course><type>1</type></trkpt>
      <trkpt lat="41.6844016" lon="-3.527495"><ele>854</ele><speed>5</speed><time>2016-06-29T16:46:36Z</time><course>168</course><type>1</type></trkpt>
      <trkpt lat="41.6843616" lon="-3.5275017"><ele>850</ele><speed>9</speed><time>2016-06-29T16:46:39Z</time><course>161</course><type>1</type></trkpt>
      <trkpt lat="41.684295" lon="-3.5274734"><ele>848</ele><speed>14</speed><time>2016-06-29T16:46:41Z</time><course>160</course><type>1</type></trkpt>
      <trkpt lat="41.684225" lon="-3.5274867"><ele>845</ele><speed>17</speed><time>2016-06-29T16:46:43Z</time><course>204</course><type>1</type></trkpt>
      <trkpt lat="41.6841833" lon="-3.527515"><ele>844</ele><speed>21</speed><time>2016-06-29T16:46:44Z</time><course>202</course><type>1</type></trkpt>
      <trkpt lat="41.6841033" lon="-3.5275267"><ele>844</ele><speed>13</speed><time>2016-06-29T16:46:46Z</time><course>149</course><type>1</type></trkpt>
      <trkpt lat="41.6840733" lon="-3.5275"><ele>843</ele><speed>15</speed><time>2016-06-29T16:46:47Z</time><course>141</course><type>1</type></trkpt>
      <trkpt lat="41.6840049" lon="-3.5274617"><ele>842</ele><speed>14</speed><time>2016-06-29T16:46:49Z</time><course>171</course><type>1</type></trkpt>
      <trkpt lat="41.6839083" lon="-3.5275184"><ele>839</ele><speed>16</speed><time>2016-06-29T16:46:52Z</time><course>198</course><type>1</type></trkpt>
      <trkpt lat="41.68384" lon="-3.527525"><ele>838</ele><speed>17</speed><time>2016-06-29T16:46:54Z</time><course>202</course><type>1</type></trkpt>
      <trkpt lat="41.6837666" lon="-3.5275734"><ele>837</ele><speed>13</speed><time>2016-06-29T16:46:56Z</time><course>205</course><type>1</type></trkpt>
      <trkpt lat="41.683715" lon="-3.5276017"><ele>836</ele><speed>10</speed><time>2016-06-29T16:46:58Z</time><course>195</course><type>1</type></trkpt>
      <trkpt lat="41.6836733" lon="-3.5276184"><ele>835</ele><speed>6</speed><time>2016-06-29T16:47:00Z</time><course>188</course><type>1</type></trkpt>
      <trkpt lat="41.68364" lon="-3.527595"><ele>833</ele><speed>5</speed><time>2016-06-29T16:47:03Z</time><course>164</course><type>1</type></trkpt>
      <trkpt lat="41.683585" lon="-3.5276684"><ele>829</ele><speed>13</speed><time>2016-06-29T16:47:08Z</time><course>227</course><type>1</type></trkpt>
      <trkpt lat="41.683525" lon="-3.5277034"><ele>827</ele><speed>19</speed><time>2016-06-29T16:47:10Z</time><course>195</course><type>1</type></trkpt>
      <trkpt lat="41.683485" lon="-3.52773"><ele>826</ele><speed>20</speed><time>2016-06-29T16:47:11Z</time><course>204</course><type>1</type></trkpt>
      <trkpt lat="41.6834516" lon="-3.5277717"><ele>825</ele><speed>19</speed><time>2016-06-29T16:47:12Z</time><course>225</course><type>1</type></trkpt>
      <trkpt lat="41.6833983" lon="-3.5278784"><ele>824</ele><speed>21</speed><time>2016-06-29T16:47:14Z</time><course>244</course><type>1</type></trkpt>
      <trkpt lat="41.6832916" lon="-3.5279684"><ele>822</ele><speed>17</speed><time>2016-06-29T16:47:17Z</time><course>214</course><type>1</type></trkpt>
      <trkpt lat="41.6832283" lon="-3.5280384"><ele>821</ele><speed>16</speed><time>2016-06-29T16:47:19Z</time><course>207</course><type>1</type></trkpt>
      <trkpt lat="41.6831333" lon="-3.528055"><ele>818</ele><speed>22</speed><time>2016-06-29T16:47:21Z</time><course>182</course><type>1</type></trkpt>
      <trkpt lat="41.6829833" lon="-3.5281417"><ele>814</ele><speed>22</speed><time>2016-06-29T16:47:24Z</time><course>215</course><type>1</type></trkpt>
      <trkpt lat="41.6828899" lon="-3.528265"><ele>813</ele><speed>15</speed><time>2016-06-29T16:47:27Z</time><course>215</course><type>1</type></trkpt>
      <trkpt lat="41.68284" lon="-3.52831"><ele>811</ele><speed>12</speed><time>2016-06-29T16:47:29Z</time><course>224</course><type>1</type></trkpt>
      <trkpt lat="41.6827983" lon="-3.5283784"><ele>809</ele><speed>15</speed><time>2016-06-29T16:47:31Z</time><course>227</course><type>1</type></trkpt>
      <trkpt lat="41.6827166" lon="-3.5285017"><ele>808</ele><speed>12</speed><time>2016-06-29T16:47:34Z</time><course>236</course><type>1</type></trkpt>
      <trkpt lat="41.6826683" lon="-3.5285884"><ele>806</ele><speed>17</speed><time>2016-06-29T16:47:36Z</time><course>236</course><type>1</type></trkpt>
      <trkpt lat="41.6825983" lon="-3.528695"><ele>805</ele><speed>20</speed><time>2016-06-29T16:47:38Z</time><course>217</course><type>1</type></trkpt>
      <trkpt lat="41.68254" lon="-3.5287584"><ele>800</ele><speed>9</speed><time>2016-06-29T16:47:42Z</time><course>220</course><type>1</type></trkpt>
      <trkpt lat="41.682525" lon="-3.5288384"><ele>800</ele><speed>6</speed><time>2016-06-29T16:47:44Z</time><course>225</course><type>1</type></trkpt>
      <trkpt lat="41.6824883" lon="-3.5288734"><ele>800</ele><speed>0</speed><time>2016-06-29T16:47:47Z</time><course>225</course><type>1</type></trkpt>
   </trkseg>
  </trk>
</gpx>
